<?xml version="1.0" encoding="UTF-8" standalone="no" ?>
<gpx xmlns="http://www.topografix.com/GPX/1/1" xmlns:xsi="http://www.w3.org/2001/XMLSchema-instance" xsi:schemaLocation="http://www.topografix.com/GPX/1/1 http://www.topografix.com/GPX/1/1/gpx.xsd" version="1.1" creator="VisuGPX - https://www.visugpx.com">
  <metadata>
    <name>Oppidum de Mouressipe</name>
    <desc><![CDATA[#enregistré #court]]></desc>
  </metadata>
  <trk>
    <name><![CDATA[Trace 1778312477999]]></name>
    <trkseg>
      <trkpt lat="43.8327" lon="4.20209">
        <ele>156</ele>
        <time>2026-05-09T07:41:17.999Z</time>
      </trkpt>
      <trkpt lat="43.83271" lon="4.20208">
        <ele>155</ele>
        <time>2026-05-09T07:41:18.999Z</time>
      </trkpt>
      <trkpt lat="43.83272" lon="4.20209">
        <ele>154.9</ele>
        <time>2026-05-09T07:41:19.999Z</time>
      </trkpt>
      <trkpt lat="43.83272" lon="4.2021">
        <ele>154.9</ele>
        <time>2026-05-09T07:41:20.999Z</time>
      </trkpt>
      <trkpt lat="43.83272" lon="4.20211">
        <ele>154.8</ele>
        <time>2026-05-09T07:41:21.999Z</time>
      </trkpt>
      <trkpt lat="43.83273" lon="4.20212">
        <ele>155</ele>
        <time>2026-05-09T07:41:23.999Z</time>
      </trkpt>
      <trkpt lat="43.83273" lon="4.20212">
        <ele>155.3</ele>
        <time>2026-05-09T07:41:24.999Z</time>
      </trkpt>
      <trkpt lat="43.83273" lon="4.20211">
        <ele>155</ele>
        <time>2026-05-09T07:41:25.999Z</time>
      </trkpt>
      <trkpt lat="43.83272" lon="4.2021">
        <ele>155.2</ele>
        <time>2026-05-09T07:41:26.999Z</time>
      </trkpt>
      <trkpt lat="43.83273" lon="4.2021">
        <ele>155.5</ele>
        <time>2026-05-09T07:41:27.999Z</time>
      </trkpt>
      <trkpt lat="43.83272" lon="4.2021">
        <ele>156.3</ele>
        <time>2026-05-09T07:41:28.999Z</time>
      </trkpt>
      <trkpt lat="43.83272" lon="4.20211">
        <ele>156.6</ele>
        <time>2026-05-09T07:41:29.999Z</time>
      </trkpt>
      <trkpt lat="43.83272" lon="4.20212">
        <ele>157.4</ele>
        <time>2026-05-09T07:41:30.999Z</time>
      </trkpt>
      <trkpt lat="43.83272" lon="4.20212">
        <ele>157.4</ele>
        <time>2026-05-09T07:41:31.999Z</time>
      </trkpt>
      <trkpt lat="43.83275" lon="4.20215">
        <ele>155.7</ele>
        <time>2026-05-09T07:41:33.999Z</time>
      </trkpt>
      <trkpt lat="43.83275" lon="4.20216">
        <ele>155</ele>
        <time>2026-05-09T07:41:34.999Z</time>
      </trkpt>
      <trkpt lat="43.83276" lon="4.20217">
        <ele>154.5</ele>
        <time>2026-05-09T07:41:35.999Z</time>
      </trkpt>
      <trkpt lat="43.83277" lon="4.20219">
        <ele>153.4</ele>
        <time>2026-05-09T07:41:36.999Z</time>
      </trkpt>
      <trkpt lat="43.83278" lon="4.2022">
        <ele>153.3</ele>
        <time>2026-05-09T07:41:37.999Z</time>
      </trkpt>
      <trkpt lat="43.83279" lon="4.20223">
        <ele>153.7</ele>
        <time>2026-05-09T07:41:38.999Z</time>
      </trkpt>
      <trkpt lat="43.8328" lon="4.20225">
        <ele>153.9</ele>
        <time>2026-05-09T07:41:39.999Z</time>
      </trkpt>
      <trkpt lat="43.8328" lon="4.20227">
        <ele>154.7</ele>
        <time>2026-05-09T07:41:40.999Z</time>
      </trkpt>
      <trkpt lat="43.8328" lon="4.20229">
        <ele>155.3</ele>
        <time>2026-05-09T07:41:41.999Z</time>
      </trkpt>
      <trkpt lat="43.83279" lon="4.20231">
        <ele>155.4</ele>
        <time>2026-05-09T07:41:42.999Z</time>
      </trkpt>
      <trkpt lat="43.83279" lon="4.20232">
        <ele>155.1</ele>
        <time>2026-05-09T07:41:43.999Z</time>
      </trkpt>
      <trkpt lat="43.83279" lon="4.20233">
        <ele>155</ele>
        <time>2026-05-09T07:41:44.999Z</time>
      </trkpt>
      <trkpt lat="43.83279" lon="4.20234">
        <ele>155.4</ele>
        <time>2026-05-09T07:41:45.999Z</time>
      </trkpt>
      <trkpt lat="43.83279" lon="4.20235">
        <ele>155.2</ele>
        <time>2026-05-09T07:41:46.999Z</time>
      </trkpt>
      <trkpt lat="43.83279" lon="4.20237">
        <ele>155.4</ele>
        <time>2026-05-09T07:41:47.999Z</time>
      </trkpt>
      <trkpt lat="43.83279" lon="4.20239">
        <ele>155</ele>
        <time>2026-05-09T07:41:48.999Z</time>
      </trkpt>
      <trkpt lat="43.8328" lon="4.2024">
        <ele>154.8</ele>
        <time>2026-05-09T07:41:49.999Z</time>
      </trkpt>
      <trkpt lat="43.8328" lon="4.20241">
        <ele>154.7</ele>
        <time>2026-05-09T07:41:50.999Z</time>
      </trkpt>
      <trkpt lat="43.83281" lon="4.20242">
        <ele>154.3</ele>
        <time>2026-05-09T07:41:51.999Z</time>
      </trkpt>
      <trkpt lat="43.83281" lon="4.20242">
        <ele>153.8</ele>
        <time>2026-05-09T07:41:52.999Z</time>
      </trkpt>
      <trkpt lat="43.83282" lon="4.20242">
        <ele>153.7</ele>
        <time>2026-05-09T07:41:53.999Z</time>
      </trkpt>
      <trkpt lat="43.83283" lon="4.20243">
        <ele>153.8</ele>
        <time>2026-05-09T07:41:54.999Z</time>
      </trkpt>
      <trkpt lat="43.83283" lon="4.20243">
        <ele>155.2</ele>
        <time>2026-05-09T07:41:55.999Z</time>
      </trkpt>
      <trkpt lat="43.83283" lon="4.20244">
        <ele>155.2</ele>
        <time>2026-05-09T07:41:56.999Z</time>
      </trkpt>
      <trkpt lat="43.83284" lon="4.20245">
        <ele>155.4</ele>
        <time>2026-05-09T07:41:57.999Z</time>
      </trkpt>
      <trkpt lat="43.83284" lon="4.20246">
        <ele>155</ele>
        <time>2026-05-09T07:41:58.999Z</time>
      </trkpt>
      <trkpt lat="43.83284" lon="4.20247">
        <ele>154.8</ele>
        <time>2026-05-09T07:41:59.999Z</time>
      </trkpt>
      <trkpt lat="43.83283" lon="4.20248">
        <ele>154.6</ele>
        <time>2026-05-09T07:42:00.999Z</time>
      </trkpt>
      <trkpt lat="43.83283" lon="4.20249">
        <ele>154.2</ele>
        <time>2026-05-09T07:42:01.999Z</time>
      </trkpt>
      <trkpt lat="43.83283" lon="4.2025">
        <ele>153.8</ele>
        <time>2026-05-09T07:42:02.999Z</time>
      </trkpt>
      <trkpt lat="43.83283" lon="4.20252">
        <ele>153.6</ele>
        <time>2026-05-09T07:42:03.999Z</time>
      </trkpt>
      <trkpt lat="43.83283" lon="4.20253">
        <ele>153.2</ele>
        <time>2026-05-09T07:42:04.999Z</time>
      </trkpt>
      <trkpt lat="43.83283" lon="4.20255">
        <ele>152.7</ele>
        <time>2026-05-09T07:42:05.999Z</time>
      </trkpt>
      <trkpt lat="43.83283" lon="4.20256">
        <ele>152.5</ele>
        <time>2026-05-09T07:42:06.999Z</time>
      </trkpt>
      <trkpt lat="43.83283" lon="4.20257">
        <ele>152.8</ele>
        <time>2026-05-09T07:42:07.999Z</time>
      </trkpt>
      <trkpt lat="43.83283" lon="4.20258">
        <ele>152.8</ele>
        <time>2026-05-09T07:42:08.999Z</time>
      </trkpt>
      <trkpt lat="43.83282" lon="4.20259">
        <ele>152.7</ele>
        <time>2026-05-09T07:42:09.999Z</time>
      </trkpt>
      <trkpt lat="43.83282" lon="4.2026">
        <ele>152.9</ele>
        <time>2026-05-09T07:42:10.999Z</time>
      </trkpt>
      <trkpt lat="43.83282" lon="4.20261">
        <ele>152.7</ele>
        <time>2026-05-09T07:42:11.999Z</time>
      </trkpt>
      <trkpt lat="43.83282" lon="4.20263">
        <ele>153.2</ele>
        <time>2026-05-09T07:42:12.999Z</time>
      </trkpt>
      <trkpt lat="43.83282" lon="4.20265">
        <ele>153.6</ele>
        <time>2026-05-09T07:42:13.999Z</time>
      </trkpt>
      <trkpt lat="43.83282" lon="4.20267">
        <ele>153.8</ele>
        <time>2026-05-09T07:42:14.999Z</time>
      </trkpt>
      <trkpt lat="43.83282" lon="4.20269">
        <ele>154.2</ele>
        <time>2026-05-09T07:42:15.999Z</time>
      </trkpt>
      <trkpt lat="43.83282" lon="4.2027">
        <ele>154.1</ele>
        <time>2026-05-09T07:42:16.999Z</time>
      </trkpt>
      <trkpt lat="43.83282" lon="4.20271">
        <ele>154.2</ele>
        <time>2026-05-09T07:42:17.999Z</time>
      </trkpt>
      <trkpt lat="43.83282" lon="4.20272">
        <ele>154</ele>
        <time>2026-05-09T07:42:18.999Z</time>
      </trkpt>
      <trkpt lat="43.83282" lon="4.20274">
        <ele>153.8</ele>
        <time>2026-05-09T07:42:19.999Z</time>
      </trkpt>
      <trkpt lat="43.83281" lon="4.20275">
        <ele>153.6</ele>
        <time>2026-05-09T07:42:20.999Z</time>
      </trkpt>
      <trkpt lat="43.83281" lon="4.20276">
        <ele>153.5</ele>
        <time>2026-05-09T07:42:21.999Z</time>
      </trkpt>
      <trkpt lat="43.83281" lon="4.20276">
        <ele>153.4</ele>
        <time>2026-05-09T07:42:22.999Z</time>
      </trkpt>
      <trkpt lat="43.8328" lon="4.20277">
        <ele>153.6</ele>
        <time>2026-05-09T07:42:23.999Z</time>
      </trkpt>
      <trkpt lat="43.83279" lon="4.20278">
        <ele>153.5</ele>
        <time>2026-05-09T07:42:24.999Z</time>
      </trkpt>
      <trkpt lat="43.83279" lon="4.20279">
        <ele>153.7</ele>
        <time>2026-05-09T07:42:25.999Z</time>
      </trkpt>
      <trkpt lat="43.83278" lon="4.2028">
        <ele>153.5</ele>
        <time>2026-05-09T07:42:26.999Z</time>
      </trkpt>
      <trkpt lat="43.83277" lon="4.2028">
        <ele>153.5</ele>
        <time>2026-05-09T07:42:27.999Z</time>
      </trkpt>
      <trkpt lat="43.83276" lon="4.20282">
        <ele>153.4</ele>
        <time>2026-05-09T07:42:28.999Z</time>
      </trkpt>
      <trkpt lat="43.83277" lon="4.20284">
        <ele>153</ele>
        <time>2026-05-09T07:42:29.999Z</time>
      </trkpt>
      <trkpt lat="43.83277" lon="4.20286">
        <ele>152.9</ele>
        <time>2026-05-09T07:42:30.999Z</time>
      </trkpt>
      <trkpt lat="43.83277" lon="4.20287">
        <ele>152.3</ele>
        <time>2026-05-09T07:42:31.999Z</time>
      </trkpt>
      <trkpt lat="43.83278" lon="4.20288">
        <ele>151.9</ele>
        <time>2026-05-09T07:42:32.999Z</time>
      </trkpt>
      <trkpt lat="43.83278" lon="4.20288">
        <ele>151.6</ele>
        <time>2026-05-09T07:42:33.999Z</time>
      </trkpt>
      <trkpt lat="43.83278" lon="4.20288">
        <ele>151</ele>
        <time>2026-05-09T07:42:34.999Z</time>
      </trkpt>
      <trkpt lat="43.83279" lon="4.20289">
        <ele>150.6</ele>
        <time>2026-05-09T07:42:35.999Z</time>
      </trkpt>
      <trkpt lat="43.8328" lon="4.20289">
        <ele>150.2</ele>
        <time>2026-05-09T07:42:36.999Z</time>
      </trkpt>
      <trkpt lat="43.83282" lon="4.2029">
        <ele>150.4</ele>
        <time>2026-05-09T07:42:37.999Z</time>
      </trkpt>
      <trkpt lat="43.83283" lon="4.20291">
        <ele>150.6</ele>
        <time>2026-05-09T07:42:38.999Z</time>
      </trkpt>
      <trkpt lat="43.83284" lon="4.20291">
        <ele>150.5</ele>
        <time>2026-05-09T07:42:39.999Z</time>
      </trkpt>
      <trkpt lat="43.83286" lon="4.20293">
        <ele>150.4</ele>
        <time>2026-05-09T07:42:41.999Z</time>
      </trkpt>
      <trkpt lat="43.83286" lon="4.20293">
        <ele>150.6</ele>
        <time>2026-05-09T07:42:42.999Z</time>
      </trkpt>
      <trkpt lat="43.83287" lon="4.20294">
        <ele>150.6</ele>
        <time>2026-05-09T07:42:43.999Z</time>
      </trkpt>
      <trkpt lat="43.83287" lon="4.20294">
        <ele>150.4</ele>
        <time>2026-05-09T07:42:44.999Z</time>
      </trkpt>
      <trkpt lat="43.83288" lon="4.20295">
        <ele>150.4</ele>
        <time>2026-05-09T07:42:45.999Z</time>
      </trkpt>
      <trkpt lat="43.83288" lon="4.20296">
        <ele>150.2</ele>
        <time>2026-05-09T07:42:46.999Z</time>
      </trkpt>
      <trkpt lat="43.83288" lon="4.20297">
        <ele>150.5</ele>
        <time>2026-05-09T07:42:47.999Z</time>
      </trkpt>
      <trkpt lat="43.83288" lon="4.20298">
        <ele>153.1</ele>
        <time>2026-05-09T07:42:48.999Z</time>
      </trkpt>
      <trkpt lat="43.83287" lon="4.20299">
        <ele>152.6</ele>
        <time>2026-05-09T07:42:49.999Z</time>
      </trkpt>
      <trkpt lat="43.83288" lon="4.20301">
        <ele>152.2</ele>
        <time>2026-05-09T07:42:50.999Z</time>
      </trkpt>
      <trkpt lat="43.83287" lon="4.20302">
        <ele>152.6</ele>
        <time>2026-05-09T07:42:51.999Z</time>
      </trkpt>
      <trkpt lat="43.83287" lon="4.20303">
        <ele>153</ele>
        <time>2026-05-09T07:42:52.999Z</time>
      </trkpt>
      <trkpt lat="43.83287" lon="4.20303">
        <ele>153.2</ele>
        <time>2026-05-09T07:42:53.999Z</time>
      </trkpt>
      <trkpt lat="43.83287" lon="4.20303">
        <ele>153.1</ele>
        <time>2026-05-09T07:42:54.999Z</time>
      </trkpt>
      <trkpt lat="43.83287" lon="4.20303">
        <ele>152.9</ele>
        <time>2026-05-09T07:42:55.999Z</time>
      </trkpt>
      <trkpt lat="43.83287" lon="4.20303">
        <ele>152.9</ele>
        <time>2026-05-09T07:42:56.999Z</time>
      </trkpt>
      <trkpt lat="43.83287" lon="4.20303">
        <ele>152.8</ele>
        <time>2026-05-09T07:42:57.999Z</time>
      </trkpt>
      <trkpt lat="43.83286" lon="4.20304">
        <ele>152.6</ele>
        <time>2026-05-09T07:42:58.999Z</time>
      </trkpt>
      <trkpt lat="43.83285" lon="4.20305">
        <ele>151.9</ele>
        <time>2026-05-09T07:42:59.999Z</time>
      </trkpt>
      <trkpt lat="43.83285" lon="4.20306">
        <ele>151.6</ele>
        <time>2026-05-09T07:43:00.999Z</time>
      </trkpt>
      <trkpt lat="43.83284" lon="4.20306">
        <ele>151.6</ele>
        <time>2026-05-09T07:43:01.999Z</time>
      </trkpt>
      <trkpt lat="43.83284" lon="4.20308">
        <ele>151.2</ele>
        <time>2026-05-09T07:43:02.999Z</time>
      </trkpt>
      <trkpt lat="43.83283" lon="4.2031">
        <ele>150.8</ele>
        <time>2026-05-09T07:43:03.999Z</time>
      </trkpt>
      <trkpt lat="43.83282" lon="4.20311">
        <ele>150.2</ele>
        <time>2026-05-09T07:43:04.999Z</time>
      </trkpt>
      <trkpt lat="43.83282" lon="4.20311">
        <ele>150.1</ele>
        <time>2026-05-09T07:43:05.999Z</time>
      </trkpt>
      <trkpt lat="43.83282" lon="4.20311">
        <ele>150.1</ele>
        <time>2026-05-09T07:43:06.999Z</time>
      </trkpt>
      <trkpt lat="43.83282" lon="4.20311">
        <ele>150.3</ele>
        <time>2026-05-09T07:43:07.999Z</time>
      </trkpt>
      <trkpt lat="43.83282" lon="4.20311">
        <ele>150.3</ele>
        <time>2026-05-09T07:43:08.999Z</time>
      </trkpt>
      <trkpt lat="43.83282" lon="4.20312">
        <ele>150.5</ele>
        <time>2026-05-09T07:43:09.999Z</time>
      </trkpt>
      <trkpt lat="43.83282" lon="4.20312">
        <ele>151.5</ele>
        <time>2026-05-09T07:43:10.999Z</time>
      </trkpt>
      <trkpt lat="43.83282" lon="4.20312">
        <ele>151.1</ele>
        <time>2026-05-09T07:43:11.999Z</time>
      </trkpt>
      <trkpt lat="43.83282" lon="4.20312">
        <ele>151.2</ele>
        <time>2026-05-09T07:43:12.999Z</time>
      </trkpt>
      <trkpt lat="43.83282" lon="4.20312">
        <ele>151.4</ele>
        <time>2026-05-09T07:43:13.999Z</time>
      </trkpt>
      <trkpt lat="43.83282" lon="4.20314">
        <ele>151.4</ele>
        <time>2026-05-09T07:43:14.999Z</time>
      </trkpt>
      <trkpt lat="43.83283" lon="4.20314">
        <ele>151.4</ele>
        <time>2026-05-09T07:43:15.999Z</time>
      </trkpt>
      <trkpt lat="43.83284" lon="4.20315">
        <ele>151.3</ele>
        <time>2026-05-09T07:43:16.999Z</time>
      </trkpt>
      <trkpt lat="43.83284" lon="4.20316">
        <ele>151.3</ele>
        <time>2026-05-09T07:43:17.999Z</time>
      </trkpt>
      <trkpt lat="43.83284" lon="4.20316">
        <ele>151.6</ele>
        <time>2026-05-09T07:43:18.999Z</time>
      </trkpt>
      <trkpt lat="43.83284" lon="4.20317">
        <ele>151.8</ele>
        <time>2026-05-09T07:43:19.999Z</time>
      </trkpt>
      <trkpt lat="43.83285" lon="4.20318">
        <ele>151.9</ele>
        <time>2026-05-09T07:43:20.999Z</time>
      </trkpt>
      <trkpt lat="43.83285" lon="4.20318">
        <ele>151.9</ele>
        <time>2026-05-09T07:43:21.999Z</time>
      </trkpt>
      <trkpt lat="43.83286" lon="4.20319">
        <ele>151.9</ele>
        <time>2026-05-09T07:43:22.999Z</time>
      </trkpt>
      <trkpt lat="43.83287" lon="4.20319">
        <ele>151.7</ele>
        <time>2026-05-09T07:43:23.999Z</time>
      </trkpt>
      <trkpt lat="43.83288" lon="4.2032">
        <ele>151.5</ele>
        <time>2026-05-09T07:43:24.999Z</time>
      </trkpt>
      <trkpt lat="43.83289" lon="4.2032">
        <ele>151.8</ele>
        <time>2026-05-09T07:43:25.999Z</time>
      </trkpt>
      <trkpt lat="43.8329" lon="4.20321">
        <ele>151.8</ele>
        <time>2026-05-09T07:43:26.999Z</time>
      </trkpt>
      <trkpt lat="43.8329" lon="4.20321">
        <ele>151.9</ele>
        <time>2026-05-09T07:43:27.999Z</time>
      </trkpt>
      <trkpt lat="43.8329" lon="4.20322">
        <ele>152.1</ele>
        <time>2026-05-09T07:43:28.999Z</time>
      </trkpt>
      <trkpt lat="43.8329" lon="4.20323">
        <ele>152.3</ele>
        <time>2026-05-09T07:43:29.999Z</time>
      </trkpt>
      <trkpt lat="43.8329" lon="4.20324">
        <ele>152.2</ele>
        <time>2026-05-09T07:43:30.999Z</time>
      </trkpt>
      <trkpt lat="43.83291" lon="4.20325">
        <ele>151.7</ele>
        <time>2026-05-09T07:43:31.999Z</time>
      </trkpt>
      <trkpt lat="43.83291" lon="4.20326">
        <ele>151.5</ele>
        <time>2026-05-09T07:43:32.999Z</time>
      </trkpt>
      <trkpt lat="43.83292" lon="4.20326">
        <ele>151.3</ele>
        <time>2026-05-09T07:43:33.999Z</time>
      </trkpt>
      <trkpt lat="43.83292" lon="4.20328">
        <ele>151.1</ele>
        <time>2026-05-09T07:43:34.999Z</time>
      </trkpt>
      <trkpt lat="43.83292" lon="4.2033">
        <ele>151</ele>
        <time>2026-05-09T07:43:35.999Z</time>
      </trkpt>
      <trkpt lat="43.83292" lon="4.20332">
        <ele>150.8</ele>
        <time>2026-05-09T07:43:36.999Z</time>
      </trkpt>
      <trkpt lat="43.83293" lon="4.20333">
        <ele>150.2</ele>
        <time>2026-05-09T07:43:37.999Z</time>
      </trkpt>
      <trkpt lat="43.83293" lon="4.20335">
        <ele>150.4</ele>
        <time>2026-05-09T07:43:38.999Z</time>
      </trkpt>
      <trkpt lat="43.83294" lon="4.20336">
        <ele>150.3</ele>
        <time>2026-05-09T07:43:39.999Z</time>
      </trkpt>
      <trkpt lat="43.83295" lon="4.20337">
        <ele>149.9</ele>
        <time>2026-05-09T07:43:40.999Z</time>
      </trkpt>
      <trkpt lat="43.83296" lon="4.20337">
        <ele>149.7</ele>
        <time>2026-05-09T07:43:41.999Z</time>
      </trkpt>
      <trkpt lat="43.83296" lon="4.20338">
        <ele>149.4</ele>
        <time>2026-05-09T07:43:42.999Z</time>
      </trkpt>
      <trkpt lat="43.83297" lon="4.20338">
        <ele>149.2</ele>
        <time>2026-05-09T07:43:43.999Z</time>
      </trkpt>
      <trkpt lat="43.83297" lon="4.20338">
        <ele>149.1</ele>
        <time>2026-05-09T07:43:44.999Z</time>
      </trkpt>
      <trkpt lat="43.83298" lon="4.20339">
        <ele>149.4</ele>
        <time>2026-05-09T07:43:45.999Z</time>
      </trkpt>
      <trkpt lat="43.83299" lon="4.20339">
        <ele>149.3</ele>
        <time>2026-05-09T07:43:46.999Z</time>
      </trkpt>
      <trkpt lat="43.833" lon="4.20339">
        <ele>149.8</ele>
        <time>2026-05-09T07:43:47.999Z</time>
      </trkpt>
      <trkpt lat="43.833" lon="4.20339">
        <ele>150.1</ele>
        <time>2026-05-09T07:43:48.999Z</time>
      </trkpt>
      <trkpt lat="43.83301" lon="4.20339">
        <ele>150.3</ele>
        <time>2026-05-09T07:43:49.999Z</time>
      </trkpt>
      <trkpt lat="43.83302" lon="4.20339">
        <ele>150</ele>
        <time>2026-05-09T07:43:50.999Z</time>
      </trkpt>
      <trkpt lat="43.83303" lon="4.20339">
        <ele>150.1</ele>
        <time>2026-05-09T07:43:51.999Z</time>
      </trkpt>
      <trkpt lat="43.83303" lon="4.2034">
        <ele>150.4</ele>
        <time>2026-05-09T07:43:52.999Z</time>
      </trkpt>
      <trkpt lat="43.83304" lon="4.20341">
        <ele>150.7</ele>
        <time>2026-05-09T07:43:53.999Z</time>
      </trkpt>
      <trkpt lat="43.83305" lon="4.20341">
        <ele>151.3</ele>
        <time>2026-05-09T07:43:54.999Z</time>
      </trkpt>
      <trkpt lat="43.83306" lon="4.20342">
        <ele>151.5</ele>
        <time>2026-05-09T07:43:55.999Z</time>
      </trkpt>
      <trkpt lat="43.83306" lon="4.20342">
        <ele>151.6</ele>
        <time>2026-05-09T07:43:56.999Z</time>
      </trkpt>
      <trkpt lat="43.83307" lon="4.20342">
        <ele>151.6</ele>
        <time>2026-05-09T07:43:57.999Z</time>
      </trkpt>
      <trkpt lat="43.83308" lon="4.20341">
        <ele>151.5</ele>
        <time>2026-05-09T07:43:58.999Z</time>
      </trkpt>
      <trkpt lat="43.83308" lon="4.20341">
        <ele>151.8</ele>
        <time>2026-05-09T07:43:59.999Z</time>
      </trkpt>
      <trkpt lat="43.83309" lon="4.2034">
        <ele>151.8</ele>
        <time>2026-05-09T07:44:00.999Z</time>
      </trkpt>
      <trkpt lat="43.83309" lon="4.2034">
        <ele>151.7</ele>
        <time>2026-05-09T07:44:01.999Z</time>
      </trkpt>
      <trkpt lat="43.8331" lon="4.20339">
        <ele>151.6</ele>
        <time>2026-05-09T07:44:02.999Z</time>
      </trkpt>
      <trkpt lat="43.8331" lon="4.20339">
        <ele>151.7</ele>
        <time>2026-05-09T07:44:03.999Z</time>
      </trkpt>
      <trkpt lat="43.83309" lon="4.20339">
        <ele>151.6</ele>
        <time>2026-05-09T07:44:04.999Z</time>
      </trkpt>
      <trkpt lat="43.83309" lon="4.20339">
        <ele>151.1</ele>
        <time>2026-05-09T07:44:05.999Z</time>
      </trkpt>
      <trkpt lat="43.83308" lon="4.20339">
        <ele>151.2</ele>
        <time>2026-05-09T07:44:06.999Z</time>
      </trkpt>
      <trkpt lat="43.83308" lon="4.20339">
        <ele>151.1</ele>
        <time>2026-05-09T07:44:07.999Z</time>
      </trkpt>
      <trkpt lat="43.83309" lon="4.20338">
        <ele>151.2</ele>
        <time>2026-05-09T07:44:08.999Z</time>
      </trkpt>
      <trkpt lat="43.83309" lon="4.20338">
        <ele>151</ele>
        <time>2026-05-09T07:44:09.999Z</time>
      </trkpt>
      <trkpt lat="43.83309" lon="4.20339">
        <ele>150.9</ele>
        <time>2026-05-09T07:44:10.999Z</time>
      </trkpt>
      <trkpt lat="43.83309" lon="4.20339">
        <ele>150.9</ele>
        <time>2026-05-09T07:44:11.999Z</time>
      </trkpt>
      <trkpt lat="43.8331" lon="4.20339">
        <ele>151</ele>
        <time>2026-05-09T07:44:12.999Z</time>
      </trkpt>
      <trkpt lat="43.8331" lon="4.20339">
        <ele>150.8</ele>
        <time>2026-05-09T07:44:13.999Z</time>
      </trkpt>
      <trkpt lat="43.83311" lon="4.20338">
        <ele>150.7</ele>
        <time>2026-05-09T07:44:14.999Z</time>
      </trkpt>
      <trkpt lat="43.83311" lon="4.20338">
        <ele>150.9</ele>
        <time>2026-05-09T07:44:15.999Z</time>
      </trkpt>
      <trkpt lat="43.83312" lon="4.20338">
        <ele>151</ele>
        <time>2026-05-09T07:44:16.999Z</time>
      </trkpt>
      <trkpt lat="43.83313" lon="4.20337">
        <ele>150.5</ele>
        <time>2026-05-09T07:44:17.999Z</time>
      </trkpt>
      <trkpt lat="43.83313" lon="4.20337">
        <ele>150.5</ele>
        <time>2026-05-09T07:44:18.999Z</time>
      </trkpt>
      <trkpt lat="43.83314" lon="4.20336">
        <ele>150.6</ele>
        <time>2026-05-09T07:44:19.999Z</time>
      </trkpt>
      <trkpt lat="43.83315" lon="4.20334">
        <ele>150</ele>
        <time>2026-05-09T07:44:21.999Z</time>
      </trkpt>
      <trkpt lat="43.83315" lon="4.20334">
        <ele>149.5</ele>
        <time>2026-05-09T07:44:22.999Z</time>
      </trkpt>
      <trkpt lat="43.83316" lon="4.20332">
        <ele>149.1</ele>
        <time>2026-05-09T07:44:23.999Z</time>
      </trkpt>
      <trkpt lat="43.83316" lon="4.20332">
        <ele>149.1</ele>
        <time>2026-05-09T07:44:24.999Z</time>
      </trkpt>
      <trkpt lat="43.83317" lon="4.20332">
        <ele>149.1</ele>
        <time>2026-05-09T07:44:25.999Z</time>
      </trkpt>
      <trkpt lat="43.83317" lon="4.20332">
        <ele>149.4</ele>
        <time>2026-05-09T07:44:26.999Z</time>
      </trkpt>
      <trkpt lat="43.83317" lon="4.20333">
        <ele>149.2</ele>
        <time>2026-05-09T07:44:27.999Z</time>
      </trkpt>
      <trkpt lat="43.83317" lon="4.20333">
        <ele>149.1</ele>
        <time>2026-05-09T07:44:28.999Z</time>
      </trkpt>
      <trkpt lat="43.83317" lon="4.20333">
        <ele>148.9</ele>
        <time>2026-05-09T07:44:29.999Z</time>
      </trkpt>
      <trkpt lat="43.83317" lon="4.20333">
        <ele>149</ele>
        <time>2026-05-09T07:44:30.999Z</time>
      </trkpt>
      <trkpt lat="43.83317" lon="4.20333">
        <ele>149.1</ele>
        <time>2026-05-09T07:44:31.999Z</time>
      </trkpt>
      <trkpt lat="43.83317" lon="4.20333">
        <ele>149.2</ele>
        <time>2026-05-09T07:44:32.999Z</time>
      </trkpt>
      <trkpt lat="43.83317" lon="4.20333">
        <ele>148.9</ele>
        <time>2026-05-09T07:44:33.999Z</time>
      </trkpt>
      <trkpt lat="43.83317" lon="4.20333">
        <ele>149.1</ele>
        <time>2026-05-09T07:44:34.999Z</time>
      </trkpt>
      <trkpt lat="43.83317" lon="4.20333">
        <ele>149.1</ele>
        <time>2026-05-09T07:44:35.999Z</time>
      </trkpt>
      <trkpt lat="43.83317" lon="4.20333">
        <ele>149.2</ele>
        <time>2026-05-09T07:44:36.999Z</time>
      </trkpt>
      <trkpt lat="43.83317" lon="4.20333">
        <ele>149</ele>
        <time>2026-05-09T07:44:37.999Z</time>
      </trkpt>
      <trkpt lat="43.83318" lon="4.20333">
        <ele>149.1</ele>
        <time>2026-05-09T07:44:38.999Z</time>
      </trkpt>
      <trkpt lat="43.83318" lon="4.20334">
        <ele>148.6</ele>
        <time>2026-05-09T07:44:39.999Z</time>
      </trkpt>
      <trkpt lat="43.83319" lon="4.20335">
        <ele>148.6</ele>
        <time>2026-05-09T07:44:40.999Z</time>
      </trkpt>
      <trkpt lat="43.8332" lon="4.20335">
        <ele>148.8</ele>
        <time>2026-05-09T07:44:41.999Z</time>
      </trkpt>
      <trkpt lat="43.8332" lon="4.20336">
        <ele>148.7</ele>
        <time>2026-05-09T07:44:42.999Z</time>
      </trkpt>
      <trkpt lat="43.8332" lon="4.20337">
        <ele>150.3</ele>
        <time>2026-05-09T07:44:43.999Z</time>
      </trkpt>
      <trkpt lat="43.83321" lon="4.20336">
        <ele>151.9</ele>
        <time>2026-05-09T07:44:44.999Z</time>
      </trkpt>
      <trkpt lat="43.83322" lon="4.20336">
        <ele>152.9</ele>
        <time>2026-05-09T07:44:45.999Z</time>
      </trkpt>
      <trkpt lat="43.83323" lon="4.20335">
        <ele>154.5</ele>
        <time>2026-05-09T07:44:46.999Z</time>
      </trkpt>
      <trkpt lat="43.83324" lon="4.20335">
        <ele>156.3</ele>
        <time>2026-05-09T07:44:47.999Z</time>
      </trkpt>
      <trkpt lat="43.83326" lon="4.20334">
        <ele>158</ele>
        <time>2026-05-09T07:44:48.999Z</time>
      </trkpt>
      <trkpt lat="43.83328" lon="4.20332">
        <ele>159.2</ele>
        <time>2026-05-09T07:44:49.999Z</time>
      </trkpt>
      <trkpt lat="43.83329" lon="4.20332">
        <ele>160.1</ele>
        <time>2026-05-09T07:44:50.999Z</time>
      </trkpt>
      <trkpt lat="43.83329" lon="4.20331">
        <ele>160.8</ele>
        <time>2026-05-09T07:44:51.999Z</time>
      </trkpt>
      <trkpt lat="43.83329" lon="4.20331">
        <ele>161.1</ele>
        <time>2026-05-09T07:44:52.999Z</time>
      </trkpt>
      <trkpt lat="43.83329" lon="4.2033">
        <ele>161.4</ele>
        <time>2026-05-09T07:44:53.999Z</time>
      </trkpt>
      <trkpt lat="43.83329" lon="4.20329">
        <ele>161.3</ele>
        <time>2026-05-09T07:44:54.999Z</time>
      </trkpt>
      <trkpt lat="43.83329" lon="4.20328">
        <ele>161.6</ele>
        <time>2026-05-09T07:44:55.999Z</time>
      </trkpt>
      <trkpt lat="43.83329" lon="4.20329">
        <ele>161.6</ele>
        <time>2026-05-09T07:44:56.999Z</time>
      </trkpt>
      <trkpt lat="43.83329" lon="4.20328">
        <ele>162.2</ele>
        <time>2026-05-09T07:44:57.999Z</time>
      </trkpt>
      <trkpt lat="43.8333" lon="4.20328">
        <ele>162.8</ele>
        <time>2026-05-09T07:44:58.999Z</time>
      </trkpt>
      <trkpt lat="43.8333" lon="4.20329">
        <ele>162.8</ele>
        <time>2026-05-09T07:44:59.999Z</time>
      </trkpt>
      <trkpt lat="43.8333" lon="4.20329">
        <ele>162.4</ele>
        <time>2026-05-09T07:45:00.999Z</time>
      </trkpt>
      <trkpt lat="43.8333" lon="4.20329">
        <ele>163.4</ele>
        <time>2026-05-09T07:45:02.999Z</time>
      </trkpt>
      <trkpt lat="43.83331" lon="4.20329">
        <ele>164.4</ele>
        <time>2026-05-09T07:45:03.999Z</time>
      </trkpt>
      <trkpt lat="43.83331" lon="4.20328">
        <ele>164.6</ele>
        <time>2026-05-09T07:45:04.999Z</time>
      </trkpt>
      <trkpt lat="43.83331" lon="4.20329">
        <ele>164.5</ele>
        <time>2026-05-09T07:45:05.999Z</time>
      </trkpt>
      <trkpt lat="43.83332" lon="4.20329">
        <ele>164.5</ele>
        <time>2026-05-09T07:45:06.999Z</time>
      </trkpt>
      <trkpt lat="43.83333" lon="4.20329">
        <ele>164.6</ele>
        <time>2026-05-09T07:45:07.999Z</time>
      </trkpt>
      <trkpt lat="43.83333" lon="4.20329">
        <ele>164.6</ele>
        <time>2026-05-09T07:45:08.999Z</time>
      </trkpt>
      <trkpt lat="43.83333" lon="4.20328">
        <ele>164.5</ele>
        <time>2026-05-09T07:45:09.999Z</time>
      </trkpt>
      <trkpt lat="43.83333" lon="4.20328">
        <ele>164.9</ele>
        <time>2026-05-09T07:45:10.999Z</time>
      </trkpt>
      <trkpt lat="43.83333" lon="4.20328">
        <ele>164.5</ele>
        <time>2026-05-09T07:45:11.999Z</time>
      </trkpt>
      <trkpt lat="43.83334" lon="4.20328">
        <ele>164.5</ele>
        <time>2026-05-09T07:45:12.999Z</time>
      </trkpt>
      <trkpt lat="43.83335" lon="4.20328">
        <ele>164.1</ele>
        <time>2026-05-09T07:45:13.999Z</time>
      </trkpt>
      <trkpt lat="43.83336" lon="4.20328">
        <ele>164.2</ele>
        <time>2026-05-09T07:45:14.999Z</time>
      </trkpt>
      <trkpt lat="43.83336" lon="4.20327">
        <ele>164.1</ele>
        <time>2026-05-09T07:45:15.999Z</time>
      </trkpt>
      <trkpt lat="43.83336" lon="4.20326">
        <ele>164</ele>
        <time>2026-05-09T07:45:16.999Z</time>
      </trkpt>
      <trkpt lat="43.83336" lon="4.20326">
        <ele>163.7</ele>
        <time>2026-05-09T07:45:17.999Z</time>
      </trkpt>
      <trkpt lat="43.83337" lon="4.20325">
        <ele>163.6</ele>
        <time>2026-05-09T07:45:18.999Z</time>
      </trkpt>
      <trkpt lat="43.83338" lon="4.20324">
        <ele>163.3</ele>
        <time>2026-05-09T07:45:19.999Z</time>
      </trkpt>
      <trkpt lat="43.83338" lon="4.20324">
        <ele>163.4</ele>
        <time>2026-05-09T07:45:20.999Z</time>
      </trkpt>
      <trkpt lat="43.83338" lon="4.20324">
        <ele>163.4</ele>
        <time>2026-05-09T07:45:21.999Z</time>
      </trkpt>
      <trkpt lat="43.83338" lon="4.20323">
        <ele>163.7</ele>
        <time>2026-05-09T07:45:22.999Z</time>
      </trkpt>
      <trkpt lat="43.83339" lon="4.20322">
        <ele>163.8</ele>
        <time>2026-05-09T07:45:23.999Z</time>
      </trkpt>
      <trkpt lat="43.83339" lon="4.20322">
        <ele>163.9</ele>
        <time>2026-05-09T07:45:24.999Z</time>
      </trkpt>
      <trkpt lat="43.8334" lon="4.20321">
        <ele>164.5</ele>
        <time>2026-05-09T07:45:25.999Z</time>
      </trkpt>
      <trkpt lat="43.8334" lon="4.2032">
        <ele>164.5</ele>
        <time>2026-05-09T07:45:26.999Z</time>
      </trkpt>
      <trkpt lat="43.83341" lon="4.20318">
        <ele>164</ele>
        <time>2026-05-09T07:45:27.999Z</time>
      </trkpt>
      <trkpt lat="43.83341" lon="4.20316">
        <ele>163.8</ele>
        <time>2026-05-09T07:45:28.999Z</time>
      </trkpt>
      <trkpt lat="43.83343" lon="4.20314">
        <ele>164.1</ele>
        <time>2026-05-09T07:45:29.999Z</time>
      </trkpt>
      <trkpt lat="43.83344" lon="4.20313">
        <ele>164.2</ele>
        <time>2026-05-09T07:45:30.999Z</time>
      </trkpt>
      <trkpt lat="43.83345" lon="4.20313">
        <ele>164.7</ele>
        <time>2026-05-09T07:45:31.999Z</time>
      </trkpt>
      <trkpt lat="43.83345" lon="4.20313">
        <ele>164.8</ele>
        <time>2026-05-09T07:45:32.999Z</time>
      </trkpt>
      <trkpt lat="43.83345" lon="4.20311">
        <ele>165.3</ele>
        <time>2026-05-09T07:45:33.999Z</time>
      </trkpt>
      <trkpt lat="43.83346" lon="4.2031">
        <ele>165.4</ele>
        <time>2026-05-09T07:45:34.999Z</time>
      </trkpt>
      <trkpt lat="43.83346" lon="4.20309">
        <ele>165.7</ele>
        <time>2026-05-09T07:45:35.999Z</time>
      </trkpt>
      <trkpt lat="43.83346" lon="4.20309">
        <ele>165.7</ele>
        <time>2026-05-09T07:45:36.999Z</time>
      </trkpt>
      <trkpt lat="43.83347" lon="4.20309">
        <ele>166.2</ele>
        <time>2026-05-09T07:45:37.999Z</time>
      </trkpt>
      <trkpt lat="43.83347" lon="4.20309">
        <ele>166.7</ele>
        <time>2026-05-09T07:45:38.999Z</time>
      </trkpt>
      <trkpt lat="43.83347" lon="4.20309">
        <ele>167.1</ele>
        <time>2026-05-09T07:45:39.999Z</time>
      </trkpt>
      <trkpt lat="43.83347" lon="4.2031">
        <ele>167.2</ele>
        <time>2026-05-09T07:45:40.999Z</time>
      </trkpt>
      <trkpt lat="43.83347" lon="4.2031">
        <ele>167.8</ele>
        <time>2026-05-09T07:45:41.999Z</time>
      </trkpt>
      <trkpt lat="43.83347" lon="4.2031">
        <ele>168.6</ele>
        <time>2026-05-09T07:45:42.999Z</time>
      </trkpt>
      <trkpt lat="43.83347" lon="4.20309">
        <ele>169.3</ele>
        <time>2026-05-09T07:45:43.999Z</time>
      </trkpt>
      <trkpt lat="43.83347" lon="4.20309">
        <ele>169.7</ele>
        <time>2026-05-09T07:45:44.999Z</time>
      </trkpt>
      <trkpt lat="43.83347" lon="4.20309">
        <ele>169.7</ele>
        <time>2026-05-09T07:45:45.999Z</time>
      </trkpt>
      <trkpt lat="43.83348" lon="4.20309">
        <ele>169.6</ele>
        <time>2026-05-09T07:45:46.999Z</time>
      </trkpt>
      <trkpt lat="43.83348" lon="4.20308">
        <ele>169.8</ele>
        <time>2026-05-09T07:45:48.999Z</time>
      </trkpt>
      <trkpt lat="43.83349" lon="4.20306">
        <ele>169.7</ele>
        <time>2026-05-09T07:45:49.999Z</time>
      </trkpt>
      <trkpt lat="43.83349" lon="4.20305">
        <ele>169.5</ele>
        <time>2026-05-09T07:45:50.999Z</time>
      </trkpt>
      <trkpt lat="43.83349" lon="4.20305">
        <ele>169.4</ele>
        <time>2026-05-09T07:45:51.999Z</time>
      </trkpt>
      <trkpt lat="43.83349" lon="4.20304">
        <ele>169.6</ele>
        <time>2026-05-09T07:45:52.999Z</time>
      </trkpt>
      <trkpt lat="43.8335" lon="4.20303">
        <ele>169.6</ele>
        <time>2026-05-09T07:45:53.999Z</time>
      </trkpt>
      <trkpt lat="43.8335" lon="4.20303">
        <ele>169.5</ele>
        <time>2026-05-09T07:45:54.999Z</time>
      </trkpt>
      <trkpt lat="43.83351" lon="4.20301">
        <ele>169.4</ele>
        <time>2026-05-09T07:45:55.999Z</time>
      </trkpt>
      <trkpt lat="43.83351" lon="4.20301">
        <ele>169.4</ele>
        <time>2026-05-09T07:45:56.999Z</time>
      </trkpt>
      <trkpt lat="43.83351" lon="4.203">
        <ele>169.7</ele>
        <time>2026-05-09T07:45:57.999Z</time>
      </trkpt>
      <trkpt lat="43.83352" lon="4.203">
        <ele>170.1</ele>
        <time>2026-05-09T07:45:58.999Z</time>
      </trkpt>
      <trkpt lat="43.83352" lon="4.20301">
        <ele>170.2</ele>
        <time>2026-05-09T07:45:59.999Z</time>
      </trkpt>
      <trkpt lat="43.83352" lon="4.20301">
        <ele>170.3</ele>
        <time>2026-05-09T07:46:00.999Z</time>
      </trkpt>
      <trkpt lat="43.83352" lon="4.20301">
        <ele>171</ele>
        <time>2026-05-09T07:46:02.999Z</time>
      </trkpt>
      <trkpt lat="43.83352" lon="4.20301">
        <ele>171.2</ele>
        <time>2026-05-09T07:46:03.999Z</time>
      </trkpt>
      <trkpt lat="43.83352" lon="4.20301">
        <ele>171.6</ele>
        <time>2026-05-09T07:46:04.999Z</time>
      </trkpt>
      <trkpt lat="43.83352" lon="4.20301">
        <ele>171.3</ele>
        <time>2026-05-09T07:46:05.999Z</time>
      </trkpt>
      <trkpt lat="43.83353" lon="4.20301">
        <ele>171.5</ele>
        <time>2026-05-09T07:46:06.999Z</time>
      </trkpt>
      <trkpt lat="43.83353" lon="4.20301">
        <ele>171.6</ele>
        <time>2026-05-09T07:46:07.999Z</time>
      </trkpt>
      <trkpt lat="43.83353" lon="4.20301">
        <ele>171.8</ele>
        <time>2026-05-09T07:46:08.999Z</time>
      </trkpt>
      <trkpt lat="43.83354" lon="4.20301">
        <ele>171.7</ele>
        <time>2026-05-09T07:46:09.999Z</time>
      </trkpt>
      <trkpt lat="43.83354" lon="4.20301">
        <ele>171.7</ele>
        <time>2026-05-09T07:46:10.999Z</time>
      </trkpt>
      <trkpt lat="43.83354" lon="4.20301">
        <ele>171.7</ele>
        <time>2026-05-09T07:46:11.999Z</time>
      </trkpt>
      <trkpt lat="43.83354" lon="4.203">
        <ele>171.5</ele>
        <time>2026-05-09T07:46:12.999Z</time>
      </trkpt>
      <trkpt lat="43.83355" lon="4.20298">
        <ele>171.3</ele>
        <time>2026-05-09T07:46:13.999Z</time>
      </trkpt>
      <trkpt lat="43.83355" lon="4.20297">
        <ele>171.5</ele>
        <time>2026-05-09T07:46:14.999Z</time>
      </trkpt>
      <trkpt lat="43.83356" lon="4.20296">
        <ele>171.5</ele>
        <time>2026-05-09T07:46:15.999Z</time>
      </trkpt>
      <trkpt lat="43.83356" lon="4.20295">
        <ele>171.4</ele>
        <time>2026-05-09T07:46:16.999Z</time>
      </trkpt>
      <trkpt lat="43.83357" lon="4.20294">
        <ele>171.3</ele>
        <time>2026-05-09T07:46:17.999Z</time>
      </trkpt>
      <trkpt lat="43.83357" lon="4.20294">
        <ele>171.3</ele>
        <time>2026-05-09T07:46:18.999Z</time>
      </trkpt>
      <trkpt lat="43.83357" lon="4.20294">
        <ele>171.5</ele>
        <time>2026-05-09T07:46:19.999Z</time>
      </trkpt>
      <trkpt lat="43.83357" lon="4.20294">
        <ele>171.4</ele>
        <time>2026-05-09T07:46:20.999Z</time>
      </trkpt>
      <trkpt lat="43.83357" lon="4.20294">
        <ele>171.3</ele>
        <time>2026-05-09T07:46:21.999Z</time>
      </trkpt>
      <trkpt lat="43.83357" lon="4.20294">
        <ele>171</ele>
        <time>2026-05-09T07:46:22.999Z</time>
      </trkpt>
      <trkpt lat="43.83357" lon="4.20294">
        <ele>170.6</ele>
        <time>2026-05-09T07:46:23.999Z</time>
      </trkpt>
      <trkpt lat="43.83358" lon="4.20294">
        <ele>170.3</ele>
        <time>2026-05-09T07:46:24.999Z</time>
      </trkpt>
      <trkpt lat="43.83358" lon="4.20294">
        <ele>170.3</ele>
        <time>2026-05-09T07:46:25.999Z</time>
      </trkpt>
      <trkpt lat="43.8336" lon="4.20296">
        <ele>170.3</ele>
        <time>2026-05-09T07:46:26.999Z</time>
      </trkpt>
      <trkpt lat="43.8336" lon="4.20296">
        <ele>170.7</ele>
        <time>2026-05-09T07:46:27.999Z</time>
      </trkpt>
      <trkpt lat="43.83361" lon="4.20295">
        <ele>170.8</ele>
        <time>2026-05-09T07:46:28.999Z</time>
      </trkpt>
      <trkpt lat="43.83363" lon="4.20294">
        <ele>170.7</ele>
        <time>2026-05-09T07:46:29.999Z</time>
      </trkpt>
      <trkpt lat="43.83363" lon="4.20294">
        <ele>170.7</ele>
        <time>2026-05-09T07:46:30.999Z</time>
      </trkpt>
      <trkpt lat="43.83363" lon="4.20294">
        <ele>170.8</ele>
        <time>2026-05-09T07:46:31.999Z</time>
      </trkpt>
      <trkpt lat="43.83363" lon="4.20296">
        <ele>170.5</ele>
        <time>2026-05-09T07:46:32.999Z</time>
      </trkpt>
      <trkpt lat="43.83363" lon="4.20296">
        <ele>170.7</ele>
        <time>2026-05-09T07:46:33.999Z</time>
      </trkpt>
      <trkpt lat="43.83364" lon="4.20298">
        <ele>171.1</ele>
        <time>2026-05-09T07:46:34.999Z</time>
      </trkpt>
      <trkpt lat="43.83364" lon="4.20299">
        <ele>171.4</ele>
        <time>2026-05-09T07:46:35.999Z</time>
      </trkpt>
      <trkpt lat="43.83364" lon="4.20299">
        <ele>171.6</ele>
        <time>2026-05-09T07:46:36.999Z</time>
      </trkpt>
      <trkpt lat="43.83364" lon="4.20299">
        <ele>171.6</ele>
        <time>2026-05-09T07:46:37.999Z</time>
      </trkpt>
      <trkpt lat="43.83364" lon="4.20301">
        <ele>171.7</ele>
        <time>2026-05-09T07:46:38.999Z</time>
      </trkpt>
      <trkpt lat="43.83364" lon="4.20302">
        <ele>172</ele>
        <time>2026-05-09T07:46:39.999Z</time>
      </trkpt>
      <trkpt lat="43.83364" lon="4.20303">
        <ele>172</ele>
        <time>2026-05-09T07:46:40.999Z</time>
      </trkpt>
      <trkpt lat="43.83365" lon="4.20304">
        <ele>171.9</ele>
        <time>2026-05-09T07:46:41.999Z</time>
      </trkpt>
      <trkpt lat="43.83365" lon="4.20304">
        <ele>171.9</ele>
        <time>2026-05-09T07:46:42.999Z</time>
      </trkpt>
      <trkpt lat="43.83364" lon="4.20306">
        <ele>172.4</ele>
        <time>2026-05-09T07:46:43.999Z</time>
      </trkpt>
      <trkpt lat="43.83364" lon="4.20307">
        <ele>173</ele>
        <time>2026-05-09T07:46:44.999Z</time>
      </trkpt>
      <trkpt lat="43.83365" lon="4.20308">
        <ele>172.9</ele>
        <time>2026-05-09T07:46:45.999Z</time>
      </trkpt>
      <trkpt lat="43.83364" lon="4.20309">
        <ele>173</ele>
        <time>2026-05-09T07:46:46.999Z</time>
      </trkpt>
      <trkpt lat="43.83364" lon="4.20309">
        <ele>173.2</ele>
        <time>2026-05-09T07:46:47.999Z</time>
      </trkpt>
      <trkpt lat="43.83364" lon="4.20309">
        <ele>173.2</ele>
        <time>2026-05-09T07:46:48.999Z</time>
      </trkpt>
      <trkpt lat="43.83364" lon="4.2031">
        <ele>173.3</ele>
        <time>2026-05-09T07:46:49.999Z</time>
      </trkpt>
      <trkpt lat="43.83364" lon="4.20311">
        <ele>173.4</ele>
        <time>2026-05-09T07:46:50.999Z</time>
      </trkpt>
      <trkpt lat="43.83364" lon="4.20312">
        <ele>173.8</ele>
        <time>2026-05-09T07:46:51.999Z</time>
      </trkpt>
      <trkpt lat="43.83364" lon="4.20313">
        <ele>174</ele>
        <time>2026-05-09T07:46:52.999Z</time>
      </trkpt>
      <trkpt lat="43.83364" lon="4.20313">
        <ele>174.1</ele>
        <time>2026-05-09T07:46:53.999Z</time>
      </trkpt>
      <trkpt lat="43.83365" lon="4.20314">
        <ele>174.6</ele>
        <time>2026-05-09T07:46:54.999Z</time>
      </trkpt>
      <trkpt lat="43.83365" lon="4.20314">
        <ele>175.1</ele>
        <time>2026-05-09T07:46:55.999Z</time>
      </trkpt>
      <trkpt lat="43.83365" lon="4.20315">
        <ele>175.4</ele>
        <time>2026-05-09T07:46:56.999Z</time>
      </trkpt>
      <trkpt lat="43.83365" lon="4.20315">
        <ele>175.7</ele>
        <time>2026-05-09T07:46:57.999Z</time>
      </trkpt>
      <trkpt lat="43.83364" lon="4.20315">
        <ele>175.7</ele>
        <time>2026-05-09T07:46:58.999Z</time>
      </trkpt>
      <trkpt lat="43.83364" lon="4.20314">
        <ele>175.4</ele>
        <time>2026-05-09T07:47:00.999Z</time>
      </trkpt>
      <trkpt lat="43.83363" lon="4.20314">
        <ele>175.2</ele>
        <time>2026-05-09T07:47:01.999Z</time>
      </trkpt>
      <trkpt lat="43.83363" lon="4.20315">
        <ele>175.1</ele>
        <time>2026-05-09T07:47:02.999Z</time>
      </trkpt>
      <trkpt lat="43.83363" lon="4.20315">
        <ele>174.3</ele>
        <time>2026-05-09T07:47:03.999Z</time>
      </trkpt>
      <trkpt lat="43.83363" lon="4.20316">
        <ele>174.7</ele>
        <time>2026-05-09T07:47:04.999Z</time>
      </trkpt>
      <trkpt lat="43.83363" lon="4.20317">
        <ele>174.5</ele>
        <time>2026-05-09T07:47:05.999Z</time>
      </trkpt>
      <trkpt lat="43.83362" lon="4.20318">
        <ele>175</ele>
        <time>2026-05-09T07:47:06.999Z</time>
      </trkpt>
      <trkpt lat="43.83362" lon="4.20319">
        <ele>175.3</ele>
        <time>2026-05-09T07:47:07.999Z</time>
      </trkpt>
      <trkpt lat="43.83361" lon="4.2032">
        <ele>175.9</ele>
        <time>2026-05-09T07:47:08.999Z</time>
      </trkpt>
      <trkpt lat="43.8336" lon="4.20321">
        <ele>176.1</ele>
        <time>2026-05-09T07:47:09.999Z</time>
      </trkpt>
      <trkpt lat="43.8336" lon="4.20322">
        <ele>176.2</ele>
        <time>2026-05-09T07:47:10.999Z</time>
      </trkpt>
      <trkpt lat="43.83359" lon="4.20322">
        <ele>175.9</ele>
        <time>2026-05-09T07:47:11.999Z</time>
      </trkpt>
      <trkpt lat="43.83359" lon="4.20322">
        <ele>175.6</ele>
        <time>2026-05-09T07:47:12.999Z</time>
      </trkpt>
      <trkpt lat="43.83358" lon="4.20322">
        <ele>175.6</ele>
        <time>2026-05-09T07:47:13.999Z</time>
      </trkpt>
      <trkpt lat="43.83358" lon="4.20324">
        <ele>175.2</ele>
        <time>2026-05-09T07:47:14.999Z</time>
      </trkpt>
      <trkpt lat="43.83357" lon="4.20325">
        <ele>175.1</ele>
        <time>2026-05-09T07:47:15.999Z</time>
      </trkpt>
      <trkpt lat="43.83358" lon="4.20325">
        <ele>174.9</ele>
        <time>2026-05-09T07:47:16.999Z</time>
      </trkpt>
      <trkpt lat="43.83359" lon="4.20325">
        <ele>174.2</ele>
        <time>2026-05-09T07:47:17.999Z</time>
      </trkpt>
      <trkpt lat="43.83359" lon="4.20325">
        <ele>173.5</ele>
        <time>2026-05-09T07:47:18.999Z</time>
      </trkpt>
      <trkpt lat="43.8336" lon="4.20325">
        <ele>173.5</ele>
        <time>2026-05-09T07:47:19.999Z</time>
      </trkpt>
      <trkpt lat="43.8336" lon="4.20325">
        <ele>173.4</ele>
        <time>2026-05-09T07:47:20.999Z</time>
      </trkpt>
      <trkpt lat="43.8336" lon="4.20324">
        <ele>173.1</ele>
        <time>2026-05-09T07:47:21.999Z</time>
      </trkpt>
      <trkpt lat="43.83361" lon="4.20324">
        <ele>173.2</ele>
        <time>2026-05-09T07:47:22.999Z</time>
      </trkpt>
      <trkpt lat="43.83361" lon="4.20324">
        <ele>173</ele>
        <time>2026-05-09T07:47:23.999Z</time>
      </trkpt>
      <trkpt lat="43.83361" lon="4.20324">
        <ele>173.6</ele>
        <time>2026-05-09T07:47:24.999Z</time>
      </trkpt>
      <trkpt lat="43.83361" lon="4.20324">
        <ele>173.6</ele>
        <time>2026-05-09T07:47:25.999Z</time>
      </trkpt>
      <trkpt lat="43.8336" lon="4.20324">
        <ele>173.8</ele>
        <time>2026-05-09T07:47:26.999Z</time>
      </trkpt>
      <trkpt lat="43.8336" lon="4.20324">
        <ele>173.8</ele>
        <time>2026-05-09T07:47:27.999Z</time>
      </trkpt>
      <trkpt lat="43.8336" lon="4.20325">
        <ele>174</ele>
        <time>2026-05-09T07:47:28.999Z</time>
      </trkpt>
      <trkpt lat="43.8336" lon="4.20325">
        <ele>174.1</ele>
        <time>2026-05-09T07:47:29.999Z</time>
      </trkpt>
      <trkpt lat="43.83359" lon="4.20325">
        <ele>174</ele>
        <time>2026-05-09T07:47:30.999Z</time>
      </trkpt>
      <trkpt lat="43.83359" lon="4.20326">
        <ele>174</ele>
        <time>2026-05-09T07:47:31.999Z</time>
      </trkpt>
      <trkpt lat="43.83359" lon="4.20327">
        <ele>173.9</ele>
        <time>2026-05-09T07:47:32.999Z</time>
      </trkpt>
      <trkpt lat="43.83358" lon="4.20328">
        <ele>174</ele>
        <time>2026-05-09T07:47:33.999Z</time>
      </trkpt>
      <trkpt lat="43.83358" lon="4.20328">
        <ele>173.9</ele>
        <time>2026-05-09T07:47:34.999Z</time>
      </trkpt>
      <trkpt lat="43.83358" lon="4.20329">
        <ele>174</ele>
        <time>2026-05-09T07:47:35.999Z</time>
      </trkpt>
      <trkpt lat="43.83358" lon="4.20329">
        <ele>174</ele>
        <time>2026-05-09T07:47:36.999Z</time>
      </trkpt>
      <trkpt lat="43.83357" lon="4.20329">
        <ele>173.8</ele>
        <time>2026-05-09T07:47:37.999Z</time>
      </trkpt>
      <trkpt lat="43.83357" lon="4.2033">
        <ele>173.6</ele>
        <time>2026-05-09T07:47:38.999Z</time>
      </trkpt>
      <trkpt lat="43.83356" lon="4.20332">
        <ele>173.6</ele>
        <time>2026-05-09T07:47:39.999Z</time>
      </trkpt>
      <trkpt lat="43.83356" lon="4.20334">
        <ele>173.3</ele>
        <time>2026-05-09T07:47:40.999Z</time>
      </trkpt>
      <trkpt lat="43.83355" lon="4.20335">
        <ele>173.2</ele>
        <time>2026-05-09T07:47:41.999Z</time>
      </trkpt>
      <trkpt lat="43.83354" lon="4.20336">
        <ele>173.1</ele>
        <time>2026-05-09T07:47:42.999Z</time>
      </trkpt>
      <trkpt lat="43.83352" lon="4.20336">
        <ele>172.9</ele>
        <time>2026-05-09T07:47:43.999Z</time>
      </trkpt>
      <trkpt lat="43.83351" lon="4.20338">
        <ele>172.8</ele>
        <time>2026-05-09T07:47:44.999Z</time>
      </trkpt>
      <trkpt lat="43.83351" lon="4.20339">
        <ele>172.5</ele>
        <time>2026-05-09T07:47:45.999Z</time>
      </trkpt>
      <trkpt lat="43.8335" lon="4.20341">
        <ele>172.2</ele>
        <time>2026-05-09T07:47:46.999Z</time>
      </trkpt>
      <trkpt lat="43.83349" lon="4.20342">
        <ele>171.9</ele>
        <time>2026-05-09T07:47:47.999Z</time>
      </trkpt>
      <trkpt lat="43.83349" lon="4.20345">
        <ele>171.8</ele>
        <time>2026-05-09T07:47:48.999Z</time>
      </trkpt>
      <trkpt lat="43.83349" lon="4.20347">
        <ele>172.2</ele>
        <time>2026-05-09T07:47:49.999Z</time>
      </trkpt>
      <trkpt lat="43.83348" lon="4.20349">
        <ele>172.4</ele>
        <time>2026-05-09T07:47:50.999Z</time>
      </trkpt>
      <trkpt lat="43.83348" lon="4.20349">
        <ele>172.3</ele>
        <time>2026-05-09T07:47:51.999Z</time>
      </trkpt>
      <trkpt lat="43.83349" lon="4.20351">
        <ele>172.3</ele>
        <time>2026-05-09T07:47:52.999Z</time>
      </trkpt>
      <trkpt lat="43.83349" lon="4.20352">
        <ele>171.9</ele>
        <time>2026-05-09T07:47:53.999Z</time>
      </trkpt>
      <trkpt lat="43.83348" lon="4.20353">
        <ele>171.9</ele>
        <time>2026-05-09T07:47:54.999Z</time>
      </trkpt>
      <trkpt lat="43.83348" lon="4.20355">
        <ele>171.9</ele>
        <time>2026-05-09T07:47:55.999Z</time>
      </trkpt>
      <trkpt lat="43.83348" lon="4.20356">
        <ele>171.9</ele>
        <time>2026-05-09T07:47:56.999Z</time>
      </trkpt>
      <trkpt lat="43.83348" lon="4.20356">
        <ele>171.7</ele>
        <time>2026-05-09T07:47:57.999Z</time>
      </trkpt>
      <trkpt lat="43.83348" lon="4.20356">
        <ele>172.5</ele>
        <time>2026-05-09T07:47:58.999Z</time>
      </trkpt>
      <trkpt lat="43.83347" lon="4.20356">
        <ele>172.7</ele>
        <time>2026-05-09T07:47:59.999Z</time>
      </trkpt>
      <trkpt lat="43.83347" lon="4.20356">
        <ele>173</ele>
        <time>2026-05-09T07:48:00.999Z</time>
      </trkpt>
      <trkpt lat="43.83347" lon="4.20356">
        <ele>172.9</ele>
        <time>2026-05-09T07:48:01.999Z</time>
      </trkpt>
      <trkpt lat="43.83347" lon="4.20356">
        <ele>172.9</ele>
        <time>2026-05-09T07:48:02.999Z</time>
      </trkpt>
      <trkpt lat="43.83347" lon="4.20356">
        <ele>172.8</ele>
        <time>2026-05-09T07:48:03.999Z</time>
      </trkpt>
      <trkpt lat="43.83347" lon="4.20356">
        <ele>172.6</ele>
        <time>2026-05-09T07:48:04.999Z</time>
      </trkpt>
      <trkpt lat="43.83347" lon="4.20357">
        <ele>173.6</ele>
        <time>2026-05-09T07:48:05.999Z</time>
      </trkpt>
      <trkpt lat="43.83346" lon="4.20357">
        <ele>174</ele>
        <time>2026-05-09T07:48:06.999Z</time>
      </trkpt>
      <trkpt lat="43.83346" lon="4.20357">
        <ele>174</ele>
        <time>2026-05-09T07:48:07.999Z</time>
      </trkpt>
      <trkpt lat="43.83346" lon="4.20357">
        <ele>174</ele>
        <time>2026-05-09T07:48:08.999Z</time>
      </trkpt>
      <trkpt lat="43.83346" lon="4.20358">
        <ele>174</ele>
        <time>2026-05-09T07:48:09.999Z</time>
      </trkpt>
      <trkpt lat="43.83345" lon="4.20359">
        <ele>174</ele>
        <time>2026-05-09T07:48:10.999Z</time>
      </trkpt>
      <trkpt lat="43.83344" lon="4.20361">
        <ele>173.7</ele>
        <time>2026-05-09T07:48:11.999Z</time>
      </trkpt>
      <trkpt lat="43.83344" lon="4.20363">
        <ele>173.1</ele>
        <time>2026-05-09T07:48:12.999Z</time>
      </trkpt>
      <trkpt lat="43.83343" lon="4.20366">
        <ele>172.9</ele>
        <time>2026-05-09T07:48:13.999Z</time>
      </trkpt>
      <trkpt lat="43.83343" lon="4.20368">
        <ele>172.9</ele>
        <time>2026-05-09T07:48:14.999Z</time>
      </trkpt>
      <trkpt lat="43.83342" lon="4.20371">
        <ele>172.4</ele>
        <time>2026-05-09T07:48:15.999Z</time>
      </trkpt>
      <trkpt lat="43.83343" lon="4.20373">
        <ele>172</ele>
        <time>2026-05-09T07:48:16.999Z</time>
      </trkpt>
      <trkpt lat="43.83343" lon="4.20375">
        <ele>171.9</ele>
        <time>2026-05-09T07:48:17.999Z</time>
      </trkpt>
      <trkpt lat="43.83342" lon="4.20377">
        <ele>171.9</ele>
        <time>2026-05-09T07:48:18.999Z</time>
      </trkpt>
      <trkpt lat="43.83342" lon="4.20378">
        <ele>171.7</ele>
        <time>2026-05-09T07:48:19.999Z</time>
      </trkpt>
      <trkpt lat="43.83342" lon="4.2038">
        <ele>171.5</ele>
        <time>2026-05-09T07:48:20.999Z</time>
      </trkpt>
      <trkpt lat="43.83343" lon="4.20382">
        <ele>170.9</ele>
        <time>2026-05-09T07:48:21.999Z</time>
      </trkpt>
      <trkpt lat="43.83344" lon="4.20384">
        <ele>170.8</ele>
        <time>2026-05-09T07:48:22.999Z</time>
      </trkpt>
      <trkpt lat="43.83345" lon="4.20385">
        <ele>170.5</ele>
        <time>2026-05-09T07:48:23.999Z</time>
      </trkpt>
      <trkpt lat="43.83346" lon="4.20386">
        <ele>170.5</ele>
        <time>2026-05-09T07:48:24.999Z</time>
      </trkpt>
      <trkpt lat="43.83347" lon="4.20387">
        <ele>170.8</ele>
        <time>2026-05-09T07:48:25.999Z</time>
      </trkpt>
      <trkpt lat="43.83348" lon="4.20388">
        <ele>170.9</ele>
        <time>2026-05-09T07:48:26.999Z</time>
      </trkpt>
      <trkpt lat="43.83348" lon="4.20389">
        <ele>171.3</ele>
        <time>2026-05-09T07:48:27.999Z</time>
      </trkpt>
      <trkpt lat="43.83349" lon="4.2039">
        <ele>171.1</ele>
        <time>2026-05-09T07:48:28.999Z</time>
      </trkpt>
      <trkpt lat="43.83349" lon="4.20391">
        <ele>171.1</ele>
        <time>2026-05-09T07:48:29.999Z</time>
      </trkpt>
      <trkpt lat="43.83349" lon="4.20392">
        <ele>171.3</ele>
        <time>2026-05-09T07:48:30.999Z</time>
      </trkpt>
      <trkpt lat="43.83349" lon="4.20392">
        <ele>171.8</ele>
        <time>2026-05-09T07:48:31.999Z</time>
      </trkpt>
      <trkpt lat="43.83349" lon="4.20394">
        <ele>172.5</ele>
        <time>2026-05-09T07:48:32.999Z</time>
      </trkpt>
      <trkpt lat="43.83348" lon="4.20394">
        <ele>172.5</ele>
        <time>2026-05-09T07:48:33.999Z</time>
      </trkpt>
      <trkpt lat="43.83348" lon="4.20394">
        <ele>172.3</ele>
        <time>2026-05-09T07:48:34.999Z</time>
      </trkpt>
      <trkpt lat="43.83347" lon="4.20395">
        <ele>172</ele>
        <time>2026-05-09T07:48:35.999Z</time>
      </trkpt>
      <trkpt lat="43.83347" lon="4.20395">
        <ele>172.7</ele>
        <time>2026-05-09T07:48:36.999Z</time>
      </trkpt>
      <trkpt lat="43.83347" lon="4.20396">
        <ele>172.9</ele>
        <time>2026-05-09T07:48:37.999Z</time>
      </trkpt>
      <trkpt lat="43.83347" lon="4.20396">
        <ele>173.1</ele>
        <time>2026-05-09T07:48:38.999Z</time>
      </trkpt>
      <trkpt lat="43.83347" lon="4.20396">
        <ele>173.5</ele>
        <time>2026-05-09T07:48:39.999Z</time>
      </trkpt>
      <trkpt lat="43.83346" lon="4.20396">
        <ele>173.7</ele>
        <time>2026-05-09T07:48:40.999Z</time>
      </trkpt>
      <trkpt lat="43.83346" lon="4.20396">
        <ele>173.9</ele>
        <time>2026-05-09T07:48:41.999Z</time>
      </trkpt>
      <trkpt lat="43.83346" lon="4.20396">
        <ele>173.9</ele>
        <time>2026-05-09T07:48:42.999Z</time>
      </trkpt>
      <trkpt lat="43.83346" lon="4.20397">
        <ele>174</ele>
        <time>2026-05-09T07:48:43.999Z</time>
      </trkpt>
      <trkpt lat="43.83346" lon="4.20397">
        <ele>173.9</ele>
        <time>2026-05-09T07:48:44.999Z</time>
      </trkpt>
      <trkpt lat="43.83347" lon="4.20397">
        <ele>174</ele>
        <time>2026-05-09T07:48:45.999Z</time>
      </trkpt>
      <trkpt lat="43.83346" lon="4.20398">
        <ele>174.2</ele>
        <time>2026-05-09T07:48:46.999Z</time>
      </trkpt>
      <trkpt lat="43.83347" lon="4.20398">
        <ele>174.1</ele>
        <time>2026-05-09T07:48:47.999Z</time>
      </trkpt>
      <trkpt lat="43.83347" lon="4.204">
        <ele>174.1</ele>
        <time>2026-05-09T07:48:48.999Z</time>
      </trkpt>
      <trkpt lat="43.83347" lon="4.20403">
        <ele>174.5</ele>
        <time>2026-05-09T07:48:49.999Z</time>
      </trkpt>
      <trkpt lat="43.83347" lon="4.20405">
        <ele>174.3</ele>
        <time>2026-05-09T07:48:50.999Z</time>
      </trkpt>
      <trkpt lat="43.83347" lon="4.20407">
        <ele>174.2</ele>
        <time>2026-05-09T07:48:51.999Z</time>
      </trkpt>
      <trkpt lat="43.83348" lon="4.20409">
        <ele>173.8</ele>
        <time>2026-05-09T07:48:52.999Z</time>
      </trkpt>
      <trkpt lat="43.83348" lon="4.20411">
        <ele>173.7</ele>
        <time>2026-05-09T07:48:53.999Z</time>
      </trkpt>
      <trkpt lat="43.83348" lon="4.20413">
        <ele>173.6</ele>
        <time>2026-05-09T07:48:54.999Z</time>
      </trkpt>
      <trkpt lat="43.83348" lon="4.20415">
        <ele>173.9</ele>
        <time>2026-05-09T07:48:55.999Z</time>
      </trkpt>
      <trkpt lat="43.83348" lon="4.20417">
        <ele>173.9</ele>
        <time>2026-05-09T07:48:56.999Z</time>
      </trkpt>
      <trkpt lat="43.83349" lon="4.20418">
        <ele>174.3</ele>
        <time>2026-05-09T07:48:57.999Z</time>
      </trkpt>
      <trkpt lat="43.83349" lon="4.2042">
        <ele>174.4</ele>
        <time>2026-05-09T07:48:58.999Z</time>
      </trkpt>
      <trkpt lat="43.83349" lon="4.20421">
        <ele>174.3</ele>
        <time>2026-05-09T07:48:59.999Z</time>
      </trkpt>
      <trkpt lat="43.83349" lon="4.20422">
        <ele>174.4</ele>
        <time>2026-05-09T07:49:00.999Z</time>
      </trkpt>
      <trkpt lat="43.83349" lon="4.20424">
        <ele>174.5</ele>
        <time>2026-05-09T07:49:01.999Z</time>
      </trkpt>
      <trkpt lat="43.8335" lon="4.20424">
        <ele>174.4</ele>
        <time>2026-05-09T07:49:02.999Z</time>
      </trkpt>
      <trkpt lat="43.83351" lon="4.20425">
        <ele>174.1</ele>
        <time>2026-05-09T07:49:03.999Z</time>
      </trkpt>
      <trkpt lat="43.83352" lon="4.20427">
        <ele>174</ele>
        <time>2026-05-09T07:49:04.999Z</time>
      </trkpt>
      <trkpt lat="43.83352" lon="4.20429">
        <ele>173.9</ele>
        <time>2026-05-09T07:49:05.999Z</time>
      </trkpt>
      <trkpt lat="43.83352" lon="4.20432">
        <ele>174</ele>
        <time>2026-05-09T07:49:06.999Z</time>
      </trkpt>
      <trkpt lat="43.83352" lon="4.20433">
        <ele>173.8</ele>
        <time>2026-05-09T07:49:07.999Z</time>
      </trkpt>
      <trkpt lat="43.83353" lon="4.20435">
        <ele>173.7</ele>
        <time>2026-05-09T07:49:08.999Z</time>
      </trkpt>
      <trkpt lat="43.83353" lon="4.20437">
        <ele>173.5</ele>
        <time>2026-05-09T07:49:09.999Z</time>
      </trkpt>
      <trkpt lat="43.83353" lon="4.20439">
        <ele>173.8</ele>
        <time>2026-05-09T07:49:10.999Z</time>
      </trkpt>
      <trkpt lat="43.83353" lon="4.20441">
        <ele>174.4</ele>
        <time>2026-05-09T07:49:11.999Z</time>
      </trkpt>
      <trkpt lat="43.83353" lon="4.20443">
        <ele>174.5</ele>
        <time>2026-05-09T07:49:12.999Z</time>
      </trkpt>
      <trkpt lat="43.83353" lon="4.20445">
        <ele>174.6</ele>
        <time>2026-05-09T07:49:13.999Z</time>
      </trkpt>
      <trkpt lat="43.83354" lon="4.20446">
        <ele>174.5</ele>
        <time>2026-05-09T07:49:14.999Z</time>
      </trkpt>
      <trkpt lat="43.83354" lon="4.20446">
        <ele>174.5</ele>
        <time>2026-05-09T07:49:15.999Z</time>
      </trkpt>
      <trkpt lat="43.83354" lon="4.20446">
        <ele>174.4</ele>
        <time>2026-05-09T07:49:16.999Z</time>
      </trkpt>
      <trkpt lat="43.83354" lon="4.20447">
        <ele>173.8</ele>
        <time>2026-05-09T07:49:17.999Z</time>
      </trkpt>
      <trkpt lat="43.83354" lon="4.20448">
        <ele>173.5</ele>
        <time>2026-05-09T07:49:18.999Z</time>
      </trkpt>
      <trkpt lat="43.83354" lon="4.20448">
        <ele>172.9</ele>
        <time>2026-05-09T07:49:19.999Z</time>
      </trkpt>
      <trkpt lat="43.83355" lon="4.20448">
        <ele>172.3</ele>
        <time>2026-05-09T07:49:20.999Z</time>
      </trkpt>
      <trkpt lat="43.83356" lon="4.20448">
        <ele>172</ele>
        <time>2026-05-09T07:49:21.999Z</time>
      </trkpt>
      <trkpt lat="43.83356" lon="4.20448">
        <ele>171.8</ele>
        <time>2026-05-09T07:49:22.999Z</time>
      </trkpt>
      <trkpt lat="43.83356" lon="4.20449">
        <ele>171.7</ele>
        <time>2026-05-09T07:49:23.999Z</time>
      </trkpt>
      <trkpt lat="43.83355" lon="4.2045">
        <ele>171.6</ele>
        <time>2026-05-09T07:49:24.999Z</time>
      </trkpt>
      <trkpt lat="43.83355" lon="4.20452">
        <ele>171.4</ele>
        <time>2026-05-09T07:49:25.999Z</time>
      </trkpt>
      <trkpt lat="43.83355" lon="4.20453">
        <ele>171.2</ele>
        <time>2026-05-09T07:49:26.999Z</time>
      </trkpt>
      <trkpt lat="43.83354" lon="4.20455">
        <ele>171.1</ele>
        <time>2026-05-09T07:49:27.999Z</time>
      </trkpt>
      <trkpt lat="43.83354" lon="4.20456">
        <ele>171.3</ele>
        <time>2026-05-09T07:49:28.999Z</time>
      </trkpt>
      <trkpt lat="43.83354" lon="4.20457">
        <ele>171.5</ele>
        <time>2026-05-09T07:49:29.999Z</time>
      </trkpt>
      <trkpt lat="43.83353" lon="4.20458">
        <ele>171.8</ele>
        <time>2026-05-09T07:49:30.999Z</time>
      </trkpt>
      <trkpt lat="43.83353" lon="4.20459">
        <ele>172.2</ele>
        <time>2026-05-09T07:49:31.999Z</time>
      </trkpt>
      <trkpt lat="43.83353" lon="4.20461">
        <ele>172.3</ele>
        <time>2026-05-09T07:49:32.999Z</time>
      </trkpt>
      <trkpt lat="43.83354" lon="4.20463">
        <ele>172.4</ele>
        <time>2026-05-09T07:49:33.999Z</time>
      </trkpt>
      <trkpt lat="43.83355" lon="4.20464">
        <ele>171.9</ele>
        <time>2026-05-09T07:49:34.999Z</time>
      </trkpt>
      <trkpt lat="43.83356" lon="4.20466">
        <ele>171.7</ele>
        <time>2026-05-09T07:49:35.999Z</time>
      </trkpt>
      <trkpt lat="43.83356" lon="4.20467">
        <ele>171.8</ele>
        <time>2026-05-09T07:49:36.999Z</time>
      </trkpt>
      <trkpt lat="43.83356" lon="4.20469">
        <ele>171.7</ele>
        <time>2026-05-09T07:49:37.999Z</time>
      </trkpt>
      <trkpt lat="43.83357" lon="4.20472">
        <ele>171.1</ele>
        <time>2026-05-09T07:49:38.999Z</time>
      </trkpt>
      <trkpt lat="43.83358" lon="4.20473">
        <ele>171</ele>
        <time>2026-05-09T07:49:39.999Z</time>
      </trkpt>
      <trkpt lat="43.83358" lon="4.20475">
        <ele>171.2</ele>
        <time>2026-05-09T07:49:40.999Z</time>
      </trkpt>
      <trkpt lat="43.83359" lon="4.20476">
        <ele>171.2</ele>
        <time>2026-05-09T07:49:41.999Z</time>
      </trkpt>
      <trkpt lat="43.83359" lon="4.20477">
        <ele>171.7</ele>
        <time>2026-05-09T07:49:42.999Z</time>
      </trkpt>
      <trkpt lat="43.8336" lon="4.2048">
        <ele>171.6</ele>
        <time>2026-05-09T07:49:43.999Z</time>
      </trkpt>
      <trkpt lat="43.83361" lon="4.2048">
        <ele>171.5</ele>
        <time>2026-05-09T07:49:44.999Z</time>
      </trkpt>
      <trkpt lat="43.83361" lon="4.20481">
        <ele>171.7</ele>
        <time>2026-05-09T07:49:45.999Z</time>
      </trkpt>
      <trkpt lat="43.83362" lon="4.20482">
        <ele>171.6</ele>
        <time>2026-05-09T07:49:46.999Z</time>
      </trkpt>
      <trkpt lat="43.83362" lon="4.20483">
        <ele>171.3</ele>
        <time>2026-05-09T07:49:47.999Z</time>
      </trkpt>
      <trkpt lat="43.83362" lon="4.20484">
        <ele>171.6</ele>
        <time>2026-05-09T07:49:48.999Z</time>
      </trkpt>
      <trkpt lat="43.83362" lon="4.20485">
        <ele>171.8</ele>
        <time>2026-05-09T07:49:49.999Z</time>
      </trkpt>
      <trkpt lat="43.83362" lon="4.20486">
        <ele>172.1</ele>
        <time>2026-05-09T07:49:50.999Z</time>
      </trkpt>
      <trkpt lat="43.83362" lon="4.20486">
        <ele>172.1</ele>
        <time>2026-05-09T07:49:51.999Z</time>
      </trkpt>
      <trkpt lat="43.83362" lon="4.20487">
        <ele>172</ele>
        <time>2026-05-09T07:49:52.999Z</time>
      </trkpt>
      <trkpt lat="43.83363" lon="4.20488">
        <ele>171.7</ele>
        <time>2026-05-09T07:49:53.999Z</time>
      </trkpt>
      <trkpt lat="43.83364" lon="4.20489">
        <ele>171.2</ele>
        <time>2026-05-09T07:49:54.999Z</time>
      </trkpt>
      <trkpt lat="43.83365" lon="4.20491">
        <ele>170.7</ele>
        <time>2026-05-09T07:49:55.999Z</time>
      </trkpt>
      <trkpt lat="43.83365" lon="4.20491">
        <ele>170</ele>
        <time>2026-05-09T07:49:56.999Z</time>
      </trkpt>
      <trkpt lat="43.83366" lon="4.20492">
        <ele>169.8</ele>
        <time>2026-05-09T07:49:57.999Z</time>
      </trkpt>
      <trkpt lat="43.83366" lon="4.20493">
        <ele>169.9</ele>
        <time>2026-05-09T07:49:58.999Z</time>
      </trkpt>
      <trkpt lat="43.83366" lon="4.20494">
        <ele>169.9</ele>
        <time>2026-05-09T07:49:59.999Z</time>
      </trkpt>
      <trkpt lat="43.83366" lon="4.20494">
        <ele>170.2</ele>
        <time>2026-05-09T07:50:00.999Z</time>
      </trkpt>
      <trkpt lat="43.83366" lon="4.20493">
        <ele>170.4</ele>
        <time>2026-05-09T07:50:01.999Z</time>
      </trkpt>
      <trkpt lat="43.83366" lon="4.20493">
        <ele>170.4</ele>
        <time>2026-05-09T07:50:02.999Z</time>
      </trkpt>
      <trkpt lat="43.83366" lon="4.20493">
        <ele>170.6</ele>
        <time>2026-05-09T07:50:03.999Z</time>
      </trkpt>
      <trkpt lat="43.83366" lon="4.20493">
        <ele>170.5</ele>
        <time>2026-05-09T07:50:04.999Z</time>
      </trkpt>
      <trkpt lat="43.83366" lon="4.20494">
        <ele>170.1</ele>
        <time>2026-05-09T07:50:05.999Z</time>
      </trkpt>
      <trkpt lat="43.83367" lon="4.20496">
        <ele>169.6</ele>
        <time>2026-05-09T07:50:06.999Z</time>
      </trkpt>
      <trkpt lat="43.83367" lon="4.20497">
        <ele>169.4</ele>
        <time>2026-05-09T07:50:07.999Z</time>
      </trkpt>
      <trkpt lat="43.83367" lon="4.20498">
        <ele>169.1</ele>
        <time>2026-05-09T07:50:08.999Z</time>
      </trkpt>
      <trkpt lat="43.83368" lon="4.205">
        <ele>168.8</ele>
        <time>2026-05-09T07:50:09.999Z</time>
      </trkpt>
      <trkpt lat="43.83368" lon="4.20501">
        <ele>168.5</ele>
        <time>2026-05-09T07:50:10.999Z</time>
      </trkpt>
      <trkpt lat="43.83368" lon="4.20502">
        <ele>168.6</ele>
        <time>2026-05-09T07:50:11.999Z</time>
      </trkpt>
      <trkpt lat="43.83368" lon="4.20504">
        <ele>169</ele>
        <time>2026-05-09T07:50:12.999Z</time>
      </trkpt>
      <trkpt lat="43.83369" lon="4.20505">
        <ele>168.7</ele>
        <time>2026-05-09T07:50:13.999Z</time>
      </trkpt>
      <trkpt lat="43.83369" lon="4.20507">
        <ele>168.7</ele>
        <time>2026-05-09T07:50:14.999Z</time>
      </trkpt>
      <trkpt lat="43.83369" lon="4.20508">
        <ele>168.8</ele>
        <time>2026-05-09T07:50:15.999Z</time>
      </trkpt>
      <trkpt lat="43.83369" lon="4.2051">
        <ele>168.8</ele>
        <time>2026-05-09T07:50:16.999Z</time>
      </trkpt>
      <trkpt lat="43.8337" lon="4.20512">
        <ele>168.4</ele>
        <time>2026-05-09T07:50:17.999Z</time>
      </trkpt>
      <trkpt lat="43.83371" lon="4.20513">
        <ele>168</ele>
        <time>2026-05-09T07:50:18.999Z</time>
      </trkpt>
      <trkpt lat="43.83371" lon="4.20514">
        <ele>167.7</ele>
        <time>2026-05-09T07:50:19.999Z</time>
      </trkpt>
      <trkpt lat="43.83371" lon="4.20515">
        <ele>167.7</ele>
        <time>2026-05-09T07:50:20.999Z</time>
      </trkpt>
      <trkpt lat="43.83372" lon="4.20517">
        <ele>167.8</ele>
        <time>2026-05-09T07:50:21.999Z</time>
      </trkpt>
      <trkpt lat="43.83372" lon="4.20518">
        <ele>168</ele>
        <time>2026-05-09T07:50:22.999Z</time>
      </trkpt>
      <trkpt lat="43.83372" lon="4.20518">
        <ele>168.3</ele>
        <time>2026-05-09T07:50:23.999Z</time>
      </trkpt>
      <trkpt lat="43.83372" lon="4.20519">
        <ele>168.7</ele>
        <time>2026-05-09T07:50:24.999Z</time>
      </trkpt>
      <trkpt lat="43.83373" lon="4.2052">
        <ele>169.2</ele>
        <time>2026-05-09T07:50:25.999Z</time>
      </trkpt>
      <trkpt lat="43.83373" lon="4.20521">
        <ele>169.6</ele>
        <time>2026-05-09T07:50:26.999Z</time>
      </trkpt>
      <trkpt lat="43.83372" lon="4.20521">
        <ele>170.1</ele>
        <time>2026-05-09T07:50:27.999Z</time>
      </trkpt>
      <trkpt lat="43.83372" lon="4.20523">
        <ele>170.8</ele>
        <time>2026-05-09T07:50:28.999Z</time>
      </trkpt>
      <trkpt lat="43.83372" lon="4.20524">
        <ele>171.1</ele>
        <time>2026-05-09T07:50:29.999Z</time>
      </trkpt>
      <trkpt lat="43.83371" lon="4.20526">
        <ele>171.5</ele>
        <time>2026-05-09T07:50:30.999Z</time>
      </trkpt>
      <trkpt lat="43.83372" lon="4.20528">
        <ele>171.4</ele>
        <time>2026-05-09T07:50:31.999Z</time>
      </trkpt>
      <trkpt lat="43.83372" lon="4.20529">
        <ele>171.4</ele>
        <time>2026-05-09T07:50:32.999Z</time>
      </trkpt>
      <trkpt lat="43.83373" lon="4.2053">
        <ele>171.5</ele>
        <time>2026-05-09T07:50:33.999Z</time>
      </trkpt>
      <trkpt lat="43.83373" lon="4.20532">
        <ele>172</ele>
        <time>2026-05-09T07:50:34.999Z</time>
      </trkpt>
      <trkpt lat="43.83373" lon="4.20533">
        <ele>172.2</ele>
        <time>2026-05-09T07:50:35.999Z</time>
      </trkpt>
      <trkpt lat="43.83374" lon="4.20534">
        <ele>172.1</ele>
        <time>2026-05-09T07:50:36.999Z</time>
      </trkpt>
      <trkpt lat="43.83374" lon="4.20536">
        <ele>172.9</ele>
        <time>2026-05-09T07:50:37.999Z</time>
      </trkpt>
      <trkpt lat="43.83374" lon="4.20537">
        <ele>173.3</ele>
        <time>2026-05-09T07:50:38.999Z</time>
      </trkpt>
      <trkpt lat="43.83374" lon="4.20538">
        <ele>173.6</ele>
        <time>2026-05-09T07:50:39.999Z</time>
      </trkpt>
      <trkpt lat="43.83374" lon="4.20538">
        <ele>173.7</ele>
        <time>2026-05-09T07:50:40.999Z</time>
      </trkpt>
      <trkpt lat="43.83373" lon="4.20539">
        <ele>174</ele>
        <time>2026-05-09T07:50:41.999Z</time>
      </trkpt>
      <trkpt lat="43.83373" lon="4.20539">
        <ele>174.1</ele>
        <time>2026-05-09T07:50:42.999Z</time>
      </trkpt>
      <trkpt lat="43.83372" lon="4.20539">
        <ele>174.6</ele>
        <time>2026-05-09T07:50:43.999Z</time>
      </trkpt>
      <trkpt lat="43.83373" lon="4.20539">
        <ele>174.5</ele>
        <time>2026-05-09T07:50:44.999Z</time>
      </trkpt>
      <trkpt lat="43.83373" lon="4.2054">
        <ele>174</ele>
        <time>2026-05-09T07:50:45.999Z</time>
      </trkpt>
      <trkpt lat="43.83373" lon="4.20541">
        <ele>174.4</ele>
        <time>2026-05-09T07:50:46.999Z</time>
      </trkpt>
      <trkpt lat="43.83373" lon="4.20541">
        <ele>174.4</ele>
        <time>2026-05-09T07:50:47.999Z</time>
      </trkpt>
      <trkpt lat="43.83373" lon="4.20541">
        <ele>173.8</ele>
        <time>2026-05-09T07:50:48.999Z</time>
      </trkpt>
      <trkpt lat="43.83371" lon="4.20543">
        <ele>173.7</ele>
        <time>2026-05-09T07:50:49.999Z</time>
      </trkpt>
      <trkpt lat="43.83371" lon="4.20544">
        <ele>173.2</ele>
        <time>2026-05-09T07:50:50.999Z</time>
      </trkpt>
      <trkpt lat="43.8337" lon="4.20545">
        <ele>172.8</ele>
        <time>2026-05-09T07:50:51.999Z</time>
      </trkpt>
      <trkpt lat="43.8337" lon="4.20548">
        <ele>172.3</ele>
        <time>2026-05-09T07:50:52.999Z</time>
      </trkpt>
      <trkpt lat="43.8337" lon="4.20549">
        <ele>172.4</ele>
        <time>2026-05-09T07:50:53.999Z</time>
      </trkpt>
      <trkpt lat="43.8337" lon="4.20551">
        <ele>172.6</ele>
        <time>2026-05-09T07:50:54.999Z</time>
      </trkpt>
      <trkpt lat="43.8337" lon="4.20552">
        <ele>173.2</ele>
        <time>2026-05-09T07:50:55.999Z</time>
      </trkpt>
      <trkpt lat="43.8337" lon="4.20553">
        <ele>173.7</ele>
        <time>2026-05-09T07:50:56.999Z</time>
      </trkpt>
      <trkpt lat="43.8337" lon="4.20554">
        <ele>173.7</ele>
        <time>2026-05-09T07:50:57.999Z</time>
      </trkpt>
      <trkpt lat="43.8337" lon="4.20555">
        <ele>173.6</ele>
        <time>2026-05-09T07:50:58.999Z</time>
      </trkpt>
      <trkpt lat="43.8337" lon="4.20556">
        <ele>174.4</ele>
        <time>2026-05-09T07:50:59.999Z</time>
      </trkpt>
      <trkpt lat="43.8337" lon="4.20557">
        <ele>175.3</ele>
        <time>2026-05-09T07:51:00.999Z</time>
      </trkpt>
      <trkpt lat="43.8337" lon="4.20558">
        <ele>175.9</ele>
        <time>2026-05-09T07:51:01.999Z</time>
      </trkpt>
      <trkpt lat="43.8337" lon="4.20559">
        <ele>176.4</ele>
        <time>2026-05-09T07:51:02.999Z</time>
      </trkpt>
      <trkpt lat="43.8337" lon="4.20559">
        <ele>177</ele>
        <time>2026-05-09T07:51:03.999Z</time>
      </trkpt>
      <trkpt lat="43.8337" lon="4.20559">
        <ele>177.3</ele>
        <time>2026-05-09T07:51:04.999Z</time>
      </trkpt>
      <trkpt lat="43.8337" lon="4.20559">
        <ele>177.2</ele>
        <time>2026-05-09T07:51:05.999Z</time>
      </trkpt>
      <trkpt lat="43.83371" lon="4.2056">
        <ele>176.7</ele>
        <time>2026-05-09T07:51:06.999Z</time>
      </trkpt>
      <trkpt lat="43.83371" lon="4.20561">
        <ele>176.7</ele>
        <time>2026-05-09T07:51:07.999Z</time>
      </trkpt>
      <trkpt lat="43.83372" lon="4.20561">
        <ele>176.5</ele>
        <time>2026-05-09T07:51:08.999Z</time>
      </trkpt>
      <trkpt lat="43.83372" lon="4.20562">
        <ele>176.2</ele>
        <time>2026-05-09T07:51:09.999Z</time>
      </trkpt>
      <trkpt lat="43.83372" lon="4.20562">
        <ele>176.5</ele>
        <time>2026-05-09T07:51:10.999Z</time>
      </trkpt>
      <trkpt lat="43.83373" lon="4.20562">
        <ele>176.8</ele>
        <time>2026-05-09T07:51:11.999Z</time>
      </trkpt>
      <trkpt lat="43.83373" lon="4.20561">
        <ele>177</ele>
        <time>2026-05-09T07:51:12.999Z</time>
      </trkpt>
      <trkpt lat="43.83373" lon="4.20561">
        <ele>177.1</ele>
        <time>2026-05-09T07:51:13.999Z</time>
      </trkpt>
      <trkpt lat="43.83373" lon="4.20561">
        <ele>177.3</ele>
        <time>2026-05-09T07:51:14.999Z</time>
      </trkpt>
      <trkpt lat="43.83373" lon="4.2056">
        <ele>177.4</ele>
        <time>2026-05-09T07:51:15.999Z</time>
      </trkpt>
      <trkpt lat="43.83372" lon="4.20561">
        <ele>177.7</ele>
        <time>2026-05-09T07:51:16.999Z</time>
      </trkpt>
      <trkpt lat="43.83372" lon="4.20561">
        <ele>178.4</ele>
        <time>2026-05-09T07:51:17.999Z</time>
      </trkpt>
      <trkpt lat="43.83372" lon="4.20561">
        <ele>178.9</ele>
        <time>2026-05-09T07:51:18.999Z</time>
      </trkpt>
      <trkpt lat="43.83372" lon="4.20561">
        <ele>179.2</ele>
        <time>2026-05-09T07:51:19.999Z</time>
      </trkpt>
      <trkpt lat="43.83372" lon="4.20561">
        <ele>179.2</ele>
        <time>2026-05-09T07:51:20.999Z</time>
      </trkpt>
      <trkpt lat="43.83372" lon="4.20561">
        <ele>179.3</ele>
        <time>2026-05-09T07:51:21.999Z</time>
      </trkpt>
      <trkpt lat="43.83372" lon="4.20561">
        <ele>178.8</ele>
        <time>2026-05-09T07:51:22.999Z</time>
      </trkpt>
      <trkpt lat="43.83372" lon="4.20561">
        <ele>178.5</ele>
        <time>2026-05-09T07:51:23.999Z</time>
      </trkpt>
      <trkpt lat="43.83372" lon="4.20562">
        <ele>178.5</ele>
        <time>2026-05-09T07:51:24.999Z</time>
      </trkpt>
      <trkpt lat="43.83372" lon="4.20562">
        <ele>178.5</ele>
        <time>2026-05-09T07:51:25.999Z</time>
      </trkpt>
      <trkpt lat="43.83372" lon="4.20562">
        <ele>178.5</ele>
        <time>2026-05-09T07:51:26.999Z</time>
      </trkpt>
      <trkpt lat="43.83372" lon="4.20562">
        <ele>178.5</ele>
        <time>2026-05-09T07:51:27.999Z</time>
      </trkpt>
      <trkpt lat="43.83372" lon="4.20562">
        <ele>178.3</ele>
        <time>2026-05-09T07:51:28.999Z</time>
      </trkpt>
      <trkpt lat="43.83373" lon="4.20562">
        <ele>178.2</ele>
        <time>2026-05-09T07:51:29.999Z</time>
      </trkpt>
      <trkpt lat="43.83373" lon="4.20562">
        <ele>178.1</ele>
        <time>2026-05-09T07:51:30.999Z</time>
      </trkpt>
      <trkpt lat="43.83373" lon="4.20562">
        <ele>178.1</ele>
        <time>2026-05-09T07:51:31.999Z</time>
      </trkpt>
      <trkpt lat="43.83373" lon="4.20562">
        <ele>178.4</ele>
        <time>2026-05-09T07:51:32.999Z</time>
      </trkpt>
      <trkpt lat="43.83373" lon="4.20562">
        <ele>178.6</ele>
        <time>2026-05-09T07:51:33.999Z</time>
      </trkpt>
      <trkpt lat="43.83374" lon="4.20562">
        <ele>179</ele>
        <time>2026-05-09T07:51:34.999Z</time>
      </trkpt>
      <trkpt lat="43.83375" lon="4.20563">
        <ele>179.7</ele>
        <time>2026-05-09T07:51:35.999Z</time>
      </trkpt>
      <trkpt lat="43.83375" lon="4.20563">
        <ele>179.9</ele>
        <time>2026-05-09T07:51:36.999Z</time>
      </trkpt>
      <trkpt lat="43.83375" lon="4.20564">
        <ele>180.2</ele>
        <time>2026-05-09T07:51:37.999Z</time>
      </trkpt>
      <trkpt lat="43.83374" lon="4.20565">
        <ele>180</ele>
        <time>2026-05-09T07:51:38.999Z</time>
      </trkpt>
      <trkpt lat="43.83375" lon="4.20565">
        <ele>180.5</ele>
        <time>2026-05-09T07:51:39.999Z</time>
      </trkpt>
      <trkpt lat="43.83375" lon="4.20565">
        <ele>181.1</ele>
        <time>2026-05-09T07:51:40.999Z</time>
      </trkpt>
      <trkpt lat="43.83376" lon="4.20565">
        <ele>181.7</ele>
        <time>2026-05-09T07:51:41.999Z</time>
      </trkpt>
      <trkpt lat="43.83376" lon="4.20565">
        <ele>181.9</ele>
        <time>2026-05-09T07:51:42.999Z</time>
      </trkpt>
      <trkpt lat="43.83377" lon="4.20565">
        <ele>181.9</ele>
        <time>2026-05-09T07:51:43.999Z</time>
      </trkpt>
      <trkpt lat="43.83377" lon="4.20566">
        <ele>181.9</ele>
        <time>2026-05-09T07:51:44.999Z</time>
      </trkpt>
      <trkpt lat="43.83377" lon="4.20566">
        <ele>181.8</ele>
        <time>2026-05-09T07:51:45.999Z</time>
      </trkpt>
      <trkpt lat="43.83378" lon="4.20566">
        <ele>182</ele>
        <time>2026-05-09T07:51:46.999Z</time>
      </trkpt>
      <trkpt lat="43.83379" lon="4.20566">
        <ele>182.2</ele>
        <time>2026-05-09T07:51:47.999Z</time>
      </trkpt>
      <trkpt lat="43.83379" lon="4.20567">
        <ele>182.4</ele>
        <time>2026-05-09T07:51:48.999Z</time>
      </trkpt>
      <trkpt lat="43.8338" lon="4.20568">
        <ele>182.9</ele>
        <time>2026-05-09T07:51:49.999Z</time>
      </trkpt>
      <trkpt lat="43.83381" lon="4.20569">
        <ele>183.3</ele>
        <time>2026-05-09T07:51:50.999Z</time>
      </trkpt>
      <trkpt lat="43.83382" lon="4.20569">
        <ele>183.8</ele>
        <time>2026-05-09T07:51:51.999Z</time>
      </trkpt>
      <trkpt lat="43.83382" lon="4.2057">
        <ele>184</ele>
        <time>2026-05-09T07:51:52.999Z</time>
      </trkpt>
      <trkpt lat="43.83383" lon="4.20571">
        <ele>183.8</ele>
        <time>2026-05-09T07:51:53.999Z</time>
      </trkpt>
      <trkpt lat="43.83383" lon="4.20571">
        <ele>184.3</ele>
        <time>2026-05-09T07:51:54.999Z</time>
      </trkpt>
      <trkpt lat="43.83383" lon="4.20571">
        <ele>183.9</ele>
        <time>2026-05-09T07:51:55.999Z</time>
      </trkpt>
      <trkpt lat="43.83383" lon="4.20571">
        <ele>183.8</ele>
        <time>2026-05-09T07:51:56.999Z</time>
      </trkpt>
      <trkpt lat="43.83383" lon="4.20571">
        <ele>184.1</ele>
        <time>2026-05-09T07:51:57.999Z</time>
      </trkpt>
      <trkpt lat="43.83384" lon="4.20571">
        <ele>184.5</ele>
        <time>2026-05-09T07:51:58.999Z</time>
      </trkpt>
      <trkpt lat="43.83384" lon="4.20571">
        <ele>184.7</ele>
        <time>2026-05-09T07:51:59.999Z</time>
      </trkpt>
      <trkpt lat="43.83384" lon="4.20571">
        <ele>185</ele>
        <time>2026-05-09T07:52:00.999Z</time>
      </trkpt>
      <trkpt lat="43.83384" lon="4.20572">
        <ele>185.4</ele>
        <time>2026-05-09T07:52:01.999Z</time>
      </trkpt>
      <trkpt lat="43.83385" lon="4.20573">
        <ele>186</ele>
        <time>2026-05-09T07:52:02.999Z</time>
      </trkpt>
      <trkpt lat="43.83385" lon="4.20574">
        <ele>186.7</ele>
        <time>2026-05-09T07:52:03.999Z</time>
      </trkpt>
      <trkpt lat="43.83386" lon="4.20574">
        <ele>187.3</ele>
        <time>2026-05-09T07:52:04.999Z</time>
      </trkpt>
      <trkpt lat="43.83386" lon="4.20574">
        <ele>187.8</ele>
        <time>2026-05-09T07:52:05.999Z</time>
      </trkpt>
      <trkpt lat="43.83386" lon="4.20574">
        <ele>188.3</ele>
        <time>2026-05-09T07:52:06.999Z</time>
      </trkpt>
      <trkpt lat="43.83386" lon="4.20574">
        <ele>188.6</ele>
        <time>2026-05-09T07:52:07.999Z</time>
      </trkpt>
      <trkpt lat="43.83386" lon="4.20574">
        <ele>188.8</ele>
        <time>2026-05-09T07:52:08.999Z</time>
      </trkpt>
      <trkpt lat="43.83386" lon="4.20574">
        <ele>188.5</ele>
        <time>2026-05-09T07:52:09.999Z</time>
      </trkpt>
      <trkpt lat="43.83386" lon="4.20575">
        <ele>188.5</ele>
        <time>2026-05-09T07:52:10.999Z</time>
      </trkpt>
      <trkpt lat="43.83386" lon="4.20575">
        <ele>188.3</ele>
        <time>2026-05-09T07:52:11.999Z</time>
      </trkpt>
      <trkpt lat="43.83386" lon="4.20575">
        <ele>188.3</ele>
        <time>2026-05-09T07:52:12.999Z</time>
      </trkpt>
      <trkpt lat="43.83387" lon="4.20575">
        <ele>188.2</ele>
        <time>2026-05-09T07:52:13.999Z</time>
      </trkpt>
      <trkpt lat="43.83387" lon="4.20577">
        <ele>188.1</ele>
        <time>2026-05-09T07:52:14.999Z</time>
      </trkpt>
      <trkpt lat="43.83389" lon="4.2058">
        <ele>188.3</ele>
        <time>2026-05-09T07:52:15.999Z</time>
      </trkpt>
      <trkpt lat="43.8339" lon="4.20582">
        <ele>188.2</ele>
        <time>2026-05-09T07:52:16.999Z</time>
      </trkpt>
      <trkpt lat="43.83391" lon="4.20584">
        <ele>188.2</ele>
        <time>2026-05-09T07:52:17.999Z</time>
      </trkpt>
      <trkpt lat="43.83391" lon="4.20585">
        <ele>188.4</ele>
        <time>2026-05-09T07:52:18.999Z</time>
      </trkpt>
      <trkpt lat="43.83391" lon="4.20586">
        <ele>188.3</ele>
        <time>2026-05-09T07:52:19.999Z</time>
      </trkpt>
      <trkpt lat="43.83392" lon="4.20586">
        <ele>188.4</ele>
        <time>2026-05-09T07:52:20.999Z</time>
      </trkpt>
      <trkpt lat="43.83393" lon="4.20587">
        <ele>188.3</ele>
        <time>2026-05-09T07:52:21.999Z</time>
      </trkpt>
      <trkpt lat="43.83393" lon="4.20588">
        <ele>188.2</ele>
        <time>2026-05-09T07:52:22.999Z</time>
      </trkpt>
      <trkpt lat="43.83393" lon="4.20588">
        <ele>188.4</ele>
        <time>2026-05-09T07:52:23.999Z</time>
      </trkpt>
      <trkpt lat="43.83393" lon="4.20588">
        <ele>188.5</ele>
        <time>2026-05-09T07:52:24.999Z</time>
      </trkpt>
      <trkpt lat="43.83393" lon="4.20588">
        <ele>188.4</ele>
        <time>2026-05-09T07:52:25.999Z</time>
      </trkpt>
      <trkpt lat="43.83394" lon="4.20588">
        <ele>188.4</ele>
        <time>2026-05-09T07:52:26.999Z</time>
      </trkpt>
      <trkpt lat="43.83396" lon="4.20591">
        <ele>188.4</ele>
        <time>2026-05-09T07:52:27.999Z</time>
      </trkpt>
      <trkpt lat="43.83397" lon="4.20593">
        <ele>188.3</ele>
        <time>2026-05-09T07:52:28.999Z</time>
      </trkpt>
      <trkpt lat="43.83399" lon="4.20594">
        <ele>188.2</ele>
        <time>2026-05-09T07:52:29.999Z</time>
      </trkpt>
      <trkpt lat="43.834" lon="4.20595">
        <ele>188.3</ele>
        <time>2026-05-09T07:52:30.999Z</time>
      </trkpt>
      <trkpt lat="43.83401" lon="4.20596">
        <ele>188.2</ele>
        <time>2026-05-09T07:52:31.999Z</time>
      </trkpt>
      <trkpt lat="43.83401" lon="4.20597">
        <ele>188.3</ele>
        <time>2026-05-09T07:52:32.999Z</time>
      </trkpt>
      <trkpt lat="43.83402" lon="4.20598">
        <ele>188.3</ele>
        <time>2026-05-09T07:52:33.999Z</time>
      </trkpt>
      <trkpt lat="43.83402" lon="4.206">
        <ele>188</ele>
        <time>2026-05-09T07:52:34.999Z</time>
      </trkpt>
      <trkpt lat="43.83403" lon="4.20602">
        <ele>187.5</ele>
        <time>2026-05-09T07:52:35.999Z</time>
      </trkpt>
      <trkpt lat="43.83404" lon="4.20604">
        <ele>187.1</ele>
        <time>2026-05-09T07:52:36.999Z</time>
      </trkpt>
      <trkpt lat="43.83404" lon="4.20605">
        <ele>187.3</ele>
        <time>2026-05-09T07:52:37.999Z</time>
      </trkpt>
      <trkpt lat="43.83405" lon="4.20606">
        <ele>187.4</ele>
        <time>2026-05-09T07:52:38.999Z</time>
      </trkpt>
      <trkpt lat="43.83406" lon="4.20606">
        <ele>187.8</ele>
        <time>2026-05-09T07:52:39.999Z</time>
      </trkpt>
      <trkpt lat="43.83406" lon="4.20606">
        <ele>187.9</ele>
        <time>2026-05-09T07:52:40.999Z</time>
      </trkpt>
      <trkpt lat="43.83407" lon="4.20606">
        <ele>188.1</ele>
        <time>2026-05-09T07:52:41.999Z</time>
      </trkpt>
      <trkpt lat="43.83408" lon="4.20607">
        <ele>188.3</ele>
        <time>2026-05-09T07:52:42.999Z</time>
      </trkpt>
      <trkpt lat="43.83408" lon="4.20607">
        <ele>188.4</ele>
        <time>2026-05-09T07:52:43.999Z</time>
      </trkpt>
      <trkpt lat="43.83409" lon="4.20609">
        <ele>188.8</ele>
        <time>2026-05-09T07:52:44.999Z</time>
      </trkpt>
      <trkpt lat="43.8341" lon="4.20609">
        <ele>189</ele>
        <time>2026-05-09T07:52:45.999Z</time>
      </trkpt>
      <trkpt lat="43.83411" lon="4.2061">
        <ele>189</ele>
        <time>2026-05-09T07:52:46.999Z</time>
      </trkpt>
      <trkpt lat="43.83412" lon="4.2061">
        <ele>189</ele>
        <time>2026-05-09T07:52:47.999Z</time>
      </trkpt>
      <trkpt lat="43.83412" lon="4.2061">
        <ele>189.3</ele>
        <time>2026-05-09T07:52:48.999Z</time>
      </trkpt>
      <trkpt lat="43.83413" lon="4.20611">
        <ele>189.5</ele>
        <time>2026-05-09T07:52:49.999Z</time>
      </trkpt>
      <trkpt lat="43.83413" lon="4.20613">
        <ele>189.9</ele>
        <time>2026-05-09T07:52:50.999Z</time>
      </trkpt>
      <trkpt lat="43.83413" lon="4.20614">
        <ele>189.8</ele>
        <time>2026-05-09T07:52:51.999Z</time>
      </trkpt>
      <trkpt lat="43.83413" lon="4.20614">
        <ele>189.6</ele>
        <time>2026-05-09T07:52:52.999Z</time>
      </trkpt>
      <trkpt lat="43.83413" lon="4.20615">
        <ele>189.6</ele>
        <time>2026-05-09T07:52:53.999Z</time>
      </trkpt>
      <trkpt lat="43.83414" lon="4.20616">
        <ele>189.3</ele>
        <time>2026-05-09T07:52:54.999Z</time>
      </trkpt>
      <trkpt lat="43.83414" lon="4.20617">
        <ele>189.2</ele>
        <time>2026-05-09T07:52:55.999Z</time>
      </trkpt>
      <trkpt lat="43.83414" lon="4.20618">
        <ele>189</ele>
        <time>2026-05-09T07:52:56.999Z</time>
      </trkpt>
      <trkpt lat="43.83415" lon="4.2062">
        <ele>189.1</ele>
        <time>2026-05-09T07:52:57.999Z</time>
      </trkpt>
      <trkpt lat="43.83415" lon="4.20621">
        <ele>189.4</ele>
        <time>2026-05-09T07:52:58.999Z</time>
      </trkpt>
      <trkpt lat="43.83416" lon="4.20622">
        <ele>189.5</ele>
        <time>2026-05-09T07:52:59.999Z</time>
      </trkpt>
      <trkpt lat="43.83416" lon="4.20623">
        <ele>189.8</ele>
        <time>2026-05-09T07:53:00.999Z</time>
      </trkpt>
      <trkpt lat="43.83417" lon="4.20625">
        <ele>190</ele>
        <time>2026-05-09T07:53:01.999Z</time>
      </trkpt>
      <trkpt lat="43.83418" lon="4.20626">
        <ele>189.9</ele>
        <time>2026-05-09T07:53:02.999Z</time>
      </trkpt>
      <trkpt lat="43.83419" lon="4.20626">
        <ele>190</ele>
        <time>2026-05-09T07:53:03.999Z</time>
      </trkpt>
      <trkpt lat="43.83419" lon="4.20626">
        <ele>190.1</ele>
        <time>2026-05-09T07:53:04.999Z</time>
      </trkpt>
      <trkpt lat="43.83419" lon="4.20627">
        <ele>190.2</ele>
        <time>2026-05-09T07:53:05.999Z</time>
      </trkpt>
      <trkpt lat="43.83419" lon="4.20628">
        <ele>190.7</ele>
        <time>2026-05-09T07:53:06.999Z</time>
      </trkpt>
      <trkpt lat="43.8342" lon="4.20628">
        <ele>190.7</ele>
        <time>2026-05-09T07:53:07.999Z</time>
      </trkpt>
      <trkpt lat="43.8342" lon="4.20629">
        <ele>190.8</ele>
        <time>2026-05-09T07:53:08.999Z</time>
      </trkpt>
      <trkpt lat="43.83421" lon="4.20629">
        <ele>190.7</ele>
        <time>2026-05-09T07:53:09.999Z</time>
      </trkpt>
      <trkpt lat="43.83422" lon="4.20629">
        <ele>190.7</ele>
        <time>2026-05-09T07:53:10.999Z</time>
      </trkpt>
      <trkpt lat="43.83422" lon="4.20629">
        <ele>190.6</ele>
        <time>2026-05-09T07:53:11.999Z</time>
      </trkpt>
      <trkpt lat="43.83423" lon="4.20629">
        <ele>190.6</ele>
        <time>2026-05-09T07:53:12.999Z</time>
      </trkpt>
      <trkpt lat="43.83424" lon="4.2063">
        <ele>190.7</ele>
        <time>2026-05-09T07:53:13.999Z</time>
      </trkpt>
      <trkpt lat="43.83425" lon="4.20631">
        <ele>190.7</ele>
        <time>2026-05-09T07:53:14.999Z</time>
      </trkpt>
      <trkpt lat="43.83425" lon="4.20632">
        <ele>190.9</ele>
        <time>2026-05-09T07:53:15.999Z</time>
      </trkpt>
      <trkpt lat="43.83426" lon="4.20634">
        <ele>191</ele>
        <time>2026-05-09T07:53:16.999Z</time>
      </trkpt>
      <trkpt lat="43.83426" lon="4.20634">
        <ele>191</ele>
        <time>2026-05-09T07:53:17.999Z</time>
      </trkpt>
      <trkpt lat="43.83427" lon="4.20636">
        <ele>190.9</ele>
        <time>2026-05-09T07:53:18.999Z</time>
      </trkpt>
      <trkpt lat="43.83427" lon="4.20638">
        <ele>190.9</ele>
        <time>2026-05-09T07:53:19.999Z</time>
      </trkpt>
      <trkpt lat="43.83427" lon="4.2064">
        <ele>190.7</ele>
        <time>2026-05-09T07:53:20.999Z</time>
      </trkpt>
      <trkpt lat="43.83428" lon="4.20641">
        <ele>190.7</ele>
        <time>2026-05-09T07:53:21.999Z</time>
      </trkpt>
      <trkpt lat="43.83428" lon="4.20642">
        <ele>190.7</ele>
        <time>2026-05-09T07:53:22.999Z</time>
      </trkpt>
      <trkpt lat="43.83428" lon="4.20642">
        <ele>190.8</ele>
        <time>2026-05-09T07:53:23.999Z</time>
      </trkpt>
      <trkpt lat="43.83428" lon="4.20644">
        <ele>191</ele>
        <time>2026-05-09T07:53:24.999Z</time>
      </trkpt>
      <trkpt lat="43.83428" lon="4.20645">
        <ele>190.8</ele>
        <time>2026-05-09T07:53:25.999Z</time>
      </trkpt>
      <trkpt lat="43.83428" lon="4.20647">
        <ele>191.1</ele>
        <time>2026-05-09T07:53:26.999Z</time>
      </trkpt>
      <trkpt lat="43.83429" lon="4.20649">
        <ele>191.2</ele>
        <time>2026-05-09T07:53:27.999Z</time>
      </trkpt>
      <trkpt lat="43.83429" lon="4.2065">
        <ele>191.3</ele>
        <time>2026-05-09T07:53:28.999Z</time>
      </trkpt>
      <trkpt lat="43.8343" lon="4.20651">
        <ele>191.3</ele>
        <time>2026-05-09T07:53:29.999Z</time>
      </trkpt>
      <trkpt lat="43.83431" lon="4.20652">
        <ele>190.8</ele>
        <time>2026-05-09T07:53:30.999Z</time>
      </trkpt>
      <trkpt lat="43.83432" lon="4.20653">
        <ele>190.7</ele>
        <time>2026-05-09T07:53:31.999Z</time>
      </trkpt>
      <trkpt lat="43.83433" lon="4.20653">
        <ele>190.7</ele>
        <time>2026-05-09T07:53:32.999Z</time>
      </trkpt>
      <trkpt lat="43.83434" lon="4.20654">
        <ele>190.7</ele>
        <time>2026-05-09T07:53:33.999Z</time>
      </trkpt>
      <trkpt lat="43.83435" lon="4.20655">
        <ele>190.8</ele>
        <time>2026-05-09T07:53:34.999Z</time>
      </trkpt>
      <trkpt lat="43.83435" lon="4.20656">
        <ele>190.8</ele>
        <time>2026-05-09T07:53:35.999Z</time>
      </trkpt>
      <trkpt lat="43.83436" lon="4.20657">
        <ele>190.7</ele>
        <time>2026-05-09T07:53:36.999Z</time>
      </trkpt>
      <trkpt lat="43.83436" lon="4.20658">
        <ele>190.8</ele>
        <time>2026-05-09T07:53:37.999Z</time>
      </trkpt>
      <trkpt lat="43.83437" lon="4.20659">
        <ele>191</ele>
        <time>2026-05-09T07:53:38.999Z</time>
      </trkpt>
      <trkpt lat="43.83437" lon="4.2066">
        <ele>191</ele>
        <time>2026-05-09T07:53:39.999Z</time>
      </trkpt>
      <trkpt lat="43.83437" lon="4.2066">
        <ele>191.2</ele>
        <time>2026-05-09T07:53:40.999Z</time>
      </trkpt>
      <trkpt lat="43.83437" lon="4.20661">
        <ele>191.5</ele>
        <time>2026-05-09T07:53:41.999Z</time>
      </trkpt>
      <trkpt lat="43.83438" lon="4.20662">
        <ele>191.3</ele>
        <time>2026-05-09T07:53:42.999Z</time>
      </trkpt>
      <trkpt lat="43.83438" lon="4.20663">
        <ele>191.3</ele>
        <time>2026-05-09T07:53:43.999Z</time>
      </trkpt>
      <trkpt lat="43.83438" lon="4.20664">
        <ele>191.1</ele>
        <time>2026-05-09T07:53:44.999Z</time>
      </trkpt>
      <trkpt lat="43.83439" lon="4.20666">
        <ele>191.1</ele>
        <time>2026-05-09T07:53:45.999Z</time>
      </trkpt>
      <trkpt lat="43.8344" lon="4.20666">
        <ele>191.1</ele>
        <time>2026-05-09T07:53:46.999Z</time>
      </trkpt>
      <trkpt lat="43.8344" lon="4.20668">
        <ele>191.2</ele>
        <time>2026-05-09T07:53:47.999Z</time>
      </trkpt>
      <trkpt lat="43.8344" lon="4.20669">
        <ele>191.1</ele>
        <time>2026-05-09T07:53:48.999Z</time>
      </trkpt>
      <trkpt lat="43.8344" lon="4.20669">
        <ele>191.1</ele>
        <time>2026-05-09T07:53:49.999Z</time>
      </trkpt>
      <trkpt lat="43.83441" lon="4.2067">
        <ele>191.2</ele>
        <time>2026-05-09T07:53:50.999Z</time>
      </trkpt>
      <trkpt lat="43.83441" lon="4.20671">
        <ele>191.5</ele>
        <time>2026-05-09T07:53:51.999Z</time>
      </trkpt>
      <trkpt lat="43.83441" lon="4.20673">
        <ele>191.4</ele>
        <time>2026-05-09T07:53:52.999Z</time>
      </trkpt>
      <trkpt lat="43.83441" lon="4.20675">
        <ele>191.6</ele>
        <time>2026-05-09T07:53:53.999Z</time>
      </trkpt>
      <trkpt lat="43.83441" lon="4.20678">
        <ele>191.9</ele>
        <time>2026-05-09T07:53:54.999Z</time>
      </trkpt>
      <trkpt lat="43.83441" lon="4.20679">
        <ele>191.8</ele>
        <time>2026-05-09T07:53:55.999Z</time>
      </trkpt>
      <trkpt lat="43.83441" lon="4.2068">
        <ele>191.8</ele>
        <time>2026-05-09T07:53:56.999Z</time>
      </trkpt>
      <trkpt lat="43.83441" lon="4.20681">
        <ele>191.8</ele>
        <time>2026-05-09T07:53:57.999Z</time>
      </trkpt>
      <trkpt lat="43.83442" lon="4.20682">
        <ele>191.5</ele>
        <time>2026-05-09T07:53:58.999Z</time>
      </trkpt>
      <trkpt lat="43.83442" lon="4.20683">
        <ele>191.7</ele>
        <time>2026-05-09T07:53:59.999Z</time>
      </trkpt>
      <trkpt lat="43.83443" lon="4.20685">
        <ele>191.7</ele>
        <time>2026-05-09T07:54:00.999Z</time>
      </trkpt>
      <trkpt lat="43.83443" lon="4.20687">
        <ele>191.7</ele>
        <time>2026-05-09T07:54:01.999Z</time>
      </trkpt>
      <trkpt lat="43.83444" lon="4.20688">
        <ele>191.6</ele>
        <time>2026-05-09T07:54:02.999Z</time>
      </trkpt>
      <trkpt lat="43.83445" lon="4.20689">
        <ele>191.3</ele>
        <time>2026-05-09T07:54:03.999Z</time>
      </trkpt>
      <trkpt lat="43.83445" lon="4.2069">
        <ele>191.2</ele>
        <time>2026-05-09T07:54:04.999Z</time>
      </trkpt>
      <trkpt lat="43.83445" lon="4.20691">
        <ele>191.2</ele>
        <time>2026-05-09T07:54:05.999Z</time>
      </trkpt>
      <trkpt lat="43.83445" lon="4.20692">
        <ele>191.2</ele>
        <time>2026-05-09T07:54:06.999Z</time>
      </trkpt>
      <trkpt lat="43.83446" lon="4.20693">
        <ele>191.1</ele>
        <time>2026-05-09T07:54:07.999Z</time>
      </trkpt>
      <trkpt lat="43.83446" lon="4.20695">
        <ele>190.9</ele>
        <time>2026-05-09T07:54:08.999Z</time>
      </trkpt>
      <trkpt lat="43.83447" lon="4.20696">
        <ele>190.9</ele>
        <time>2026-05-09T07:54:09.999Z</time>
      </trkpt>
      <trkpt lat="43.83447" lon="4.20698">
        <ele>191.1</ele>
        <time>2026-05-09T07:54:10.999Z</time>
      </trkpt>
      <trkpt lat="43.83447" lon="4.20699">
        <ele>191.2</ele>
        <time>2026-05-09T07:54:11.999Z</time>
      </trkpt>
      <trkpt lat="43.83447" lon="4.207">
        <ele>191.2</ele>
        <time>2026-05-09T07:54:12.999Z</time>
      </trkpt>
      <trkpt lat="43.83448" lon="4.20701">
        <ele>191.2</ele>
        <time>2026-05-09T07:54:13.999Z</time>
      </trkpt>
      <trkpt lat="43.83448" lon="4.20703">
        <ele>191.4</ele>
        <time>2026-05-09T07:54:14.999Z</time>
      </trkpt>
      <trkpt lat="43.83449" lon="4.20703">
        <ele>191.3</ele>
        <time>2026-05-09T07:54:15.999Z</time>
      </trkpt>
      <trkpt lat="43.83449" lon="4.20703">
        <ele>191.4</ele>
        <time>2026-05-09T07:54:16.999Z</time>
      </trkpt>
      <trkpt lat="43.8345" lon="4.20704">
        <ele>191.4</ele>
        <time>2026-05-09T07:54:17.999Z</time>
      </trkpt>
      <trkpt lat="43.83451" lon="4.20705">
        <ele>191.4</ele>
        <time>2026-05-09T07:54:18.999Z</time>
      </trkpt>
      <trkpt lat="43.83451" lon="4.20707">
        <ele>191.2</ele>
        <time>2026-05-09T07:54:19.999Z</time>
      </trkpt>
      <trkpt lat="43.83452" lon="4.20708">
        <ele>191</ele>
        <time>2026-05-09T07:54:20.999Z</time>
      </trkpt>
      <trkpt lat="43.83452" lon="4.20709">
        <ele>191.3</ele>
        <time>2026-05-09T07:54:21.999Z</time>
      </trkpt>
      <trkpt lat="43.83453" lon="4.20709">
        <ele>191.3</ele>
        <time>2026-05-09T07:54:22.999Z</time>
      </trkpt>
      <trkpt lat="43.83454" lon="4.2071">
        <ele>191.4</ele>
        <time>2026-05-09T07:54:23.999Z</time>
      </trkpt>
      <trkpt lat="43.83454" lon="4.20711">
        <ele>191.5</ele>
        <time>2026-05-09T07:54:24.999Z</time>
      </trkpt>
      <trkpt lat="43.83454" lon="4.20712">
        <ele>191.7</ele>
        <time>2026-05-09T07:54:25.999Z</time>
      </trkpt>
      <trkpt lat="43.83456" lon="4.20713">
        <ele>191.6</ele>
        <time>2026-05-09T07:54:26.999Z</time>
      </trkpt>
      <trkpt lat="43.83457" lon="4.20714">
        <ele>191.5</ele>
        <time>2026-05-09T07:54:27.999Z</time>
      </trkpt>
      <trkpt lat="43.83457" lon="4.20715">
        <ele>191.1</ele>
        <time>2026-05-09T07:54:28.999Z</time>
      </trkpt>
      <trkpt lat="43.83458" lon="4.20716">
        <ele>191.2</ele>
        <time>2026-05-09T07:54:29.999Z</time>
      </trkpt>
      <trkpt lat="43.83459" lon="4.20717">
        <ele>191</ele>
        <time>2026-05-09T07:54:30.999Z</time>
      </trkpt>
      <trkpt lat="43.8346" lon="4.20718">
        <ele>190.7</ele>
        <time>2026-05-09T07:54:31.999Z</time>
      </trkpt>
      <trkpt lat="43.83461" lon="4.20719">
        <ele>190.7</ele>
        <time>2026-05-09T07:54:32.999Z</time>
      </trkpt>
      <trkpt lat="43.83461" lon="4.20719">
        <ele>190.3</ele>
        <time>2026-05-09T07:54:33.999Z</time>
      </trkpt>
      <trkpt lat="43.83462" lon="4.2072">
        <ele>190.4</ele>
        <time>2026-05-09T07:54:34.999Z</time>
      </trkpt>
      <trkpt lat="43.83462" lon="4.20721">
        <ele>190.3</ele>
        <time>2026-05-09T07:54:35.999Z</time>
      </trkpt>
      <trkpt lat="43.83462" lon="4.20721">
        <ele>189.7</ele>
        <time>2026-05-09T07:54:36.999Z</time>
      </trkpt>
      <trkpt lat="43.83463" lon="4.20722">
        <ele>189.5</ele>
        <time>2026-05-09T07:54:37.999Z</time>
      </trkpt>
      <trkpt lat="43.83464" lon="4.20721">
        <ele>189.4</ele>
        <time>2026-05-09T07:54:38.999Z</time>
      </trkpt>
      <trkpt lat="43.83465" lon="4.20722">
        <ele>189.1</ele>
        <time>2026-05-09T07:54:39.999Z</time>
      </trkpt>
      <trkpt lat="43.83465" lon="4.20722">
        <ele>189</ele>
        <time>2026-05-09T07:54:40.999Z</time>
      </trkpt>
      <trkpt lat="43.83466" lon="4.20722">
        <ele>189.2</ele>
        <time>2026-05-09T07:54:41.999Z</time>
      </trkpt>
      <trkpt lat="43.83466" lon="4.20723">
        <ele>189.4</ele>
        <time>2026-05-09T07:54:43.000Z</time>
      </trkpt>
      <trkpt lat="43.83467" lon="4.20722">
        <ele>189.6</ele>
        <time>2026-05-09T07:54:44.000Z</time>
      </trkpt>
      <trkpt lat="43.83467" lon="4.20723">
        <ele>189.9</ele>
        <time>2026-05-09T07:54:45.000Z</time>
      </trkpt>
      <trkpt lat="43.83468" lon="4.20723">
        <ele>190</ele>
        <time>2026-05-09T07:54:46.000Z</time>
      </trkpt>
      <trkpt lat="43.83469" lon="4.20724">
        <ele>190.1</ele>
        <time>2026-05-09T07:54:47.000Z</time>
      </trkpt>
      <trkpt lat="43.8347" lon="4.20725">
        <ele>190.3</ele>
        <time>2026-05-09T07:54:48.000Z</time>
      </trkpt>
      <trkpt lat="43.83471" lon="4.20726">
        <ele>191.1</ele>
        <time>2026-05-09T07:54:49.000Z</time>
      </trkpt>
      <trkpt lat="43.83471" lon="4.20728">
        <ele>191.2</ele>
        <time>2026-05-09T07:54:50.000Z</time>
      </trkpt>
      <trkpt lat="43.83472" lon="4.20729">
        <ele>191.1</ele>
        <time>2026-05-09T07:54:51.000Z</time>
      </trkpt>
      <trkpt lat="43.83473" lon="4.2073">
        <ele>191.1</ele>
        <time>2026-05-09T07:54:52.000Z</time>
      </trkpt>
      <trkpt lat="43.83473" lon="4.20731">
        <ele>190.7</ele>
        <time>2026-05-09T07:54:53.000Z</time>
      </trkpt>
      <trkpt lat="43.83474" lon="4.20731">
        <ele>190.5</ele>
        <time>2026-05-09T07:54:54.000Z</time>
      </trkpt>
      <trkpt lat="43.83475" lon="4.20732">
        <ele>190.4</ele>
        <time>2026-05-09T07:54:55.000Z</time>
      </trkpt>
      <trkpt lat="43.83476" lon="4.20733">
        <ele>190.2</ele>
        <time>2026-05-09T07:54:56.000Z</time>
      </trkpt>
      <trkpt lat="43.83476" lon="4.20734">
        <ele>189.9</ele>
        <time>2026-05-09T07:54:57.000Z</time>
      </trkpt>
      <trkpt lat="43.83477" lon="4.20735">
        <ele>190.3</ele>
        <time>2026-05-09T07:54:58.000Z</time>
      </trkpt>
      <trkpt lat="43.83477" lon="4.20737">
        <ele>191</ele>
        <time>2026-05-09T07:54:59.000Z</time>
      </trkpt>
      <trkpt lat="43.83477" lon="4.20738">
        <ele>191.3</ele>
        <time>2026-05-09T07:55:00.000Z</time>
      </trkpt>
      <trkpt lat="43.83478" lon="4.2074">
        <ele>191.5</ele>
        <time>2026-05-09T07:55:01.000Z</time>
      </trkpt>
      <trkpt lat="43.83478" lon="4.20742">
        <ele>191.7</ele>
        <time>2026-05-09T07:55:02.000Z</time>
      </trkpt>
      <trkpt lat="43.83478" lon="4.20743">
        <ele>191.9</ele>
        <time>2026-05-09T07:55:03.000Z</time>
      </trkpt>
      <trkpt lat="43.83479" lon="4.20744">
        <ele>191.7</ele>
        <time>2026-05-09T07:55:04.000Z</time>
      </trkpt>
      <trkpt lat="43.83479" lon="4.20744">
        <ele>191.5</ele>
        <time>2026-05-09T07:55:05.000Z</time>
      </trkpt>
      <trkpt lat="43.83479" lon="4.20743">
        <ele>191.3</ele>
        <time>2026-05-09T07:55:06.000Z</time>
      </trkpt>
      <trkpt lat="43.83478" lon="4.20743">
        <ele>191.7</ele>
        <time>2026-05-09T07:55:07.000Z</time>
      </trkpt>
      <trkpt lat="43.83479" lon="4.20744">
        <ele>191.9</ele>
        <time>2026-05-09T07:55:08.000Z</time>
      </trkpt>
      <trkpt lat="43.83479" lon="4.20744">
        <ele>192.2</ele>
        <time>2026-05-09T07:55:09.000Z</time>
      </trkpt>
      <trkpt lat="43.83479" lon="4.20743">
        <ele>192.2</ele>
        <time>2026-05-09T07:55:10.000Z</time>
      </trkpt>
      <trkpt lat="43.8348" lon="4.20743">
        <ele>192.4</ele>
        <time>2026-05-09T07:55:11.000Z</time>
      </trkpt>
      <trkpt lat="43.8348" lon="4.20743">
        <ele>192.6</ele>
        <time>2026-05-09T07:55:12.000Z</time>
      </trkpt>
      <trkpt lat="43.8348" lon="4.20743">
        <ele>192.7</ele>
        <time>2026-05-09T07:55:13.000Z</time>
      </trkpt>
      <trkpt lat="43.8348" lon="4.20743">
        <ele>192.9</ele>
        <time>2026-05-09T07:55:14.000Z</time>
      </trkpt>
      <trkpt lat="43.8348" lon="4.20743">
        <ele>192.9</ele>
        <time>2026-05-09T07:55:15.000Z</time>
      </trkpt>
      <trkpt lat="43.8348" lon="4.20743">
        <ele>192.8</ele>
        <time>2026-05-09T07:55:16.000Z</time>
      </trkpt>
      <trkpt lat="43.8348" lon="4.20743">
        <ele>193</ele>
        <time>2026-05-09T07:55:17.000Z</time>
      </trkpt>
      <trkpt lat="43.8348" lon="4.20742">
        <ele>193.1</ele>
        <time>2026-05-09T07:55:18.000Z</time>
      </trkpt>
      <trkpt lat="43.8348" lon="4.20742">
        <ele>192.7</ele>
        <time>2026-05-09T07:55:19.000Z</time>
      </trkpt>
      <trkpt lat="43.8348" lon="4.20742">
        <ele>192.5</ele>
        <time>2026-05-09T07:55:20.000Z</time>
      </trkpt>
      <trkpt lat="43.8348" lon="4.20742">
        <ele>192.1</ele>
        <time>2026-05-09T07:55:21.000Z</time>
      </trkpt>
      <trkpt lat="43.8348" lon="4.20742">
        <ele>191.7</ele>
        <time>2026-05-09T07:55:22.000Z</time>
      </trkpt>
      <trkpt lat="43.8348" lon="4.20742">
        <ele>191.4</ele>
        <time>2026-05-09T07:55:23.000Z</time>
      </trkpt>
      <trkpt lat="43.8348" lon="4.20742">
        <ele>191.2</ele>
        <time>2026-05-09T07:55:24.000Z</time>
      </trkpt>
      <trkpt lat="43.8348" lon="4.20742">
        <ele>191.1</ele>
        <time>2026-05-09T07:55:25.000Z</time>
      </trkpt>
      <trkpt lat="43.8348" lon="4.20742">
        <ele>190.9</ele>
        <time>2026-05-09T07:55:26.000Z</time>
      </trkpt>
      <trkpt lat="43.8348" lon="4.20742">
        <ele>190.7</ele>
        <time>2026-05-09T07:55:27.000Z</time>
      </trkpt>
      <trkpt lat="43.8348" lon="4.20741">
        <ele>190.4</ele>
        <time>2026-05-09T07:55:28.000Z</time>
      </trkpt>
      <trkpt lat="43.83479" lon="4.20741">
        <ele>190</ele>
        <time>2026-05-09T07:55:29.000Z</time>
      </trkpt>
      <trkpt lat="43.83479" lon="4.20741">
        <ele>189.7</ele>
        <time>2026-05-09T07:55:30.000Z</time>
      </trkpt>
      <trkpt lat="43.83479" lon="4.20741">
        <ele>189.7</ele>
        <time>2026-05-09T07:55:31.000Z</time>
      </trkpt>
      <trkpt lat="43.83479" lon="4.20741">
        <ele>189.6</ele>
        <time>2026-05-09T07:55:32.000Z</time>
      </trkpt>
      <trkpt lat="43.83479" lon="4.20741">
        <ele>189.6</ele>
        <time>2026-05-09T07:55:33.000Z</time>
      </trkpt>
      <trkpt lat="43.83479" lon="4.20741">
        <ele>189.8</ele>
        <time>2026-05-09T07:55:34.000Z</time>
      </trkpt>
      <trkpt lat="43.83479" lon="4.20741">
        <ele>189.8</ele>
        <time>2026-05-09T07:55:35.000Z</time>
      </trkpt>
      <trkpt lat="43.83479" lon="4.20741">
        <ele>190</ele>
        <time>2026-05-09T07:55:36.000Z</time>
      </trkpt>
      <trkpt lat="43.83479" lon="4.20741">
        <ele>190</ele>
        <time>2026-05-09T07:55:37.000Z</time>
      </trkpt>
      <trkpt lat="43.83479" lon="4.20741">
        <ele>190.1</ele>
        <time>2026-05-09T07:55:38.000Z</time>
      </trkpt>
      <trkpt lat="43.83479" lon="4.20741">
        <ele>190.1</ele>
        <time>2026-05-09T07:55:39.000Z</time>
      </trkpt>
      <trkpt lat="43.83479" lon="4.20741">
        <ele>190.1</ele>
        <time>2026-05-09T07:55:40.000Z</time>
      </trkpt>
      <trkpt lat="43.83479" lon="4.20741">
        <ele>190.1</ele>
        <time>2026-05-09T07:55:41.000Z</time>
      </trkpt>
      <trkpt lat="43.83479" lon="4.20741">
        <ele>190.1</ele>
        <time>2026-05-09T07:55:42.000Z</time>
      </trkpt>
      <trkpt lat="43.83479" lon="4.2074">
        <ele>189.9</ele>
        <time>2026-05-09T07:55:43.000Z</time>
      </trkpt>
      <trkpt lat="43.83479" lon="4.2074">
        <ele>189.9</ele>
        <time>2026-05-09T07:55:44.000Z</time>
      </trkpt>
      <trkpt lat="43.83479" lon="4.2074">
        <ele>190</ele>
        <time>2026-05-09T07:55:45.000Z</time>
      </trkpt>
      <trkpt lat="43.83479" lon="4.2074">
        <ele>190.1</ele>
        <time>2026-05-09T07:55:46.000Z</time>
      </trkpt>
      <trkpt lat="43.83479" lon="4.2074">
        <ele>190.1</ele>
        <time>2026-05-09T07:55:47.000Z</time>
      </trkpt>
      <trkpt lat="43.83479" lon="4.2074">
        <ele>190.1</ele>
        <time>2026-05-09T07:55:48.000Z</time>
      </trkpt>
      <trkpt lat="43.83479" lon="4.2074">
        <ele>190.3</ele>
        <time>2026-05-09T07:55:49.000Z</time>
      </trkpt>
      <trkpt lat="43.83479" lon="4.2074">
        <ele>190.3</ele>
        <time>2026-05-09T07:55:50.000Z</time>
      </trkpt>
      <trkpt lat="43.83479" lon="4.20741">
        <ele>190</ele>
        <time>2026-05-09T07:55:51.000Z</time>
      </trkpt>
      <trkpt lat="43.83479" lon="4.20741">
        <ele>189.9</ele>
        <time>2026-05-09T07:55:52.000Z</time>
      </trkpt>
      <trkpt lat="43.83479" lon="4.20741">
        <ele>190</ele>
        <time>2026-05-09T07:55:53.000Z</time>
      </trkpt>
      <trkpt lat="43.83479" lon="4.20742">
        <ele>190</ele>
        <time>2026-05-09T07:55:54.000Z</time>
      </trkpt>
      <trkpt lat="43.83479" lon="4.20742">
        <ele>190.1</ele>
        <time>2026-05-09T07:55:55.000Z</time>
      </trkpt>
      <trkpt lat="43.8348" lon="4.20743">
        <ele>190.3</ele>
        <time>2026-05-09T07:55:56.000Z</time>
      </trkpt>
      <trkpt lat="43.8348" lon="4.20743">
        <ele>190.7</ele>
        <time>2026-05-09T07:55:57.000Z</time>
      </trkpt>
      <trkpt lat="43.8348" lon="4.20743">
        <ele>190.8</ele>
        <time>2026-05-09T07:55:58.000Z</time>
      </trkpt>
      <trkpt lat="43.83479" lon="4.20745">
        <ele>191.1</ele>
        <time>2026-05-09T07:55:59.000Z</time>
      </trkpt>
      <trkpt lat="43.83479" lon="4.20745">
        <ele>191.5</ele>
        <time>2026-05-09T07:56:00.000Z</time>
      </trkpt>
      <trkpt lat="43.83478" lon="4.20745">
        <ele>191.7</ele>
        <time>2026-05-09T07:56:01.000Z</time>
      </trkpt>
      <trkpt lat="43.83478" lon="4.20745">
        <ele>191.7</ele>
        <time>2026-05-09T07:56:02.000Z</time>
      </trkpt>
      <trkpt lat="43.83478" lon="4.20745">
        <ele>191.9</ele>
        <time>2026-05-09T07:56:03.000Z</time>
      </trkpt>
      <trkpt lat="43.83479" lon="4.20746">
        <ele>192</ele>
        <time>2026-05-09T07:56:04.000Z</time>
      </trkpt>
      <trkpt lat="43.83479" lon="4.20746">
        <ele>191.7</ele>
        <time>2026-05-09T07:56:05.000Z</time>
      </trkpt>
      <trkpt lat="43.83479" lon="4.20746">
        <ele>191.5</ele>
        <time>2026-05-09T07:56:06.000Z</time>
      </trkpt>
      <trkpt lat="43.83479" lon="4.20746">
        <ele>191.4</ele>
        <time>2026-05-09T07:56:07.000Z</time>
      </trkpt>
      <trkpt lat="43.83479" lon="4.20746">
        <ele>191.3</ele>
        <time>2026-05-09T07:56:08.000Z</time>
      </trkpt>
      <trkpt lat="43.83479" lon="4.20746">
        <ele>191.3</ele>
        <time>2026-05-09T07:56:09.000Z</time>
      </trkpt>
      <trkpt lat="43.83479" lon="4.20746">
        <ele>191.3</ele>
        <time>2026-05-09T07:56:10.000Z</time>
      </trkpt>
      <trkpt lat="43.83479" lon="4.20746">
        <ele>191.4</ele>
        <time>2026-05-09T07:56:11.000Z</time>
      </trkpt>
      <trkpt lat="43.83479" lon="4.20746">
        <ele>191.5</ele>
        <time>2026-05-09T07:56:12.000Z</time>
      </trkpt>
      <trkpt lat="43.8348" lon="4.20747">
        <ele>191.8</ele>
        <time>2026-05-09T07:56:13.000Z</time>
      </trkpt>
      <trkpt lat="43.83481" lon="4.20747">
        <ele>191.8</ele>
        <time>2026-05-09T07:56:14.000Z</time>
      </trkpt>
      <trkpt lat="43.83482" lon="4.20748">
        <ele>191.7</ele>
        <time>2026-05-09T07:56:15.000Z</time>
      </trkpt>
      <trkpt lat="43.83483" lon="4.20749">
        <ele>191.7</ele>
        <time>2026-05-09T07:56:16.000Z</time>
      </trkpt>
      <trkpt lat="43.83484" lon="4.2075">
        <ele>191.4</ele>
        <time>2026-05-09T07:56:18.000Z</time>
      </trkpt>
      <trkpt lat="43.83485" lon="4.20751">
        <ele>191.3</ele>
        <time>2026-05-09T07:56:19.000Z</time>
      </trkpt>
      <trkpt lat="43.83486" lon="4.20752">
        <ele>191</ele>
        <time>2026-05-09T07:56:20.000Z</time>
      </trkpt>
      <trkpt lat="43.83486" lon="4.20752">
        <ele>191.3</ele>
        <time>2026-05-09T07:56:21.000Z</time>
      </trkpt>
      <trkpt lat="43.83487" lon="4.20753">
        <ele>191.3</ele>
        <time>2026-05-09T07:56:22.000Z</time>
      </trkpt>
      <trkpt lat="43.83489" lon="4.20753">
        <ele>191.5</ele>
        <time>2026-05-09T07:56:23.000Z</time>
      </trkpt>
      <trkpt lat="43.8349" lon="4.20753">
        <ele>191.9</ele>
        <time>2026-05-09T07:56:24.000Z</time>
      </trkpt>
      <trkpt lat="43.83491" lon="4.20753">
        <ele>192</ele>
        <time>2026-05-09T07:56:25.000Z</time>
      </trkpt>
      <trkpt lat="43.83492" lon="4.20753">
        <ele>191.9</ele>
        <time>2026-05-09T07:56:26.000Z</time>
      </trkpt>
      <trkpt lat="43.83493" lon="4.20753">
        <ele>191.8</ele>
        <time>2026-05-09T07:56:27.000Z</time>
      </trkpt>
      <trkpt lat="43.83494" lon="4.20753">
        <ele>191.4</ele>
        <time>2026-05-09T07:56:28.000Z</time>
      </trkpt>
      <trkpt lat="43.83494" lon="4.20754">
        <ele>191.2</ele>
        <time>2026-05-09T07:56:29.000Z</time>
      </trkpt>
      <trkpt lat="43.83495" lon="4.20754">
        <ele>191.1</ele>
        <time>2026-05-09T07:56:30.000Z</time>
      </trkpt>
      <trkpt lat="43.83496" lon="4.20755">
        <ele>191.1</ele>
        <time>2026-05-09T07:56:31.000Z</time>
      </trkpt>
      <trkpt lat="43.83496" lon="4.20755">
        <ele>191.3</ele>
        <time>2026-05-09T07:56:32.000Z</time>
      </trkpt>
      <trkpt lat="43.83497" lon="4.20756">
        <ele>191.3</ele>
        <time>2026-05-09T07:56:33.000Z</time>
      </trkpt>
      <trkpt lat="43.83498" lon="4.20757">
        <ele>191.3</ele>
        <time>2026-05-09T07:56:34.000Z</time>
      </trkpt>
      <trkpt lat="43.83499" lon="4.20758">
        <ele>191.4</ele>
        <time>2026-05-09T07:56:35.000Z</time>
      </trkpt>
      <trkpt lat="43.835" lon="4.20759">
        <ele>191.4</ele>
        <time>2026-05-09T07:56:36.000Z</time>
      </trkpt>
      <trkpt lat="43.83501" lon="4.20759">
        <ele>191.6</ele>
        <time>2026-05-09T07:56:37.000Z</time>
      </trkpt>
      <trkpt lat="43.83502" lon="4.20759">
        <ele>191.6</ele>
        <time>2026-05-09T07:56:38.000Z</time>
      </trkpt>
      <trkpt lat="43.83503" lon="4.20759">
        <ele>191.2</ele>
        <time>2026-05-09T07:56:39.000Z</time>
      </trkpt>
      <trkpt lat="43.83504" lon="4.2076">
        <ele>191.1</ele>
        <time>2026-05-09T07:56:40.000Z</time>
      </trkpt>
      <trkpt lat="43.83505" lon="4.20761">
        <ele>191.4</ele>
        <time>2026-05-09T07:56:41.000Z</time>
      </trkpt>
      <trkpt lat="43.83506" lon="4.20763">
        <ele>191.7</ele>
        <time>2026-05-09T07:56:42.000Z</time>
      </trkpt>
      <trkpt lat="43.83507" lon="4.20764">
        <ele>192.1</ele>
        <time>2026-05-09T07:56:43.000Z</time>
      </trkpt>
      <trkpt lat="43.83508" lon="4.20764">
        <ele>192.6</ele>
        <time>2026-05-09T07:56:44.000Z</time>
      </trkpt>
      <trkpt lat="43.83508" lon="4.20763">
        <ele>193.1</ele>
        <time>2026-05-09T07:56:45.000Z</time>
      </trkpt>
      <trkpt lat="43.83509" lon="4.20762">
        <ele>193.3</ele>
        <time>2026-05-09T07:56:46.000Z</time>
      </trkpt>
      <trkpt lat="43.83509" lon="4.20762">
        <ele>193.6</ele>
        <time>2026-05-09T07:56:47.000Z</time>
      </trkpt>
      <trkpt lat="43.83511" lon="4.20763">
        <ele>193.2</ele>
        <time>2026-05-09T07:56:48.000Z</time>
      </trkpt>
      <trkpt lat="43.83512" lon="4.20763">
        <ele>192.9</ele>
        <time>2026-05-09T07:56:49.000Z</time>
      </trkpt>
      <trkpt lat="43.83513" lon="4.20765">
        <ele>192.8</ele>
        <time>2026-05-09T07:56:50.000Z</time>
      </trkpt>
      <trkpt lat="43.83514" lon="4.20765">
        <ele>192.9</ele>
        <time>2026-05-09T07:56:51.000Z</time>
      </trkpt>
      <trkpt lat="43.83514" lon="4.20766">
        <ele>193.1</ele>
        <time>2026-05-09T07:56:52.000Z</time>
      </trkpt>
      <trkpt lat="43.83515" lon="4.20766">
        <ele>193.7</ele>
        <time>2026-05-09T07:56:53.000Z</time>
      </trkpt>
      <trkpt lat="43.83516" lon="4.20765">
        <ele>193.9</ele>
        <time>2026-05-09T07:56:54.000Z</time>
      </trkpt>
      <trkpt lat="43.83516" lon="4.20765">
        <ele>194.1</ele>
        <time>2026-05-09T07:56:55.000Z</time>
      </trkpt>
      <trkpt lat="43.83517" lon="4.20765">
        <ele>194.1</ele>
        <time>2026-05-09T07:56:56.000Z</time>
      </trkpt>
      <trkpt lat="43.83518" lon="4.20765">
        <ele>193.8</ele>
        <time>2026-05-09T07:56:57.000Z</time>
      </trkpt>
      <trkpt lat="43.83518" lon="4.20765">
        <ele>193.7</ele>
        <time>2026-05-09T07:56:58.000Z</time>
      </trkpt>
      <trkpt lat="43.83519" lon="4.20765">
        <ele>193.3</ele>
        <time>2026-05-09T07:56:59.000Z</time>
      </trkpt>
      <trkpt lat="43.8352" lon="4.20766">
        <ele>193.4</ele>
        <time>2026-05-09T07:57:00.000Z</time>
      </trkpt>
      <trkpt lat="43.83521" lon="4.20766">
        <ele>193.9</ele>
        <time>2026-05-09T07:57:01.000Z</time>
      </trkpt>
      <trkpt lat="43.83522" lon="4.20767">
        <ele>195</ele>
        <time>2026-05-09T07:57:02.000Z</time>
      </trkpt>
      <trkpt lat="43.83523" lon="4.20768">
        <ele>195.5</ele>
        <time>2026-05-09T07:57:03.000Z</time>
      </trkpt>
      <trkpt lat="43.83523" lon="4.20768">
        <ele>195.7</ele>
        <time>2026-05-09T07:57:04.000Z</time>
      </trkpt>
      <trkpt lat="43.83524" lon="4.20768">
        <ele>196.4</ele>
        <time>2026-05-09T07:57:05.000Z</time>
      </trkpt>
      <trkpt lat="43.83524" lon="4.20768">
        <ele>196.5</ele>
        <time>2026-05-09T07:57:06.000Z</time>
      </trkpt>
      <trkpt lat="43.83525" lon="4.20768">
        <ele>196.6</ele>
        <time>2026-05-09T07:57:07.000Z</time>
      </trkpt>
      <trkpt lat="43.83527" lon="4.20768">
        <ele>196.9</ele>
        <time>2026-05-09T07:57:08.000Z</time>
      </trkpt>
      <trkpt lat="43.83528" lon="4.20767">
        <ele>197</ele>
        <time>2026-05-09T07:57:09.000Z</time>
      </trkpt>
      <trkpt lat="43.83528" lon="4.20767">
        <ele>197.1</ele>
        <time>2026-05-09T07:57:10.000Z</time>
      </trkpt>
      <trkpt lat="43.83528" lon="4.20767">
        <ele>196.7</ele>
        <time>2026-05-09T07:57:11.000Z</time>
      </trkpt>
      <trkpt lat="43.83529" lon="4.20767">
        <ele>196.9</ele>
        <time>2026-05-09T07:57:12.000Z</time>
      </trkpt>
      <trkpt lat="43.83529" lon="4.20767">
        <ele>197</ele>
        <time>2026-05-09T07:57:13.000Z</time>
      </trkpt>
      <trkpt lat="43.83529" lon="4.20767">
        <ele>197.3</ele>
        <time>2026-05-09T07:57:14.000Z</time>
      </trkpt>
      <trkpt lat="43.83529" lon="4.20767">
        <ele>197.8</ele>
        <time>2026-05-09T07:57:15.000Z</time>
      </trkpt>
      <trkpt lat="43.83529" lon="4.20768">
        <ele>198.2</ele>
        <time>2026-05-09T07:57:16.000Z</time>
      </trkpt>
      <trkpt lat="43.83529" lon="4.20768">
        <ele>198.3</ele>
        <time>2026-05-09T07:57:17.000Z</time>
      </trkpt>
      <trkpt lat="43.83529" lon="4.20768">
        <ele>198.5</ele>
        <time>2026-05-09T07:57:18.000Z</time>
      </trkpt>
      <trkpt lat="43.8353" lon="4.20768">
        <ele>198.7</ele>
        <time>2026-05-09T07:57:19.000Z</time>
      </trkpt>
      <trkpt lat="43.8353" lon="4.20768">
        <ele>198.5</ele>
        <time>2026-05-09T07:57:20.000Z</time>
      </trkpt>
      <trkpt lat="43.8353" lon="4.20768">
        <ele>198.3</ele>
        <time>2026-05-09T07:57:21.000Z</time>
      </trkpt>
      <trkpt lat="43.83531" lon="4.20768">
        <ele>198.2</ele>
        <time>2026-05-09T07:57:22.000Z</time>
      </trkpt>
      <trkpt lat="43.83532" lon="4.20769">
        <ele>198.4</ele>
        <time>2026-05-09T07:57:23.000Z</time>
      </trkpt>
      <trkpt lat="43.83533" lon="4.20769">
        <ele>198.3</ele>
        <time>2026-05-09T07:57:24.000Z</time>
      </trkpt>
      <trkpt lat="43.83535" lon="4.20769">
        <ele>198.4</ele>
        <time>2026-05-09T07:57:25.000Z</time>
      </trkpt>
      <trkpt lat="43.83535" lon="4.20769">
        <ele>198.3</ele>
        <time>2026-05-09T07:57:26.000Z</time>
      </trkpt>
      <trkpt lat="43.83537" lon="4.2077">
        <ele>198.2</ele>
        <time>2026-05-09T07:57:27.000Z</time>
      </trkpt>
      <trkpt lat="43.83538" lon="4.2077">
        <ele>198.5</ele>
        <time>2026-05-09T07:57:28.000Z</time>
      </trkpt>
      <trkpt lat="43.83538" lon="4.2077">
        <ele>198.4</ele>
        <time>2026-05-09T07:57:29.000Z</time>
      </trkpt>
      <trkpt lat="43.83539" lon="4.2077">
        <ele>198.4</ele>
        <time>2026-05-09T07:57:30.000Z</time>
      </trkpt>
      <trkpt lat="43.83539" lon="4.2077">
        <ele>198.5</ele>
        <time>2026-05-09T07:57:31.000Z</time>
      </trkpt>
      <trkpt lat="43.8354" lon="4.2077">
        <ele>198.5</ele>
        <time>2026-05-09T07:57:32.000Z</time>
      </trkpt>
      <trkpt lat="43.83541" lon="4.20769">
        <ele>198.5</ele>
        <time>2026-05-09T07:57:33.000Z</time>
      </trkpt>
      <trkpt lat="43.83542" lon="4.20769">
        <ele>198.2</ele>
        <time>2026-05-09T07:57:34.000Z</time>
      </trkpt>
      <trkpt lat="43.83543" lon="4.20769">
        <ele>198.2</ele>
        <time>2026-05-09T07:57:35.000Z</time>
      </trkpt>
      <trkpt lat="43.83544" lon="4.20769">
        <ele>198.3</ele>
        <time>2026-05-09T07:57:36.000Z</time>
      </trkpt>
      <trkpt lat="43.83545" lon="4.20769">
        <ele>198.6</ele>
        <time>2026-05-09T07:57:37.000Z</time>
      </trkpt>
      <trkpt lat="43.83545" lon="4.20769">
        <ele>198.6</ele>
        <time>2026-05-09T07:57:38.000Z</time>
      </trkpt>
      <trkpt lat="43.83546" lon="4.2077">
        <ele>198.7</ele>
        <time>2026-05-09T07:57:39.000Z</time>
      </trkpt>
      <trkpt lat="43.83548" lon="4.2077">
        <ele>198.4</ele>
        <time>2026-05-09T07:57:40.000Z</time>
      </trkpt>
      <trkpt lat="43.83549" lon="4.2077">
        <ele>198.4</ele>
        <time>2026-05-09T07:57:41.000Z</time>
      </trkpt>
      <trkpt lat="43.8355" lon="4.2077">
        <ele>198.5</ele>
        <time>2026-05-09T07:57:42.000Z</time>
      </trkpt>
      <trkpt lat="43.83551" lon="4.2077">
        <ele>198.4</ele>
        <time>2026-05-09T07:57:43.000Z</time>
      </trkpt>
      <trkpt lat="43.83552" lon="4.20771">
        <ele>198.2</ele>
        <time>2026-05-09T07:57:44.000Z</time>
      </trkpt>
      <trkpt lat="43.83553" lon="4.20771">
        <ele>198.3</ele>
        <time>2026-05-09T07:57:45.000Z</time>
      </trkpt>
      <trkpt lat="43.83554" lon="4.20771">
        <ele>198.5</ele>
        <time>2026-05-09T07:57:46.000Z</time>
      </trkpt>
      <trkpt lat="43.83555" lon="4.20771">
        <ele>198.6</ele>
        <time>2026-05-09T07:57:47.000Z</time>
      </trkpt>
      <trkpt lat="43.83555" lon="4.20771">
        <ele>199.3</ele>
        <time>2026-05-09T07:57:48.000Z</time>
      </trkpt>
      <trkpt lat="43.83556" lon="4.2077">
        <ele>199.4</ele>
        <time>2026-05-09T07:57:49.000Z</time>
      </trkpt>
      <trkpt lat="43.83557" lon="4.2077">
        <ele>199.3</ele>
        <time>2026-05-09T07:57:50.000Z</time>
      </trkpt>
      <trkpt lat="43.83558" lon="4.2077">
        <ele>199.2</ele>
        <time>2026-05-09T07:57:51.000Z</time>
      </trkpt>
      <trkpt lat="43.83559" lon="4.2077">
        <ele>199.2</ele>
        <time>2026-05-09T07:57:52.000Z</time>
      </trkpt>
      <trkpt lat="43.83559" lon="4.2077">
        <ele>199.1</ele>
        <time>2026-05-09T07:57:53.000Z</time>
      </trkpt>
      <trkpt lat="43.83561" lon="4.2077">
        <ele>199.1</ele>
        <time>2026-05-09T07:57:54.000Z</time>
      </trkpt>
      <trkpt lat="43.83561" lon="4.20769">
        <ele>198.7</ele>
        <time>2026-05-09T07:57:55.000Z</time>
      </trkpt>
      <trkpt lat="43.83562" lon="4.20768">
        <ele>198.6</ele>
        <time>2026-05-09T07:57:56.000Z</time>
      </trkpt>
      <trkpt lat="43.83563" lon="4.20767">
        <ele>198.8</ele>
        <time>2026-05-09T07:57:57.000Z</time>
      </trkpt>
      <trkpt lat="43.83563" lon="4.20766">
        <ele>198.8</ele>
        <time>2026-05-09T07:57:58.000Z</time>
      </trkpt>
      <trkpt lat="43.83564" lon="4.20765">
        <ele>198.9</ele>
        <time>2026-05-09T07:57:59.000Z</time>
      </trkpt>
      <trkpt lat="43.83565" lon="4.20765">
        <ele>199</ele>
        <time>2026-05-09T07:58:00.000Z</time>
      </trkpt>
      <trkpt lat="43.83566" lon="4.20764">
        <ele>199.3</ele>
        <time>2026-05-09T07:58:01.000Z</time>
      </trkpt>
      <trkpt lat="43.83567" lon="4.20764">
        <ele>199.3</ele>
        <time>2026-05-09T07:58:02.000Z</time>
      </trkpt>
      <trkpt lat="43.83568" lon="4.20763">
        <ele>199</ele>
        <time>2026-05-09T07:58:03.000Z</time>
      </trkpt>
      <trkpt lat="43.83568" lon="4.20763">
        <ele>198.9</ele>
        <time>2026-05-09T07:58:04.000Z</time>
      </trkpt>
      <trkpt lat="43.83569" lon="4.20762">
        <ele>199.2</ele>
        <time>2026-05-09T07:58:05.000Z</time>
      </trkpt>
      <trkpt lat="43.83569" lon="4.20762">
        <ele>200</ele>
        <time>2026-05-09T07:58:06.000Z</time>
      </trkpt>
      <trkpt lat="43.8357" lon="4.20762">
        <ele>200.7</ele>
        <time>2026-05-09T07:58:07.000Z</time>
      </trkpt>
      <trkpt lat="43.8357" lon="4.20762">
        <ele>201</ele>
        <time>2026-05-09T07:58:08.000Z</time>
      </trkpt>
      <trkpt lat="43.83571" lon="4.20761">
        <ele>201.2</ele>
        <time>2026-05-09T07:58:09.000Z</time>
      </trkpt>
      <trkpt lat="43.83572" lon="4.20761">
        <ele>201.2</ele>
        <time>2026-05-09T07:58:10.000Z</time>
      </trkpt>
      <trkpt lat="43.83573" lon="4.20759">
        <ele>201.3</ele>
        <time>2026-05-09T07:58:11.000Z</time>
      </trkpt>
      <trkpt lat="43.83574" lon="4.20759">
        <ele>201.6</ele>
        <time>2026-05-09T07:58:12.000Z</time>
      </trkpt>
      <trkpt lat="43.83575" lon="4.20758">
        <ele>201.6</ele>
        <time>2026-05-09T07:58:13.000Z</time>
      </trkpt>
      <trkpt lat="43.83575" lon="4.20757">
        <ele>201.7</ele>
        <time>2026-05-09T07:58:14.000Z</time>
      </trkpt>
      <trkpt lat="43.83576" lon="4.20756">
        <ele>201.9</ele>
        <time>2026-05-09T07:58:15.000Z</time>
      </trkpt>
      <trkpt lat="43.83576" lon="4.20755">
        <ele>201.9</ele>
        <time>2026-05-09T07:58:16.000Z</time>
      </trkpt>
      <trkpt lat="43.83577" lon="4.20754">
        <ele>201.6</ele>
        <time>2026-05-09T07:58:17.000Z</time>
      </trkpt>
      <trkpt lat="43.83578" lon="4.20752">
        <ele>201.5</ele>
        <time>2026-05-09T07:58:18.000Z</time>
      </trkpt>
      <trkpt lat="43.83579" lon="4.20751">
        <ele>201.3</ele>
        <time>2026-05-09T07:58:19.000Z</time>
      </trkpt>
      <trkpt lat="43.83579" lon="4.2075">
        <ele>201.1</ele>
        <time>2026-05-09T07:58:20.000Z</time>
      </trkpt>
      <trkpt lat="43.83579" lon="4.20748">
        <ele>200.7</ele>
        <time>2026-05-09T07:58:21.000Z</time>
      </trkpt>
      <trkpt lat="43.8358" lon="4.20748">
        <ele>200.4</ele>
        <time>2026-05-09T07:58:22.000Z</time>
      </trkpt>
      <trkpt lat="43.8358" lon="4.20747">
        <ele>200.5</ele>
        <time>2026-05-09T07:58:23.000Z</time>
      </trkpt>
      <trkpt lat="43.83581" lon="4.20747">
        <ele>200.7</ele>
        <time>2026-05-09T07:58:24.000Z</time>
      </trkpt>
      <trkpt lat="43.83582" lon="4.20746">
        <ele>200.9</ele>
        <time>2026-05-09T07:58:25.000Z</time>
      </trkpt>
      <trkpt lat="43.83582" lon="4.20745">
        <ele>201.2</ele>
        <time>2026-05-09T07:58:26.000Z</time>
      </trkpt>
      <trkpt lat="43.83582" lon="4.20744">
        <ele>201.2</ele>
        <time>2026-05-09T07:58:27.000Z</time>
      </trkpt>
      <trkpt lat="43.83582" lon="4.20744">
        <ele>201.6</ele>
        <time>2026-05-09T07:58:28.000Z</time>
      </trkpt>
      <trkpt lat="43.83582" lon="4.20743">
        <ele>202.1</ele>
        <time>2026-05-09T07:58:29.000Z</time>
      </trkpt>
      <trkpt lat="43.83582" lon="4.20742">
        <ele>202.5</ele>
        <time>2026-05-09T07:58:30.000Z</time>
      </trkpt>
      <trkpt lat="43.83582" lon="4.20741">
        <ele>202.9</ele>
        <time>2026-05-09T07:58:31.000Z</time>
      </trkpt>
      <trkpt lat="43.83582" lon="4.2074">
        <ele>203.3</ele>
        <time>2026-05-09T07:58:32.000Z</time>
      </trkpt>
      <trkpt lat="43.83582" lon="4.2074">
        <ele>203.8</ele>
        <time>2026-05-09T07:58:33.000Z</time>
      </trkpt>
      <trkpt lat="43.83583" lon="4.20739">
        <ele>204.1</ele>
        <time>2026-05-09T07:58:34.000Z</time>
      </trkpt>
      <trkpt lat="43.83583" lon="4.20737">
        <ele>204.2</ele>
        <time>2026-05-09T07:58:35.000Z</time>
      </trkpt>
      <trkpt lat="43.83583" lon="4.20735">
        <ele>204.3</ele>
        <time>2026-05-09T07:58:36.000Z</time>
      </trkpt>
      <trkpt lat="43.83583" lon="4.20733">
        <ele>204.7</ele>
        <time>2026-05-09T07:58:37.000Z</time>
      </trkpt>
      <trkpt lat="43.83584" lon="4.20731">
        <ele>204.9</ele>
        <time>2026-05-09T07:58:38.000Z</time>
      </trkpt>
      <trkpt lat="43.83584" lon="4.20729">
        <ele>205.1</ele>
        <time>2026-05-09T07:58:39.000Z</time>
      </trkpt>
      <trkpt lat="43.83584" lon="4.20728">
        <ele>205.2</ele>
        <time>2026-05-09T07:58:40.000Z</time>
      </trkpt>
      <trkpt lat="43.83584" lon="4.20727">
        <ele>205.5</ele>
        <time>2026-05-09T07:58:41.000Z</time>
      </trkpt>
      <trkpt lat="43.83584" lon="4.20726">
        <ele>205.8</ele>
        <time>2026-05-09T07:58:42.000Z</time>
      </trkpt>
      <trkpt lat="43.83583" lon="4.20726">
        <ele>205.8</ele>
        <time>2026-05-09T07:58:43.000Z</time>
      </trkpt>
      <trkpt lat="43.83583" lon="4.20725">
        <ele>205.8</ele>
        <time>2026-05-09T07:58:44.000Z</time>
      </trkpt>
      <trkpt lat="43.83583" lon="4.20725">
        <ele>205.9</ele>
        <time>2026-05-09T07:58:45.000Z</time>
      </trkpt>
      <trkpt lat="43.83583" lon="4.20725">
        <ele>205.7</ele>
        <time>2026-05-09T07:58:46.000Z</time>
      </trkpt>
      <trkpt lat="43.83583" lon="4.20724">
        <ele>205.6</ele>
        <time>2026-05-09T07:58:47.000Z</time>
      </trkpt>
      <trkpt lat="43.83583" lon="4.20724">
        <ele>205.6</ele>
        <time>2026-05-09T07:58:48.000Z</time>
      </trkpt>
      <trkpt lat="43.83583" lon="4.20724">
        <ele>206</ele>
        <time>2026-05-09T07:58:49.000Z</time>
      </trkpt>
      <trkpt lat="43.83583" lon="4.20724">
        <ele>206.1</ele>
        <time>2026-05-09T07:58:50.000Z</time>
      </trkpt>
      <trkpt lat="43.83583" lon="4.20724">
        <ele>206</ele>
        <time>2026-05-09T07:58:51.000Z</time>
      </trkpt>
      <trkpt lat="43.83583" lon="4.20724">
        <ele>206.2</ele>
        <time>2026-05-09T07:58:52.000Z</time>
      </trkpt>
      <trkpt lat="43.83583" lon="4.20724">
        <ele>206.4</ele>
        <time>2026-05-09T07:58:53.000Z</time>
      </trkpt>
      <trkpt lat="43.83583" lon="4.20723">
        <ele>206.8</ele>
        <time>2026-05-09T07:58:54.000Z</time>
      </trkpt>
      <trkpt lat="43.83583" lon="4.20723">
        <ele>206.8</ele>
        <time>2026-05-09T07:58:55.000Z</time>
      </trkpt>
      <trkpt lat="43.83583" lon="4.20723">
        <ele>207.1</ele>
        <time>2026-05-09T07:58:56.000Z</time>
      </trkpt>
      <trkpt lat="43.83583" lon="4.20723">
        <ele>207.2</ele>
        <time>2026-05-09T07:58:57.000Z</time>
      </trkpt>
      <trkpt lat="43.83583" lon="4.20723">
        <ele>207.3</ele>
        <time>2026-05-09T07:58:58.000Z</time>
      </trkpt>
      <trkpt lat="43.83583" lon="4.20723">
        <ele>207.3</ele>
        <time>2026-05-09T07:58:59.000Z</time>
      </trkpt>
      <trkpt lat="43.83584" lon="4.20724">
        <ele>207.2</ele>
        <time>2026-05-09T07:59:00.000Z</time>
      </trkpt>
      <trkpt lat="43.83585" lon="4.20724">
        <ele>207.3</ele>
        <time>2026-05-09T07:59:01.000Z</time>
      </trkpt>
      <trkpt lat="43.83586" lon="4.20725">
        <ele>207.2</ele>
        <time>2026-05-09T07:59:02.000Z</time>
      </trkpt>
      <trkpt lat="43.83587" lon="4.20725">
        <ele>207.4</ele>
        <time>2026-05-09T07:59:03.000Z</time>
      </trkpt>
      <trkpt lat="43.83588" lon="4.20726">
        <ele>207.7</ele>
        <time>2026-05-09T07:59:04.000Z</time>
      </trkpt>
      <trkpt lat="43.83589" lon="4.20726">
        <ele>207.9</ele>
        <time>2026-05-09T07:59:05.000Z</time>
      </trkpt>
      <trkpt lat="43.8359" lon="4.20725">
        <ele>208.2</ele>
        <time>2026-05-09T07:59:06.000Z</time>
      </trkpt>
      <trkpt lat="43.83591" lon="4.20725">
        <ele>208.1</ele>
        <time>2026-05-09T07:59:07.000Z</time>
      </trkpt>
      <trkpt lat="43.83592" lon="4.20726">
        <ele>208.3</ele>
        <time>2026-05-09T07:59:08.000Z</time>
      </trkpt>
      <trkpt lat="43.83592" lon="4.20727">
        <ele>208.2</ele>
        <time>2026-05-09T07:59:09.000Z</time>
      </trkpt>
      <trkpt lat="43.83593" lon="4.20728">
        <ele>208.2</ele>
        <time>2026-05-09T07:59:10.000Z</time>
      </trkpt>
      <trkpt lat="43.83594" lon="4.20729">
        <ele>208.2</ele>
        <time>2026-05-09T07:59:11.000Z</time>
      </trkpt>
      <trkpt lat="43.83595" lon="4.20728">
        <ele>208.2</ele>
        <time>2026-05-09T07:59:12.000Z</time>
      </trkpt>
      <trkpt lat="43.83596" lon="4.20729">
        <ele>208.6</ele>
        <time>2026-05-09T07:59:13.000Z</time>
      </trkpt>
      <trkpt lat="43.83597" lon="4.20728">
        <ele>208.5</ele>
        <time>2026-05-09T07:59:14.000Z</time>
      </trkpt>
      <trkpt lat="43.83598" lon="4.20728">
        <ele>208.1</ele>
        <time>2026-05-09T07:59:15.000Z</time>
      </trkpt>
      <trkpt lat="43.83599" lon="4.20728">
        <ele>208</ele>
        <time>2026-05-09T07:59:16.000Z</time>
      </trkpt>
      <trkpt lat="43.836" lon="4.20728">
        <ele>208.1</ele>
        <time>2026-05-09T07:59:17.000Z</time>
      </trkpt>
      <trkpt lat="43.83601" lon="4.20727">
        <ele>208.1</ele>
        <time>2026-05-09T07:59:18.000Z</time>
      </trkpt>
      <trkpt lat="43.83602" lon="4.20727">
        <ele>208.4</ele>
        <time>2026-05-09T07:59:19.000Z</time>
      </trkpt>
      <trkpt lat="43.83603" lon="4.20727">
        <ele>208.6</ele>
        <time>2026-05-09T07:59:20.000Z</time>
      </trkpt>
      <trkpt lat="43.83604" lon="4.20727">
        <ele>209.1</ele>
        <time>2026-05-09T07:59:21.000Z</time>
      </trkpt>
      <trkpt lat="43.83605" lon="4.20727">
        <ele>209.1</ele>
        <time>2026-05-09T07:59:22.000Z</time>
      </trkpt>
      <trkpt lat="43.83607" lon="4.20727">
        <ele>209.7</ele>
        <time>2026-05-09T07:59:23.000Z</time>
      </trkpt>
      <trkpt lat="43.83607" lon="4.20727">
        <ele>210.2</ele>
        <time>2026-05-09T07:59:24.000Z</time>
      </trkpt>
      <trkpt lat="43.83608" lon="4.20728">
        <ele>210.3</ele>
        <time>2026-05-09T07:59:25.000Z</time>
      </trkpt>
      <trkpt lat="43.83609" lon="4.20728">
        <ele>210.4</ele>
        <time>2026-05-09T07:59:26.000Z</time>
      </trkpt>
      <trkpt lat="43.83609" lon="4.20727">
        <ele>210.5</ele>
        <time>2026-05-09T07:59:27.000Z</time>
      </trkpt>
      <trkpt lat="43.8361" lon="4.20728">
        <ele>210.5</ele>
        <time>2026-05-09T07:59:28.000Z</time>
      </trkpt>
      <trkpt lat="43.83611" lon="4.20728">
        <ele>210.5</ele>
        <time>2026-05-09T07:59:29.000Z</time>
      </trkpt>
      <trkpt lat="43.83612" lon="4.20729">
        <ele>210.7</ele>
        <time>2026-05-09T07:59:30.000Z</time>
      </trkpt>
      <trkpt lat="43.83613" lon="4.2073">
        <ele>210.7</ele>
        <time>2026-05-09T07:59:31.000Z</time>
      </trkpt>
      <trkpt lat="43.83614" lon="4.2073">
        <ele>210.7</ele>
        <time>2026-05-09T07:59:32.000Z</time>
      </trkpt>
      <trkpt lat="43.83614" lon="4.20731">
        <ele>210.7</ele>
        <time>2026-05-09T07:59:33.000Z</time>
      </trkpt>
      <trkpt lat="43.83615" lon="4.20731">
        <ele>210.2</ele>
        <time>2026-05-09T07:59:34.000Z</time>
      </trkpt>
      <trkpt lat="43.83615" lon="4.20731">
        <ele>210.1</ele>
        <time>2026-05-09T07:59:35.000Z</time>
      </trkpt>
      <trkpt lat="43.83616" lon="4.20733">
        <ele>210.4</ele>
        <time>2026-05-09T07:59:36.000Z</time>
      </trkpt>
      <trkpt lat="43.83616" lon="4.20733">
        <ele>210.3</ele>
        <time>2026-05-09T07:59:37.000Z</time>
      </trkpt>
      <trkpt lat="43.83617" lon="4.20733">
        <ele>210.4</ele>
        <time>2026-05-09T07:59:38.000Z</time>
      </trkpt>
      <trkpt lat="43.83617" lon="4.20734">
        <ele>210.3</ele>
        <time>2026-05-09T07:59:39.000Z</time>
      </trkpt>
      <trkpt lat="43.83618" lon="4.20734">
        <ele>210.7</ele>
        <time>2026-05-09T07:59:40.000Z</time>
      </trkpt>
      <trkpt lat="43.83619" lon="4.20735">
        <ele>211.2</ele>
        <time>2026-05-09T07:59:41.000Z</time>
      </trkpt>
      <trkpt lat="43.83619" lon="4.20735">
        <ele>211.4</ele>
        <time>2026-05-09T07:59:42.000Z</time>
      </trkpt>
      <trkpt lat="43.8362" lon="4.20735">
        <ele>210.9</ele>
        <time>2026-05-09T07:59:43.000Z</time>
      </trkpt>
      <trkpt lat="43.8362" lon="4.20734">
        <ele>210.8</ele>
        <time>2026-05-09T07:59:44.000Z</time>
      </trkpt>
      <trkpt lat="43.8362" lon="4.20734">
        <ele>210.9</ele>
        <time>2026-05-09T07:59:45.000Z</time>
      </trkpt>
      <trkpt lat="43.8362" lon="4.20734">
        <ele>210.7</ele>
        <time>2026-05-09T07:59:46.000Z</time>
      </trkpt>
      <trkpt lat="43.8362" lon="4.20734">
        <ele>210.5</ele>
        <time>2026-05-09T07:59:47.000Z</time>
      </trkpt>
      <trkpt lat="43.8362" lon="4.20734">
        <ele>210.4</ele>
        <time>2026-05-09T07:59:48.000Z</time>
      </trkpt>
      <trkpt lat="43.8362" lon="4.20734">
        <ele>210.4</ele>
        <time>2026-05-09T07:59:49.000Z</time>
      </trkpt>
      <trkpt lat="43.8362" lon="4.20734">
        <ele>210.6</ele>
        <time>2026-05-09T07:59:50.000Z</time>
      </trkpt>
      <trkpt lat="43.8362" lon="4.20734">
        <ele>210.9</ele>
        <time>2026-05-09T07:59:51.000Z</time>
      </trkpt>
      <trkpt lat="43.8362" lon="4.20734">
        <ele>211.2</ele>
        <time>2026-05-09T07:59:52.000Z</time>
      </trkpt>
      <trkpt lat="43.8362" lon="4.20733">
        <ele>211.3</ele>
        <time>2026-05-09T07:59:53.000Z</time>
      </trkpt>
      <trkpt lat="43.8362" lon="4.20733">
        <ele>211.3</ele>
        <time>2026-05-09T07:59:54.000Z</time>
      </trkpt>
      <trkpt lat="43.83621" lon="4.20733">
        <ele>211.3</ele>
        <time>2026-05-09T07:59:55.000Z</time>
      </trkpt>
      <trkpt lat="43.83621" lon="4.20733">
        <ele>211.3</ele>
        <time>2026-05-09T07:59:56.000Z</time>
      </trkpt>
      <trkpt lat="43.83621" lon="4.20733">
        <ele>211</ele>
        <time>2026-05-09T07:59:57.000Z</time>
      </trkpt>
      <trkpt lat="43.83621" lon="4.20733">
        <ele>210.9</ele>
        <time>2026-05-09T07:59:58.000Z</time>
      </trkpt>
      <trkpt lat="43.83621" lon="4.20733">
        <ele>211.1</ele>
        <time>2026-05-09T07:59:59.000Z</time>
      </trkpt>
      <trkpt lat="43.83621" lon="4.20733">
        <ele>211.2</ele>
        <time>2026-05-09T08:00:00.000Z</time>
      </trkpt>
      <trkpt lat="43.83622" lon="4.20733">
        <ele>211.2</ele>
        <time>2026-05-09T08:00:01.000Z</time>
      </trkpt>
      <trkpt lat="43.83622" lon="4.20733">
        <ele>211.1</ele>
        <time>2026-05-09T08:00:02.000Z</time>
      </trkpt>
      <trkpt lat="43.83622" lon="4.20733">
        <ele>211</ele>
        <time>2026-05-09T08:00:03.000Z</time>
      </trkpt>
      <trkpt lat="43.83622" lon="4.20733">
        <ele>210.7</ele>
        <time>2026-05-09T08:00:04.000Z</time>
      </trkpt>
      <trkpt lat="43.83623" lon="4.20733">
        <ele>210.6</ele>
        <time>2026-05-09T08:00:05.000Z</time>
      </trkpt>
      <trkpt lat="43.83623" lon="4.20733">
        <ele>210.5</ele>
        <time>2026-05-09T08:00:06.000Z</time>
      </trkpt>
      <trkpt lat="43.83624" lon="4.20732">
        <ele>210.5</ele>
        <time>2026-05-09T08:00:07.000Z</time>
      </trkpt>
      <trkpt lat="43.83624" lon="4.20733">
        <ele>210.5</ele>
        <time>2026-05-09T08:00:08.000Z</time>
      </trkpt>
      <trkpt lat="43.83624" lon="4.20733">
        <ele>210.2</ele>
        <time>2026-05-09T08:00:09.000Z</time>
      </trkpt>
      <trkpt lat="43.83624" lon="4.20733">
        <ele>210</ele>
        <time>2026-05-09T08:00:10.000Z</time>
      </trkpt>
      <trkpt lat="43.83625" lon="4.20733">
        <ele>210.1</ele>
        <time>2026-05-09T08:00:11.000Z</time>
      </trkpt>
      <trkpt lat="43.83625" lon="4.20733">
        <ele>210</ele>
        <time>2026-05-09T08:00:12.000Z</time>
      </trkpt>
      <trkpt lat="43.83625" lon="4.20733">
        <ele>209.9</ele>
        <time>2026-05-09T08:00:13.000Z</time>
      </trkpt>
      <trkpt lat="43.83626" lon="4.20733">
        <ele>209.7</ele>
        <time>2026-05-09T08:00:14.000Z</time>
      </trkpt>
      <trkpt lat="43.83626" lon="4.20732">
        <ele>209.5</ele>
        <time>2026-05-09T08:00:15.000Z</time>
      </trkpt>
      <trkpt lat="43.83627" lon="4.20732">
        <ele>209.4</ele>
        <time>2026-05-09T08:00:16.000Z</time>
      </trkpt>
      <trkpt lat="43.83627" lon="4.20732">
        <ele>209.3</ele>
        <time>2026-05-09T08:00:17.000Z</time>
      </trkpt>
      <trkpt lat="43.83627" lon="4.20732">
        <ele>209.5</ele>
        <time>2026-05-09T08:00:18.000Z</time>
      </trkpt>
      <trkpt lat="43.83628" lon="4.20733">
        <ele>209.6</ele>
        <time>2026-05-09T08:00:19.000Z</time>
      </trkpt>
      <trkpt lat="43.83628" lon="4.20733">
        <ele>209.5</ele>
        <time>2026-05-09T08:00:20.000Z</time>
      </trkpt>
      <trkpt lat="43.83628" lon="4.20732">
        <ele>209.4</ele>
        <time>2026-05-09T08:00:21.000Z</time>
      </trkpt>
      <trkpt lat="43.83628" lon="4.20732">
        <ele>209.3</ele>
        <time>2026-05-09T08:00:22.000Z</time>
      </trkpt>
      <trkpt lat="43.83628" lon="4.20732">
        <ele>209.2</ele>
        <time>2026-05-09T08:00:23.000Z</time>
      </trkpt>
      <trkpt lat="43.83629" lon="4.20732">
        <ele>209.4</ele>
        <time>2026-05-09T08:00:24.000Z</time>
      </trkpt>
      <trkpt lat="43.83629" lon="4.20731">
        <ele>209.6</ele>
        <time>2026-05-09T08:00:25.000Z</time>
      </trkpt>
      <trkpt lat="43.83629" lon="4.20731">
        <ele>209.7</ele>
        <time>2026-05-09T08:00:26.000Z</time>
      </trkpt>
      <trkpt lat="43.83629" lon="4.2073">
        <ele>209.7</ele>
        <time>2026-05-09T08:00:27.000Z</time>
      </trkpt>
      <trkpt lat="43.8363" lon="4.2073">
        <ele>209.7</ele>
        <time>2026-05-09T08:00:28.000Z</time>
      </trkpt>
      <trkpt lat="43.8363" lon="4.20729">
        <ele>209.6</ele>
        <time>2026-05-09T08:00:29.000Z</time>
      </trkpt>
      <trkpt lat="43.8363" lon="4.20729">
        <ele>209.6</ele>
        <time>2026-05-09T08:00:30.000Z</time>
      </trkpt>
      <trkpt lat="43.83631" lon="4.20728">
        <ele>209.5</ele>
        <time>2026-05-09T08:00:31.000Z</time>
      </trkpt>
      <trkpt lat="43.83631" lon="4.20728">
        <ele>209.7</ele>
        <time>2026-05-09T08:00:32.000Z</time>
      </trkpt>
      <trkpt lat="43.83632" lon="4.20728">
        <ele>209.9</ele>
        <time>2026-05-09T08:00:33.000Z</time>
      </trkpt>
      <trkpt lat="43.83632" lon="4.20727">
        <ele>210.2</ele>
        <time>2026-05-09T08:00:34.000Z</time>
      </trkpt>
      <trkpt lat="43.83633" lon="4.20727">
        <ele>210.5</ele>
        <time>2026-05-09T08:00:35.000Z</time>
      </trkpt>
      <trkpt lat="43.83633" lon="4.20726">
        <ele>210.7</ele>
        <time>2026-05-09T08:00:36.000Z</time>
      </trkpt>
      <trkpt lat="43.83634" lon="4.20725">
        <ele>211</ele>
        <time>2026-05-09T08:00:37.000Z</time>
      </trkpt>
      <trkpt lat="43.83634" lon="4.20725">
        <ele>211.2</ele>
        <time>2026-05-09T08:00:38.000Z</time>
      </trkpt>
      <trkpt lat="43.83636" lon="4.20722">
        <ele>211.4</ele>
        <time>2026-05-09T08:00:39.000Z</time>
      </trkpt>
      <trkpt lat="43.83637" lon="4.20721">
        <ele>211.5</ele>
        <time>2026-05-09T08:00:40.000Z</time>
      </trkpt>
      <trkpt lat="43.83639" lon="4.20719">
        <ele>211.6</ele>
        <time>2026-05-09T08:00:41.000Z</time>
      </trkpt>
      <trkpt lat="43.83639" lon="4.20718">
        <ele>211.7</ele>
        <time>2026-05-09T08:00:42.000Z</time>
      </trkpt>
      <trkpt lat="43.83641" lon="4.20717">
        <ele>212</ele>
        <time>2026-05-09T08:00:43.000Z</time>
      </trkpt>
      <trkpt lat="43.83642" lon="4.20716">
        <ele>212.2</ele>
        <time>2026-05-09T08:00:44.000Z</time>
      </trkpt>
      <trkpt lat="43.83644" lon="4.20715">
        <ele>212.5</ele>
        <time>2026-05-09T08:00:45.000Z</time>
      </trkpt>
      <trkpt lat="43.83645" lon="4.20714">
        <ele>212.8</ele>
        <time>2026-05-09T08:00:46.000Z</time>
      </trkpt>
      <trkpt lat="43.83645" lon="4.20714">
        <ele>212.9</ele>
        <time>2026-05-09T08:00:47.000Z</time>
      </trkpt>
      <trkpt lat="43.83645" lon="4.20714">
        <ele>212.8</ele>
        <time>2026-05-09T08:00:48.000Z</time>
      </trkpt>
      <trkpt lat="43.83645" lon="4.20713">
        <ele>212.6</ele>
        <time>2026-05-09T08:00:49.000Z</time>
      </trkpt>
      <trkpt lat="43.83646" lon="4.20713">
        <ele>212.5</ele>
        <time>2026-05-09T08:00:50.000Z</time>
      </trkpt>
      <trkpt lat="43.83648" lon="4.20711">
        <ele>212.7</ele>
        <time>2026-05-09T08:00:51.000Z</time>
      </trkpt>
      <trkpt lat="43.8365" lon="4.2071">
        <ele>213</ele>
        <time>2026-05-09T08:00:52.000Z</time>
      </trkpt>
      <trkpt lat="43.83651" lon="4.20709">
        <ele>213.3</ele>
        <time>2026-05-09T08:00:53.000Z</time>
      </trkpt>
      <trkpt lat="43.83652" lon="4.20708">
        <ele>213.5</ele>
        <time>2026-05-09T08:00:54.000Z</time>
      </trkpt>
      <trkpt lat="43.83653" lon="4.20706">
        <ele>213.5</ele>
        <time>2026-05-09T08:00:55.000Z</time>
      </trkpt>
      <trkpt lat="43.83653" lon="4.20705">
        <ele>213.5</ele>
        <time>2026-05-09T08:00:56.000Z</time>
      </trkpt>
      <trkpt lat="43.83654" lon="4.20703">
        <ele>213.3</ele>
        <time>2026-05-09T08:00:57.000Z</time>
      </trkpt>
      <trkpt lat="43.83654" lon="4.20703">
        <ele>213.2</ele>
        <time>2026-05-09T08:00:58.000Z</time>
      </trkpt>
      <trkpt lat="43.83655" lon="4.20702">
        <ele>213.2</ele>
        <time>2026-05-09T08:00:59.000Z</time>
      </trkpt>
      <trkpt lat="43.83655" lon="4.20701">
        <ele>213.6</ele>
        <time>2026-05-09T08:01:00.000Z</time>
      </trkpt>
      <trkpt lat="43.83655" lon="4.20701">
        <ele>214.2</ele>
        <time>2026-05-09T08:01:01.000Z</time>
      </trkpt>
      <trkpt lat="43.83655" lon="4.207">
        <ele>214.4</ele>
        <time>2026-05-09T08:01:02.000Z</time>
      </trkpt>
      <trkpt lat="43.83656" lon="4.20698">
        <ele>214.4</ele>
        <time>2026-05-09T08:01:03.000Z</time>
      </trkpt>
      <trkpt lat="43.83656" lon="4.20696">
        <ele>214.4</ele>
        <time>2026-05-09T08:01:04.000Z</time>
      </trkpt>
      <trkpt lat="43.83657" lon="4.20694">
        <ele>214.4</ele>
        <time>2026-05-09T08:01:05.000Z</time>
      </trkpt>
      <trkpt lat="43.83658" lon="4.20693">
        <ele>214.5</ele>
        <time>2026-05-09T08:01:06.000Z</time>
      </trkpt>
      <trkpt lat="43.83658" lon="4.20691">
        <ele>214.7</ele>
        <time>2026-05-09T08:01:07.000Z</time>
      </trkpt>
      <trkpt lat="43.83658" lon="4.2069">
        <ele>214.8</ele>
        <time>2026-05-09T08:01:08.000Z</time>
      </trkpt>
      <trkpt lat="43.83658" lon="4.2069">
        <ele>215.1</ele>
        <time>2026-05-09T08:01:09.000Z</time>
      </trkpt>
      <trkpt lat="43.83657" lon="4.20689">
        <ele>215.3</ele>
        <time>2026-05-09T08:01:10.000Z</time>
      </trkpt>
      <trkpt lat="43.83657" lon="4.20688">
        <ele>215.5</ele>
        <time>2026-05-09T08:01:11.000Z</time>
      </trkpt>
      <trkpt lat="43.83658" lon="4.20687">
        <ele>215.8</ele>
        <time>2026-05-09T08:01:12.000Z</time>
      </trkpt>
      <trkpt lat="43.83659" lon="4.20685">
        <ele>216</ele>
        <time>2026-05-09T08:01:13.000Z</time>
      </trkpt>
      <trkpt lat="43.83659" lon="4.20685">
        <ele>216.7</ele>
        <time>2026-05-09T08:01:14.000Z</time>
      </trkpt>
      <trkpt lat="43.83659" lon="4.20684">
        <ele>216.9</ele>
        <time>2026-05-09T08:01:15.000Z</time>
      </trkpt>
      <trkpt lat="43.8366" lon="4.20683">
        <ele>216.8</ele>
        <time>2026-05-09T08:01:16.000Z</time>
      </trkpt>
      <trkpt lat="43.8366" lon="4.20682">
        <ele>216.8</ele>
        <time>2026-05-09T08:01:17.000Z</time>
      </trkpt>
      <trkpt lat="43.83661" lon="4.20681">
        <ele>216.8</ele>
        <time>2026-05-09T08:01:18.000Z</time>
      </trkpt>
      <trkpt lat="43.83661" lon="4.2068">
        <ele>216.9</ele>
        <time>2026-05-09T08:01:19.000Z</time>
      </trkpt>
      <trkpt lat="43.83662" lon="4.20679">
        <ele>216.8</ele>
        <time>2026-05-09T08:01:20.000Z</time>
      </trkpt>
      <trkpt lat="43.83662" lon="4.20679">
        <ele>216.9</ele>
        <time>2026-05-09T08:01:21.000Z</time>
      </trkpt>
      <trkpt lat="43.83663" lon="4.20678">
        <ele>217.1</ele>
        <time>2026-05-09T08:01:22.000Z</time>
      </trkpt>
      <trkpt lat="43.83663" lon="4.20677">
        <ele>217.8</ele>
        <time>2026-05-09T08:01:23.000Z</time>
      </trkpt>
      <trkpt lat="43.83663" lon="4.20675">
        <ele>218.2</ele>
        <time>2026-05-09T08:01:24.000Z</time>
      </trkpt>
      <trkpt lat="43.83663" lon="4.20673">
        <ele>218.6</ele>
        <time>2026-05-09T08:01:25.000Z</time>
      </trkpt>
      <trkpt lat="43.83663" lon="4.20672">
        <ele>218.6</ele>
        <time>2026-05-09T08:01:26.000Z</time>
      </trkpt>
      <trkpt lat="43.83663" lon="4.20671">
        <ele>218.6</ele>
        <time>2026-05-09T08:01:27.000Z</time>
      </trkpt>
      <trkpt lat="43.83663" lon="4.2067">
        <ele>219.1</ele>
        <time>2026-05-09T08:01:28.000Z</time>
      </trkpt>
      <trkpt lat="43.83663" lon="4.20669">
        <ele>219.2</ele>
        <time>2026-05-09T08:01:29.000Z</time>
      </trkpt>
      <trkpt lat="43.83663" lon="4.20668">
        <ele>219.5</ele>
        <time>2026-05-09T08:01:30.000Z</time>
      </trkpt>
      <trkpt lat="43.83663" lon="4.20666">
        <ele>219.3</ele>
        <time>2026-05-09T08:01:31.000Z</time>
      </trkpt>
      <trkpt lat="43.83663" lon="4.20665">
        <ele>219.5</ele>
        <time>2026-05-09T08:01:32.000Z</time>
      </trkpt>
      <trkpt lat="43.83664" lon="4.20664">
        <ele>219.8</ele>
        <time>2026-05-09T08:01:33.000Z</time>
      </trkpt>
      <trkpt lat="43.83665" lon="4.20664">
        <ele>220.2</ele>
        <time>2026-05-09T08:01:34.000Z</time>
      </trkpt>
      <trkpt lat="43.83665" lon="4.20663">
        <ele>220.6</ele>
        <time>2026-05-09T08:01:35.000Z</time>
      </trkpt>
      <trkpt lat="43.83665" lon="4.20663">
        <ele>220.8</ele>
        <time>2026-05-09T08:01:36.000Z</time>
      </trkpt>
      <trkpt lat="43.83665" lon="4.20662">
        <ele>221</ele>
        <time>2026-05-09T08:01:37.000Z</time>
      </trkpt>
      <trkpt lat="43.83665" lon="4.20662">
        <ele>221</ele>
        <time>2026-05-09T08:01:38.000Z</time>
      </trkpt>
      <trkpt lat="43.83665" lon="4.20662">
        <ele>220.6</ele>
        <time>2026-05-09T08:01:39.000Z</time>
      </trkpt>
      <trkpt lat="43.83665" lon="4.20662">
        <ele>220.3</ele>
        <time>2026-05-09T08:01:40.000Z</time>
      </trkpt>
      <trkpt lat="43.83664" lon="4.20662">
        <ele>220.1</ele>
        <time>2026-05-09T08:01:41.000Z</time>
      </trkpt>
      <trkpt lat="43.83664" lon="4.20661">
        <ele>220.2</ele>
        <time>2026-05-09T08:01:42.000Z</time>
      </trkpt>
      <trkpt lat="43.83664" lon="4.2066">
        <ele>220.3</ele>
        <time>2026-05-09T08:01:43.000Z</time>
      </trkpt>
      <trkpt lat="43.83664" lon="4.20658">
        <ele>220.5</ele>
        <time>2026-05-09T08:01:44.000Z</time>
      </trkpt>
      <trkpt lat="43.83664" lon="4.20656">
        <ele>220.9</ele>
        <time>2026-05-09T08:01:45.000Z</time>
      </trkpt>
      <trkpt lat="43.83665" lon="4.20654">
        <ele>221</ele>
        <time>2026-05-09T08:01:46.000Z</time>
      </trkpt>
      <trkpt lat="43.83664" lon="4.20652">
        <ele>221.3</ele>
        <time>2026-05-09T08:01:47.000Z</time>
      </trkpt>
      <trkpt lat="43.83664" lon="4.2065">
        <ele>221.5</ele>
        <time>2026-05-09T08:01:48.000Z</time>
      </trkpt>
      <trkpt lat="43.83663" lon="4.20648">
        <ele>222.2</ele>
        <time>2026-05-09T08:01:49.000Z</time>
      </trkpt>
      <trkpt lat="43.83663" lon="4.20647">
        <ele>222.7</ele>
        <time>2026-05-09T08:01:50.000Z</time>
      </trkpt>
      <trkpt lat="43.83663" lon="4.20646">
        <ele>223.2</ele>
        <time>2026-05-09T08:01:51.000Z</time>
      </trkpt>
      <trkpt lat="43.83663" lon="4.20645">
        <ele>223.6</ele>
        <time>2026-05-09T08:01:52.000Z</time>
      </trkpt>
      <trkpt lat="43.83663" lon="4.20643">
        <ele>223.9</ele>
        <time>2026-05-09T08:01:53.000Z</time>
      </trkpt>
      <trkpt lat="43.83663" lon="4.20641">
        <ele>223.8</ele>
        <time>2026-05-09T08:01:54.000Z</time>
      </trkpt>
      <trkpt lat="43.83662" lon="4.20639">
        <ele>224.2</ele>
        <time>2026-05-09T08:01:55.000Z</time>
      </trkpt>
      <trkpt lat="43.83662" lon="4.20637">
        <ele>224.8</ele>
        <time>2026-05-09T08:01:56.000Z</time>
      </trkpt>
      <trkpt lat="43.83663" lon="4.20636">
        <ele>225.4</ele>
        <time>2026-05-09T08:01:57.000Z</time>
      </trkpt>
      <trkpt lat="43.83663" lon="4.20635">
        <ele>225.8</ele>
        <time>2026-05-09T08:01:58.000Z</time>
      </trkpt>
      <trkpt lat="43.83663" lon="4.20634">
        <ele>226.2</ele>
        <time>2026-05-09T08:01:59.000Z</time>
      </trkpt>
      <trkpt lat="43.83663" lon="4.20634">
        <ele>226.2</ele>
        <time>2026-05-09T08:02:00.000Z</time>
      </trkpt>
      <trkpt lat="43.83664" lon="4.20634">
        <ele>226.5</ele>
        <time>2026-05-09T08:02:01.000Z</time>
      </trkpt>
      <trkpt lat="43.83665" lon="4.20634">
        <ele>226.6</ele>
        <time>2026-05-09T08:02:02.000Z</time>
      </trkpt>
      <trkpt lat="43.83665" lon="4.20633">
        <ele>226.3</ele>
        <time>2026-05-09T08:02:03.000Z</time>
      </trkpt>
      <trkpt lat="43.83665" lon="4.20633">
        <ele>226.3</ele>
        <time>2026-05-09T08:02:04.000Z</time>
      </trkpt>
      <trkpt lat="43.83666" lon="4.20633">
        <ele>226.6</ele>
        <time>2026-05-09T08:02:05.000Z</time>
      </trkpt>
      <trkpt lat="43.83666" lon="4.20632">
        <ele>226.6</ele>
        <time>2026-05-09T08:02:06.000Z</time>
      </trkpt>
      <trkpt lat="43.83667" lon="4.2063">
        <ele>226.3</ele>
        <time>2026-05-09T08:02:07.000Z</time>
      </trkpt>
      <trkpt lat="43.83667" lon="4.20628">
        <ele>226.3</ele>
        <time>2026-05-09T08:02:08.000Z</time>
      </trkpt>
      <trkpt lat="43.83666" lon="4.20627">
        <ele>226.4</ele>
        <time>2026-05-09T08:02:09.000Z</time>
      </trkpt>
      <trkpt lat="43.83665" lon="4.20627">
        <ele>226.8</ele>
        <time>2026-05-09T08:02:10.000Z</time>
      </trkpt>
      <trkpt lat="43.83664" lon="4.20627">
        <ele>227</ele>
        <time>2026-05-09T08:02:11.000Z</time>
      </trkpt>
      <trkpt lat="43.83664" lon="4.20627">
        <ele>226.8</ele>
        <time>2026-05-09T08:02:12.000Z</time>
      </trkpt>
      <trkpt lat="43.83663" lon="4.20628">
        <ele>226.6</ele>
        <time>2026-05-09T08:02:13.000Z</time>
      </trkpt>
      <trkpt lat="43.83663" lon="4.20629">
        <ele>226.7</ele>
        <time>2026-05-09T08:02:14.000Z</time>
      </trkpt>
      <trkpt lat="43.83663" lon="4.20629">
        <ele>225.9</ele>
        <time>2026-05-09T08:02:15.000Z</time>
      </trkpt>
      <trkpt lat="43.83663" lon="4.20629">
        <ele>226</ele>
        <time>2026-05-09T08:02:16.000Z</time>
      </trkpt>
      <trkpt lat="43.83663" lon="4.20629">
        <ele>226.6</ele>
        <time>2026-05-09T08:02:17.000Z</time>
      </trkpt>
      <trkpt lat="43.83663" lon="4.20629">
        <ele>227.2</ele>
        <time>2026-05-09T08:02:18.000Z</time>
      </trkpt>
      <trkpt lat="43.83662" lon="4.20629">
        <ele>227.3</ele>
        <time>2026-05-09T08:02:19.000Z</time>
      </trkpt>
      <trkpt lat="43.83662" lon="4.20629">
        <ele>227.3</ele>
        <time>2026-05-09T08:02:20.000Z</time>
      </trkpt>
      <trkpt lat="43.83662" lon="4.20629">
        <ele>227.5</ele>
        <time>2026-05-09T08:02:21.000Z</time>
      </trkpt>
      <trkpt lat="43.83662" lon="4.20629">
        <ele>227.9</ele>
        <time>2026-05-09T08:02:22.000Z</time>
      </trkpt>
      <trkpt lat="43.83662" lon="4.20629">
        <ele>227.8</ele>
        <time>2026-05-09T08:02:23.000Z</time>
      </trkpt>
      <trkpt lat="43.83662" lon="4.20629">
        <ele>228.1</ele>
        <time>2026-05-09T08:02:24.000Z</time>
      </trkpt>
      <trkpt lat="43.83662" lon="4.20629">
        <ele>228.5</ele>
        <time>2026-05-09T08:02:25.000Z</time>
      </trkpt>
      <trkpt lat="43.83661" lon="4.20629">
        <ele>228.6</ele>
        <time>2026-05-09T08:02:26.000Z</time>
      </trkpt>
      <trkpt lat="43.83661" lon="4.20629">
        <ele>228.8</ele>
        <time>2026-05-09T08:02:27.000Z</time>
      </trkpt>
      <trkpt lat="43.83661" lon="4.20629">
        <ele>229.4</ele>
        <time>2026-05-09T08:02:28.000Z</time>
      </trkpt>
      <trkpt lat="43.83661" lon="4.20629">
        <ele>229.8</ele>
        <time>2026-05-09T08:02:29.000Z</time>
      </trkpt>
      <trkpt lat="43.8366" lon="4.20629">
        <ele>230.2</ele>
        <time>2026-05-09T08:02:30.000Z</time>
      </trkpt>
      <trkpt lat="43.83659" lon="4.2063">
        <ele>230.5</ele>
        <time>2026-05-09T08:02:31.000Z</time>
      </trkpt>
      <trkpt lat="43.83658" lon="4.2063">
        <ele>230.5</ele>
        <time>2026-05-09T08:02:32.000Z</time>
      </trkpt>
      <trkpt lat="43.83658" lon="4.20631">
        <ele>230.5</ele>
        <time>2026-05-09T08:02:33.000Z</time>
      </trkpt>
      <trkpt lat="43.83657" lon="4.2063">
        <ele>230.8</ele>
        <time>2026-05-09T08:02:35.000Z</time>
      </trkpt>
      <trkpt lat="43.83655" lon="4.20629">
        <ele>231</ele>
        <time>2026-05-09T08:02:36.000Z</time>
      </trkpt>
      <trkpt lat="43.83654" lon="4.20629">
        <ele>231</ele>
        <time>2026-05-09T08:02:37.000Z</time>
      </trkpt>
      <trkpt lat="43.83654" lon="4.20629">
        <ele>231.2</ele>
        <time>2026-05-09T08:02:38.000Z</time>
      </trkpt>
      <trkpt lat="43.83654" lon="4.20629">
        <ele>230.6</ele>
        <time>2026-05-09T08:02:39.000Z</time>
      </trkpt>
      <trkpt lat="43.83653" lon="4.20628">
        <ele>230.7</ele>
        <time>2026-05-09T08:02:40.000Z</time>
      </trkpt>
      <trkpt lat="43.83653" lon="4.20628">
        <ele>230.7</ele>
        <time>2026-05-09T08:02:41.000Z</time>
      </trkpt>
      <trkpt lat="43.83653" lon="4.20627">
        <ele>230.5</ele>
        <time>2026-05-09T08:02:42.000Z</time>
      </trkpt>
      <trkpt lat="43.83653" lon="4.20627">
        <ele>230.7</ele>
        <time>2026-05-09T08:02:43.000Z</time>
      </trkpt>
      <trkpt lat="43.83653" lon="4.20627">
        <ele>230.6</ele>
        <time>2026-05-09T08:02:44.000Z</time>
      </trkpt>
      <trkpt lat="43.83653" lon="4.20627">
        <ele>230.5</ele>
        <time>2026-05-09T08:02:45.000Z</time>
      </trkpt>
      <trkpt lat="43.83652" lon="4.20627">
        <ele>230.5</ele>
        <time>2026-05-09T08:02:46.000Z</time>
      </trkpt>
      <trkpt lat="43.83652" lon="4.20627">
        <ele>230.4</ele>
        <time>2026-05-09T08:02:47.000Z</time>
      </trkpt>
      <trkpt lat="43.83652" lon="4.20627">
        <ele>230.4</ele>
        <time>2026-05-09T08:02:48.000Z</time>
      </trkpt>
      <trkpt lat="43.83652" lon="4.20627">
        <ele>230.5</ele>
        <time>2026-05-09T08:02:49.000Z</time>
      </trkpt>
      <trkpt lat="43.83651" lon="4.20627">
        <ele>230.3</ele>
        <time>2026-05-09T08:02:50.000Z</time>
      </trkpt>
      <trkpt lat="43.8365" lon="4.20629">
        <ele>230.3</ele>
        <time>2026-05-09T08:02:51.000Z</time>
      </trkpt>
      <trkpt lat="43.83649" lon="4.2063">
        <ele>230.3</ele>
        <time>2026-05-09T08:02:52.000Z</time>
      </trkpt>
      <trkpt lat="43.83647" lon="4.20632">
        <ele>229.9</ele>
        <time>2026-05-09T08:02:53.000Z</time>
      </trkpt>
      <trkpt lat="43.83646" lon="4.20633">
        <ele>229.5</ele>
        <time>2026-05-09T08:02:54.000Z</time>
      </trkpt>
      <trkpt lat="43.83646" lon="4.20633">
        <ele>228.8</ele>
        <time>2026-05-09T08:02:55.000Z</time>
      </trkpt>
      <trkpt lat="43.83645" lon="4.20634">
        <ele>228.3</ele>
        <time>2026-05-09T08:02:56.000Z</time>
      </trkpt>
      <trkpt lat="43.83644" lon="4.20635">
        <ele>228.1</ele>
        <time>2026-05-09T08:02:57.000Z</time>
      </trkpt>
      <trkpt lat="43.83643" lon="4.20636">
        <ele>228.1</ele>
        <time>2026-05-09T08:02:58.000Z</time>
      </trkpt>
      <trkpt lat="43.83643" lon="4.20638">
        <ele>227.8</ele>
        <time>2026-05-09T08:02:59.000Z</time>
      </trkpt>
      <trkpt lat="43.83642" lon="4.20639">
        <ele>227.5</ele>
        <time>2026-05-09T08:03:00.000Z</time>
      </trkpt>
      <trkpt lat="43.83642" lon="4.20639">
        <ele>226.4</ele>
        <time>2026-05-09T08:03:01.000Z</time>
      </trkpt>
      <trkpt lat="43.83641" lon="4.20639">
        <ele>225.2</ele>
        <time>2026-05-09T08:03:02.000Z</time>
      </trkpt>
      <trkpt lat="43.83641" lon="4.2064">
        <ele>224.5</ele>
        <time>2026-05-09T08:03:03.000Z</time>
      </trkpt>
      <trkpt lat="43.83641" lon="4.20641">
        <ele>223.8</ele>
        <time>2026-05-09T08:03:04.000Z</time>
      </trkpt>
      <trkpt lat="43.8364" lon="4.2064">
        <ele>222.6</ele>
        <time>2026-05-09T08:03:05.000Z</time>
      </trkpt>
      <trkpt lat="43.83639" lon="4.20639">
        <ele>221.5</ele>
        <time>2026-05-09T08:03:06.000Z</time>
      </trkpt>
      <trkpt lat="43.83639" lon="4.2064">
        <ele>221.1</ele>
        <time>2026-05-09T08:03:07.000Z</time>
      </trkpt>
      <trkpt lat="43.83638" lon="4.20642">
        <ele>220.9</ele>
        <time>2026-05-09T08:03:08.000Z</time>
      </trkpt>
      <trkpt lat="43.83638" lon="4.20643">
        <ele>220.8</ele>
        <time>2026-05-09T08:03:09.000Z</time>
      </trkpt>
      <trkpt lat="43.83638" lon="4.20643">
        <ele>220.6</ele>
        <time>2026-05-09T08:03:10.000Z</time>
      </trkpt>
      <trkpt lat="43.83638" lon="4.20644">
        <ele>220.3</ele>
        <time>2026-05-09T08:03:11.000Z</time>
      </trkpt>
      <trkpt lat="43.83638" lon="4.20645">
        <ele>220.2</ele>
        <time>2026-05-09T08:03:12.000Z</time>
      </trkpt>
      <trkpt lat="43.83638" lon="4.20646">
        <ele>220.5</ele>
        <time>2026-05-09T08:03:13.000Z</time>
      </trkpt>
      <trkpt lat="43.83636" lon="4.20645">
        <ele>220.9</ele>
        <time>2026-05-09T08:03:14.000Z</time>
      </trkpt>
      <trkpt lat="43.83636" lon="4.20643">
        <ele>221.1</ele>
        <time>2026-05-09T08:03:15.000Z</time>
      </trkpt>
      <trkpt lat="43.83635" lon="4.20643">
        <ele>221</ele>
        <time>2026-05-09T08:03:16.000Z</time>
      </trkpt>
      <trkpt lat="43.83635" lon="4.20644">
        <ele>221.2</ele>
        <time>2026-05-09T08:03:17.000Z</time>
      </trkpt>
      <trkpt lat="43.83635" lon="4.20644">
        <ele>221.1</ele>
        <time>2026-05-09T08:03:18.000Z</time>
      </trkpt>
      <trkpt lat="43.83634" lon="4.20645">
        <ele>220.9</ele>
        <time>2026-05-09T08:03:19.000Z</time>
      </trkpt>
      <trkpt lat="43.83634" lon="4.20644">
        <ele>221</ele>
        <time>2026-05-09T08:03:20.000Z</time>
      </trkpt>
      <trkpt lat="43.83633" lon="4.20644">
        <ele>221.1</ele>
        <time>2026-05-09T08:03:21.000Z</time>
      </trkpt>
      <trkpt lat="43.83633" lon="4.20643">
        <ele>221.2</ele>
        <time>2026-05-09T08:03:22.000Z</time>
      </trkpt>
      <trkpt lat="43.83632" lon="4.20644">
        <ele>221.3</ele>
        <time>2026-05-09T08:03:23.000Z</time>
      </trkpt>
      <trkpt lat="43.83631" lon="4.20643">
        <ele>220.7</ele>
        <time>2026-05-09T08:03:24.000Z</time>
      </trkpt>
      <trkpt lat="43.8363" lon="4.20642">
        <ele>220.6</ele>
        <time>2026-05-09T08:03:25.000Z</time>
      </trkpt>
      <trkpt lat="43.83628" lon="4.20642">
        <ele>220.8</ele>
        <time>2026-05-09T08:03:26.000Z</time>
      </trkpt>
      <trkpt lat="43.83628" lon="4.20642">
        <ele>221</ele>
        <time>2026-05-09T08:03:27.000Z</time>
      </trkpt>
      <trkpt lat="43.83627" lon="4.20642">
        <ele>222.7</ele>
        <time>2026-05-09T08:03:28.000Z</time>
      </trkpt>
      <trkpt lat="43.83627" lon="4.20642">
        <ele>222.8</ele>
        <time>2026-05-09T08:03:29.000Z</time>
      </trkpt>
      <trkpt lat="43.83627" lon="4.20642">
        <ele>222.6</ele>
        <time>2026-05-09T08:03:30.000Z</time>
      </trkpt>
      <trkpt lat="43.83627" lon="4.20642">
        <ele>222.5</ele>
        <time>2026-05-09T08:03:31.000Z</time>
      </trkpt>
      <trkpt lat="43.83627" lon="4.20642">
        <ele>222.7</ele>
        <time>2026-05-09T08:03:32.000Z</time>
      </trkpt>
      <trkpt lat="43.83627" lon="4.20642">
        <ele>222.5</ele>
        <time>2026-05-09T08:03:33.000Z</time>
      </trkpt>
      <trkpt lat="43.83627" lon="4.20642">
        <ele>222.8</ele>
        <time>2026-05-09T08:03:34.000Z</time>
      </trkpt>
      <trkpt lat="43.83626" lon="4.20641">
        <ele>223.1</ele>
        <time>2026-05-09T08:03:35.000Z</time>
      </trkpt>
      <trkpt lat="43.83626" lon="4.20641">
        <ele>223.6</ele>
        <time>2026-05-09T08:03:36.000Z</time>
      </trkpt>
      <trkpt lat="43.83625" lon="4.20641">
        <ele>224</ele>
        <time>2026-05-09T08:03:37.000Z</time>
      </trkpt>
      <trkpt lat="43.83625" lon="4.20641">
        <ele>224.1</ele>
        <time>2026-05-09T08:03:38.000Z</time>
      </trkpt>
      <trkpt lat="43.83625" lon="4.2064">
        <ele>224.5</ele>
        <time>2026-05-09T08:03:39.000Z</time>
      </trkpt>
      <trkpt lat="43.83625" lon="4.2064">
        <ele>225.3</ele>
        <time>2026-05-09T08:03:40.000Z</time>
      </trkpt>
      <trkpt lat="43.83624" lon="4.2064">
        <ele>225.9</ele>
        <time>2026-05-09T08:03:41.000Z</time>
      </trkpt>
      <trkpt lat="43.83624" lon="4.20639">
        <ele>227</ele>
        <time>2026-05-09T08:03:42.000Z</time>
      </trkpt>
      <trkpt lat="43.83623" lon="4.20638">
        <ele>227.9</ele>
        <time>2026-05-09T08:03:43.000Z</time>
      </trkpt>
      <trkpt lat="43.83623" lon="4.20638">
        <ele>228.9</ele>
        <time>2026-05-09T08:03:44.000Z</time>
      </trkpt>
      <trkpt lat="43.83622" lon="4.20637">
        <ele>229.3</ele>
        <time>2026-05-09T08:03:45.000Z</time>
      </trkpt>
      <trkpt lat="43.83622" lon="4.20637">
        <ele>229.4</ele>
        <time>2026-05-09T08:03:46.000Z</time>
      </trkpt>
      <trkpt lat="43.83621" lon="4.20637">
        <ele>229.3</ele>
        <time>2026-05-09T08:03:47.000Z</time>
      </trkpt>
      <trkpt lat="43.83621" lon="4.20636">
        <ele>229.6</ele>
        <time>2026-05-09T08:03:48.000Z</time>
      </trkpt>
      <trkpt lat="43.8362" lon="4.20635">
        <ele>229.9</ele>
        <time>2026-05-09T08:03:49.000Z</time>
      </trkpt>
      <trkpt lat="43.83618" lon="4.20632">
        <ele>229.9</ele>
        <time>2026-05-09T08:03:50.000Z</time>
      </trkpt>
      <trkpt lat="43.83616" lon="4.2063">
        <ele>229.9</ele>
        <time>2026-05-09T08:03:51.000Z</time>
      </trkpt>
      <trkpt lat="43.83614" lon="4.20629">
        <ele>229.9</ele>
        <time>2026-05-09T08:03:52.000Z</time>
      </trkpt>
      <trkpt lat="43.83613" lon="4.20627">
        <ele>229.9</ele>
        <time>2026-05-09T08:03:53.000Z</time>
      </trkpt>
      <trkpt lat="43.83612" lon="4.20625">
        <ele>229.7</ele>
        <time>2026-05-09T08:03:54.000Z</time>
      </trkpt>
      <trkpt lat="43.83611" lon="4.20623">
        <ele>229.7</ele>
        <time>2026-05-09T08:03:55.000Z</time>
      </trkpt>
      <trkpt lat="43.8361" lon="4.20621">
        <ele>229.6</ele>
        <time>2026-05-09T08:03:56.000Z</time>
      </trkpt>
      <trkpt lat="43.83609" lon="4.20619">
        <ele>229.6</ele>
        <time>2026-05-09T08:03:57.000Z</time>
      </trkpt>
      <trkpt lat="43.83607" lon="4.20617">
        <ele>229.5</ele>
        <time>2026-05-09T08:03:58.000Z</time>
      </trkpt>
      <trkpt lat="43.83606" lon="4.20615">
        <ele>229.1</ele>
        <time>2026-05-09T08:03:59.000Z</time>
      </trkpt>
      <trkpt lat="43.83605" lon="4.20614">
        <ele>228.9</ele>
        <time>2026-05-09T08:04:00.000Z</time>
      </trkpt>
      <trkpt lat="43.83604" lon="4.20614">
        <ele>228.8</ele>
        <time>2026-05-09T08:04:01.000Z</time>
      </trkpt>
      <trkpt lat="43.83602" lon="4.20612">
        <ele>228.8</ele>
        <time>2026-05-09T08:04:02.000Z</time>
      </trkpt>
      <trkpt lat="43.836" lon="4.20611">
        <ele>228.9</ele>
        <time>2026-05-09T08:04:03.000Z</time>
      </trkpt>
      <trkpt lat="43.83598" lon="4.2061">
        <ele>228.8</ele>
        <time>2026-05-09T08:04:04.000Z</time>
      </trkpt>
      <trkpt lat="43.83596" lon="4.20608">
        <ele>228.8</ele>
        <time>2026-05-09T08:04:05.000Z</time>
      </trkpt>
      <trkpt lat="43.83594" lon="4.20605">
        <ele>228.7</ele>
        <time>2026-05-09T08:04:06.000Z</time>
      </trkpt>
      <trkpt lat="43.83593" lon="4.20603">
        <ele>228.9</ele>
        <time>2026-05-09T08:04:07.000Z</time>
      </trkpt>
      <trkpt lat="43.83592" lon="4.20601">
        <ele>229.1</ele>
        <time>2026-05-09T08:04:08.000Z</time>
      </trkpt>
      <trkpt lat="43.83591" lon="4.20599">
        <ele>229.1</ele>
        <time>2026-05-09T08:04:09.000Z</time>
      </trkpt>
      <trkpt lat="43.83591" lon="4.20596">
        <ele>229.9</ele>
        <time>2026-05-09T08:04:10.000Z</time>
      </trkpt>
      <trkpt lat="43.8359" lon="4.20594">
        <ele>230.1</ele>
        <time>2026-05-09T08:04:11.000Z</time>
      </trkpt>
      <trkpt lat="43.8359" lon="4.20592">
        <ele>230.1</ele>
        <time>2026-05-09T08:04:12.000Z</time>
      </trkpt>
      <trkpt lat="43.83589" lon="4.20591">
        <ele>230.2</ele>
        <time>2026-05-09T08:04:13.000Z</time>
      </trkpt>
      <trkpt lat="43.83589" lon="4.2059">
        <ele>230.3</ele>
        <time>2026-05-09T08:04:14.000Z</time>
      </trkpt>
      <trkpt lat="43.83588" lon="4.20588">
        <ele>230.6</ele>
        <time>2026-05-09T08:04:15.000Z</time>
      </trkpt>
      <trkpt lat="43.83588" lon="4.20587">
        <ele>230.7</ele>
        <time>2026-05-09T08:04:16.000Z</time>
      </trkpt>
      <trkpt lat="43.83588" lon="4.20585">
        <ele>231.2</ele>
        <time>2026-05-09T08:04:17.000Z</time>
      </trkpt>
      <trkpt lat="43.83588" lon="4.20582">
        <ele>232</ele>
        <time>2026-05-09T08:04:18.000Z</time>
      </trkpt>
      <trkpt lat="43.83588" lon="4.2058">
        <ele>232.4</ele>
        <time>2026-05-09T08:04:19.000Z</time>
      </trkpt>
      <trkpt lat="43.83588" lon="4.20578">
        <ele>232.6</ele>
        <time>2026-05-09T08:04:20.000Z</time>
      </trkpt>
      <trkpt lat="43.83588" lon="4.20577">
        <ele>233</ele>
        <time>2026-05-09T08:04:21.000Z</time>
      </trkpt>
      <trkpt lat="43.83588" lon="4.20575">
        <ele>233</ele>
        <time>2026-05-09T08:04:22.000Z</time>
      </trkpt>
      <trkpt lat="43.83588" lon="4.20573">
        <ele>233</ele>
        <time>2026-05-09T08:04:23.000Z</time>
      </trkpt>
      <trkpt lat="43.83587" lon="4.20572">
        <ele>232.7</ele>
        <time>2026-05-09T08:04:24.000Z</time>
      </trkpt>
      <trkpt lat="43.83587" lon="4.20571">
        <ele>232.6</ele>
        <time>2026-05-09T08:04:25.000Z</time>
      </trkpt>
      <trkpt lat="43.83586" lon="4.20569">
        <ele>232.7</ele>
        <time>2026-05-09T08:04:26.000Z</time>
      </trkpt>
      <trkpt lat="43.83585" lon="4.20568">
        <ele>232.8</ele>
        <time>2026-05-09T08:04:27.000Z</time>
      </trkpt>
      <trkpt lat="43.83584" lon="4.20567">
        <ele>232.9</ele>
        <time>2026-05-09T08:04:28.000Z</time>
      </trkpt>
      <trkpt lat="43.83583" lon="4.20566">
        <ele>232.9</ele>
        <time>2026-05-09T08:04:29.000Z</time>
      </trkpt>
      <trkpt lat="43.83583" lon="4.20566">
        <ele>233</ele>
        <time>2026-05-09T08:04:30.000Z</time>
      </trkpt>
      <trkpt lat="43.83582" lon="4.20565">
        <ele>232.9</ele>
        <time>2026-05-09T08:04:31.000Z</time>
      </trkpt>
      <trkpt lat="43.8358" lon="4.20565">
        <ele>232.5</ele>
        <time>2026-05-09T08:04:32.000Z</time>
      </trkpt>
      <trkpt lat="43.8358" lon="4.20564">
        <ele>232.4</ele>
        <time>2026-05-09T08:04:33.000Z</time>
      </trkpt>
      <trkpt lat="43.83579" lon="4.20564">
        <ele>232.2</ele>
        <time>2026-05-09T08:04:34.000Z</time>
      </trkpt>
      <trkpt lat="43.83578" lon="4.20563">
        <ele>232.3</ele>
        <time>2026-05-09T08:04:35.000Z</time>
      </trkpt>
      <trkpt lat="43.83577" lon="4.20562">
        <ele>232.1</ele>
        <time>2026-05-09T08:04:36.000Z</time>
      </trkpt>
      <trkpt lat="43.83576" lon="4.20561">
        <ele>232.2</ele>
        <time>2026-05-09T08:04:37.000Z</time>
      </trkpt>
      <trkpt lat="43.83576" lon="4.2056">
        <ele>232.7</ele>
        <time>2026-05-09T08:04:38.000Z</time>
      </trkpt>
      <trkpt lat="43.83575" lon="4.20558">
        <ele>232.8</ele>
        <time>2026-05-09T08:04:39.000Z</time>
      </trkpt>
      <trkpt lat="43.83575" lon="4.20557">
        <ele>232.7</ele>
        <time>2026-05-09T08:04:40.000Z</time>
      </trkpt>
      <trkpt lat="43.83576" lon="4.20556">
        <ele>232.8</ele>
        <time>2026-05-09T08:04:41.000Z</time>
      </trkpt>
      <trkpt lat="43.83576" lon="4.20555">
        <ele>232.7</ele>
        <time>2026-05-09T08:04:42.000Z</time>
      </trkpt>
      <trkpt lat="43.83576" lon="4.20555">
        <ele>232.7</ele>
        <time>2026-05-09T08:04:43.000Z</time>
      </trkpt>
      <trkpt lat="43.83575" lon="4.20553">
        <ele>232.6</ele>
        <time>2026-05-09T08:04:44.000Z</time>
      </trkpt>
      <trkpt lat="43.83575" lon="4.20552">
        <ele>232.9</ele>
        <time>2026-05-09T08:04:45.000Z</time>
      </trkpt>
      <trkpt lat="43.83574" lon="4.20551">
        <ele>233.6</ele>
        <time>2026-05-09T08:04:46.000Z</time>
      </trkpt>
      <trkpt lat="43.83574" lon="4.20551">
        <ele>234</ele>
        <time>2026-05-09T08:04:47.000Z</time>
      </trkpt>
      <trkpt lat="43.83573" lon="4.2055">
        <ele>234</ele>
        <time>2026-05-09T08:04:48.000Z</time>
      </trkpt>
      <trkpt lat="43.83573" lon="4.20549">
        <ele>233.9</ele>
        <time>2026-05-09T08:04:49.000Z</time>
      </trkpt>
      <trkpt lat="43.83573" lon="4.20548">
        <ele>233.9</ele>
        <time>2026-05-09T08:04:50.000Z</time>
      </trkpt>
      <trkpt lat="43.83572" lon="4.20547">
        <ele>233.6</ele>
        <time>2026-05-09T08:04:51.000Z</time>
      </trkpt>
      <trkpt lat="43.83571" lon="4.20546">
        <ele>233.6</ele>
        <time>2026-05-09T08:04:52.000Z</time>
      </trkpt>
      <trkpt lat="43.83571" lon="4.20545">
        <ele>233.8</ele>
        <time>2026-05-09T08:04:53.000Z</time>
      </trkpt>
      <trkpt lat="43.8357" lon="4.20544">
        <ele>234</ele>
        <time>2026-05-09T08:04:54.000Z</time>
      </trkpt>
      <trkpt lat="43.8357" lon="4.20544">
        <ele>235</ele>
        <time>2026-05-09T08:04:55.000Z</time>
      </trkpt>
      <trkpt lat="43.8357" lon="4.20543">
        <ele>235.9</ele>
        <time>2026-05-09T08:04:56.000Z</time>
      </trkpt>
      <trkpt lat="43.8357" lon="4.20543">
        <ele>236.5</ele>
        <time>2026-05-09T08:04:57.000Z</time>
      </trkpt>
      <trkpt lat="43.8357" lon="4.20543">
        <ele>236.6</ele>
        <time>2026-05-09T08:04:58.000Z</time>
      </trkpt>
      <trkpt lat="43.8357" lon="4.20543">
        <ele>236.7</ele>
        <time>2026-05-09T08:04:59.000Z</time>
      </trkpt>
      <trkpt lat="43.8357" lon="4.20541">
        <ele>236.6</ele>
        <time>2026-05-09T08:05:00.000Z</time>
      </trkpt>
      <trkpt lat="43.8357" lon="4.2054">
        <ele>236.9</ele>
        <time>2026-05-09T08:05:01.000Z</time>
      </trkpt>
      <trkpt lat="43.83571" lon="4.20538">
        <ele>236.6</ele>
        <time>2026-05-09T08:05:02.000Z</time>
      </trkpt>
      <trkpt lat="43.83571" lon="4.20538">
        <ele>236</ele>
        <time>2026-05-09T08:05:03.000Z</time>
      </trkpt>
      <trkpt lat="43.83571" lon="4.20536">
        <ele>235.8</ele>
        <time>2026-05-09T08:05:04.000Z</time>
      </trkpt>
      <trkpt lat="43.83571" lon="4.20534">
        <ele>235.4</ele>
        <time>2026-05-09T08:05:05.000Z</time>
      </trkpt>
      <trkpt lat="43.83572" lon="4.20532">
        <ele>235</ele>
        <time>2026-05-09T08:05:06.000Z</time>
      </trkpt>
      <trkpt lat="43.83572" lon="4.2053">
        <ele>235.2</ele>
        <time>2026-05-09T08:05:07.000Z</time>
      </trkpt>
      <trkpt lat="43.83572" lon="4.20529">
        <ele>235.4</ele>
        <time>2026-05-09T08:05:08.000Z</time>
      </trkpt>
      <trkpt lat="43.83572" lon="4.20527">
        <ele>235.5</ele>
        <time>2026-05-09T08:05:09.000Z</time>
      </trkpt>
      <trkpt lat="43.83573" lon="4.20526">
        <ele>235.8</ele>
        <time>2026-05-09T08:05:10.000Z</time>
      </trkpt>
      <trkpt lat="43.83572" lon="4.20525">
        <ele>235.9</ele>
        <time>2026-05-09T08:05:11.000Z</time>
      </trkpt>
      <trkpt lat="43.83572" lon="4.20523">
        <ele>236</ele>
        <time>2026-05-09T08:05:12.000Z</time>
      </trkpt>
      <trkpt lat="43.83573" lon="4.20522">
        <ele>236.2</ele>
        <time>2026-05-09T08:05:13.000Z</time>
      </trkpt>
      <trkpt lat="43.83573" lon="4.20521">
        <ele>236.3</ele>
        <time>2026-05-09T08:05:14.000Z</time>
      </trkpt>
      <trkpt lat="43.83573" lon="4.2052">
        <ele>236.4</ele>
        <time>2026-05-09T08:05:15.000Z</time>
      </trkpt>
      <trkpt lat="43.83573" lon="4.20519">
        <ele>236.4</ele>
        <time>2026-05-09T08:05:16.000Z</time>
      </trkpt>
      <trkpt lat="43.83573" lon="4.20518">
        <ele>236.4</ele>
        <time>2026-05-09T08:05:17.000Z</time>
      </trkpt>
      <trkpt lat="43.83573" lon="4.20518">
        <ele>236.6</ele>
        <time>2026-05-09T08:05:18.000Z</time>
      </trkpt>
      <trkpt lat="43.83573" lon="4.20518">
        <ele>236.6</ele>
        <time>2026-05-09T08:05:19.000Z</time>
      </trkpt>
      <trkpt lat="43.83573" lon="4.20518">
        <ele>236.5</ele>
        <time>2026-05-09T08:05:20.000Z</time>
      </trkpt>
      <trkpt lat="43.83572" lon="4.20517">
        <ele>236.3</ele>
        <time>2026-05-09T08:05:21.000Z</time>
      </trkpt>
      <trkpt lat="43.83571" lon="4.20517">
        <ele>236.1</ele>
        <time>2026-05-09T08:05:22.000Z</time>
      </trkpt>
      <trkpt lat="43.8357" lon="4.20516">
        <ele>236.3</ele>
        <time>2026-05-09T08:05:23.000Z</time>
      </trkpt>
      <trkpt lat="43.8357" lon="4.20516">
        <ele>236.6</ele>
        <time>2026-05-09T08:05:24.000Z</time>
      </trkpt>
      <trkpt lat="43.83569" lon="4.20516">
        <ele>236.9</ele>
        <time>2026-05-09T08:05:25.000Z</time>
      </trkpt>
      <trkpt lat="43.83568" lon="4.20515">
        <ele>236.7</ele>
        <time>2026-05-09T08:05:26.000Z</time>
      </trkpt>
      <trkpt lat="43.83568" lon="4.20515">
        <ele>236.8</ele>
        <time>2026-05-09T08:05:27.000Z</time>
      </trkpt>
      <trkpt lat="43.83567" lon="4.20515">
        <ele>236.8</ele>
        <time>2026-05-09T08:05:28.000Z</time>
      </trkpt>
      <trkpt lat="43.83567" lon="4.20514">
        <ele>236.8</ele>
        <time>2026-05-09T08:05:29.000Z</time>
      </trkpt>
      <trkpt lat="43.83566" lon="4.20512">
        <ele>236.7</ele>
        <time>2026-05-09T08:05:30.000Z</time>
      </trkpt>
      <trkpt lat="43.83566" lon="4.20511">
        <ele>236.8</ele>
        <time>2026-05-09T08:05:31.000Z</time>
      </trkpt>
      <trkpt lat="43.83564" lon="4.20511">
        <ele>236.6</ele>
        <time>2026-05-09T08:05:32.000Z</time>
      </trkpt>
      <trkpt lat="43.83563" lon="4.2051">
        <ele>236.4</ele>
        <time>2026-05-09T08:05:33.000Z</time>
      </trkpt>
      <trkpt lat="43.83562" lon="4.20509">
        <ele>236.2</ele>
        <time>2026-05-09T08:05:34.000Z</time>
      </trkpt>
      <trkpt lat="43.83561" lon="4.20508">
        <ele>236.3</ele>
        <time>2026-05-09T08:05:35.000Z</time>
      </trkpt>
      <trkpt lat="43.8356" lon="4.20508">
        <ele>236.1</ele>
        <time>2026-05-09T08:05:36.000Z</time>
      </trkpt>
      <trkpt lat="43.83559" lon="4.20507">
        <ele>236.1</ele>
        <time>2026-05-09T08:05:37.000Z</time>
      </trkpt>
      <trkpt lat="43.83558" lon="4.20506">
        <ele>236.3</ele>
        <time>2026-05-09T08:05:38.000Z</time>
      </trkpt>
      <trkpt lat="43.83558" lon="4.20505">
        <ele>236.4</ele>
        <time>2026-05-09T08:05:39.000Z</time>
      </trkpt>
      <trkpt lat="43.83557" lon="4.20505">
        <ele>236.5</ele>
        <time>2026-05-09T08:05:40.000Z</time>
      </trkpt>
      <trkpt lat="43.83555" lon="4.20503">
        <ele>236.2</ele>
        <time>2026-05-09T08:05:41.000Z</time>
      </trkpt>
      <trkpt lat="43.83554" lon="4.20502">
        <ele>235.7</ele>
        <time>2026-05-09T08:05:42.000Z</time>
      </trkpt>
      <trkpt lat="43.83553" lon="4.20501">
        <ele>235.2</ele>
        <time>2026-05-09T08:05:43.000Z</time>
      </trkpt>
      <trkpt lat="43.83553" lon="4.20501">
        <ele>235</ele>
        <time>2026-05-09T08:05:44.000Z</time>
      </trkpt>
      <trkpt lat="43.83552" lon="4.205">
        <ele>235.1</ele>
        <time>2026-05-09T08:05:45.000Z</time>
      </trkpt>
      <trkpt lat="43.83552" lon="4.205">
        <ele>235.1</ele>
        <time>2026-05-09T08:05:46.000Z</time>
      </trkpt>
      <trkpt lat="43.83551" lon="4.205">
        <ele>234.8</ele>
        <time>2026-05-09T08:05:47.000Z</time>
      </trkpt>
      <trkpt lat="43.83551" lon="4.20499">
        <ele>234.5</ele>
        <time>2026-05-09T08:05:48.000Z</time>
      </trkpt>
      <trkpt lat="43.8355" lon="4.20498">
        <ele>234.1</ele>
        <time>2026-05-09T08:05:49.000Z</time>
      </trkpt>
      <trkpt lat="43.8355" lon="4.20497">
        <ele>233.9</ele>
        <time>2026-05-09T08:05:50.000Z</time>
      </trkpt>
      <trkpt lat="43.83549" lon="4.20497">
        <ele>233.8</ele>
        <time>2026-05-09T08:05:51.000Z</time>
      </trkpt>
      <trkpt lat="43.83548" lon="4.20497">
        <ele>234</ele>
        <time>2026-05-09T08:05:52.000Z</time>
      </trkpt>
      <trkpt lat="43.83548" lon="4.20498">
        <ele>234.3</ele>
        <time>2026-05-09T08:05:53.000Z</time>
      </trkpt>
      <trkpt lat="43.83547" lon="4.20498">
        <ele>234.6</ele>
        <time>2026-05-09T08:05:54.000Z</time>
      </trkpt>
      <trkpt lat="43.83547" lon="4.20498">
        <ele>234.7</ele>
        <time>2026-05-09T08:05:55.000Z</time>
      </trkpt>
      <trkpt lat="43.83547" lon="4.20497">
        <ele>234.6</ele>
        <time>2026-05-09T08:05:56.000Z</time>
      </trkpt>
      <trkpt lat="43.83546" lon="4.20497">
        <ele>234.5</ele>
        <time>2026-05-09T08:05:57.000Z</time>
      </trkpt>
      <trkpt lat="43.83546" lon="4.20496">
        <ele>234.2</ele>
        <time>2026-05-09T08:05:58.000Z</time>
      </trkpt>
      <trkpt lat="43.83546" lon="4.20496">
        <ele>234</ele>
        <time>2026-05-09T08:05:59.000Z</time>
      </trkpt>
      <trkpt lat="43.83546" lon="4.20496">
        <ele>234.8</ele>
        <time>2026-05-09T08:06:00.000Z</time>
      </trkpt>
      <trkpt lat="43.83546" lon="4.20496">
        <ele>234.8</ele>
        <time>2026-05-09T08:06:01.000Z</time>
      </trkpt>
      <trkpt lat="43.83546" lon="4.20496">
        <ele>234.7</ele>
        <time>2026-05-09T08:06:02.000Z</time>
      </trkpt>
      <trkpt lat="43.83545" lon="4.20496">
        <ele>234.6</ele>
        <time>2026-05-09T08:06:03.000Z</time>
      </trkpt>
      <trkpt lat="43.83545" lon="4.20495">
        <ele>234.9</ele>
        <time>2026-05-09T08:06:04.000Z</time>
      </trkpt>
      <trkpt lat="43.83544" lon="4.20495">
        <ele>234.8</ele>
        <time>2026-05-09T08:06:05.000Z</time>
      </trkpt>
      <trkpt lat="43.83544" lon="4.20493">
        <ele>234.7</ele>
        <time>2026-05-09T08:06:06.000Z</time>
      </trkpt>
      <trkpt lat="43.83543" lon="4.20493">
        <ele>234.5</ele>
        <time>2026-05-09T08:06:07.000Z</time>
      </trkpt>
      <trkpt lat="43.83543" lon="4.20493">
        <ele>234.6</ele>
        <time>2026-05-09T08:06:08.000Z</time>
      </trkpt>
      <trkpt lat="43.83543" lon="4.20492">
        <ele>234.8</ele>
        <time>2026-05-09T08:06:09.000Z</time>
      </trkpt>
      <trkpt lat="43.83543" lon="4.20492">
        <ele>234.7</ele>
        <time>2026-05-09T08:06:10.000Z</time>
      </trkpt>
      <trkpt lat="43.83543" lon="4.20492">
        <ele>234.6</ele>
        <time>2026-05-09T08:06:11.000Z</time>
      </trkpt>
      <trkpt lat="43.83543" lon="4.20491">
        <ele>234.8</ele>
        <time>2026-05-09T08:06:12.000Z</time>
      </trkpt>
      <trkpt lat="43.83542" lon="4.20491">
        <ele>235</ele>
        <time>2026-05-09T08:06:13.000Z</time>
      </trkpt>
      <trkpt lat="43.83542" lon="4.20491">
        <ele>235</ele>
        <time>2026-05-09T08:06:14.000Z</time>
      </trkpt>
      <trkpt lat="43.83542" lon="4.20491">
        <ele>235</ele>
        <time>2026-05-09T08:06:15.000Z</time>
      </trkpt>
      <trkpt lat="43.83542" lon="4.20491">
        <ele>235.1</ele>
        <time>2026-05-09T08:06:16.000Z</time>
      </trkpt>
      <trkpt lat="43.8354" lon="4.2049">
        <ele>235.2</ele>
        <time>2026-05-09T08:06:17.000Z</time>
      </trkpt>
      <trkpt lat="43.83538" lon="4.20487">
        <ele>235.3</ele>
        <time>2026-05-09T08:06:18.000Z</time>
      </trkpt>
      <trkpt lat="43.83536" lon="4.20485">
        <ele>235.2</ele>
        <time>2026-05-09T08:06:19.000Z</time>
      </trkpt>
      <trkpt lat="43.83534" lon="4.20482">
        <ele>235.9</ele>
        <time>2026-05-09T08:06:20.000Z</time>
      </trkpt>
      <trkpt lat="43.83533" lon="4.20479">
        <ele>236.4</ele>
        <time>2026-05-09T08:06:21.000Z</time>
      </trkpt>
      <trkpt lat="43.83531" lon="4.20477">
        <ele>236.5</ele>
        <time>2026-05-09T08:06:22.000Z</time>
      </trkpt>
      <trkpt lat="43.83529" lon="4.20476">
        <ele>236.9</ele>
        <time>2026-05-09T08:06:23.000Z</time>
      </trkpt>
      <trkpt lat="43.83528" lon="4.20474">
        <ele>236.8</ele>
        <time>2026-05-09T08:06:24.000Z</time>
      </trkpt>
      <trkpt lat="43.83526" lon="4.20473">
        <ele>236.9</ele>
        <time>2026-05-09T08:06:25.000Z</time>
      </trkpt>
      <trkpt lat="43.83525" lon="4.20473">
        <ele>236.9</ele>
        <time>2026-05-09T08:06:26.000Z</time>
      </trkpt>
      <trkpt lat="43.83524" lon="4.20472">
        <ele>236.8</ele>
        <time>2026-05-09T08:06:27.000Z</time>
      </trkpt>
      <trkpt lat="43.83523" lon="4.20472">
        <ele>237</ele>
        <time>2026-05-09T08:06:28.000Z</time>
      </trkpt>
      <trkpt lat="43.83522" lon="4.20471">
        <ele>236.7</ele>
        <time>2026-05-09T08:06:29.000Z</time>
      </trkpt>
      <trkpt lat="43.83522" lon="4.20469">
        <ele>236.9</ele>
        <time>2026-05-09T08:06:30.000Z</time>
      </trkpt>
      <trkpt lat="43.83522" lon="4.20468">
        <ele>236.9</ele>
        <time>2026-05-09T08:06:31.000Z</time>
      </trkpt>
      <trkpt lat="43.83522" lon="4.20468">
        <ele>238</ele>
        <time>2026-05-09T08:06:32.000Z</time>
      </trkpt>
      <trkpt lat="43.83522" lon="4.20468">
        <ele>237.7</ele>
        <time>2026-05-09T08:06:33.000Z</time>
      </trkpt>
      <trkpt lat="43.83522" lon="4.20468">
        <ele>237.3</ele>
        <time>2026-05-09T08:06:34.000Z</time>
      </trkpt>
      <trkpt lat="43.83521" lon="4.20467">
        <ele>237.4</ele>
        <time>2026-05-09T08:06:35.000Z</time>
      </trkpt>
      <trkpt lat="43.83521" lon="4.20467">
        <ele>237.5</ele>
        <time>2026-05-09T08:06:36.000Z</time>
      </trkpt>
      <trkpt lat="43.83521" lon="4.20467">
        <ele>237.6</ele>
        <time>2026-05-09T08:06:37.000Z</time>
      </trkpt>
      <trkpt lat="43.83521" lon="4.20467">
        <ele>237.7</ele>
        <time>2026-05-09T08:06:38.000Z</time>
      </trkpt>
      <trkpt lat="43.83521" lon="4.20467">
        <ele>237.8</ele>
        <time>2026-05-09T08:06:39.000Z</time>
      </trkpt>
      <trkpt lat="43.83521" lon="4.20467">
        <ele>237.7</ele>
        <time>2026-05-09T08:06:40.000Z</time>
      </trkpt>
      <trkpt lat="43.83521" lon="4.20466">
        <ele>237.6</ele>
        <time>2026-05-09T08:06:41.000Z</time>
      </trkpt>
      <trkpt lat="43.8352" lon="4.20465">
        <ele>237.4</ele>
        <time>2026-05-09T08:06:42.000Z</time>
      </trkpt>
      <trkpt lat="43.8352" lon="4.20464">
        <ele>237.4</ele>
        <time>2026-05-09T08:06:43.000Z</time>
      </trkpt>
      <trkpt lat="43.83519" lon="4.20463">
        <ele>237.3</ele>
        <time>2026-05-09T08:06:44.000Z</time>
      </trkpt>
      <trkpt lat="43.83519" lon="4.20463">
        <ele>237.3</ele>
        <time>2026-05-09T08:06:45.000Z</time>
      </trkpt>
      <trkpt lat="43.83519" lon="4.20462">
        <ele>237.2</ele>
        <time>2026-05-09T08:06:46.000Z</time>
      </trkpt>
      <trkpt lat="43.83519" lon="4.20462">
        <ele>237</ele>
        <time>2026-05-09T08:06:47.000Z</time>
      </trkpt>
      <trkpt lat="43.83518" lon="4.20461">
        <ele>236.8</ele>
        <time>2026-05-09T08:06:48.000Z</time>
      </trkpt>
      <trkpt lat="43.83516" lon="4.20459">
        <ele>236.5</ele>
        <time>2026-05-09T08:06:49.000Z</time>
      </trkpt>
      <trkpt lat="43.83515" lon="4.20458">
        <ele>236.3</ele>
        <time>2026-05-09T08:06:50.000Z</time>
      </trkpt>
      <trkpt lat="43.83515" lon="4.20457">
        <ele>236.2</ele>
        <time>2026-05-09T08:06:51.000Z</time>
      </trkpt>
      <trkpt lat="43.83514" lon="4.20456">
        <ele>236.3</ele>
        <time>2026-05-09T08:06:52.000Z</time>
      </trkpt>
      <trkpt lat="43.83513" lon="4.20453">
        <ele>236.3</ele>
        <time>2026-05-09T08:06:53.000Z</time>
      </trkpt>
      <trkpt lat="43.83512" lon="4.20451">
        <ele>236.5</ele>
        <time>2026-05-09T08:06:54.000Z</time>
      </trkpt>
      <trkpt lat="43.83512" lon="4.2045">
        <ele>236.6</ele>
        <time>2026-05-09T08:06:55.000Z</time>
      </trkpt>
      <trkpt lat="43.83511" lon="4.20449">
        <ele>236.6</ele>
        <time>2026-05-09T08:06:56.000Z</time>
      </trkpt>
      <trkpt lat="43.8351" lon="4.20448">
        <ele>236.6</ele>
        <time>2026-05-09T08:06:57.000Z</time>
      </trkpt>
      <trkpt lat="43.83508" lon="4.20447">
        <ele>236.7</ele>
        <time>2026-05-09T08:06:58.000Z</time>
      </trkpt>
      <trkpt lat="43.83508" lon="4.20447">
        <ele>236.9</ele>
        <time>2026-05-09T08:06:59.000Z</time>
      </trkpt>
      <trkpt lat="43.83507" lon="4.20446">
        <ele>237.2</ele>
        <time>2026-05-09T08:07:00.000Z</time>
      </trkpt>
      <trkpt lat="43.83506" lon="4.20446">
        <ele>237.3</ele>
        <time>2026-05-09T08:07:01.000Z</time>
      </trkpt>
      <trkpt lat="43.83506" lon="4.20446">
        <ele>237.7</ele>
        <time>2026-05-09T08:07:02.000Z</time>
      </trkpt>
      <trkpt lat="43.83506" lon="4.20445">
        <ele>238</ele>
        <time>2026-05-09T08:07:03.000Z</time>
      </trkpt>
      <trkpt lat="43.83506" lon="4.20445">
        <ele>238.3</ele>
        <time>2026-05-09T08:07:04.000Z</time>
      </trkpt>
      <trkpt lat="43.83505" lon="4.20445">
        <ele>238.6</ele>
        <time>2026-05-09T08:07:05.000Z</time>
      </trkpt>
      <trkpt lat="43.83505" lon="4.20444">
        <ele>238.9</ele>
        <time>2026-05-09T08:07:06.000Z</time>
      </trkpt>
      <trkpt lat="43.83505" lon="4.20444">
        <ele>239.3</ele>
        <time>2026-05-09T08:07:07.000Z</time>
      </trkpt>
      <trkpt lat="43.83505" lon="4.20443">
        <ele>239.6</ele>
        <time>2026-05-09T08:07:08.000Z</time>
      </trkpt>
      <trkpt lat="43.83504" lon="4.20443">
        <ele>239.9</ele>
        <time>2026-05-09T08:07:09.000Z</time>
      </trkpt>
      <trkpt lat="43.83504" lon="4.20443">
        <ele>240.1</ele>
        <time>2026-05-09T08:07:10.000Z</time>
      </trkpt>
      <trkpt lat="43.83503" lon="4.20442">
        <ele>240.3</ele>
        <time>2026-05-09T08:07:11.000Z</time>
      </trkpt>
      <trkpt lat="43.83503" lon="4.20442">
        <ele>240.4</ele>
        <time>2026-05-09T08:07:12.000Z</time>
      </trkpt>
      <trkpt lat="43.83503" lon="4.20442">
        <ele>240.5</ele>
        <time>2026-05-09T08:07:13.000Z</time>
      </trkpt>
      <trkpt lat="43.83502" lon="4.20441">
        <ele>240.6</ele>
        <time>2026-05-09T08:07:14.000Z</time>
      </trkpt>
      <trkpt lat="43.83502" lon="4.2044">
        <ele>240.6</ele>
        <time>2026-05-09T08:07:15.000Z</time>
      </trkpt>
      <trkpt lat="43.835" lon="4.20438">
        <ele>240.5</ele>
        <time>2026-05-09T08:07:16.000Z</time>
      </trkpt>
      <trkpt lat="43.835" lon="4.20438">
        <ele>240.4</ele>
        <time>2026-05-09T08:07:17.000Z</time>
      </trkpt>
      <trkpt lat="43.835" lon="4.20438">
        <ele>240.3</ele>
        <time>2026-05-09T08:07:18.000Z</time>
      </trkpt>
      <trkpt lat="43.83498" lon="4.20436">
        <ele>240</ele>
        <time>2026-05-09T08:07:19.000Z</time>
      </trkpt>
      <trkpt lat="43.83497" lon="4.20435">
        <ele>239.9</ele>
        <time>2026-05-09T08:07:20.000Z</time>
      </trkpt>
      <trkpt lat="43.83496" lon="4.20434">
        <ele>240</ele>
        <time>2026-05-09T08:07:21.000Z</time>
      </trkpt>
      <trkpt lat="43.83494" lon="4.20433">
        <ele>240</ele>
        <time>2026-05-09T08:07:22.000Z</time>
      </trkpt>
      <trkpt lat="43.83493" lon="4.20432">
        <ele>239.9</ele>
        <time>2026-05-09T08:07:23.000Z</time>
      </trkpt>
      <trkpt lat="43.83491" lon="4.20431">
        <ele>239.9</ele>
        <time>2026-05-09T08:07:24.000Z</time>
      </trkpt>
      <trkpt lat="43.8349" lon="4.20429">
        <ele>240.1</ele>
        <time>2026-05-09T08:07:25.000Z</time>
      </trkpt>
      <trkpt lat="43.83489" lon="4.20428">
        <ele>240.1</ele>
        <time>2026-05-09T08:07:26.000Z</time>
      </trkpt>
      <trkpt lat="43.83488" lon="4.20426">
        <ele>239.8</ele>
        <time>2026-05-09T08:07:27.000Z</time>
      </trkpt>
      <trkpt lat="43.83487" lon="4.20425">
        <ele>239.7</ele>
        <time>2026-05-09T08:07:28.000Z</time>
      </trkpt>
      <trkpt lat="43.83487" lon="4.20424">
        <ele>239.4</ele>
        <time>2026-05-09T08:07:29.000Z</time>
      </trkpt>
      <trkpt lat="43.83485" lon="4.20422">
        <ele>239.1</ele>
        <time>2026-05-09T08:07:30.000Z</time>
      </trkpt>
      <trkpt lat="43.83483" lon="4.20418">
        <ele>239.1</ele>
        <time>2026-05-09T08:07:31.000Z</time>
      </trkpt>
      <trkpt lat="43.83482" lon="4.20416">
        <ele>239.2</ele>
        <time>2026-05-09T08:07:32.000Z</time>
      </trkpt>
      <trkpt lat="43.83481" lon="4.20413">
        <ele>239.4</ele>
        <time>2026-05-09T08:07:33.000Z</time>
      </trkpt>
      <trkpt lat="43.8348" lon="4.20412">
        <ele>239.3</ele>
        <time>2026-05-09T08:07:34.000Z</time>
      </trkpt>
      <trkpt lat="43.83479" lon="4.2041">
        <ele>239.4</ele>
        <time>2026-05-09T08:07:35.000Z</time>
      </trkpt>
      <trkpt lat="43.83477" lon="4.20408">
        <ele>239.6</ele>
        <time>2026-05-09T08:07:36.000Z</time>
      </trkpt>
      <trkpt lat="43.83477" lon="4.20407">
        <ele>239.9</ele>
        <time>2026-05-09T08:07:37.000Z</time>
      </trkpt>
      <trkpt lat="43.83475" lon="4.20406">
        <ele>240.2</ele>
        <time>2026-05-09T08:07:38.000Z</time>
      </trkpt>
      <trkpt lat="43.83474" lon="4.20404">
        <ele>240.3</ele>
        <time>2026-05-09T08:07:39.000Z</time>
      </trkpt>
      <trkpt lat="43.83474" lon="4.20404">
        <ele>240.2</ele>
        <time>2026-05-09T08:07:40.000Z</time>
      </trkpt>
      <trkpt lat="43.83473" lon="4.20403">
        <ele>240.3</ele>
        <time>2026-05-09T08:07:41.000Z</time>
      </trkpt>
      <trkpt lat="43.83473" lon="4.20403">
        <ele>240.1</ele>
        <time>2026-05-09T08:07:42.000Z</time>
      </trkpt>
      <trkpt lat="43.83472" lon="4.20403">
        <ele>240.2</ele>
        <time>2026-05-09T08:07:43.000Z</time>
      </trkpt>
      <trkpt lat="43.83472" lon="4.20402">
        <ele>240.4</ele>
        <time>2026-05-09T08:07:44.000Z</time>
      </trkpt>
      <trkpt lat="43.83471" lon="4.20401">
        <ele>240.5</ele>
        <time>2026-05-09T08:07:45.000Z</time>
      </trkpt>
      <trkpt lat="43.8347" lon="4.204">
        <ele>240.4</ele>
        <time>2026-05-09T08:07:46.000Z</time>
      </trkpt>
      <trkpt lat="43.8347" lon="4.20399">
        <ele>240.3</ele>
        <time>2026-05-09T08:07:47.000Z</time>
      </trkpt>
      <trkpt lat="43.8347" lon="4.20398">
        <ele>240</ele>
        <time>2026-05-09T08:07:48.000Z</time>
      </trkpt>
      <trkpt lat="43.83469" lon="4.20397">
        <ele>240.2</ele>
        <time>2026-05-09T08:07:49.000Z</time>
      </trkpt>
      <trkpt lat="43.83469" lon="4.20396">
        <ele>240.2</ele>
        <time>2026-05-09T08:07:50.000Z</time>
      </trkpt>
      <trkpt lat="43.83469" lon="4.20395">
        <ele>240.3</ele>
        <time>2026-05-09T08:07:51.000Z</time>
      </trkpt>
      <trkpt lat="43.83468" lon="4.20393">
        <ele>240.6</ele>
        <time>2026-05-09T08:07:52.000Z</time>
      </trkpt>
      <trkpt lat="43.83468" lon="4.20393">
        <ele>240.7</ele>
        <time>2026-05-09T08:07:53.000Z</time>
      </trkpt>
      <trkpt lat="43.83468" lon="4.20393">
        <ele>240.7</ele>
        <time>2026-05-09T08:07:54.000Z</time>
      </trkpt>
      <trkpt lat="43.83467" lon="4.20393">
        <ele>240.9</ele>
        <time>2026-05-09T08:07:55.000Z</time>
      </trkpt>
      <trkpt lat="43.83467" lon="4.20393">
        <ele>240.7</ele>
        <time>2026-05-09T08:07:56.000Z</time>
      </trkpt>
      <trkpt lat="43.83467" lon="4.20394">
        <ele>240.3</ele>
        <time>2026-05-09T08:07:57.000Z</time>
      </trkpt>
      <trkpt lat="43.83467" lon="4.20393">
        <ele>240.1</ele>
        <time>2026-05-09T08:07:58.000Z</time>
      </trkpt>
      <trkpt lat="43.83467" lon="4.20393">
        <ele>240.3</ele>
        <time>2026-05-09T08:07:59.000Z</time>
      </trkpt>
      <trkpt lat="43.83467" lon="4.20393">
        <ele>240.6</ele>
        <time>2026-05-09T08:08:00.000Z</time>
      </trkpt>
      <trkpt lat="43.83468" lon="4.20393">
        <ele>240.6</ele>
        <time>2026-05-09T08:08:01.000Z</time>
      </trkpt>
      <trkpt lat="43.83468" lon="4.20393">
        <ele>240.6</ele>
        <time>2026-05-09T08:08:02.000Z</time>
      </trkpt>
      <trkpt lat="43.83468" lon="4.20393">
        <ele>240.5</ele>
        <time>2026-05-09T08:08:03.000Z</time>
      </trkpt>
      <trkpt lat="43.83468" lon="4.20393">
        <ele>240.2</ele>
        <time>2026-05-09T08:08:04.000Z</time>
      </trkpt>
      <trkpt lat="43.83468" lon="4.20393">
        <ele>239.8</ele>
        <time>2026-05-09T08:08:05.000Z</time>
      </trkpt>
      <trkpt lat="43.83468" lon="4.20393">
        <ele>239.5</ele>
        <time>2026-05-09T08:08:06.000Z</time>
      </trkpt>
      <trkpt lat="43.83468" lon="4.20393">
        <ele>239.4</ele>
        <time>2026-05-09T08:08:07.000Z</time>
      </trkpt>
      <trkpt lat="43.83468" lon="4.20393">
        <ele>239.2</ele>
        <time>2026-05-09T08:08:08.000Z</time>
      </trkpt>
      <trkpt lat="43.83468" lon="4.20393">
        <ele>239.2</ele>
        <time>2026-05-09T08:08:09.000Z</time>
      </trkpt>
      <trkpt lat="43.83468" lon="4.20393">
        <ele>239.2</ele>
        <time>2026-05-09T08:08:10.000Z</time>
      </trkpt>
      <trkpt lat="43.83468" lon="4.20393">
        <ele>239.2</ele>
        <time>2026-05-09T08:08:11.000Z</time>
      </trkpt>
      <trkpt lat="43.83468" lon="4.20393">
        <ele>239.3</ele>
        <time>2026-05-09T08:08:12.000Z</time>
      </trkpt>
      <trkpt lat="43.83468" lon="4.20393">
        <ele>239.4</ele>
        <time>2026-05-09T08:08:13.000Z</time>
      </trkpt>
      <trkpt lat="43.83468" lon="4.20393">
        <ele>239.5</ele>
        <time>2026-05-09T08:08:14.000Z</time>
      </trkpt>
      <trkpt lat="43.83468" lon="4.20393">
        <ele>239.5</ele>
        <time>2026-05-09T08:08:15.000Z</time>
      </trkpt>
      <trkpt lat="43.83468" lon="4.20393">
        <ele>239.4</ele>
        <time>2026-05-09T08:08:16.000Z</time>
      </trkpt>
      <trkpt lat="43.83468" lon="4.20393">
        <ele>239.4</ele>
        <time>2026-05-09T08:08:17.000Z</time>
      </trkpt>
      <trkpt lat="43.83468" lon="4.20393">
        <ele>239.4</ele>
        <time>2026-05-09T08:08:18.000Z</time>
      </trkpt>
      <trkpt lat="43.83468" lon="4.20393">
        <ele>239.4</ele>
        <time>2026-05-09T08:08:19.000Z</time>
      </trkpt>
      <trkpt lat="43.83468" lon="4.20393">
        <ele>239.4</ele>
        <time>2026-05-09T08:08:20.000Z</time>
      </trkpt>
      <trkpt lat="43.83468" lon="4.20393">
        <ele>239.4</ele>
        <time>2026-05-09T08:08:21.000Z</time>
      </trkpt>
      <trkpt lat="43.83468" lon="4.20393">
        <ele>239.6</ele>
        <time>2026-05-09T08:08:22.000Z</time>
      </trkpt>
      <trkpt lat="43.83468" lon="4.20393">
        <ele>239.9</ele>
        <time>2026-05-09T08:08:23.000Z</time>
      </trkpt>
      <trkpt lat="43.83468" lon="4.20393">
        <ele>240</ele>
        <time>2026-05-09T08:08:24.000Z</time>
      </trkpt>
      <trkpt lat="43.83468" lon="4.20393">
        <ele>240.3</ele>
        <time>2026-05-09T08:08:25.000Z</time>
      </trkpt>
      <trkpt lat="43.83468" lon="4.20393">
        <ele>240.3</ele>
        <time>2026-05-09T08:08:26.000Z</time>
      </trkpt>
      <trkpt lat="43.83468" lon="4.20392">
        <ele>240.4</ele>
        <time>2026-05-09T08:08:27.000Z</time>
      </trkpt>
      <trkpt lat="43.83468" lon="4.2039">
        <ele>240.6</ele>
        <time>2026-05-09T08:08:28.000Z</time>
      </trkpt>
      <trkpt lat="43.83469" lon="4.20389">
        <ele>240.7</ele>
        <time>2026-05-09T08:08:29.000Z</time>
      </trkpt>
      <trkpt lat="43.83469" lon="4.20388">
        <ele>240.7</ele>
        <time>2026-05-09T08:08:30.000Z</time>
      </trkpt>
      <trkpt lat="43.8347" lon="4.20387">
        <ele>240.9</ele>
        <time>2026-05-09T08:08:31.000Z</time>
      </trkpt>
      <trkpt lat="43.83471" lon="4.20386">
        <ele>240.8</ele>
        <time>2026-05-09T08:08:32.000Z</time>
      </trkpt>
      <trkpt lat="43.83471" lon="4.20385">
        <ele>240.9</ele>
        <time>2026-05-09T08:08:33.000Z</time>
      </trkpt>
      <trkpt lat="43.83472" lon="4.20383">
        <ele>240.9</ele>
        <time>2026-05-09T08:08:34.999Z</time>
      </trkpt>
      <trkpt lat="43.83472" lon="4.20382">
        <ele>240.9</ele>
        <time>2026-05-09T08:08:35.999Z</time>
      </trkpt>
      <trkpt lat="43.83472" lon="4.2038">
        <ele>241</ele>
        <time>2026-05-09T08:08:36.999Z</time>
      </trkpt>
      <trkpt lat="43.83472" lon="4.20379">
        <ele>241</ele>
        <time>2026-05-09T08:08:37.999Z</time>
      </trkpt>
      <trkpt lat="43.83472" lon="4.20378">
        <ele>240.9</ele>
        <time>2026-05-09T08:08:38.999Z</time>
      </trkpt>
      <trkpt lat="43.83472" lon="4.20376">
        <ele>240.9</ele>
        <time>2026-05-09T08:08:39.999Z</time>
      </trkpt>
      <trkpt lat="43.83472" lon="4.20374">
        <ele>240.6</ele>
        <time>2026-05-09T08:08:40.999Z</time>
      </trkpt>
      <trkpt lat="43.83472" lon="4.20373">
        <ele>240.6</ele>
        <time>2026-05-09T08:08:41.999Z</time>
      </trkpt>
      <trkpt lat="43.83472" lon="4.20371">
        <ele>240.5</ele>
        <time>2026-05-09T08:08:42.999Z</time>
      </trkpt>
      <trkpt lat="43.83473" lon="4.2037">
        <ele>240.3</ele>
        <time>2026-05-09T08:08:43.999Z</time>
      </trkpt>
      <trkpt lat="43.83473" lon="4.20369">
        <ele>240.2</ele>
        <time>2026-05-09T08:08:44.999Z</time>
      </trkpt>
      <trkpt lat="43.83474" lon="4.20368">
        <ele>240</ele>
        <time>2026-05-09T08:08:45.999Z</time>
      </trkpt>
      <trkpt lat="43.83473" lon="4.20367">
        <ele>239.8</ele>
        <time>2026-05-09T08:08:46.999Z</time>
      </trkpt>
      <trkpt lat="43.83474" lon="4.20367">
        <ele>240.1</ele>
        <time>2026-05-09T08:08:47.999Z</time>
      </trkpt>
      <trkpt lat="43.83473" lon="4.20367">
        <ele>240.2</ele>
        <time>2026-05-09T08:08:48.999Z</time>
      </trkpt>
      <trkpt lat="43.83473" lon="4.20366">
        <ele>240.1</ele>
        <time>2026-05-09T08:08:49.999Z</time>
      </trkpt>
      <trkpt lat="43.83473" lon="4.20365">
        <ele>239.9</ele>
        <time>2026-05-09T08:08:50.999Z</time>
      </trkpt>
      <trkpt lat="43.83473" lon="4.20364">
        <ele>239.7</ele>
        <time>2026-05-09T08:08:51.999Z</time>
      </trkpt>
      <trkpt lat="43.83472" lon="4.20364">
        <ele>239.6</ele>
        <time>2026-05-09T08:08:52.999Z</time>
      </trkpt>
      <trkpt lat="43.83471" lon="4.20364">
        <ele>239.4</ele>
        <time>2026-05-09T08:08:53.999Z</time>
      </trkpt>
      <trkpt lat="43.83471" lon="4.20364">
        <ele>239</ele>
        <time>2026-05-09T08:08:54.999Z</time>
      </trkpt>
      <trkpt lat="43.8347" lon="4.20363">
        <ele>239</ele>
        <time>2026-05-09T08:08:55.999Z</time>
      </trkpt>
      <trkpt lat="43.8347" lon="4.20362">
        <ele>239</ele>
        <time>2026-05-09T08:08:56.999Z</time>
      </trkpt>
      <trkpt lat="43.8347" lon="4.20361">
        <ele>239.3</ele>
        <time>2026-05-09T08:08:57.999Z</time>
      </trkpt>
      <trkpt lat="43.8347" lon="4.2036">
        <ele>239.2</ele>
        <time>2026-05-09T08:08:58.999Z</time>
      </trkpt>
      <trkpt lat="43.8347" lon="4.20359">
        <ele>239.6</ele>
        <time>2026-05-09T08:08:59.999Z</time>
      </trkpt>
      <trkpt lat="43.8347" lon="4.20358">
        <ele>239.4</ele>
        <time>2026-05-09T08:09:00.999Z</time>
      </trkpt>
      <trkpt lat="43.8347" lon="4.20357">
        <ele>239.3</ele>
        <time>2026-05-09T08:09:01.999Z</time>
      </trkpt>
      <trkpt lat="43.8347" lon="4.20356">
        <ele>239.3</ele>
        <time>2026-05-09T08:09:02.999Z</time>
      </trkpt>
      <trkpt lat="43.8347" lon="4.20354">
        <ele>239.5</ele>
        <time>2026-05-09T08:09:03.999Z</time>
      </trkpt>
      <trkpt lat="43.8347" lon="4.20353">
        <ele>239.4</ele>
        <time>2026-05-09T08:09:04.999Z</time>
      </trkpt>
      <trkpt lat="43.8347" lon="4.20352">
        <ele>239.2</ele>
        <time>2026-05-09T08:09:05.999Z</time>
      </trkpt>
      <trkpt lat="43.83471" lon="4.20351">
        <ele>239.1</ele>
        <time>2026-05-09T08:09:06.999Z</time>
      </trkpt>
      <trkpt lat="43.83471" lon="4.20349">
        <ele>239</ele>
        <time>2026-05-09T08:09:07.999Z</time>
      </trkpt>
      <trkpt lat="43.83471" lon="4.20348">
        <ele>238.8</ele>
        <time>2026-05-09T08:09:08.999Z</time>
      </trkpt>
      <trkpt lat="43.83471" lon="4.20347">
        <ele>238.7</ele>
        <time>2026-05-09T08:09:09.999Z</time>
      </trkpt>
      <trkpt lat="43.83471" lon="4.20345">
        <ele>238.9</ele>
        <time>2026-05-09T08:09:10.999Z</time>
      </trkpt>
      <trkpt lat="43.83471" lon="4.20344">
        <ele>239</ele>
        <time>2026-05-09T08:09:11.999Z</time>
      </trkpt>
      <trkpt lat="43.83471" lon="4.20343">
        <ele>238.7</ele>
        <time>2026-05-09T08:09:12.999Z</time>
      </trkpt>
      <trkpt lat="43.83471" lon="4.20343">
        <ele>239.2</ele>
        <time>2026-05-09T08:09:13.999Z</time>
      </trkpt>
      <trkpt lat="43.83471" lon="4.20342">
        <ele>239.2</ele>
        <time>2026-05-09T08:09:14.999Z</time>
      </trkpt>
      <trkpt lat="43.83472" lon="4.20341">
        <ele>239.6</ele>
        <time>2026-05-09T08:09:15.999Z</time>
      </trkpt>
      <trkpt lat="43.83473" lon="4.2034">
        <ele>239.6</ele>
        <time>2026-05-09T08:09:16.999Z</time>
      </trkpt>
      <trkpt lat="43.83474" lon="4.20339">
        <ele>239.6</ele>
        <time>2026-05-09T08:09:17.999Z</time>
      </trkpt>
      <trkpt lat="43.83474" lon="4.20339">
        <ele>239.4</ele>
        <time>2026-05-09T08:09:18.999Z</time>
      </trkpt>
      <trkpt lat="43.83475" lon="4.20338">
        <ele>239.7</ele>
        <time>2026-05-09T08:09:19.999Z</time>
      </trkpt>
      <trkpt lat="43.83475" lon="4.20337">
        <ele>239.9</ele>
        <time>2026-05-09T08:09:20.999Z</time>
      </trkpt>
      <trkpt lat="43.83476" lon="4.20336">
        <ele>240.1</ele>
        <time>2026-05-09T08:09:21.999Z</time>
      </trkpt>
      <trkpt lat="43.83477" lon="4.20336">
        <ele>240.6</ele>
        <time>2026-05-09T08:09:22.999Z</time>
      </trkpt>
      <trkpt lat="43.83477" lon="4.20335">
        <ele>241.1</ele>
        <time>2026-05-09T08:09:23.999Z</time>
      </trkpt>
      <trkpt lat="43.83478" lon="4.20334">
        <ele>241.2</ele>
        <time>2026-05-09T08:09:24.999Z</time>
      </trkpt>
      <trkpt lat="43.83479" lon="4.20334">
        <ele>241.4</ele>
        <time>2026-05-09T08:09:25.999Z</time>
      </trkpt>
      <trkpt lat="43.8348" lon="4.20333">
        <ele>241.5</ele>
        <time>2026-05-09T08:09:26.999Z</time>
      </trkpt>
      <trkpt lat="43.8348" lon="4.20332">
        <ele>241.3</ele>
        <time>2026-05-09T08:09:27.999Z</time>
      </trkpt>
      <trkpt lat="43.83481" lon="4.20332">
        <ele>241.5</ele>
        <time>2026-05-09T08:09:28.999Z</time>
      </trkpt>
      <trkpt lat="43.83482" lon="4.20331">
        <ele>241.8</ele>
        <time>2026-05-09T08:09:29.999Z</time>
      </trkpt>
      <trkpt lat="43.83482" lon="4.2033">
        <ele>241.6</ele>
        <time>2026-05-09T08:09:30.999Z</time>
      </trkpt>
      <trkpt lat="43.83482" lon="4.20328">
        <ele>241.7</ele>
        <time>2026-05-09T08:09:31.999Z</time>
      </trkpt>
      <trkpt lat="43.83483" lon="4.20328">
        <ele>241.7</ele>
        <time>2026-05-09T08:09:32.999Z</time>
      </trkpt>
      <trkpt lat="43.83483" lon="4.20327">
        <ele>241.7</ele>
        <time>2026-05-09T08:09:33.999Z</time>
      </trkpt>
      <trkpt lat="43.83483" lon="4.20326">
        <ele>241.5</ele>
        <time>2026-05-09T08:09:34.999Z</time>
      </trkpt>
      <trkpt lat="43.83483" lon="4.20326">
        <ele>242.2</ele>
        <time>2026-05-09T08:09:35.999Z</time>
      </trkpt>
      <trkpt lat="43.83483" lon="4.20325">
        <ele>242.1</ele>
        <time>2026-05-09T08:09:36.999Z</time>
      </trkpt>
      <trkpt lat="43.83484" lon="4.20324">
        <ele>243.1</ele>
        <time>2026-05-09T08:09:37.999Z</time>
      </trkpt>
      <trkpt lat="43.83485" lon="4.20322">
        <ele>243.5</ele>
        <time>2026-05-09T08:09:38.999Z</time>
      </trkpt>
      <trkpt lat="43.83485" lon="4.20321">
        <ele>243.5</ele>
        <time>2026-05-09T08:09:39.999Z</time>
      </trkpt>
      <trkpt lat="43.83485" lon="4.2032">
        <ele>243.3</ele>
        <time>2026-05-09T08:09:40.999Z</time>
      </trkpt>
      <trkpt lat="43.83485" lon="4.20319">
        <ele>243.1</ele>
        <time>2026-05-09T08:09:41.999Z</time>
      </trkpt>
      <trkpt lat="43.83486" lon="4.20319">
        <ele>243.1</ele>
        <time>2026-05-09T08:09:42.999Z</time>
      </trkpt>
      <trkpt lat="43.83486" lon="4.20318">
        <ele>243.8</ele>
        <time>2026-05-09T08:09:43.999Z</time>
      </trkpt>
      <trkpt lat="43.83486" lon="4.20318">
        <ele>243.8</ele>
        <time>2026-05-09T08:09:44.999Z</time>
      </trkpt>
      <trkpt lat="43.83486" lon="4.20318">
        <ele>243.8</ele>
        <time>2026-05-09T08:09:45.999Z</time>
      </trkpt>
      <trkpt lat="43.83486" lon="4.20318">
        <ele>244.1</ele>
        <time>2026-05-09T08:09:46.999Z</time>
      </trkpt>
      <trkpt lat="43.83486" lon="4.20318">
        <ele>244.5</ele>
        <time>2026-05-09T08:09:47.999Z</time>
      </trkpt>
      <trkpt lat="43.83486" lon="4.20318">
        <ele>244.7</ele>
        <time>2026-05-09T08:09:48.999Z</time>
      </trkpt>
      <trkpt lat="43.83486" lon="4.20318">
        <ele>244.8</ele>
        <time>2026-05-09T08:09:49.999Z</time>
      </trkpt>
      <trkpt lat="43.83486" lon="4.20317">
        <ele>244.7</ele>
        <time>2026-05-09T08:09:50.999Z</time>
      </trkpt>
      <trkpt lat="43.83486" lon="4.20316">
        <ele>244.7</ele>
        <time>2026-05-09T08:09:51.999Z</time>
      </trkpt>
      <trkpt lat="43.83486" lon="4.20313">
        <ele>244.7</ele>
        <time>2026-05-09T08:09:52.999Z</time>
      </trkpt>
      <trkpt lat="43.83487" lon="4.20311">
        <ele>244.8</ele>
        <time>2026-05-09T08:09:53.999Z</time>
      </trkpt>
      <trkpt lat="43.83488" lon="4.20309">
        <ele>245</ele>
        <time>2026-05-09T08:09:54.999Z</time>
      </trkpt>
      <trkpt lat="43.83488" lon="4.20308">
        <ele>245.1</ele>
        <time>2026-05-09T08:09:55.999Z</time>
      </trkpt>
      <trkpt lat="43.83488" lon="4.20307">
        <ele>245.3</ele>
        <time>2026-05-09T08:09:56.999Z</time>
      </trkpt>
      <trkpt lat="43.83487" lon="4.20307">
        <ele>245.1</ele>
        <time>2026-05-09T08:09:57.999Z</time>
      </trkpt>
      <trkpt lat="43.83487" lon="4.20307">
        <ele>245.2</ele>
        <time>2026-05-09T08:09:58.999Z</time>
      </trkpt>
      <trkpt lat="43.83487" lon="4.20307">
        <ele>245.5</ele>
        <time>2026-05-09T08:09:59.999Z</time>
      </trkpt>
      <trkpt lat="43.83487" lon="4.20306">
        <ele>245.6</ele>
        <time>2026-05-09T08:10:00.999Z</time>
      </trkpt>
      <trkpt lat="43.83487" lon="4.20306">
        <ele>245.4</ele>
        <time>2026-05-09T08:10:01.999Z</time>
      </trkpt>
      <trkpt lat="43.83487" lon="4.20306">
        <ele>245.3</ele>
        <time>2026-05-09T08:10:02.999Z</time>
      </trkpt>
      <trkpt lat="43.83487" lon="4.20306">
        <ele>245</ele>
        <time>2026-05-09T08:10:03.999Z</time>
      </trkpt>
      <trkpt lat="43.83487" lon="4.20305">
        <ele>244.8</ele>
        <time>2026-05-09T08:10:04.999Z</time>
      </trkpt>
      <trkpt lat="43.83487" lon="4.20305">
        <ele>244.5</ele>
        <time>2026-05-09T08:10:05.999Z</time>
      </trkpt>
      <trkpt lat="43.83487" lon="4.20303">
        <ele>244.4</ele>
        <time>2026-05-09T08:10:06.999Z</time>
      </trkpt>
      <trkpt lat="43.83487" lon="4.20301">
        <ele>244.3</ele>
        <time>2026-05-09T08:10:07.999Z</time>
      </trkpt>
      <trkpt lat="43.83487" lon="4.20298">
        <ele>244.2</ele>
        <time>2026-05-09T08:10:08.999Z</time>
      </trkpt>
      <trkpt lat="43.83487" lon="4.20297">
        <ele>244.1</ele>
        <time>2026-05-09T08:10:09.999Z</time>
      </trkpt>
      <trkpt lat="43.83487" lon="4.20295">
        <ele>244.1</ele>
        <time>2026-05-09T08:10:10.999Z</time>
      </trkpt>
      <trkpt lat="43.83487" lon="4.20293">
        <ele>243.9</ele>
        <time>2026-05-09T08:10:11.999Z</time>
      </trkpt>
      <trkpt lat="43.83487" lon="4.20291">
        <ele>243.7</ele>
        <time>2026-05-09T08:10:12.999Z</time>
      </trkpt>
      <trkpt lat="43.83487" lon="4.20291">
        <ele>243.7</ele>
        <time>2026-05-09T08:10:13.999Z</time>
      </trkpt>
      <trkpt lat="43.83488" lon="4.2029">
        <ele>243.8</ele>
        <time>2026-05-09T08:10:14.999Z</time>
      </trkpt>
      <trkpt lat="43.83488" lon="4.20289">
        <ele>243.8</ele>
        <time>2026-05-09T08:10:15.999Z</time>
      </trkpt>
      <trkpt lat="43.83489" lon="4.20289">
        <ele>243.8</ele>
        <time>2026-05-09T08:10:16.999Z</time>
      </trkpt>
      <trkpt lat="43.83489" lon="4.20288">
        <ele>243.7</ele>
        <time>2026-05-09T08:10:17.999Z</time>
      </trkpt>
      <trkpt lat="43.8349" lon="4.20286">
        <ele>243.6</ele>
        <time>2026-05-09T08:10:18.999Z</time>
      </trkpt>
      <trkpt lat="43.8349" lon="4.20285">
        <ele>243.5</ele>
        <time>2026-05-09T08:10:19.999Z</time>
      </trkpt>
      <trkpt lat="43.83491" lon="4.20284">
        <ele>242.9</ele>
        <time>2026-05-09T08:10:20.999Z</time>
      </trkpt>
      <trkpt lat="43.83491" lon="4.20283">
        <ele>242.7</ele>
        <time>2026-05-09T08:10:21.999Z</time>
      </trkpt>
      <trkpt lat="43.83491" lon="4.20282">
        <ele>242.3</ele>
        <time>2026-05-09T08:10:22.999Z</time>
      </trkpt>
      <trkpt lat="43.83491" lon="4.2028">
        <ele>242.1</ele>
        <time>2026-05-09T08:10:23.999Z</time>
      </trkpt>
      <trkpt lat="43.83491" lon="4.20279">
        <ele>241.8</ele>
        <time>2026-05-09T08:10:24.999Z</time>
      </trkpt>
      <trkpt lat="43.83491" lon="4.20278">
        <ele>241.6</ele>
        <time>2026-05-09T08:10:25.999Z</time>
      </trkpt>
      <trkpt lat="43.83491" lon="4.20277">
        <ele>241.4</ele>
        <time>2026-05-09T08:10:26.999Z</time>
      </trkpt>
      <trkpt lat="43.83491" lon="4.20277">
        <ele>241.8</ele>
        <time>2026-05-09T08:10:27.999Z</time>
      </trkpt>
      <trkpt lat="43.83491" lon="4.20277">
        <ele>241.5</ele>
        <time>2026-05-09T08:10:28.999Z</time>
      </trkpt>
      <trkpt lat="43.83491" lon="4.20277">
        <ele>241.5</ele>
        <time>2026-05-09T08:10:29.999Z</time>
      </trkpt>
      <trkpt lat="43.83491" lon="4.20277">
        <ele>241.4</ele>
        <time>2026-05-09T08:10:30.999Z</time>
      </trkpt>
      <trkpt lat="43.83491" lon="4.20277">
        <ele>241.4</ele>
        <time>2026-05-09T08:10:31.999Z</time>
      </trkpt>
      <trkpt lat="43.83491" lon="4.20276">
        <ele>241.2</ele>
        <time>2026-05-09T08:10:32.999Z</time>
      </trkpt>
      <trkpt lat="43.8349" lon="4.20276">
        <ele>240.8</ele>
        <time>2026-05-09T08:10:33.999Z</time>
      </trkpt>
      <trkpt lat="43.8349" lon="4.20276">
        <ele>240.6</ele>
        <time>2026-05-09T08:10:34.999Z</time>
      </trkpt>
      <trkpt lat="43.8349" lon="4.20276">
        <ele>240.5</ele>
        <time>2026-05-09T08:10:35.999Z</time>
      </trkpt>
      <trkpt lat="43.8349" lon="4.20276">
        <ele>240.2</ele>
        <time>2026-05-09T08:10:36.999Z</time>
      </trkpt>
      <trkpt lat="43.8349" lon="4.20276">
        <ele>239.9</ele>
        <time>2026-05-09T08:10:37.999Z</time>
      </trkpt>
      <trkpt lat="43.8349" lon="4.20276">
        <ele>239.6</ele>
        <time>2026-05-09T08:10:38.999Z</time>
      </trkpt>
      <trkpt lat="43.8349" lon="4.20275">
        <ele>239.3</ele>
        <time>2026-05-09T08:10:39.999Z</time>
      </trkpt>
      <trkpt lat="43.8349" lon="4.20275">
        <ele>239.3</ele>
        <time>2026-05-09T08:10:40.999Z</time>
      </trkpt>
      <trkpt lat="43.8349" lon="4.20275">
        <ele>239.3</ele>
        <time>2026-05-09T08:10:41.999Z</time>
      </trkpt>
      <trkpt lat="43.83489" lon="4.20275">
        <ele>239.3</ele>
        <time>2026-05-09T08:10:42.999Z</time>
      </trkpt>
      <trkpt lat="43.83489" lon="4.20275">
        <ele>239.3</ele>
        <time>2026-05-09T08:10:43.999Z</time>
      </trkpt>
      <trkpt lat="43.83489" lon="4.20275">
        <ele>239.4</ele>
        <time>2026-05-09T08:10:44.999Z</time>
      </trkpt>
      <trkpt lat="43.83489" lon="4.20275">
        <ele>239.2</ele>
        <time>2026-05-09T08:10:45.999Z</time>
      </trkpt>
      <trkpt lat="43.83489" lon="4.20275">
        <ele>239.2</ele>
        <time>2026-05-09T08:10:46.999Z</time>
      </trkpt>
      <trkpt lat="43.83489" lon="4.20275">
        <ele>239.1</ele>
        <time>2026-05-09T08:10:47.999Z</time>
      </trkpt>
      <trkpt lat="43.83489" lon="4.20275">
        <ele>238.9</ele>
        <time>2026-05-09T08:10:48.999Z</time>
      </trkpt>
      <trkpt lat="43.83489" lon="4.20274">
        <ele>238.7</ele>
        <time>2026-05-09T08:10:49.999Z</time>
      </trkpt>
      <trkpt lat="43.83489" lon="4.20274">
        <ele>238.5</ele>
        <time>2026-05-09T08:10:50.999Z</time>
      </trkpt>
      <trkpt lat="43.83489" lon="4.20274">
        <ele>238.4</ele>
        <time>2026-05-09T08:10:51.999Z</time>
      </trkpt>
      <trkpt lat="43.83488" lon="4.20274">
        <ele>238.3</ele>
        <time>2026-05-09T08:10:52.999Z</time>
      </trkpt>
      <trkpt lat="43.83488" lon="4.20274">
        <ele>238.2</ele>
        <time>2026-05-09T08:10:53.999Z</time>
      </trkpt>
      <trkpt lat="43.83488" lon="4.20274">
        <ele>237.9</ele>
        <time>2026-05-09T08:10:54.999Z</time>
      </trkpt>
      <trkpt lat="43.83488" lon="4.20274">
        <ele>237.9</ele>
        <time>2026-05-09T08:10:55.999Z</time>
      </trkpt>
      <trkpt lat="43.83488" lon="4.20274">
        <ele>238</ele>
        <time>2026-05-09T08:10:56.999Z</time>
      </trkpt>
      <trkpt lat="43.83488" lon="4.20274">
        <ele>238</ele>
        <time>2026-05-09T08:10:57.999Z</time>
      </trkpt>
      <trkpt lat="43.83488" lon="4.20273">
        <ele>237.9</ele>
        <time>2026-05-09T08:10:58.999Z</time>
      </trkpt>
      <trkpt lat="43.83488" lon="4.20272">
        <ele>237.6</ele>
        <time>2026-05-09T08:10:59.999Z</time>
      </trkpt>
      <trkpt lat="43.83487" lon="4.20271">
        <ele>237.4</ele>
        <time>2026-05-09T08:11:00.999Z</time>
      </trkpt>
      <trkpt lat="43.83486" lon="4.2027">
        <ele>237.3</ele>
        <time>2026-05-09T08:11:01.999Z</time>
      </trkpt>
      <trkpt lat="43.83485" lon="4.2027">
        <ele>237</ele>
        <time>2026-05-09T08:11:02.999Z</time>
      </trkpt>
      <trkpt lat="43.83485" lon="4.2027">
        <ele>237.1</ele>
        <time>2026-05-09T08:11:03.999Z</time>
      </trkpt>
      <trkpt lat="43.83485" lon="4.2027">
        <ele>237</ele>
        <time>2026-05-09T08:11:04.999Z</time>
      </trkpt>
      <trkpt lat="43.83485" lon="4.2027">
        <ele>237.1</ele>
        <time>2026-05-09T08:11:05.999Z</time>
      </trkpt>
      <trkpt lat="43.83485" lon="4.20269">
        <ele>237.1</ele>
        <time>2026-05-09T08:11:06.999Z</time>
      </trkpt>
      <trkpt lat="43.83485" lon="4.20269">
        <ele>237.1</ele>
        <time>2026-05-09T08:11:07.999Z</time>
      </trkpt>
      <trkpt lat="43.83485" lon="4.20269">
        <ele>237.1</ele>
        <time>2026-05-09T08:11:08.999Z</time>
      </trkpt>
      <trkpt lat="43.83485" lon="4.20269">
        <ele>237.1</ele>
        <time>2026-05-09T08:11:09.999Z</time>
      </trkpt>
      <trkpt lat="43.83485" lon="4.20269">
        <ele>237.1</ele>
        <time>2026-05-09T08:11:10.999Z</time>
      </trkpt>
      <trkpt lat="43.83485" lon="4.20269">
        <ele>236.9</ele>
        <time>2026-05-09T08:11:11.999Z</time>
      </trkpt>
      <trkpt lat="43.83485" lon="4.20269">
        <ele>236.8</ele>
        <time>2026-05-09T08:11:12.999Z</time>
      </trkpt>
      <trkpt lat="43.83485" lon="4.20269">
        <ele>236.6</ele>
        <time>2026-05-09T08:11:13.999Z</time>
      </trkpt>
      <trkpt lat="43.83485" lon="4.20269">
        <ele>236.7</ele>
        <time>2026-05-09T08:11:14.999Z</time>
      </trkpt>
      <trkpt lat="43.83485" lon="4.20269">
        <ele>236.9</ele>
        <time>2026-05-09T08:11:15.999Z</time>
      </trkpt>
      <trkpt lat="43.83485" lon="4.20269">
        <ele>237.1</ele>
        <time>2026-05-09T08:11:16.999Z</time>
      </trkpt>
      <trkpt lat="43.83484" lon="4.20269">
        <ele>237</ele>
        <time>2026-05-09T08:11:17.999Z</time>
      </trkpt>
      <trkpt lat="43.83484" lon="4.20269">
        <ele>236.9</ele>
        <time>2026-05-09T08:11:18.999Z</time>
      </trkpt>
      <trkpt lat="43.83484" lon="4.20269">
        <ele>236.6</ele>
        <time>2026-05-09T08:11:19.999Z</time>
      </trkpt>
      <trkpt lat="43.83484" lon="4.20269">
        <ele>236.5</ele>
        <time>2026-05-09T08:11:20.999Z</time>
      </trkpt>
      <trkpt lat="43.83484" lon="4.20269">
        <ele>236.5</ele>
        <time>2026-05-09T08:11:21.999Z</time>
      </trkpt>
      <trkpt lat="43.83483" lon="4.20268">
        <ele>236.5</ele>
        <time>2026-05-09T08:11:22.999Z</time>
      </trkpt>
      <trkpt lat="43.83482" lon="4.20267">
        <ele>236.4</ele>
        <time>2026-05-09T08:11:23.999Z</time>
      </trkpt>
      <trkpt lat="43.83482" lon="4.20266">
        <ele>236.2</ele>
        <time>2026-05-09T08:11:24.999Z</time>
      </trkpt>
      <trkpt lat="43.83481" lon="4.20265">
        <ele>236.5</ele>
        <time>2026-05-09T08:11:25.999Z</time>
      </trkpt>
      <trkpt lat="43.83481" lon="4.20265">
        <ele>236.6</ele>
        <time>2026-05-09T08:11:26.999Z</time>
      </trkpt>
      <trkpt lat="43.83481" lon="4.20265">
        <ele>236.6</ele>
        <time>2026-05-09T08:11:27.999Z</time>
      </trkpt>
      <trkpt lat="43.83481" lon="4.20265">
        <ele>236.7</ele>
        <time>2026-05-09T08:11:28.999Z</time>
      </trkpt>
      <trkpt lat="43.8348" lon="4.20264">
        <ele>236.9</ele>
        <time>2026-05-09T08:11:29.999Z</time>
      </trkpt>
      <trkpt lat="43.8348" lon="4.20264">
        <ele>236.8</ele>
        <time>2026-05-09T08:11:30.999Z</time>
      </trkpt>
      <trkpt lat="43.8348" lon="4.20263">
        <ele>236.7</ele>
        <time>2026-05-09T08:11:31.999Z</time>
      </trkpt>
      <trkpt lat="43.83479" lon="4.20263">
        <ele>236.6</ele>
        <time>2026-05-09T08:11:32.999Z</time>
      </trkpt>
      <trkpt lat="43.83479" lon="4.20263">
        <ele>236.6</ele>
        <time>2026-05-09T08:11:33.999Z</time>
      </trkpt>
      <trkpt lat="43.83479" lon="4.20263">
        <ele>236.5</ele>
        <time>2026-05-09T08:11:34.999Z</time>
      </trkpt>
      <trkpt lat="43.83479" lon="4.20263">
        <ele>236.4</ele>
        <time>2026-05-09T08:11:35.999Z</time>
      </trkpt>
      <trkpt lat="43.83479" lon="4.20263">
        <ele>236.5</ele>
        <time>2026-05-09T08:11:36.999Z</time>
      </trkpt>
      <trkpt lat="43.83479" lon="4.20263">
        <ele>236.6</ele>
        <time>2026-05-09T08:11:37.999Z</time>
      </trkpt>
      <trkpt lat="43.83479" lon="4.20262">
        <ele>236.4</ele>
        <time>2026-05-09T08:11:38.999Z</time>
      </trkpt>
      <trkpt lat="43.83479" lon="4.20262">
        <ele>236.2</ele>
        <time>2026-05-09T08:11:39.999Z</time>
      </trkpt>
      <trkpt lat="43.83479" lon="4.20262">
        <ele>236.1</ele>
        <time>2026-05-09T08:11:40.999Z</time>
      </trkpt>
      <trkpt lat="43.83478" lon="4.20262">
        <ele>236</ele>
        <time>2026-05-09T08:11:41.999Z</time>
      </trkpt>
      <trkpt lat="43.83478" lon="4.20262">
        <ele>236.1</ele>
        <time>2026-05-09T08:11:42.999Z</time>
      </trkpt>
      <trkpt lat="43.83478" lon="4.20262">
        <ele>236</ele>
        <time>2026-05-09T08:11:43.999Z</time>
      </trkpt>
      <trkpt lat="43.83478" lon="4.20262">
        <ele>236</ele>
        <time>2026-05-09T08:11:44.999Z</time>
      </trkpt>
      <trkpt lat="43.83478" lon="4.20262">
        <ele>235.8</ele>
        <time>2026-05-09T08:11:45.999Z</time>
      </trkpt>
      <trkpt lat="43.83478" lon="4.20262">
        <ele>235.8</ele>
        <time>2026-05-09T08:11:46.999Z</time>
      </trkpt>
      <trkpt lat="43.83478" lon="4.20262">
        <ele>235.6</ele>
        <time>2026-05-09T08:11:47.999Z</time>
      </trkpt>
      <trkpt lat="43.83477" lon="4.20261">
        <ele>235.4</ele>
        <time>2026-05-09T08:11:48.999Z</time>
      </trkpt>
      <trkpt lat="43.83477" lon="4.20261">
        <ele>235.4</ele>
        <time>2026-05-09T08:11:49.999Z</time>
      </trkpt>
      <trkpt lat="43.83477" lon="4.20261">
        <ele>235.1</ele>
        <time>2026-05-09T08:11:50.999Z</time>
      </trkpt>
      <trkpt lat="43.83477" lon="4.20261">
        <ele>234.8</ele>
        <time>2026-05-09T08:11:51.999Z</time>
      </trkpt>
      <trkpt lat="43.83477" lon="4.20261">
        <ele>234.6</ele>
        <time>2026-05-09T08:11:52.999Z</time>
      </trkpt>
      <trkpt lat="43.83477" lon="4.20261">
        <ele>234.4</ele>
        <time>2026-05-09T08:11:53.999Z</time>
      </trkpt>
      <trkpt lat="43.83476" lon="4.2026">
        <ele>234.3</ele>
        <time>2026-05-09T08:11:54.999Z</time>
      </trkpt>
      <trkpt lat="43.83476" lon="4.2026">
        <ele>234.2</ele>
        <time>2026-05-09T08:11:55.999Z</time>
      </trkpt>
      <trkpt lat="43.83476" lon="4.2026">
        <ele>233.9</ele>
        <time>2026-05-09T08:11:56.999Z</time>
      </trkpt>
      <trkpt lat="43.83476" lon="4.2026">
        <ele>233.8</ele>
        <time>2026-05-09T08:11:57.999Z</time>
      </trkpt>
      <trkpt lat="43.83476" lon="4.2026">
        <ele>233.7</ele>
        <time>2026-05-09T08:11:58.999Z</time>
      </trkpt>
      <trkpt lat="43.83476" lon="4.20259">
        <ele>233.2</ele>
        <time>2026-05-09T08:11:59.999Z</time>
      </trkpt>
      <trkpt lat="43.83476" lon="4.20259">
        <ele>233.1</ele>
        <time>2026-05-09T08:12:00.999Z</time>
      </trkpt>
      <trkpt lat="43.83476" lon="4.20259">
        <ele>233.1</ele>
        <time>2026-05-09T08:12:01.999Z</time>
      </trkpt>
      <trkpt lat="43.83476" lon="4.20257">
        <ele>233</ele>
        <time>2026-05-09T08:12:02.999Z</time>
      </trkpt>
      <trkpt lat="43.83476" lon="4.20255">
        <ele>232.9</ele>
        <time>2026-05-09T08:12:03.999Z</time>
      </trkpt>
      <trkpt lat="43.83476" lon="4.20254">
        <ele>232.5</ele>
        <time>2026-05-09T08:12:04.999Z</time>
      </trkpt>
      <trkpt lat="43.83476" lon="4.20253">
        <ele>232.2</ele>
        <time>2026-05-09T08:12:05.999Z</time>
      </trkpt>
      <trkpt lat="43.83476" lon="4.20253">
        <ele>232.1</ele>
        <time>2026-05-09T08:12:06.999Z</time>
      </trkpt>
      <trkpt lat="43.83475" lon="4.20249">
        <ele>231.9</ele>
        <time>2026-05-09T08:12:07.999Z</time>
      </trkpt>
      <trkpt lat="43.83475" lon="4.20245">
        <ele>231.8</ele>
        <time>2026-05-09T08:12:08.999Z</time>
      </trkpt>
      <trkpt lat="43.83475" lon="4.20241">
        <ele>232</ele>
        <time>2026-05-09T08:12:09.999Z</time>
      </trkpt>
      <trkpt lat="43.83476" lon="4.2024">
        <ele>232</ele>
        <time>2026-05-09T08:12:10.999Z</time>
      </trkpt>
      <trkpt lat="43.83476" lon="4.20239">
        <ele>232.2</ele>
        <time>2026-05-09T08:12:11.999Z</time>
      </trkpt>
      <trkpt lat="43.83476" lon="4.20239">
        <ele>232.2</ele>
        <time>2026-05-09T08:12:12.999Z</time>
      </trkpt>
      <trkpt lat="43.83475" lon="4.20238">
        <ele>232.4</ele>
        <time>2026-05-09T08:12:13.999Z</time>
      </trkpt>
      <trkpt lat="43.83475" lon="4.20237">
        <ele>232.1</ele>
        <time>2026-05-09T08:12:14.999Z</time>
      </trkpt>
      <trkpt lat="43.83475" lon="4.20236">
        <ele>231.9</ele>
        <time>2026-05-09T08:12:15.999Z</time>
      </trkpt>
      <trkpt lat="43.83475" lon="4.20235">
        <ele>231.6</ele>
        <time>2026-05-09T08:12:16.999Z</time>
      </trkpt>
      <trkpt lat="43.83475" lon="4.20235">
        <ele>231.2</ele>
        <time>2026-05-09T08:12:17.999Z</time>
      </trkpt>
      <trkpt lat="43.83475" lon="4.20235">
        <ele>231.1</ele>
        <time>2026-05-09T08:12:18.999Z</time>
      </trkpt>
      <trkpt lat="43.83475" lon="4.20235">
        <ele>230.9</ele>
        <time>2026-05-09T08:12:19.999Z</time>
      </trkpt>
      <trkpt lat="43.83476" lon="4.20232">
        <ele>230.8</ele>
        <time>2026-05-09T08:12:20.999Z</time>
      </trkpt>
      <trkpt lat="43.83476" lon="4.2023">
        <ele>230.6</ele>
        <time>2026-05-09T08:12:21.999Z</time>
      </trkpt>
      <trkpt lat="43.83477" lon="4.20228">
        <ele>230.5</ele>
        <time>2026-05-09T08:12:22.999Z</time>
      </trkpt>
      <trkpt lat="43.83477" lon="4.20226">
        <ele>230.3</ele>
        <time>2026-05-09T08:12:23.999Z</time>
      </trkpt>
      <trkpt lat="43.83478" lon="4.20223">
        <ele>230.5</ele>
        <time>2026-05-09T08:12:24.999Z</time>
      </trkpt>
      <trkpt lat="43.83478" lon="4.2022">
        <ele>230.6</ele>
        <time>2026-05-09T08:12:25.999Z</time>
      </trkpt>
      <trkpt lat="43.83478" lon="4.20218">
        <ele>230.6</ele>
        <time>2026-05-09T08:12:26.999Z</time>
      </trkpt>
      <trkpt lat="43.83479" lon="4.20216">
        <ele>230.3</ele>
        <time>2026-05-09T08:12:27.999Z</time>
      </trkpt>
      <trkpt lat="43.83478" lon="4.20215">
        <ele>230</ele>
        <time>2026-05-09T08:12:28.999Z</time>
      </trkpt>
      <trkpt lat="43.83478" lon="4.20213">
        <ele>229.9</ele>
        <time>2026-05-09T08:12:29.999Z</time>
      </trkpt>
      <trkpt lat="43.83478" lon="4.20213">
        <ele>229.7</ele>
        <time>2026-05-09T08:12:30.999Z</time>
      </trkpt>
      <trkpt lat="43.83478" lon="4.20213">
        <ele>229.6</ele>
        <time>2026-05-09T08:12:31.999Z</time>
      </trkpt>
      <trkpt lat="43.83478" lon="4.20213">
        <ele>229.4</ele>
        <time>2026-05-09T08:12:32.999Z</time>
      </trkpt>
      <trkpt lat="43.83478" lon="4.20212">
        <ele>229.4</ele>
        <time>2026-05-09T08:12:33.999Z</time>
      </trkpt>
      <trkpt lat="43.83478" lon="4.20211">
        <ele>229.5</ele>
        <time>2026-05-09T08:12:34.999Z</time>
      </trkpt>
      <trkpt lat="43.83478" lon="4.20209">
        <ele>229.5</ele>
        <time>2026-05-09T08:12:35.999Z</time>
      </trkpt>
      <trkpt lat="43.83479" lon="4.20208">
        <ele>229.6</ele>
        <time>2026-05-09T08:12:36.999Z</time>
      </trkpt>
      <trkpt lat="43.83479" lon="4.20207">
        <ele>229.8</ele>
        <time>2026-05-09T08:12:37.999Z</time>
      </trkpt>
      <trkpt lat="43.83479" lon="4.20207">
        <ele>229.6</ele>
        <time>2026-05-09T08:12:38.999Z</time>
      </trkpt>
      <trkpt lat="43.83479" lon="4.20207">
        <ele>229.5</ele>
        <time>2026-05-09T08:12:39.999Z</time>
      </trkpt>
      <trkpt lat="43.83479" lon="4.20207">
        <ele>229.4</ele>
        <time>2026-05-09T08:12:40.999Z</time>
      </trkpt>
      <trkpt lat="43.83479" lon="4.20207">
        <ele>229.4</ele>
        <time>2026-05-09T08:12:41.999Z</time>
      </trkpt>
      <trkpt lat="43.83479" lon="4.20207">
        <ele>229.2</ele>
        <time>2026-05-09T08:12:42.999Z</time>
      </trkpt>
      <trkpt lat="43.83479" lon="4.20206">
        <ele>228.9</ele>
        <time>2026-05-09T08:12:43.999Z</time>
      </trkpt>
      <trkpt lat="43.83479" lon="4.20206">
        <ele>228.7</ele>
        <time>2026-05-09T08:12:44.999Z</time>
      </trkpt>
      <trkpt lat="43.83479" lon="4.20206">
        <ele>228.6</ele>
        <time>2026-05-09T08:12:45.999Z</time>
      </trkpt>
      <trkpt lat="43.83479" lon="4.20206">
        <ele>228.4</ele>
        <time>2026-05-09T08:12:46.999Z</time>
      </trkpt>
      <trkpt lat="43.83479" lon="4.20205">
        <ele>228.3</ele>
        <time>2026-05-09T08:12:47.999Z</time>
      </trkpt>
      <trkpt lat="43.83479" lon="4.20205">
        <ele>228.2</ele>
        <time>2026-05-09T08:12:48.999Z</time>
      </trkpt>
      <trkpt lat="43.83479" lon="4.20204">
        <ele>228.1</ele>
        <time>2026-05-09T08:12:49.999Z</time>
      </trkpt>
      <trkpt lat="43.8348" lon="4.20204">
        <ele>227.9</ele>
        <time>2026-05-09T08:12:50.999Z</time>
      </trkpt>
      <trkpt lat="43.8348" lon="4.20204">
        <ele>227.9</ele>
        <time>2026-05-09T08:12:51.999Z</time>
      </trkpt>
      <trkpt lat="43.8348" lon="4.20203">
        <ele>227.6</ele>
        <time>2026-05-09T08:12:52.999Z</time>
      </trkpt>
      <trkpt lat="43.8348" lon="4.20202">
        <ele>227.3</ele>
        <time>2026-05-09T08:12:53.999Z</time>
      </trkpt>
      <trkpt lat="43.8348" lon="4.20202">
        <ele>227.1</ele>
        <time>2026-05-09T08:12:54.999Z</time>
      </trkpt>
      <trkpt lat="43.8348" lon="4.20202">
        <ele>227</ele>
        <time>2026-05-09T08:12:55.999Z</time>
      </trkpt>
      <trkpt lat="43.8348" lon="4.20202">
        <ele>226.9</ele>
        <time>2026-05-09T08:12:56.999Z</time>
      </trkpt>
      <trkpt lat="43.8348" lon="4.20201">
        <ele>226.7</ele>
        <time>2026-05-09T08:12:57.999Z</time>
      </trkpt>
      <trkpt lat="43.8348" lon="4.20201">
        <ele>226.6</ele>
        <time>2026-05-09T08:12:58.999Z</time>
      </trkpt>
      <trkpt lat="43.8348" lon="4.20201">
        <ele>226.5</ele>
        <time>2026-05-09T08:12:59.999Z</time>
      </trkpt>
      <trkpt lat="43.8348" lon="4.202">
        <ele>226.2</ele>
        <time>2026-05-09T08:13:00.999Z</time>
      </trkpt>
      <trkpt lat="43.83481" lon="4.202">
        <ele>225.9</ele>
        <time>2026-05-09T08:13:01.999Z</time>
      </trkpt>
      <trkpt lat="43.83481" lon="4.202">
        <ele>225.9</ele>
        <time>2026-05-09T08:13:02.999Z</time>
      </trkpt>
      <trkpt lat="43.83481" lon="4.202">
        <ele>225.7</ele>
        <time>2026-05-09T08:13:03.999Z</time>
      </trkpt>
      <trkpt lat="43.83481" lon="4.202">
        <ele>225.7</ele>
        <time>2026-05-09T08:13:04.999Z</time>
      </trkpt>
      <trkpt lat="43.83481" lon="4.20199">
        <ele>225.7</ele>
        <time>2026-05-09T08:13:05.999Z</time>
      </trkpt>
      <trkpt lat="43.83481" lon="4.20199">
        <ele>225.3</ele>
        <time>2026-05-09T08:13:06.999Z</time>
      </trkpt>
      <trkpt lat="43.83482" lon="4.20196">
        <ele>225.3</ele>
        <time>2026-05-09T08:13:07.999Z</time>
      </trkpt>
      <trkpt lat="43.83483" lon="4.20194">
        <ele>225.2</ele>
        <time>2026-05-09T08:13:08.999Z</time>
      </trkpt>
      <trkpt lat="43.83484" lon="4.20192">
        <ele>225.1</ele>
        <time>2026-05-09T08:13:09.999Z</time>
      </trkpt>
      <trkpt lat="43.83485" lon="4.20191">
        <ele>225</ele>
        <time>2026-05-09T08:13:10.999Z</time>
      </trkpt>
      <trkpt lat="43.83486" lon="4.20189">
        <ele>224.7</ele>
        <time>2026-05-09T08:13:11.999Z</time>
      </trkpt>
      <trkpt lat="43.83487" lon="4.20188">
        <ele>224.5</ele>
        <time>2026-05-09T08:13:12.999Z</time>
      </trkpt>
      <trkpt lat="43.83487" lon="4.20186">
        <ele>224.3</ele>
        <time>2026-05-09T08:13:13.999Z</time>
      </trkpt>
      <trkpt lat="43.83487" lon="4.20181">
        <ele>224</ele>
        <time>2026-05-09T08:13:14.999Z</time>
      </trkpt>
      <trkpt lat="43.83487" lon="4.20179">
        <ele>223.7</ele>
        <time>2026-05-09T08:13:15.999Z</time>
      </trkpt>
      <trkpt lat="43.83487" lon="4.2018">
        <ele>223.5</ele>
        <time>2026-05-09T08:13:16.999Z</time>
      </trkpt>
      <trkpt lat="43.83487" lon="4.20178">
        <ele>223.2</ele>
        <time>2026-05-09T08:13:17.999Z</time>
      </trkpt>
      <trkpt lat="43.83487" lon="4.20175">
        <ele>223.3</ele>
        <time>2026-05-09T08:13:18.999Z</time>
      </trkpt>
      <trkpt lat="43.83487" lon="4.20172">
        <ele>223.5</ele>
        <time>2026-05-09T08:13:19.999Z</time>
      </trkpt>
      <trkpt lat="43.83487" lon="4.2017">
        <ele>223.1</ele>
        <time>2026-05-09T08:13:20.999Z</time>
      </trkpt>
      <trkpt lat="43.83487" lon="4.20167">
        <ele>222.8</ele>
        <time>2026-05-09T08:13:21.999Z</time>
      </trkpt>
      <trkpt lat="43.83487" lon="4.20164">
        <ele>222.4</ele>
        <time>2026-05-09T08:13:22.999Z</time>
      </trkpt>
      <trkpt lat="43.83486" lon="4.20162">
        <ele>222.3</ele>
        <time>2026-05-09T08:13:23.999Z</time>
      </trkpt>
      <trkpt lat="43.83485" lon="4.20159">
        <ele>222.8</ele>
        <time>2026-05-09T08:13:24.999Z</time>
      </trkpt>
      <trkpt lat="43.83485" lon="4.20156">
        <ele>222.8</ele>
        <time>2026-05-09T08:13:25.999Z</time>
      </trkpt>
      <trkpt lat="43.83485" lon="4.20156">
        <ele>222.9</ele>
        <time>2026-05-09T08:13:26.999Z</time>
      </trkpt>
      <trkpt lat="43.83485" lon="4.20155">
        <ele>223</ele>
        <time>2026-05-09T08:13:27.999Z</time>
      </trkpt>
      <trkpt lat="43.83485" lon="4.20155">
        <ele>222.9</ele>
        <time>2026-05-09T08:13:28.999Z</time>
      </trkpt>
      <trkpt lat="43.83485" lon="4.20155">
        <ele>222.8</ele>
        <time>2026-05-09T08:13:29.999Z</time>
      </trkpt>
      <trkpt lat="43.83485" lon="4.20155">
        <ele>222.8</ele>
        <time>2026-05-09T08:13:30.999Z</time>
      </trkpt>
      <trkpt lat="43.83485" lon="4.20155">
        <ele>222.6</ele>
        <time>2026-05-09T08:13:31.999Z</time>
      </trkpt>
      <trkpt lat="43.83485" lon="4.20154">
        <ele>222.5</ele>
        <time>2026-05-09T08:13:32.999Z</time>
      </trkpt>
      <trkpt lat="43.83485" lon="4.20152">
        <ele>222</ele>
        <time>2026-05-09T08:13:33.999Z</time>
      </trkpt>
      <trkpt lat="43.83486" lon="4.20149">
        <ele>221.7</ele>
        <time>2026-05-09T08:13:34.999Z</time>
      </trkpt>
      <trkpt lat="43.83485" lon="4.20147">
        <ele>221.8</ele>
        <time>2026-05-09T08:13:35.999Z</time>
      </trkpt>
      <trkpt lat="43.83486" lon="4.20146">
        <ele>221.8</ele>
        <time>2026-05-09T08:13:36.999Z</time>
      </trkpt>
      <trkpt lat="43.83486" lon="4.20146">
        <ele>221.8</ele>
        <time>2026-05-09T08:13:37.999Z</time>
      </trkpt>
      <trkpt lat="43.83486" lon="4.20144">
        <ele>221.9</ele>
        <time>2026-05-09T08:13:38.999Z</time>
      </trkpt>
      <trkpt lat="43.83486" lon="4.20142">
        <ele>222.2</ele>
        <time>2026-05-09T08:13:39.999Z</time>
      </trkpt>
      <trkpt lat="43.83487" lon="4.20141">
        <ele>222.4</ele>
        <time>2026-05-09T08:13:40.999Z</time>
      </trkpt>
      <trkpt lat="43.83486" lon="4.2014">
        <ele>222.8</ele>
        <time>2026-05-09T08:13:41.999Z</time>
      </trkpt>
      <trkpt lat="43.83486" lon="4.2014">
        <ele>223</ele>
        <time>2026-05-09T08:13:42.999Z</time>
      </trkpt>
      <trkpt lat="43.83486" lon="4.2014">
        <ele>223.2</ele>
        <time>2026-05-09T08:13:43.999Z</time>
      </trkpt>
      <trkpt lat="43.83486" lon="4.20139">
        <ele>223.1</ele>
        <time>2026-05-09T08:13:44.999Z</time>
      </trkpt>
      <trkpt lat="43.83486" lon="4.20139">
        <ele>223.3</ele>
        <time>2026-05-09T08:13:45.999Z</time>
      </trkpt>
      <trkpt lat="43.83486" lon="4.20139">
        <ele>223.4</ele>
        <time>2026-05-09T08:13:46.999Z</time>
      </trkpt>
      <trkpt lat="43.83486" lon="4.20138">
        <ele>223.4</ele>
        <time>2026-05-09T08:13:47.999Z</time>
      </trkpt>
      <trkpt lat="43.83486" lon="4.20138">
        <ele>223.6</ele>
        <time>2026-05-09T08:13:48.999Z</time>
      </trkpt>
      <trkpt lat="43.83487" lon="4.20138">
        <ele>223.7</ele>
        <time>2026-05-09T08:13:49.999Z</time>
      </trkpt>
      <trkpt lat="43.83487" lon="4.20137">
        <ele>223.4</ele>
        <time>2026-05-09T08:13:50.999Z</time>
      </trkpt>
      <trkpt lat="43.83487" lon="4.20135">
        <ele>223.4</ele>
        <time>2026-05-09T08:13:51.999Z</time>
      </trkpt>
      <trkpt lat="43.83487" lon="4.20132">
        <ele>223.3</ele>
        <time>2026-05-09T08:13:52.999Z</time>
      </trkpt>
      <trkpt lat="43.83487" lon="4.2013">
        <ele>223.3</ele>
        <time>2026-05-09T08:13:53.999Z</time>
      </trkpt>
      <trkpt lat="43.83488" lon="4.20129">
        <ele>223.3</ele>
        <time>2026-05-09T08:13:54.999Z</time>
      </trkpt>
      <trkpt lat="43.83488" lon="4.20128">
        <ele>223.2</ele>
        <time>2026-05-09T08:13:55.999Z</time>
      </trkpt>
      <trkpt lat="43.83488" lon="4.20128">
        <ele>223.1</ele>
        <time>2026-05-09T08:13:56.999Z</time>
      </trkpt>
      <trkpt lat="43.83488" lon="4.20125">
        <ele>222.9</ele>
        <time>2026-05-09T08:13:57.999Z</time>
      </trkpt>
      <trkpt lat="43.8349" lon="4.20123">
        <ele>222.7</ele>
        <time>2026-05-09T08:13:58.999Z</time>
      </trkpt>
      <trkpt lat="43.83491" lon="4.20122">
        <ele>222.7</ele>
        <time>2026-05-09T08:13:59.999Z</time>
      </trkpt>
      <trkpt lat="43.83491" lon="4.20119">
        <ele>222.7</ele>
        <time>2026-05-09T08:14:00.999Z</time>
      </trkpt>
      <trkpt lat="43.83493" lon="4.20117">
        <ele>223</ele>
        <time>2026-05-09T08:14:01.999Z</time>
      </trkpt>
      <trkpt lat="43.83493" lon="4.20114">
        <ele>223</ele>
        <time>2026-05-09T08:14:02.999Z</time>
      </trkpt>
      <trkpt lat="43.83494" lon="4.20111">
        <ele>223.1</ele>
        <time>2026-05-09T08:14:03.999Z</time>
      </trkpt>
      <trkpt lat="43.83494" lon="4.20109">
        <ele>223.3</ele>
        <time>2026-05-09T08:14:04.999Z</time>
      </trkpt>
      <trkpt lat="43.83495" lon="4.20107">
        <ele>223.3</ele>
        <time>2026-05-09T08:14:05.999Z</time>
      </trkpt>
      <trkpt lat="43.83495" lon="4.20106">
        <ele>223.1</ele>
        <time>2026-05-09T08:14:06.999Z</time>
      </trkpt>
      <trkpt lat="43.83496" lon="4.20104">
        <ele>223.2</ele>
        <time>2026-05-09T08:14:07.999Z</time>
      </trkpt>
      <trkpt lat="43.83497" lon="4.20103">
        <ele>223.5</ele>
        <time>2026-05-09T08:14:08.999Z</time>
      </trkpt>
      <trkpt lat="43.83497" lon="4.20102">
        <ele>223.7</ele>
        <time>2026-05-09T08:14:09.999Z</time>
      </trkpt>
      <trkpt lat="43.83497" lon="4.201">
        <ele>224.1</ele>
        <time>2026-05-09T08:14:10.999Z</time>
      </trkpt>
      <trkpt lat="43.83497" lon="4.20099">
        <ele>224.4</ele>
        <time>2026-05-09T08:14:11.999Z</time>
      </trkpt>
      <trkpt lat="43.83496" lon="4.20098">
        <ele>224.6</ele>
        <time>2026-05-09T08:14:12.999Z</time>
      </trkpt>
      <trkpt lat="43.83496" lon="4.20097">
        <ele>224.3</ele>
        <time>2026-05-09T08:14:13.999Z</time>
      </trkpt>
      <trkpt lat="43.83496" lon="4.20097">
        <ele>224.5</ele>
        <time>2026-05-09T08:14:14.999Z</time>
      </trkpt>
      <trkpt lat="43.83496" lon="4.20096">
        <ele>224.5</ele>
        <time>2026-05-09T08:14:15.999Z</time>
      </trkpt>
      <trkpt lat="43.83496" lon="4.20096">
        <ele>224.3</ele>
        <time>2026-05-09T08:14:16.999Z</time>
      </trkpt>
      <trkpt lat="43.83496" lon="4.20096">
        <ele>224.4</ele>
        <time>2026-05-09T08:14:17.999Z</time>
      </trkpt>
      <trkpt lat="43.83496" lon="4.20096">
        <ele>224.4</ele>
        <time>2026-05-09T08:14:18.999Z</time>
      </trkpt>
      <trkpt lat="43.83496" lon="4.20096">
        <ele>224.5</ele>
        <time>2026-05-09T08:14:19.999Z</time>
      </trkpt>
      <trkpt lat="43.83496" lon="4.20096">
        <ele>224.7</ele>
        <time>2026-05-09T08:14:20.999Z</time>
      </trkpt>
      <trkpt lat="43.83496" lon="4.20096">
        <ele>224.7</ele>
        <time>2026-05-09T08:14:21.999Z</time>
      </trkpt>
      <trkpt lat="43.83496" lon="4.20096">
        <ele>224.7</ele>
        <time>2026-05-09T08:14:22.999Z</time>
      </trkpt>
      <trkpt lat="43.83496" lon="4.20095">
        <ele>224.8</ele>
        <time>2026-05-09T08:14:23.999Z</time>
      </trkpt>
      <trkpt lat="43.83496" lon="4.20095">
        <ele>224.8</ele>
        <time>2026-05-09T08:14:24.999Z</time>
      </trkpt>
      <trkpt lat="43.83496" lon="4.20095">
        <ele>224.8</ele>
        <time>2026-05-09T08:14:25.999Z</time>
      </trkpt>
      <trkpt lat="43.83497" lon="4.20095">
        <ele>224.7</ele>
        <time>2026-05-09T08:14:26.999Z</time>
      </trkpt>
      <trkpt lat="43.83497" lon="4.20095">
        <ele>224.5</ele>
        <time>2026-05-09T08:14:27.999Z</time>
      </trkpt>
      <trkpt lat="43.83497" lon="4.20094">
        <ele>224.1</ele>
        <time>2026-05-09T08:14:28.999Z</time>
      </trkpt>
      <trkpt lat="43.83497" lon="4.20094">
        <ele>223.8</ele>
        <time>2026-05-09T08:14:29.999Z</time>
      </trkpt>
      <trkpt lat="43.83497" lon="4.20092">
        <ele>223.4</ele>
        <time>2026-05-09T08:14:30.999Z</time>
      </trkpt>
      <trkpt lat="43.83497" lon="4.2009">
        <ele>223.3</ele>
        <time>2026-05-09T08:14:31.999Z</time>
      </trkpt>
      <trkpt lat="43.83496" lon="4.20089">
        <ele>222.9</ele>
        <time>2026-05-09T08:14:32.999Z</time>
      </trkpt>
      <trkpt lat="43.83496" lon="4.20089">
        <ele>222.8</ele>
        <time>2026-05-09T08:14:33.999Z</time>
      </trkpt>
      <trkpt lat="43.83496" lon="4.20088">
        <ele>222.6</ele>
        <time>2026-05-09T08:14:34.999Z</time>
      </trkpt>
      <trkpt lat="43.83496" lon="4.20088">
        <ele>222.5</ele>
        <time>2026-05-09T08:14:35.999Z</time>
      </trkpt>
      <trkpt lat="43.83496" lon="4.20088">
        <ele>222.4</ele>
        <time>2026-05-09T08:14:36.999Z</time>
      </trkpt>
      <trkpt lat="43.83496" lon="4.20088">
        <ele>222.5</ele>
        <time>2026-05-09T08:14:37.999Z</time>
      </trkpt>
      <trkpt lat="43.83497" lon="4.20088">
        <ele>222.7</ele>
        <time>2026-05-09T08:14:38.999Z</time>
      </trkpt>
      <trkpt lat="43.83497" lon="4.20088">
        <ele>222.9</ele>
        <time>2026-05-09T08:14:39.999Z</time>
      </trkpt>
      <trkpt lat="43.83497" lon="4.20088">
        <ele>222.9</ele>
        <time>2026-05-09T08:14:40.999Z</time>
      </trkpt>
      <trkpt lat="43.83497" lon="4.20087">
        <ele>223</ele>
        <time>2026-05-09T08:14:41.999Z</time>
      </trkpt>
      <trkpt lat="43.83497" lon="4.20087">
        <ele>222.9</ele>
        <time>2026-05-09T08:14:42.999Z</time>
      </trkpt>
      <trkpt lat="43.83497" lon="4.20087">
        <ele>223.1</ele>
        <time>2026-05-09T08:14:43.999Z</time>
      </trkpt>
      <trkpt lat="43.83497" lon="4.20087">
        <ele>223</ele>
        <time>2026-05-09T08:14:44.999Z</time>
      </trkpt>
      <trkpt lat="43.83496" lon="4.20084">
        <ele>223</ele>
        <time>2026-05-09T08:14:45.999Z</time>
      </trkpt>
      <trkpt lat="43.83496" lon="4.20083">
        <ele>223.1</ele>
        <time>2026-05-09T08:14:46.999Z</time>
      </trkpt>
      <trkpt lat="43.83496" lon="4.20081">
        <ele>223</ele>
        <time>2026-05-09T08:14:47.999Z</time>
      </trkpt>
      <trkpt lat="43.83496" lon="4.20081">
        <ele>222.9</ele>
        <time>2026-05-09T08:14:48.999Z</time>
      </trkpt>
      <trkpt lat="43.83496" lon="4.20079">
        <ele>223.1</ele>
        <time>2026-05-09T08:14:49.999Z</time>
      </trkpt>
      <trkpt lat="43.83496" lon="4.20078">
        <ele>223.1</ele>
        <time>2026-05-09T08:14:50.999Z</time>
      </trkpt>
      <trkpt lat="43.83496" lon="4.20076">
        <ele>223</ele>
        <time>2026-05-09T08:14:51.999Z</time>
      </trkpt>
      <trkpt lat="43.83496" lon="4.20075">
        <ele>223</ele>
        <time>2026-05-09T08:14:52.999Z</time>
      </trkpt>
      <trkpt lat="43.83496" lon="4.20075">
        <ele>223</ele>
        <time>2026-05-09T08:14:53.999Z</time>
      </trkpt>
      <trkpt lat="43.83496" lon="4.20074">
        <ele>223</ele>
        <time>2026-05-09T08:14:54.999Z</time>
      </trkpt>
      <trkpt lat="43.83496" lon="4.20074">
        <ele>223.1</ele>
        <time>2026-05-09T08:14:55.999Z</time>
      </trkpt>
      <trkpt lat="43.83496" lon="4.20073">
        <ele>222.9</ele>
        <time>2026-05-09T08:14:56.999Z</time>
      </trkpt>
      <trkpt lat="43.83496" lon="4.20072">
        <ele>223</ele>
        <time>2026-05-09T08:14:57.999Z</time>
      </trkpt>
      <trkpt lat="43.83497" lon="4.2007">
        <ele>223</ele>
        <time>2026-05-09T08:14:58.999Z</time>
      </trkpt>
      <trkpt lat="43.83497" lon="4.2007">
        <ele>223.1</ele>
        <time>2026-05-09T08:14:59.999Z</time>
      </trkpt>
      <trkpt lat="43.83497" lon="4.20069">
        <ele>223.3</ele>
        <time>2026-05-09T08:15:00.999Z</time>
      </trkpt>
      <trkpt lat="43.83498" lon="4.20068">
        <ele>223.3</ele>
        <time>2026-05-09T08:15:01.999Z</time>
      </trkpt>
      <trkpt lat="43.83498" lon="4.20068">
        <ele>223.4</ele>
        <time>2026-05-09T08:15:02.999Z</time>
      </trkpt>
      <trkpt lat="43.83498" lon="4.20067">
        <ele>223.6</ele>
        <time>2026-05-09T08:15:03.999Z</time>
      </trkpt>
      <trkpt lat="43.83498" lon="4.20065">
        <ele>223.7</ele>
        <time>2026-05-09T08:15:04.999Z</time>
      </trkpt>
      <trkpt lat="43.83499" lon="4.20064">
        <ele>223.5</ele>
        <time>2026-05-09T08:15:05.999Z</time>
      </trkpt>
      <trkpt lat="43.83499" lon="4.20062">
        <ele>223.3</ele>
        <time>2026-05-09T08:15:06.999Z</time>
      </trkpt>
      <trkpt lat="43.835" lon="4.20061">
        <ele>223.3</ele>
        <time>2026-05-09T08:15:07.999Z</time>
      </trkpt>
      <trkpt lat="43.835" lon="4.20059">
        <ele>223.2</ele>
        <time>2026-05-09T08:15:08.999Z</time>
      </trkpt>
      <trkpt lat="43.83501" lon="4.20059">
        <ele>223.2</ele>
        <time>2026-05-09T08:15:09.999Z</time>
      </trkpt>
      <trkpt lat="43.83501" lon="4.20059">
        <ele>223.1</ele>
        <time>2026-05-09T08:15:10.999Z</time>
      </trkpt>
      <trkpt lat="43.83501" lon="4.20059">
        <ele>223.1</ele>
        <time>2026-05-09T08:15:11.999Z</time>
      </trkpt>
      <trkpt lat="43.83502" lon="4.20058">
        <ele>223</ele>
        <time>2026-05-09T08:15:12.999Z</time>
      </trkpt>
      <trkpt lat="43.83503" lon="4.20057">
        <ele>222.8</ele>
        <time>2026-05-09T08:15:13.999Z</time>
      </trkpt>
      <trkpt lat="43.83504" lon="4.20056">
        <ele>222.6</ele>
        <time>2026-05-09T08:15:14.999Z</time>
      </trkpt>
      <trkpt lat="43.83504" lon="4.20055">
        <ele>222.5</ele>
        <time>2026-05-09T08:15:15.999Z</time>
      </trkpt>
      <trkpt lat="43.83505" lon="4.20054">
        <ele>222.3</ele>
        <time>2026-05-09T08:15:16.999Z</time>
      </trkpt>
      <trkpt lat="43.83505" lon="4.20053">
        <ele>222.6</ele>
        <time>2026-05-09T08:15:17.999Z</time>
      </trkpt>
      <trkpt lat="43.83505" lon="4.20053">
        <ele>222.5</ele>
        <time>2026-05-09T08:15:18.999Z</time>
      </trkpt>
      <trkpt lat="43.83505" lon="4.20053">
        <ele>222.2</ele>
        <time>2026-05-09T08:15:19.999Z</time>
      </trkpt>
      <trkpt lat="43.83505" lon="4.20053">
        <ele>222.2</ele>
        <time>2026-05-09T08:15:20.999Z</time>
      </trkpt>
      <trkpt lat="43.83505" lon="4.20053">
        <ele>222.3</ele>
        <time>2026-05-09T08:15:21.999Z</time>
      </trkpt>
      <trkpt lat="43.83506" lon="4.20052">
        <ele>222.2</ele>
        <time>2026-05-09T08:15:22.999Z</time>
      </trkpt>
      <trkpt lat="43.83507" lon="4.20051">
        <ele>222.3</ele>
        <time>2026-05-09T08:15:23.999Z</time>
      </trkpt>
      <trkpt lat="43.83507" lon="4.2005">
        <ele>222.1</ele>
        <time>2026-05-09T08:15:24.999Z</time>
      </trkpt>
      <trkpt lat="43.83508" lon="4.20049">
        <ele>222</ele>
        <time>2026-05-09T08:15:25.999Z</time>
      </trkpt>
      <trkpt lat="43.83509" lon="4.20047">
        <ele>221.7</ele>
        <time>2026-05-09T08:15:26.999Z</time>
      </trkpt>
      <trkpt lat="43.8351" lon="4.20045">
        <ele>221.6</ele>
        <time>2026-05-09T08:15:27.999Z</time>
      </trkpt>
      <trkpt lat="43.83511" lon="4.20043">
        <ele>221.5</ele>
        <time>2026-05-09T08:15:28.999Z</time>
      </trkpt>
      <trkpt lat="43.83511" lon="4.20042">
        <ele>221.6</ele>
        <time>2026-05-09T08:15:29.999Z</time>
      </trkpt>
      <trkpt lat="43.83511" lon="4.2004">
        <ele>221.3</ele>
        <time>2026-05-09T08:15:30.999Z</time>
      </trkpt>
      <trkpt lat="43.83511" lon="4.20039">
        <ele>221.2</ele>
        <time>2026-05-09T08:15:31.999Z</time>
      </trkpt>
      <trkpt lat="43.83511" lon="4.20038">
        <ele>220.8</ele>
        <time>2026-05-09T08:15:32.999Z</time>
      </trkpt>
      <trkpt lat="43.83512" lon="4.20037">
        <ele>220.8</ele>
        <time>2026-05-09T08:15:33.999Z</time>
      </trkpt>
      <trkpt lat="43.83512" lon="4.20036">
        <ele>220.6</ele>
        <time>2026-05-09T08:15:34.999Z</time>
      </trkpt>
      <trkpt lat="43.83513" lon="4.20035">
        <ele>220.3</ele>
        <time>2026-05-09T08:15:35.999Z</time>
      </trkpt>
      <trkpt lat="43.83513" lon="4.20034">
        <ele>220.2</ele>
        <time>2026-05-09T08:15:36.999Z</time>
      </trkpt>
      <trkpt lat="43.83513" lon="4.20034">
        <ele>220.6</ele>
        <time>2026-05-09T08:15:37.999Z</time>
      </trkpt>
      <trkpt lat="43.83513" lon="4.20034">
        <ele>220.6</ele>
        <time>2026-05-09T08:15:38.999Z</time>
      </trkpt>
      <trkpt lat="43.83513" lon="4.20034">
        <ele>220.4</ele>
        <time>2026-05-09T08:15:39.999Z</time>
      </trkpt>
      <trkpt lat="43.83513" lon="4.20034">
        <ele>220.5</ele>
        <time>2026-05-09T08:15:40.999Z</time>
      </trkpt>
      <trkpt lat="43.83513" lon="4.20034">
        <ele>220.6</ele>
        <time>2026-05-09T08:15:41.999Z</time>
      </trkpt>
      <trkpt lat="43.83513" lon="4.20034">
        <ele>220.5</ele>
        <time>2026-05-09T08:15:42.999Z</time>
      </trkpt>
      <trkpt lat="43.83513" lon="4.20034">
        <ele>220.3</ele>
        <time>2026-05-09T08:15:43.999Z</time>
      </trkpt>
      <trkpt lat="43.83513" lon="4.20034">
        <ele>220.1</ele>
        <time>2026-05-09T08:15:44.999Z</time>
      </trkpt>
      <trkpt lat="43.83513" lon="4.20034">
        <ele>219.7</ele>
        <time>2026-05-09T08:15:45.999Z</time>
      </trkpt>
      <trkpt lat="43.83513" lon="4.20034">
        <ele>219.7</ele>
        <time>2026-05-09T08:15:46.999Z</time>
      </trkpt>
      <trkpt lat="43.83513" lon="4.20033">
        <ele>219.8</ele>
        <time>2026-05-09T08:15:47.999Z</time>
      </trkpt>
      <trkpt lat="43.83513" lon="4.20033">
        <ele>219.9</ele>
        <time>2026-05-09T08:15:48.999Z</time>
      </trkpt>
      <trkpt lat="43.83513" lon="4.20033">
        <ele>219.9</ele>
        <time>2026-05-09T08:15:49.999Z</time>
      </trkpt>
      <trkpt lat="43.83513" lon="4.20032">
        <ele>219.8</ele>
        <time>2026-05-09T08:15:50.999Z</time>
      </trkpt>
      <trkpt lat="43.83513" lon="4.20031">
        <ele>219.8</ele>
        <time>2026-05-09T08:15:51.999Z</time>
      </trkpt>
      <trkpt lat="43.83513" lon="4.2003">
        <ele>219.8</ele>
        <time>2026-05-09T08:15:52.999Z</time>
      </trkpt>
      <trkpt lat="43.83514" lon="4.20029">
        <ele>219.9</ele>
        <time>2026-05-09T08:15:53.999Z</time>
      </trkpt>
      <trkpt lat="43.83514" lon="4.20028">
        <ele>220</ele>
        <time>2026-05-09T08:15:54.999Z</time>
      </trkpt>
      <trkpt lat="43.83514" lon="4.20026">
        <ele>219.9</ele>
        <time>2026-05-09T08:15:55.999Z</time>
      </trkpt>
      <trkpt lat="43.83515" lon="4.20025">
        <ele>219.8</ele>
        <time>2026-05-09T08:15:56.999Z</time>
      </trkpt>
      <trkpt lat="43.83515" lon="4.20024">
        <ele>219.9</ele>
        <time>2026-05-09T08:15:57.999Z</time>
      </trkpt>
      <trkpt lat="43.83516" lon="4.20023">
        <ele>220.1</ele>
        <time>2026-05-09T08:15:58.999Z</time>
      </trkpt>
      <trkpt lat="43.83517" lon="4.20022">
        <ele>220.1</ele>
        <time>2026-05-09T08:15:59.999Z</time>
      </trkpt>
      <trkpt lat="43.83518" lon="4.2002">
        <ele>220.4</ele>
        <time>2026-05-09T08:16:00.999Z</time>
      </trkpt>
      <trkpt lat="43.83518" lon="4.2002">
        <ele>220.4</ele>
        <time>2026-05-09T08:16:01.999Z</time>
      </trkpt>
      <trkpt lat="43.83518" lon="4.20019">
        <ele>220.5</ele>
        <time>2026-05-09T08:16:02.999Z</time>
      </trkpt>
      <trkpt lat="43.83519" lon="4.20019">
        <ele>220.4</ele>
        <time>2026-05-09T08:16:03.999Z</time>
      </trkpt>
      <trkpt lat="43.83519" lon="4.20019">
        <ele>220.4</ele>
        <time>2026-05-09T08:16:04.999Z</time>
      </trkpt>
      <trkpt lat="43.83519" lon="4.20019">
        <ele>220.5</ele>
        <time>2026-05-09T08:16:05.999Z</time>
      </trkpt>
      <trkpt lat="43.83519" lon="4.20018">
        <ele>220.7</ele>
        <time>2026-05-09T08:16:06.999Z</time>
      </trkpt>
      <trkpt lat="43.83519" lon="4.20018">
        <ele>221</ele>
        <time>2026-05-09T08:16:07.999Z</time>
      </trkpt>
      <trkpt lat="43.83519" lon="4.20017">
        <ele>221.3</ele>
        <time>2026-05-09T08:16:08.999Z</time>
      </trkpt>
      <trkpt lat="43.8352" lon="4.20017">
        <ele>221.5</ele>
        <time>2026-05-09T08:16:09.999Z</time>
      </trkpt>
      <trkpt lat="43.8352" lon="4.20015">
        <ele>221.9</ele>
        <time>2026-05-09T08:16:10.999Z</time>
      </trkpt>
      <trkpt lat="43.83521" lon="4.20014">
        <ele>222.1</ele>
        <time>2026-05-09T08:16:11.999Z</time>
      </trkpt>
      <trkpt lat="43.83521" lon="4.20013">
        <ele>222.3</ele>
        <time>2026-05-09T08:16:12.999Z</time>
      </trkpt>
      <trkpt lat="43.83521" lon="4.20012">
        <ele>222.4</ele>
        <time>2026-05-09T08:16:13.999Z</time>
      </trkpt>
      <trkpt lat="43.8352" lon="4.20012">
        <ele>222.8</ele>
        <time>2026-05-09T08:16:14.999Z</time>
      </trkpt>
      <trkpt lat="43.83519" lon="4.20012">
        <ele>223.1</ele>
        <time>2026-05-09T08:16:15.999Z</time>
      </trkpt>
      <trkpt lat="43.83519" lon="4.20011">
        <ele>223.4</ele>
        <time>2026-05-09T08:16:16.999Z</time>
      </trkpt>
      <trkpt lat="43.83518" lon="4.20011">
        <ele>223.5</ele>
        <time>2026-05-09T08:16:17.999Z</time>
      </trkpt>
      <trkpt lat="43.83518" lon="4.20009">
        <ele>223.3</ele>
        <time>2026-05-09T08:16:18.999Z</time>
      </trkpt>
      <trkpt lat="43.83517" lon="4.20008">
        <ele>223.5</ele>
        <time>2026-05-09T08:16:19.999Z</time>
      </trkpt>
      <trkpt lat="43.83517" lon="4.20006">
        <ele>223.4</ele>
        <time>2026-05-09T08:16:20.999Z</time>
      </trkpt>
      <trkpt lat="43.83517" lon="4.20005">
        <ele>223.6</ele>
        <time>2026-05-09T08:16:21.999Z</time>
      </trkpt>
      <trkpt lat="43.83518" lon="4.20005">
        <ele>223.8</ele>
        <time>2026-05-09T08:16:22.999Z</time>
      </trkpt>
      <trkpt lat="43.83518" lon="4.20006">
        <ele>223.9</ele>
        <time>2026-05-09T08:16:23.999Z</time>
      </trkpt>
      <trkpt lat="43.83519" lon="4.20006">
        <ele>223.1</ele>
        <time>2026-05-09T08:16:24.999Z</time>
      </trkpt>
      <trkpt lat="43.83519" lon="4.20006">
        <ele>223.5</ele>
        <time>2026-05-09T08:16:25.999Z</time>
      </trkpt>
      <trkpt lat="43.83519" lon="4.20006">
        <ele>223.7</ele>
        <time>2026-05-09T08:16:26.999Z</time>
      </trkpt>
      <trkpt lat="43.83519" lon="4.20006">
        <ele>223.8</ele>
        <time>2026-05-09T08:16:27.999Z</time>
      </trkpt>
      <trkpt lat="43.83518" lon="4.20006">
        <ele>223.9</ele>
        <time>2026-05-09T08:16:28.999Z</time>
      </trkpt>
      <trkpt lat="43.83518" lon="4.20006">
        <ele>223.9</ele>
        <time>2026-05-09T08:16:29.999Z</time>
      </trkpt>
      <trkpt lat="43.83519" lon="4.20008">
        <ele>223.8</ele>
        <time>2026-05-09T08:16:30.999Z</time>
      </trkpt>
      <trkpt lat="43.83519" lon="4.20009">
        <ele>223.5</ele>
        <time>2026-05-09T08:16:31.999Z</time>
      </trkpt>
      <trkpt lat="43.83519" lon="4.20009">
        <ele>223.6</ele>
        <time>2026-05-09T08:16:32.999Z</time>
      </trkpt>
      <trkpt lat="43.8352" lon="4.20009">
        <ele>223.7</ele>
        <time>2026-05-09T08:16:33.999Z</time>
      </trkpt>
      <trkpt lat="43.83519" lon="4.20009">
        <ele>224.7</ele>
        <time>2026-05-09T08:16:34.999Z</time>
      </trkpt>
      <trkpt lat="43.8352" lon="4.20009">
        <ele>226.3</ele>
        <time>2026-05-09T08:16:35.999Z</time>
      </trkpt>
      <trkpt lat="43.83521" lon="4.2001">
        <ele>226.8</ele>
        <time>2026-05-09T08:16:36.999Z</time>
      </trkpt>
      <trkpt lat="43.83522" lon="4.2001">
        <ele>227.8</ele>
        <time>2026-05-09T08:16:37.999Z</time>
      </trkpt>
      <trkpt lat="43.83522" lon="4.2001">
        <ele>228.1</ele>
        <time>2026-05-09T08:16:38.999Z</time>
      </trkpt>
      <trkpt lat="43.83523" lon="4.2001">
        <ele>228.8</ele>
        <time>2026-05-09T08:16:39.999Z</time>
      </trkpt>
      <trkpt lat="43.83523" lon="4.20011">
        <ele>228.7</ele>
        <time>2026-05-09T08:16:40.999Z</time>
      </trkpt>
      <trkpt lat="43.83523" lon="4.20011">
        <ele>228.7</ele>
        <time>2026-05-09T08:16:41.999Z</time>
      </trkpt>
      <trkpt lat="43.83522" lon="4.20011">
        <ele>228.5</ele>
        <time>2026-05-09T08:16:42.999Z</time>
      </trkpt>
      <trkpt lat="43.83522" lon="4.2001">
        <ele>225</ele>
        <time>2026-05-09T08:16:43.999Z</time>
      </trkpt>
      <trkpt lat="43.83522" lon="4.2001">
        <ele>225.5</ele>
        <time>2026-05-09T08:16:44.999Z</time>
      </trkpt>
      <trkpt lat="43.83522" lon="4.2001">
        <ele>226.1</ele>
        <time>2026-05-09T08:16:45.999Z</time>
      </trkpt>
      <trkpt lat="43.83521" lon="4.2001">
        <ele>226.7</ele>
        <time>2026-05-09T08:16:46.999Z</time>
      </trkpt>
      <trkpt lat="43.83521" lon="4.2001">
        <ele>227.2</ele>
        <time>2026-05-09T08:16:47.999Z</time>
      </trkpt>
      <trkpt lat="43.83521" lon="4.2001">
        <ele>227.8</ele>
        <time>2026-05-09T08:16:48.999Z</time>
      </trkpt>
      <trkpt lat="43.83521" lon="4.2001">
        <ele>228.3</ele>
        <time>2026-05-09T08:16:49.999Z</time>
      </trkpt>
      <trkpt lat="43.8352" lon="4.20009">
        <ele>228.5</ele>
        <time>2026-05-09T08:16:50.999Z</time>
      </trkpt>
      <trkpt lat="43.8352" lon="4.20008">
        <ele>229.1</ele>
        <time>2026-05-09T08:16:51.999Z</time>
      </trkpt>
      <trkpt lat="43.8352" lon="4.20007">
        <ele>229.5</ele>
        <time>2026-05-09T08:16:52.999Z</time>
      </trkpt>
      <trkpt lat="43.8352" lon="4.20007">
        <ele>229.8</ele>
        <time>2026-05-09T08:16:53.999Z</time>
      </trkpt>
      <trkpt lat="43.8352" lon="4.20007">
        <ele>230</ele>
        <time>2026-05-09T08:16:54.999Z</time>
      </trkpt>
      <trkpt lat="43.8352" lon="4.20007">
        <ele>230.1</ele>
        <time>2026-05-09T08:16:55.999Z</time>
      </trkpt>
      <trkpt lat="43.8352" lon="4.20007">
        <ele>229.8</ele>
        <time>2026-05-09T08:16:56.999Z</time>
      </trkpt>
      <trkpt lat="43.8352" lon="4.20007">
        <ele>230.3</ele>
        <time>2026-05-09T08:16:57.999Z</time>
      </trkpt>
      <trkpt lat="43.8352" lon="4.20006">
        <ele>229.9</ele>
        <time>2026-05-09T08:16:58.999Z</time>
      </trkpt>
      <trkpt lat="43.8352" lon="4.20005">
        <ele>230.2</ele>
        <time>2026-05-09T08:16:59.999Z</time>
      </trkpt>
      <trkpt lat="43.83522" lon="4.20004">
        <ele>231</ele>
        <time>2026-05-09T08:17:00.999Z</time>
      </trkpt>
      <trkpt lat="43.83523" lon="4.20002">
        <ele>230.4</ele>
        <time>2026-05-09T08:17:01.999Z</time>
      </trkpt>
      <trkpt lat="43.83523" lon="4.20001">
        <ele>229.6</ele>
        <time>2026-05-09T08:17:02.999Z</time>
      </trkpt>
      <trkpt lat="43.83524" lon="4.20001">
        <ele>230.3</ele>
        <time>2026-05-09T08:17:03.999Z</time>
      </trkpt>
      <trkpt lat="43.83525" lon="4.20001">
        <ele>230.2</ele>
        <time>2026-05-09T08:17:04.999Z</time>
      </trkpt>
      <trkpt lat="43.83525" lon="4.2">
        <ele>230.2</ele>
        <time>2026-05-09T08:17:05.999Z</time>
      </trkpt>
      <trkpt lat="43.83526" lon="4.2">
        <ele>231</ele>
        <time>2026-05-09T08:17:06.999Z</time>
      </trkpt>
      <trkpt lat="43.83526" lon="4.2">
        <ele>231.3</ele>
        <time>2026-05-09T08:17:07.999Z</time>
      </trkpt>
      <trkpt lat="43.83526" lon="4.19999">
        <ele>231.4</ele>
        <time>2026-05-09T08:17:08.999Z</time>
      </trkpt>
      <trkpt lat="43.83527" lon="4.19998">
        <ele>231.3</ele>
        <time>2026-05-09T08:17:09.999Z</time>
      </trkpt>
      <trkpt lat="43.83527" lon="4.19997">
        <ele>231.5</ele>
        <time>2026-05-09T08:17:10.999Z</time>
      </trkpt>
      <trkpt lat="43.83527" lon="4.19996">
        <ele>230.9</ele>
        <time>2026-05-09T08:17:11.999Z</time>
      </trkpt>
      <trkpt lat="43.83526" lon="4.19995">
        <ele>230.5</ele>
        <time>2026-05-09T08:17:12.999Z</time>
      </trkpt>
      <trkpt lat="43.83526" lon="4.19994">
        <ele>231</ele>
        <time>2026-05-09T08:17:13.999Z</time>
      </trkpt>
      <trkpt lat="43.83526" lon="4.19993">
        <ele>230.8</ele>
        <time>2026-05-09T08:17:14.999Z</time>
      </trkpt>
      <trkpt lat="43.83526" lon="4.19992">
        <ele>230.7</ele>
        <time>2026-05-09T08:17:15.999Z</time>
      </trkpt>
      <trkpt lat="43.83526" lon="4.19992">
        <ele>230.6</ele>
        <time>2026-05-09T08:17:16.999Z</time>
      </trkpt>
      <trkpt lat="43.83526" lon="4.19991">
        <ele>229.5</ele>
        <time>2026-05-09T08:17:17.999Z</time>
      </trkpt>
      <trkpt lat="43.83526" lon="4.19991">
        <ele>230.1</ele>
        <time>2026-05-09T08:17:18.999Z</time>
      </trkpt>
      <trkpt lat="43.83527" lon="4.1999">
        <ele>230.3</ele>
        <time>2026-05-09T08:17:19.999Z</time>
      </trkpt>
      <trkpt lat="43.83527" lon="4.19989">
        <ele>230.2</ele>
        <time>2026-05-09T08:17:20.999Z</time>
      </trkpt>
      <trkpt lat="43.83527" lon="4.19988">
        <ele>230.2</ele>
        <time>2026-05-09T08:17:21.999Z</time>
      </trkpt>
      <trkpt lat="43.83526" lon="4.19987">
        <ele>230.4</ele>
        <time>2026-05-09T08:17:22.999Z</time>
      </trkpt>
      <trkpt lat="43.83526" lon="4.19985">
        <ele>230.6</ele>
        <time>2026-05-09T08:17:23.999Z</time>
      </trkpt>
      <trkpt lat="43.83526" lon="4.19984">
        <ele>230.6</ele>
        <time>2026-05-09T08:17:24.999Z</time>
      </trkpt>
      <trkpt lat="43.83526" lon="4.19984">
        <ele>230.4</ele>
        <time>2026-05-09T08:17:25.999Z</time>
      </trkpt>
      <trkpt lat="43.83526" lon="4.19983">
        <ele>230.5</ele>
        <time>2026-05-09T08:17:26.999Z</time>
      </trkpt>
      <trkpt lat="43.83527" lon="4.19983">
        <ele>230.5</ele>
        <time>2026-05-09T08:17:27.999Z</time>
      </trkpt>
      <trkpt lat="43.83527" lon="4.19983">
        <ele>230.2</ele>
        <time>2026-05-09T08:17:28.999Z</time>
      </trkpt>
      <trkpt lat="43.83527" lon="4.19982">
        <ele>229.9</ele>
        <time>2026-05-09T08:17:29.999Z</time>
      </trkpt>
      <trkpt lat="43.83527" lon="4.19982">
        <ele>229.3</ele>
        <time>2026-05-09T08:17:30.999Z</time>
      </trkpt>
      <trkpt lat="43.83528" lon="4.19981">
        <ele>229.4</ele>
        <time>2026-05-09T08:17:31.999Z</time>
      </trkpt>
      <trkpt lat="43.83528" lon="4.1998">
        <ele>229.4</ele>
        <time>2026-05-09T08:17:32.999Z</time>
      </trkpt>
      <trkpt lat="43.83528" lon="4.19979">
        <ele>229.2</ele>
        <time>2026-05-09T08:17:33.999Z</time>
      </trkpt>
      <trkpt lat="43.83528" lon="4.19977">
        <ele>229</ele>
        <time>2026-05-09T08:17:34.999Z</time>
      </trkpt>
      <trkpt lat="43.83528" lon="4.19976">
        <ele>229</ele>
        <time>2026-05-09T08:17:35.999Z</time>
      </trkpt>
      <trkpt lat="43.83527" lon="4.19976">
        <ele>229</ele>
        <time>2026-05-09T08:17:36.999Z</time>
      </trkpt>
      <trkpt lat="43.83527" lon="4.19976">
        <ele>228.4</ele>
        <time>2026-05-09T08:17:37.999Z</time>
      </trkpt>
      <trkpt lat="43.83526" lon="4.19976">
        <ele>228</ele>
        <time>2026-05-09T08:17:38.999Z</time>
      </trkpt>
      <trkpt lat="43.83526" lon="4.19975">
        <ele>228.1</ele>
        <time>2026-05-09T08:17:39.999Z</time>
      </trkpt>
      <trkpt lat="43.83526" lon="4.19975">
        <ele>228.1</ele>
        <time>2026-05-09T08:17:40.999Z</time>
      </trkpt>
      <trkpt lat="43.83526" lon="4.19974">
        <ele>227.9</ele>
        <time>2026-05-09T08:17:41.999Z</time>
      </trkpt>
      <trkpt lat="43.83526" lon="4.19974">
        <ele>228.1</ele>
        <time>2026-05-09T08:17:42.999Z</time>
      </trkpt>
      <trkpt lat="43.83526" lon="4.19973">
        <ele>228</ele>
        <time>2026-05-09T08:17:43.999Z</time>
      </trkpt>
      <trkpt lat="43.83526" lon="4.19973">
        <ele>227.7</ele>
        <time>2026-05-09T08:17:44.999Z</time>
      </trkpt>
      <trkpt lat="43.83526" lon="4.19973">
        <ele>227.4</ele>
        <time>2026-05-09T08:17:45.999Z</time>
      </trkpt>
      <trkpt lat="43.83526" lon="4.19973">
        <ele>227.1</ele>
        <time>2026-05-09T08:17:46.999Z</time>
      </trkpt>
      <trkpt lat="43.83526" lon="4.19973">
        <ele>227.2</ele>
        <time>2026-05-09T08:17:47.999Z</time>
      </trkpt>
      <trkpt lat="43.83525" lon="4.19972">
        <ele>227.4</ele>
        <time>2026-05-09T08:17:48.999Z</time>
      </trkpt>
      <trkpt lat="43.83525" lon="4.19971">
        <ele>227.2</ele>
        <time>2026-05-09T08:17:49.999Z</time>
      </trkpt>
      <trkpt lat="43.83525" lon="4.1997">
        <ele>226.9</ele>
        <time>2026-05-09T08:17:50.999Z</time>
      </trkpt>
      <trkpt lat="43.83525" lon="4.1997">
        <ele>226.6</ele>
        <time>2026-05-09T08:17:51.999Z</time>
      </trkpt>
      <trkpt lat="43.83525" lon="4.19969">
        <ele>226.4</ele>
        <time>2026-05-09T08:17:52.999Z</time>
      </trkpt>
      <trkpt lat="43.83525" lon="4.19968">
        <ele>226.2</ele>
        <time>2026-05-09T08:17:53.999Z</time>
      </trkpt>
      <trkpt lat="43.83525" lon="4.19967">
        <ele>225.9</ele>
        <time>2026-05-09T08:17:54.999Z</time>
      </trkpt>
      <trkpt lat="43.83525" lon="4.19965">
        <ele>225.3</ele>
        <time>2026-05-09T08:17:55.999Z</time>
      </trkpt>
      <trkpt lat="43.83525" lon="4.19964">
        <ele>225.2</ele>
        <time>2026-05-09T08:17:56.999Z</time>
      </trkpt>
      <trkpt lat="43.83525" lon="4.19963">
        <ele>225.4</ele>
        <time>2026-05-09T08:17:57.999Z</time>
      </trkpt>
      <trkpt lat="43.83525" lon="4.19963">
        <ele>224.9</ele>
        <time>2026-05-09T08:17:58.999Z</time>
      </trkpt>
      <trkpt lat="43.83525" lon="4.19962">
        <ele>225.3</ele>
        <time>2026-05-09T08:17:59.999Z</time>
      </trkpt>
      <trkpt lat="43.83525" lon="4.19962">
        <ele>225.4</ele>
        <time>2026-05-09T08:18:00.999Z</time>
      </trkpt>
      <trkpt lat="43.83525" lon="4.19961">
        <ele>225.7</ele>
        <time>2026-05-09T08:18:01.999Z</time>
      </trkpt>
      <trkpt lat="43.83525" lon="4.19961">
        <ele>226</ele>
        <time>2026-05-09T08:18:02.999Z</time>
      </trkpt>
      <trkpt lat="43.83525" lon="4.19961">
        <ele>226.1</ele>
        <time>2026-05-09T08:18:03.999Z</time>
      </trkpt>
      <trkpt lat="43.83525" lon="4.19961">
        <ele>226</ele>
        <time>2026-05-09T08:18:04.999Z</time>
      </trkpt>
      <trkpt lat="43.83525" lon="4.19962">
        <ele>225.8</ele>
        <time>2026-05-09T08:18:05.999Z</time>
      </trkpt>
      <trkpt lat="43.83525" lon="4.19962">
        <ele>225.6</ele>
        <time>2026-05-09T08:18:06.999Z</time>
      </trkpt>
      <trkpt lat="43.83525" lon="4.19962">
        <ele>225.4</ele>
        <time>2026-05-09T08:18:07.999Z</time>
      </trkpt>
      <trkpt lat="43.83525" lon="4.19962">
        <ele>225.3</ele>
        <time>2026-05-09T08:18:08.999Z</time>
      </trkpt>
      <trkpt lat="43.83525" lon="4.19962">
        <ele>225.2</ele>
        <time>2026-05-09T08:18:09.999Z</time>
      </trkpt>
      <trkpt lat="43.83525" lon="4.19962">
        <ele>225.4</ele>
        <time>2026-05-09T08:18:10.999Z</time>
      </trkpt>
      <trkpt lat="43.83525" lon="4.19962">
        <ele>225.1</ele>
        <time>2026-05-09T08:18:11.999Z</time>
      </trkpt>
      <trkpt lat="43.83525" lon="4.19962">
        <ele>225</ele>
        <time>2026-05-09T08:18:12.999Z</time>
      </trkpt>
      <trkpt lat="43.83525" lon="4.19961">
        <ele>224.9</ele>
        <time>2026-05-09T08:18:13.999Z</time>
      </trkpt>
      <trkpt lat="43.83525" lon="4.19959">
        <ele>224.5</ele>
        <time>2026-05-09T08:18:14.999Z</time>
      </trkpt>
      <trkpt lat="43.83525" lon="4.19958">
        <ele>224.7</ele>
        <time>2026-05-09T08:18:15.999Z</time>
      </trkpt>
      <trkpt lat="43.83525" lon="4.19956">
        <ele>224.6</ele>
        <time>2026-05-09T08:18:16.999Z</time>
      </trkpt>
      <trkpt lat="43.83526" lon="4.19954">
        <ele>224.5</ele>
        <time>2026-05-09T08:18:17.999Z</time>
      </trkpt>
      <trkpt lat="43.83527" lon="4.19953">
        <ele>224.4</ele>
        <time>2026-05-09T08:18:18.999Z</time>
      </trkpt>
      <trkpt lat="43.83527" lon="4.19951">
        <ele>225</ele>
        <time>2026-05-09T08:18:19.999Z</time>
      </trkpt>
      <trkpt lat="43.83527" lon="4.19949">
        <ele>225.4</ele>
        <time>2026-05-09T08:18:20.999Z</time>
      </trkpt>
      <trkpt lat="43.83528" lon="4.19948">
        <ele>225.5</ele>
        <time>2026-05-09T08:18:21.999Z</time>
      </trkpt>
      <trkpt lat="43.83528" lon="4.19947">
        <ele>225.7</ele>
        <time>2026-05-09T08:18:22.999Z</time>
      </trkpt>
      <trkpt lat="43.83528" lon="4.19946">
        <ele>225.7</ele>
        <time>2026-05-09T08:18:23.999Z</time>
      </trkpt>
      <trkpt lat="43.83528" lon="4.19944">
        <ele>225.6</ele>
        <time>2026-05-09T08:18:24.999Z</time>
      </trkpt>
      <trkpt lat="43.83529" lon="4.19942">
        <ele>226.2</ele>
        <time>2026-05-09T08:18:25.999Z</time>
      </trkpt>
      <trkpt lat="43.83529" lon="4.1994">
        <ele>226.3</ele>
        <time>2026-05-09T08:18:26.999Z</time>
      </trkpt>
      <trkpt lat="43.83529" lon="4.19939">
        <ele>226.2</ele>
        <time>2026-05-09T08:18:27.999Z</time>
      </trkpt>
      <trkpt lat="43.83529" lon="4.19938">
        <ele>226.5</ele>
        <time>2026-05-09T08:18:28.999Z</time>
      </trkpt>
      <trkpt lat="43.83529" lon="4.19937">
        <ele>226.8</ele>
        <time>2026-05-09T08:18:29.999Z</time>
      </trkpt>
      <trkpt lat="43.83529" lon="4.19936">
        <ele>226.7</ele>
        <time>2026-05-09T08:18:30.999Z</time>
      </trkpt>
      <trkpt lat="43.83528" lon="4.19935">
        <ele>226.6</ele>
        <time>2026-05-09T08:18:31.999Z</time>
      </trkpt>
      <trkpt lat="43.83527" lon="4.19936">
        <ele>226.9</ele>
        <time>2026-05-09T08:18:32.999Z</time>
      </trkpt>
      <trkpt lat="43.83527" lon="4.19937">
        <ele>226.8</ele>
        <time>2026-05-09T08:18:33.999Z</time>
      </trkpt>
      <trkpt lat="43.83527" lon="4.19937">
        <ele>226.3</ele>
        <time>2026-05-09T08:18:34.999Z</time>
      </trkpt>
      <trkpt lat="43.83527" lon="4.19939">
        <ele>225.9</ele>
        <time>2026-05-09T08:18:35.999Z</time>
      </trkpt>
      <trkpt lat="43.83527" lon="4.1994">
        <ele>225.7</ele>
        <time>2026-05-09T08:18:36.999Z</time>
      </trkpt>
      <trkpt lat="43.83527" lon="4.19941">
        <ele>225.6</ele>
        <time>2026-05-09T08:18:37.999Z</time>
      </trkpt>
      <trkpt lat="43.83527" lon="4.19943">
        <ele>225.9</ele>
        <time>2026-05-09T08:18:38.999Z</time>
      </trkpt>
      <trkpt lat="43.83527" lon="4.19945">
        <ele>225.7</ele>
        <time>2026-05-09T08:18:39.999Z</time>
      </trkpt>
      <trkpt lat="43.83527" lon="4.19946">
        <ele>225.4</ele>
        <time>2026-05-09T08:18:40.999Z</time>
      </trkpt>
      <trkpt lat="43.83527" lon="4.19947">
        <ele>225.7</ele>
        <time>2026-05-09T08:18:41.999Z</time>
      </trkpt>
      <trkpt lat="43.83526" lon="4.19947">
        <ele>225.7</ele>
        <time>2026-05-09T08:18:42.999Z</time>
      </trkpt>
      <trkpt lat="43.83526" lon="4.19947">
        <ele>225.7</ele>
        <time>2026-05-09T08:18:43.999Z</time>
      </trkpt>
      <trkpt lat="43.83526" lon="4.19947">
        <ele>225.7</ele>
        <time>2026-05-09T08:18:44.999Z</time>
      </trkpt>
      <trkpt lat="43.83526" lon="4.19947">
        <ele>225.8</ele>
        <time>2026-05-09T08:18:45.999Z</time>
      </trkpt>
      <trkpt lat="43.83526" lon="4.19947">
        <ele>225.7</ele>
        <time>2026-05-09T08:18:46.999Z</time>
      </trkpt>
      <trkpt lat="43.83526" lon="4.19947">
        <ele>225.7</ele>
        <time>2026-05-09T08:18:47.999Z</time>
      </trkpt>
      <trkpt lat="43.83526" lon="4.19947">
        <ele>225.5</ele>
        <time>2026-05-09T08:18:48.999Z</time>
      </trkpt>
      <trkpt lat="43.83526" lon="4.19947">
        <ele>225.3</ele>
        <time>2026-05-09T08:18:49.999Z</time>
      </trkpt>
      <trkpt lat="43.83526" lon="4.19947">
        <ele>225.4</ele>
        <time>2026-05-09T08:18:50.999Z</time>
      </trkpt>
      <trkpt lat="43.83526" lon="4.19948">
        <ele>225.5</ele>
        <time>2026-05-09T08:18:51.999Z</time>
      </trkpt>
      <trkpt lat="43.83526" lon="4.19947">
        <ele>225.5</ele>
        <time>2026-05-09T08:18:52.999Z</time>
      </trkpt>
      <trkpt lat="43.83526" lon="4.19947">
        <ele>225.6</ele>
        <time>2026-05-09T08:18:53.999Z</time>
      </trkpt>
      <trkpt lat="43.83526" lon="4.19947">
        <ele>225.3</ele>
        <time>2026-05-09T08:18:54.999Z</time>
      </trkpt>
      <trkpt lat="43.83527" lon="4.19946">
        <ele>225</ele>
        <time>2026-05-09T08:18:55.999Z</time>
      </trkpt>
      <trkpt lat="43.83527" lon="4.19945">
        <ele>224.8</ele>
        <time>2026-05-09T08:18:56.999Z</time>
      </trkpt>
      <trkpt lat="43.83528" lon="4.19944">
        <ele>224.8</ele>
        <time>2026-05-09T08:18:57.999Z</time>
      </trkpt>
      <trkpt lat="43.83528" lon="4.19944">
        <ele>224.6</ele>
        <time>2026-05-09T08:18:58.999Z</time>
      </trkpt>
      <trkpt lat="43.83528" lon="4.19944">
        <ele>224.5</ele>
        <time>2026-05-09T08:18:59.999Z</time>
      </trkpt>
      <trkpt lat="43.83528" lon="4.19944">
        <ele>224.4</ele>
        <time>2026-05-09T08:19:00.999Z</time>
      </trkpt>
      <trkpt lat="43.83528" lon="4.19944">
        <ele>224.4</ele>
        <time>2026-05-09T08:19:01.999Z</time>
      </trkpt>
      <trkpt lat="43.83528" lon="4.19944">
        <ele>224.2</ele>
        <time>2026-05-09T08:19:02.999Z</time>
      </trkpt>
      <trkpt lat="43.83528" lon="4.19943">
        <ele>224.3</ele>
        <time>2026-05-09T08:19:03.999Z</time>
      </trkpt>
      <trkpt lat="43.83528" lon="4.19943">
        <ele>224.2</ele>
        <time>2026-05-09T08:19:04.999Z</time>
      </trkpt>
      <trkpt lat="43.83528" lon="4.19943">
        <ele>224.2</ele>
        <time>2026-05-09T08:19:05.999Z</time>
      </trkpt>
      <trkpt lat="43.83528" lon="4.19943">
        <ele>224.1</ele>
        <time>2026-05-09T08:19:06.999Z</time>
      </trkpt>
      <trkpt lat="43.83528" lon="4.19943">
        <ele>224.1</ele>
        <time>2026-05-09T08:19:07.999Z</time>
      </trkpt>
      <trkpt lat="43.83528" lon="4.19943">
        <ele>224.1</ele>
        <time>2026-05-09T08:19:08.999Z</time>
      </trkpt>
      <trkpt lat="43.83528" lon="4.19943">
        <ele>224.1</ele>
        <time>2026-05-09T08:19:09.999Z</time>
      </trkpt>
      <trkpt lat="43.83528" lon="4.19943">
        <ele>224</ele>
        <time>2026-05-09T08:19:10.999Z</time>
      </trkpt>
      <trkpt lat="43.83528" lon="4.19943">
        <ele>224</ele>
        <time>2026-05-09T08:19:11.999Z</time>
      </trkpt>
      <trkpt lat="43.83528" lon="4.19943">
        <ele>224</ele>
        <time>2026-05-09T08:19:12.999Z</time>
      </trkpt>
      <trkpt lat="43.83528" lon="4.19943">
        <ele>224.2</ele>
        <time>2026-05-09T08:19:13.999Z</time>
      </trkpt>
      <trkpt lat="43.83528" lon="4.19944">
        <ele>224.2</ele>
        <time>2026-05-09T08:19:14.999Z</time>
      </trkpt>
      <trkpt lat="43.83528" lon="4.19944">
        <ele>224.3</ele>
        <time>2026-05-09T08:19:15.999Z</time>
      </trkpt>
      <trkpt lat="43.83528" lon="4.19944">
        <ele>224.4</ele>
        <time>2026-05-09T08:19:16.999Z</time>
      </trkpt>
      <trkpt lat="43.83528" lon="4.19944">
        <ele>224.6</ele>
        <time>2026-05-09T08:19:17.999Z</time>
      </trkpt>
      <trkpt lat="43.83528" lon="4.19944">
        <ele>224.9</ele>
        <time>2026-05-09T08:19:18.999Z</time>
      </trkpt>
      <trkpt lat="43.83528" lon="4.19944">
        <ele>225</ele>
        <time>2026-05-09T08:19:19.999Z</time>
      </trkpt>
      <trkpt lat="43.83528" lon="4.19944">
        <ele>225.1</ele>
        <time>2026-05-09T08:19:20.999Z</time>
      </trkpt>
      <trkpt lat="43.83528" lon="4.19944">
        <ele>225.1</ele>
        <time>2026-05-09T08:19:21.999Z</time>
      </trkpt>
      <trkpt lat="43.83528" lon="4.19944">
        <ele>225.2</ele>
        <time>2026-05-09T08:19:22.999Z</time>
      </trkpt>
      <trkpt lat="43.83528" lon="4.19944">
        <ele>225.3</ele>
        <time>2026-05-09T08:19:23.999Z</time>
      </trkpt>
      <trkpt lat="43.83528" lon="4.19944">
        <ele>225.4</ele>
        <time>2026-05-09T08:19:24.999Z</time>
      </trkpt>
      <trkpt lat="43.83528" lon="4.19944">
        <ele>225.2</ele>
        <time>2026-05-09T08:19:25.999Z</time>
      </trkpt>
      <trkpt lat="43.83528" lon="4.19944">
        <ele>225</ele>
        <time>2026-05-09T08:19:26.999Z</time>
      </trkpt>
      <trkpt lat="43.83528" lon="4.19944">
        <ele>224.8</ele>
        <time>2026-05-09T08:19:27.999Z</time>
      </trkpt>
      <trkpt lat="43.83528" lon="4.19943">
        <ele>224.7</ele>
        <time>2026-05-09T08:19:28.999Z</time>
      </trkpt>
      <trkpt lat="43.83528" lon="4.19942">
        <ele>224.5</ele>
        <time>2026-05-09T08:19:29.999Z</time>
      </trkpt>
      <trkpt lat="43.83528" lon="4.19941">
        <ele>224.5</ele>
        <time>2026-05-09T08:19:30.999Z</time>
      </trkpt>
      <trkpt lat="43.83528" lon="4.1994">
        <ele>224.6</ele>
        <time>2026-05-09T08:19:31.999Z</time>
      </trkpt>
      <trkpt lat="43.83528" lon="4.19939">
        <ele>224.7</ele>
        <time>2026-05-09T08:19:32.999Z</time>
      </trkpt>
      <trkpt lat="43.83528" lon="4.19939">
        <ele>224.6</ele>
        <time>2026-05-09T08:19:33.999Z</time>
      </trkpt>
      <trkpt lat="43.83528" lon="4.19938">
        <ele>224.7</ele>
        <time>2026-05-09T08:19:34.999Z</time>
      </trkpt>
      <trkpt lat="43.83528" lon="4.19937">
        <ele>224.6</ele>
        <time>2026-05-09T08:19:35.999Z</time>
      </trkpt>
      <trkpt lat="43.83527" lon="4.19936">
        <ele>224.5</ele>
        <time>2026-05-09T08:19:36.999Z</time>
      </trkpt>
      <trkpt lat="43.83527" lon="4.19935">
        <ele>224.5</ele>
        <time>2026-05-09T08:19:37.999Z</time>
      </trkpt>
      <trkpt lat="43.83527" lon="4.19934">
        <ele>224.5</ele>
        <time>2026-05-09T08:19:38.999Z</time>
      </trkpt>
      <trkpt lat="43.83527" lon="4.19933">
        <ele>224.5</ele>
        <time>2026-05-09T08:19:39.999Z</time>
      </trkpt>
      <trkpt lat="43.83527" lon="4.19932">
        <ele>224.6</ele>
        <time>2026-05-09T08:19:40.999Z</time>
      </trkpt>
      <trkpt lat="43.83526" lon="4.19931">
        <ele>224.7</ele>
        <time>2026-05-09T08:19:41.999Z</time>
      </trkpt>
      <trkpt lat="43.83526" lon="4.1993">
        <ele>224.7</ele>
        <time>2026-05-09T08:19:42.999Z</time>
      </trkpt>
      <trkpt lat="43.83526" lon="4.19929">
        <ele>224.7</ele>
        <time>2026-05-09T08:19:43.999Z</time>
      </trkpt>
      <trkpt lat="43.83526" lon="4.19929">
        <ele>224.8</ele>
        <time>2026-05-09T08:19:44.999Z</time>
      </trkpt>
      <trkpt lat="43.83525" lon="4.19929">
        <ele>224.9</ele>
        <time>2026-05-09T08:19:45.999Z</time>
      </trkpt>
      <trkpt lat="43.83525" lon="4.19928">
        <ele>224.8</ele>
        <time>2026-05-09T08:19:47.999Z</time>
      </trkpt>
      <trkpt lat="43.83524" lon="4.19927">
        <ele>224.7</ele>
        <time>2026-05-09T08:19:48.999Z</time>
      </trkpt>
      <trkpt lat="43.83524" lon="4.19925">
        <ele>224.7</ele>
        <time>2026-05-09T08:19:49.999Z</time>
      </trkpt>
      <trkpt lat="43.83523" lon="4.19925">
        <ele>224.7</ele>
        <time>2026-05-09T08:19:50.999Z</time>
      </trkpt>
      <trkpt lat="43.83523" lon="4.19925">
        <ele>224.9</ele>
        <time>2026-05-09T08:19:51.999Z</time>
      </trkpt>
      <trkpt lat="43.83522" lon="4.19924">
        <ele>224.8</ele>
        <time>2026-05-09T08:19:52.999Z</time>
      </trkpt>
      <trkpt lat="43.83521" lon="4.19924">
        <ele>224.6</ele>
        <time>2026-05-09T08:19:53.999Z</time>
      </trkpt>
      <trkpt lat="43.83521" lon="4.19923">
        <ele>224.8</ele>
        <time>2026-05-09T08:19:54.999Z</time>
      </trkpt>
      <trkpt lat="43.8352" lon="4.19922">
        <ele>224.9</ele>
        <time>2026-05-09T08:19:55.999Z</time>
      </trkpt>
      <trkpt lat="43.8352" lon="4.19922">
        <ele>225</ele>
        <time>2026-05-09T08:19:56.999Z</time>
      </trkpt>
      <trkpt lat="43.8352" lon="4.1992">
        <ele>225.1</ele>
        <time>2026-05-09T08:19:57.999Z</time>
      </trkpt>
      <trkpt lat="43.83519" lon="4.19919">
        <ele>225.1</ele>
        <time>2026-05-09T08:19:58.999Z</time>
      </trkpt>
      <trkpt lat="43.83519" lon="4.19917">
        <ele>225.2</ele>
        <time>2026-05-09T08:19:59.999Z</time>
      </trkpt>
      <trkpt lat="43.83518" lon="4.19916">
        <ele>225.5</ele>
        <time>2026-05-09T08:20:00.999Z</time>
      </trkpt>
      <trkpt lat="43.83518" lon="4.19915">
        <ele>225.7</ele>
        <time>2026-05-09T08:20:01.999Z</time>
      </trkpt>
      <trkpt lat="43.83517" lon="4.19915">
        <ele>225.7</ele>
        <time>2026-05-09T08:20:02.999Z</time>
      </trkpt>
      <trkpt lat="43.83517" lon="4.19916">
        <ele>225.7</ele>
        <time>2026-05-09T08:20:03.999Z</time>
      </trkpt>
      <trkpt lat="43.83516" lon="4.19916">
        <ele>225.5</ele>
        <time>2026-05-09T08:20:04.999Z</time>
      </trkpt>
      <trkpt lat="43.83516" lon="4.19916">
        <ele>225.2</ele>
        <time>2026-05-09T08:20:05.999Z</time>
      </trkpt>
      <trkpt lat="43.83516" lon="4.19915">
        <ele>224.9</ele>
        <time>2026-05-09T08:20:06.999Z</time>
      </trkpt>
      <trkpt lat="43.83515" lon="4.19915">
        <ele>224.8</ele>
        <time>2026-05-09T08:20:07.999Z</time>
      </trkpt>
      <trkpt lat="43.83515" lon="4.19915">
        <ele>224.8</ele>
        <time>2026-05-09T08:20:08.999Z</time>
      </trkpt>
      <trkpt lat="43.83515" lon="4.19914">
        <ele>224.6</ele>
        <time>2026-05-09T08:20:09.999Z</time>
      </trkpt>
      <trkpt lat="43.83514" lon="4.19913">
        <ele>224.3</ele>
        <time>2026-05-09T08:20:10.999Z</time>
      </trkpt>
      <trkpt lat="43.83513" lon="4.19912">
        <ele>224</ele>
        <time>2026-05-09T08:20:11.999Z</time>
      </trkpt>
      <trkpt lat="43.83512" lon="4.19911">
        <ele>224.1</ele>
        <time>2026-05-09T08:20:12.999Z</time>
      </trkpt>
      <trkpt lat="43.83512" lon="4.19911">
        <ele>224</ele>
        <time>2026-05-09T08:20:13.999Z</time>
      </trkpt>
      <trkpt lat="43.83511" lon="4.19909">
        <ele>223.8</ele>
        <time>2026-05-09T08:20:14.999Z</time>
      </trkpt>
      <trkpt lat="43.8351" lon="4.19908">
        <ele>223.6</ele>
        <time>2026-05-09T08:20:15.999Z</time>
      </trkpt>
      <trkpt lat="43.8351" lon="4.19908">
        <ele>223.5</ele>
        <time>2026-05-09T08:20:16.999Z</time>
      </trkpt>
      <trkpt lat="43.8351" lon="4.19908">
        <ele>224</ele>
        <time>2026-05-09T08:20:17.999Z</time>
      </trkpt>
      <trkpt lat="43.83509" lon="4.19907">
        <ele>223.7</ele>
        <time>2026-05-09T08:20:18.999Z</time>
      </trkpt>
      <trkpt lat="43.83509" lon="4.19906">
        <ele>223.4</ele>
        <time>2026-05-09T08:20:19.999Z</time>
      </trkpt>
      <trkpt lat="43.83509" lon="4.19906">
        <ele>223.4</ele>
        <time>2026-05-09T08:20:20.999Z</time>
      </trkpt>
      <trkpt lat="43.83508" lon="4.19904">
        <ele>223.3</ele>
        <time>2026-05-09T08:20:21.999Z</time>
      </trkpt>
      <trkpt lat="43.83508" lon="4.19903">
        <ele>223.3</ele>
        <time>2026-05-09T08:20:22.999Z</time>
      </trkpt>
      <trkpt lat="43.83508" lon="4.19901">
        <ele>223.4</ele>
        <time>2026-05-09T08:20:23.999Z</time>
      </trkpt>
      <trkpt lat="43.83507" lon="4.199">
        <ele>223.4</ele>
        <time>2026-05-09T08:20:24.999Z</time>
      </trkpt>
      <trkpt lat="43.83508" lon="4.19899">
        <ele>223.7</ele>
        <time>2026-05-09T08:20:25.999Z</time>
      </trkpt>
      <trkpt lat="43.83507" lon="4.19899">
        <ele>223.7</ele>
        <time>2026-05-09T08:20:26.999Z</time>
      </trkpt>
      <trkpt lat="43.83506" lon="4.19898">
        <ele>223.7</ele>
        <time>2026-05-09T08:20:27.999Z</time>
      </trkpt>
      <trkpt lat="43.83505" lon="4.19898">
        <ele>223.6</ele>
        <time>2026-05-09T08:20:28.999Z</time>
      </trkpt>
      <trkpt lat="43.83505" lon="4.19898">
        <ele>223.6</ele>
        <time>2026-05-09T08:20:29.999Z</time>
      </trkpt>
      <trkpt lat="43.83504" lon="4.19897">
        <ele>223.7</ele>
        <time>2026-05-09T08:20:30.999Z</time>
      </trkpt>
      <trkpt lat="43.83503" lon="4.19895">
        <ele>223.5</ele>
        <time>2026-05-09T08:20:31.999Z</time>
      </trkpt>
      <trkpt lat="43.83503" lon="4.19894">
        <ele>223.3</ele>
        <time>2026-05-09T08:20:32.999Z</time>
      </trkpt>
      <trkpt lat="43.83502" lon="4.19893">
        <ele>223.3</ele>
        <time>2026-05-09T08:20:33.999Z</time>
      </trkpt>
      <trkpt lat="43.83502" lon="4.19892">
        <ele>223.5</ele>
        <time>2026-05-09T08:20:34.999Z</time>
      </trkpt>
      <trkpt lat="43.83501" lon="4.19891">
        <ele>223.5</ele>
        <time>2026-05-09T08:20:35.999Z</time>
      </trkpt>
      <trkpt lat="43.83501" lon="4.1989">
        <ele>223.3</ele>
        <time>2026-05-09T08:20:36.999Z</time>
      </trkpt>
      <trkpt lat="43.835" lon="4.19888">
        <ele>223.4</ele>
        <time>2026-05-09T08:20:37.999Z</time>
      </trkpt>
      <trkpt lat="43.835" lon="4.19887">
        <ele>223.1</ele>
        <time>2026-05-09T08:20:38.999Z</time>
      </trkpt>
      <trkpt lat="43.83501" lon="4.19886">
        <ele>223.2</ele>
        <time>2026-05-09T08:20:39.999Z</time>
      </trkpt>
      <trkpt lat="43.83501" lon="4.19885">
        <ele>223.2</ele>
        <time>2026-05-09T08:20:40.999Z</time>
      </trkpt>
      <trkpt lat="43.83501" lon="4.19884">
        <ele>223.3</ele>
        <time>2026-05-09T08:20:41.999Z</time>
      </trkpt>
      <trkpt lat="43.835" lon="4.19883">
        <ele>223.5</ele>
        <time>2026-05-09T08:20:42.999Z</time>
      </trkpt>
      <trkpt lat="43.835" lon="4.19882">
        <ele>223.5</ele>
        <time>2026-05-09T08:20:43.999Z</time>
      </trkpt>
      <trkpt lat="43.835" lon="4.19882">
        <ele>223.7</ele>
        <time>2026-05-09T08:20:44.999Z</time>
      </trkpt>
      <trkpt lat="43.835" lon="4.19881">
        <ele>223.6</ele>
        <time>2026-05-09T08:20:45.999Z</time>
      </trkpt>
      <trkpt lat="43.835" lon="4.1988">
        <ele>223.3</ele>
        <time>2026-05-09T08:20:46.999Z</time>
      </trkpt>
      <trkpt lat="43.83499" lon="4.1988">
        <ele>223.6</ele>
        <time>2026-05-09T08:20:47.999Z</time>
      </trkpt>
      <trkpt lat="43.83499" lon="4.1988">
        <ele>223.8</ele>
        <time>2026-05-09T08:20:48.999Z</time>
      </trkpt>
      <trkpt lat="43.83499" lon="4.1988">
        <ele>223.7</ele>
        <time>2026-05-09T08:20:49.999Z</time>
      </trkpt>
      <trkpt lat="43.83499" lon="4.19879">
        <ele>223.7</ele>
        <time>2026-05-09T08:20:50.999Z</time>
      </trkpt>
      <trkpt lat="43.83498" lon="4.19877">
        <ele>223.4</ele>
        <time>2026-05-09T08:20:51.999Z</time>
      </trkpt>
      <trkpt lat="43.83497" lon="4.19875">
        <ele>223.3</ele>
        <time>2026-05-09T08:20:52.999Z</time>
      </trkpt>
      <trkpt lat="43.83497" lon="4.19873">
        <ele>223.2</ele>
        <time>2026-05-09T08:20:53.999Z</time>
      </trkpt>
      <trkpt lat="43.83497" lon="4.19871">
        <ele>223.2</ele>
        <time>2026-05-09T08:20:54.999Z</time>
      </trkpt>
      <trkpt lat="43.83496" lon="4.1987">
        <ele>223.1</ele>
        <time>2026-05-09T08:20:55.999Z</time>
      </trkpt>
      <trkpt lat="43.83496" lon="4.19869">
        <ele>222.7</ele>
        <time>2026-05-09T08:20:56.999Z</time>
      </trkpt>
      <trkpt lat="43.83496" lon="4.19867">
        <ele>222.7</ele>
        <time>2026-05-09T08:20:57.999Z</time>
      </trkpt>
      <trkpt lat="43.83495" lon="4.19867">
        <ele>223</ele>
        <time>2026-05-09T08:20:58.999Z</time>
      </trkpt>
      <trkpt lat="43.83494" lon="4.19866">
        <ele>222.9</ele>
        <time>2026-05-09T08:20:59.999Z</time>
      </trkpt>
      <trkpt lat="43.83494" lon="4.19865">
        <ele>222.9</ele>
        <time>2026-05-09T08:21:00.999Z</time>
      </trkpt>
      <trkpt lat="43.83493" lon="4.19865">
        <ele>223.2</ele>
        <time>2026-05-09T08:21:01.999Z</time>
      </trkpt>
      <trkpt lat="43.83492" lon="4.19865">
        <ele>223.3</ele>
        <time>2026-05-09T08:21:02.999Z</time>
      </trkpt>
      <trkpt lat="43.83492" lon="4.19864">
        <ele>223.5</ele>
        <time>2026-05-09T08:21:03.999Z</time>
      </trkpt>
      <trkpt lat="43.83491" lon="4.19863">
        <ele>223.4</ele>
        <time>2026-05-09T08:21:04.999Z</time>
      </trkpt>
      <trkpt lat="43.8349" lon="4.19862">
        <ele>223.3</ele>
        <time>2026-05-09T08:21:05.999Z</time>
      </trkpt>
      <trkpt lat="43.8349" lon="4.19861">
        <ele>223.2</ele>
        <time>2026-05-09T08:21:06.999Z</time>
      </trkpt>
      <trkpt lat="43.83489" lon="4.1986">
        <ele>223.3</ele>
        <time>2026-05-09T08:21:07.999Z</time>
      </trkpt>
      <trkpt lat="43.83489" lon="4.19859">
        <ele>223.6</ele>
        <time>2026-05-09T08:21:08.999Z</time>
      </trkpt>
      <trkpt lat="43.83488" lon="4.19858">
        <ele>223.8</ele>
        <time>2026-05-09T08:21:09.999Z</time>
      </trkpt>
      <trkpt lat="43.83488" lon="4.19857">
        <ele>223.9</ele>
        <time>2026-05-09T08:21:10.999Z</time>
      </trkpt>
      <trkpt lat="43.83488" lon="4.19855">
        <ele>223.9</ele>
        <time>2026-05-09T08:21:11.999Z</time>
      </trkpt>
      <trkpt lat="43.83488" lon="4.19853">
        <ele>224.1</ele>
        <time>2026-05-09T08:21:12.999Z</time>
      </trkpt>
      <trkpt lat="43.83488" lon="4.19852">
        <ele>224.1</ele>
        <time>2026-05-09T08:21:13.999Z</time>
      </trkpt>
      <trkpt lat="43.83488" lon="4.19852">
        <ele>224.4</ele>
        <time>2026-05-09T08:21:14.999Z</time>
      </trkpt>
      <trkpt lat="43.83487" lon="4.19851">
        <ele>224.8</ele>
        <time>2026-05-09T08:21:15.999Z</time>
      </trkpt>
      <trkpt lat="43.83487" lon="4.1985">
        <ele>225</ele>
        <time>2026-05-09T08:21:16.999Z</time>
      </trkpt>
      <trkpt lat="43.83487" lon="4.19848">
        <ele>225.1</ele>
        <time>2026-05-09T08:21:17.999Z</time>
      </trkpt>
      <trkpt lat="43.83487" lon="4.19846">
        <ele>225</ele>
        <time>2026-05-09T08:21:18.999Z</time>
      </trkpt>
      <trkpt lat="43.83487" lon="4.19845">
        <ele>224.7</ele>
        <time>2026-05-09T08:21:19.999Z</time>
      </trkpt>
      <trkpt lat="43.83487" lon="4.19845">
        <ele>224.7</ele>
        <time>2026-05-09T08:21:20.999Z</time>
      </trkpt>
      <trkpt lat="43.83486" lon="4.19844">
        <ele>224.6</ele>
        <time>2026-05-09T08:21:21.999Z</time>
      </trkpt>
      <trkpt lat="43.83486" lon="4.19842">
        <ele>224.6</ele>
        <time>2026-05-09T08:21:22.999Z</time>
      </trkpt>
      <trkpt lat="43.83486" lon="4.19841">
        <ele>224.5</ele>
        <time>2026-05-09T08:21:23.999Z</time>
      </trkpt>
      <trkpt lat="43.83487" lon="4.19839">
        <ele>224.2</ele>
        <time>2026-05-09T08:21:24.999Z</time>
      </trkpt>
      <trkpt lat="43.83487" lon="4.19838">
        <ele>224.3</ele>
        <time>2026-05-09T08:21:25.999Z</time>
      </trkpt>
      <trkpt lat="43.83486" lon="4.19837">
        <ele>224.5</ele>
        <time>2026-05-09T08:21:26.999Z</time>
      </trkpt>
      <trkpt lat="43.83486" lon="4.19836">
        <ele>224.4</ele>
        <time>2026-05-09T08:21:27.999Z</time>
      </trkpt>
      <trkpt lat="43.83486" lon="4.19836">
        <ele>224.4</ele>
        <time>2026-05-09T08:21:28.999Z</time>
      </trkpt>
      <trkpt lat="43.83486" lon="4.19836">
        <ele>224.1</ele>
        <time>2026-05-09T08:21:29.999Z</time>
      </trkpt>
      <trkpt lat="43.83486" lon="4.19836">
        <ele>224.1</ele>
        <time>2026-05-09T08:21:30.999Z</time>
      </trkpt>
      <trkpt lat="43.83485" lon="4.19835">
        <ele>223.8</ele>
        <time>2026-05-09T08:21:31.999Z</time>
      </trkpt>
      <trkpt lat="43.83485" lon="4.19834">
        <ele>223.6</ele>
        <time>2026-05-09T08:21:32.999Z</time>
      </trkpt>
      <trkpt lat="43.83484" lon="4.19832">
        <ele>223.6</ele>
        <time>2026-05-09T08:21:33.999Z</time>
      </trkpt>
      <trkpt lat="43.83484" lon="4.1983">
        <ele>223.6</ele>
        <time>2026-05-09T08:21:34.999Z</time>
      </trkpt>
      <trkpt lat="43.83483" lon="4.19829">
        <ele>223.6</ele>
        <time>2026-05-09T08:21:35.999Z</time>
      </trkpt>
      <trkpt lat="43.83482" lon="4.19827">
        <ele>223.4</ele>
        <time>2026-05-09T08:21:36.999Z</time>
      </trkpt>
      <trkpt lat="43.83481" lon="4.19826">
        <ele>223.3</ele>
        <time>2026-05-09T08:21:37.999Z</time>
      </trkpt>
      <trkpt lat="43.83481" lon="4.19826">
        <ele>223.2</ele>
        <time>2026-05-09T08:21:38.999Z</time>
      </trkpt>
      <trkpt lat="43.8348" lon="4.19824">
        <ele>223</ele>
        <time>2026-05-09T08:21:39.999Z</time>
      </trkpt>
      <trkpt lat="43.8348" lon="4.19823">
        <ele>223</ele>
        <time>2026-05-09T08:21:40.999Z</time>
      </trkpt>
      <trkpt lat="43.83479" lon="4.19822">
        <ele>223</ele>
        <time>2026-05-09T08:21:41.999Z</time>
      </trkpt>
      <trkpt lat="43.83479" lon="4.19821">
        <ele>222.7</ele>
        <time>2026-05-09T08:21:42.999Z</time>
      </trkpt>
      <trkpt lat="43.83479" lon="4.1982">
        <ele>222.8</ele>
        <time>2026-05-09T08:21:43.999Z</time>
      </trkpt>
      <trkpt lat="43.8348" lon="4.19819">
        <ele>222.7</ele>
        <time>2026-05-09T08:21:44.999Z</time>
      </trkpt>
      <trkpt lat="43.8348" lon="4.19817">
        <ele>222.3</ele>
        <time>2026-05-09T08:21:45.999Z</time>
      </trkpt>
      <trkpt lat="43.8348" lon="4.19816">
        <ele>222.4</ele>
        <time>2026-05-09T08:21:46.999Z</time>
      </trkpt>
      <trkpt lat="43.8348" lon="4.19814">
        <ele>222.4</ele>
        <time>2026-05-09T08:21:47.999Z</time>
      </trkpt>
      <trkpt lat="43.83479" lon="4.19813">
        <ele>222.6</ele>
        <time>2026-05-09T08:21:48.999Z</time>
      </trkpt>
      <trkpt lat="43.83479" lon="4.19811">
        <ele>222.8</ele>
        <time>2026-05-09T08:21:49.999Z</time>
      </trkpt>
      <trkpt lat="43.83479" lon="4.19809">
        <ele>222.7</ele>
        <time>2026-05-09T08:21:50.999Z</time>
      </trkpt>
      <trkpt lat="43.83479" lon="4.19808">
        <ele>222.6</ele>
        <time>2026-05-09T08:21:51.999Z</time>
      </trkpt>
      <trkpt lat="43.83479" lon="4.19807">
        <ele>222.9</ele>
        <time>2026-05-09T08:21:52.999Z</time>
      </trkpt>
      <trkpt lat="43.83478" lon="4.19805">
        <ele>223.1</ele>
        <time>2026-05-09T08:21:53.999Z</time>
      </trkpt>
      <trkpt lat="43.83478" lon="4.19804">
        <ele>223</ele>
        <time>2026-05-09T08:21:54.999Z</time>
      </trkpt>
      <trkpt lat="43.83478" lon="4.19801">
        <ele>222.8</ele>
        <time>2026-05-09T08:21:55.999Z</time>
      </trkpt>
      <trkpt lat="43.83478" lon="4.198">
        <ele>223</ele>
        <time>2026-05-09T08:21:56.999Z</time>
      </trkpt>
      <trkpt lat="43.83479" lon="4.19798">
        <ele>222.9</ele>
        <time>2026-05-09T08:21:57.999Z</time>
      </trkpt>
      <trkpt lat="43.83479" lon="4.19796">
        <ele>223</ele>
        <time>2026-05-09T08:21:58.999Z</time>
      </trkpt>
      <trkpt lat="43.8348" lon="4.19794">
        <ele>223</ele>
        <time>2026-05-09T08:21:59.999Z</time>
      </trkpt>
      <trkpt lat="43.8348" lon="4.19792">
        <ele>223</ele>
        <time>2026-05-09T08:22:00.999Z</time>
      </trkpt>
      <trkpt lat="43.83481" lon="4.19792">
        <ele>222.9</ele>
        <time>2026-05-09T08:22:01.999Z</time>
      </trkpt>
      <trkpt lat="43.83481" lon="4.19791">
        <ele>222.7</ele>
        <time>2026-05-09T08:22:02.999Z</time>
      </trkpt>
      <trkpt lat="43.83481" lon="4.1979">
        <ele>222.6</ele>
        <time>2026-05-09T08:22:03.999Z</time>
      </trkpt>
      <trkpt lat="43.83481" lon="4.19789">
        <ele>223</ele>
        <time>2026-05-09T08:22:04.999Z</time>
      </trkpt>
      <trkpt lat="43.83482" lon="4.19789">
        <ele>223.5</ele>
        <time>2026-05-09T08:22:05.999Z</time>
      </trkpt>
      <trkpt lat="43.83482" lon="4.19788">
        <ele>223.7</ele>
        <time>2026-05-09T08:22:06.999Z</time>
      </trkpt>
      <trkpt lat="43.83482" lon="4.19787">
        <ele>223.5</ele>
        <time>2026-05-09T08:22:07.999Z</time>
      </trkpt>
      <trkpt lat="43.83482" lon="4.19787">
        <ele>223.1</ele>
        <time>2026-05-09T08:22:08.999Z</time>
      </trkpt>
      <trkpt lat="43.83483" lon="4.19787">
        <ele>222.9</ele>
        <time>2026-05-09T08:22:09.999Z</time>
      </trkpt>
      <trkpt lat="43.83484" lon="4.19786">
        <ele>223.2</ele>
        <time>2026-05-09T08:22:10.999Z</time>
      </trkpt>
      <trkpt lat="43.83484" lon="4.19785">
        <ele>223.7</ele>
        <time>2026-05-09T08:22:11.999Z</time>
      </trkpt>
      <trkpt lat="43.83485" lon="4.19783">
        <ele>224.1</ele>
        <time>2026-05-09T08:22:12.999Z</time>
      </trkpt>
      <trkpt lat="43.83485" lon="4.19782">
        <ele>224.4</ele>
        <time>2026-05-09T08:22:13.999Z</time>
      </trkpt>
      <trkpt lat="43.83486" lon="4.19781">
        <ele>224.6</ele>
        <time>2026-05-09T08:22:14.999Z</time>
      </trkpt>
      <trkpt lat="43.83486" lon="4.19779">
        <ele>224.7</ele>
        <time>2026-05-09T08:22:15.999Z</time>
      </trkpt>
      <trkpt lat="43.83486" lon="4.19779">
        <ele>224.8</ele>
        <time>2026-05-09T08:22:16.999Z</time>
      </trkpt>
      <trkpt lat="43.83486" lon="4.19778">
        <ele>224.5</ele>
        <time>2026-05-09T08:22:17.999Z</time>
      </trkpt>
      <trkpt lat="43.83486" lon="4.19777">
        <ele>224.3</ele>
        <time>2026-05-09T08:22:19.000Z</time>
      </trkpt>
      <trkpt lat="43.83486" lon="4.19776">
        <ele>224.4</ele>
        <time>2026-05-09T08:22:20.000Z</time>
      </trkpt>
      <trkpt lat="43.83487" lon="4.19775">
        <ele>224.5</ele>
        <time>2026-05-09T08:22:21.000Z</time>
      </trkpt>
      <trkpt lat="43.83487" lon="4.19775">
        <ele>224.9</ele>
        <time>2026-05-09T08:22:22.000Z</time>
      </trkpt>
      <trkpt lat="43.83487" lon="4.19775">
        <ele>224.8</ele>
        <time>2026-05-09T08:22:23.000Z</time>
      </trkpt>
      <trkpt lat="43.83487" lon="4.19774">
        <ele>224.8</ele>
        <time>2026-05-09T08:22:24.000Z</time>
      </trkpt>
      <trkpt lat="43.83487" lon="4.19774">
        <ele>225</ele>
        <time>2026-05-09T08:22:25.000Z</time>
      </trkpt>
      <trkpt lat="43.83487" lon="4.19774">
        <ele>225.3</ele>
        <time>2026-05-09T08:22:26.000Z</time>
      </trkpt>
      <trkpt lat="43.83487" lon="4.19773">
        <ele>225</ele>
        <time>2026-05-09T08:22:27.000Z</time>
      </trkpt>
      <trkpt lat="43.83488" lon="4.19773">
        <ele>224.9</ele>
        <time>2026-05-09T08:22:28.000Z</time>
      </trkpt>
      <trkpt lat="43.83489" lon="4.19772">
        <ele>225</ele>
        <time>2026-05-09T08:22:29.000Z</time>
      </trkpt>
      <trkpt lat="43.83489" lon="4.19772">
        <ele>225.6</ele>
        <time>2026-05-09T08:22:30.000Z</time>
      </trkpt>
      <trkpt lat="43.83489" lon="4.19772">
        <ele>225.7</ele>
        <time>2026-05-09T08:22:31.000Z</time>
      </trkpt>
      <trkpt lat="43.83489" lon="4.19772">
        <ele>225.7</ele>
        <time>2026-05-09T08:22:32.000Z</time>
      </trkpt>
      <trkpt lat="43.8349" lon="4.19771">
        <ele>225.7</ele>
        <time>2026-05-09T08:22:33.000Z</time>
      </trkpt>
      <trkpt lat="43.8349" lon="4.19772">
        <ele>225.7</ele>
        <time>2026-05-09T08:22:34.000Z</time>
      </trkpt>
      <trkpt lat="43.83491" lon="4.19771">
        <ele>225.9</ele>
        <time>2026-05-09T08:22:35.000Z</time>
      </trkpt>
      <trkpt lat="43.83492" lon="4.19771">
        <ele>226</ele>
        <time>2026-05-09T08:22:36.000Z</time>
      </trkpt>
      <trkpt lat="43.83492" lon="4.1977">
        <ele>226.3</ele>
        <time>2026-05-09T08:22:37.000Z</time>
      </trkpt>
      <trkpt lat="43.83493" lon="4.19769">
        <ele>226.5</ele>
        <time>2026-05-09T08:22:38.000Z</time>
      </trkpt>
      <trkpt lat="43.83494" lon="4.19768">
        <ele>226.8</ele>
        <time>2026-05-09T08:22:39.000Z</time>
      </trkpt>
      <trkpt lat="43.83494" lon="4.19767">
        <ele>227</ele>
        <time>2026-05-09T08:22:40.000Z</time>
      </trkpt>
      <trkpt lat="43.83494" lon="4.19766">
        <ele>227.3</ele>
        <time>2026-05-09T08:22:41.000Z</time>
      </trkpt>
      <trkpt lat="43.83494" lon="4.19765">
        <ele>227.4</ele>
        <time>2026-05-09T08:22:42.000Z</time>
      </trkpt>
      <trkpt lat="43.83494" lon="4.19765">
        <ele>227.8</ele>
        <time>2026-05-09T08:22:43.000Z</time>
      </trkpt>
      <trkpt lat="43.83494" lon="4.19765">
        <ele>228</ele>
        <time>2026-05-09T08:22:44.000Z</time>
      </trkpt>
      <trkpt lat="43.83494" lon="4.19765">
        <ele>228.1</ele>
        <time>2026-05-09T08:22:45.000Z</time>
      </trkpt>
      <trkpt lat="43.83494" lon="4.19765">
        <ele>228.1</ele>
        <time>2026-05-09T08:22:46.000Z</time>
      </trkpt>
      <trkpt lat="43.83494" lon="4.19765">
        <ele>228.1</ele>
        <time>2026-05-09T08:22:47.000Z</time>
      </trkpt>
      <trkpt lat="43.83494" lon="4.19765">
        <ele>228.2</ele>
        <time>2026-05-09T08:22:48.000Z</time>
      </trkpt>
      <trkpt lat="43.83494" lon="4.19765">
        <ele>228.1</ele>
        <time>2026-05-09T08:22:49.000Z</time>
      </trkpt>
      <trkpt lat="43.83494" lon="4.19765">
        <ele>228.2</ele>
        <time>2026-05-09T08:22:50.000Z</time>
      </trkpt>
      <trkpt lat="43.83494" lon="4.19765">
        <ele>228.2</ele>
        <time>2026-05-09T08:22:51.000Z</time>
      </trkpt>
      <trkpt lat="43.83494" lon="4.19765">
        <ele>228.5</ele>
        <time>2026-05-09T08:22:52.000Z</time>
      </trkpt>
      <trkpt lat="43.83494" lon="4.19765">
        <ele>228.6</ele>
        <time>2026-05-09T08:22:53.000Z</time>
      </trkpt>
      <trkpt lat="43.83494" lon="4.19765">
        <ele>228.7</ele>
        <time>2026-05-09T08:22:54.000Z</time>
      </trkpt>
      <trkpt lat="43.83494" lon="4.19765">
        <ele>228.9</ele>
        <time>2026-05-09T08:22:55.000Z</time>
      </trkpt>
      <trkpt lat="43.83494" lon="4.19765">
        <ele>229.1</ele>
        <time>2026-05-09T08:22:56.000Z</time>
      </trkpt>
      <trkpt lat="43.83494" lon="4.19765">
        <ele>229.4</ele>
        <time>2026-05-09T08:22:57.000Z</time>
      </trkpt>
      <trkpt lat="43.83495" lon="4.19765">
        <ele>229.4</ele>
        <time>2026-05-09T08:22:58.000Z</time>
      </trkpt>
      <trkpt lat="43.83495" lon="4.19765">
        <ele>229.7</ele>
        <time>2026-05-09T08:22:59.000Z</time>
      </trkpt>
      <trkpt lat="43.83495" lon="4.19765">
        <ele>229.8</ele>
        <time>2026-05-09T08:23:00.000Z</time>
      </trkpt>
      <trkpt lat="43.83495" lon="4.19765">
        <ele>229.9</ele>
        <time>2026-05-09T08:23:01.000Z</time>
      </trkpt>
      <trkpt lat="43.83495" lon="4.19765">
        <ele>230.1</ele>
        <time>2026-05-09T08:23:02.000Z</time>
      </trkpt>
      <trkpt lat="43.83495" lon="4.19765">
        <ele>230.2</ele>
        <time>2026-05-09T08:23:03.000Z</time>
      </trkpt>
      <trkpt lat="43.83496" lon="4.19765">
        <ele>230.5</ele>
        <time>2026-05-09T08:23:04.000Z</time>
      </trkpt>
      <trkpt lat="43.83496" lon="4.19765">
        <ele>230.6</ele>
        <time>2026-05-09T08:23:05.000Z</time>
      </trkpt>
      <trkpt lat="43.83497" lon="4.19764">
        <ele>230.8</ele>
        <time>2026-05-09T08:23:06.000Z</time>
      </trkpt>
      <trkpt lat="43.83497" lon="4.19765">
        <ele>230.9</ele>
        <time>2026-05-09T08:23:07.000Z</time>
      </trkpt>
      <trkpt lat="43.83497" lon="4.19764">
        <ele>231.1</ele>
        <time>2026-05-09T08:23:08.000Z</time>
      </trkpt>
      <trkpt lat="43.83497" lon="4.19764">
        <ele>231.3</ele>
        <time>2026-05-09T08:23:09.000Z</time>
      </trkpt>
      <trkpt lat="43.83497" lon="4.19764">
        <ele>231.7</ele>
        <time>2026-05-09T08:23:10.000Z</time>
      </trkpt>
      <trkpt lat="43.83498" lon="4.19763">
        <ele>232</ele>
        <time>2026-05-09T08:23:11.000Z</time>
      </trkpt>
      <trkpt lat="43.83498" lon="4.19763">
        <ele>232.3</ele>
        <time>2026-05-09T08:23:12.000Z</time>
      </trkpt>
      <trkpt lat="43.83498" lon="4.19763">
        <ele>232.4</ele>
        <time>2026-05-09T08:23:13.000Z</time>
      </trkpt>
      <trkpt lat="43.83498" lon="4.19763">
        <ele>232.6</ele>
        <time>2026-05-09T08:23:14.000Z</time>
      </trkpt>
      <trkpt lat="43.83498" lon="4.19763">
        <ele>232.9</ele>
        <time>2026-05-09T08:23:15.000Z</time>
      </trkpt>
      <trkpt lat="43.83498" lon="4.19762">
        <ele>233.1</ele>
        <time>2026-05-09T08:23:16.000Z</time>
      </trkpt>
      <trkpt lat="43.83498" lon="4.19762">
        <ele>233.3</ele>
        <time>2026-05-09T08:23:17.000Z</time>
      </trkpt>
      <trkpt lat="43.83498" lon="4.19762">
        <ele>233.6</ele>
        <time>2026-05-09T08:23:18.000Z</time>
      </trkpt>
      <trkpt lat="43.83498" lon="4.19762">
        <ele>234</ele>
        <time>2026-05-09T08:23:19.000Z</time>
      </trkpt>
      <trkpt lat="43.83498" lon="4.19762">
        <ele>234.2</ele>
        <time>2026-05-09T08:23:20.000Z</time>
      </trkpt>
      <trkpt lat="43.83499" lon="4.1976">
        <ele>234.4</ele>
        <time>2026-05-09T08:23:21.000Z</time>
      </trkpt>
      <trkpt lat="43.83499" lon="4.19759">
        <ele>234.6</ele>
        <time>2026-05-09T08:23:22.000Z</time>
      </trkpt>
      <trkpt lat="43.835" lon="4.19758">
        <ele>234.6</ele>
        <time>2026-05-09T08:23:23.000Z</time>
      </trkpt>
      <trkpt lat="43.835" lon="4.19757">
        <ele>234.4</ele>
        <time>2026-05-09T08:23:24.000Z</time>
      </trkpt>
      <trkpt lat="43.835" lon="4.19757">
        <ele>234.4</ele>
        <time>2026-05-09T08:23:25.000Z</time>
      </trkpt>
      <trkpt lat="43.835" lon="4.19757">
        <ele>234.6</ele>
        <time>2026-05-09T08:23:26.000Z</time>
      </trkpt>
      <trkpt lat="43.83501" lon="4.19756">
        <ele>234.5</ele>
        <time>2026-05-09T08:23:27.000Z</time>
      </trkpt>
      <trkpt lat="43.83501" lon="4.19755">
        <ele>234.4</ele>
        <time>2026-05-09T08:23:28.000Z</time>
      </trkpt>
      <trkpt lat="43.83501" lon="4.19754">
        <ele>234.5</ele>
        <time>2026-05-09T08:23:29.000Z</time>
      </trkpt>
      <trkpt lat="43.83501" lon="4.19753">
        <ele>234.6</ele>
        <time>2026-05-09T08:23:30.000Z</time>
      </trkpt>
      <trkpt lat="43.83501" lon="4.19751">
        <ele>234.7</ele>
        <time>2026-05-09T08:23:31.000Z</time>
      </trkpt>
      <trkpt lat="43.83501" lon="4.1975">
        <ele>234.5</ele>
        <time>2026-05-09T08:23:32.000Z</time>
      </trkpt>
      <trkpt lat="43.83501" lon="4.19748">
        <ele>234.3</ele>
        <time>2026-05-09T08:23:33.000Z</time>
      </trkpt>
      <trkpt lat="43.83501" lon="4.19746">
        <ele>234.2</ele>
        <time>2026-05-09T08:23:34.000Z</time>
      </trkpt>
      <trkpt lat="43.83501" lon="4.19744">
        <ele>234</ele>
        <time>2026-05-09T08:23:35.000Z</time>
      </trkpt>
      <trkpt lat="43.83501" lon="4.19743">
        <ele>234</ele>
        <time>2026-05-09T08:23:36.000Z</time>
      </trkpt>
      <trkpt lat="43.835" lon="4.19742">
        <ele>234.2</ele>
        <time>2026-05-09T08:23:37.000Z</time>
      </trkpt>
      <trkpt lat="43.83501" lon="4.19741">
        <ele>234.1</ele>
        <time>2026-05-09T08:23:38.000Z</time>
      </trkpt>
      <trkpt lat="43.83501" lon="4.1974">
        <ele>234</ele>
        <time>2026-05-09T08:23:39.000Z</time>
      </trkpt>
      <trkpt lat="43.83501" lon="4.1974">
        <ele>233.8</ele>
        <time>2026-05-09T08:23:40.000Z</time>
      </trkpt>
      <trkpt lat="43.83502" lon="4.19739">
        <ele>233.7</ele>
        <time>2026-05-09T08:23:41.000Z</time>
      </trkpt>
      <trkpt lat="43.83501" lon="4.1974">
        <ele>233.7</ele>
        <time>2026-05-09T08:23:42.000Z</time>
      </trkpt>
      <trkpt lat="43.83501" lon="4.1974">
        <ele>234.3</ele>
        <time>2026-05-09T08:23:43.000Z</time>
      </trkpt>
      <trkpt lat="43.83501" lon="4.19741">
        <ele>234.6</ele>
        <time>2026-05-09T08:23:44.000Z</time>
      </trkpt>
      <trkpt lat="43.83501" lon="4.19741">
        <ele>234.8</ele>
        <time>2026-05-09T08:23:45.000Z</time>
      </trkpt>
      <trkpt lat="43.83501" lon="4.19741">
        <ele>235</ele>
        <time>2026-05-09T08:23:46.000Z</time>
      </trkpt>
      <trkpt lat="43.83501" lon="4.19741">
        <ele>235.1</ele>
        <time>2026-05-09T08:23:47.000Z</time>
      </trkpt>
      <trkpt lat="43.83501" lon="4.19741">
        <ele>235.2</ele>
        <time>2026-05-09T08:23:48.000Z</time>
      </trkpt>
      <trkpt lat="43.83502" lon="4.19741">
        <ele>235.5</ele>
        <time>2026-05-09T08:23:49.000Z</time>
      </trkpt>
      <trkpt lat="43.83503" lon="4.19741">
        <ele>235.7</ele>
        <time>2026-05-09T08:23:50.000Z</time>
      </trkpt>
      <trkpt lat="43.83503" lon="4.19739">
        <ele>235.9</ele>
        <time>2026-05-09T08:23:51.000Z</time>
      </trkpt>
      <trkpt lat="43.83504" lon="4.19738">
        <ele>235.9</ele>
        <time>2026-05-09T08:23:52.000Z</time>
      </trkpt>
      <trkpt lat="43.83505" lon="4.19737">
        <ele>236.1</ele>
        <time>2026-05-09T08:23:53.000Z</time>
      </trkpt>
      <trkpt lat="43.83505" lon="4.19736">
        <ele>236</ele>
        <time>2026-05-09T08:23:54.000Z</time>
      </trkpt>
      <trkpt lat="43.83506" lon="4.19735">
        <ele>236.2</ele>
        <time>2026-05-09T08:23:55.000Z</time>
      </trkpt>
      <trkpt lat="43.83507" lon="4.19735">
        <ele>236.3</ele>
        <time>2026-05-09T08:23:56.000Z</time>
      </trkpt>
      <trkpt lat="43.83508" lon="4.19734">
        <ele>236.7</ele>
        <time>2026-05-09T08:23:57.000Z</time>
      </trkpt>
      <trkpt lat="43.83509" lon="4.19733">
        <ele>236.8</ele>
        <time>2026-05-09T08:23:58.000Z</time>
      </trkpt>
      <trkpt lat="43.8351" lon="4.19733">
        <ele>237.1</ele>
        <time>2026-05-09T08:23:59.000Z</time>
      </trkpt>
      <trkpt lat="43.8351" lon="4.19732">
        <ele>237.2</ele>
        <time>2026-05-09T08:24:00.000Z</time>
      </trkpt>
      <trkpt lat="43.83511" lon="4.19732">
        <ele>237.2</ele>
        <time>2026-05-09T08:24:01.000Z</time>
      </trkpt>
      <trkpt lat="43.83511" lon="4.19731">
        <ele>237.5</ele>
        <time>2026-05-09T08:24:02.000Z</time>
      </trkpt>
      <trkpt lat="43.83512" lon="4.19731">
        <ele>237.8</ele>
        <time>2026-05-09T08:24:03.000Z</time>
      </trkpt>
      <trkpt lat="43.83513" lon="4.1973">
        <ele>238</ele>
        <time>2026-05-09T08:24:04.000Z</time>
      </trkpt>
      <trkpt lat="43.83514" lon="4.19729">
        <ele>238.3</ele>
        <time>2026-05-09T08:24:05.000Z</time>
      </trkpt>
      <trkpt lat="43.83514" lon="4.19729">
        <ele>238.7</ele>
        <time>2026-05-09T08:24:06.000Z</time>
      </trkpt>
      <trkpt lat="43.83515" lon="4.19728">
        <ele>238.8</ele>
        <time>2026-05-09T08:24:07.000Z</time>
      </trkpt>
      <trkpt lat="43.83516" lon="4.19728">
        <ele>238.7</ele>
        <time>2026-05-09T08:24:08.000Z</time>
      </trkpt>
      <trkpt lat="43.83517" lon="4.19727">
        <ele>238.6</ele>
        <time>2026-05-09T08:24:09.000Z</time>
      </trkpt>
      <trkpt lat="43.83518" lon="4.19727">
        <ele>238.6</ele>
        <time>2026-05-09T08:24:10.000Z</time>
      </trkpt>
      <trkpt lat="43.83518" lon="4.19727">
        <ele>238.8</ele>
        <time>2026-05-09T08:24:11.000Z</time>
      </trkpt>
      <trkpt lat="43.83519" lon="4.19727">
        <ele>239.2</ele>
        <time>2026-05-09T08:24:12.000Z</time>
      </trkpt>
      <trkpt lat="43.83519" lon="4.19727">
        <ele>239.5</ele>
        <time>2026-05-09T08:24:13.000Z</time>
      </trkpt>
      <trkpt lat="43.83519" lon="4.19727">
        <ele>239.6</ele>
        <time>2026-05-09T08:24:14.000Z</time>
      </trkpt>
      <trkpt lat="43.83519" lon="4.19726">
        <ele>239.5</ele>
        <time>2026-05-09T08:24:15.000Z</time>
      </trkpt>
      <trkpt lat="43.83519" lon="4.19726">
        <ele>239.6</ele>
        <time>2026-05-09T08:24:16.000Z</time>
      </trkpt>
      <trkpt lat="43.83519" lon="4.19726">
        <ele>239.7</ele>
        <time>2026-05-09T08:24:17.000Z</time>
      </trkpt>
      <trkpt lat="43.83519" lon="4.19726">
        <ele>239.9</ele>
        <time>2026-05-09T08:24:18.000Z</time>
      </trkpt>
      <trkpt lat="43.83519" lon="4.19726">
        <ele>240.1</ele>
        <time>2026-05-09T08:24:19.000Z</time>
      </trkpt>
      <trkpt lat="43.83519" lon="4.19726">
        <ele>240.3</ele>
        <time>2026-05-09T08:24:20.000Z</time>
      </trkpt>
      <trkpt lat="43.83519" lon="4.19726">
        <ele>240.4</ele>
        <time>2026-05-09T08:24:21.000Z</time>
      </trkpt>
      <trkpt lat="43.83519" lon="4.19726">
        <ele>240.5</ele>
        <time>2026-05-09T08:24:22.000Z</time>
      </trkpt>
      <trkpt lat="43.83519" lon="4.19727">
        <ele>240.7</ele>
        <time>2026-05-09T08:24:23.000Z</time>
      </trkpt>
      <trkpt lat="43.83519" lon="4.19727">
        <ele>240.7</ele>
        <time>2026-05-09T08:24:24.000Z</time>
      </trkpt>
      <trkpt lat="43.83519" lon="4.19727">
        <ele>240.6</ele>
        <time>2026-05-09T08:24:25.000Z</time>
      </trkpt>
      <trkpt lat="43.83519" lon="4.19727">
        <ele>240.7</ele>
        <time>2026-05-09T08:24:26.000Z</time>
      </trkpt>
      <trkpt lat="43.83519" lon="4.19727">
        <ele>240.5</ele>
        <time>2026-05-09T08:24:27.000Z</time>
      </trkpt>
      <trkpt lat="43.83519" lon="4.19727">
        <ele>240.6</ele>
        <time>2026-05-09T08:24:28.000Z</time>
      </trkpt>
      <trkpt lat="43.83519" lon="4.19727">
        <ele>240.5</ele>
        <time>2026-05-09T08:24:29.000Z</time>
      </trkpt>
      <trkpt lat="43.83519" lon="4.19727">
        <ele>240.4</ele>
        <time>2026-05-09T08:24:30.000Z</time>
      </trkpt>
      <trkpt lat="43.83519" lon="4.19727">
        <ele>240.4</ele>
        <time>2026-05-09T08:24:31.000Z</time>
      </trkpt>
      <trkpt lat="43.83519" lon="4.19727">
        <ele>240.5</ele>
        <time>2026-05-09T08:24:32.000Z</time>
      </trkpt>
      <trkpt lat="43.83519" lon="4.19727">
        <ele>240.7</ele>
        <time>2026-05-09T08:24:33.000Z</time>
      </trkpt>
      <trkpt lat="43.83519" lon="4.19727">
        <ele>240.9</ele>
        <time>2026-05-09T08:24:34.000Z</time>
      </trkpt>
      <trkpt lat="43.83519" lon="4.19727">
        <ele>241.3</ele>
        <time>2026-05-09T08:24:35.000Z</time>
      </trkpt>
      <trkpt lat="43.83519" lon="4.19727">
        <ele>241.6</ele>
        <time>2026-05-09T08:24:36.000Z</time>
      </trkpt>
      <trkpt lat="43.83519" lon="4.19727">
        <ele>241.8</ele>
        <time>2026-05-09T08:24:37.000Z</time>
      </trkpt>
      <trkpt lat="43.8352" lon="4.19726">
        <ele>242.1</ele>
        <time>2026-05-09T08:24:38.000Z</time>
      </trkpt>
      <trkpt lat="43.8352" lon="4.19725">
        <ele>242.2</ele>
        <time>2026-05-09T08:24:39.000Z</time>
      </trkpt>
      <trkpt lat="43.8352" lon="4.19725">
        <ele>242.3</ele>
        <time>2026-05-09T08:24:40.000Z</time>
      </trkpt>
      <trkpt lat="43.8352" lon="4.19725">
        <ele>242.4</ele>
        <time>2026-05-09T08:24:41.000Z</time>
      </trkpt>
      <trkpt lat="43.8352" lon="4.19725">
        <ele>242.6</ele>
        <time>2026-05-09T08:24:42.000Z</time>
      </trkpt>
      <trkpt lat="43.8352" lon="4.19725">
        <ele>242.6</ele>
        <time>2026-05-09T08:24:43.000Z</time>
      </trkpt>
      <trkpt lat="43.8352" lon="4.19725">
        <ele>242.7</ele>
        <time>2026-05-09T08:24:44.000Z</time>
      </trkpt>
      <trkpt lat="43.8352" lon="4.19725">
        <ele>242.6</ele>
        <time>2026-05-09T08:24:45.000Z</time>
      </trkpt>
      <trkpt lat="43.8352" lon="4.19725">
        <ele>242.5</ele>
        <time>2026-05-09T08:24:46.000Z</time>
      </trkpt>
      <trkpt lat="43.8352" lon="4.19725">
        <ele>242.6</ele>
        <time>2026-05-09T08:24:47.000Z</time>
      </trkpt>
      <trkpt lat="43.8352" lon="4.19725">
        <ele>242.7</ele>
        <time>2026-05-09T08:24:48.000Z</time>
      </trkpt>
      <trkpt lat="43.8352" lon="4.19725">
        <ele>242.9</ele>
        <time>2026-05-09T08:24:49.000Z</time>
      </trkpt>
      <trkpt lat="43.8352" lon="4.19725">
        <ele>243</ele>
        <time>2026-05-09T08:24:50.000Z</time>
      </trkpt>
      <trkpt lat="43.8352" lon="4.19725">
        <ele>243</ele>
        <time>2026-05-09T08:24:51.000Z</time>
      </trkpt>
      <trkpt lat="43.8352" lon="4.19725">
        <ele>243.1</ele>
        <time>2026-05-09T08:24:52.000Z</time>
      </trkpt>
      <trkpt lat="43.8352" lon="4.19725">
        <ele>243.1</ele>
        <time>2026-05-09T08:24:53.000Z</time>
      </trkpt>
      <trkpt lat="43.8352" lon="4.19725">
        <ele>243.1</ele>
        <time>2026-05-09T08:24:54.000Z</time>
      </trkpt>
      <trkpt lat="43.8352" lon="4.19725">
        <ele>243.1</ele>
        <time>2026-05-09T08:24:55.000Z</time>
      </trkpt>
      <trkpt lat="43.8352" lon="4.19725">
        <ele>243.1</ele>
        <time>2026-05-09T08:24:56.000Z</time>
      </trkpt>
      <trkpt lat="43.8352" lon="4.19725">
        <ele>243.2</ele>
        <time>2026-05-09T08:24:57.000Z</time>
      </trkpt>
      <trkpt lat="43.83521" lon="4.19725">
        <ele>243.4</ele>
        <time>2026-05-09T08:24:58.000Z</time>
      </trkpt>
      <trkpt lat="43.83521" lon="4.19725">
        <ele>243.4</ele>
        <time>2026-05-09T08:24:59.000Z</time>
      </trkpt>
      <trkpt lat="43.83521" lon="4.19725">
        <ele>243.4</ele>
        <time>2026-05-09T08:25:00.000Z</time>
      </trkpt>
      <trkpt lat="43.83521" lon="4.19725">
        <ele>243.4</ele>
        <time>2026-05-09T08:25:01.000Z</time>
      </trkpt>
      <trkpt lat="43.83521" lon="4.19725">
        <ele>243.4</ele>
        <time>2026-05-09T08:25:02.000Z</time>
      </trkpt>
      <trkpt lat="43.83521" lon="4.19725">
        <ele>243.3</ele>
        <time>2026-05-09T08:25:03.000Z</time>
      </trkpt>
      <trkpt lat="43.83521" lon="4.19725">
        <ele>243.3</ele>
        <time>2026-05-09T08:25:04.000Z</time>
      </trkpt>
      <trkpt lat="43.83521" lon="4.19725">
        <ele>243.3</ele>
        <time>2026-05-09T08:25:05.000Z</time>
      </trkpt>
      <trkpt lat="43.83521" lon="4.19725">
        <ele>243.2</ele>
        <time>2026-05-09T08:25:06.000Z</time>
      </trkpt>
      <trkpt lat="43.83521" lon="4.19725">
        <ele>243.2</ele>
        <time>2026-05-09T08:25:07.000Z</time>
      </trkpt>
      <trkpt lat="43.83521" lon="4.19725">
        <ele>243.2</ele>
        <time>2026-05-09T08:25:08.000Z</time>
      </trkpt>
      <trkpt lat="43.83521" lon="4.19725">
        <ele>243.3</ele>
        <time>2026-05-09T08:25:09.000Z</time>
      </trkpt>
      <trkpt lat="43.83521" lon="4.19725">
        <ele>243.4</ele>
        <time>2026-05-09T08:25:10.000Z</time>
      </trkpt>
      <trkpt lat="43.83521" lon="4.19725">
        <ele>243.4</ele>
        <time>2026-05-09T08:25:11.000Z</time>
      </trkpt>
      <trkpt lat="43.83521" lon="4.19725">
        <ele>243.3</ele>
        <time>2026-05-09T08:25:12.000Z</time>
      </trkpt>
      <trkpt lat="43.83521" lon="4.19725">
        <ele>243.2</ele>
        <time>2026-05-09T08:25:13.000Z</time>
      </trkpt>
      <trkpt lat="43.8352" lon="4.19725">
        <ele>243.2</ele>
        <time>2026-05-09T08:25:14.000Z</time>
      </trkpt>
      <trkpt lat="43.8352" lon="4.19725">
        <ele>243.1</ele>
        <time>2026-05-09T08:25:15.000Z</time>
      </trkpt>
      <trkpt lat="43.8352" lon="4.19725">
        <ele>242.7</ele>
        <time>2026-05-09T08:25:16.000Z</time>
      </trkpt>
      <trkpt lat="43.8352" lon="4.19725">
        <ele>242.4</ele>
        <time>2026-05-09T08:25:17.000Z</time>
      </trkpt>
      <trkpt lat="43.8352" lon="4.19725">
        <ele>242.4</ele>
        <time>2026-05-09T08:25:18.000Z</time>
      </trkpt>
      <trkpt lat="43.8352" lon="4.19725">
        <ele>242.4</ele>
        <time>2026-05-09T08:25:19.000Z</time>
      </trkpt>
      <trkpt lat="43.8352" lon="4.19725">
        <ele>242.4</ele>
        <time>2026-05-09T08:25:20.000Z</time>
      </trkpt>
      <trkpt lat="43.8352" lon="4.19725">
        <ele>242.6</ele>
        <time>2026-05-09T08:25:21.000Z</time>
      </trkpt>
      <trkpt lat="43.8352" lon="4.19725">
        <ele>242.5</ele>
        <time>2026-05-09T08:25:22.000Z</time>
      </trkpt>
      <trkpt lat="43.8352" lon="4.19725">
        <ele>242.7</ele>
        <time>2026-05-09T08:25:23.000Z</time>
      </trkpt>
      <trkpt lat="43.8352" lon="4.19725">
        <ele>242.6</ele>
        <time>2026-05-09T08:25:24.000Z</time>
      </trkpt>
      <trkpt lat="43.8352" lon="4.19725">
        <ele>242.7</ele>
        <time>2026-05-09T08:25:25.000Z</time>
      </trkpt>
      <trkpt lat="43.8352" lon="4.19725">
        <ele>242.8</ele>
        <time>2026-05-09T08:25:26.000Z</time>
      </trkpt>
      <trkpt lat="43.8352" lon="4.19725">
        <ele>242.9</ele>
        <time>2026-05-09T08:25:27.000Z</time>
      </trkpt>
      <trkpt lat="43.8352" lon="4.19725">
        <ele>243.2</ele>
        <time>2026-05-09T08:25:28.000Z</time>
      </trkpt>
      <trkpt lat="43.8352" lon="4.19725">
        <ele>243.2</ele>
        <time>2026-05-09T08:25:29.000Z</time>
      </trkpt>
      <trkpt lat="43.8352" lon="4.19725">
        <ele>243.3</ele>
        <time>2026-05-09T08:25:30.000Z</time>
      </trkpt>
      <trkpt lat="43.8352" lon="4.19725">
        <ele>243.1</ele>
        <time>2026-05-09T08:25:31.000Z</time>
      </trkpt>
      <trkpt lat="43.8352" lon="4.19725">
        <ele>243.1</ele>
        <time>2026-05-09T08:25:32.000Z</time>
      </trkpt>
      <trkpt lat="43.8352" lon="4.19725">
        <ele>242.8</ele>
        <time>2026-05-09T08:25:33.000Z</time>
      </trkpt>
      <trkpt lat="43.8352" lon="4.19725">
        <ele>242.6</ele>
        <time>2026-05-09T08:25:34.000Z</time>
      </trkpt>
      <trkpt lat="43.8352" lon="4.19725">
        <ele>242.6</ele>
        <time>2026-05-09T08:25:35.000Z</time>
      </trkpt>
      <trkpt lat="43.8352" lon="4.19725">
        <ele>242.5</ele>
        <time>2026-05-09T08:25:36.000Z</time>
      </trkpt>
      <trkpt lat="43.8352" lon="4.19725">
        <ele>242.6</ele>
        <time>2026-05-09T08:25:37.000Z</time>
      </trkpt>
      <trkpt lat="43.8352" lon="4.19725">
        <ele>242.4</ele>
        <time>2026-05-09T08:25:38.000Z</time>
      </trkpt>
      <trkpt lat="43.8352" lon="4.19725">
        <ele>242.1</ele>
        <time>2026-05-09T08:25:39.000Z</time>
      </trkpt>
      <trkpt lat="43.8352" lon="4.19725">
        <ele>242.2</ele>
        <time>2026-05-09T08:25:40.000Z</time>
      </trkpt>
      <trkpt lat="43.8352" lon="4.19725">
        <ele>242.2</ele>
        <time>2026-05-09T08:25:41.000Z</time>
      </trkpt>
      <trkpt lat="43.8352" lon="4.19725">
        <ele>242.2</ele>
        <time>2026-05-09T08:25:42.000Z</time>
      </trkpt>
      <trkpt lat="43.8352" lon="4.19725">
        <ele>242.1</ele>
        <time>2026-05-09T08:25:43.000Z</time>
      </trkpt>
      <trkpt lat="43.8352" lon="4.19725">
        <ele>241.9</ele>
        <time>2026-05-09T08:25:44.000Z</time>
      </trkpt>
      <trkpt lat="43.8352" lon="4.19725">
        <ele>241.8</ele>
        <time>2026-05-09T08:25:45.000Z</time>
      </trkpt>
      <trkpt lat="43.8352" lon="4.19725">
        <ele>241.8</ele>
        <time>2026-05-09T08:25:46.000Z</time>
      </trkpt>
      <trkpt lat="43.8352" lon="4.19725">
        <ele>241.9</ele>
        <time>2026-05-09T08:25:47.000Z</time>
      </trkpt>
      <trkpt lat="43.8352" lon="4.19725">
        <ele>242</ele>
        <time>2026-05-09T08:25:48.000Z</time>
      </trkpt>
      <trkpt lat="43.8352" lon="4.19725">
        <ele>241.9</ele>
        <time>2026-05-09T08:25:49.000Z</time>
      </trkpt>
      <trkpt lat="43.8352" lon="4.19725">
        <ele>241.9</ele>
        <time>2026-05-09T08:25:50.000Z</time>
      </trkpt>
      <trkpt lat="43.83519" lon="4.19725">
        <ele>241.9</ele>
        <time>2026-05-09T08:25:51.000Z</time>
      </trkpt>
      <trkpt lat="43.83519" lon="4.19725">
        <ele>242</ele>
        <time>2026-05-09T08:25:52.000Z</time>
      </trkpt>
      <trkpt lat="43.83519" lon="4.19725">
        <ele>242</ele>
        <time>2026-05-09T08:25:53.000Z</time>
      </trkpt>
      <trkpt lat="43.8352" lon="4.19725">
        <ele>242.2</ele>
        <time>2026-05-09T08:25:54.000Z</time>
      </trkpt>
      <trkpt lat="43.8352" lon="4.19725">
        <ele>242.3</ele>
        <time>2026-05-09T08:25:55.000Z</time>
      </trkpt>
      <trkpt lat="43.8352" lon="4.19726">
        <ele>242.4</ele>
        <time>2026-05-09T08:25:56.000Z</time>
      </trkpt>
      <trkpt lat="43.8352" lon="4.19726">
        <ele>242.5</ele>
        <time>2026-05-09T08:25:57.000Z</time>
      </trkpt>
      <trkpt lat="43.8352" lon="4.19726">
        <ele>242.4</ele>
        <time>2026-05-09T08:25:58.000Z</time>
      </trkpt>
      <trkpt lat="43.8352" lon="4.19726">
        <ele>242.3</ele>
        <time>2026-05-09T08:25:59.000Z</time>
      </trkpt>
      <trkpt lat="43.8352" lon="4.19726">
        <ele>242.2</ele>
        <time>2026-05-09T08:26:00.000Z</time>
      </trkpt>
      <trkpt lat="43.8352" lon="4.19726">
        <ele>242</ele>
        <time>2026-05-09T08:26:01.000Z</time>
      </trkpt>
      <trkpt lat="43.8352" lon="4.19726">
        <ele>241.9</ele>
        <time>2026-05-09T08:26:02.000Z</time>
      </trkpt>
      <trkpt lat="43.8352" lon="4.19727">
        <ele>241.9</ele>
        <time>2026-05-09T08:26:03.000Z</time>
      </trkpt>
      <trkpt lat="43.8352" lon="4.19727">
        <ele>242</ele>
        <time>2026-05-09T08:26:04.000Z</time>
      </trkpt>
      <trkpt lat="43.8352" lon="4.19727">
        <ele>242</ele>
        <time>2026-05-09T08:26:05.000Z</time>
      </trkpt>
      <trkpt lat="43.83519" lon="4.19727">
        <ele>242</ele>
        <time>2026-05-09T08:26:06.000Z</time>
      </trkpt>
      <trkpt lat="43.83519" lon="4.19727">
        <ele>242</ele>
        <time>2026-05-09T08:26:07.000Z</time>
      </trkpt>
      <trkpt lat="43.83519" lon="4.19726">
        <ele>242.1</ele>
        <time>2026-05-09T08:26:08.000Z</time>
      </trkpt>
      <trkpt lat="43.83519" lon="4.19726">
        <ele>242.2</ele>
        <time>2026-05-09T08:26:09.000Z</time>
      </trkpt>
      <trkpt lat="43.83519" lon="4.19726">
        <ele>242.5</ele>
        <time>2026-05-09T08:26:10.000Z</time>
      </trkpt>
      <trkpt lat="43.83519" lon="4.19726">
        <ele>242.6</ele>
        <time>2026-05-09T08:26:11.000Z</time>
      </trkpt>
      <trkpt lat="43.83518" lon="4.19726">
        <ele>242.5</ele>
        <time>2026-05-09T08:26:12.000Z</time>
      </trkpt>
      <trkpt lat="43.83517" lon="4.19725">
        <ele>242.6</ele>
        <time>2026-05-09T08:26:13.000Z</time>
      </trkpt>
      <trkpt lat="43.83516" lon="4.19725">
        <ele>242.6</ele>
        <time>2026-05-09T08:26:14.000Z</time>
      </trkpt>
      <trkpt lat="43.83515" lon="4.19725">
        <ele>242.7</ele>
        <time>2026-05-09T08:26:15.000Z</time>
      </trkpt>
      <trkpt lat="43.83515" lon="4.19725">
        <ele>242.6</ele>
        <time>2026-05-09T08:26:16.000Z</time>
      </trkpt>
      <trkpt lat="43.83515" lon="4.19725">
        <ele>242.6</ele>
        <time>2026-05-09T08:26:17.000Z</time>
      </trkpt>
      <trkpt lat="43.83515" lon="4.19725">
        <ele>242.5</ele>
        <time>2026-05-09T08:26:18.000Z</time>
      </trkpt>
      <trkpt lat="43.83515" lon="4.19725">
        <ele>242.5</ele>
        <time>2026-05-09T08:26:19.000Z</time>
      </trkpt>
      <trkpt lat="43.83514" lon="4.19725">
        <ele>242.4</ele>
        <time>2026-05-09T08:26:20.000Z</time>
      </trkpt>
      <trkpt lat="43.83514" lon="4.19725">
        <ele>242.4</ele>
        <time>2026-05-09T08:26:21.000Z</time>
      </trkpt>
      <trkpt lat="43.83514" lon="4.19725">
        <ele>242.2</ele>
        <time>2026-05-09T08:26:22.000Z</time>
      </trkpt>
      <trkpt lat="43.83514" lon="4.19725">
        <ele>242.1</ele>
        <time>2026-05-09T08:26:23.000Z</time>
      </trkpt>
      <trkpt lat="43.83514" lon="4.19725">
        <ele>242.2</ele>
        <time>2026-05-09T08:26:24.000Z</time>
      </trkpt>
      <trkpt lat="43.83514" lon="4.19725">
        <ele>242.1</ele>
        <time>2026-05-09T08:26:25.000Z</time>
      </trkpt>
      <trkpt lat="43.83514" lon="4.19724">
        <ele>241.9</ele>
        <time>2026-05-09T08:26:26.000Z</time>
      </trkpt>
      <trkpt lat="43.83514" lon="4.19724">
        <ele>241.8</ele>
        <time>2026-05-09T08:26:27.000Z</time>
      </trkpt>
      <trkpt lat="43.83514" lon="4.19724">
        <ele>241.7</ele>
        <time>2026-05-09T08:26:28.000Z</time>
      </trkpt>
      <trkpt lat="43.83513" lon="4.19724">
        <ele>241.4</ele>
        <time>2026-05-09T08:26:29.000Z</time>
      </trkpt>
      <trkpt lat="43.83513" lon="4.19723">
        <ele>241.2</ele>
        <time>2026-05-09T08:26:30.000Z</time>
      </trkpt>
      <trkpt lat="43.83513" lon="4.19723">
        <ele>241.1</ele>
        <time>2026-05-09T08:26:31.000Z</time>
      </trkpt>
      <trkpt lat="43.83513" lon="4.19722">
        <ele>240.6</ele>
        <time>2026-05-09T08:26:32.000Z</time>
      </trkpt>
      <trkpt lat="43.83513" lon="4.19722">
        <ele>240.2</ele>
        <time>2026-05-09T08:26:33.000Z</time>
      </trkpt>
      <trkpt lat="43.83513" lon="4.19722">
        <ele>239.8</ele>
        <time>2026-05-09T08:26:34.000Z</time>
      </trkpt>
      <trkpt lat="43.83513" lon="4.19721">
        <ele>239.5</ele>
        <time>2026-05-09T08:26:35.000Z</time>
      </trkpt>
      <trkpt lat="43.83513" lon="4.19719">
        <ele>239.2</ele>
        <time>2026-05-09T08:26:36.000Z</time>
      </trkpt>
      <trkpt lat="43.83513" lon="4.19717">
        <ele>239</ele>
        <time>2026-05-09T08:26:37.000Z</time>
      </trkpt>
      <trkpt lat="43.83514" lon="4.19716">
        <ele>239.1</ele>
        <time>2026-05-09T08:26:38.000Z</time>
      </trkpt>
      <trkpt lat="43.83514" lon="4.19715">
        <ele>239.1</ele>
        <time>2026-05-09T08:26:39.000Z</time>
      </trkpt>
      <trkpt lat="43.83514" lon="4.19715">
        <ele>238.9</ele>
        <time>2026-05-09T08:26:40.000Z</time>
      </trkpt>
      <trkpt lat="43.83514" lon="4.19715">
        <ele>238.6</ele>
        <time>2026-05-09T08:26:41.000Z</time>
      </trkpt>
      <trkpt lat="43.83514" lon="4.19714">
        <ele>238.3</ele>
        <time>2026-05-09T08:26:42.000Z</time>
      </trkpt>
      <trkpt lat="43.83514" lon="4.19714">
        <ele>238</ele>
        <time>2026-05-09T08:26:43.000Z</time>
      </trkpt>
      <trkpt lat="43.83514" lon="4.19714">
        <ele>237.8</ele>
        <time>2026-05-09T08:26:44.000Z</time>
      </trkpt>
      <trkpt lat="43.83514" lon="4.19714">
        <ele>237.5</ele>
        <time>2026-05-09T08:26:45.000Z</time>
      </trkpt>
      <trkpt lat="43.83514" lon="4.19713">
        <ele>237.4</ele>
        <time>2026-05-09T08:26:46.000Z</time>
      </trkpt>
      <trkpt lat="43.83514" lon="4.19713">
        <ele>237.2</ele>
        <time>2026-05-09T08:26:47.000Z</time>
      </trkpt>
      <trkpt lat="43.83514" lon="4.19713">
        <ele>236.9</ele>
        <time>2026-05-09T08:26:48.000Z</time>
      </trkpt>
      <trkpt lat="43.83514" lon="4.19713">
        <ele>236.7</ele>
        <time>2026-05-09T08:26:49.000Z</time>
      </trkpt>
      <trkpt lat="43.83514" lon="4.1971">
        <ele>236.3</ele>
        <time>2026-05-09T08:26:50.000Z</time>
      </trkpt>
      <trkpt lat="43.83514" lon="4.19706">
        <ele>236.2</ele>
        <time>2026-05-09T08:26:51.000Z</time>
      </trkpt>
      <trkpt lat="43.83514" lon="4.19703">
        <ele>236.3</ele>
        <time>2026-05-09T08:26:52.000Z</time>
      </trkpt>
      <trkpt lat="43.83513" lon="4.197">
        <ele>236.2</ele>
        <time>2026-05-09T08:26:53.000Z</time>
      </trkpt>
      <trkpt lat="43.83513" lon="4.19697">
        <ele>236.1</ele>
        <time>2026-05-09T08:26:54.000Z</time>
      </trkpt>
      <trkpt lat="43.83514" lon="4.19696">
        <ele>235.8</ele>
        <time>2026-05-09T08:26:55.000Z</time>
      </trkpt>
      <trkpt lat="43.83514" lon="4.19693">
        <ele>235.6</ele>
        <time>2026-05-09T08:26:56.000Z</time>
      </trkpt>
      <trkpt lat="43.83515" lon="4.19691">
        <ele>235.5</ele>
        <time>2026-05-09T08:26:57.000Z</time>
      </trkpt>
      <trkpt lat="43.83516" lon="4.19689">
        <ele>235.5</ele>
        <time>2026-05-09T08:26:58.000Z</time>
      </trkpt>
      <trkpt lat="43.83516" lon="4.19687">
        <ele>235.5</ele>
        <time>2026-05-09T08:26:59.000Z</time>
      </trkpt>
      <trkpt lat="43.83517" lon="4.19685">
        <ele>235.7</ele>
        <time>2026-05-09T08:27:00.000Z</time>
      </trkpt>
      <trkpt lat="43.83517" lon="4.19683">
        <ele>235.6</ele>
        <time>2026-05-09T08:27:01.000Z</time>
      </trkpt>
      <trkpt lat="43.83517" lon="4.19682">
        <ele>235.5</ele>
        <time>2026-05-09T08:27:02.000Z</time>
      </trkpt>
      <trkpt lat="43.83517" lon="4.19681">
        <ele>235.4</ele>
        <time>2026-05-09T08:27:03.000Z</time>
      </trkpt>
      <trkpt lat="43.83517" lon="4.19679">
        <ele>235.5</ele>
        <time>2026-05-09T08:27:04.000Z</time>
      </trkpt>
      <trkpt lat="43.83517" lon="4.19678">
        <ele>235.5</ele>
        <time>2026-05-09T08:27:05.000Z</time>
      </trkpt>
      <trkpt lat="43.83517" lon="4.19677">
        <ele>235.3</ele>
        <time>2026-05-09T08:27:06.000Z</time>
      </trkpt>
      <trkpt lat="43.83517" lon="4.19675">
        <ele>235.3</ele>
        <time>2026-05-09T08:27:07.000Z</time>
      </trkpt>
      <trkpt lat="43.83517" lon="4.19673">
        <ele>235.5</ele>
        <time>2026-05-09T08:27:08.000Z</time>
      </trkpt>
      <trkpt lat="43.83516" lon="4.19672">
        <ele>235.7</ele>
        <time>2026-05-09T08:27:09.000Z</time>
      </trkpt>
      <trkpt lat="43.83516" lon="4.19671">
        <ele>235.8</ele>
        <time>2026-05-09T08:27:10.000Z</time>
      </trkpt>
      <trkpt lat="43.83516" lon="4.19671">
        <ele>235.9</ele>
        <time>2026-05-09T08:27:11.000Z</time>
      </trkpt>
      <trkpt lat="43.83516" lon="4.1967">
        <ele>236.1</ele>
        <time>2026-05-09T08:27:12.000Z</time>
      </trkpt>
      <trkpt lat="43.83516" lon="4.19669">
        <ele>235.8</ele>
        <time>2026-05-09T08:27:13.000Z</time>
      </trkpt>
      <trkpt lat="43.83516" lon="4.19667">
        <ele>235.8</ele>
        <time>2026-05-09T08:27:14.000Z</time>
      </trkpt>
      <trkpt lat="43.83516" lon="4.19665">
        <ele>235.7</ele>
        <time>2026-05-09T08:27:15.000Z</time>
      </trkpt>
      <trkpt lat="43.83515" lon="4.19663">
        <ele>235.5</ele>
        <time>2026-05-09T08:27:16.000Z</time>
      </trkpt>
      <trkpt lat="43.83515" lon="4.19662">
        <ele>235.2</ele>
        <time>2026-05-09T08:27:17.000Z</time>
      </trkpt>
      <trkpt lat="43.83515" lon="4.1966">
        <ele>235.2</ele>
        <time>2026-05-09T08:27:18.000Z</time>
      </trkpt>
      <trkpt lat="43.83514" lon="4.19659">
        <ele>234.8</ele>
        <time>2026-05-09T08:27:19.000Z</time>
      </trkpt>
      <trkpt lat="43.83514" lon="4.19658">
        <ele>234.5</ele>
        <time>2026-05-09T08:27:20.000Z</time>
      </trkpt>
      <trkpt lat="43.83514" lon="4.19657">
        <ele>234.5</ele>
        <time>2026-05-09T08:27:21.000Z</time>
      </trkpt>
      <trkpt lat="43.83514" lon="4.19656">
        <ele>234.7</ele>
        <time>2026-05-09T08:27:22.000Z</time>
      </trkpt>
      <trkpt lat="43.83514" lon="4.19654">
        <ele>234.6</ele>
        <time>2026-05-09T08:27:23.000Z</time>
      </trkpt>
      <trkpt lat="43.83513" lon="4.19653">
        <ele>234.3</ele>
        <time>2026-05-09T08:27:24.000Z</time>
      </trkpt>
      <trkpt lat="43.83513" lon="4.19652">
        <ele>234.3</ele>
        <time>2026-05-09T08:27:25.000Z</time>
      </trkpt>
      <trkpt lat="43.83513" lon="4.19651">
        <ele>234.2</ele>
        <time>2026-05-09T08:27:26.000Z</time>
      </trkpt>
      <trkpt lat="43.83512" lon="4.19651">
        <ele>234.4</ele>
        <time>2026-05-09T08:27:27.000Z</time>
      </trkpt>
      <trkpt lat="43.83512" lon="4.19649">
        <ele>234.6</ele>
        <time>2026-05-09T08:27:28.000Z</time>
      </trkpt>
      <trkpt lat="43.83512" lon="4.19647">
        <ele>234.8</ele>
        <time>2026-05-09T08:27:29.000Z</time>
      </trkpt>
      <trkpt lat="43.83511" lon="4.19645">
        <ele>234.7</ele>
        <time>2026-05-09T08:27:30.000Z</time>
      </trkpt>
      <trkpt lat="43.83511" lon="4.19645">
        <ele>234.5</ele>
        <time>2026-05-09T08:27:31.000Z</time>
      </trkpt>
      <trkpt lat="43.83511" lon="4.19644">
        <ele>234.8</ele>
        <time>2026-05-09T08:27:32.000Z</time>
      </trkpt>
      <trkpt lat="43.8351" lon="4.19643">
        <ele>235.1</ele>
        <time>2026-05-09T08:27:33.000Z</time>
      </trkpt>
      <trkpt lat="43.8351" lon="4.19642">
        <ele>235.5</ele>
        <time>2026-05-09T08:27:34.000Z</time>
      </trkpt>
      <trkpt lat="43.8351" lon="4.1964">
        <ele>235.5</ele>
        <time>2026-05-09T08:27:35.000Z</time>
      </trkpt>
      <trkpt lat="43.8351" lon="4.19639">
        <ele>235.8</ele>
        <time>2026-05-09T08:27:36.000Z</time>
      </trkpt>
      <trkpt lat="43.8351" lon="4.19637">
        <ele>235.4</ele>
        <time>2026-05-09T08:27:37.000Z</time>
      </trkpt>
      <trkpt lat="43.83511" lon="4.19635">
        <ele>235.1</ele>
        <time>2026-05-09T08:27:38.000Z</time>
      </trkpt>
      <trkpt lat="43.83512" lon="4.19634">
        <ele>235.3</ele>
        <time>2026-05-09T08:27:39.000Z</time>
      </trkpt>
      <trkpt lat="43.83512" lon="4.19632">
        <ele>235.7</ele>
        <time>2026-05-09T08:27:40.000Z</time>
      </trkpt>
      <trkpt lat="43.83512" lon="4.19631">
        <ele>236.1</ele>
        <time>2026-05-09T08:27:41.000Z</time>
      </trkpt>
      <trkpt lat="43.83513" lon="4.19629">
        <ele>236.5</ele>
        <time>2026-05-09T08:27:42.000Z</time>
      </trkpt>
      <trkpt lat="43.83513" lon="4.19627">
        <ele>237</ele>
        <time>2026-05-09T08:27:43.000Z</time>
      </trkpt>
      <trkpt lat="43.83513" lon="4.19626">
        <ele>237.1</ele>
        <time>2026-05-09T08:27:44.000Z</time>
      </trkpt>
      <trkpt lat="43.83513" lon="4.19626">
        <ele>237.2</ele>
        <time>2026-05-09T08:27:45.000Z</time>
      </trkpt>
      <trkpt lat="43.83513" lon="4.19625">
        <ele>237.5</ele>
        <time>2026-05-09T08:27:46.000Z</time>
      </trkpt>
      <trkpt lat="43.83514" lon="4.19625">
        <ele>237.4</ele>
        <time>2026-05-09T08:27:47.000Z</time>
      </trkpt>
      <trkpt lat="43.83514" lon="4.19623">
        <ele>237.4</ele>
        <time>2026-05-09T08:27:48.000Z</time>
      </trkpt>
      <trkpt lat="43.83514" lon="4.19621">
        <ele>237.5</ele>
        <time>2026-05-09T08:27:49.000Z</time>
      </trkpt>
      <trkpt lat="43.83515" lon="4.1962">
        <ele>237.6</ele>
        <time>2026-05-09T08:27:50.000Z</time>
      </trkpt>
      <trkpt lat="43.83515" lon="4.19618">
        <ele>237.9</ele>
        <time>2026-05-09T08:27:51.000Z</time>
      </trkpt>
      <trkpt lat="43.83515" lon="4.19617">
        <ele>238.2</ele>
        <time>2026-05-09T08:27:52.000Z</time>
      </trkpt>
      <trkpt lat="43.83515" lon="4.19616">
        <ele>238.4</ele>
        <time>2026-05-09T08:27:53.000Z</time>
      </trkpt>
      <trkpt lat="43.83515" lon="4.19614">
        <ele>238.5</ele>
        <time>2026-05-09T08:27:54.000Z</time>
      </trkpt>
      <trkpt lat="43.83516" lon="4.19613">
        <ele>238.7</ele>
        <time>2026-05-09T08:27:55.000Z</time>
      </trkpt>
      <trkpt lat="43.83516" lon="4.19611">
        <ele>238.5</ele>
        <time>2026-05-09T08:27:56.000Z</time>
      </trkpt>
      <trkpt lat="43.83517" lon="4.19609">
        <ele>238.4</ele>
        <time>2026-05-09T08:27:57.000Z</time>
      </trkpt>
      <trkpt lat="43.83517" lon="4.19607">
        <ele>238.1</ele>
        <time>2026-05-09T08:27:58.000Z</time>
      </trkpt>
      <trkpt lat="43.83517" lon="4.19606">
        <ele>238.1</ele>
        <time>2026-05-09T08:27:59.000Z</time>
      </trkpt>
      <trkpt lat="43.83517" lon="4.19604">
        <ele>237.7</ele>
        <time>2026-05-09T08:28:00.000Z</time>
      </trkpt>
      <trkpt lat="43.83517" lon="4.19603">
        <ele>237.6</ele>
        <time>2026-05-09T08:28:01.000Z</time>
      </trkpt>
      <trkpt lat="43.83518" lon="4.19602">
        <ele>237.5</ele>
        <time>2026-05-09T08:28:02.000Z</time>
      </trkpt>
      <trkpt lat="43.83518" lon="4.19601">
        <ele>237.5</ele>
        <time>2026-05-09T08:28:03.000Z</time>
      </trkpt>
      <trkpt lat="43.83518" lon="4.19601">
        <ele>237.6</ele>
        <time>2026-05-09T08:28:04.000Z</time>
      </trkpt>
      <trkpt lat="43.83519" lon="4.19599">
        <ele>237.8</ele>
        <time>2026-05-09T08:28:05.000Z</time>
      </trkpt>
      <trkpt lat="43.83519" lon="4.19598">
        <ele>238</ele>
        <time>2026-05-09T08:28:06.000Z</time>
      </trkpt>
      <trkpt lat="43.83519" lon="4.19598">
        <ele>237.9</ele>
        <time>2026-05-09T08:28:07.000Z</time>
      </trkpt>
      <trkpt lat="43.83519" lon="4.19598">
        <ele>237.9</ele>
        <time>2026-05-09T08:28:08.000Z</time>
      </trkpt>
      <trkpt lat="43.83519" lon="4.19598">
        <ele>238.3</ele>
        <time>2026-05-09T08:28:09.000Z</time>
      </trkpt>
      <trkpt lat="43.83519" lon="4.19598">
        <ele>238.3</ele>
        <time>2026-05-09T08:28:10.000Z</time>
      </trkpt>
      <trkpt lat="43.83519" lon="4.19598">
        <ele>238</ele>
        <time>2026-05-09T08:28:11.000Z</time>
      </trkpt>
      <trkpt lat="43.8352" lon="4.19598">
        <ele>237.7</ele>
        <time>2026-05-09T08:28:12.000Z</time>
      </trkpt>
      <trkpt lat="43.8352" lon="4.19598">
        <ele>237.7</ele>
        <time>2026-05-09T08:28:13.000Z</time>
      </trkpt>
      <trkpt lat="43.8352" lon="4.19597">
        <ele>237.6</ele>
        <time>2026-05-09T08:28:14.000Z</time>
      </trkpt>
      <trkpt lat="43.8352" lon="4.19596">
        <ele>237.9</ele>
        <time>2026-05-09T08:28:15.000Z</time>
      </trkpt>
      <trkpt lat="43.83521" lon="4.19595">
        <ele>237.9</ele>
        <time>2026-05-09T08:28:16.000Z</time>
      </trkpt>
      <trkpt lat="43.83522" lon="4.19593">
        <ele>238.1</ele>
        <time>2026-05-09T08:28:17.000Z</time>
      </trkpt>
      <trkpt lat="43.83523" lon="4.19592">
        <ele>238.4</ele>
        <time>2026-05-09T08:28:18.000Z</time>
      </trkpt>
      <trkpt lat="43.83523" lon="4.19591">
        <ele>238.8</ele>
        <time>2026-05-09T08:28:19.000Z</time>
      </trkpt>
      <trkpt lat="43.83522" lon="4.1959">
        <ele>238.9</ele>
        <time>2026-05-09T08:28:20.000Z</time>
      </trkpt>
      <trkpt lat="43.83522" lon="4.19589">
        <ele>239.2</ele>
        <time>2026-05-09T08:28:21.000Z</time>
      </trkpt>
      <trkpt lat="43.83521" lon="4.19589">
        <ele>239.3</ele>
        <time>2026-05-09T08:28:22.000Z</time>
      </trkpt>
      <trkpt lat="43.83521" lon="4.19588">
        <ele>239.3</ele>
        <time>2026-05-09T08:28:23.000Z</time>
      </trkpt>
      <trkpt lat="43.8352" lon="4.19587">
        <ele>239.2</ele>
        <time>2026-05-09T08:28:24.000Z</time>
      </trkpt>
      <trkpt lat="43.83519" lon="4.19586">
        <ele>239.1</ele>
        <time>2026-05-09T08:28:25.000Z</time>
      </trkpt>
      <trkpt lat="43.83519" lon="4.19585">
        <ele>238.8</ele>
        <time>2026-05-09T08:28:26.000Z</time>
      </trkpt>
      <trkpt lat="43.83519" lon="4.19585">
        <ele>238.7</ele>
        <time>2026-05-09T08:28:27.000Z</time>
      </trkpt>
      <trkpt lat="43.83519" lon="4.19585">
        <ele>238.5</ele>
        <time>2026-05-09T08:28:28.000Z</time>
      </trkpt>
      <trkpt lat="43.83519" lon="4.19584">
        <ele>238.4</ele>
        <time>2026-05-09T08:28:29.000Z</time>
      </trkpt>
      <trkpt lat="43.83519" lon="4.19584">
        <ele>238.4</ele>
        <time>2026-05-09T08:28:30.000Z</time>
      </trkpt>
      <trkpt lat="43.83519" lon="4.19583">
        <ele>238.4</ele>
        <time>2026-05-09T08:28:31.000Z</time>
      </trkpt>
      <trkpt lat="43.8352" lon="4.19581">
        <ele>238.4</ele>
        <time>2026-05-09T08:28:32.000Z</time>
      </trkpt>
      <trkpt lat="43.8352" lon="4.19579">
        <ele>238.5</ele>
        <time>2026-05-09T08:28:33.000Z</time>
      </trkpt>
      <trkpt lat="43.83521" lon="4.19578">
        <ele>238.3</ele>
        <time>2026-05-09T08:28:34.000Z</time>
      </trkpt>
      <trkpt lat="43.83521" lon="4.19576">
        <ele>238.1</ele>
        <time>2026-05-09T08:28:35.000Z</time>
      </trkpt>
      <trkpt lat="43.83521" lon="4.19574">
        <ele>237.9</ele>
        <time>2026-05-09T08:28:36.000Z</time>
      </trkpt>
      <trkpt lat="43.83521" lon="4.19572">
        <ele>237.6</ele>
        <time>2026-05-09T08:28:37.000Z</time>
      </trkpt>
      <trkpt lat="43.83522" lon="4.19571">
        <ele>237.6</ele>
        <time>2026-05-09T08:28:38.000Z</time>
      </trkpt>
      <trkpt lat="43.83521" lon="4.1957">
        <ele>237.5</ele>
        <time>2026-05-09T08:28:39.000Z</time>
      </trkpt>
      <trkpt lat="43.83521" lon="4.1957">
        <ele>237.2</ele>
        <time>2026-05-09T08:28:40.000Z</time>
      </trkpt>
      <trkpt lat="43.83521" lon="4.19569">
        <ele>237.3</ele>
        <time>2026-05-09T08:28:41.000Z</time>
      </trkpt>
      <trkpt lat="43.83521" lon="4.19569">
        <ele>237</ele>
        <time>2026-05-09T08:28:42.000Z</time>
      </trkpt>
      <trkpt lat="43.83521" lon="4.19569">
        <ele>236.9</ele>
        <time>2026-05-09T08:28:43.000Z</time>
      </trkpt>
      <trkpt lat="43.83521" lon="4.19568">
        <ele>237</ele>
        <time>2026-05-09T08:28:44.000Z</time>
      </trkpt>
      <trkpt lat="43.83521" lon="4.19568">
        <ele>237.1</ele>
        <time>2026-05-09T08:28:45.000Z</time>
      </trkpt>
      <trkpt lat="43.83521" lon="4.19568">
        <ele>237</ele>
        <time>2026-05-09T08:28:46.000Z</time>
      </trkpt>
      <trkpt lat="43.83521" lon="4.19568">
        <ele>236.9</ele>
        <time>2026-05-09T08:28:47.000Z</time>
      </trkpt>
      <trkpt lat="43.83521" lon="4.19568">
        <ele>236.6</ele>
        <time>2026-05-09T08:28:48.000Z</time>
      </trkpt>
      <trkpt lat="43.83521" lon="4.19568">
        <ele>236.5</ele>
        <time>2026-05-09T08:28:49.000Z</time>
      </trkpt>
      <trkpt lat="43.83521" lon="4.19568">
        <ele>236.5</ele>
        <time>2026-05-09T08:28:50.000Z</time>
      </trkpt>
      <trkpt lat="43.83521" lon="4.19567">
        <ele>236.2</ele>
        <time>2026-05-09T08:28:51.000Z</time>
      </trkpt>
      <trkpt lat="43.83521" lon="4.19567">
        <ele>236</ele>
        <time>2026-05-09T08:28:52.000Z</time>
      </trkpt>
      <trkpt lat="43.83521" lon="4.19565">
        <ele>235.6</ele>
        <time>2026-05-09T08:28:53.000Z</time>
      </trkpt>
      <trkpt lat="43.83521" lon="4.19564">
        <ele>235.3</ele>
        <time>2026-05-09T08:28:54.000Z</time>
      </trkpt>
      <trkpt lat="43.83521" lon="4.19562">
        <ele>235.1</ele>
        <time>2026-05-09T08:28:55.000Z</time>
      </trkpt>
      <trkpt lat="43.83522" lon="4.1956">
        <ele>235</ele>
        <time>2026-05-09T08:28:56.000Z</time>
      </trkpt>
      <trkpt lat="43.83522" lon="4.19557">
        <ele>235.2</ele>
        <time>2026-05-09T08:28:57.000Z</time>
      </trkpt>
      <trkpt lat="43.83522" lon="4.19554">
        <ele>235.3</ele>
        <time>2026-05-09T08:28:58.000Z</time>
      </trkpt>
      <trkpt lat="43.83522" lon="4.19552">
        <ele>235.4</ele>
        <time>2026-05-09T08:28:59.000Z</time>
      </trkpt>
      <trkpt lat="43.83522" lon="4.1955">
        <ele>235.5</ele>
        <time>2026-05-09T08:29:00.000Z</time>
      </trkpt>
      <trkpt lat="43.83522" lon="4.19549">
        <ele>235.3</ele>
        <time>2026-05-09T08:29:01.000Z</time>
      </trkpt>
      <trkpt lat="43.83522" lon="4.19547">
        <ele>235.6</ele>
        <time>2026-05-09T08:29:02.000Z</time>
      </trkpt>
      <trkpt lat="43.83522" lon="4.19545">
        <ele>235.8</ele>
        <time>2026-05-09T08:29:03.000Z</time>
      </trkpt>
      <trkpt lat="43.83522" lon="4.19542">
        <ele>235.9</ele>
        <time>2026-05-09T08:29:04.000Z</time>
      </trkpt>
      <trkpt lat="43.83522" lon="4.19541">
        <ele>236</ele>
        <time>2026-05-09T08:29:05.000Z</time>
      </trkpt>
      <trkpt lat="43.83522" lon="4.1954">
        <ele>235.9</ele>
        <time>2026-05-09T08:29:06.000Z</time>
      </trkpt>
      <trkpt lat="43.83522" lon="4.1954">
        <ele>236</ele>
        <time>2026-05-09T08:29:07.000Z</time>
      </trkpt>
      <trkpt lat="43.83521" lon="4.19539">
        <ele>235.8</ele>
        <time>2026-05-09T08:29:08.000Z</time>
      </trkpt>
      <trkpt lat="43.83521" lon="4.19537">
        <ele>235.6</ele>
        <time>2026-05-09T08:29:09.000Z</time>
      </trkpt>
      <trkpt lat="43.83522" lon="4.19535">
        <ele>235.7</ele>
        <time>2026-05-09T08:29:10.000Z</time>
      </trkpt>
      <trkpt lat="43.83522" lon="4.19534">
        <ele>235.5</ele>
        <time>2026-05-09T08:29:11.000Z</time>
      </trkpt>
      <trkpt lat="43.83522" lon="4.19532">
        <ele>235.6</ele>
        <time>2026-05-09T08:29:12.000Z</time>
      </trkpt>
      <trkpt lat="43.83523" lon="4.1953">
        <ele>235.4</ele>
        <time>2026-05-09T08:29:13.000Z</time>
      </trkpt>
      <trkpt lat="43.83523" lon="4.1953">
        <ele>235.5</ele>
        <time>2026-05-09T08:29:14.000Z</time>
      </trkpt>
      <trkpt lat="43.83524" lon="4.19529">
        <ele>235.7</ele>
        <time>2026-05-09T08:29:15.000Z</time>
      </trkpt>
      <trkpt lat="43.83524" lon="4.19528">
        <ele>235.8</ele>
        <time>2026-05-09T08:29:16.000Z</time>
      </trkpt>
      <trkpt lat="43.83524" lon="4.19527">
        <ele>235.9</ele>
        <time>2026-05-09T08:29:17.000Z</time>
      </trkpt>
      <trkpt lat="43.83525" lon="4.19526">
        <ele>236</ele>
        <time>2026-05-09T08:29:18.000Z</time>
      </trkpt>
      <trkpt lat="43.83525" lon="4.19525">
        <ele>235.8</ele>
        <time>2026-05-09T08:29:19.000Z</time>
      </trkpt>
      <trkpt lat="43.83525" lon="4.19524">
        <ele>236</ele>
        <time>2026-05-09T08:29:20.000Z</time>
      </trkpt>
      <trkpt lat="43.83525" lon="4.19523">
        <ele>236</ele>
        <time>2026-05-09T08:29:21.000Z</time>
      </trkpt>
      <trkpt lat="43.83524" lon="4.19522">
        <ele>235.8</ele>
        <time>2026-05-09T08:29:22.000Z</time>
      </trkpt>
      <trkpt lat="43.83523" lon="4.19521">
        <ele>235.8</ele>
        <time>2026-05-09T08:29:23.000Z</time>
      </trkpt>
      <trkpt lat="43.83523" lon="4.1952">
        <ele>236.3</ele>
        <time>2026-05-09T08:29:24.000Z</time>
      </trkpt>
      <trkpt lat="43.83522" lon="4.19519">
        <ele>236.4</ele>
        <time>2026-05-09T08:29:25.000Z</time>
      </trkpt>
      <trkpt lat="43.83522" lon="4.19518">
        <ele>236.3</ele>
        <time>2026-05-09T08:29:26.000Z</time>
      </trkpt>
      <trkpt lat="43.83521" lon="4.19518">
        <ele>236</ele>
        <time>2026-05-09T08:29:27.000Z</time>
      </trkpt>
      <trkpt lat="43.83521" lon="4.19516">
        <ele>235.9</ele>
        <time>2026-05-09T08:29:28.000Z</time>
      </trkpt>
      <trkpt lat="43.83521" lon="4.19515">
        <ele>235.8</ele>
        <time>2026-05-09T08:29:29.000Z</time>
      </trkpt>
      <trkpt lat="43.8352" lon="4.19513">
        <ele>235.8</ele>
        <time>2026-05-09T08:29:30.000Z</time>
      </trkpt>
      <trkpt lat="43.8352" lon="4.19512">
        <ele>235.7</ele>
        <time>2026-05-09T08:29:31.000Z</time>
      </trkpt>
      <trkpt lat="43.83519" lon="4.19511">
        <ele>235.7</ele>
        <time>2026-05-09T08:29:32.000Z</time>
      </trkpt>
      <trkpt lat="43.83519" lon="4.1951">
        <ele>235.7</ele>
        <time>2026-05-09T08:29:33.000Z</time>
      </trkpt>
      <trkpt lat="43.83519" lon="4.19509">
        <ele>235.8</ele>
        <time>2026-05-09T08:29:34.000Z</time>
      </trkpt>
      <trkpt lat="43.83519" lon="4.19508">
        <ele>235.8</ele>
        <time>2026-05-09T08:29:35.000Z</time>
      </trkpt>
      <trkpt lat="43.83518" lon="4.19506">
        <ele>235.8</ele>
        <time>2026-05-09T08:29:36.000Z</time>
      </trkpt>
      <trkpt lat="43.83518" lon="4.19504">
        <ele>235.4</ele>
        <time>2026-05-09T08:29:37.000Z</time>
      </trkpt>
      <trkpt lat="43.83518" lon="4.19503">
        <ele>235.3</ele>
        <time>2026-05-09T08:29:38.000Z</time>
      </trkpt>
      <trkpt lat="43.83518" lon="4.19502">
        <ele>235.5</ele>
        <time>2026-05-09T08:29:39.000Z</time>
      </trkpt>
      <trkpt lat="43.83518" lon="4.19501">
        <ele>235.5</ele>
        <time>2026-05-09T08:29:40.000Z</time>
      </trkpt>
      <trkpt lat="43.83518" lon="4.19501">
        <ele>235.4</ele>
        <time>2026-05-09T08:29:41.000Z</time>
      </trkpt>
      <trkpt lat="43.83517" lon="4.195">
        <ele>235.4</ele>
        <time>2026-05-09T08:29:42.000Z</time>
      </trkpt>
      <trkpt lat="43.83517" lon="4.19499">
        <ele>235.3</ele>
        <time>2026-05-09T08:29:43.000Z</time>
      </trkpt>
      <trkpt lat="43.83517" lon="4.19497">
        <ele>235.2</ele>
        <time>2026-05-09T08:29:44.000Z</time>
      </trkpt>
      <trkpt lat="43.83516" lon="4.19495">
        <ele>234.7</ele>
        <time>2026-05-09T08:29:45.000Z</time>
      </trkpt>
      <trkpt lat="43.83516" lon="4.19494">
        <ele>234.6</ele>
        <time>2026-05-09T08:29:46.000Z</time>
      </trkpt>
      <trkpt lat="43.83517" lon="4.19492">
        <ele>234</ele>
        <time>2026-05-09T08:29:47.000Z</time>
      </trkpt>
      <trkpt lat="43.83517" lon="4.1949">
        <ele>233.6</ele>
        <time>2026-05-09T08:29:48.000Z</time>
      </trkpt>
      <trkpt lat="43.83517" lon="4.19488">
        <ele>233</ele>
        <time>2026-05-09T08:29:49.000Z</time>
      </trkpt>
      <trkpt lat="43.83518" lon="4.19486">
        <ele>232.8</ele>
        <time>2026-05-09T08:29:50.000Z</time>
      </trkpt>
      <trkpt lat="43.83518" lon="4.19485">
        <ele>232.7</ele>
        <time>2026-05-09T08:29:51.000Z</time>
      </trkpt>
      <trkpt lat="43.83518" lon="4.19484">
        <ele>232.5</ele>
        <time>2026-05-09T08:29:52.000Z</time>
      </trkpt>
      <trkpt lat="43.83519" lon="4.19483">
        <ele>232.4</ele>
        <time>2026-05-09T08:29:53.000Z</time>
      </trkpt>
      <trkpt lat="43.83519" lon="4.19482">
        <ele>232.5</ele>
        <time>2026-05-09T08:29:54.000Z</time>
      </trkpt>
      <trkpt lat="43.83518" lon="4.1948">
        <ele>232.6</ele>
        <time>2026-05-09T08:29:55.000Z</time>
      </trkpt>
      <trkpt lat="43.83518" lon="4.19479">
        <ele>232.6</ele>
        <time>2026-05-09T08:29:56.000Z</time>
      </trkpt>
      <trkpt lat="43.83518" lon="4.19477">
        <ele>232.7</ele>
        <time>2026-05-09T08:29:57.000Z</time>
      </trkpt>
      <trkpt lat="43.83518" lon="4.19476">
        <ele>232.8</ele>
        <time>2026-05-09T08:29:58.000Z</time>
      </trkpt>
      <trkpt lat="43.83518" lon="4.19475">
        <ele>232.7</ele>
        <time>2026-05-09T08:29:59.000Z</time>
      </trkpt>
      <trkpt lat="43.83519" lon="4.19473">
        <ele>232.6</ele>
        <time>2026-05-09T08:30:00.000Z</time>
      </trkpt>
      <trkpt lat="43.83519" lon="4.19473">
        <ele>232.4</ele>
        <time>2026-05-09T08:30:01.000Z</time>
      </trkpt>
      <trkpt lat="43.83519" lon="4.19472">
        <ele>232.4</ele>
        <time>2026-05-09T08:30:02.000Z</time>
      </trkpt>
      <trkpt lat="43.83519" lon="4.19472">
        <ele>232.6</ele>
        <time>2026-05-09T08:30:03.000Z</time>
      </trkpt>
      <trkpt lat="43.83519" lon="4.19472">
        <ele>232.8</ele>
        <time>2026-05-09T08:30:04.000Z</time>
      </trkpt>
      <trkpt lat="43.83519" lon="4.19472">
        <ele>233</ele>
        <time>2026-05-09T08:30:05.000Z</time>
      </trkpt>
      <trkpt lat="43.83519" lon="4.19471">
        <ele>233</ele>
        <time>2026-05-09T08:30:06.000Z</time>
      </trkpt>
      <trkpt lat="43.8352" lon="4.19469">
        <ele>233.1</ele>
        <time>2026-05-09T08:30:07.000Z</time>
      </trkpt>
      <trkpt lat="43.8352" lon="4.19467">
        <ele>233.1</ele>
        <time>2026-05-09T08:30:08.000Z</time>
      </trkpt>
      <trkpt lat="43.83521" lon="4.19466">
        <ele>232.9</ele>
        <time>2026-05-09T08:30:09.000Z</time>
      </trkpt>
      <trkpt lat="43.83521" lon="4.19464">
        <ele>232.6</ele>
        <time>2026-05-09T08:30:10.000Z</time>
      </trkpt>
      <trkpt lat="43.83521" lon="4.19463">
        <ele>232.4</ele>
        <time>2026-05-09T08:30:11.000Z</time>
      </trkpt>
      <trkpt lat="43.83521" lon="4.19463">
        <ele>232.4</ele>
        <time>2026-05-09T08:30:12.000Z</time>
      </trkpt>
      <trkpt lat="43.83521" lon="4.19462">
        <ele>232.5</ele>
        <time>2026-05-09T08:30:13.000Z</time>
      </trkpt>
      <trkpt lat="43.83521" lon="4.19461">
        <ele>232.8</ele>
        <time>2026-05-09T08:30:14.000Z</time>
      </trkpt>
      <trkpt lat="43.83521" lon="4.1946">
        <ele>232.7</ele>
        <time>2026-05-09T08:30:15.000Z</time>
      </trkpt>
      <trkpt lat="43.83521" lon="4.19458">
        <ele>232.7</ele>
        <time>2026-05-09T08:30:16.000Z</time>
      </trkpt>
      <trkpt lat="43.8352" lon="4.19456">
        <ele>232.8</ele>
        <time>2026-05-09T08:30:17.000Z</time>
      </trkpt>
      <trkpt lat="43.8352" lon="4.19454">
        <ele>232.9</ele>
        <time>2026-05-09T08:30:18.000Z</time>
      </trkpt>
      <trkpt lat="43.8352" lon="4.19454">
        <ele>233</ele>
        <time>2026-05-09T08:30:19.000Z</time>
      </trkpt>
      <trkpt lat="43.83521" lon="4.19451">
        <ele>233.5</ele>
        <time>2026-05-09T08:30:20.000Z</time>
      </trkpt>
      <trkpt lat="43.83521" lon="4.19449">
        <ele>233.8</ele>
        <time>2026-05-09T08:30:21.000Z</time>
      </trkpt>
      <trkpt lat="43.83521" lon="4.19448">
        <ele>233.9</ele>
        <time>2026-05-09T08:30:22.000Z</time>
      </trkpt>
      <trkpt lat="43.83522" lon="4.19446">
        <ele>233.7</ele>
        <time>2026-05-09T08:30:23.000Z</time>
      </trkpt>
      <trkpt lat="43.83523" lon="4.19443">
        <ele>233.3</ele>
        <time>2026-05-09T08:30:24.000Z</time>
      </trkpt>
      <trkpt lat="43.83524" lon="4.19441">
        <ele>233.3</ele>
        <time>2026-05-09T08:30:25.000Z</time>
      </trkpt>
      <trkpt lat="43.83524" lon="4.19439">
        <ele>233.4</ele>
        <time>2026-05-09T08:30:26.000Z</time>
      </trkpt>
      <trkpt lat="43.83524" lon="4.19437">
        <ele>233.4</ele>
        <time>2026-05-09T08:30:27.000Z</time>
      </trkpt>
      <trkpt lat="43.83524" lon="4.19435">
        <ele>233.6</ele>
        <time>2026-05-09T08:30:28.000Z</time>
      </trkpt>
      <trkpt lat="43.83523" lon="4.19433">
        <ele>233.7</ele>
        <time>2026-05-09T08:30:29.000Z</time>
      </trkpt>
      <trkpt lat="43.83523" lon="4.19432">
        <ele>233.4</ele>
        <time>2026-05-09T08:30:30.000Z</time>
      </trkpt>
      <trkpt lat="43.83523" lon="4.1943">
        <ele>232.8</ele>
        <time>2026-05-09T08:30:31.000Z</time>
      </trkpt>
      <trkpt lat="43.83523" lon="4.19428">
        <ele>232.5</ele>
        <time>2026-05-09T08:30:32.000Z</time>
      </trkpt>
      <trkpt lat="43.83522" lon="4.19427">
        <ele>232.2</ele>
        <time>2026-05-09T08:30:33.000Z</time>
      </trkpt>
      <trkpt lat="43.83522" lon="4.19426">
        <ele>232.2</ele>
        <time>2026-05-09T08:30:34.000Z</time>
      </trkpt>
      <trkpt lat="43.83522" lon="4.19425">
        <ele>232</ele>
        <time>2026-05-09T08:30:35.000Z</time>
      </trkpt>
      <trkpt lat="43.83522" lon="4.19423">
        <ele>231.7</ele>
        <time>2026-05-09T08:30:36.000Z</time>
      </trkpt>
      <trkpt lat="43.83521" lon="4.19421">
        <ele>231.6</ele>
        <time>2026-05-09T08:30:37.000Z</time>
      </trkpt>
      <trkpt lat="43.83522" lon="4.1942">
        <ele>231.7</ele>
        <time>2026-05-09T08:30:38.000Z</time>
      </trkpt>
      <trkpt lat="43.83522" lon="4.19418">
        <ele>231.9</ele>
        <time>2026-05-09T08:30:39.000Z</time>
      </trkpt>
      <trkpt lat="43.83522" lon="4.19417">
        <ele>232.1</ele>
        <time>2026-05-09T08:30:40.000Z</time>
      </trkpt>
      <trkpt lat="43.83523" lon="4.19415">
        <ele>231.8</ele>
        <time>2026-05-09T08:30:41.000Z</time>
      </trkpt>
      <trkpt lat="43.83523" lon="4.19413">
        <ele>232</ele>
        <time>2026-05-09T08:30:42.000Z</time>
      </trkpt>
      <trkpt lat="43.83523" lon="4.19411">
        <ele>232.1</ele>
        <time>2026-05-09T08:30:43.000Z</time>
      </trkpt>
      <trkpt lat="43.83523" lon="4.19411">
        <ele>232</ele>
        <time>2026-05-09T08:30:44.000Z</time>
      </trkpt>
      <trkpt lat="43.83524" lon="4.1941">
        <ele>231.7</ele>
        <time>2026-05-09T08:30:45.000Z</time>
      </trkpt>
      <trkpt lat="43.83525" lon="4.19408">
        <ele>231.8</ele>
        <time>2026-05-09T08:30:46.000Z</time>
      </trkpt>
      <trkpt lat="43.83525" lon="4.19407">
        <ele>231.8</ele>
        <time>2026-05-09T08:30:47.000Z</time>
      </trkpt>
      <trkpt lat="43.83525" lon="4.19405">
        <ele>231.9</ele>
        <time>2026-05-09T08:30:48.000Z</time>
      </trkpt>
      <trkpt lat="43.83526" lon="4.19404">
        <ele>232.1</ele>
        <time>2026-05-09T08:30:49.000Z</time>
      </trkpt>
      <trkpt lat="43.83526" lon="4.19403">
        <ele>232.2</ele>
        <time>2026-05-09T08:30:50.000Z</time>
      </trkpt>
      <trkpt lat="43.83526" lon="4.19402">
        <ele>232.3</ele>
        <time>2026-05-09T08:30:51.000Z</time>
      </trkpt>
      <trkpt lat="43.83525" lon="4.19401">
        <ele>232.5</ele>
        <time>2026-05-09T08:30:52.000Z</time>
      </trkpt>
      <trkpt lat="43.83524" lon="4.19399">
        <ele>232.8</ele>
        <time>2026-05-09T08:30:53.000Z</time>
      </trkpt>
      <trkpt lat="43.83524" lon="4.19398">
        <ele>232.9</ele>
        <time>2026-05-09T08:30:54.000Z</time>
      </trkpt>
      <trkpt lat="43.83524" lon="4.19398">
        <ele>233.1</ele>
        <time>2026-05-09T08:30:55.000Z</time>
      </trkpt>
      <trkpt lat="43.83524" lon="4.19397">
        <ele>233.3</ele>
        <time>2026-05-09T08:30:56.000Z</time>
      </trkpt>
      <trkpt lat="43.83524" lon="4.19396">
        <ele>233.6</ele>
        <time>2026-05-09T08:30:57.000Z</time>
      </trkpt>
      <trkpt lat="43.83524" lon="4.19396">
        <ele>233.9</ele>
        <time>2026-05-09T08:30:58.000Z</time>
      </trkpt>
      <trkpt lat="43.83524" lon="4.19395">
        <ele>234.2</ele>
        <time>2026-05-09T08:30:59.000Z</time>
      </trkpt>
      <trkpt lat="43.83524" lon="4.19393">
        <ele>234.5</ele>
        <time>2026-05-09T08:31:00.000Z</time>
      </trkpt>
      <trkpt lat="43.83524" lon="4.19392">
        <ele>234.9</ele>
        <time>2026-05-09T08:31:01.000Z</time>
      </trkpt>
      <trkpt lat="43.83524" lon="4.19391">
        <ele>235.2</ele>
        <time>2026-05-09T08:31:02.000Z</time>
      </trkpt>
      <trkpt lat="43.83524" lon="4.1939">
        <ele>235.5</ele>
        <time>2026-05-09T08:31:03.000Z</time>
      </trkpt>
      <trkpt lat="43.83523" lon="4.19389">
        <ele>235.5</ele>
        <time>2026-05-09T08:31:04.000Z</time>
      </trkpt>
      <trkpt lat="43.83523" lon="4.19388">
        <ele>235.6</ele>
        <time>2026-05-09T08:31:05.000Z</time>
      </trkpt>
      <trkpt lat="43.83524" lon="4.19386">
        <ele>235.6</ele>
        <time>2026-05-09T08:31:06.000Z</time>
      </trkpt>
      <trkpt lat="43.83524" lon="4.19384">
        <ele>235.6</ele>
        <time>2026-05-09T08:31:07.000Z</time>
      </trkpt>
      <trkpt lat="43.83524" lon="4.19383">
        <ele>235.6</ele>
        <time>2026-05-09T08:31:08.000Z</time>
      </trkpt>
      <trkpt lat="43.83524" lon="4.19382">
        <ele>235.2</ele>
        <time>2026-05-09T08:31:09.000Z</time>
      </trkpt>
      <trkpt lat="43.83523" lon="4.19382">
        <ele>235</ele>
        <time>2026-05-09T08:31:10.000Z</time>
      </trkpt>
      <trkpt lat="43.83523" lon="4.19381">
        <ele>235.4</ele>
        <time>2026-05-09T08:31:11.000Z</time>
      </trkpt>
      <trkpt lat="43.83523" lon="4.19381">
        <ele>235.5</ele>
        <time>2026-05-09T08:31:12.000Z</time>
      </trkpt>
      <trkpt lat="43.83523" lon="4.19379">
        <ele>235.6</ele>
        <time>2026-05-09T08:31:13.000Z</time>
      </trkpt>
      <trkpt lat="43.83523" lon="4.19378">
        <ele>235.7</ele>
        <time>2026-05-09T08:31:14.000Z</time>
      </trkpt>
      <trkpt lat="43.83523" lon="4.19377">
        <ele>235.8</ele>
        <time>2026-05-09T08:31:15.000Z</time>
      </trkpt>
      <trkpt lat="43.83523" lon="4.19377">
        <ele>236</ele>
        <time>2026-05-09T08:31:16.000Z</time>
      </trkpt>
      <trkpt lat="43.83522" lon="4.19376">
        <ele>235.9</ele>
        <time>2026-05-09T08:31:17.000Z</time>
      </trkpt>
      <trkpt lat="43.83522" lon="4.19375">
        <ele>235.8</ele>
        <time>2026-05-09T08:31:18.000Z</time>
      </trkpt>
      <trkpt lat="43.83523" lon="4.19375">
        <ele>235.6</ele>
        <time>2026-05-09T08:31:19.000Z</time>
      </trkpt>
      <trkpt lat="43.83523" lon="4.19375">
        <ele>235.9</ele>
        <time>2026-05-09T08:31:20.000Z</time>
      </trkpt>
      <trkpt lat="43.83523" lon="4.19375">
        <ele>235.9</ele>
        <time>2026-05-09T08:31:21.000Z</time>
      </trkpt>
      <trkpt lat="43.83523" lon="4.19375">
        <ele>236</ele>
        <time>2026-05-09T08:31:22.000Z</time>
      </trkpt>
      <trkpt lat="43.83523" lon="4.19375">
        <ele>235.9</ele>
        <time>2026-05-09T08:31:23.000Z</time>
      </trkpt>
      <trkpt lat="43.83523" lon="4.19375">
        <ele>236.1</ele>
        <time>2026-05-09T08:31:24.000Z</time>
      </trkpt>
      <trkpt lat="43.83523" lon="4.19374">
        <ele>236.5</ele>
        <time>2026-05-09T08:31:25.000Z</time>
      </trkpt>
      <trkpt lat="43.83523" lon="4.19373">
        <ele>236.5</ele>
        <time>2026-05-09T08:31:26.000Z</time>
      </trkpt>
      <trkpt lat="43.83523" lon="4.19373">
        <ele>236.6</ele>
        <time>2026-05-09T08:31:27.000Z</time>
      </trkpt>
      <trkpt lat="43.83523" lon="4.19372">
        <ele>236.5</ele>
        <time>2026-05-09T08:31:28.000Z</time>
      </trkpt>
      <trkpt lat="43.83522" lon="4.19371">
        <ele>236.5</ele>
        <time>2026-05-09T08:31:29.000Z</time>
      </trkpt>
      <trkpt lat="43.83522" lon="4.19371">
        <ele>236.5</ele>
        <time>2026-05-09T08:31:30.000Z</time>
      </trkpt>
      <trkpt lat="43.83522" lon="4.19371">
        <ele>236.4</ele>
        <time>2026-05-09T08:31:31.000Z</time>
      </trkpt>
      <trkpt lat="43.83522" lon="4.1937">
        <ele>236.2</ele>
        <time>2026-05-09T08:31:32.000Z</time>
      </trkpt>
      <trkpt lat="43.83522" lon="4.1937">
        <ele>236.2</ele>
        <time>2026-05-09T08:31:33.000Z</time>
      </trkpt>
      <trkpt lat="43.83522" lon="4.19369">
        <ele>236.1</ele>
        <time>2026-05-09T08:31:34.000Z</time>
      </trkpt>
      <trkpt lat="43.83522" lon="4.19368">
        <ele>236.1</ele>
        <time>2026-05-09T08:31:35.000Z</time>
      </trkpt>
      <trkpt lat="43.83522" lon="4.19366">
        <ele>236.1</ele>
        <time>2026-05-09T08:31:36.000Z</time>
      </trkpt>
      <trkpt lat="43.83522" lon="4.19364">
        <ele>236.2</ele>
        <time>2026-05-09T08:31:37.000Z</time>
      </trkpt>
      <trkpt lat="43.83521" lon="4.19362">
        <ele>236.3</ele>
        <time>2026-05-09T08:31:38.000Z</time>
      </trkpt>
      <trkpt lat="43.83521" lon="4.1936">
        <ele>236.6</ele>
        <time>2026-05-09T08:31:39.000Z</time>
      </trkpt>
      <trkpt lat="43.83521" lon="4.19358">
        <ele>236.5</ele>
        <time>2026-05-09T08:31:40.000Z</time>
      </trkpt>
      <trkpt lat="43.83521" lon="4.19357">
        <ele>236.4</ele>
        <time>2026-05-09T08:31:41.000Z</time>
      </trkpt>
      <trkpt lat="43.8352" lon="4.19355">
        <ele>236.3</ele>
        <time>2026-05-09T08:31:42.000Z</time>
      </trkpt>
      <trkpt lat="43.8352" lon="4.19353">
        <ele>236.3</ele>
        <time>2026-05-09T08:31:43.000Z</time>
      </trkpt>
      <trkpt lat="43.83521" lon="4.19351">
        <ele>236.4</ele>
        <time>2026-05-09T08:31:44.000Z</time>
      </trkpt>
      <trkpt lat="43.83521" lon="4.19349">
        <ele>236.4</ele>
        <time>2026-05-09T08:31:45.000Z</time>
      </trkpt>
      <trkpt lat="43.83521" lon="4.19348">
        <ele>236.5</ele>
        <time>2026-05-09T08:31:46.000Z</time>
      </trkpt>
      <trkpt lat="43.8352" lon="4.19346">
        <ele>236.7</ele>
        <time>2026-05-09T08:31:47.000Z</time>
      </trkpt>
      <trkpt lat="43.8352" lon="4.19344">
        <ele>236.9</ele>
        <time>2026-05-09T08:31:48.000Z</time>
      </trkpt>
      <trkpt lat="43.8352" lon="4.19343">
        <ele>236.8</ele>
        <time>2026-05-09T08:31:49.000Z</time>
      </trkpt>
      <trkpt lat="43.83519" lon="4.19342">
        <ele>236.8</ele>
        <time>2026-05-09T08:31:50.000Z</time>
      </trkpt>
      <trkpt lat="43.83519" lon="4.19341">
        <ele>236.8</ele>
        <time>2026-05-09T08:31:51.000Z</time>
      </trkpt>
      <trkpt lat="43.83518" lon="4.19341">
        <ele>237</ele>
        <time>2026-05-09T08:31:52.000Z</time>
      </trkpt>
      <trkpt lat="43.83518" lon="4.1934">
        <ele>236.8</ele>
        <time>2026-05-09T08:31:53.000Z</time>
      </trkpt>
      <trkpt lat="43.83518" lon="4.19338">
        <ele>236.7</ele>
        <time>2026-05-09T08:31:54.000Z</time>
      </trkpt>
      <trkpt lat="43.83518" lon="4.19337">
        <ele>236.6</ele>
        <time>2026-05-09T08:31:55.000Z</time>
      </trkpt>
      <trkpt lat="43.83518" lon="4.19337">
        <ele>236.7</ele>
        <time>2026-05-09T08:31:56.000Z</time>
      </trkpt>
      <trkpt lat="43.83518" lon="4.19335">
        <ele>236.8</ele>
        <time>2026-05-09T08:31:57.000Z</time>
      </trkpt>
      <trkpt lat="43.83518" lon="4.19333">
        <ele>237</ele>
        <time>2026-05-09T08:31:58.000Z</time>
      </trkpt>
      <trkpt lat="43.83518" lon="4.19332">
        <ele>236.9</ele>
        <time>2026-05-09T08:31:59.000Z</time>
      </trkpt>
      <trkpt lat="43.83518" lon="4.1933">
        <ele>236.9</ele>
        <time>2026-05-09T08:32:00.000Z</time>
      </trkpt>
      <trkpt lat="43.83518" lon="4.19329">
        <ele>236.8</ele>
        <time>2026-05-09T08:32:01.000Z</time>
      </trkpt>
      <trkpt lat="43.83517" lon="4.19329">
        <ele>236.7</ele>
        <time>2026-05-09T08:32:02.000Z</time>
      </trkpt>
      <trkpt lat="43.83517" lon="4.19327">
        <ele>236.6</ele>
        <time>2026-05-09T08:32:03.000Z</time>
      </trkpt>
      <trkpt lat="43.83517" lon="4.19326">
        <ele>236.4</ele>
        <time>2026-05-09T08:32:04.000Z</time>
      </trkpt>
      <trkpt lat="43.83518" lon="4.19324">
        <ele>236.3</ele>
        <time>2026-05-09T08:32:05.000Z</time>
      </trkpt>
      <trkpt lat="43.83519" lon="4.19322">
        <ele>236.2</ele>
        <time>2026-05-09T08:32:06.000Z</time>
      </trkpt>
      <trkpt lat="43.83519" lon="4.19321">
        <ele>235.8</ele>
        <time>2026-05-09T08:32:07.000Z</time>
      </trkpt>
      <trkpt lat="43.8352" lon="4.19319">
        <ele>235.7</ele>
        <time>2026-05-09T08:32:08.000Z</time>
      </trkpt>
      <trkpt lat="43.8352" lon="4.19319">
        <ele>235.4</ele>
        <time>2026-05-09T08:32:09.000Z</time>
      </trkpt>
      <trkpt lat="43.8352" lon="4.19318">
        <ele>235.8</ele>
        <time>2026-05-09T08:32:10.000Z</time>
      </trkpt>
      <trkpt lat="43.8352" lon="4.19317">
        <ele>236</ele>
        <time>2026-05-09T08:32:11.000Z</time>
      </trkpt>
      <trkpt lat="43.83521" lon="4.19315">
        <ele>236.1</ele>
        <time>2026-05-09T08:32:12.000Z</time>
      </trkpt>
      <trkpt lat="43.83521" lon="4.19315">
        <ele>236.4</ele>
        <time>2026-05-09T08:32:13.000Z</time>
      </trkpt>
      <trkpt lat="43.83522" lon="4.19314">
        <ele>236.6</ele>
        <time>2026-05-09T08:32:14.000Z</time>
      </trkpt>
      <trkpt lat="43.83522" lon="4.19313">
        <ele>236.6</ele>
        <time>2026-05-09T08:32:15.000Z</time>
      </trkpt>
      <trkpt lat="43.83522" lon="4.19313">
        <ele>236.8</ele>
        <time>2026-05-09T08:32:16.000Z</time>
      </trkpt>
      <trkpt lat="43.83523" lon="4.19312">
        <ele>237.2</ele>
        <time>2026-05-09T08:32:17.000Z</time>
      </trkpt>
      <trkpt lat="43.83523" lon="4.19311">
        <ele>237.7</ele>
        <time>2026-05-09T08:32:18.000Z</time>
      </trkpt>
      <trkpt lat="43.83524" lon="4.1931">
        <ele>237.8</ele>
        <time>2026-05-09T08:32:19.000Z</time>
      </trkpt>
      <trkpt lat="43.83525" lon="4.19309">
        <ele>237.9</ele>
        <time>2026-05-09T08:32:20.000Z</time>
      </trkpt>
      <trkpt lat="43.83525" lon="4.19308">
        <ele>238</ele>
        <time>2026-05-09T08:32:21.000Z</time>
      </trkpt>
      <trkpt lat="43.83525" lon="4.19307">
        <ele>238.3</ele>
        <time>2026-05-09T08:32:22.000Z</time>
      </trkpt>
      <trkpt lat="43.83525" lon="4.19307">
        <ele>238.5</ele>
        <time>2026-05-09T08:32:23.000Z</time>
      </trkpt>
      <trkpt lat="43.83526" lon="4.19306">
        <ele>238.6</ele>
        <time>2026-05-09T08:32:24.000Z</time>
      </trkpt>
      <trkpt lat="43.83527" lon="4.19304">
        <ele>238.9</ele>
        <time>2026-05-09T08:32:25.000Z</time>
      </trkpt>
      <trkpt lat="43.83527" lon="4.19303">
        <ele>238.9</ele>
        <time>2026-05-09T08:32:26.000Z</time>
      </trkpt>
      <trkpt lat="43.83527" lon="4.19301">
        <ele>239.2</ele>
        <time>2026-05-09T08:32:27.000Z</time>
      </trkpt>
      <trkpt lat="43.83527" lon="4.19299">
        <ele>239.5</ele>
        <time>2026-05-09T08:32:28.000Z</time>
      </trkpt>
      <trkpt lat="43.83527" lon="4.19297">
        <ele>239.9</ele>
        <time>2026-05-09T08:32:29.000Z</time>
      </trkpt>
      <trkpt lat="43.83526" lon="4.19296">
        <ele>240.2</ele>
        <time>2026-05-09T08:32:30.000Z</time>
      </trkpt>
      <trkpt lat="43.83526" lon="4.19295">
        <ele>240.5</ele>
        <time>2026-05-09T08:32:31.000Z</time>
      </trkpt>
      <trkpt lat="43.83526" lon="4.19294">
        <ele>240.5</ele>
        <time>2026-05-09T08:32:32.000Z</time>
      </trkpt>
      <trkpt lat="43.83526" lon="4.19293">
        <ele>240.4</ele>
        <time>2026-05-09T08:32:33.000Z</time>
      </trkpt>
      <trkpt lat="43.83526" lon="4.19293">
        <ele>240.2</ele>
        <time>2026-05-09T08:32:34.000Z</time>
      </trkpt>
      <trkpt lat="43.83526" lon="4.19292">
        <ele>240.2</ele>
        <time>2026-05-09T08:32:35.000Z</time>
      </trkpt>
      <trkpt lat="43.83526" lon="4.19292">
        <ele>240.2</ele>
        <time>2026-05-09T08:32:36.000Z</time>
      </trkpt>
      <trkpt lat="43.83526" lon="4.19292">
        <ele>240.1</ele>
        <time>2026-05-09T08:32:37.000Z</time>
      </trkpt>
      <trkpt lat="43.83526" lon="4.19292">
        <ele>240.2</ele>
        <time>2026-05-09T08:32:38.000Z</time>
      </trkpt>
      <trkpt lat="43.83526" lon="4.19292">
        <ele>240.3</ele>
        <time>2026-05-09T08:32:39.000Z</time>
      </trkpt>
      <trkpt lat="43.83526" lon="4.19292">
        <ele>240.4</ele>
        <time>2026-05-09T08:32:40.000Z</time>
      </trkpt>
      <trkpt lat="43.83526" lon="4.19292">
        <ele>240.6</ele>
        <time>2026-05-09T08:32:41.000Z</time>
      </trkpt>
      <trkpt lat="43.83526" lon="4.19292">
        <ele>240.7</ele>
        <time>2026-05-09T08:32:42.000Z</time>
      </trkpt>
      <trkpt lat="43.83526" lon="4.19292">
        <ele>240.7</ele>
        <time>2026-05-09T08:32:43.000Z</time>
      </trkpt>
      <trkpt lat="43.83526" lon="4.19292">
        <ele>240.6</ele>
        <time>2026-05-09T08:32:44.000Z</time>
      </trkpt>
      <trkpt lat="43.83526" lon="4.19292">
        <ele>240.5</ele>
        <time>2026-05-09T08:32:45.000Z</time>
      </trkpt>
      <trkpt lat="43.83526" lon="4.19292">
        <ele>240.4</ele>
        <time>2026-05-09T08:32:46.000Z</time>
      </trkpt>
      <trkpt lat="43.83526" lon="4.19292">
        <ele>240.2</ele>
        <time>2026-05-09T08:32:47.000Z</time>
      </trkpt>
      <trkpt lat="43.83526" lon="4.19292">
        <ele>240</ele>
        <time>2026-05-09T08:32:48.000Z</time>
      </trkpt>
      <trkpt lat="43.83526" lon="4.19292">
        <ele>240</ele>
        <time>2026-05-09T08:32:49.000Z</time>
      </trkpt>
      <trkpt lat="43.83526" lon="4.19292">
        <ele>240.2</ele>
        <time>2026-05-09T08:32:50.000Z</time>
      </trkpt>
      <trkpt lat="43.83526" lon="4.19293">
        <ele>240.5</ele>
        <time>2026-05-09T08:32:51.000Z</time>
      </trkpt>
      <trkpt lat="43.83526" lon="4.19294">
        <ele>240.5</ele>
        <time>2026-05-09T08:32:52.000Z</time>
      </trkpt>
      <trkpt lat="43.83526" lon="4.19295">
        <ele>241</ele>
        <time>2026-05-09T08:32:53.000Z</time>
      </trkpt>
      <trkpt lat="43.83526" lon="4.19296">
        <ele>241.3</ele>
        <time>2026-05-09T08:32:54.000Z</time>
      </trkpt>
      <trkpt lat="43.83526" lon="4.19298">
        <ele>241.4</ele>
        <time>2026-05-09T08:32:55.000Z</time>
      </trkpt>
      <trkpt lat="43.83526" lon="4.19299">
        <ele>241.6</ele>
        <time>2026-05-09T08:32:56.000Z</time>
      </trkpt>
      <trkpt lat="43.83526" lon="4.19301">
        <ele>241.8</ele>
        <time>2026-05-09T08:32:57.000Z</time>
      </trkpt>
      <trkpt lat="43.83526" lon="4.19302">
        <ele>242.1</ele>
        <time>2026-05-09T08:32:58.000Z</time>
      </trkpt>
      <trkpt lat="43.83526" lon="4.19303">
        <ele>242.2</ele>
        <time>2026-05-09T08:32:59.000Z</time>
      </trkpt>
      <trkpt lat="43.83526" lon="4.19304">
        <ele>242.2</ele>
        <time>2026-05-09T08:33:00.000Z</time>
      </trkpt>
      <trkpt lat="43.83526" lon="4.19305">
        <ele>242.3</ele>
        <time>2026-05-09T08:33:01.000Z</time>
      </trkpt>
      <trkpt lat="43.83526" lon="4.19306">
        <ele>242.5</ele>
        <time>2026-05-09T08:33:02.000Z</time>
      </trkpt>
      <trkpt lat="43.83525" lon="4.19307">
        <ele>242.6</ele>
        <time>2026-05-09T08:33:03.000Z</time>
      </trkpt>
      <trkpt lat="43.83525" lon="4.19308">
        <ele>242.7</ele>
        <time>2026-05-09T08:33:04.000Z</time>
      </trkpt>
      <trkpt lat="43.83525" lon="4.19308">
        <ele>242.5</ele>
        <time>2026-05-09T08:33:05.000Z</time>
      </trkpt>
      <trkpt lat="43.83524" lon="4.19309">
        <ele>242.2</ele>
        <time>2026-05-09T08:33:06.000Z</time>
      </trkpt>
      <trkpt lat="43.83523" lon="4.19311">
        <ele>241.7</ele>
        <time>2026-05-09T08:33:07.000Z</time>
      </trkpt>
      <trkpt lat="43.83523" lon="4.19312">
        <ele>241.7</ele>
        <time>2026-05-09T08:33:08.000Z</time>
      </trkpt>
      <trkpt lat="43.83522" lon="4.19313">
        <ele>241.5</ele>
        <time>2026-05-09T08:33:09.000Z</time>
      </trkpt>
      <trkpt lat="43.83522" lon="4.19314">
        <ele>241.3</ele>
        <time>2026-05-09T08:33:10.000Z</time>
      </trkpt>
      <trkpt lat="43.83521" lon="4.19315">
        <ele>241.3</ele>
        <time>2026-05-09T08:33:11.000Z</time>
      </trkpt>
      <trkpt lat="43.83521" lon="4.19315">
        <ele>241.3</ele>
        <time>2026-05-09T08:33:12.000Z</time>
      </trkpt>
      <trkpt lat="43.8352" lon="4.19315">
        <ele>241.5</ele>
        <time>2026-05-09T08:33:13.000Z</time>
      </trkpt>
      <trkpt lat="43.8352" lon="4.19314">
        <ele>241.3</ele>
        <time>2026-05-09T08:33:14.000Z</time>
      </trkpt>
      <trkpt lat="43.83519" lon="4.19313">
        <ele>241</ele>
        <time>2026-05-09T08:33:15.000Z</time>
      </trkpt>
      <trkpt lat="43.83519" lon="4.19312">
        <ele>240.8</ele>
        <time>2026-05-09T08:33:16.000Z</time>
      </trkpt>
      <trkpt lat="43.83518" lon="4.19311">
        <ele>240.8</ele>
        <time>2026-05-09T08:33:17.000Z</time>
      </trkpt>
      <trkpt lat="43.83518" lon="4.19311">
        <ele>240.7</ele>
        <time>2026-05-09T08:33:18.000Z</time>
      </trkpt>
      <trkpt lat="43.83518" lon="4.1931">
        <ele>240.7</ele>
        <time>2026-05-09T08:33:19.000Z</time>
      </trkpt>
      <trkpt lat="43.83518" lon="4.19309">
        <ele>240.7</ele>
        <time>2026-05-09T08:33:20.000Z</time>
      </trkpt>
      <trkpt lat="43.83518" lon="4.19308">
        <ele>240.7</ele>
        <time>2026-05-09T08:33:21.000Z</time>
      </trkpt>
      <trkpt lat="43.83518" lon="4.19307">
        <ele>240.7</ele>
        <time>2026-05-09T08:33:22.000Z</time>
      </trkpt>
      <trkpt lat="43.83518" lon="4.19306">
        <ele>241.1</ele>
        <time>2026-05-09T08:33:23.000Z</time>
      </trkpt>
      <trkpt lat="43.83518" lon="4.19305">
        <ele>241.4</ele>
        <time>2026-05-09T08:33:24.000Z</time>
      </trkpt>
      <trkpt lat="43.83518" lon="4.19305">
        <ele>241.7</ele>
        <time>2026-05-09T08:33:25.000Z</time>
      </trkpt>
      <trkpt lat="43.83519" lon="4.19304">
        <ele>241.9</ele>
        <time>2026-05-09T08:33:26.000Z</time>
      </trkpt>
      <trkpt lat="43.83518" lon="4.19303">
        <ele>241.8</ele>
        <time>2026-05-09T08:33:27.000Z</time>
      </trkpt>
      <trkpt lat="43.83518" lon="4.19302">
        <ele>241.6</ele>
        <time>2026-05-09T08:33:28.000Z</time>
      </trkpt>
      <trkpt lat="43.83518" lon="4.19301">
        <ele>241.8</ele>
        <time>2026-05-09T08:33:29.000Z</time>
      </trkpt>
      <trkpt lat="43.83517" lon="4.19301">
        <ele>241.6</ele>
        <time>2026-05-09T08:33:30.000Z</time>
      </trkpt>
      <trkpt lat="43.83517" lon="4.19301">
        <ele>241.3</ele>
        <time>2026-05-09T08:33:31.000Z</time>
      </trkpt>
      <trkpt lat="43.83516" lon="4.19301">
        <ele>241.1</ele>
        <time>2026-05-09T08:33:32.000Z</time>
      </trkpt>
      <trkpt lat="43.83516" lon="4.19301">
        <ele>240.9</ele>
        <time>2026-05-09T08:33:33.000Z</time>
      </trkpt>
      <trkpt lat="43.83516" lon="4.19301">
        <ele>240.6</ele>
        <time>2026-05-09T08:33:34.000Z</time>
      </trkpt>
      <trkpt lat="43.83516" lon="4.19301">
        <ele>240.5</ele>
        <time>2026-05-09T08:33:35.000Z</time>
      </trkpt>
      <trkpt lat="43.83516" lon="4.19301">
        <ele>240.4</ele>
        <time>2026-05-09T08:33:36.000Z</time>
      </trkpt>
      <trkpt lat="43.83516" lon="4.19301">
        <ele>240.3</ele>
        <time>2026-05-09T08:33:37.000Z</time>
      </trkpt>
      <trkpt lat="43.83516" lon="4.19301">
        <ele>240.1</ele>
        <time>2026-05-09T08:33:38.000Z</time>
      </trkpt>
      <trkpt lat="43.83516" lon="4.19301">
        <ele>239.8</ele>
        <time>2026-05-09T08:33:39.000Z</time>
      </trkpt>
      <trkpt lat="43.83515" lon="4.19301">
        <ele>239.5</ele>
        <time>2026-05-09T08:33:40.000Z</time>
      </trkpt>
      <trkpt lat="43.83515" lon="4.19301">
        <ele>239.3</ele>
        <time>2026-05-09T08:33:41.000Z</time>
      </trkpt>
      <trkpt lat="43.83515" lon="4.19301">
        <ele>238.8</ele>
        <time>2026-05-09T08:33:42.000Z</time>
      </trkpt>
      <trkpt lat="43.83515" lon="4.19301">
        <ele>238.5</ele>
        <time>2026-05-09T08:33:43.000Z</time>
      </trkpt>
      <trkpt lat="43.83513" lon="4.19302">
        <ele>238.3</ele>
        <time>2026-05-09T08:33:44.000Z</time>
      </trkpt>
      <trkpt lat="43.83512" lon="4.19303">
        <ele>238.1</ele>
        <time>2026-05-09T08:33:45.000Z</time>
      </trkpt>
      <trkpt lat="43.83511" lon="4.19303">
        <ele>238</ele>
        <time>2026-05-09T08:33:46.000Z</time>
      </trkpt>
      <trkpt lat="43.8351" lon="4.19303">
        <ele>237.6</ele>
        <time>2026-05-09T08:33:47.000Z</time>
      </trkpt>
      <trkpt lat="43.83509" lon="4.19304">
        <ele>237.4</ele>
        <time>2026-05-09T08:33:48.000Z</time>
      </trkpt>
      <trkpt lat="43.83509" lon="4.19304">
        <ele>237.1</ele>
        <time>2026-05-09T08:33:49.000Z</time>
      </trkpt>
      <trkpt lat="43.83509" lon="4.19305">
        <ele>236.8</ele>
        <time>2026-05-09T08:33:50.000Z</time>
      </trkpt>
      <trkpt lat="43.83508" lon="4.19306">
        <ele>236.5</ele>
        <time>2026-05-09T08:33:51.000Z</time>
      </trkpt>
      <trkpt lat="43.83508" lon="4.19307">
        <ele>236</ele>
        <time>2026-05-09T08:33:52.000Z</time>
      </trkpt>
      <trkpt lat="43.83508" lon="4.19308">
        <ele>235.8</ele>
        <time>2026-05-09T08:33:53.000Z</time>
      </trkpt>
      <trkpt lat="43.83507" lon="4.19308">
        <ele>235.9</ele>
        <time>2026-05-09T08:33:54.000Z</time>
      </trkpt>
      <trkpt lat="43.83508" lon="4.19309">
        <ele>235.9</ele>
        <time>2026-05-09T08:33:55.000Z</time>
      </trkpt>
      <trkpt lat="43.83508" lon="4.19309">
        <ele>235.5</ele>
        <time>2026-05-09T08:33:56.000Z</time>
      </trkpt>
      <trkpt lat="43.83508" lon="4.19309">
        <ele>235.3</ele>
        <time>2026-05-09T08:33:57.000Z</time>
      </trkpt>
      <trkpt lat="43.83508" lon="4.19308">
        <ele>234.9</ele>
        <time>2026-05-09T08:33:58.000Z</time>
      </trkpt>
      <trkpt lat="43.83508" lon="4.19308">
        <ele>234.6</ele>
        <time>2026-05-09T08:33:59.000Z</time>
      </trkpt>
      <trkpt lat="43.83508" lon="4.19308">
        <ele>233.8</ele>
        <time>2026-05-09T08:34:00.000Z</time>
      </trkpt>
      <trkpt lat="43.83508" lon="4.19308">
        <ele>233.3</ele>
        <time>2026-05-09T08:34:01.000Z</time>
      </trkpt>
      <trkpt lat="43.83508" lon="4.19309">
        <ele>233.3</ele>
        <time>2026-05-09T08:34:02.000Z</time>
      </trkpt>
      <trkpt lat="43.83508" lon="4.19309">
        <ele>232.6</ele>
        <time>2026-05-09T08:34:03.000Z</time>
      </trkpt>
      <trkpt lat="43.83508" lon="4.1931">
        <ele>232.2</ele>
        <time>2026-05-09T08:34:04.000Z</time>
      </trkpt>
      <trkpt lat="43.83508" lon="4.1931">
        <ele>231.8</ele>
        <time>2026-05-09T08:34:05.000Z</time>
      </trkpt>
      <trkpt lat="43.83508" lon="4.1931">
        <ele>233.2</ele>
        <time>2026-05-09T08:34:06.000Z</time>
      </trkpt>
      <trkpt lat="43.83508" lon="4.1931">
        <ele>233.1</ele>
        <time>2026-05-09T08:34:07.000Z</time>
      </trkpt>
      <trkpt lat="43.83508" lon="4.1931">
        <ele>232.9</ele>
        <time>2026-05-09T08:34:08.000Z</time>
      </trkpt>
      <trkpt lat="43.83508" lon="4.19311">
        <ele>232.8</ele>
        <time>2026-05-09T08:34:09.000Z</time>
      </trkpt>
      <trkpt lat="43.83507" lon="4.19311">
        <ele>232.7</ele>
        <time>2026-05-09T08:34:10.000Z</time>
      </trkpt>
      <trkpt lat="43.83507" lon="4.19311">
        <ele>232.7</ele>
        <time>2026-05-09T08:34:11.000Z</time>
      </trkpt>
      <trkpt lat="43.83507" lon="4.19311">
        <ele>232.7</ele>
        <time>2026-05-09T08:34:12.000Z</time>
      </trkpt>
      <trkpt lat="43.83507" lon="4.19311">
        <ele>232.6</ele>
        <time>2026-05-09T08:34:13.000Z</time>
      </trkpt>
      <trkpt lat="43.83506" lon="4.19311">
        <ele>232.6</ele>
        <time>2026-05-09T08:34:14.000Z</time>
      </trkpt>
      <trkpt lat="43.83505" lon="4.19312">
        <ele>232.3</ele>
        <time>2026-05-09T08:34:15.000Z</time>
      </trkpt>
      <trkpt lat="43.83504" lon="4.19313">
        <ele>232.3</ele>
        <time>2026-05-09T08:34:16.000Z</time>
      </trkpt>
      <trkpt lat="43.83503" lon="4.19313">
        <ele>232.2</ele>
        <time>2026-05-09T08:34:17.000Z</time>
      </trkpt>
      <trkpt lat="43.83503" lon="4.19313">
        <ele>232.4</ele>
        <time>2026-05-09T08:34:18.000Z</time>
      </trkpt>
      <trkpt lat="43.83503" lon="4.19313">
        <ele>232.5</ele>
        <time>2026-05-09T08:34:19.000Z</time>
      </trkpt>
      <trkpt lat="43.83503" lon="4.19313">
        <ele>232.3</ele>
        <time>2026-05-09T08:34:20.000Z</time>
      </trkpt>
      <trkpt lat="43.83503" lon="4.19313">
        <ele>232.4</ele>
        <time>2026-05-09T08:34:21.000Z</time>
      </trkpt>
      <trkpt lat="43.83503" lon="4.19313">
        <ele>232.6</ele>
        <time>2026-05-09T08:34:22.000Z</time>
      </trkpt>
      <trkpt lat="43.83503" lon="4.19313">
        <ele>232.5</ele>
        <time>2026-05-09T08:34:23.000Z</time>
      </trkpt>
      <trkpt lat="43.83503" lon="4.19313">
        <ele>232.5</ele>
        <time>2026-05-09T08:34:24.000Z</time>
      </trkpt>
      <trkpt lat="43.83503" lon="4.19313">
        <ele>232.4</ele>
        <time>2026-05-09T08:34:25.000Z</time>
      </trkpt>
      <trkpt lat="43.83503" lon="4.19313">
        <ele>232.3</ele>
        <time>2026-05-09T08:34:26.000Z</time>
      </trkpt>
      <trkpt lat="43.83502" lon="4.19313">
        <ele>232.2</ele>
        <time>2026-05-09T08:34:27.000Z</time>
      </trkpt>
      <trkpt lat="43.83502" lon="4.19313">
        <ele>232</ele>
        <time>2026-05-09T08:34:28.000Z</time>
      </trkpt>
      <trkpt lat="43.83502" lon="4.19313">
        <ele>231.9</ele>
        <time>2026-05-09T08:34:29.000Z</time>
      </trkpt>
      <trkpt lat="43.83502" lon="4.19313">
        <ele>231.6</ele>
        <time>2026-05-09T08:34:30.000Z</time>
      </trkpt>
      <trkpt lat="43.83502" lon="4.19312">
        <ele>231.5</ele>
        <time>2026-05-09T08:34:31.000Z</time>
      </trkpt>
      <trkpt lat="43.83502" lon="4.19312">
        <ele>231.3</ele>
        <time>2026-05-09T08:34:32.000Z</time>
      </trkpt>
      <trkpt lat="43.83502" lon="4.19312">
        <ele>231.2</ele>
        <time>2026-05-09T08:34:33.000Z</time>
      </trkpt>
      <trkpt lat="43.83502" lon="4.19312">
        <ele>231.1</ele>
        <time>2026-05-09T08:34:34.000Z</time>
      </trkpt>
      <trkpt lat="43.83502" lon="4.19312">
        <ele>230.7</ele>
        <time>2026-05-09T08:34:35.000Z</time>
      </trkpt>
      <trkpt lat="43.83502" lon="4.19312">
        <ele>230.4</ele>
        <time>2026-05-09T08:34:36.000Z</time>
      </trkpt>
      <trkpt lat="43.83501" lon="4.19311">
        <ele>230.3</ele>
        <time>2026-05-09T08:34:37.000Z</time>
      </trkpt>
      <trkpt lat="43.835" lon="4.1931">
        <ele>230.2</ele>
        <time>2026-05-09T08:34:38.000Z</time>
      </trkpt>
      <trkpt lat="43.83499" lon="4.19308">
        <ele>229.9</ele>
        <time>2026-05-09T08:34:39.000Z</time>
      </trkpt>
      <trkpt lat="43.83499" lon="4.19307">
        <ele>229.7</ele>
        <time>2026-05-09T08:34:40.000Z</time>
      </trkpt>
      <trkpt lat="43.83499" lon="4.19306">
        <ele>229.2</ele>
        <time>2026-05-09T08:34:41.000Z</time>
      </trkpt>
      <trkpt lat="43.83498" lon="4.19306">
        <ele>228.8</ele>
        <time>2026-05-09T08:34:42.000Z</time>
      </trkpt>
      <trkpt lat="43.83497" lon="4.19305">
        <ele>228.7</ele>
        <time>2026-05-09T08:34:43.000Z</time>
      </trkpt>
      <trkpt lat="43.83497" lon="4.19305">
        <ele>229.4</ele>
        <time>2026-05-09T08:34:44.000Z</time>
      </trkpt>
      <trkpt lat="43.83497" lon="4.19305">
        <ele>229.5</ele>
        <time>2026-05-09T08:34:45.000Z</time>
      </trkpt>
      <trkpt lat="43.83497" lon="4.19305">
        <ele>229.4</ele>
        <time>2026-05-09T08:34:46.000Z</time>
      </trkpt>
      <trkpt lat="43.83497" lon="4.19304">
        <ele>229.3</ele>
        <time>2026-05-09T08:34:47.000Z</time>
      </trkpt>
      <trkpt lat="43.83497" lon="4.19303">
        <ele>229.2</ele>
        <time>2026-05-09T08:34:48.000Z</time>
      </trkpt>
      <trkpt lat="43.83497" lon="4.19301">
        <ele>229</ele>
        <time>2026-05-09T08:34:49.000Z</time>
      </trkpt>
      <trkpt lat="43.83497" lon="4.193">
        <ele>229</ele>
        <time>2026-05-09T08:34:50.000Z</time>
      </trkpt>
      <trkpt lat="43.83497" lon="4.19299">
        <ele>229.1</ele>
        <time>2026-05-09T08:34:51.000Z</time>
      </trkpt>
      <trkpt lat="43.83497" lon="4.19298">
        <ele>228.9</ele>
        <time>2026-05-09T08:34:52.000Z</time>
      </trkpt>
      <trkpt lat="43.83497" lon="4.19297">
        <ele>228.9</ele>
        <time>2026-05-09T08:34:53.000Z</time>
      </trkpt>
      <trkpt lat="43.83497" lon="4.19297">
        <ele>229</ele>
        <time>2026-05-09T08:34:54.000Z</time>
      </trkpt>
      <trkpt lat="43.83497" lon="4.19296">
        <ele>229.1</ele>
        <time>2026-05-09T08:34:55.000Z</time>
      </trkpt>
      <trkpt lat="43.83498" lon="4.19295">
        <ele>228.8</ele>
        <time>2026-05-09T08:34:56.000Z</time>
      </trkpt>
      <trkpt lat="43.83498" lon="4.19294">
        <ele>228.6</ele>
        <time>2026-05-09T08:34:57.000Z</time>
      </trkpt>
      <trkpt lat="43.83498" lon="4.19292">
        <ele>228.4</ele>
        <time>2026-05-09T08:34:58.000Z</time>
      </trkpt>
      <trkpt lat="43.83498" lon="4.19291">
        <ele>228.3</ele>
        <time>2026-05-09T08:34:59.000Z</time>
      </trkpt>
      <trkpt lat="43.83499" lon="4.19289">
        <ele>227.9</ele>
        <time>2026-05-09T08:35:00.000Z</time>
      </trkpt>
      <trkpt lat="43.83499" lon="4.19288">
        <ele>227.8</ele>
        <time>2026-05-09T08:35:01.000Z</time>
      </trkpt>
      <trkpt lat="43.83499" lon="4.19287">
        <ele>227.9</ele>
        <time>2026-05-09T08:35:02.000Z</time>
      </trkpt>
      <trkpt lat="43.83499" lon="4.19286">
        <ele>227.8</ele>
        <time>2026-05-09T08:35:03.000Z</time>
      </trkpt>
      <trkpt lat="43.835" lon="4.19284">
        <ele>227.6</ele>
        <time>2026-05-09T08:35:04.000Z</time>
      </trkpt>
      <trkpt lat="43.835" lon="4.19283">
        <ele>227.4</ele>
        <time>2026-05-09T08:35:05.000Z</time>
      </trkpt>
      <trkpt lat="43.83501" lon="4.19282">
        <ele>227.2</ele>
        <time>2026-05-09T08:35:06.000Z</time>
      </trkpt>
      <trkpt lat="43.83501" lon="4.1928">
        <ele>227.2</ele>
        <time>2026-05-09T08:35:07.000Z</time>
      </trkpt>
      <trkpt lat="43.83501" lon="4.19278">
        <ele>226.9</ele>
        <time>2026-05-09T08:35:08.000Z</time>
      </trkpt>
      <trkpt lat="43.83502" lon="4.19277">
        <ele>226.7</ele>
        <time>2026-05-09T08:35:09.000Z</time>
      </trkpt>
      <trkpt lat="43.83502" lon="4.19276">
        <ele>226.5</ele>
        <time>2026-05-09T08:35:10.000Z</time>
      </trkpt>
      <trkpt lat="43.83502" lon="4.19274">
        <ele>226.3</ele>
        <time>2026-05-09T08:35:11.000Z</time>
      </trkpt>
      <trkpt lat="43.83503" lon="4.19272">
        <ele>226</ele>
        <time>2026-05-09T08:35:12.000Z</time>
      </trkpt>
      <trkpt lat="43.83503" lon="4.19271">
        <ele>225.7</ele>
        <time>2026-05-09T08:35:13.000Z</time>
      </trkpt>
      <trkpt lat="43.83503" lon="4.19269">
        <ele>225.6</ele>
        <time>2026-05-09T08:35:14.000Z</time>
      </trkpt>
      <trkpt lat="43.83503" lon="4.19268">
        <ele>225.8</ele>
        <time>2026-05-09T08:35:15.000Z</time>
      </trkpt>
      <trkpt lat="43.83503" lon="4.19266">
        <ele>226</ele>
        <time>2026-05-09T08:35:16.000Z</time>
      </trkpt>
      <trkpt lat="43.83503" lon="4.19265">
        <ele>226.4</ele>
        <time>2026-05-09T08:35:17.000Z</time>
      </trkpt>
      <trkpt lat="43.83503" lon="4.19263">
        <ele>226.4</ele>
        <time>2026-05-09T08:35:18.000Z</time>
      </trkpt>
      <trkpt lat="43.83503" lon="4.19262">
        <ele>226.6</ele>
        <time>2026-05-09T08:35:19.000Z</time>
      </trkpt>
      <trkpt lat="43.83504" lon="4.19261">
        <ele>226.5</ele>
        <time>2026-05-09T08:35:20.000Z</time>
      </trkpt>
      <trkpt lat="43.83505" lon="4.1926">
        <ele>226.7</ele>
        <time>2026-05-09T08:35:21.000Z</time>
      </trkpt>
      <trkpt lat="43.83505" lon="4.1926">
        <ele>226.7</ele>
        <time>2026-05-09T08:35:22.000Z</time>
      </trkpt>
      <trkpt lat="43.83506" lon="4.19258">
        <ele>226.8</ele>
        <time>2026-05-09T08:35:23.000Z</time>
      </trkpt>
      <trkpt lat="43.83506" lon="4.19256">
        <ele>227</ele>
        <time>2026-05-09T08:35:24.000Z</time>
      </trkpt>
      <trkpt lat="43.83506" lon="4.19255">
        <ele>227.1</ele>
        <time>2026-05-09T08:35:25.000Z</time>
      </trkpt>
      <trkpt lat="43.83505" lon="4.19255">
        <ele>227</ele>
        <time>2026-05-09T08:35:26.000Z</time>
      </trkpt>
      <trkpt lat="43.83505" lon="4.19254">
        <ele>227.2</ele>
        <time>2026-05-09T08:35:27.000Z</time>
      </trkpt>
      <trkpt lat="43.83506" lon="4.19254">
        <ele>227.1</ele>
        <time>2026-05-09T08:35:28.000Z</time>
      </trkpt>
      <trkpt lat="43.83506" lon="4.19253">
        <ele>227.4</ele>
        <time>2026-05-09T08:35:29.000Z</time>
      </trkpt>
      <trkpt lat="43.83507" lon="4.19252">
        <ele>227.6</ele>
        <time>2026-05-09T08:35:30.000Z</time>
      </trkpt>
      <trkpt lat="43.83507" lon="4.19251">
        <ele>227.5</ele>
        <time>2026-05-09T08:35:31.000Z</time>
      </trkpt>
      <trkpt lat="43.83507" lon="4.19251">
        <ele>227.4</ele>
        <time>2026-05-09T08:35:32.000Z</time>
      </trkpt>
      <trkpt lat="43.83507" lon="4.19249">
        <ele>227.4</ele>
        <time>2026-05-09T08:35:33.000Z</time>
      </trkpt>
      <trkpt lat="43.83508" lon="4.19248">
        <ele>227.3</ele>
        <time>2026-05-09T08:35:34.000Z</time>
      </trkpt>
      <trkpt lat="43.83508" lon="4.19247">
        <ele>227.4</ele>
        <time>2026-05-09T08:35:35.000Z</time>
      </trkpt>
      <trkpt lat="43.83509" lon="4.19246">
        <ele>227.5</ele>
        <time>2026-05-09T08:35:36.000Z</time>
      </trkpt>
      <trkpt lat="43.83509" lon="4.19245">
        <ele>227.6</ele>
        <time>2026-05-09T08:35:37.000Z</time>
      </trkpt>
      <trkpt lat="43.83509" lon="4.19245">
        <ele>227.8</ele>
        <time>2026-05-09T08:35:38.000Z</time>
      </trkpt>
      <trkpt lat="43.83509" lon="4.19243">
        <ele>228.2</ele>
        <time>2026-05-09T08:35:39.000Z</time>
      </trkpt>
      <trkpt lat="43.83509" lon="4.19242">
        <ele>228.4</ele>
        <time>2026-05-09T08:35:40.000Z</time>
      </trkpt>
      <trkpt lat="43.8351" lon="4.19241">
        <ele>228.7</ele>
        <time>2026-05-09T08:35:41.000Z</time>
      </trkpt>
      <trkpt lat="43.83511" lon="4.1924">
        <ele>229</ele>
        <time>2026-05-09T08:35:42.000Z</time>
      </trkpt>
      <trkpt lat="43.83511" lon="4.1924">
        <ele>229.4</ele>
        <time>2026-05-09T08:35:43.000Z</time>
      </trkpt>
      <trkpt lat="43.83511" lon="4.19239">
        <ele>229.6</ele>
        <time>2026-05-09T08:35:44.000Z</time>
      </trkpt>
      <trkpt lat="43.8351" lon="4.19238">
        <ele>229.2</ele>
        <time>2026-05-09T08:35:45.000Z</time>
      </trkpt>
      <trkpt lat="43.8351" lon="4.19237">
        <ele>229.1</ele>
        <time>2026-05-09T08:35:46.000Z</time>
      </trkpt>
      <trkpt lat="43.83511" lon="4.19235">
        <ele>228.7</ele>
        <time>2026-05-09T08:35:47.000Z</time>
      </trkpt>
      <trkpt lat="43.83512" lon="4.19233">
        <ele>228.6</ele>
        <time>2026-05-09T08:35:48.000Z</time>
      </trkpt>
      <trkpt lat="43.83512" lon="4.19232">
        <ele>228.7</ele>
        <time>2026-05-09T08:35:49.000Z</time>
      </trkpt>
      <trkpt lat="43.83512" lon="4.19231">
        <ele>228.6</ele>
        <time>2026-05-09T08:35:50.000Z</time>
      </trkpt>
      <trkpt lat="43.83513" lon="4.1923">
        <ele>228.6</ele>
        <time>2026-05-09T08:35:51.000Z</time>
      </trkpt>
      <trkpt lat="43.83513" lon="4.1923">
        <ele>228.8</ele>
        <time>2026-05-09T08:35:52.000Z</time>
      </trkpt>
      <trkpt lat="43.83513" lon="4.19229">
        <ele>229.1</ele>
        <time>2026-05-09T08:35:53.000Z</time>
      </trkpt>
      <trkpt lat="43.83513" lon="4.19228">
        <ele>229.1</ele>
        <time>2026-05-09T08:35:54.000Z</time>
      </trkpt>
      <trkpt lat="43.83513" lon="4.19226">
        <ele>229.3</ele>
        <time>2026-05-09T08:35:55.000Z</time>
      </trkpt>
      <trkpt lat="43.83513" lon="4.19225">
        <ele>229.2</ele>
        <time>2026-05-09T08:35:56.000Z</time>
      </trkpt>
      <trkpt lat="43.83513" lon="4.19225">
        <ele>229.1</ele>
        <time>2026-05-09T08:35:57.000Z</time>
      </trkpt>
      <trkpt lat="43.83513" lon="4.19224">
        <ele>229.1</ele>
        <time>2026-05-09T08:35:58.000Z</time>
      </trkpt>
      <trkpt lat="43.83513" lon="4.19223">
        <ele>229.1</ele>
        <time>2026-05-09T08:35:59.000Z</time>
      </trkpt>
      <trkpt lat="43.83513" lon="4.19221">
        <ele>229</ele>
        <time>2026-05-09T08:36:00.000Z</time>
      </trkpt>
      <trkpt lat="43.83513" lon="4.1922">
        <ele>229.4</ele>
        <time>2026-05-09T08:36:01.000Z</time>
      </trkpt>
      <trkpt lat="43.83514" lon="4.19219">
        <ele>229.8</ele>
        <time>2026-05-09T08:36:02.000Z</time>
      </trkpt>
      <trkpt lat="43.83514" lon="4.19218">
        <ele>230.1</ele>
        <time>2026-05-09T08:36:03.000Z</time>
      </trkpt>
      <trkpt lat="43.83514" lon="4.19218">
        <ele>230.3</ele>
        <time>2026-05-09T08:36:04.000Z</time>
      </trkpt>
      <trkpt lat="43.83513" lon="4.19218">
        <ele>230.3</ele>
        <time>2026-05-09T08:36:05.000Z</time>
      </trkpt>
      <trkpt lat="43.83513" lon="4.19217">
        <ele>230.9</ele>
        <time>2026-05-09T08:36:06.000Z</time>
      </trkpt>
      <trkpt lat="43.83513" lon="4.19217">
        <ele>231.3</ele>
        <time>2026-05-09T08:36:07.000Z</time>
      </trkpt>
      <trkpt lat="43.83513" lon="4.19216">
        <ele>231.4</ele>
        <time>2026-05-09T08:36:08.000Z</time>
      </trkpt>
      <trkpt lat="43.83514" lon="4.19215">
        <ele>231.4</ele>
        <time>2026-05-09T08:36:09.000Z</time>
      </trkpt>
      <trkpt lat="43.83514" lon="4.19214">
        <ele>231.5</ele>
        <time>2026-05-09T08:36:10.000Z</time>
      </trkpt>
      <trkpt lat="43.83515" lon="4.19212">
        <ele>231.6</ele>
        <time>2026-05-09T08:36:11.999Z</time>
      </trkpt>
      <trkpt lat="43.83515" lon="4.19211">
        <ele>231.6</ele>
        <time>2026-05-09T08:36:12.999Z</time>
      </trkpt>
      <trkpt lat="43.83515" lon="4.1921">
        <ele>231.6</ele>
        <time>2026-05-09T08:36:13.999Z</time>
      </trkpt>
      <trkpt lat="43.83516" lon="4.19208">
        <ele>231.8</ele>
        <time>2026-05-09T08:36:14.999Z</time>
      </trkpt>
      <trkpt lat="43.83516" lon="4.19207">
        <ele>231.8</ele>
        <time>2026-05-09T08:36:15.999Z</time>
      </trkpt>
      <trkpt lat="43.83516" lon="4.19206">
        <ele>232</ele>
        <time>2026-05-09T08:36:16.999Z</time>
      </trkpt>
      <trkpt lat="43.83517" lon="4.19206">
        <ele>232.4</ele>
        <time>2026-05-09T08:36:17.999Z</time>
      </trkpt>
      <trkpt lat="43.83517" lon="4.19205">
        <ele>232.7</ele>
        <time>2026-05-09T08:36:18.999Z</time>
      </trkpt>
      <trkpt lat="43.83517" lon="4.19204">
        <ele>233.2</ele>
        <time>2026-05-09T08:36:19.999Z</time>
      </trkpt>
      <trkpt lat="43.83518" lon="4.19203">
        <ele>233.6</ele>
        <time>2026-05-09T08:36:20.999Z</time>
      </trkpt>
      <trkpt lat="43.83518" lon="4.19202">
        <ele>233.7</ele>
        <time>2026-05-09T08:36:21.999Z</time>
      </trkpt>
      <trkpt lat="43.83518" lon="4.19201">
        <ele>233.7</ele>
        <time>2026-05-09T08:36:22.999Z</time>
      </trkpt>
      <trkpt lat="43.83519" lon="4.19201">
        <ele>233.7</ele>
        <time>2026-05-09T08:36:23.999Z</time>
      </trkpt>
      <trkpt lat="43.83519" lon="4.192">
        <ele>233.9</ele>
        <time>2026-05-09T08:36:24.999Z</time>
      </trkpt>
      <trkpt lat="43.83519" lon="4.192">
        <ele>233.9</ele>
        <time>2026-05-09T08:36:25.999Z</time>
      </trkpt>
      <trkpt lat="43.83519" lon="4.19199">
        <ele>234</ele>
        <time>2026-05-09T08:36:26.999Z</time>
      </trkpt>
      <trkpt lat="43.83519" lon="4.19198">
        <ele>234.1</ele>
        <time>2026-05-09T08:36:27.999Z</time>
      </trkpt>
      <trkpt lat="43.8352" lon="4.19198">
        <ele>234</ele>
        <time>2026-05-09T08:36:28.999Z</time>
      </trkpt>
      <trkpt lat="43.8352" lon="4.19198">
        <ele>233.8</ele>
        <time>2026-05-09T08:36:29.999Z</time>
      </trkpt>
      <trkpt lat="43.83521" lon="4.19198">
        <ele>233.8</ele>
        <time>2026-05-09T08:36:30.999Z</time>
      </trkpt>
      <trkpt lat="43.83521" lon="4.19198">
        <ele>233.9</ele>
        <time>2026-05-09T08:36:31.999Z</time>
      </trkpt>
      <trkpt lat="43.83521" lon="4.19198">
        <ele>233.8</ele>
        <time>2026-05-09T08:36:32.999Z</time>
      </trkpt>
      <trkpt lat="43.83522" lon="4.19197">
        <ele>233.8</ele>
        <time>2026-05-09T08:36:33.999Z</time>
      </trkpt>
      <trkpt lat="43.83522" lon="4.19196">
        <ele>233.5</ele>
        <time>2026-05-09T08:36:34.999Z</time>
      </trkpt>
      <trkpt lat="43.83523" lon="4.19195">
        <ele>233.3</ele>
        <time>2026-05-09T08:36:35.999Z</time>
      </trkpt>
      <trkpt lat="43.83523" lon="4.19195">
        <ele>233.4</ele>
        <time>2026-05-09T08:36:36.999Z</time>
      </trkpt>
      <trkpt lat="43.83523" lon="4.19195">
        <ele>233.4</ele>
        <time>2026-05-09T08:36:37.999Z</time>
      </trkpt>
      <trkpt lat="43.83524" lon="4.19195">
        <ele>233.5</ele>
        <time>2026-05-09T08:36:38.999Z</time>
      </trkpt>
      <trkpt lat="43.83524" lon="4.19194">
        <ele>233.7</ele>
        <time>2026-05-09T08:36:39.999Z</time>
      </trkpt>
      <trkpt lat="43.83525" lon="4.19193">
        <ele>233.8</ele>
        <time>2026-05-09T08:36:40.999Z</time>
      </trkpt>
      <trkpt lat="43.83525" lon="4.19192">
        <ele>233.7</ele>
        <time>2026-05-09T08:36:41.999Z</time>
      </trkpt>
      <trkpt lat="43.83525" lon="4.19192">
        <ele>233.6</ele>
        <time>2026-05-09T08:36:42.999Z</time>
      </trkpt>
      <trkpt lat="43.83525" lon="4.19192">
        <ele>234</ele>
        <time>2026-05-09T08:36:43.999Z</time>
      </trkpt>
      <trkpt lat="43.83525" lon="4.19192">
        <ele>234.1</ele>
        <time>2026-05-09T08:36:44.999Z</time>
      </trkpt>
      <trkpt lat="43.83525" lon="4.19192">
        <ele>234.1</ele>
        <time>2026-05-09T08:36:45.999Z</time>
      </trkpt>
      <trkpt lat="43.83525" lon="4.19192">
        <ele>234</ele>
        <time>2026-05-09T08:36:46.999Z</time>
      </trkpt>
      <trkpt lat="43.83525" lon="4.19192">
        <ele>234.2</ele>
        <time>2026-05-09T08:36:47.999Z</time>
      </trkpt>
      <trkpt lat="43.83525" lon="4.19192">
        <ele>234.2</ele>
        <time>2026-05-09T08:36:48.999Z</time>
      </trkpt>
      <trkpt lat="43.83526" lon="4.19191">
        <ele>234.4</ele>
        <time>2026-05-09T08:36:49.999Z</time>
      </trkpt>
      <trkpt lat="43.83528" lon="4.1919">
        <ele>234.7</ele>
        <time>2026-05-09T08:36:50.999Z</time>
      </trkpt>
      <trkpt lat="43.83528" lon="4.1919">
        <ele>234.6</ele>
        <time>2026-05-09T08:36:51.999Z</time>
      </trkpt>
      <trkpt lat="43.83528" lon="4.19189">
        <ele>234.7</ele>
        <time>2026-05-09T08:36:52.999Z</time>
      </trkpt>
      <trkpt lat="43.83529" lon="4.19189">
        <ele>234.6</ele>
        <time>2026-05-09T08:36:53.999Z</time>
      </trkpt>
      <trkpt lat="43.8353" lon="4.19188">
        <ele>234.7</ele>
        <time>2026-05-09T08:36:54.999Z</time>
      </trkpt>
      <trkpt lat="43.8353" lon="4.19187">
        <ele>234.8</ele>
        <time>2026-05-09T08:36:55.999Z</time>
      </trkpt>
      <trkpt lat="43.83531" lon="4.19186">
        <ele>234.7</ele>
        <time>2026-05-09T08:36:56.999Z</time>
      </trkpt>
      <trkpt lat="43.83532" lon="4.19185">
        <ele>234.6</ele>
        <time>2026-05-09T08:36:57.999Z</time>
      </trkpt>
      <trkpt lat="43.83533" lon="4.19184">
        <ele>234.3</ele>
        <time>2026-05-09T08:36:58.999Z</time>
      </trkpt>
      <trkpt lat="43.83535" lon="4.19183">
        <ele>234.2</ele>
        <time>2026-05-09T08:36:59.999Z</time>
      </trkpt>
      <trkpt lat="43.83536" lon="4.19182">
        <ele>234.1</ele>
        <time>2026-05-09T08:37:00.999Z</time>
      </trkpt>
      <trkpt lat="43.83538" lon="4.19181">
        <ele>233.9</ele>
        <time>2026-05-09T08:37:01.999Z</time>
      </trkpt>
      <trkpt lat="43.83539" lon="4.1918">
        <ele>233.8</ele>
        <time>2026-05-09T08:37:02.999Z</time>
      </trkpt>
      <trkpt lat="43.8354" lon="4.19179">
        <ele>233.6</ele>
        <time>2026-05-09T08:37:03.999Z</time>
      </trkpt>
      <trkpt lat="43.83542" lon="4.19177">
        <ele>233.5</ele>
        <time>2026-05-09T08:37:04.999Z</time>
      </trkpt>
      <trkpt lat="43.83543" lon="4.19177">
        <ele>233.4</ele>
        <time>2026-05-09T08:37:05.999Z</time>
      </trkpt>
      <trkpt lat="43.83544" lon="4.19176">
        <ele>233.4</ele>
        <time>2026-05-09T08:37:06.999Z</time>
      </trkpt>
      <trkpt lat="43.83545" lon="4.19175">
        <ele>233.1</ele>
        <time>2026-05-09T08:37:07.999Z</time>
      </trkpt>
      <trkpt lat="43.83546" lon="4.19174">
        <ele>232.7</ele>
        <time>2026-05-09T08:37:08.999Z</time>
      </trkpt>
      <trkpt lat="43.83547" lon="4.19174">
        <ele>232.3</ele>
        <time>2026-05-09T08:37:09.999Z</time>
      </trkpt>
      <trkpt lat="43.83548" lon="4.19173">
        <ele>232.1</ele>
        <time>2026-05-09T08:37:10.999Z</time>
      </trkpt>
      <trkpt lat="43.83549" lon="4.19172">
        <ele>232.7</ele>
        <time>2026-05-09T08:37:11.999Z</time>
      </trkpt>
      <trkpt lat="43.83549" lon="4.19171">
        <ele>232.9</ele>
        <time>2026-05-09T08:37:12.999Z</time>
      </trkpt>
      <trkpt lat="43.83549" lon="4.1917">
        <ele>233</ele>
        <time>2026-05-09T08:37:13.999Z</time>
      </trkpt>
      <trkpt lat="43.8355" lon="4.19169">
        <ele>233.4</ele>
        <time>2026-05-09T08:37:14.999Z</time>
      </trkpt>
      <trkpt lat="43.8355" lon="4.19167">
        <ele>233.8</ele>
        <time>2026-05-09T08:37:15.999Z</time>
      </trkpt>
      <trkpt lat="43.83551" lon="4.19167">
        <ele>234.3</ele>
        <time>2026-05-09T08:37:16.999Z</time>
      </trkpt>
      <trkpt lat="43.83552" lon="4.19165">
        <ele>234.6</ele>
        <time>2026-05-09T08:37:17.999Z</time>
      </trkpt>
      <trkpt lat="43.83553" lon="4.19164">
        <ele>235.1</ele>
        <time>2026-05-09T08:37:18.999Z</time>
      </trkpt>
      <trkpt lat="43.83553" lon="4.19163">
        <ele>235.5</ele>
        <time>2026-05-09T08:37:19.999Z</time>
      </trkpt>
      <trkpt lat="43.83554" lon="4.19162">
        <ele>235.8</ele>
        <time>2026-05-09T08:37:20.999Z</time>
      </trkpt>
      <trkpt lat="43.83554" lon="4.19161">
        <ele>236.3</ele>
        <time>2026-05-09T08:37:21.999Z</time>
      </trkpt>
      <trkpt lat="43.83555" lon="4.1916">
        <ele>236.8</ele>
        <time>2026-05-09T08:37:22.999Z</time>
      </trkpt>
      <trkpt lat="43.83555" lon="4.1916">
        <ele>236.9</ele>
        <time>2026-05-09T08:37:23.999Z</time>
      </trkpt>
      <trkpt lat="43.83556" lon="4.1916">
        <ele>237</ele>
        <time>2026-05-09T08:37:24.999Z</time>
      </trkpt>
      <trkpt lat="43.83557" lon="4.19159">
        <ele>236.9</ele>
        <time>2026-05-09T08:37:25.999Z</time>
      </trkpt>
      <trkpt lat="43.83558" lon="4.19158">
        <ele>236.6</ele>
        <time>2026-05-09T08:37:26.999Z</time>
      </trkpt>
      <trkpt lat="43.83559" lon="4.19158">
        <ele>236.5</ele>
        <time>2026-05-09T08:37:27.999Z</time>
      </trkpt>
      <trkpt lat="43.8356" lon="4.19157">
        <ele>236.9</ele>
        <time>2026-05-09T08:37:28.999Z</time>
      </trkpt>
      <trkpt lat="43.83561" lon="4.19156">
        <ele>237.2</ele>
        <time>2026-05-09T08:37:29.999Z</time>
      </trkpt>
      <trkpt lat="43.83561" lon="4.19156">
        <ele>237.4</ele>
        <time>2026-05-09T08:37:30.999Z</time>
      </trkpt>
      <trkpt lat="43.83563" lon="4.19156">
        <ele>237.1</ele>
        <time>2026-05-09T08:37:31.999Z</time>
      </trkpt>
      <trkpt lat="43.83564" lon="4.19156">
        <ele>236.9</ele>
        <time>2026-05-09T08:37:32.999Z</time>
      </trkpt>
      <trkpt lat="43.83565" lon="4.19155">
        <ele>237.1</ele>
        <time>2026-05-09T08:37:33.999Z</time>
      </trkpt>
      <trkpt lat="43.83565" lon="4.19154">
        <ele>237.1</ele>
        <time>2026-05-09T08:37:34.999Z</time>
      </trkpt>
      <trkpt lat="43.83566" lon="4.19154">
        <ele>237.4</ele>
        <time>2026-05-09T08:37:35.999Z</time>
      </trkpt>
      <trkpt lat="43.83567" lon="4.19154">
        <ele>237.5</ele>
        <time>2026-05-09T08:37:36.999Z</time>
      </trkpt>
      <trkpt lat="43.83568" lon="4.19153">
        <ele>237.8</ele>
        <time>2026-05-09T08:37:37.999Z</time>
      </trkpt>
      <trkpt lat="43.83569" lon="4.19153">
        <ele>238.1</ele>
        <time>2026-05-09T08:37:38.999Z</time>
      </trkpt>
      <trkpt lat="43.83569" lon="4.19153">
        <ele>237.7</ele>
        <time>2026-05-09T08:37:39.999Z</time>
      </trkpt>
      <trkpt lat="43.8357" lon="4.19153">
        <ele>237.5</ele>
        <time>2026-05-09T08:37:40.999Z</time>
      </trkpt>
      <trkpt lat="43.8357" lon="4.19153">
        <ele>237.4</ele>
        <time>2026-05-09T08:37:41.999Z</time>
      </trkpt>
      <trkpt lat="43.8357" lon="4.19153">
        <ele>237.5</ele>
        <time>2026-05-09T08:37:42.999Z</time>
      </trkpt>
      <trkpt lat="43.8357" lon="4.19153">
        <ele>237.4</ele>
        <time>2026-05-09T08:37:43.999Z</time>
      </trkpt>
      <trkpt lat="43.8357" lon="4.19153">
        <ele>237.6</ele>
        <time>2026-05-09T08:37:44.999Z</time>
      </trkpt>
      <trkpt lat="43.83571" lon="4.19153">
        <ele>237.7</ele>
        <time>2026-05-09T08:37:45.999Z</time>
      </trkpt>
      <trkpt lat="43.83572" lon="4.19152">
        <ele>237.7</ele>
        <time>2026-05-09T08:37:46.999Z</time>
      </trkpt>
      <trkpt lat="43.83573" lon="4.19152">
        <ele>237.8</ele>
        <time>2026-05-09T08:37:47.999Z</time>
      </trkpt>
      <trkpt lat="43.83574" lon="4.19151">
        <ele>237.9</ele>
        <time>2026-05-09T08:37:48.999Z</time>
      </trkpt>
      <trkpt lat="43.83575" lon="4.19151">
        <ele>238.1</ele>
        <time>2026-05-09T08:37:49.999Z</time>
      </trkpt>
      <trkpt lat="43.83576" lon="4.19151">
        <ele>238.3</ele>
        <time>2026-05-09T08:37:50.999Z</time>
      </trkpt>
      <trkpt lat="43.83577" lon="4.19149">
        <ele>238.7</ele>
        <time>2026-05-09T08:37:51.999Z</time>
      </trkpt>
      <trkpt lat="43.83578" lon="4.19148">
        <ele>239.1</ele>
        <time>2026-05-09T08:37:52.999Z</time>
      </trkpt>
      <trkpt lat="43.83578" lon="4.19147">
        <ele>239.6</ele>
        <time>2026-05-09T08:37:53.999Z</time>
      </trkpt>
      <trkpt lat="43.83578" lon="4.19145">
        <ele>240</ele>
        <time>2026-05-09T08:37:54.999Z</time>
      </trkpt>
      <trkpt lat="43.83577" lon="4.19144">
        <ele>240.5</ele>
        <time>2026-05-09T08:37:55.999Z</time>
      </trkpt>
      <trkpt lat="43.83577" lon="4.19143">
        <ele>240.5</ele>
        <time>2026-05-09T08:37:56.999Z</time>
      </trkpt>
      <trkpt lat="43.83577" lon="4.19142">
        <ele>240.2</ele>
        <time>2026-05-09T08:37:57.999Z</time>
      </trkpt>
      <trkpt lat="43.83576" lon="4.19141">
        <ele>240.1</ele>
        <time>2026-05-09T08:37:58.999Z</time>
      </trkpt>
      <trkpt lat="43.83576" lon="4.1914">
        <ele>239.9</ele>
        <time>2026-05-09T08:37:59.999Z</time>
      </trkpt>
      <trkpt lat="43.83576" lon="4.19139">
        <ele>239.6</ele>
        <time>2026-05-09T08:38:00.999Z</time>
      </trkpt>
      <trkpt lat="43.83575" lon="4.19138">
        <ele>239.5</ele>
        <time>2026-05-09T08:38:01.999Z</time>
      </trkpt>
      <trkpt lat="43.83575" lon="4.19136">
        <ele>239.9</ele>
        <time>2026-05-09T08:38:02.999Z</time>
      </trkpt>
      <trkpt lat="43.83575" lon="4.19135">
        <ele>240</ele>
        <time>2026-05-09T08:38:03.999Z</time>
      </trkpt>
      <trkpt lat="43.83575" lon="4.19134">
        <ele>240.1</ele>
        <time>2026-05-09T08:38:04.999Z</time>
      </trkpt>
      <trkpt lat="43.83575" lon="4.19133">
        <ele>240.2</ele>
        <time>2026-05-09T08:38:05.999Z</time>
      </trkpt>
      <trkpt lat="43.83574" lon="4.19132">
        <ele>240.2</ele>
        <time>2026-05-09T08:38:06.999Z</time>
      </trkpt>
      <trkpt lat="43.83574" lon="4.19131">
        <ele>240.4</ele>
        <time>2026-05-09T08:38:07.999Z</time>
      </trkpt>
      <trkpt lat="43.83574" lon="4.19129">
        <ele>240.7</ele>
        <time>2026-05-09T08:38:08.999Z</time>
      </trkpt>
      <trkpt lat="43.83573" lon="4.19128">
        <ele>241</ele>
        <time>2026-05-09T08:38:09.999Z</time>
      </trkpt>
      <trkpt lat="43.83573" lon="4.19127">
        <ele>241.4</ele>
        <time>2026-05-09T08:38:10.999Z</time>
      </trkpt>
      <trkpt lat="43.83573" lon="4.19126">
        <ele>241.4</ele>
        <time>2026-05-09T08:38:11.999Z</time>
      </trkpt>
      <trkpt lat="43.83573" lon="4.19125">
        <ele>241.3</ele>
        <time>2026-05-09T08:38:12.999Z</time>
      </trkpt>
      <trkpt lat="43.83573" lon="4.19123">
        <ele>241.2</ele>
        <time>2026-05-09T08:38:13.999Z</time>
      </trkpt>
      <trkpt lat="43.83572" lon="4.19122">
        <ele>241.1</ele>
        <time>2026-05-09T08:38:14.999Z</time>
      </trkpt>
      <trkpt lat="43.83572" lon="4.1912">
        <ele>240.9</ele>
        <time>2026-05-09T08:38:15.999Z</time>
      </trkpt>
      <trkpt lat="43.83571" lon="4.19119">
        <ele>240.7</ele>
        <time>2026-05-09T08:38:16.999Z</time>
      </trkpt>
      <trkpt lat="43.83571" lon="4.19118">
        <ele>240.9</ele>
        <time>2026-05-09T08:38:17.999Z</time>
      </trkpt>
      <trkpt lat="43.8357" lon="4.19117">
        <ele>240.7</ele>
        <time>2026-05-09T08:38:18.999Z</time>
      </trkpt>
      <trkpt lat="43.83569" lon="4.19115">
        <ele>240.2</ele>
        <time>2026-05-09T08:38:19.999Z</time>
      </trkpt>
      <trkpt lat="43.83569" lon="4.19114">
        <ele>240</ele>
        <time>2026-05-09T08:38:20.999Z</time>
      </trkpt>
      <trkpt lat="43.83569" lon="4.19112">
        <ele>239.9</ele>
        <time>2026-05-09T08:38:21.999Z</time>
      </trkpt>
      <trkpt lat="43.83569" lon="4.19111">
        <ele>239.7</ele>
        <time>2026-05-09T08:38:22.999Z</time>
      </trkpt>
      <trkpt lat="43.83568" lon="4.19109">
        <ele>239.7</ele>
        <time>2026-05-09T08:38:23.999Z</time>
      </trkpt>
      <trkpt lat="43.83568" lon="4.19107">
        <ele>240.1</ele>
        <time>2026-05-09T08:38:24.999Z</time>
      </trkpt>
      <trkpt lat="43.83567" lon="4.19106">
        <ele>240.2</ele>
        <time>2026-05-09T08:38:25.999Z</time>
      </trkpt>
      <trkpt lat="43.83567" lon="4.19104">
        <ele>240.4</ele>
        <time>2026-05-09T08:38:26.999Z</time>
      </trkpt>
      <trkpt lat="43.83566" lon="4.19102">
        <ele>240.4</ele>
        <time>2026-05-09T08:38:27.999Z</time>
      </trkpt>
      <trkpt lat="43.83566" lon="4.19101">
        <ele>240.1</ele>
        <time>2026-05-09T08:38:28.999Z</time>
      </trkpt>
      <trkpt lat="43.83565" lon="4.19099">
        <ele>239.9</ele>
        <time>2026-05-09T08:38:29.999Z</time>
      </trkpt>
      <trkpt lat="43.83565" lon="4.19098">
        <ele>239.9</ele>
        <time>2026-05-09T08:38:30.999Z</time>
      </trkpt>
      <trkpt lat="43.83566" lon="4.19097">
        <ele>240</ele>
        <time>2026-05-09T08:38:31.999Z</time>
      </trkpt>
      <trkpt lat="43.83565" lon="4.19095">
        <ele>240.1</ele>
        <time>2026-05-09T08:38:32.999Z</time>
      </trkpt>
      <trkpt lat="43.83565" lon="4.19093">
        <ele>240.3</ele>
        <time>2026-05-09T08:38:33.999Z</time>
      </trkpt>
      <trkpt lat="43.83565" lon="4.19092">
        <ele>240.5</ele>
        <time>2026-05-09T08:38:34.999Z</time>
      </trkpt>
      <trkpt lat="43.83565" lon="4.1909">
        <ele>240.6</ele>
        <time>2026-05-09T08:38:35.999Z</time>
      </trkpt>
      <trkpt lat="43.83565" lon="4.19089">
        <ele>240.5</ele>
        <time>2026-05-09T08:38:36.999Z</time>
      </trkpt>
      <trkpt lat="43.83565" lon="4.19088">
        <ele>240.4</ele>
        <time>2026-05-09T08:38:37.999Z</time>
      </trkpt>
      <trkpt lat="43.83564" lon="4.19087">
        <ele>240.7</ele>
        <time>2026-05-09T08:38:38.999Z</time>
      </trkpt>
      <trkpt lat="43.83563" lon="4.19085">
        <ele>240.7</ele>
        <time>2026-05-09T08:38:39.999Z</time>
      </trkpt>
      <trkpt lat="43.83563" lon="4.19084">
        <ele>240.7</ele>
        <time>2026-05-09T08:38:40.999Z</time>
      </trkpt>
      <trkpt lat="43.83562" lon="4.19082">
        <ele>240.8</ele>
        <time>2026-05-09T08:38:41.999Z</time>
      </trkpt>
      <trkpt lat="43.83562" lon="4.19081">
        <ele>240.8</ele>
        <time>2026-05-09T08:38:42.999Z</time>
      </trkpt>
      <trkpt lat="43.83562" lon="4.19079">
        <ele>241.1</ele>
        <time>2026-05-09T08:38:43.999Z</time>
      </trkpt>
      <trkpt lat="43.83561" lon="4.19078">
        <ele>241.4</ele>
        <time>2026-05-09T08:38:44.999Z</time>
      </trkpt>
      <trkpt lat="43.83561" lon="4.19076">
        <ele>241.5</ele>
        <time>2026-05-09T08:38:45.999Z</time>
      </trkpt>
      <trkpt lat="43.8356" lon="4.19075">
        <ele>241.8</ele>
        <time>2026-05-09T08:38:46.999Z</time>
      </trkpt>
      <trkpt lat="43.8356" lon="4.19073">
        <ele>241.9</ele>
        <time>2026-05-09T08:38:47.999Z</time>
      </trkpt>
      <trkpt lat="43.8356" lon="4.19072">
        <ele>242.2</ele>
        <time>2026-05-09T08:38:48.999Z</time>
      </trkpt>
      <trkpt lat="43.8356" lon="4.19071">
        <ele>242.2</ele>
        <time>2026-05-09T08:38:49.999Z</time>
      </trkpt>
      <trkpt lat="43.8356" lon="4.1907">
        <ele>242.2</ele>
        <time>2026-05-09T08:38:50.999Z</time>
      </trkpt>
      <trkpt lat="43.83561" lon="4.19069">
        <ele>241.9</ele>
        <time>2026-05-09T08:38:51.999Z</time>
      </trkpt>
      <trkpt lat="43.83561" lon="4.19067">
        <ele>241.9</ele>
        <time>2026-05-09T08:38:52.999Z</time>
      </trkpt>
      <trkpt lat="43.83561" lon="4.19066">
        <ele>241.7</ele>
        <time>2026-05-09T08:38:53.999Z</time>
      </trkpt>
      <trkpt lat="43.83562" lon="4.19065">
        <ele>241.7</ele>
        <time>2026-05-09T08:38:54.999Z</time>
      </trkpt>
      <trkpt lat="43.83562" lon="4.19064">
        <ele>241.5</ele>
        <time>2026-05-09T08:38:55.999Z</time>
      </trkpt>
      <trkpt lat="43.83562" lon="4.19063">
        <ele>241.2</ele>
        <time>2026-05-09T08:38:56.999Z</time>
      </trkpt>
      <trkpt lat="43.83562" lon="4.19062">
        <ele>241.1</ele>
        <time>2026-05-09T08:38:57.999Z</time>
      </trkpt>
      <trkpt lat="43.83562" lon="4.19061">
        <ele>240.9</ele>
        <time>2026-05-09T08:38:58.999Z</time>
      </trkpt>
      <trkpt lat="43.83562" lon="4.1906">
        <ele>240.8</ele>
        <time>2026-05-09T08:38:59.999Z</time>
      </trkpt>
      <trkpt lat="43.83561" lon="4.19059">
        <ele>240.8</ele>
        <time>2026-05-09T08:39:00.999Z</time>
      </trkpt>
      <trkpt lat="43.83561" lon="4.19058">
        <ele>240.6</ele>
        <time>2026-05-09T08:39:01.999Z</time>
      </trkpt>
      <trkpt lat="43.83561" lon="4.19057">
        <ele>240.5</ele>
        <time>2026-05-09T08:39:02.999Z</time>
      </trkpt>
      <trkpt lat="43.83561" lon="4.19056">
        <ele>240.5</ele>
        <time>2026-05-09T08:39:03.999Z</time>
      </trkpt>
      <trkpt lat="43.83561" lon="4.19056">
        <ele>240.6</ele>
        <time>2026-05-09T08:39:04.999Z</time>
      </trkpt>
      <trkpt lat="43.83561" lon="4.19055">
        <ele>240.6</ele>
        <time>2026-05-09T08:39:05.999Z</time>
      </trkpt>
      <trkpt lat="43.83562" lon="4.19054">
        <ele>240.7</ele>
        <time>2026-05-09T08:39:06.999Z</time>
      </trkpt>
      <trkpt lat="43.83562" lon="4.19052">
        <ele>240.7</ele>
        <time>2026-05-09T08:39:07.999Z</time>
      </trkpt>
      <trkpt lat="43.83561" lon="4.1905">
        <ele>240.9</ele>
        <time>2026-05-09T08:39:08.999Z</time>
      </trkpt>
      <trkpt lat="43.83561" lon="4.19049">
        <ele>241.1</ele>
        <time>2026-05-09T08:39:09.999Z</time>
      </trkpt>
      <trkpt lat="43.83561" lon="4.19047">
        <ele>241</ele>
        <time>2026-05-09T08:39:10.999Z</time>
      </trkpt>
      <trkpt lat="43.83561" lon="4.19045">
        <ele>240.9</ele>
        <time>2026-05-09T08:39:11.999Z</time>
      </trkpt>
      <trkpt lat="43.83561" lon="4.19045">
        <ele>240.8</ele>
        <time>2026-05-09T08:39:12.999Z</time>
      </trkpt>
      <trkpt lat="43.83561" lon="4.19044">
        <ele>240.6</ele>
        <time>2026-05-09T08:39:13.999Z</time>
      </trkpt>
      <trkpt lat="43.83561" lon="4.19042">
        <ele>240.5</ele>
        <time>2026-05-09T08:39:14.999Z</time>
      </trkpt>
      <trkpt lat="43.83561" lon="4.19041">
        <ele>240.3</ele>
        <time>2026-05-09T08:39:15.999Z</time>
      </trkpt>
      <trkpt lat="43.83561" lon="4.1904">
        <ele>240.2</ele>
        <time>2026-05-09T08:39:16.999Z</time>
      </trkpt>
      <trkpt lat="43.83561" lon="4.19038">
        <ele>240.4</ele>
        <time>2026-05-09T08:39:17.999Z</time>
      </trkpt>
      <trkpt lat="43.83561" lon="4.19036">
        <ele>240.2</ele>
        <time>2026-05-09T08:39:18.999Z</time>
      </trkpt>
      <trkpt lat="43.83561" lon="4.19035">
        <ele>240</ele>
        <time>2026-05-09T08:39:19.999Z</time>
      </trkpt>
      <trkpt lat="43.83561" lon="4.19035">
        <ele>239.7</ele>
        <time>2026-05-09T08:39:20.999Z</time>
      </trkpt>
      <trkpt lat="43.83561" lon="4.19033">
        <ele>239.6</ele>
        <time>2026-05-09T08:39:21.999Z</time>
      </trkpt>
      <trkpt lat="43.83561" lon="4.19031">
        <ele>239.9</ele>
        <time>2026-05-09T08:39:22.999Z</time>
      </trkpt>
      <trkpt lat="43.83561" lon="4.1903">
        <ele>240.2</ele>
        <time>2026-05-09T08:39:23.999Z</time>
      </trkpt>
      <trkpt lat="43.83561" lon="4.19029">
        <ele>240.1</ele>
        <time>2026-05-09T08:39:24.999Z</time>
      </trkpt>
      <trkpt lat="43.83562" lon="4.19026">
        <ele>239.7</ele>
        <time>2026-05-09T08:39:25.999Z</time>
      </trkpt>
      <trkpt lat="43.83562" lon="4.19025">
        <ele>239.1</ele>
        <time>2026-05-09T08:39:26.999Z</time>
      </trkpt>
      <trkpt lat="43.83563" lon="4.19023">
        <ele>238.8</ele>
        <time>2026-05-09T08:39:27.999Z</time>
      </trkpt>
      <trkpt lat="43.83563" lon="4.19022">
        <ele>238.7</ele>
        <time>2026-05-09T08:39:28.999Z</time>
      </trkpt>
      <trkpt lat="43.83562" lon="4.19021">
        <ele>238.6</ele>
        <time>2026-05-09T08:39:29.999Z</time>
      </trkpt>
      <trkpt lat="43.83562" lon="4.1902">
        <ele>238.1</ele>
        <time>2026-05-09T08:39:30.999Z</time>
      </trkpt>
      <trkpt lat="43.83562" lon="4.19019">
        <ele>238</ele>
        <time>2026-05-09T08:39:31.999Z</time>
      </trkpt>
      <trkpt lat="43.83562" lon="4.19017">
        <ele>237.8</ele>
        <time>2026-05-09T08:39:32.999Z</time>
      </trkpt>
      <trkpt lat="43.83562" lon="4.19015">
        <ele>237.6</ele>
        <time>2026-05-09T08:39:33.999Z</time>
      </trkpt>
      <trkpt lat="43.83561" lon="4.19013">
        <ele>237.3</ele>
        <time>2026-05-09T08:39:34.999Z</time>
      </trkpt>
      <trkpt lat="43.83561" lon="4.19011">
        <ele>237</ele>
        <time>2026-05-09T08:39:35.999Z</time>
      </trkpt>
      <trkpt lat="43.8356" lon="4.1901">
        <ele>236.6</ele>
        <time>2026-05-09T08:39:36.999Z</time>
      </trkpt>
      <trkpt lat="43.8356" lon="4.19009">
        <ele>236.5</ele>
        <time>2026-05-09T08:39:37.999Z</time>
      </trkpt>
      <trkpt lat="43.83559" lon="4.19008">
        <ele>236.2</ele>
        <time>2026-05-09T08:39:38.999Z</time>
      </trkpt>
      <trkpt lat="43.83559" lon="4.19006">
        <ele>236.2</ele>
        <time>2026-05-09T08:39:39.999Z</time>
      </trkpt>
      <trkpt lat="43.83558" lon="4.19005">
        <ele>236.3</ele>
        <time>2026-05-09T08:39:40.999Z</time>
      </trkpt>
      <trkpt lat="43.83558" lon="4.19003">
        <ele>236.6</ele>
        <time>2026-05-09T08:39:41.999Z</time>
      </trkpt>
      <trkpt lat="43.83558" lon="4.19002">
        <ele>236.4</ele>
        <time>2026-05-09T08:39:42.999Z</time>
      </trkpt>
      <trkpt lat="43.83558" lon="4.19001">
        <ele>236.3</ele>
        <time>2026-05-09T08:39:43.999Z</time>
      </trkpt>
      <trkpt lat="43.83558" lon="4.19">
        <ele>236.3</ele>
        <time>2026-05-09T08:39:44.999Z</time>
      </trkpt>
      <trkpt lat="43.83558" lon="4.18998">
        <ele>236</ele>
        <time>2026-05-09T08:39:45.999Z</time>
      </trkpt>
      <trkpt lat="43.83558" lon="4.18996">
        <ele>235.8</ele>
        <time>2026-05-09T08:39:46.999Z</time>
      </trkpt>
      <trkpt lat="43.83558" lon="4.18994">
        <ele>235.7</ele>
        <time>2026-05-09T08:39:47.999Z</time>
      </trkpt>
      <trkpt lat="43.83558" lon="4.18993">
        <ele>235.7</ele>
        <time>2026-05-09T08:39:48.999Z</time>
      </trkpt>
      <trkpt lat="43.83558" lon="4.18991">
        <ele>235.5</ele>
        <time>2026-05-09T08:39:49.999Z</time>
      </trkpt>
      <trkpt lat="43.83557" lon="4.1899">
        <ele>235.4</ele>
        <time>2026-05-09T08:39:50.999Z</time>
      </trkpt>
      <trkpt lat="43.83557" lon="4.18988">
        <ele>235.1</ele>
        <time>2026-05-09T08:39:51.999Z</time>
      </trkpt>
      <trkpt lat="43.83556" lon="4.18987">
        <ele>235.1</ele>
        <time>2026-05-09T08:39:52.999Z</time>
      </trkpt>
      <trkpt lat="43.83556" lon="4.18985">
        <ele>235.3</ele>
        <time>2026-05-09T08:39:53.999Z</time>
      </trkpt>
      <trkpt lat="43.83556" lon="4.18983">
        <ele>235</ele>
        <time>2026-05-09T08:39:54.999Z</time>
      </trkpt>
      <trkpt lat="43.83555" lon="4.18982">
        <ele>235.1</ele>
        <time>2026-05-09T08:39:55.999Z</time>
      </trkpt>
      <trkpt lat="43.83555" lon="4.18981">
        <ele>235.5</ele>
        <time>2026-05-09T08:39:56.999Z</time>
      </trkpt>
      <trkpt lat="43.83555" lon="4.18981">
        <ele>235.5</ele>
        <time>2026-05-09T08:39:57.999Z</time>
      </trkpt>
      <trkpt lat="43.83555" lon="4.1898">
        <ele>235.6</ele>
        <time>2026-05-09T08:39:58.999Z</time>
      </trkpt>
      <trkpt lat="43.83555" lon="4.18979">
        <ele>235.9</ele>
        <time>2026-05-09T08:39:59.999Z</time>
      </trkpt>
      <trkpt lat="43.83555" lon="4.18978">
        <ele>236.1</ele>
        <time>2026-05-09T08:40:00.999Z</time>
      </trkpt>
      <trkpt lat="43.83555" lon="4.18977">
        <ele>235.7</ele>
        <time>2026-05-09T08:40:01.999Z</time>
      </trkpt>
      <trkpt lat="43.83555" lon="4.18976">
        <ele>235.6</ele>
        <time>2026-05-09T08:40:02.999Z</time>
      </trkpt>
      <trkpt lat="43.83555" lon="4.18975">
        <ele>235.3</ele>
        <time>2026-05-09T08:40:03.999Z</time>
      </trkpt>
      <trkpt lat="43.83555" lon="4.18974">
        <ele>234.9</ele>
        <time>2026-05-09T08:40:04.999Z</time>
      </trkpt>
      <trkpt lat="43.83555" lon="4.18973">
        <ele>235</ele>
        <time>2026-05-09T08:40:05.999Z</time>
      </trkpt>
      <trkpt lat="43.83556" lon="4.18971">
        <ele>234.7</ele>
        <time>2026-05-09T08:40:06.999Z</time>
      </trkpt>
      <trkpt lat="43.83556" lon="4.18969">
        <ele>234.4</ele>
        <time>2026-05-09T08:40:07.999Z</time>
      </trkpt>
      <trkpt lat="43.83557" lon="4.18968">
        <ele>234.2</ele>
        <time>2026-05-09T08:40:08.999Z</time>
      </trkpt>
      <trkpt lat="43.83557" lon="4.18967">
        <ele>233.6</ele>
        <time>2026-05-09T08:40:09.999Z</time>
      </trkpt>
      <trkpt lat="43.83557" lon="4.18965">
        <ele>233.2</ele>
        <time>2026-05-09T08:40:10.999Z</time>
      </trkpt>
      <trkpt lat="43.83557" lon="4.18964">
        <ele>233.1</ele>
        <time>2026-05-09T08:40:11.999Z</time>
      </trkpt>
      <trkpt lat="43.83557" lon="4.18961">
        <ele>232.6</ele>
        <time>2026-05-09T08:40:12.999Z</time>
      </trkpt>
      <trkpt lat="43.83558" lon="4.1896">
        <ele>232.4</ele>
        <time>2026-05-09T08:40:13.999Z</time>
      </trkpt>
      <trkpt lat="43.83557" lon="4.18958">
        <ele>232.2</ele>
        <time>2026-05-09T08:40:14.999Z</time>
      </trkpt>
      <trkpt lat="43.83557" lon="4.18957">
        <ele>232</ele>
        <time>2026-05-09T08:40:15.999Z</time>
      </trkpt>
      <trkpt lat="43.83558" lon="4.18955">
        <ele>232</ele>
        <time>2026-05-09T08:40:16.999Z</time>
      </trkpt>
      <trkpt lat="43.83558" lon="4.18954">
        <ele>232</ele>
        <time>2026-05-09T08:40:17.999Z</time>
      </trkpt>
      <trkpt lat="43.83559" lon="4.18953">
        <ele>232.2</ele>
        <time>2026-05-09T08:40:18.999Z</time>
      </trkpt>
      <trkpt lat="43.83559" lon="4.18951">
        <ele>232.3</ele>
        <time>2026-05-09T08:40:19.999Z</time>
      </trkpt>
      <trkpt lat="43.83559" lon="4.1895">
        <ele>232.4</ele>
        <time>2026-05-09T08:40:20.999Z</time>
      </trkpt>
      <trkpt lat="43.83559" lon="4.18949">
        <ele>232.6</ele>
        <time>2026-05-09T08:40:21.999Z</time>
      </trkpt>
      <trkpt lat="43.83559" lon="4.18948">
        <ele>232.9</ele>
        <time>2026-05-09T08:40:22.999Z</time>
      </trkpt>
      <trkpt lat="43.83559" lon="4.18947">
        <ele>233</ele>
        <time>2026-05-09T08:40:23.999Z</time>
      </trkpt>
      <trkpt lat="43.83559" lon="4.18945">
        <ele>233.3</ele>
        <time>2026-05-09T08:40:24.999Z</time>
      </trkpt>
      <trkpt lat="43.83559" lon="4.18944">
        <ele>233.4</ele>
        <time>2026-05-09T08:40:25.999Z</time>
      </trkpt>
      <trkpt lat="43.83558" lon="4.18942">
        <ele>233.8</ele>
        <time>2026-05-09T08:40:26.999Z</time>
      </trkpt>
      <trkpt lat="43.83558" lon="4.18939">
        <ele>233.9</ele>
        <time>2026-05-09T08:40:27.999Z</time>
      </trkpt>
      <trkpt lat="43.83557" lon="4.18937">
        <ele>234</ele>
        <time>2026-05-09T08:40:28.999Z</time>
      </trkpt>
      <trkpt lat="43.83557" lon="4.18935">
        <ele>234</ele>
        <time>2026-05-09T08:40:29.999Z</time>
      </trkpt>
      <trkpt lat="43.83557" lon="4.18933">
        <ele>234.1</ele>
        <time>2026-05-09T08:40:30.999Z</time>
      </trkpt>
      <trkpt lat="43.83557" lon="4.18931">
        <ele>234.3</ele>
        <time>2026-05-09T08:40:31.999Z</time>
      </trkpt>
      <trkpt lat="43.83556" lon="4.18929">
        <ele>234.6</ele>
        <time>2026-05-09T08:40:32.999Z</time>
      </trkpt>
      <trkpt lat="43.83556" lon="4.18928">
        <ele>234.8</ele>
        <time>2026-05-09T08:40:33.999Z</time>
      </trkpt>
      <trkpt lat="43.83556" lon="4.18926">
        <ele>235</ele>
        <time>2026-05-09T08:40:34.999Z</time>
      </trkpt>
      <trkpt lat="43.83556" lon="4.18925">
        <ele>235.1</ele>
        <time>2026-05-09T08:40:35.999Z</time>
      </trkpt>
      <trkpt lat="43.83556" lon="4.18923">
        <ele>235.2</ele>
        <time>2026-05-09T08:40:36.999Z</time>
      </trkpt>
      <trkpt lat="43.83556" lon="4.18922">
        <ele>235.1</ele>
        <time>2026-05-09T08:40:37.999Z</time>
      </trkpt>
      <trkpt lat="43.83556" lon="4.18921">
        <ele>235.3</ele>
        <time>2026-05-09T08:40:38.999Z</time>
      </trkpt>
      <trkpt lat="43.83556" lon="4.18919">
        <ele>235</ele>
        <time>2026-05-09T08:40:39.999Z</time>
      </trkpt>
      <trkpt lat="43.83555" lon="4.18918">
        <ele>234.6</ele>
        <time>2026-05-09T08:40:40.999Z</time>
      </trkpt>
      <trkpt lat="43.83554" lon="4.18916">
        <ele>234.5</ele>
        <time>2026-05-09T08:40:41.999Z</time>
      </trkpt>
      <trkpt lat="43.83554" lon="4.18914">
        <ele>234.8</ele>
        <time>2026-05-09T08:40:42.999Z</time>
      </trkpt>
      <trkpt lat="43.83553" lon="4.18913">
        <ele>235.1</ele>
        <time>2026-05-09T08:40:43.999Z</time>
      </trkpt>
      <trkpt lat="43.83553" lon="4.18911">
        <ele>235.5</ele>
        <time>2026-05-09T08:40:44.999Z</time>
      </trkpt>
      <trkpt lat="43.83553" lon="4.18909">
        <ele>236.2</ele>
        <time>2026-05-09T08:40:45.999Z</time>
      </trkpt>
      <trkpt lat="43.83552" lon="4.18907">
        <ele>236.6</ele>
        <time>2026-05-09T08:40:46.999Z</time>
      </trkpt>
      <trkpt lat="43.83552" lon="4.18905">
        <ele>236.6</ele>
        <time>2026-05-09T08:40:47.999Z</time>
      </trkpt>
      <trkpt lat="43.83552" lon="4.18903">
        <ele>236.7</ele>
        <time>2026-05-09T08:40:48.999Z</time>
      </trkpt>
      <trkpt lat="43.83552" lon="4.18902">
        <ele>236.8</ele>
        <time>2026-05-09T08:40:49.999Z</time>
      </trkpt>
      <trkpt lat="43.83552" lon="4.18901">
        <ele>236.4</ele>
        <time>2026-05-09T08:40:50.999Z</time>
      </trkpt>
      <trkpt lat="43.83552" lon="4.189">
        <ele>236.5</ele>
        <time>2026-05-09T08:40:51.999Z</time>
      </trkpt>
      <trkpt lat="43.83552" lon="4.18898">
        <ele>236.2</ele>
        <time>2026-05-09T08:40:52.999Z</time>
      </trkpt>
      <trkpt lat="43.83552" lon="4.18896">
        <ele>236.3</ele>
        <time>2026-05-09T08:40:53.999Z</time>
      </trkpt>
      <trkpt lat="43.83552" lon="4.18895">
        <ele>236.6</ele>
        <time>2026-05-09T08:40:54.999Z</time>
      </trkpt>
      <trkpt lat="43.83552" lon="4.18894">
        <ele>236.1</ele>
        <time>2026-05-09T08:40:55.999Z</time>
      </trkpt>
      <trkpt lat="43.83551" lon="4.18893">
        <ele>236</ele>
        <time>2026-05-09T08:40:56.999Z</time>
      </trkpt>
      <trkpt lat="43.83551" lon="4.18891">
        <ele>236</ele>
        <time>2026-05-09T08:40:57.999Z</time>
      </trkpt>
      <trkpt lat="43.83551" lon="4.18888">
        <ele>236.3</ele>
        <time>2026-05-09T08:40:58.999Z</time>
      </trkpt>
      <trkpt lat="43.8355" lon="4.18886">
        <ele>236.4</ele>
        <time>2026-05-09T08:40:59.999Z</time>
      </trkpt>
      <trkpt lat="43.8355" lon="4.18884">
        <ele>236.6</ele>
        <time>2026-05-09T08:41:00.999Z</time>
      </trkpt>
      <trkpt lat="43.83549" lon="4.18883">
        <ele>236.7</ele>
        <time>2026-05-09T08:41:01.999Z</time>
      </trkpt>
      <trkpt lat="43.83549" lon="4.18882">
        <ele>236.7</ele>
        <time>2026-05-09T08:41:02.999Z</time>
      </trkpt>
      <trkpt lat="43.83549" lon="4.1888">
        <ele>236.5</ele>
        <time>2026-05-09T08:41:03.999Z</time>
      </trkpt>
      <trkpt lat="43.8355" lon="4.18879">
        <ele>235.9</ele>
        <time>2026-05-09T08:41:04.999Z</time>
      </trkpt>
      <trkpt lat="43.8355" lon="4.18876">
        <ele>235.7</ele>
        <time>2026-05-09T08:41:05.999Z</time>
      </trkpt>
      <trkpt lat="43.83551" lon="4.18874">
        <ele>235.8</ele>
        <time>2026-05-09T08:41:06.999Z</time>
      </trkpt>
      <trkpt lat="43.83551" lon="4.18872">
        <ele>236.1</ele>
        <time>2026-05-09T08:41:07.999Z</time>
      </trkpt>
      <trkpt lat="43.83551" lon="4.18871">
        <ele>236.5</ele>
        <time>2026-05-09T08:41:08.999Z</time>
      </trkpt>
      <trkpt lat="43.83551" lon="4.1887">
        <ele>236.6</ele>
        <time>2026-05-09T08:41:09.999Z</time>
      </trkpt>
      <trkpt lat="43.83551" lon="4.18869">
        <ele>236.7</ele>
        <time>2026-05-09T08:41:10.999Z</time>
      </trkpt>
      <trkpt lat="43.8355" lon="4.18867">
        <ele>236.6</ele>
        <time>2026-05-09T08:41:11.999Z</time>
      </trkpt>
      <trkpt lat="43.8355" lon="4.18865">
        <ele>236.3</ele>
        <time>2026-05-09T08:41:12.999Z</time>
      </trkpt>
      <trkpt lat="43.8355" lon="4.18863">
        <ele>236</ele>
        <time>2026-05-09T08:41:13.999Z</time>
      </trkpt>
      <trkpt lat="43.8355" lon="4.18862">
        <ele>235.8</ele>
        <time>2026-05-09T08:41:14.999Z</time>
      </trkpt>
      <trkpt lat="43.8355" lon="4.18861">
        <ele>236</ele>
        <time>2026-05-09T08:41:15.999Z</time>
      </trkpt>
      <trkpt lat="43.8355" lon="4.1886">
        <ele>235.8</ele>
        <time>2026-05-09T08:41:16.999Z</time>
      </trkpt>
      <trkpt lat="43.8355" lon="4.18858">
        <ele>235.8</ele>
        <time>2026-05-09T08:41:17.999Z</time>
      </trkpt>
      <trkpt lat="43.8355" lon="4.18856">
        <ele>235.7</ele>
        <time>2026-05-09T08:41:18.999Z</time>
      </trkpt>
      <trkpt lat="43.8355" lon="4.18855">
        <ele>235.8</ele>
        <time>2026-05-09T08:41:19.999Z</time>
      </trkpt>
      <trkpt lat="43.83551" lon="4.18854">
        <ele>235.5</ele>
        <time>2026-05-09T08:41:20.999Z</time>
      </trkpt>
      <trkpt lat="43.83551" lon="4.18853">
        <ele>235.4</ele>
        <time>2026-05-09T08:41:21.999Z</time>
      </trkpt>
      <trkpt lat="43.83552" lon="4.18852">
        <ele>235.6</ele>
        <time>2026-05-09T08:41:22.999Z</time>
      </trkpt>
      <trkpt lat="43.83553" lon="4.1885">
        <ele>236.1</ele>
        <time>2026-05-09T08:41:23.999Z</time>
      </trkpt>
      <trkpt lat="43.83554" lon="4.18849">
        <ele>236.5</ele>
        <time>2026-05-09T08:41:24.999Z</time>
      </trkpt>
      <trkpt lat="43.83554" lon="4.18847">
        <ele>236.5</ele>
        <time>2026-05-09T08:41:25.999Z</time>
      </trkpt>
      <trkpt lat="43.83554" lon="4.18845">
        <ele>236.5</ele>
        <time>2026-05-09T08:41:26.999Z</time>
      </trkpt>
      <trkpt lat="43.83555" lon="4.18843">
        <ele>236.5</ele>
        <time>2026-05-09T08:41:27.999Z</time>
      </trkpt>
      <trkpt lat="43.83555" lon="4.18841">
        <ele>236.4</ele>
        <time>2026-05-09T08:41:28.999Z</time>
      </trkpt>
      <trkpt lat="43.83555" lon="4.1884">
        <ele>236.5</ele>
        <time>2026-05-09T08:41:29.999Z</time>
      </trkpt>
      <trkpt lat="43.83555" lon="4.18838">
        <ele>236.5</ele>
        <time>2026-05-09T08:41:30.999Z</time>
      </trkpt>
      <trkpt lat="43.83556" lon="4.18838">
        <ele>236.6</ele>
        <time>2026-05-09T08:41:31.999Z</time>
      </trkpt>
      <trkpt lat="43.83556" lon="4.18837">
        <ele>236.5</ele>
        <time>2026-05-09T08:41:32.999Z</time>
      </trkpt>
      <trkpt lat="43.83557" lon="4.18836">
        <ele>236.6</ele>
        <time>2026-05-09T08:41:33.999Z</time>
      </trkpt>
      <trkpt lat="43.83558" lon="4.18835">
        <ele>236.5</ele>
        <time>2026-05-09T08:41:34.999Z</time>
      </trkpt>
      <trkpt lat="43.83559" lon="4.18834">
        <ele>236.1</ele>
        <time>2026-05-09T08:41:35.999Z</time>
      </trkpt>
      <trkpt lat="43.8356" lon="4.18833">
        <ele>236.1</ele>
        <time>2026-05-09T08:41:36.999Z</time>
      </trkpt>
      <trkpt lat="43.8356" lon="4.18832">
        <ele>235.9</ele>
        <time>2026-05-09T08:41:37.999Z</time>
      </trkpt>
      <trkpt lat="43.83561" lon="4.18831">
        <ele>235.7</ele>
        <time>2026-05-09T08:41:38.999Z</time>
      </trkpt>
      <trkpt lat="43.83562" lon="4.1883">
        <ele>235.4</ele>
        <time>2026-05-09T08:41:39.999Z</time>
      </trkpt>
      <trkpt lat="43.83563" lon="4.18829">
        <ele>235</ele>
        <time>2026-05-09T08:41:40.999Z</time>
      </trkpt>
      <trkpt lat="43.83564" lon="4.18828">
        <ele>234.6</ele>
        <time>2026-05-09T08:41:41.999Z</time>
      </trkpt>
      <trkpt lat="43.83564" lon="4.18828">
        <ele>234.5</ele>
        <time>2026-05-09T08:41:42.999Z</time>
      </trkpt>
      <trkpt lat="43.83565" lon="4.18828">
        <ele>234.2</ele>
        <time>2026-05-09T08:41:43.999Z</time>
      </trkpt>
      <trkpt lat="43.83566" lon="4.18828">
        <ele>233.8</ele>
        <time>2026-05-09T08:41:44.999Z</time>
      </trkpt>
      <trkpt lat="43.83566" lon="4.18828">
        <ele>233.6</ele>
        <time>2026-05-09T08:41:45.999Z</time>
      </trkpt>
      <trkpt lat="43.83567" lon="4.18827">
        <ele>233.5</ele>
        <time>2026-05-09T08:41:46.999Z</time>
      </trkpt>
      <trkpt lat="43.83568" lon="4.18828">
        <ele>233.4</ele>
        <time>2026-05-09T08:41:47.999Z</time>
      </trkpt>
      <trkpt lat="43.83568" lon="4.18828">
        <ele>233.3</ele>
        <time>2026-05-09T08:41:48.999Z</time>
      </trkpt>
      <trkpt lat="43.83569" lon="4.18827">
        <ele>233.2</ele>
        <time>2026-05-09T08:41:49.999Z</time>
      </trkpt>
      <trkpt lat="43.83569" lon="4.18828">
        <ele>233.3</ele>
        <time>2026-05-09T08:41:50.999Z</time>
      </trkpt>
      <trkpt lat="43.8357" lon="4.18827">
        <ele>233.1</ele>
        <time>2026-05-09T08:41:51.999Z</time>
      </trkpt>
      <trkpt lat="43.8357" lon="4.18827">
        <ele>233.1</ele>
        <time>2026-05-09T08:41:52.999Z</time>
      </trkpt>
      <trkpt lat="43.8357" lon="4.18826">
        <ele>233.9</ele>
        <time>2026-05-09T08:41:53.999Z</time>
      </trkpt>
      <trkpt lat="43.8357" lon="4.18826">
        <ele>234</ele>
        <time>2026-05-09T08:41:54.999Z</time>
      </trkpt>
      <trkpt lat="43.8357" lon="4.18826">
        <ele>233.9</ele>
        <time>2026-05-09T08:41:55.999Z</time>
      </trkpt>
      <trkpt lat="43.8357" lon="4.18826">
        <ele>233.8</ele>
        <time>2026-05-09T08:41:56.999Z</time>
      </trkpt>
      <trkpt lat="43.8357" lon="4.18826">
        <ele>233.8</ele>
        <time>2026-05-09T08:41:57.999Z</time>
      </trkpt>
      <trkpt lat="43.8357" lon="4.18826">
        <ele>233.7</ele>
        <time>2026-05-09T08:41:58.999Z</time>
      </trkpt>
      <trkpt lat="43.8357" lon="4.18826">
        <ele>233.6</ele>
        <time>2026-05-09T08:41:59.999Z</time>
      </trkpt>
      <trkpt lat="43.8357" lon="4.18826">
        <ele>233.6</ele>
        <time>2026-05-09T08:42:00.999Z</time>
      </trkpt>
      <trkpt lat="43.8357" lon="4.18826">
        <ele>233.4</ele>
        <time>2026-05-09T08:42:01.999Z</time>
      </trkpt>
      <trkpt lat="43.8357" lon="4.18826">
        <ele>233.2</ele>
        <time>2026-05-09T08:42:02.999Z</time>
      </trkpt>
      <trkpt lat="43.8357" lon="4.18826">
        <ele>233</ele>
        <time>2026-05-09T08:42:03.999Z</time>
      </trkpt>
      <trkpt lat="43.8357" lon="4.18826">
        <ele>232.9</ele>
        <time>2026-05-09T08:42:04.999Z</time>
      </trkpt>
      <trkpt lat="43.8357" lon="4.18826">
        <ele>233</ele>
        <time>2026-05-09T08:42:05.999Z</time>
      </trkpt>
      <trkpt lat="43.8357" lon="4.18826">
        <ele>232.9</ele>
        <time>2026-05-09T08:42:06.999Z</time>
      </trkpt>
      <trkpt lat="43.8357" lon="4.18826">
        <ele>232.8</ele>
        <time>2026-05-09T08:42:07.999Z</time>
      </trkpt>
      <trkpt lat="43.8357" lon="4.18826">
        <ele>232.7</ele>
        <time>2026-05-09T08:42:08.999Z</time>
      </trkpt>
      <trkpt lat="43.8357" lon="4.18826">
        <ele>232.7</ele>
        <time>2026-05-09T08:42:09.999Z</time>
      </trkpt>
      <trkpt lat="43.8357" lon="4.18826">
        <ele>232.7</ele>
        <time>2026-05-09T08:42:10.999Z</time>
      </trkpt>
      <trkpt lat="43.83569" lon="4.18826">
        <ele>232.8</ele>
        <time>2026-05-09T08:42:11.999Z</time>
      </trkpt>
      <trkpt lat="43.83569" lon="4.18825">
        <ele>232.7</ele>
        <time>2026-05-09T08:42:12.999Z</time>
      </trkpt>
      <trkpt lat="43.83569" lon="4.18824">
        <ele>232.8</ele>
        <time>2026-05-09T08:42:13.999Z</time>
      </trkpt>
      <trkpt lat="43.83568" lon="4.18824">
        <ele>233.1</ele>
        <time>2026-05-09T08:42:14.999Z</time>
      </trkpt>
      <trkpt lat="43.83568" lon="4.18824">
        <ele>233.3</ele>
        <time>2026-05-09T08:42:15.999Z</time>
      </trkpt>
      <trkpt lat="43.83568" lon="4.18824">
        <ele>233.3</ele>
        <time>2026-05-09T08:42:16.999Z</time>
      </trkpt>
      <trkpt lat="43.83568" lon="4.18824">
        <ele>233.4</ele>
        <time>2026-05-09T08:42:17.999Z</time>
      </trkpt>
      <trkpt lat="43.83568" lon="4.18824">
        <ele>233.2</ele>
        <time>2026-05-09T08:42:18.999Z</time>
      </trkpt>
      <trkpt lat="43.83568" lon="4.18824">
        <ele>233.3</ele>
        <time>2026-05-09T08:42:19.999Z</time>
      </trkpt>
      <trkpt lat="43.83568" lon="4.18824">
        <ele>233.3</ele>
        <time>2026-05-09T08:42:20.999Z</time>
      </trkpt>
      <trkpt lat="43.83568" lon="4.18824">
        <ele>233.6</ele>
        <time>2026-05-09T08:42:21.999Z</time>
      </trkpt>
      <trkpt lat="43.83568" lon="4.18824">
        <ele>233.7</ele>
        <time>2026-05-09T08:42:22.999Z</time>
      </trkpt>
      <trkpt lat="43.83568" lon="4.18824">
        <ele>233.6</ele>
        <time>2026-05-09T08:42:23.999Z</time>
      </trkpt>
      <trkpt lat="43.83568" lon="4.18824">
        <ele>233.8</ele>
        <time>2026-05-09T08:42:24.999Z</time>
      </trkpt>
      <trkpt lat="43.83568" lon="4.18824">
        <ele>234</ele>
        <time>2026-05-09T08:42:25.999Z</time>
      </trkpt>
      <trkpt lat="43.83568" lon="4.18824">
        <ele>234</ele>
        <time>2026-05-09T08:42:26.999Z</time>
      </trkpt>
      <trkpt lat="43.83568" lon="4.18824">
        <ele>233.9</ele>
        <time>2026-05-09T08:42:27.999Z</time>
      </trkpt>
      <trkpt lat="43.83568" lon="4.18824">
        <ele>233.9</ele>
        <time>2026-05-09T08:42:28.999Z</time>
      </trkpt>
      <trkpt lat="43.83568" lon="4.18824">
        <ele>233.6</ele>
        <time>2026-05-09T08:42:29.999Z</time>
      </trkpt>
      <trkpt lat="43.83569" lon="4.18824">
        <ele>233.5</ele>
        <time>2026-05-09T08:42:30.999Z</time>
      </trkpt>
      <trkpt lat="43.83569" lon="4.18824">
        <ele>233.3</ele>
        <time>2026-05-09T08:42:31.999Z</time>
      </trkpt>
      <trkpt lat="43.83569" lon="4.18824">
        <ele>233.1</ele>
        <time>2026-05-09T08:42:32.999Z</time>
      </trkpt>
      <trkpt lat="43.83569" lon="4.18824">
        <ele>233.1</ele>
        <time>2026-05-09T08:42:33.999Z</time>
      </trkpt>
      <trkpt lat="43.83569" lon="4.18824">
        <ele>233.3</ele>
        <time>2026-05-09T08:42:34.999Z</time>
      </trkpt>
      <trkpt lat="43.83569" lon="4.18824">
        <ele>233.4</ele>
        <time>2026-05-09T08:42:35.999Z</time>
      </trkpt>
      <trkpt lat="43.83569" lon="4.18824">
        <ele>233.4</ele>
        <time>2026-05-09T08:42:36.999Z</time>
      </trkpt>
      <trkpt lat="43.83569" lon="4.18824">
        <ele>233.4</ele>
        <time>2026-05-09T08:42:37.999Z</time>
      </trkpt>
      <trkpt lat="43.83569" lon="4.18824">
        <ele>233.6</ele>
        <time>2026-05-09T08:42:38.999Z</time>
      </trkpt>
      <trkpt lat="43.83569" lon="4.18824">
        <ele>233.9</ele>
        <time>2026-05-09T08:42:39.999Z</time>
      </trkpt>
      <trkpt lat="43.83569" lon="4.18824">
        <ele>234.1</ele>
        <time>2026-05-09T08:42:40.999Z</time>
      </trkpt>
      <trkpt lat="43.83569" lon="4.18824">
        <ele>234</ele>
        <time>2026-05-09T08:42:41.999Z</time>
      </trkpt>
      <trkpt lat="43.83569" lon="4.18824">
        <ele>234.1</ele>
        <time>2026-05-09T08:42:42.999Z</time>
      </trkpt>
      <trkpt lat="43.83569" lon="4.18824">
        <ele>234.2</ele>
        <time>2026-05-09T08:42:43.999Z</time>
      </trkpt>
      <trkpt lat="43.83569" lon="4.18824">
        <ele>234.2</ele>
        <time>2026-05-09T08:42:44.999Z</time>
      </trkpt>
      <trkpt lat="43.83569" lon="4.18824">
        <ele>234.2</ele>
        <time>2026-05-09T08:42:45.999Z</time>
      </trkpt>
      <trkpt lat="43.83569" lon="4.18824">
        <ele>234.3</ele>
        <time>2026-05-09T08:42:46.999Z</time>
      </trkpt>
      <trkpt lat="43.83569" lon="4.18824">
        <ele>234.3</ele>
        <time>2026-05-09T08:42:47.999Z</time>
      </trkpt>
      <trkpt lat="43.83569" lon="4.18824">
        <ele>234.3</ele>
        <time>2026-05-09T08:42:48.999Z</time>
      </trkpt>
      <trkpt lat="43.83569" lon="4.18824">
        <ele>234.2</ele>
        <time>2026-05-09T08:42:49.999Z</time>
      </trkpt>
      <trkpt lat="43.83569" lon="4.18824">
        <ele>234.2</ele>
        <time>2026-05-09T08:42:50.999Z</time>
      </trkpt>
      <trkpt lat="43.83569" lon="4.18824">
        <ele>234.2</ele>
        <time>2026-05-09T08:42:51.999Z</time>
      </trkpt>
      <trkpt lat="43.83569" lon="4.18824">
        <ele>234.1</ele>
        <time>2026-05-09T08:42:52.999Z</time>
      </trkpt>
      <trkpt lat="43.83569" lon="4.18824">
        <ele>234.3</ele>
        <time>2026-05-09T08:42:53.999Z</time>
      </trkpt>
      <trkpt lat="43.83569" lon="4.18824">
        <ele>234.2</ele>
        <time>2026-05-09T08:42:54.999Z</time>
      </trkpt>
      <trkpt lat="43.8357" lon="4.18823">
        <ele>234.2</ele>
        <time>2026-05-09T08:42:55.999Z</time>
      </trkpt>
      <trkpt lat="43.8357" lon="4.18823">
        <ele>234.1</ele>
        <time>2026-05-09T08:42:56.999Z</time>
      </trkpt>
      <trkpt lat="43.83571" lon="4.18822">
        <ele>234</ele>
        <time>2026-05-09T08:42:57.999Z</time>
      </trkpt>
      <trkpt lat="43.83571" lon="4.18822">
        <ele>233.9</ele>
        <time>2026-05-09T08:42:58.999Z</time>
      </trkpt>
      <trkpt lat="43.83571" lon="4.18822">
        <ele>234</ele>
        <time>2026-05-09T08:42:59.999Z</time>
      </trkpt>
      <trkpt lat="43.83571" lon="4.18822">
        <ele>234.2</ele>
        <time>2026-05-09T08:43:00.999Z</time>
      </trkpt>
      <trkpt lat="43.83571" lon="4.18822">
        <ele>234.5</ele>
        <time>2026-05-09T08:43:01.999Z</time>
      </trkpt>
      <trkpt lat="43.83571" lon="4.18821">
        <ele>234.7</ele>
        <time>2026-05-09T08:43:02.999Z</time>
      </trkpt>
      <trkpt lat="43.83571" lon="4.18821">
        <ele>234.7</ele>
        <time>2026-05-09T08:43:03.999Z</time>
      </trkpt>
      <trkpt lat="43.83571" lon="4.18821">
        <ele>234.7</ele>
        <time>2026-05-09T08:43:04.999Z</time>
      </trkpt>
      <trkpt lat="43.83571" lon="4.18821">
        <ele>234.7</ele>
        <time>2026-05-09T08:43:05.999Z</time>
      </trkpt>
      <trkpt lat="43.83571" lon="4.18821">
        <ele>234.6</ele>
        <time>2026-05-09T08:43:06.999Z</time>
      </trkpt>
      <trkpt lat="43.83571" lon="4.1882">
        <ele>234.8</ele>
        <time>2026-05-09T08:43:07.999Z</time>
      </trkpt>
      <trkpt lat="43.83571" lon="4.1882">
        <ele>234.7</ele>
        <time>2026-05-09T08:43:08.999Z</time>
      </trkpt>
      <trkpt lat="43.83571" lon="4.1882">
        <ele>234.5</ele>
        <time>2026-05-09T08:43:09.999Z</time>
      </trkpt>
      <trkpt lat="43.83571" lon="4.1882">
        <ele>234.3</ele>
        <time>2026-05-09T08:43:10.999Z</time>
      </trkpt>
      <trkpt lat="43.83571" lon="4.18819">
        <ele>234.3</ele>
        <time>2026-05-09T08:43:11.999Z</time>
      </trkpt>
      <trkpt lat="43.83571" lon="4.18819">
        <ele>234.3</ele>
        <time>2026-05-09T08:43:12.999Z</time>
      </trkpt>
      <trkpt lat="43.8357" lon="4.18817">
        <ele>234.1</ele>
        <time>2026-05-09T08:43:13.999Z</time>
      </trkpt>
      <trkpt lat="43.83569" lon="4.18816">
        <ele>234</ele>
        <time>2026-05-09T08:43:14.999Z</time>
      </trkpt>
      <trkpt lat="43.83569" lon="4.18815">
        <ele>234</ele>
        <time>2026-05-09T08:43:15.999Z</time>
      </trkpt>
      <trkpt lat="43.83568" lon="4.18813">
        <ele>234.1</ele>
        <time>2026-05-09T08:43:16.999Z</time>
      </trkpt>
      <trkpt lat="43.83567" lon="4.18811">
        <ele>233.9</ele>
        <time>2026-05-09T08:43:17.999Z</time>
      </trkpt>
      <trkpt lat="43.83567" lon="4.18808">
        <ele>233.7</ele>
        <time>2026-05-09T08:43:18.999Z</time>
      </trkpt>
      <trkpt lat="43.83566" lon="4.18807">
        <ele>233.6</ele>
        <time>2026-05-09T08:43:19.999Z</time>
      </trkpt>
      <trkpt lat="43.83565" lon="4.18804">
        <ele>233.5</ele>
        <time>2026-05-09T08:43:20.999Z</time>
      </trkpt>
      <trkpt lat="43.83565" lon="4.18802">
        <ele>233.6</ele>
        <time>2026-05-09T08:43:21.999Z</time>
      </trkpt>
      <trkpt lat="43.83564" lon="4.188">
        <ele>233.3</ele>
        <time>2026-05-09T08:43:22.999Z</time>
      </trkpt>
      <trkpt lat="43.83564" lon="4.18798">
        <ele>233.3</ele>
        <time>2026-05-09T08:43:23.999Z</time>
      </trkpt>
      <trkpt lat="43.83565" lon="4.18796">
        <ele>233.2</ele>
        <time>2026-05-09T08:43:24.999Z</time>
      </trkpt>
      <trkpt lat="43.83565" lon="4.18794">
        <ele>233.1</ele>
        <time>2026-05-09T08:43:25.999Z</time>
      </trkpt>
      <trkpt lat="43.83564" lon="4.18793">
        <ele>232.9</ele>
        <time>2026-05-09T08:43:26.999Z</time>
      </trkpt>
      <trkpt lat="43.83564" lon="4.18792">
        <ele>232.8</ele>
        <time>2026-05-09T08:43:27.999Z</time>
      </trkpt>
      <trkpt lat="43.83564" lon="4.18791">
        <ele>232.9</ele>
        <time>2026-05-09T08:43:28.999Z</time>
      </trkpt>
      <trkpt lat="43.83564" lon="4.18791">
        <ele>233</ele>
        <time>2026-05-09T08:43:29.999Z</time>
      </trkpt>
      <trkpt lat="43.83564" lon="4.1879">
        <ele>233</ele>
        <time>2026-05-09T08:43:30.999Z</time>
      </trkpt>
      <trkpt lat="43.83565" lon="4.18789">
        <ele>233.6</ele>
        <time>2026-05-09T08:43:31.999Z</time>
      </trkpt>
      <trkpt lat="43.83565" lon="4.18789">
        <ele>233.8</ele>
        <time>2026-05-09T08:43:32.999Z</time>
      </trkpt>
      <trkpt lat="43.83564" lon="4.18789">
        <ele>233.8</ele>
        <time>2026-05-09T08:43:33.999Z</time>
      </trkpt>
      <trkpt lat="43.83564" lon="4.18789">
        <ele>234</ele>
        <time>2026-05-09T08:43:34.999Z</time>
      </trkpt>
      <trkpt lat="43.83564" lon="4.18789">
        <ele>234.1</ele>
        <time>2026-05-09T08:43:35.999Z</time>
      </trkpt>
      <trkpt lat="43.83565" lon="4.18788">
        <ele>234.1</ele>
        <time>2026-05-09T08:43:36.999Z</time>
      </trkpt>
      <trkpt lat="43.83565" lon="4.18788">
        <ele>234.2</ele>
        <time>2026-05-09T08:43:37.999Z</time>
      </trkpt>
      <trkpt lat="43.83565" lon="4.18788">
        <ele>234.3</ele>
        <time>2026-05-09T08:43:38.999Z</time>
      </trkpt>
      <trkpt lat="43.83565" lon="4.18788">
        <ele>234.4</ele>
        <time>2026-05-09T08:43:39.999Z</time>
      </trkpt>
      <trkpt lat="43.83565" lon="4.18788">
        <ele>234.4</ele>
        <time>2026-05-09T08:43:40.999Z</time>
      </trkpt>
      <trkpt lat="43.83565" lon="4.18788">
        <ele>234.4</ele>
        <time>2026-05-09T08:43:41.999Z</time>
      </trkpt>
      <trkpt lat="43.83565" lon="4.18787">
        <ele>234.4</ele>
        <time>2026-05-09T08:43:42.999Z</time>
      </trkpt>
      <trkpt lat="43.83565" lon="4.18787">
        <ele>234.3</ele>
        <time>2026-05-09T08:43:43.999Z</time>
      </trkpt>
      <trkpt lat="43.83565" lon="4.18787">
        <ele>234.2</ele>
        <time>2026-05-09T08:43:44.999Z</time>
      </trkpt>
      <trkpt lat="43.83566" lon="4.18787">
        <ele>234.3</ele>
        <time>2026-05-09T08:43:45.999Z</time>
      </trkpt>
      <trkpt lat="43.83566" lon="4.18787">
        <ele>234.2</ele>
        <time>2026-05-09T08:43:46.999Z</time>
      </trkpt>
      <trkpt lat="43.83566" lon="4.18786">
        <ele>233.8</ele>
        <time>2026-05-09T08:43:47.999Z</time>
      </trkpt>
      <trkpt lat="43.83566" lon="4.18786">
        <ele>233.5</ele>
        <time>2026-05-09T08:43:48.999Z</time>
      </trkpt>
      <trkpt lat="43.83566" lon="4.18786">
        <ele>233.4</ele>
        <time>2026-05-09T08:43:49.999Z</time>
      </trkpt>
      <trkpt lat="43.83566" lon="4.18786">
        <ele>233.3</ele>
        <time>2026-05-09T08:43:50.999Z</time>
      </trkpt>
      <trkpt lat="43.83566" lon="4.18786">
        <ele>233.2</ele>
        <time>2026-05-09T08:43:51.999Z</time>
      </trkpt>
      <trkpt lat="43.83567" lon="4.18784">
        <ele>233.2</ele>
        <time>2026-05-09T08:43:52.999Z</time>
      </trkpt>
      <trkpt lat="43.83568" lon="4.18782">
        <ele>232.8</ele>
        <time>2026-05-09T08:43:53.999Z</time>
      </trkpt>
      <trkpt lat="43.83568" lon="4.18781">
        <ele>232.5</ele>
        <time>2026-05-09T08:43:54.999Z</time>
      </trkpt>
      <trkpt lat="43.8357" lon="4.18778">
        <ele>232.6</ele>
        <time>2026-05-09T08:43:55.999Z</time>
      </trkpt>
      <trkpt lat="43.83571" lon="4.18776">
        <ele>232.4</ele>
        <time>2026-05-09T08:43:56.999Z</time>
      </trkpt>
      <trkpt lat="43.83571" lon="4.18774">
        <ele>232.4</ele>
        <time>2026-05-09T08:43:57.999Z</time>
      </trkpt>
      <trkpt lat="43.83571" lon="4.18773">
        <ele>232.4</ele>
        <time>2026-05-09T08:43:58.999Z</time>
      </trkpt>
      <trkpt lat="43.83571" lon="4.18771">
        <ele>232.5</ele>
        <time>2026-05-09T08:43:59.999Z</time>
      </trkpt>
      <trkpt lat="43.83571" lon="4.1877">
        <ele>232.4</ele>
        <time>2026-05-09T08:44:00.999Z</time>
      </trkpt>
      <trkpt lat="43.8357" lon="4.1877">
        <ele>232.2</ele>
        <time>2026-05-09T08:44:01.999Z</time>
      </trkpt>
      <trkpt lat="43.8357" lon="4.1877">
        <ele>232</ele>
        <time>2026-05-09T08:44:02.999Z</time>
      </trkpt>
      <trkpt lat="43.8357" lon="4.18769">
        <ele>231.8</ele>
        <time>2026-05-09T08:44:03.999Z</time>
      </trkpt>
      <trkpt lat="43.83569" lon="4.18769">
        <ele>231.6</ele>
        <time>2026-05-09T08:44:04.999Z</time>
      </trkpt>
      <trkpt lat="43.83568" lon="4.18768">
        <ele>231.3</ele>
        <time>2026-05-09T08:44:05.999Z</time>
      </trkpt>
      <trkpt lat="43.83568" lon="4.18767">
        <ele>231.2</ele>
        <time>2026-05-09T08:44:06.999Z</time>
      </trkpt>
      <trkpt lat="43.83568" lon="4.18766">
        <ele>231.1</ele>
        <time>2026-05-09T08:44:07.999Z</time>
      </trkpt>
      <trkpt lat="43.83568" lon="4.18765">
        <ele>231.2</ele>
        <time>2026-05-09T08:44:08.999Z</time>
      </trkpt>
      <trkpt lat="43.83567" lon="4.18764">
        <ele>231.2</ele>
        <time>2026-05-09T08:44:09.999Z</time>
      </trkpt>
      <trkpt lat="43.83567" lon="4.18763">
        <ele>231.5</ele>
        <time>2026-05-09T08:44:10.999Z</time>
      </trkpt>
      <trkpt lat="43.83567" lon="4.18762">
        <ele>231.8</ele>
        <time>2026-05-09T08:44:11.999Z</time>
      </trkpt>
      <trkpt lat="43.83567" lon="4.1876">
        <ele>231.9</ele>
        <time>2026-05-09T08:44:12.999Z</time>
      </trkpt>
      <trkpt lat="43.83567" lon="4.18758">
        <ele>232.1</ele>
        <time>2026-05-09T08:44:13.999Z</time>
      </trkpt>
      <trkpt lat="43.83568" lon="4.18758">
        <ele>232.3</ele>
        <time>2026-05-09T08:44:14.999Z</time>
      </trkpt>
      <trkpt lat="43.83568" lon="4.18757">
        <ele>232.6</ele>
        <time>2026-05-09T08:44:15.999Z</time>
      </trkpt>
      <trkpt lat="43.83568" lon="4.18757">
        <ele>232.8</ele>
        <time>2026-05-09T08:44:16.999Z</time>
      </trkpt>
      <trkpt lat="43.83568" lon="4.18757">
        <ele>233</ele>
        <time>2026-05-09T08:44:17.999Z</time>
      </trkpt>
      <trkpt lat="43.83568" lon="4.18757">
        <ele>232.8</ele>
        <time>2026-05-09T08:44:18.999Z</time>
      </trkpt>
      <trkpt lat="43.83568" lon="4.18756">
        <ele>232.8</ele>
        <time>2026-05-09T08:44:19.999Z</time>
      </trkpt>
      <trkpt lat="43.83568" lon="4.18756">
        <ele>232.9</ele>
        <time>2026-05-09T08:44:20.999Z</time>
      </trkpt>
      <trkpt lat="43.83568" lon="4.18756">
        <ele>232.7</ele>
        <time>2026-05-09T08:44:21.999Z</time>
      </trkpt>
      <trkpt lat="43.83568" lon="4.18756">
        <ele>232.5</ele>
        <time>2026-05-09T08:44:22.999Z</time>
      </trkpt>
      <trkpt lat="43.83568" lon="4.18756">
        <ele>232.5</ele>
        <time>2026-05-09T08:44:23.999Z</time>
      </trkpt>
      <trkpt lat="43.83568" lon="4.18755">
        <ele>232.4</ele>
        <time>2026-05-09T08:44:24.999Z</time>
      </trkpt>
      <trkpt lat="43.83568" lon="4.18755">
        <ele>232.2</ele>
        <time>2026-05-09T08:44:25.999Z</time>
      </trkpt>
      <trkpt lat="43.83568" lon="4.18754">
        <ele>232.2</ele>
        <time>2026-05-09T08:44:26.999Z</time>
      </trkpt>
      <trkpt lat="43.83568" lon="4.18754">
        <ele>232.1</ele>
        <time>2026-05-09T08:44:27.999Z</time>
      </trkpt>
      <trkpt lat="43.83568" lon="4.18754">
        <ele>232</ele>
        <time>2026-05-09T08:44:28.999Z</time>
      </trkpt>
      <trkpt lat="43.83568" lon="4.18754">
        <ele>232.1</ele>
        <time>2026-05-09T08:44:29.999Z</time>
      </trkpt>
      <trkpt lat="43.83568" lon="4.18753">
        <ele>232.2</ele>
        <time>2026-05-09T08:44:30.999Z</time>
      </trkpt>
      <trkpt lat="43.83568" lon="4.18753">
        <ele>232.1</ele>
        <time>2026-05-09T08:44:31.999Z</time>
      </trkpt>
      <trkpt lat="43.83568" lon="4.18752">
        <ele>232.2</ele>
        <time>2026-05-09T08:44:32.999Z</time>
      </trkpt>
      <trkpt lat="43.83568" lon="4.18751">
        <ele>231.9</ele>
        <time>2026-05-09T08:44:33.999Z</time>
      </trkpt>
      <trkpt lat="43.83568" lon="4.18751">
        <ele>231.9</ele>
        <time>2026-05-09T08:44:34.999Z</time>
      </trkpt>
      <trkpt lat="43.83568" lon="4.1875">
        <ele>231.7</ele>
        <time>2026-05-09T08:44:35.999Z</time>
      </trkpt>
      <trkpt lat="43.83568" lon="4.18749">
        <ele>231.5</ele>
        <time>2026-05-09T08:44:36.999Z</time>
      </trkpt>
      <trkpt lat="43.83568" lon="4.18745">
        <ele>231.2</ele>
        <time>2026-05-09T08:44:37.999Z</time>
      </trkpt>
      <trkpt lat="43.83569" lon="4.18741">
        <ele>231</ele>
        <time>2026-05-09T08:44:38.999Z</time>
      </trkpt>
      <trkpt lat="43.83569" lon="4.18738">
        <ele>230.9</ele>
        <time>2026-05-09T08:44:39.999Z</time>
      </trkpt>
      <trkpt lat="43.83568" lon="4.18735">
        <ele>230.7</ele>
        <time>2026-05-09T08:44:40.999Z</time>
      </trkpt>
      <trkpt lat="43.83568" lon="4.18733">
        <ele>230.5</ele>
        <time>2026-05-09T08:44:41.999Z</time>
      </trkpt>
      <trkpt lat="43.83568" lon="4.18731">
        <ele>230.5</ele>
        <time>2026-05-09T08:44:42.999Z</time>
      </trkpt>
      <trkpt lat="43.83567" lon="4.18728">
        <ele>230.5</ele>
        <time>2026-05-09T08:44:43.999Z</time>
      </trkpt>
      <trkpt lat="43.83567" lon="4.18726">
        <ele>230.5</ele>
        <time>2026-05-09T08:44:44.999Z</time>
      </trkpt>
      <trkpt lat="43.83567" lon="4.18724">
        <ele>230.4</ele>
        <time>2026-05-09T08:44:45.999Z</time>
      </trkpt>
      <trkpt lat="43.83567" lon="4.18723">
        <ele>230.5</ele>
        <time>2026-05-09T08:44:46.999Z</time>
      </trkpt>
      <trkpt lat="43.83567" lon="4.18723">
        <ele>230.4</ele>
        <time>2026-05-09T08:44:47.999Z</time>
      </trkpt>
      <trkpt lat="43.83567" lon="4.18723">
        <ele>230.8</ele>
        <time>2026-05-09T08:44:48.999Z</time>
      </trkpt>
      <trkpt lat="43.83566" lon="4.18722">
        <ele>231</ele>
        <time>2026-05-09T08:44:49.999Z</time>
      </trkpt>
      <trkpt lat="43.83566" lon="4.18722">
        <ele>231.1</ele>
        <time>2026-05-09T08:44:50.999Z</time>
      </trkpt>
      <trkpt lat="43.83566" lon="4.18721">
        <ele>231.1</ele>
        <time>2026-05-09T08:44:51.999Z</time>
      </trkpt>
      <trkpt lat="43.83565" lon="4.18719">
        <ele>231.1</ele>
        <time>2026-05-09T08:44:52.999Z</time>
      </trkpt>
      <trkpt lat="43.83564" lon="4.18717">
        <ele>231.1</ele>
        <time>2026-05-09T08:44:53.999Z</time>
      </trkpt>
      <trkpt lat="43.83563" lon="4.18715">
        <ele>231</ele>
        <time>2026-05-09T08:44:54.999Z</time>
      </trkpt>
      <trkpt lat="43.83562" lon="4.18715">
        <ele>231</ele>
        <time>2026-05-09T08:44:55.999Z</time>
      </trkpt>
      <trkpt lat="43.83562" lon="4.18713">
        <ele>231.3</ele>
        <time>2026-05-09T08:44:56.999Z</time>
      </trkpt>
      <trkpt lat="43.83561" lon="4.18711">
        <ele>231.4</ele>
        <time>2026-05-09T08:44:57.999Z</time>
      </trkpt>
      <trkpt lat="43.83561" lon="4.1871">
        <ele>231.2</ele>
        <time>2026-05-09T08:44:58.999Z</time>
      </trkpt>
      <trkpt lat="43.83561" lon="4.18708">
        <ele>231.3</ele>
        <time>2026-05-09T08:44:59.999Z</time>
      </trkpt>
      <trkpt lat="43.83561" lon="4.18706">
        <ele>231.1</ele>
        <time>2026-05-09T08:45:00.999Z</time>
      </trkpt>
      <trkpt lat="43.83559" lon="4.18705">
        <ele>231.2</ele>
        <time>2026-05-09T08:45:01.999Z</time>
      </trkpt>
      <trkpt lat="43.83558" lon="4.18704">
        <ele>231.4</ele>
        <time>2026-05-09T08:45:02.999Z</time>
      </trkpt>
      <trkpt lat="43.83557" lon="4.18702">
        <ele>231.4</ele>
        <time>2026-05-09T08:45:03.999Z</time>
      </trkpt>
      <trkpt lat="43.83556" lon="4.18701">
        <ele>231.7</ele>
        <time>2026-05-09T08:45:04.999Z</time>
      </trkpt>
      <trkpt lat="43.83555" lon="4.187">
        <ele>232</ele>
        <time>2026-05-09T08:45:05.999Z</time>
      </trkpt>
      <trkpt lat="43.83555" lon="4.18699">
        <ele>231.9</ele>
        <time>2026-05-09T08:45:06.999Z</time>
      </trkpt>
      <trkpt lat="43.83554" lon="4.18698">
        <ele>231.5</ele>
        <time>2026-05-09T08:45:07.999Z</time>
      </trkpt>
      <trkpt lat="43.83554" lon="4.18696">
        <ele>231.5</ele>
        <time>2026-05-09T08:45:08.999Z</time>
      </trkpt>
      <trkpt lat="43.83553" lon="4.18693">
        <ele>231.5</ele>
        <time>2026-05-09T08:45:09.999Z</time>
      </trkpt>
      <trkpt lat="43.83553" lon="4.18692">
        <ele>231.7</ele>
        <time>2026-05-09T08:45:10.999Z</time>
      </trkpt>
      <trkpt lat="43.83553" lon="4.18691">
        <ele>232.2</ele>
        <time>2026-05-09T08:45:11.999Z</time>
      </trkpt>
      <trkpt lat="43.83553" lon="4.1869">
        <ele>232.5</ele>
        <time>2026-05-09T08:45:12.999Z</time>
      </trkpt>
      <trkpt lat="43.83554" lon="4.18689">
        <ele>232.4</ele>
        <time>2026-05-09T08:45:13.999Z</time>
      </trkpt>
      <trkpt lat="43.83554" lon="4.18688">
        <ele>232.3</ele>
        <time>2026-05-09T08:45:14.999Z</time>
      </trkpt>
      <trkpt lat="43.83555" lon="4.18687">
        <ele>232.2</ele>
        <time>2026-05-09T08:45:15.999Z</time>
      </trkpt>
      <trkpt lat="43.83555" lon="4.18687">
        <ele>232.3</ele>
        <time>2026-05-09T08:45:16.999Z</time>
      </trkpt>
      <trkpt lat="43.83556" lon="4.18687">
        <ele>232.3</ele>
        <time>2026-05-09T08:45:17.999Z</time>
      </trkpt>
      <trkpt lat="43.83557" lon="4.18687">
        <ele>232.2</ele>
        <time>2026-05-09T08:45:18.999Z</time>
      </trkpt>
      <trkpt lat="43.83558" lon="4.18687">
        <ele>231.9</ele>
        <time>2026-05-09T08:45:19.999Z</time>
      </trkpt>
      <trkpt lat="43.83558" lon="4.18687">
        <ele>231.7</ele>
        <time>2026-05-09T08:45:20.999Z</time>
      </trkpt>
      <trkpt lat="43.83559" lon="4.18687">
        <ele>231.4</ele>
        <time>2026-05-09T08:45:21.999Z</time>
      </trkpt>
      <trkpt lat="43.8356" lon="4.18687">
        <ele>231</ele>
        <time>2026-05-09T08:45:22.999Z</time>
      </trkpt>
      <trkpt lat="43.8356" lon="4.18686">
        <ele>231</ele>
        <time>2026-05-09T08:45:23.999Z</time>
      </trkpt>
      <trkpt lat="43.8356" lon="4.18685">
        <ele>230.9</ele>
        <time>2026-05-09T08:45:24.999Z</time>
      </trkpt>
      <trkpt lat="43.8356" lon="4.18685">
        <ele>230.8</ele>
        <time>2026-05-09T08:45:25.999Z</time>
      </trkpt>
      <trkpt lat="43.8356" lon="4.18684">
        <ele>230.6</ele>
        <time>2026-05-09T08:45:26.999Z</time>
      </trkpt>
      <trkpt lat="43.83559" lon="4.18682">
        <ele>230.5</ele>
        <time>2026-05-09T08:45:27.999Z</time>
      </trkpt>
      <trkpt lat="43.83559" lon="4.18681">
        <ele>230.6</ele>
        <time>2026-05-09T08:45:28.999Z</time>
      </trkpt>
      <trkpt lat="43.83559" lon="4.1868">
        <ele>230.6</ele>
        <time>2026-05-09T08:45:29.999Z</time>
      </trkpt>
      <trkpt lat="43.83559" lon="4.18679">
        <ele>230.5</ele>
        <time>2026-05-09T08:45:30.999Z</time>
      </trkpt>
      <trkpt lat="43.8356" lon="4.18678">
        <ele>230.7</ele>
        <time>2026-05-09T08:45:31.999Z</time>
      </trkpt>
      <trkpt lat="43.8356" lon="4.18677">
        <ele>230.7</ele>
        <time>2026-05-09T08:45:32.999Z</time>
      </trkpt>
      <trkpt lat="43.8356" lon="4.18676">
        <ele>230.6</ele>
        <time>2026-05-09T08:45:33.999Z</time>
      </trkpt>
      <trkpt lat="43.83561" lon="4.18674">
        <ele>230.7</ele>
        <time>2026-05-09T08:45:34.999Z</time>
      </trkpt>
      <trkpt lat="43.83561" lon="4.18673">
        <ele>230.6</ele>
        <time>2026-05-09T08:45:35.999Z</time>
      </trkpt>
      <trkpt lat="43.83561" lon="4.18672">
        <ele>230.1</ele>
        <time>2026-05-09T08:45:36.999Z</time>
      </trkpt>
      <trkpt lat="43.83561" lon="4.18671">
        <ele>229.7</ele>
        <time>2026-05-09T08:45:37.999Z</time>
      </trkpt>
      <trkpt lat="43.83562" lon="4.1867">
        <ele>229.3</ele>
        <time>2026-05-09T08:45:38.999Z</time>
      </trkpt>
      <trkpt lat="43.83562" lon="4.18669">
        <ele>228.7</ele>
        <time>2026-05-09T08:45:39.999Z</time>
      </trkpt>
      <trkpt lat="43.83562" lon="4.18668">
        <ele>228.9</ele>
        <time>2026-05-09T08:45:40.999Z</time>
      </trkpt>
      <trkpt lat="43.83562" lon="4.18668">
        <ele>228.9</ele>
        <time>2026-05-09T08:45:41.999Z</time>
      </trkpt>
      <trkpt lat="43.83561" lon="4.18668">
        <ele>228.3</ele>
        <time>2026-05-09T08:45:42.999Z</time>
      </trkpt>
      <trkpt lat="43.83561" lon="4.18668">
        <ele>228</ele>
        <time>2026-05-09T08:45:43.999Z</time>
      </trkpt>
      <trkpt lat="43.83561" lon="4.18668">
        <ele>228</ele>
        <time>2026-05-09T08:45:44.999Z</time>
      </trkpt>
      <trkpt lat="43.83561" lon="4.18667">
        <ele>228.2</ele>
        <time>2026-05-09T08:45:45.999Z</time>
      </trkpt>
      <trkpt lat="43.83561" lon="4.18667">
        <ele>228.4</ele>
        <time>2026-05-09T08:45:46.999Z</time>
      </trkpt>
      <trkpt lat="43.83561" lon="4.18666">
        <ele>228.4</ele>
        <time>2026-05-09T08:45:47.999Z</time>
      </trkpt>
      <trkpt lat="43.8356" lon="4.18665">
        <ele>228.3</ele>
        <time>2026-05-09T08:45:48.999Z</time>
      </trkpt>
      <trkpt lat="43.83559" lon="4.18664">
        <ele>228.1</ele>
        <time>2026-05-09T08:45:49.999Z</time>
      </trkpt>
      <trkpt lat="43.83558" lon="4.18664">
        <ele>228</ele>
        <time>2026-05-09T08:45:50.999Z</time>
      </trkpt>
      <trkpt lat="43.83557" lon="4.18663">
        <ele>227.9</ele>
        <time>2026-05-09T08:45:51.999Z</time>
      </trkpt>
      <trkpt lat="43.83557" lon="4.18662">
        <ele>227.9</ele>
        <time>2026-05-09T08:45:52.999Z</time>
      </trkpt>
      <trkpt lat="43.83557" lon="4.18662">
        <ele>228</ele>
        <time>2026-05-09T08:45:53.999Z</time>
      </trkpt>
      <trkpt lat="43.83556" lon="4.18661">
        <ele>227.9</ele>
        <time>2026-05-09T08:45:54.999Z</time>
      </trkpt>
      <trkpt lat="43.83556" lon="4.18661">
        <ele>227.9</ele>
        <time>2026-05-09T08:45:55.999Z</time>
      </trkpt>
      <trkpt lat="43.83556" lon="4.18661">
        <ele>228.1</ele>
        <time>2026-05-09T08:45:56.999Z</time>
      </trkpt>
      <trkpt lat="43.83556" lon="4.18661">
        <ele>228</ele>
        <time>2026-05-09T08:45:57.999Z</time>
      </trkpt>
      <trkpt lat="43.83556" lon="4.1866">
        <ele>228</ele>
        <time>2026-05-09T08:45:58.999Z</time>
      </trkpt>
      <trkpt lat="43.83556" lon="4.1866">
        <ele>228</ele>
        <time>2026-05-09T08:45:59.999Z</time>
      </trkpt>
      <trkpt lat="43.83556" lon="4.1866">
        <ele>227.9</ele>
        <time>2026-05-09T08:46:00.999Z</time>
      </trkpt>
      <trkpt lat="43.83556" lon="4.18659">
        <ele>227.9</ele>
        <time>2026-05-09T08:46:01.999Z</time>
      </trkpt>
      <trkpt lat="43.83556" lon="4.18659">
        <ele>227.7</ele>
        <time>2026-05-09T08:46:02.999Z</time>
      </trkpt>
      <trkpt lat="43.83556" lon="4.18659">
        <ele>227.6</ele>
        <time>2026-05-09T08:46:03.999Z</time>
      </trkpt>
      <trkpt lat="43.83556" lon="4.18658">
        <ele>227.6</ele>
        <time>2026-05-09T08:46:04.999Z</time>
      </trkpt>
      <trkpt lat="43.83556" lon="4.18658">
        <ele>227.5</ele>
        <time>2026-05-09T08:46:05.999Z</time>
      </trkpt>
      <trkpt lat="43.83555" lon="4.18655">
        <ele>227.2</ele>
        <time>2026-05-09T08:46:06.999Z</time>
      </trkpt>
      <trkpt lat="43.83554" lon="4.18651">
        <ele>227.4</ele>
        <time>2026-05-09T08:46:07.999Z</time>
      </trkpt>
      <trkpt lat="43.83553" lon="4.18646">
        <ele>227.4</ele>
        <time>2026-05-09T08:46:08.999Z</time>
      </trkpt>
      <trkpt lat="43.83553" lon="4.18643">
        <ele>227.5</ele>
        <time>2026-05-09T08:46:09.999Z</time>
      </trkpt>
      <trkpt lat="43.83553" lon="4.1864">
        <ele>227.6</ele>
        <time>2026-05-09T08:46:10.999Z</time>
      </trkpt>
      <trkpt lat="43.83552" lon="4.18639">
        <ele>227.7</ele>
        <time>2026-05-09T08:46:11.999Z</time>
      </trkpt>
      <trkpt lat="43.83553" lon="4.18637">
        <ele>227.7</ele>
        <time>2026-05-09T08:46:12.999Z</time>
      </trkpt>
      <trkpt lat="43.83553" lon="4.18636">
        <ele>227.6</ele>
        <time>2026-05-09T08:46:13.999Z</time>
      </trkpt>
      <trkpt lat="43.83552" lon="4.18634">
        <ele>227.5</ele>
        <time>2026-05-09T08:46:14.999Z</time>
      </trkpt>
      <trkpt lat="43.83552" lon="4.18632">
        <ele>227.5</ele>
        <time>2026-05-09T08:46:15.999Z</time>
      </trkpt>
      <trkpt lat="43.83552" lon="4.18631">
        <ele>227.2</ele>
        <time>2026-05-09T08:46:16.999Z</time>
      </trkpt>
      <trkpt lat="43.83552" lon="4.1863">
        <ele>227.4</ele>
        <time>2026-05-09T08:46:17.999Z</time>
      </trkpt>
      <trkpt lat="43.83552" lon="4.18628">
        <ele>227.5</ele>
        <time>2026-05-09T08:46:18.999Z</time>
      </trkpt>
      <trkpt lat="43.83552" lon="4.18626">
        <ele>227.1</ele>
        <time>2026-05-09T08:46:19.999Z</time>
      </trkpt>
      <trkpt lat="43.83552" lon="4.18626">
        <ele>227</ele>
        <time>2026-05-09T08:46:20.999Z</time>
      </trkpt>
      <trkpt lat="43.83552" lon="4.18625">
        <ele>227.2</ele>
        <time>2026-05-09T08:46:21.999Z</time>
      </trkpt>
      <trkpt lat="43.83552" lon="4.18625">
        <ele>227.1</ele>
        <time>2026-05-09T08:46:22.999Z</time>
      </trkpt>
      <trkpt lat="43.83552" lon="4.18624">
        <ele>227.4</ele>
        <time>2026-05-09T08:46:23.999Z</time>
      </trkpt>
      <trkpt lat="43.83552" lon="4.18624">
        <ele>227.4</ele>
        <time>2026-05-09T08:46:24.999Z</time>
      </trkpt>
      <trkpt lat="43.83552" lon="4.18623">
        <ele>227.6</ele>
        <time>2026-05-09T08:46:25.999Z</time>
      </trkpt>
      <trkpt lat="43.83552" lon="4.18621">
        <ele>227.5</ele>
        <time>2026-05-09T08:46:26.999Z</time>
      </trkpt>
      <trkpt lat="43.83551" lon="4.1862">
        <ele>227.3</ele>
        <time>2026-05-09T08:46:27.999Z</time>
      </trkpt>
      <trkpt lat="43.8355" lon="4.18619">
        <ele>227</ele>
        <time>2026-05-09T08:46:28.999Z</time>
      </trkpt>
      <trkpt lat="43.83549" lon="4.18617">
        <ele>226.9</ele>
        <time>2026-05-09T08:46:29.999Z</time>
      </trkpt>
      <trkpt lat="43.83549" lon="4.18615">
        <ele>226.7</ele>
        <time>2026-05-09T08:46:30.999Z</time>
      </trkpt>
      <trkpt lat="43.83547" lon="4.18613">
        <ele>226.3</ele>
        <time>2026-05-09T08:46:31.999Z</time>
      </trkpt>
      <trkpt lat="43.83546" lon="4.18611">
        <ele>226.2</ele>
        <time>2026-05-09T08:46:32.999Z</time>
      </trkpt>
      <trkpt lat="43.83545" lon="4.1861">
        <ele>226.1</ele>
        <time>2026-05-09T08:46:33.999Z</time>
      </trkpt>
      <trkpt lat="43.83545" lon="4.18609">
        <ele>226.1</ele>
        <time>2026-05-09T08:46:34.999Z</time>
      </trkpt>
      <trkpt lat="43.83544" lon="4.18609">
        <ele>226</ele>
        <time>2026-05-09T08:46:35.999Z</time>
      </trkpt>
      <trkpt lat="43.83544" lon="4.18608">
        <ele>225.6</ele>
        <time>2026-05-09T08:46:36.999Z</time>
      </trkpt>
      <trkpt lat="43.83544" lon="4.18608">
        <ele>225.5</ele>
        <time>2026-05-09T08:46:37.999Z</time>
      </trkpt>
      <trkpt lat="43.83544" lon="4.18608">
        <ele>225.5</ele>
        <time>2026-05-09T08:46:38.999Z</time>
      </trkpt>
      <trkpt lat="43.83544" lon="4.18608">
        <ele>225.6</ele>
        <time>2026-05-09T08:46:39.999Z</time>
      </trkpt>
      <trkpt lat="43.83544" lon="4.18607">
        <ele>225.6</ele>
        <time>2026-05-09T08:46:40.999Z</time>
      </trkpt>
      <trkpt lat="43.83543" lon="4.18607">
        <ele>225.4</ele>
        <time>2026-05-09T08:46:41.999Z</time>
      </trkpt>
      <trkpt lat="43.83543" lon="4.18608">
        <ele>225.2</ele>
        <time>2026-05-09T08:46:42.999Z</time>
      </trkpt>
      <trkpt lat="43.83542" lon="4.18607">
        <ele>224.9</ele>
        <time>2026-05-09T08:46:43.999Z</time>
      </trkpt>
      <trkpt lat="43.83541" lon="4.18606">
        <ele>224.8</ele>
        <time>2026-05-09T08:46:44.999Z</time>
      </trkpt>
      <trkpt lat="43.83541" lon="4.18606">
        <ele>224.8</ele>
        <time>2026-05-09T08:46:45.999Z</time>
      </trkpt>
      <trkpt lat="43.8354" lon="4.18606">
        <ele>224.8</ele>
        <time>2026-05-09T08:46:46.999Z</time>
      </trkpt>
      <trkpt lat="43.83539" lon="4.18605">
        <ele>224.7</ele>
        <time>2026-05-09T08:46:47.999Z</time>
      </trkpt>
      <trkpt lat="43.83539" lon="4.18605">
        <ele>224.8</ele>
        <time>2026-05-09T08:46:48.999Z</time>
      </trkpt>
      <trkpt lat="43.83539" lon="4.18604">
        <ele>224.9</ele>
        <time>2026-05-09T08:46:49.999Z</time>
      </trkpt>
      <trkpt lat="43.83539" lon="4.18604">
        <ele>224.7</ele>
        <time>2026-05-09T08:46:50.999Z</time>
      </trkpt>
      <trkpt lat="43.83538" lon="4.18604">
        <ele>224.3</ele>
        <time>2026-05-09T08:46:51.999Z</time>
      </trkpt>
      <trkpt lat="43.83538" lon="4.18603">
        <ele>223.9</ele>
        <time>2026-05-09T08:46:52.999Z</time>
      </trkpt>
      <trkpt lat="43.83537" lon="4.18602">
        <ele>223.7</ele>
        <time>2026-05-09T08:46:53.999Z</time>
      </trkpt>
      <trkpt lat="43.83536" lon="4.18602">
        <ele>223.3</ele>
        <time>2026-05-09T08:46:54.999Z</time>
      </trkpt>
      <trkpt lat="43.83535" lon="4.18603">
        <ele>222.9</ele>
        <time>2026-05-09T08:46:55.999Z</time>
      </trkpt>
      <trkpt lat="43.83534" lon="4.18603">
        <ele>222.7</ele>
        <time>2026-05-09T08:46:56.999Z</time>
      </trkpt>
      <trkpt lat="43.83533" lon="4.18603">
        <ele>222.5</ele>
        <time>2026-05-09T08:46:57.999Z</time>
      </trkpt>
      <trkpt lat="43.83532" lon="4.18603">
        <ele>222.2</ele>
        <time>2026-05-09T08:46:58.999Z</time>
      </trkpt>
      <trkpt lat="43.8353" lon="4.18603">
        <ele>222.3</ele>
        <time>2026-05-09T08:46:59.999Z</time>
      </trkpt>
      <trkpt lat="43.8353" lon="4.18603">
        <ele>222.3</ele>
        <time>2026-05-09T08:47:00.999Z</time>
      </trkpt>
      <trkpt lat="43.83529" lon="4.18604">
        <ele>222.3</ele>
        <time>2026-05-09T08:47:01.999Z</time>
      </trkpt>
      <trkpt lat="43.83527" lon="4.18604">
        <ele>222.2</ele>
        <time>2026-05-09T08:47:02.999Z</time>
      </trkpt>
      <trkpt lat="43.83526" lon="4.18604">
        <ele>222</ele>
        <time>2026-05-09T08:47:03.999Z</time>
      </trkpt>
      <trkpt lat="43.83525" lon="4.18605">
        <ele>221.8</ele>
        <time>2026-05-09T08:47:04.999Z</time>
      </trkpt>
      <trkpt lat="43.83524" lon="4.18606">
        <ele>221.4</ele>
        <time>2026-05-09T08:47:05.999Z</time>
      </trkpt>
      <trkpt lat="43.83523" lon="4.18606">
        <ele>221.3</ele>
        <time>2026-05-09T08:47:06.999Z</time>
      </trkpt>
      <trkpt lat="43.83522" lon="4.18606">
        <ele>221.2</ele>
        <time>2026-05-09T08:47:07.999Z</time>
      </trkpt>
      <trkpt lat="43.83521" lon="4.18606">
        <ele>221</ele>
        <time>2026-05-09T08:47:08.999Z</time>
      </trkpt>
      <trkpt lat="43.8352" lon="4.18607">
        <ele>220.6</ele>
        <time>2026-05-09T08:47:09.999Z</time>
      </trkpt>
      <trkpt lat="43.83519" lon="4.18607">
        <ele>220.1</ele>
        <time>2026-05-09T08:47:10.999Z</time>
      </trkpt>
      <trkpt lat="43.83519" lon="4.18607">
        <ele>220</ele>
        <time>2026-05-09T08:47:11.999Z</time>
      </trkpt>
      <trkpt lat="43.83518" lon="4.18608">
        <ele>219.9</ele>
        <time>2026-05-09T08:47:12.999Z</time>
      </trkpt>
      <trkpt lat="43.83517" lon="4.18608">
        <ele>220</ele>
        <time>2026-05-09T08:47:13.999Z</time>
      </trkpt>
      <trkpt lat="43.83517" lon="4.1861">
        <ele>220.2</ele>
        <time>2026-05-09T08:47:14.999Z</time>
      </trkpt>
      <trkpt lat="43.83517" lon="4.18611">
        <ele>220.1</ele>
        <time>2026-05-09T08:47:15.999Z</time>
      </trkpt>
      <trkpt lat="43.83516" lon="4.18611">
        <ele>219.9</ele>
        <time>2026-05-09T08:47:16.999Z</time>
      </trkpt>
      <trkpt lat="43.83515" lon="4.18612">
        <ele>219.5</ele>
        <time>2026-05-09T08:47:17.999Z</time>
      </trkpt>
      <trkpt lat="43.83514" lon="4.18612">
        <ele>219.5</ele>
        <time>2026-05-09T08:47:18.999Z</time>
      </trkpt>
      <trkpt lat="43.83513" lon="4.18612">
        <ele>219.5</ele>
        <time>2026-05-09T08:47:19.999Z</time>
      </trkpt>
      <trkpt lat="43.83513" lon="4.18613">
        <ele>219.6</ele>
        <time>2026-05-09T08:47:20.999Z</time>
      </trkpt>
      <trkpt lat="43.83513" lon="4.18614">
        <ele>219.9</ele>
        <time>2026-05-09T08:47:21.999Z</time>
      </trkpt>
      <trkpt lat="43.83512" lon="4.18615">
        <ele>220</ele>
        <time>2026-05-09T08:47:22.999Z</time>
      </trkpt>
      <trkpt lat="43.83512" lon="4.18616">
        <ele>219.4</ele>
        <time>2026-05-09T08:47:23.999Z</time>
      </trkpt>
      <trkpt lat="43.83511" lon="4.18617">
        <ele>219.1</ele>
        <time>2026-05-09T08:47:24.999Z</time>
      </trkpt>
      <trkpt lat="43.83511" lon="4.18618">
        <ele>218.9</ele>
        <time>2026-05-09T08:47:25.999Z</time>
      </trkpt>
      <trkpt lat="43.8351" lon="4.18619">
        <ele>219.1</ele>
        <time>2026-05-09T08:47:26.999Z</time>
      </trkpt>
      <trkpt lat="43.8351" lon="4.18621">
        <ele>218.9</ele>
        <time>2026-05-09T08:47:27.999Z</time>
      </trkpt>
      <trkpt lat="43.8351" lon="4.18621">
        <ele>219</ele>
        <time>2026-05-09T08:47:28.999Z</time>
      </trkpt>
      <trkpt lat="43.8351" lon="4.18623">
        <ele>218.8</ele>
        <time>2026-05-09T08:47:29.999Z</time>
      </trkpt>
      <trkpt lat="43.8351" lon="4.18624">
        <ele>218.7</ele>
        <time>2026-05-09T08:47:30.999Z</time>
      </trkpt>
      <trkpt lat="43.83509" lon="4.18625">
        <ele>218.7</ele>
        <time>2026-05-09T08:47:31.999Z</time>
      </trkpt>
      <trkpt lat="43.83508" lon="4.18626">
        <ele>218.5</ele>
        <time>2026-05-09T08:47:32.999Z</time>
      </trkpt>
      <trkpt lat="43.83508" lon="4.18627">
        <ele>218.3</ele>
        <time>2026-05-09T08:47:33.999Z</time>
      </trkpt>
      <trkpt lat="43.83506" lon="4.18628">
        <ele>217.9</ele>
        <time>2026-05-09T08:47:34.999Z</time>
      </trkpt>
      <trkpt lat="43.83506" lon="4.18629">
        <ele>217.5</ele>
        <time>2026-05-09T08:47:35.999Z</time>
      </trkpt>
      <trkpt lat="43.83506" lon="4.1863">
        <ele>217.5</ele>
        <time>2026-05-09T08:47:36.999Z</time>
      </trkpt>
      <trkpt lat="43.83506" lon="4.1863">
        <ele>217</ele>
        <time>2026-05-09T08:47:37.999Z</time>
      </trkpt>
      <trkpt lat="43.83506" lon="4.1863">
        <ele>216.6</ele>
        <time>2026-05-09T08:47:38.999Z</time>
      </trkpt>
      <trkpt lat="43.83506" lon="4.1863">
        <ele>216.7</ele>
        <time>2026-05-09T08:47:39.999Z</time>
      </trkpt>
      <trkpt lat="43.83506" lon="4.1863">
        <ele>217.1</ele>
        <time>2026-05-09T08:47:40.999Z</time>
      </trkpt>
      <trkpt lat="43.83506" lon="4.1863">
        <ele>217.1</ele>
        <time>2026-05-09T08:47:41.999Z</time>
      </trkpt>
      <trkpt lat="43.83506" lon="4.18629">
        <ele>217.3</ele>
        <time>2026-05-09T08:47:42.999Z</time>
      </trkpt>
      <trkpt lat="43.83505" lon="4.18629">
        <ele>217.3</ele>
        <time>2026-05-09T08:47:43.999Z</time>
      </trkpt>
      <trkpt lat="43.83504" lon="4.1863">
        <ele>216.9</ele>
        <time>2026-05-09T08:47:44.999Z</time>
      </trkpt>
      <trkpt lat="43.83503" lon="4.18631">
        <ele>216.8</ele>
        <time>2026-05-09T08:47:45.999Z</time>
      </trkpt>
      <trkpt lat="43.83503" lon="4.18633">
        <ele>216.8</ele>
        <time>2026-05-09T08:47:46.999Z</time>
      </trkpt>
      <trkpt lat="43.83503" lon="4.18634">
        <ele>216.7</ele>
        <time>2026-05-09T08:47:47.999Z</time>
      </trkpt>
      <trkpt lat="43.83503" lon="4.18634">
        <ele>216.5</ele>
        <time>2026-05-09T08:47:48.999Z</time>
      </trkpt>
      <trkpt lat="43.83503" lon="4.18635">
        <ele>216.4</ele>
        <time>2026-05-09T08:47:49.999Z</time>
      </trkpt>
      <trkpt lat="43.83503" lon="4.18637">
        <ele>216.6</ele>
        <time>2026-05-09T08:47:50.999Z</time>
      </trkpt>
      <trkpt lat="43.83502" lon="4.18637">
        <ele>216.2</ele>
        <time>2026-05-09T08:47:51.999Z</time>
      </trkpt>
      <trkpt lat="43.83501" lon="4.18638">
        <ele>216.2</ele>
        <time>2026-05-09T08:47:52.999Z</time>
      </trkpt>
      <trkpt lat="43.83501" lon="4.1864">
        <ele>216.1</ele>
        <time>2026-05-09T08:47:53.999Z</time>
      </trkpt>
      <trkpt lat="43.835" lon="4.18641">
        <ele>216.3</ele>
        <time>2026-05-09T08:47:54.999Z</time>
      </trkpt>
      <trkpt lat="43.835" lon="4.18641">
        <ele>216.4</ele>
        <time>2026-05-09T08:47:55.999Z</time>
      </trkpt>
      <trkpt lat="43.83499" lon="4.18642">
        <ele>216.5</ele>
        <time>2026-05-09T08:47:56.999Z</time>
      </trkpt>
      <trkpt lat="43.83499" lon="4.18643">
        <ele>216.6</ele>
        <time>2026-05-09T08:47:57.999Z</time>
      </trkpt>
      <trkpt lat="43.83499" lon="4.18645">
        <ele>216.3</ele>
        <time>2026-05-09T08:47:58.999Z</time>
      </trkpt>
      <trkpt lat="43.83499" lon="4.18646">
        <ele>216.2</ele>
        <time>2026-05-09T08:47:59.999Z</time>
      </trkpt>
      <trkpt lat="43.83498" lon="4.18648">
        <ele>216.1</ele>
        <time>2026-05-09T08:48:00.999Z</time>
      </trkpt>
      <trkpt lat="43.83498" lon="4.18649">
        <ele>215.9</ele>
        <time>2026-05-09T08:48:01.999Z</time>
      </trkpt>
      <trkpt lat="43.83497" lon="4.1865">
        <ele>216.2</ele>
        <time>2026-05-09T08:48:02.999Z</time>
      </trkpt>
      <trkpt lat="43.83497" lon="4.18651">
        <ele>216.2</ele>
        <time>2026-05-09T08:48:03.999Z</time>
      </trkpt>
      <trkpt lat="43.83496" lon="4.18651">
        <ele>216.3</ele>
        <time>2026-05-09T08:48:04.999Z</time>
      </trkpt>
      <trkpt lat="43.83496" lon="4.18651">
        <ele>216</ele>
        <time>2026-05-09T08:48:05.999Z</time>
      </trkpt>
      <trkpt lat="43.83496" lon="4.18651">
        <ele>215.7</ele>
        <time>2026-05-09T08:48:06.999Z</time>
      </trkpt>
      <trkpt lat="43.83495" lon="4.18652">
        <ele>215.6</ele>
        <time>2026-05-09T08:48:07.999Z</time>
      </trkpt>
      <trkpt lat="43.83495" lon="4.18652">
        <ele>215.7</ele>
        <time>2026-05-09T08:48:08.999Z</time>
      </trkpt>
      <trkpt lat="43.83495" lon="4.18653">
        <ele>215.9</ele>
        <time>2026-05-09T08:48:09.999Z</time>
      </trkpt>
      <trkpt lat="43.83494" lon="4.18654">
        <ele>216</ele>
        <time>2026-05-09T08:48:10.999Z</time>
      </trkpt>
      <trkpt lat="43.83494" lon="4.18655">
        <ele>216</ele>
        <time>2026-05-09T08:48:11.999Z</time>
      </trkpt>
      <trkpt lat="43.83494" lon="4.18657">
        <ele>216</ele>
        <time>2026-05-09T08:48:12.999Z</time>
      </trkpt>
      <trkpt lat="43.83494" lon="4.18658">
        <ele>215.9</ele>
        <time>2026-05-09T08:48:13.999Z</time>
      </trkpt>
      <trkpt lat="43.83493" lon="4.1866">
        <ele>215.7</ele>
        <time>2026-05-09T08:48:14.999Z</time>
      </trkpt>
      <trkpt lat="43.83493" lon="4.18661">
        <ele>215.7</ele>
        <time>2026-05-09T08:48:15.999Z</time>
      </trkpt>
      <trkpt lat="43.83493" lon="4.18662">
        <ele>215.5</ele>
        <time>2026-05-09T08:48:16.999Z</time>
      </trkpt>
      <trkpt lat="43.83493" lon="4.18663">
        <ele>215.3</ele>
        <time>2026-05-09T08:48:17.999Z</time>
      </trkpt>
      <trkpt lat="43.83493" lon="4.18664">
        <ele>215.2</ele>
        <time>2026-05-09T08:48:18.999Z</time>
      </trkpt>
      <trkpt lat="43.83492" lon="4.18665">
        <ele>215.1</ele>
        <time>2026-05-09T08:48:19.999Z</time>
      </trkpt>
      <trkpt lat="43.83492" lon="4.18666">
        <ele>215.1</ele>
        <time>2026-05-09T08:48:20.999Z</time>
      </trkpt>
      <trkpt lat="43.83492" lon="4.18667">
        <ele>215.1</ele>
        <time>2026-05-09T08:48:21.999Z</time>
      </trkpt>
      <trkpt lat="43.83491" lon="4.18667">
        <ele>214.9</ele>
        <time>2026-05-09T08:48:22.999Z</time>
      </trkpt>
      <trkpt lat="43.83491" lon="4.18669">
        <ele>214.8</ele>
        <time>2026-05-09T08:48:23.999Z</time>
      </trkpt>
      <trkpt lat="43.8349" lon="4.1867">
        <ele>214.8</ele>
        <time>2026-05-09T08:48:24.999Z</time>
      </trkpt>
      <trkpt lat="43.8349" lon="4.18672">
        <ele>214.8</ele>
        <time>2026-05-09T08:48:25.999Z</time>
      </trkpt>
      <trkpt lat="43.83491" lon="4.18673">
        <ele>215.1</ele>
        <time>2026-05-09T08:48:26.999Z</time>
      </trkpt>
      <trkpt lat="43.83491" lon="4.18674">
        <ele>214.8</ele>
        <time>2026-05-09T08:48:27.999Z</time>
      </trkpt>
      <trkpt lat="43.8349" lon="4.18675">
        <ele>214.6</ele>
        <time>2026-05-09T08:48:28.999Z</time>
      </trkpt>
      <trkpt lat="43.8349" lon="4.18676">
        <ele>214.3</ele>
        <time>2026-05-09T08:48:29.999Z</time>
      </trkpt>
      <trkpt lat="43.83489" lon="4.18677">
        <ele>213.9</ele>
        <time>2026-05-09T08:48:30.999Z</time>
      </trkpt>
      <trkpt lat="43.83489" lon="4.18678">
        <ele>214</ele>
        <time>2026-05-09T08:48:31.999Z</time>
      </trkpt>
      <trkpt lat="43.83488" lon="4.18679">
        <ele>213.9</ele>
        <time>2026-05-09T08:48:32.999Z</time>
      </trkpt>
      <trkpt lat="43.83488" lon="4.1868">
        <ele>214</ele>
        <time>2026-05-09T08:48:33.999Z</time>
      </trkpt>
      <trkpt lat="43.83488" lon="4.1868">
        <ele>214.1</ele>
        <time>2026-05-09T08:48:34.999Z</time>
      </trkpt>
      <trkpt lat="43.83487" lon="4.18681">
        <ele>214.2</ele>
        <time>2026-05-09T08:48:35.999Z</time>
      </trkpt>
      <trkpt lat="43.83487" lon="4.18682">
        <ele>214.4</ele>
        <time>2026-05-09T08:48:36.999Z</time>
      </trkpt>
      <trkpt lat="43.83486" lon="4.18682">
        <ele>214.4</ele>
        <time>2026-05-09T08:48:37.999Z</time>
      </trkpt>
      <trkpt lat="43.83485" lon="4.18683">
        <ele>214.4</ele>
        <time>2026-05-09T08:48:38.999Z</time>
      </trkpt>
      <trkpt lat="43.83485" lon="4.18683">
        <ele>214.5</ele>
        <time>2026-05-09T08:48:39.999Z</time>
      </trkpt>
      <trkpt lat="43.83485" lon="4.18683">
        <ele>214.7</ele>
        <time>2026-05-09T08:48:40.999Z</time>
      </trkpt>
      <trkpt lat="43.83484" lon="4.18684">
        <ele>214.6</ele>
        <time>2026-05-09T08:48:41.999Z</time>
      </trkpt>
      <trkpt lat="43.83483" lon="4.18685">
        <ele>214.5</ele>
        <time>2026-05-09T08:48:42.999Z</time>
      </trkpt>
      <trkpt lat="43.83483" lon="4.18686">
        <ele>214.4</ele>
        <time>2026-05-09T08:48:43.999Z</time>
      </trkpt>
      <trkpt lat="43.83482" lon="4.18688">
        <ele>214.4</ele>
        <time>2026-05-09T08:48:44.999Z</time>
      </trkpt>
      <trkpt lat="43.83482" lon="4.1869">
        <ele>214.2</ele>
        <time>2026-05-09T08:48:45.999Z</time>
      </trkpt>
      <trkpt lat="43.83482" lon="4.18691">
        <ele>214.1</ele>
        <time>2026-05-09T08:48:46.999Z</time>
      </trkpt>
      <trkpt lat="43.83482" lon="4.18692">
        <ele>214</ele>
        <time>2026-05-09T08:48:47.999Z</time>
      </trkpt>
      <trkpt lat="43.83482" lon="4.18693">
        <ele>213.8</ele>
        <time>2026-05-09T08:48:48.999Z</time>
      </trkpt>
      <trkpt lat="43.83481" lon="4.18694">
        <ele>213.9</ele>
        <time>2026-05-09T08:48:49.999Z</time>
      </trkpt>
      <trkpt lat="43.83481" lon="4.18695">
        <ele>213.5</ele>
        <time>2026-05-09T08:48:50.999Z</time>
      </trkpt>
      <trkpt lat="43.83481" lon="4.18695">
        <ele>213.2</ele>
        <time>2026-05-09T08:48:51.999Z</time>
      </trkpt>
      <trkpt lat="43.83481" lon="4.18696">
        <ele>213.4</ele>
        <time>2026-05-09T08:48:52.999Z</time>
      </trkpt>
      <trkpt lat="43.83481" lon="4.18697">
        <ele>212.8</ele>
        <time>2026-05-09T08:48:53.999Z</time>
      </trkpt>
      <trkpt lat="43.83481" lon="4.18697">
        <ele>212.7</ele>
        <time>2026-05-09T08:48:54.999Z</time>
      </trkpt>
      <trkpt lat="43.83482" lon="4.18697">
        <ele>212.8</ele>
        <time>2026-05-09T08:48:55.999Z</time>
      </trkpt>
      <trkpt lat="43.83482" lon="4.18698">
        <ele>212.8</ele>
        <time>2026-05-09T08:48:56.999Z</time>
      </trkpt>
      <trkpt lat="43.83482" lon="4.18699">
        <ele>212.8</ele>
        <time>2026-05-09T08:48:57.999Z</time>
      </trkpt>
      <trkpt lat="43.83482" lon="4.187">
        <ele>212.6</ele>
        <time>2026-05-09T08:48:58.999Z</time>
      </trkpt>
      <trkpt lat="43.83482" lon="4.18701">
        <ele>212.5</ele>
        <time>2026-05-09T08:48:59.999Z</time>
      </trkpt>
      <trkpt lat="43.83482" lon="4.18702">
        <ele>212.5</ele>
        <time>2026-05-09T08:49:00.999Z</time>
      </trkpt>
      <trkpt lat="43.83482" lon="4.18703">
        <ele>212.6</ele>
        <time>2026-05-09T08:49:01.999Z</time>
      </trkpt>
      <trkpt lat="43.83481" lon="4.18704">
        <ele>212.9</ele>
        <time>2026-05-09T08:49:02.999Z</time>
      </trkpt>
      <trkpt lat="43.83481" lon="4.18705">
        <ele>213</ele>
        <time>2026-05-09T08:49:03.999Z</time>
      </trkpt>
      <trkpt lat="43.83481" lon="4.18707">
        <ele>213</ele>
        <time>2026-05-09T08:49:04.999Z</time>
      </trkpt>
      <trkpt lat="43.8348" lon="4.18708">
        <ele>213</ele>
        <time>2026-05-09T08:49:05.999Z</time>
      </trkpt>
      <trkpt lat="43.83479" lon="4.18709">
        <ele>213.1</ele>
        <time>2026-05-09T08:49:06.999Z</time>
      </trkpt>
      <trkpt lat="43.83478" lon="4.18711">
        <ele>213</ele>
        <time>2026-05-09T08:49:07.999Z</time>
      </trkpt>
      <trkpt lat="43.83477" lon="4.18712">
        <ele>212.9</ele>
        <time>2026-05-09T08:49:08.999Z</time>
      </trkpt>
      <trkpt lat="43.83476" lon="4.18713">
        <ele>212.8</ele>
        <time>2026-05-09T08:49:09.999Z</time>
      </trkpt>
      <trkpt lat="43.83476" lon="4.18714">
        <ele>212.3</ele>
        <time>2026-05-09T08:49:10.999Z</time>
      </trkpt>
      <trkpt lat="43.83476" lon="4.18715">
        <ele>211.5</ele>
        <time>2026-05-09T08:49:11.999Z</time>
      </trkpt>
      <trkpt lat="43.83475" lon="4.18716">
        <ele>211.4</ele>
        <time>2026-05-09T08:49:12.999Z</time>
      </trkpt>
      <trkpt lat="43.83476" lon="4.18717">
        <ele>211.2</ele>
        <time>2026-05-09T08:49:13.999Z</time>
      </trkpt>
      <trkpt lat="43.83475" lon="4.18717">
        <ele>210.9</ele>
        <time>2026-05-09T08:49:14.999Z</time>
      </trkpt>
      <trkpt lat="43.83475" lon="4.18717">
        <ele>210.7</ele>
        <time>2026-05-09T08:49:15.999Z</time>
      </trkpt>
      <trkpt lat="43.83475" lon="4.18717">
        <ele>210.8</ele>
        <time>2026-05-09T08:49:16.999Z</time>
      </trkpt>
      <trkpt lat="43.83475" lon="4.18718">
        <ele>210.7</ele>
        <time>2026-05-09T08:49:17.999Z</time>
      </trkpt>
      <trkpt lat="43.83474" lon="4.18718">
        <ele>210.6</ele>
        <time>2026-05-09T08:49:18.999Z</time>
      </trkpt>
      <trkpt lat="43.83474" lon="4.1872">
        <ele>210.6</ele>
        <time>2026-05-09T08:49:19.999Z</time>
      </trkpt>
      <trkpt lat="43.83474" lon="4.18721">
        <ele>210.6</ele>
        <time>2026-05-09T08:49:20.999Z</time>
      </trkpt>
      <trkpt lat="43.83474" lon="4.18723">
        <ele>210.5</ele>
        <time>2026-05-09T08:49:21.999Z</time>
      </trkpt>
      <trkpt lat="43.83474" lon="4.18724">
        <ele>210</ele>
        <time>2026-05-09T08:49:22.999Z</time>
      </trkpt>
      <trkpt lat="43.83474" lon="4.18725">
        <ele>209.9</ele>
        <time>2026-05-09T08:49:23.999Z</time>
      </trkpt>
      <trkpt lat="43.83473" lon="4.18727">
        <ele>209.7</ele>
        <time>2026-05-09T08:49:24.999Z</time>
      </trkpt>
      <trkpt lat="43.83473" lon="4.18729">
        <ele>209.5</ele>
        <time>2026-05-09T08:49:25.999Z</time>
      </trkpt>
      <trkpt lat="43.83473" lon="4.1873">
        <ele>209.4</ele>
        <time>2026-05-09T08:49:26.999Z</time>
      </trkpt>
      <trkpt lat="43.83473" lon="4.18732">
        <ele>209.2</ele>
        <time>2026-05-09T08:49:27.999Z</time>
      </trkpt>
      <trkpt lat="43.83473" lon="4.18733">
        <ele>208.8</ele>
        <time>2026-05-09T08:49:28.999Z</time>
      </trkpt>
      <trkpt lat="43.83472" lon="4.18733">
        <ele>208.5</ele>
        <time>2026-05-09T08:49:29.999Z</time>
      </trkpt>
      <trkpt lat="43.83472" lon="4.18733">
        <ele>208.4</ele>
        <time>2026-05-09T08:49:30.999Z</time>
      </trkpt>
      <trkpt lat="43.83472" lon="4.18734">
        <ele>208.1</ele>
        <time>2026-05-09T08:49:31.999Z</time>
      </trkpt>
      <trkpt lat="43.83472" lon="4.18736">
        <ele>208.1</ele>
        <time>2026-05-09T08:49:32.999Z</time>
      </trkpt>
      <trkpt lat="43.83471" lon="4.18737">
        <ele>208.2</ele>
        <time>2026-05-09T08:49:33.999Z</time>
      </trkpt>
      <trkpt lat="43.83472" lon="4.18738">
        <ele>208.1</ele>
        <time>2026-05-09T08:49:34.999Z</time>
      </trkpt>
      <trkpt lat="43.83472" lon="4.18739">
        <ele>208</ele>
        <time>2026-05-09T08:49:35.999Z</time>
      </trkpt>
      <trkpt lat="43.83472" lon="4.1874">
        <ele>207.7</ele>
        <time>2026-05-09T08:49:36.999Z</time>
      </trkpt>
      <trkpt lat="43.83472" lon="4.18741">
        <ele>207.9</ele>
        <time>2026-05-09T08:49:37.999Z</time>
      </trkpt>
      <trkpt lat="43.83471" lon="4.18742">
        <ele>207.9</ele>
        <time>2026-05-09T08:49:38.999Z</time>
      </trkpt>
      <trkpt lat="43.83471" lon="4.18743">
        <ele>207.8</ele>
        <time>2026-05-09T08:49:39.999Z</time>
      </trkpt>
      <trkpt lat="43.83471" lon="4.18745">
        <ele>207.6</ele>
        <time>2026-05-09T08:49:40.999Z</time>
      </trkpt>
      <trkpt lat="43.83471" lon="4.18746">
        <ele>207.2</ele>
        <time>2026-05-09T08:49:41.999Z</time>
      </trkpt>
      <trkpt lat="43.83472" lon="4.18747">
        <ele>207</ele>
        <time>2026-05-09T08:49:42.999Z</time>
      </trkpt>
      <trkpt lat="43.83472" lon="4.18748">
        <ele>206.8</ele>
        <time>2026-05-09T08:49:43.999Z</time>
      </trkpt>
      <trkpt lat="43.83473" lon="4.18749">
        <ele>207</ele>
        <time>2026-05-09T08:49:44.999Z</time>
      </trkpt>
      <trkpt lat="43.83473" lon="4.1875">
        <ele>206.9</ele>
        <time>2026-05-09T08:49:45.999Z</time>
      </trkpt>
      <trkpt lat="43.83473" lon="4.18752">
        <ele>206.7</ele>
        <time>2026-05-09T08:49:46.999Z</time>
      </trkpt>
      <trkpt lat="43.83473" lon="4.18753">
        <ele>206.6</ele>
        <time>2026-05-09T08:49:47.999Z</time>
      </trkpt>
      <trkpt lat="43.83473" lon="4.18754">
        <ele>206.4</ele>
        <time>2026-05-09T08:49:48.999Z</time>
      </trkpt>
      <trkpt lat="43.83472" lon="4.18755">
        <ele>206</ele>
        <time>2026-05-09T08:49:49.999Z</time>
      </trkpt>
      <trkpt lat="43.83472" lon="4.18756">
        <ele>205.4</ele>
        <time>2026-05-09T08:49:50.999Z</time>
      </trkpt>
      <trkpt lat="43.83471" lon="4.18757">
        <ele>205.1</ele>
        <time>2026-05-09T08:49:51.999Z</time>
      </trkpt>
      <trkpt lat="43.83471" lon="4.18758">
        <ele>205</ele>
        <time>2026-05-09T08:49:52.999Z</time>
      </trkpt>
      <trkpt lat="43.83471" lon="4.18759">
        <ele>204.9</ele>
        <time>2026-05-09T08:49:53.999Z</time>
      </trkpt>
      <trkpt lat="43.8347" lon="4.1876">
        <ele>204.8</ele>
        <time>2026-05-09T08:49:54.999Z</time>
      </trkpt>
      <trkpt lat="43.83471" lon="4.18761">
        <ele>204.5</ele>
        <time>2026-05-09T08:49:55.999Z</time>
      </trkpt>
      <trkpt lat="43.83471" lon="4.18763">
        <ele>204.2</ele>
        <time>2026-05-09T08:49:56.999Z</time>
      </trkpt>
      <trkpt lat="43.83471" lon="4.18764">
        <ele>204.2</ele>
        <time>2026-05-09T08:49:57.999Z</time>
      </trkpt>
      <trkpt lat="43.83471" lon="4.18766">
        <ele>204.2</ele>
        <time>2026-05-09T08:49:58.999Z</time>
      </trkpt>
      <trkpt lat="43.83471" lon="4.18767">
        <ele>204</ele>
        <time>2026-05-09T08:49:59.999Z</time>
      </trkpt>
      <trkpt lat="43.83471" lon="4.18768">
        <ele>203.8</ele>
        <time>2026-05-09T08:50:00.999Z</time>
      </trkpt>
      <trkpt lat="43.83471" lon="4.1877">
        <ele>203.4</ele>
        <time>2026-05-09T08:50:01.999Z</time>
      </trkpt>
      <trkpt lat="43.83472" lon="4.18771">
        <ele>203</ele>
        <time>2026-05-09T08:50:02.999Z</time>
      </trkpt>
      <trkpt lat="43.83472" lon="4.18772">
        <ele>203.1</ele>
        <time>2026-05-09T08:50:03.999Z</time>
      </trkpt>
      <trkpt lat="43.83471" lon="4.18772">
        <ele>203</ele>
        <time>2026-05-09T08:50:04.999Z</time>
      </trkpt>
      <trkpt lat="43.83471" lon="4.18772">
        <ele>203.2</ele>
        <time>2026-05-09T08:50:05.999Z</time>
      </trkpt>
      <trkpt lat="43.8347" lon="4.18772">
        <ele>203.6</ele>
        <time>2026-05-09T08:50:06.999Z</time>
      </trkpt>
      <trkpt lat="43.8347" lon="4.18772">
        <ele>203.9</ele>
        <time>2026-05-09T08:50:07.999Z</time>
      </trkpt>
      <trkpt lat="43.8347" lon="4.18772">
        <ele>203.8</ele>
        <time>2026-05-09T08:50:08.999Z</time>
      </trkpt>
      <trkpt lat="43.8347" lon="4.18773">
        <ele>203.8</ele>
        <time>2026-05-09T08:50:09.999Z</time>
      </trkpt>
      <trkpt lat="43.8347" lon="4.18774">
        <ele>203.6</ele>
        <time>2026-05-09T08:50:10.999Z</time>
      </trkpt>
      <trkpt lat="43.83469" lon="4.18776">
        <ele>203.6</ele>
        <time>2026-05-09T08:50:11.999Z</time>
      </trkpt>
      <trkpt lat="43.83469" lon="4.18778">
        <ele>203.7</ele>
        <time>2026-05-09T08:50:12.999Z</time>
      </trkpt>
      <trkpt lat="43.83468" lon="4.18779">
        <ele>203.8</ele>
        <time>2026-05-09T08:50:13.999Z</time>
      </trkpt>
      <trkpt lat="43.83467" lon="4.1878">
        <ele>203.6</ele>
        <time>2026-05-09T08:50:15.000Z</time>
      </trkpt>
      <trkpt lat="43.83467" lon="4.18782">
        <ele>203.3</ele>
        <time>2026-05-09T08:50:16.000Z</time>
      </trkpt>
      <trkpt lat="43.83467" lon="4.18783">
        <ele>203</ele>
        <time>2026-05-09T08:50:17.000Z</time>
      </trkpt>
      <trkpt lat="43.83466" lon="4.18785">
        <ele>202.8</ele>
        <time>2026-05-09T08:50:18.000Z</time>
      </trkpt>
      <trkpt lat="43.83466" lon="4.18786">
        <ele>202.5</ele>
        <time>2026-05-09T08:50:19.000Z</time>
      </trkpt>
      <trkpt lat="43.83465" lon="4.18788">
        <ele>202.4</ele>
        <time>2026-05-09T08:50:20.000Z</time>
      </trkpt>
      <trkpt lat="43.83465" lon="4.18789">
        <ele>202.2</ele>
        <time>2026-05-09T08:50:21.000Z</time>
      </trkpt>
      <trkpt lat="43.83465" lon="4.1879">
        <ele>202.1</ele>
        <time>2026-05-09T08:50:22.000Z</time>
      </trkpt>
      <trkpt lat="43.83465" lon="4.18792">
        <ele>201.9</ele>
        <time>2026-05-09T08:50:23.000Z</time>
      </trkpt>
      <trkpt lat="43.83464" lon="4.18794">
        <ele>201.7</ele>
        <time>2026-05-09T08:50:24.000Z</time>
      </trkpt>
      <trkpt lat="43.83464" lon="4.18794">
        <ele>201.4</ele>
        <time>2026-05-09T08:50:25.000Z</time>
      </trkpt>
      <trkpt lat="43.83463" lon="4.18795">
        <ele>201.5</ele>
        <time>2026-05-09T08:50:26.000Z</time>
      </trkpt>
      <trkpt lat="43.83463" lon="4.18795">
        <ele>201.8</ele>
        <time>2026-05-09T08:50:27.000Z</time>
      </trkpt>
      <trkpt lat="43.83463" lon="4.18796">
        <ele>201.9</ele>
        <time>2026-05-09T08:50:28.000Z</time>
      </trkpt>
      <trkpt lat="43.83463" lon="4.18796">
        <ele>201.8</ele>
        <time>2026-05-09T08:50:29.000Z</time>
      </trkpt>
      <trkpt lat="43.83463" lon="4.18797">
        <ele>202</ele>
        <time>2026-05-09T08:50:30.000Z</time>
      </trkpt>
      <trkpt lat="43.83463" lon="4.18797">
        <ele>201.9</ele>
        <time>2026-05-09T08:50:31.000Z</time>
      </trkpt>
      <trkpt lat="43.83462" lon="4.18798">
        <ele>201.8</ele>
        <time>2026-05-09T08:50:32.000Z</time>
      </trkpt>
      <trkpt lat="43.83461" lon="4.188">
        <ele>201.6</ele>
        <time>2026-05-09T08:50:33.000Z</time>
      </trkpt>
      <trkpt lat="43.83461" lon="4.18801">
        <ele>201.4</ele>
        <time>2026-05-09T08:50:34.000Z</time>
      </trkpt>
      <trkpt lat="43.83461" lon="4.18803">
        <ele>201.3</ele>
        <time>2026-05-09T08:50:35.000Z</time>
      </trkpt>
      <trkpt lat="43.83461" lon="4.18804">
        <ele>201.4</ele>
        <time>2026-05-09T08:50:36.000Z</time>
      </trkpt>
      <trkpt lat="43.83461" lon="4.18805">
        <ele>201.3</ele>
        <time>2026-05-09T08:50:37.000Z</time>
      </trkpt>
      <trkpt lat="43.83461" lon="4.18806">
        <ele>201.2</ele>
        <time>2026-05-09T08:50:38.000Z</time>
      </trkpt>
      <trkpt lat="43.83461" lon="4.18808">
        <ele>200.9</ele>
        <time>2026-05-09T08:50:39.000Z</time>
      </trkpt>
      <trkpt lat="43.83461" lon="4.18809">
        <ele>200.8</ele>
        <time>2026-05-09T08:50:40.000Z</time>
      </trkpt>
      <trkpt lat="43.83461" lon="4.18809">
        <ele>200.9</ele>
        <time>2026-05-09T08:50:41.000Z</time>
      </trkpt>
      <trkpt lat="43.83461" lon="4.18811">
        <ele>200.9</ele>
        <time>2026-05-09T08:50:42.000Z</time>
      </trkpt>
      <trkpt lat="43.8346" lon="4.18813">
        <ele>201</ele>
        <time>2026-05-09T08:50:43.000Z</time>
      </trkpt>
      <trkpt lat="43.83459" lon="4.18814">
        <ele>200.9</ele>
        <time>2026-05-09T08:50:44.000Z</time>
      </trkpt>
      <trkpt lat="43.83458" lon="4.18815">
        <ele>200.5</ele>
        <time>2026-05-09T08:50:45.000Z</time>
      </trkpt>
      <trkpt lat="43.83457" lon="4.18816">
        <ele>200.1</ele>
        <time>2026-05-09T08:50:46.000Z</time>
      </trkpt>
      <trkpt lat="43.83456" lon="4.18817">
        <ele>200.4</ele>
        <time>2026-05-09T08:50:47.000Z</time>
      </trkpt>
      <trkpt lat="43.83456" lon="4.18818">
        <ele>200.6</ele>
        <time>2026-05-09T08:50:48.000Z</time>
      </trkpt>
      <trkpt lat="43.83455" lon="4.18819">
        <ele>200.4</ele>
        <time>2026-05-09T08:50:49.000Z</time>
      </trkpt>
      <trkpt lat="43.83455" lon="4.1882">
        <ele>200</ele>
        <time>2026-05-09T08:50:50.000Z</time>
      </trkpt>
      <trkpt lat="43.83455" lon="4.1882">
        <ele>199.8</ele>
        <time>2026-05-09T08:50:51.000Z</time>
      </trkpt>
      <trkpt lat="43.83454" lon="4.18821">
        <ele>199.9</ele>
        <time>2026-05-09T08:50:52.000Z</time>
      </trkpt>
      <trkpt lat="43.83453" lon="4.18821">
        <ele>199.7</ele>
        <time>2026-05-09T08:50:53.000Z</time>
      </trkpt>
      <trkpt lat="43.83453" lon="4.18822">
        <ele>199.5</ele>
        <time>2026-05-09T08:50:54.000Z</time>
      </trkpt>
      <trkpt lat="43.83452" lon="4.18823">
        <ele>199.6</ele>
        <time>2026-05-09T08:50:55.000Z</time>
      </trkpt>
      <trkpt lat="43.8345" lon="4.18824">
        <ele>199.2</ele>
        <time>2026-05-09T08:50:56.000Z</time>
      </trkpt>
      <trkpt lat="43.83449" lon="4.18825">
        <ele>199.2</ele>
        <time>2026-05-09T08:50:57.000Z</time>
      </trkpt>
      <trkpt lat="43.83449" lon="4.18826">
        <ele>199.1</ele>
        <time>2026-05-09T08:50:58.000Z</time>
      </trkpt>
      <trkpt lat="43.83448" lon="4.18826">
        <ele>198.8</ele>
        <time>2026-05-09T08:50:59.000Z</time>
      </trkpt>
      <trkpt lat="43.83448" lon="4.18827">
        <ele>198.6</ele>
        <time>2026-05-09T08:51:00.000Z</time>
      </trkpt>
      <trkpt lat="43.83448" lon="4.18828">
        <ele>198.4</ele>
        <time>2026-05-09T08:51:01.000Z</time>
      </trkpt>
      <trkpt lat="43.83447" lon="4.18829">
        <ele>198</ele>
        <time>2026-05-09T08:51:02.000Z</time>
      </trkpt>
      <trkpt lat="43.83446" lon="4.1883">
        <ele>198.2</ele>
        <time>2026-05-09T08:51:03.000Z</time>
      </trkpt>
      <trkpt lat="43.83446" lon="4.18831">
        <ele>198.5</ele>
        <time>2026-05-09T08:51:04.000Z</time>
      </trkpt>
      <trkpt lat="43.83446" lon="4.18832">
        <ele>198.4</ele>
        <time>2026-05-09T08:51:05.000Z</time>
      </trkpt>
      <trkpt lat="43.83445" lon="4.18832">
        <ele>198.4</ele>
        <time>2026-05-09T08:51:06.000Z</time>
      </trkpt>
      <trkpt lat="43.83444" lon="4.18833">
        <ele>198.6</ele>
        <time>2026-05-09T08:51:07.000Z</time>
      </trkpt>
      <trkpt lat="43.83443" lon="4.18834">
        <ele>198.6</ele>
        <time>2026-05-09T08:51:08.000Z</time>
      </trkpt>
      <trkpt lat="43.83442" lon="4.18835">
        <ele>198</ele>
        <time>2026-05-09T08:51:09.000Z</time>
      </trkpt>
      <trkpt lat="43.8344" lon="4.18835">
        <ele>197.9</ele>
        <time>2026-05-09T08:51:10.000Z</time>
      </trkpt>
      <trkpt lat="43.83439" lon="4.18835">
        <ele>197.9</ele>
        <time>2026-05-09T08:51:11.000Z</time>
      </trkpt>
      <trkpt lat="43.83438" lon="4.18836">
        <ele>197.9</ele>
        <time>2026-05-09T08:51:12.000Z</time>
      </trkpt>
      <trkpt lat="43.83437" lon="4.18836">
        <ele>197.6</ele>
        <time>2026-05-09T08:51:13.000Z</time>
      </trkpt>
      <trkpt lat="43.83437" lon="4.18837">
        <ele>197.2</ele>
        <time>2026-05-09T08:51:14.000Z</time>
      </trkpt>
      <trkpt lat="43.83436" lon="4.18838">
        <ele>196.7</ele>
        <time>2026-05-09T08:51:15.000Z</time>
      </trkpt>
      <trkpt lat="43.83436" lon="4.18838">
        <ele>196.8</ele>
        <time>2026-05-09T08:51:16.000Z</time>
      </trkpt>
      <trkpt lat="43.83436" lon="4.18838">
        <ele>196.5</ele>
        <time>2026-05-09T08:51:17.000Z</time>
      </trkpt>
      <trkpt lat="43.83435" lon="4.18839">
        <ele>196.8</ele>
        <time>2026-05-09T08:51:18.000Z</time>
      </trkpt>
      <trkpt lat="43.83434" lon="4.1884">
        <ele>197.1</ele>
        <time>2026-05-09T08:51:19.000Z</time>
      </trkpt>
      <trkpt lat="43.83434" lon="4.18839">
        <ele>197</ele>
        <time>2026-05-09T08:51:20.000Z</time>
      </trkpt>
      <trkpt lat="43.83433" lon="4.1884">
        <ele>196.8</ele>
        <time>2026-05-09T08:51:21.000Z</time>
      </trkpt>
      <trkpt lat="43.83433" lon="4.1884">
        <ele>196.2</ele>
        <time>2026-05-09T08:51:22.000Z</time>
      </trkpt>
      <trkpt lat="43.83432" lon="4.18841">
        <ele>195.3</ele>
        <time>2026-05-09T08:51:23.000Z</time>
      </trkpt>
      <trkpt lat="43.83431" lon="4.18842">
        <ele>194.7</ele>
        <time>2026-05-09T08:51:24.000Z</time>
      </trkpt>
      <trkpt lat="43.83431" lon="4.18843">
        <ele>194.4</ele>
        <time>2026-05-09T08:51:25.000Z</time>
      </trkpt>
      <trkpt lat="43.8343" lon="4.18843">
        <ele>194.2</ele>
        <time>2026-05-09T08:51:26.000Z</time>
      </trkpt>
      <trkpt lat="43.8343" lon="4.18843">
        <ele>194.1</ele>
        <time>2026-05-09T08:51:27.000Z</time>
      </trkpt>
      <trkpt lat="43.8343" lon="4.18844">
        <ele>194.4</ele>
        <time>2026-05-09T08:51:28.000Z</time>
      </trkpt>
      <trkpt lat="43.8343" lon="4.18844">
        <ele>194.4</ele>
        <time>2026-05-09T08:51:29.000Z</time>
      </trkpt>
      <trkpt lat="43.83429" lon="4.18844">
        <ele>194.1</ele>
        <time>2026-05-09T08:51:30.000Z</time>
      </trkpt>
      <trkpt lat="43.83428" lon="4.18845">
        <ele>193.9</ele>
        <time>2026-05-09T08:51:31.000Z</time>
      </trkpt>
      <trkpt lat="43.83428" lon="4.18845">
        <ele>193.8</ele>
        <time>2026-05-09T08:51:32.000Z</time>
      </trkpt>
      <trkpt lat="43.83427" lon="4.18845">
        <ele>193.9</ele>
        <time>2026-05-09T08:51:33.000Z</time>
      </trkpt>
      <trkpt lat="43.83426" lon="4.18845">
        <ele>193.9</ele>
        <time>2026-05-09T08:51:34.000Z</time>
      </trkpt>
      <trkpt lat="43.83424" lon="4.18845">
        <ele>193.9</ele>
        <time>2026-05-09T08:51:35.000Z</time>
      </trkpt>
      <trkpt lat="43.83423" lon="4.18845">
        <ele>193.8</ele>
        <time>2026-05-09T08:51:36.000Z</time>
      </trkpt>
      <trkpt lat="43.83423" lon="4.18845">
        <ele>193.5</ele>
        <time>2026-05-09T08:51:37.000Z</time>
      </trkpt>
      <trkpt lat="43.83422" lon="4.18845">
        <ele>193.3</ele>
        <time>2026-05-09T08:51:38.000Z</time>
      </trkpt>
      <trkpt lat="43.83422" lon="4.18846">
        <ele>192.3</ele>
        <time>2026-05-09T08:51:39.000Z</time>
      </trkpt>
      <trkpt lat="43.83422" lon="4.18846">
        <ele>191.6</ele>
        <time>2026-05-09T08:51:40.000Z</time>
      </trkpt>
      <trkpt lat="43.83422" lon="4.18847">
        <ele>191.2</ele>
        <time>2026-05-09T08:51:41.000Z</time>
      </trkpt>
      <trkpt lat="43.83422" lon="4.18848">
        <ele>190.9</ele>
        <time>2026-05-09T08:51:42.000Z</time>
      </trkpt>
      <trkpt lat="43.83422" lon="4.18848">
        <ele>190.7</ele>
        <time>2026-05-09T08:51:43.000Z</time>
      </trkpt>
      <trkpt lat="43.83422" lon="4.18849">
        <ele>190.6</ele>
        <time>2026-05-09T08:51:44.000Z</time>
      </trkpt>
      <trkpt lat="43.83421" lon="4.18849">
        <ele>190.5</ele>
        <time>2026-05-09T08:51:45.000Z</time>
      </trkpt>
      <trkpt lat="43.83421" lon="4.18848">
        <ele>190.7</ele>
        <time>2026-05-09T08:51:46.000Z</time>
      </trkpt>
      <trkpt lat="43.8342" lon="4.18847">
        <ele>191.1</ele>
        <time>2026-05-09T08:51:47.000Z</time>
      </trkpt>
      <trkpt lat="43.83418" lon="4.18847">
        <ele>191.1</ele>
        <time>2026-05-09T08:51:48.000Z</time>
      </trkpt>
      <trkpt lat="43.83418" lon="4.18846">
        <ele>191.2</ele>
        <time>2026-05-09T08:51:49.000Z</time>
      </trkpt>
      <trkpt lat="43.83417" lon="4.18847">
        <ele>191.1</ele>
        <time>2026-05-09T08:51:50.000Z</time>
      </trkpt>
      <trkpt lat="43.83416" lon="4.18847">
        <ele>190.9</ele>
        <time>2026-05-09T08:51:51.000Z</time>
      </trkpt>
      <trkpt lat="43.83415" lon="4.18848">
        <ele>191</ele>
        <time>2026-05-09T08:51:52.000Z</time>
      </trkpt>
      <trkpt lat="43.83415" lon="4.18849">
        <ele>191</ele>
        <time>2026-05-09T08:51:53.000Z</time>
      </trkpt>
      <trkpt lat="43.83414" lon="4.18849">
        <ele>190.9</ele>
        <time>2026-05-09T08:51:54.000Z</time>
      </trkpt>
      <trkpt lat="43.83413" lon="4.1885">
        <ele>190.4</ele>
        <time>2026-05-09T08:51:55.000Z</time>
      </trkpt>
      <trkpt lat="43.83412" lon="4.18851">
        <ele>190.4</ele>
        <time>2026-05-09T08:51:56.000Z</time>
      </trkpt>
      <trkpt lat="43.83412" lon="4.18852">
        <ele>190.2</ele>
        <time>2026-05-09T08:51:57.000Z</time>
      </trkpt>
      <trkpt lat="43.83411" lon="4.18852">
        <ele>190.1</ele>
        <time>2026-05-09T08:51:58.000Z</time>
      </trkpt>
      <trkpt lat="43.83411" lon="4.18853">
        <ele>190.3</ele>
        <time>2026-05-09T08:51:59.000Z</time>
      </trkpt>
      <trkpt lat="43.8341" lon="4.18853">
        <ele>190.5</ele>
        <time>2026-05-09T08:52:00.000Z</time>
      </trkpt>
      <trkpt lat="43.8341" lon="4.18852">
        <ele>190.7</ele>
        <time>2026-05-09T08:52:01.000Z</time>
      </trkpt>
      <trkpt lat="43.8341" lon="4.18852">
        <ele>190.8</ele>
        <time>2026-05-09T08:52:02.000Z</time>
      </trkpt>
      <trkpt lat="43.8341" lon="4.18852">
        <ele>190.7</ele>
        <time>2026-05-09T08:52:03.000Z</time>
      </trkpt>
      <trkpt lat="43.83409" lon="4.18852">
        <ele>190.7</ele>
        <time>2026-05-09T08:52:04.000Z</time>
      </trkpt>
      <trkpt lat="43.83409" lon="4.18852">
        <ele>190.6</ele>
        <time>2026-05-09T08:52:05.000Z</time>
      </trkpt>
      <trkpt lat="43.83409" lon="4.18852">
        <ele>190.5</ele>
        <time>2026-05-09T08:52:06.000Z</time>
      </trkpt>
      <trkpt lat="43.83409" lon="4.18852">
        <ele>190.4</ele>
        <time>2026-05-09T08:52:07.000Z</time>
      </trkpt>
      <trkpt lat="43.83409" lon="4.18852">
        <ele>190.8</ele>
        <time>2026-05-09T08:52:08.000Z</time>
      </trkpt>
      <trkpt lat="43.83409" lon="4.18852">
        <ele>191.2</ele>
        <time>2026-05-09T08:52:09.000Z</time>
      </trkpt>
      <trkpt lat="43.83409" lon="4.18852">
        <ele>191.2</ele>
        <time>2026-05-09T08:52:10.000Z</time>
      </trkpt>
      <trkpt lat="43.83409" lon="4.18851">
        <ele>191.3</ele>
        <time>2026-05-09T08:52:11.000Z</time>
      </trkpt>
      <trkpt lat="43.83409" lon="4.18851">
        <ele>190.9</ele>
        <time>2026-05-09T08:52:12.000Z</time>
      </trkpt>
      <trkpt lat="43.83409" lon="4.1885">
        <ele>190.8</ele>
        <time>2026-05-09T08:52:13.000Z</time>
      </trkpt>
      <trkpt lat="43.83408" lon="4.1885">
        <ele>190.8</ele>
        <time>2026-05-09T08:52:14.000Z</time>
      </trkpt>
      <trkpt lat="43.83408" lon="4.1885">
        <ele>190.5</ele>
        <time>2026-05-09T08:52:15.000Z</time>
      </trkpt>
      <trkpt lat="43.83407" lon="4.18849">
        <ele>190.4</ele>
        <time>2026-05-09T08:52:16.000Z</time>
      </trkpt>
      <trkpt lat="43.83406" lon="4.18849">
        <ele>190.4</ele>
        <time>2026-05-09T08:52:17.000Z</time>
      </trkpt>
      <trkpt lat="43.83405" lon="4.18847">
        <ele>190.2</ele>
        <time>2026-05-09T08:52:18.000Z</time>
      </trkpt>
      <trkpt lat="43.83404" lon="4.18846">
        <ele>190.1</ele>
        <time>2026-05-09T08:52:19.000Z</time>
      </trkpt>
      <trkpt lat="43.83404" lon="4.18846">
        <ele>190</ele>
        <time>2026-05-09T08:52:20.000Z</time>
      </trkpt>
      <trkpt lat="43.83403" lon="4.18846">
        <ele>189.8</ele>
        <time>2026-05-09T08:52:21.000Z</time>
      </trkpt>
      <trkpt lat="43.83402" lon="4.18846">
        <ele>189.9</ele>
        <time>2026-05-09T08:52:22.000Z</time>
      </trkpt>
      <trkpt lat="43.83401" lon="4.18845">
        <ele>190</ele>
        <time>2026-05-09T08:52:23.000Z</time>
      </trkpt>
      <trkpt lat="43.834" lon="4.18844">
        <ele>189.9</ele>
        <time>2026-05-09T08:52:24.000Z</time>
      </trkpt>
      <trkpt lat="43.83399" lon="4.18844">
        <ele>189.8</ele>
        <time>2026-05-09T08:52:25.000Z</time>
      </trkpt>
      <trkpt lat="43.83398" lon="4.18845">
        <ele>189.6</ele>
        <time>2026-05-09T08:52:26.000Z</time>
      </trkpt>
      <trkpt lat="43.83397" lon="4.18845">
        <ele>189.4</ele>
        <time>2026-05-09T08:52:27.000Z</time>
      </trkpt>
      <trkpt lat="43.83397" lon="4.18846">
        <ele>189.2</ele>
        <time>2026-05-09T08:52:28.000Z</time>
      </trkpt>
      <trkpt lat="43.83397" lon="4.18847">
        <ele>189</ele>
        <time>2026-05-09T08:52:29.000Z</time>
      </trkpt>
      <trkpt lat="43.83397" lon="4.18847">
        <ele>188.8</ele>
        <time>2026-05-09T08:52:30.000Z</time>
      </trkpt>
      <trkpt lat="43.83396" lon="4.18848">
        <ele>188.6</ele>
        <time>2026-05-09T08:52:31.000Z</time>
      </trkpt>
      <trkpt lat="43.83396" lon="4.1885">
        <ele>188.3</ele>
        <time>2026-05-09T08:52:32.000Z</time>
      </trkpt>
      <trkpt lat="43.83396" lon="4.18851">
        <ele>188</ele>
        <time>2026-05-09T08:52:33.000Z</time>
      </trkpt>
      <trkpt lat="43.83395" lon="4.18852">
        <ele>187.5</ele>
        <time>2026-05-09T08:52:34.000Z</time>
      </trkpt>
      <trkpt lat="43.83395" lon="4.18853">
        <ele>187.2</ele>
        <time>2026-05-09T08:52:35.000Z</time>
      </trkpt>
      <trkpt lat="43.83393" lon="4.18853">
        <ele>187.1</ele>
        <time>2026-05-09T08:52:36.000Z</time>
      </trkpt>
      <trkpt lat="43.83392" lon="4.18853">
        <ele>187</ele>
        <time>2026-05-09T08:52:37.000Z</time>
      </trkpt>
      <trkpt lat="43.83391" lon="4.18853">
        <ele>186.9</ele>
        <time>2026-05-09T08:52:38.000Z</time>
      </trkpt>
      <trkpt lat="43.8339" lon="4.18853">
        <ele>186.7</ele>
        <time>2026-05-09T08:52:39.000Z</time>
      </trkpt>
      <trkpt lat="43.83389" lon="4.18854">
        <ele>186.7</ele>
        <time>2026-05-09T08:52:40.000Z</time>
      </trkpt>
      <trkpt lat="43.83389" lon="4.18855">
        <ele>186.8</ele>
        <time>2026-05-09T08:52:41.000Z</time>
      </trkpt>
      <trkpt lat="43.83388" lon="4.18856">
        <ele>186.9</ele>
        <time>2026-05-09T08:52:42.000Z</time>
      </trkpt>
      <trkpt lat="43.83388" lon="4.18858">
        <ele>186.6</ele>
        <time>2026-05-09T08:52:43.000Z</time>
      </trkpt>
      <trkpt lat="43.83387" lon="4.18859">
        <ele>186.3</ele>
        <time>2026-05-09T08:52:44.000Z</time>
      </trkpt>
      <trkpt lat="43.83386" lon="4.1886">
        <ele>186.1</ele>
        <time>2026-05-09T08:52:45.000Z</time>
      </trkpt>
      <trkpt lat="43.83386" lon="4.1886">
        <ele>186</ele>
        <time>2026-05-09T08:52:46.000Z</time>
      </trkpt>
      <trkpt lat="43.83385" lon="4.1886">
        <ele>185.9</ele>
        <time>2026-05-09T08:52:47.000Z</time>
      </trkpt>
      <trkpt lat="43.83384" lon="4.1886">
        <ele>185.7</ele>
        <time>2026-05-09T08:52:48.000Z</time>
      </trkpt>
      <trkpt lat="43.83383" lon="4.1886">
        <ele>185.4</ele>
        <time>2026-05-09T08:52:49.000Z</time>
      </trkpt>
      <trkpt lat="43.83382" lon="4.18859">
        <ele>184.9</ele>
        <time>2026-05-09T08:52:50.000Z</time>
      </trkpt>
      <trkpt lat="43.83382" lon="4.18857">
        <ele>184.7</ele>
        <time>2026-05-09T08:52:51.000Z</time>
      </trkpt>
      <trkpt lat="43.83382" lon="4.18856">
        <ele>184.5</ele>
        <time>2026-05-09T08:52:52.000Z</time>
      </trkpt>
      <trkpt lat="43.83382" lon="4.18855">
        <ele>184.2</ele>
        <time>2026-05-09T08:52:53.000Z</time>
      </trkpt>
      <trkpt lat="43.83382" lon="4.18854">
        <ele>183.7</ele>
        <time>2026-05-09T08:52:54.000Z</time>
      </trkpt>
      <trkpt lat="43.83383" lon="4.18852">
        <ele>183.6</ele>
        <time>2026-05-09T08:52:55.000Z</time>
      </trkpt>
      <trkpt lat="43.83383" lon="4.18851">
        <ele>184</ele>
        <time>2026-05-09T08:52:56.000Z</time>
      </trkpt>
      <trkpt lat="43.83384" lon="4.18849">
        <ele>184</ele>
        <time>2026-05-09T08:52:57.000Z</time>
      </trkpt>
      <trkpt lat="43.83385" lon="4.18848">
        <ele>183.9</ele>
        <time>2026-05-09T08:52:58.000Z</time>
      </trkpt>
      <trkpt lat="43.83385" lon="4.18846">
        <ele>183.8</ele>
        <time>2026-05-09T08:52:59.000Z</time>
      </trkpt>
      <trkpt lat="43.83385" lon="4.18844">
        <ele>183.9</ele>
        <time>2026-05-09T08:53:00.000Z</time>
      </trkpt>
      <trkpt lat="43.83385" lon="4.18842">
        <ele>183.9</ele>
        <time>2026-05-09T08:53:01.000Z</time>
      </trkpt>
      <trkpt lat="43.83386" lon="4.1884">
        <ele>183.7</ele>
        <time>2026-05-09T08:53:02.000Z</time>
      </trkpt>
      <trkpt lat="43.83386" lon="4.18838">
        <ele>183.2</ele>
        <time>2026-05-09T08:53:03.000Z</time>
      </trkpt>
      <trkpt lat="43.83387" lon="4.18837">
        <ele>183.2</ele>
        <time>2026-05-09T08:53:04.000Z</time>
      </trkpt>
      <trkpt lat="43.83388" lon="4.18836">
        <ele>183.4</ele>
        <time>2026-05-09T08:53:05.000Z</time>
      </trkpt>
      <trkpt lat="43.83388" lon="4.18834">
        <ele>183.4</ele>
        <time>2026-05-09T08:53:06.000Z</time>
      </trkpt>
      <trkpt lat="43.83389" lon="4.18833">
        <ele>183.2</ele>
        <time>2026-05-09T08:53:07.000Z</time>
      </trkpt>
      <trkpt lat="43.83389" lon="4.18831">
        <ele>182.9</ele>
        <time>2026-05-09T08:53:08.000Z</time>
      </trkpt>
      <trkpt lat="43.83389" lon="4.18829">
        <ele>183</ele>
        <time>2026-05-09T08:53:09.000Z</time>
      </trkpt>
      <trkpt lat="43.83389" lon="4.18828">
        <ele>182.9</ele>
        <time>2026-05-09T08:53:10.000Z</time>
      </trkpt>
      <trkpt lat="43.83389" lon="4.18826">
        <ele>183.1</ele>
        <time>2026-05-09T08:53:11.000Z</time>
      </trkpt>
      <trkpt lat="43.83388" lon="4.18825">
        <ele>182.9</ele>
        <time>2026-05-09T08:53:12.000Z</time>
      </trkpt>
      <trkpt lat="43.83388" lon="4.18825">
        <ele>182.7</ele>
        <time>2026-05-09T08:53:13.000Z</time>
      </trkpt>
      <trkpt lat="43.83389" lon="4.18824">
        <ele>182.6</ele>
        <time>2026-05-09T08:53:14.000Z</time>
      </trkpt>
      <trkpt lat="43.83389" lon="4.18824">
        <ele>182.6</ele>
        <time>2026-05-09T08:53:15.000Z</time>
      </trkpt>
      <trkpt lat="43.8339" lon="4.18822">
        <ele>182.5</ele>
        <time>2026-05-09T08:53:16.000Z</time>
      </trkpt>
      <trkpt lat="43.83391" lon="4.18821">
        <ele>182.5</ele>
        <time>2026-05-09T08:53:17.000Z</time>
      </trkpt>
      <trkpt lat="43.83391" lon="4.18821">
        <ele>182.4</ele>
        <time>2026-05-09T08:53:18.000Z</time>
      </trkpt>
      <trkpt lat="43.83392" lon="4.1882">
        <ele>182.3</ele>
        <time>2026-05-09T08:53:19.000Z</time>
      </trkpt>
      <trkpt lat="43.83393" lon="4.18819">
        <ele>182</ele>
        <time>2026-05-09T08:53:20.000Z</time>
      </trkpt>
      <trkpt lat="43.83394" lon="4.18819">
        <ele>181.6</ele>
        <time>2026-05-09T08:53:21.000Z</time>
      </trkpt>
      <trkpt lat="43.83395" lon="4.18818">
        <ele>181.4</ele>
        <time>2026-05-09T08:53:22.000Z</time>
      </trkpt>
      <trkpt lat="43.83395" lon="4.18818">
        <ele>181.4</ele>
        <time>2026-05-09T08:53:23.000Z</time>
      </trkpt>
      <trkpt lat="43.83396" lon="4.18817">
        <ele>181.5</ele>
        <time>2026-05-09T08:53:24.000Z</time>
      </trkpt>
      <trkpt lat="43.83396" lon="4.18817">
        <ele>181.8</ele>
        <time>2026-05-09T08:53:25.000Z</time>
      </trkpt>
      <trkpt lat="43.83398" lon="4.18816">
        <ele>182.2</ele>
        <time>2026-05-09T08:53:26.000Z</time>
      </trkpt>
      <trkpt lat="43.83399" lon="4.18815">
        <ele>182.4</ele>
        <time>2026-05-09T08:53:27.000Z</time>
      </trkpt>
      <trkpt lat="43.834" lon="4.18815">
        <ele>182.7</ele>
        <time>2026-05-09T08:53:28.000Z</time>
      </trkpt>
      <trkpt lat="43.83401" lon="4.18815">
        <ele>182.9</ele>
        <time>2026-05-09T08:53:29.000Z</time>
      </trkpt>
      <trkpt lat="43.83402" lon="4.18813">
        <ele>183.2</ele>
        <time>2026-05-09T08:53:31.000Z</time>
      </trkpt>
      <trkpt lat="43.83402" lon="4.18811">
        <ele>183.4</ele>
        <time>2026-05-09T08:53:32.000Z</time>
      </trkpt>
      <trkpt lat="43.83403" lon="4.18809">
        <ele>183.6</ele>
        <time>2026-05-09T08:53:33.000Z</time>
      </trkpt>
      <trkpt lat="43.83403" lon="4.18808">
        <ele>183.3</ele>
        <time>2026-05-09T08:53:34.000Z</time>
      </trkpt>
      <trkpt lat="43.83404" lon="4.18806">
        <ele>183.4</ele>
        <time>2026-05-09T08:53:35.000Z</time>
      </trkpt>
      <trkpt lat="43.83403" lon="4.18805">
        <ele>181.8</ele>
        <time>2026-05-09T08:53:36.000Z</time>
      </trkpt>
      <trkpt lat="43.83403" lon="4.18805">
        <ele>181.5</ele>
        <time>2026-05-09T08:53:37.000Z</time>
      </trkpt>
      <trkpt lat="43.83402" lon="4.18806">
        <ele>181.4</ele>
        <time>2026-05-09T08:53:38.000Z</time>
      </trkpt>
      <trkpt lat="43.83402" lon="4.18805">
        <ele>181.2</ele>
        <time>2026-05-09T08:53:39.000Z</time>
      </trkpt>
      <trkpt lat="43.83402" lon="4.18805">
        <ele>181.4</ele>
        <time>2026-05-09T08:53:40.000Z</time>
      </trkpt>
      <trkpt lat="43.83403" lon="4.18803">
        <ele>181</ele>
        <time>2026-05-09T08:53:41.000Z</time>
      </trkpt>
      <trkpt lat="43.83403" lon="4.18801">
        <ele>181</ele>
        <time>2026-05-09T08:53:42.000Z</time>
      </trkpt>
      <trkpt lat="43.83403" lon="4.188">
        <ele>180.9</ele>
        <time>2026-05-09T08:53:43.000Z</time>
      </trkpt>
      <trkpt lat="43.83402" lon="4.18799">
        <ele>180.7</ele>
        <time>2026-05-09T08:53:44.000Z</time>
      </trkpt>
      <trkpt lat="43.83402" lon="4.18798">
        <ele>180.5</ele>
        <time>2026-05-09T08:53:45.000Z</time>
      </trkpt>
      <trkpt lat="43.83401" lon="4.18797">
        <ele>180.3</ele>
        <time>2026-05-09T08:53:46.000Z</time>
      </trkpt>
      <trkpt lat="43.83401" lon="4.18796">
        <ele>179.6</ele>
        <time>2026-05-09T08:53:47.000Z</time>
      </trkpt>
      <trkpt lat="43.834" lon="4.18795">
        <ele>179.2</ele>
        <time>2026-05-09T08:53:48.000Z</time>
      </trkpt>
      <trkpt lat="43.834" lon="4.18794">
        <ele>179.2</ele>
        <time>2026-05-09T08:53:49.000Z</time>
      </trkpt>
      <trkpt lat="43.834" lon="4.18793">
        <ele>179</ele>
        <time>2026-05-09T08:53:50.000Z</time>
      </trkpt>
      <trkpt lat="43.834" lon="4.18792">
        <ele>178.9</ele>
        <time>2026-05-09T08:53:51.000Z</time>
      </trkpt>
      <trkpt lat="43.834" lon="4.1879">
        <ele>178.5</ele>
        <time>2026-05-09T08:53:52.000Z</time>
      </trkpt>
      <trkpt lat="43.834" lon="4.18788">
        <ele>178.5</ele>
        <time>2026-05-09T08:53:53.000Z</time>
      </trkpt>
      <trkpt lat="43.834" lon="4.18787">
        <ele>178.4</ele>
        <time>2026-05-09T08:53:54.000Z</time>
      </trkpt>
      <trkpt lat="43.83401" lon="4.18786">
        <ele>178.2</ele>
        <time>2026-05-09T08:53:55.000Z</time>
      </trkpt>
      <trkpt lat="43.834" lon="4.18785">
        <ele>177.9</ele>
        <time>2026-05-09T08:53:56.000Z</time>
      </trkpt>
      <trkpt lat="43.83399" lon="4.18784">
        <ele>177.9</ele>
        <time>2026-05-09T08:53:57.000Z</time>
      </trkpt>
      <trkpt lat="43.83399" lon="4.18783">
        <ele>177.6</ele>
        <time>2026-05-09T08:53:58.000Z</time>
      </trkpt>
      <trkpt lat="43.83398" lon="4.18782">
        <ele>178</ele>
        <time>2026-05-09T08:53:59.000Z</time>
      </trkpt>
      <trkpt lat="43.83398" lon="4.18782">
        <ele>177.7</ele>
        <time>2026-05-09T08:54:00.000Z</time>
      </trkpt>
      <trkpt lat="43.83398" lon="4.18781">
        <ele>177.3</ele>
        <time>2026-05-09T08:54:01.000Z</time>
      </trkpt>
      <trkpt lat="43.83398" lon="4.1878">
        <ele>177.3</ele>
        <time>2026-05-09T08:54:02.000Z</time>
      </trkpt>
      <trkpt lat="43.83397" lon="4.18779">
        <ele>176.9</ele>
        <time>2026-05-09T08:54:03.000Z</time>
      </trkpt>
      <trkpt lat="43.83397" lon="4.18778">
        <ele>176.6</ele>
        <time>2026-05-09T08:54:04.000Z</time>
      </trkpt>
      <trkpt lat="43.83397" lon="4.18777">
        <ele>176</ele>
        <time>2026-05-09T08:54:05.000Z</time>
      </trkpt>
      <trkpt lat="43.83398" lon="4.18775">
        <ele>175.9</ele>
        <time>2026-05-09T08:54:06.000Z</time>
      </trkpt>
      <trkpt lat="43.83399" lon="4.18774">
        <ele>176.2</ele>
        <time>2026-05-09T08:54:07.000Z</time>
      </trkpt>
      <trkpt lat="43.83399" lon="4.18773">
        <ele>176.3</ele>
        <time>2026-05-09T08:54:08.000Z</time>
      </trkpt>
      <trkpt lat="43.83399" lon="4.18773">
        <ele>178.6</ele>
        <time>2026-05-09T08:54:09.000Z</time>
      </trkpt>
      <trkpt lat="43.83399" lon="4.18773">
        <ele>178.7</ele>
        <time>2026-05-09T08:54:10.000Z</time>
      </trkpt>
      <trkpt lat="43.83399" lon="4.18772">
        <ele>178.5</ele>
        <time>2026-05-09T08:54:11.000Z</time>
      </trkpt>
      <trkpt lat="43.83399" lon="4.18772">
        <ele>178.3</ele>
        <time>2026-05-09T08:54:12.000Z</time>
      </trkpt>
      <trkpt lat="43.83399" lon="4.18772">
        <ele>178.1</ele>
        <time>2026-05-09T08:54:13.000Z</time>
      </trkpt>
      <trkpt lat="43.83399" lon="4.18772">
        <ele>177.6</ele>
        <time>2026-05-09T08:54:14.000Z</time>
      </trkpt>
      <trkpt lat="43.83399" lon="4.18772">
        <ele>177.2</ele>
        <time>2026-05-09T08:54:15.000Z</time>
      </trkpt>
      <trkpt lat="43.83399" lon="4.18772">
        <ele>176.7</ele>
        <time>2026-05-09T08:54:16.000Z</time>
      </trkpt>
      <trkpt lat="43.83399" lon="4.18772">
        <ele>176.2</ele>
        <time>2026-05-09T08:54:17.000Z</time>
      </trkpt>
      <trkpt lat="43.83399" lon="4.18772">
        <ele>176</ele>
        <time>2026-05-09T08:54:18.000Z</time>
      </trkpt>
      <trkpt lat="43.83399" lon="4.18771">
        <ele>176</ele>
        <time>2026-05-09T08:54:19.000Z</time>
      </trkpt>
      <trkpt lat="43.83399" lon="4.18771">
        <ele>175.9</ele>
        <time>2026-05-09T08:54:20.000Z</time>
      </trkpt>
      <trkpt lat="43.83399" lon="4.18771">
        <ele>175.8</ele>
        <time>2026-05-09T08:54:21.000Z</time>
      </trkpt>
      <trkpt lat="43.83399" lon="4.18771">
        <ele>176</ele>
        <time>2026-05-09T08:54:22.000Z</time>
      </trkpt>
      <trkpt lat="43.83399" lon="4.1877">
        <ele>176</ele>
        <time>2026-05-09T08:54:23.000Z</time>
      </trkpt>
      <trkpt lat="43.83399" lon="4.1877">
        <ele>175.7</ele>
        <time>2026-05-09T08:54:24.000Z</time>
      </trkpt>
      <trkpt lat="43.83399" lon="4.18769">
        <ele>175.7</ele>
        <time>2026-05-09T08:54:25.000Z</time>
      </trkpt>
      <trkpt lat="43.83399" lon="4.18767">
        <ele>175.7</ele>
        <time>2026-05-09T08:54:26.000Z</time>
      </trkpt>
      <trkpt lat="43.83399" lon="4.18764">
        <ele>175.6</ele>
        <time>2026-05-09T08:54:27.000Z</time>
      </trkpt>
      <trkpt lat="43.83398" lon="4.18762">
        <ele>175.8</ele>
        <time>2026-05-09T08:54:28.000Z</time>
      </trkpt>
      <trkpt lat="43.83398" lon="4.18762">
        <ele>175.7</ele>
        <time>2026-05-09T08:54:29.000Z</time>
      </trkpt>
      <trkpt lat="43.83398" lon="4.18761">
        <ele>175.5</ele>
        <time>2026-05-09T08:54:30.000Z</time>
      </trkpt>
      <trkpt lat="43.83398" lon="4.18761">
        <ele>175.4</ele>
        <time>2026-05-09T08:54:31.000Z</time>
      </trkpt>
      <trkpt lat="43.83397" lon="4.18759">
        <ele>175.1</ele>
        <time>2026-05-09T08:54:32.000Z</time>
      </trkpt>
      <trkpt lat="43.83397" lon="4.18757">
        <ele>175.1</ele>
        <time>2026-05-09T08:54:33.000Z</time>
      </trkpt>
      <trkpt lat="43.83397" lon="4.18755">
        <ele>175.3</ele>
        <time>2026-05-09T08:54:34.000Z</time>
      </trkpt>
      <trkpt lat="43.83397" lon="4.18753">
        <ele>175.7</ele>
        <time>2026-05-09T08:54:35.000Z</time>
      </trkpt>
      <trkpt lat="43.83397" lon="4.1875">
        <ele>175.9</ele>
        <time>2026-05-09T08:54:36.000Z</time>
      </trkpt>
      <trkpt lat="43.83398" lon="4.18747">
        <ele>175.8</ele>
        <time>2026-05-09T08:54:37.000Z</time>
      </trkpt>
      <trkpt lat="43.83398" lon="4.18745">
        <ele>175.7</ele>
        <time>2026-05-09T08:54:38.000Z</time>
      </trkpt>
      <trkpt lat="43.83398" lon="4.18742">
        <ele>175.6</ele>
        <time>2026-05-09T08:54:39.000Z</time>
      </trkpt>
      <trkpt lat="43.83398" lon="4.1874">
        <ele>175.6</ele>
        <time>2026-05-09T08:54:40.000Z</time>
      </trkpt>
      <trkpt lat="43.83399" lon="4.18739">
        <ele>175.6</ele>
        <time>2026-05-09T08:54:41.000Z</time>
      </trkpt>
      <trkpt lat="43.83399" lon="4.18737">
        <ele>175.7</ele>
        <time>2026-05-09T08:54:42.000Z</time>
      </trkpt>
      <trkpt lat="43.834" lon="4.18735">
        <ele>175.8</ele>
        <time>2026-05-09T08:54:43.000Z</time>
      </trkpt>
      <trkpt lat="43.834" lon="4.18733">
        <ele>175.8</ele>
        <time>2026-05-09T08:54:44.000Z</time>
      </trkpt>
      <trkpt lat="43.834" lon="4.18732">
        <ele>175.7</ele>
        <time>2026-05-09T08:54:45.000Z</time>
      </trkpt>
      <trkpt lat="43.834" lon="4.1873">
        <ele>175.8</ele>
        <time>2026-05-09T08:54:46.000Z</time>
      </trkpt>
      <trkpt lat="43.834" lon="4.18728">
        <ele>175.4</ele>
        <time>2026-05-09T08:54:47.000Z</time>
      </trkpt>
      <trkpt lat="43.83401" lon="4.18726">
        <ele>174.9</ele>
        <time>2026-05-09T08:54:48.000Z</time>
      </trkpt>
      <trkpt lat="43.83401" lon="4.18723">
        <ele>174.5</ele>
        <time>2026-05-09T08:54:49.000Z</time>
      </trkpt>
      <trkpt lat="43.83401" lon="4.18721">
        <ele>174.5</ele>
        <time>2026-05-09T08:54:50.000Z</time>
      </trkpt>
      <trkpt lat="43.83401" lon="4.18719">
        <ele>174.6</ele>
        <time>2026-05-09T08:54:51.000Z</time>
      </trkpt>
      <trkpt lat="43.83401" lon="4.18717">
        <ele>174.7</ele>
        <time>2026-05-09T08:54:52.000Z</time>
      </trkpt>
      <trkpt lat="43.83401" lon="4.18715">
        <ele>174.9</ele>
        <time>2026-05-09T08:54:53.000Z</time>
      </trkpt>
      <trkpt lat="43.83401" lon="4.18712">
        <ele>174.9</ele>
        <time>2026-05-09T08:54:54.000Z</time>
      </trkpt>
      <trkpt lat="43.834" lon="4.18709">
        <ele>175.6</ele>
        <time>2026-05-09T08:54:55.000Z</time>
      </trkpt>
      <trkpt lat="43.83399" lon="4.18708">
        <ele>176.1</ele>
        <time>2026-05-09T08:54:56.000Z</time>
      </trkpt>
      <trkpt lat="43.83399" lon="4.18706">
        <ele>176.3</ele>
        <time>2026-05-09T08:54:57.000Z</time>
      </trkpt>
      <trkpt lat="43.83398" lon="4.18705">
        <ele>176.5</ele>
        <time>2026-05-09T08:54:58.000Z</time>
      </trkpt>
      <trkpt lat="43.83398" lon="4.18705">
        <ele>176.7</ele>
        <time>2026-05-09T08:54:59.000Z</time>
      </trkpt>
      <trkpt lat="43.83398" lon="4.18704">
        <ele>175.9</ele>
        <time>2026-05-09T08:55:00.000Z</time>
      </trkpt>
      <trkpt lat="43.83398" lon="4.18703">
        <ele>176.4</ele>
        <time>2026-05-09T08:55:01.000Z</time>
      </trkpt>
      <trkpt lat="43.83399" lon="4.18702">
        <ele>177</ele>
        <time>2026-05-09T08:55:02.000Z</time>
      </trkpt>
      <trkpt lat="43.83399" lon="4.18701">
        <ele>177.3</ele>
        <time>2026-05-09T08:55:03.000Z</time>
      </trkpt>
      <trkpt lat="43.834" lon="4.187">
        <ele>177.3</ele>
        <time>2026-05-09T08:55:04.000Z</time>
      </trkpt>
      <trkpt lat="43.834" lon="4.18699">
        <ele>177.3</ele>
        <time>2026-05-09T08:55:05.000Z</time>
      </trkpt>
      <trkpt lat="43.834" lon="4.18697">
        <ele>177</ele>
        <time>2026-05-09T08:55:06.000Z</time>
      </trkpt>
      <trkpt lat="43.834" lon="4.18696">
        <ele>176.7</ele>
        <time>2026-05-09T08:55:07.000Z</time>
      </trkpt>
      <trkpt lat="43.83401" lon="4.18694">
        <ele>177</ele>
        <time>2026-05-09T08:55:08.000Z</time>
      </trkpt>
      <trkpt lat="43.83401" lon="4.18692">
        <ele>176.9</ele>
        <time>2026-05-09T08:55:09.000Z</time>
      </trkpt>
      <trkpt lat="43.83401" lon="4.1869">
        <ele>176.9</ele>
        <time>2026-05-09T08:55:10.000Z</time>
      </trkpt>
      <trkpt lat="43.834" lon="4.18688">
        <ele>177</ele>
        <time>2026-05-09T08:55:11.000Z</time>
      </trkpt>
      <trkpt lat="43.834" lon="4.18687">
        <ele>176.9</ele>
        <time>2026-05-09T08:55:12.000Z</time>
      </trkpt>
      <trkpt lat="43.83399" lon="4.18685">
        <ele>176.7</ele>
        <time>2026-05-09T08:55:13.000Z</time>
      </trkpt>
      <trkpt lat="43.83399" lon="4.18684">
        <ele>176.8</ele>
        <time>2026-05-09T08:55:14.000Z</time>
      </trkpt>
      <trkpt lat="43.83399" lon="4.18684">
        <ele>176.4</ele>
        <time>2026-05-09T08:55:15.000Z</time>
      </trkpt>
      <trkpt lat="43.83397" lon="4.18685">
        <ele>176.3</ele>
        <time>2026-05-09T08:55:16.000Z</time>
      </trkpt>
      <trkpt lat="43.83395" lon="4.18686">
        <ele>175.8</ele>
        <time>2026-05-09T08:55:17.000Z</time>
      </trkpt>
      <trkpt lat="43.83394" lon="4.18686">
        <ele>175.6</ele>
        <time>2026-05-09T08:55:18.000Z</time>
      </trkpt>
      <trkpt lat="43.83392" lon="4.18686">
        <ele>175.6</ele>
        <time>2026-05-09T08:55:19.000Z</time>
      </trkpt>
      <trkpt lat="43.83392" lon="4.18687">
        <ele>175.7</ele>
        <time>2026-05-09T08:55:20.000Z</time>
      </trkpt>
      <trkpt lat="43.83391" lon="4.18687">
        <ele>175.9</ele>
        <time>2026-05-09T08:55:21.000Z</time>
      </trkpt>
      <trkpt lat="43.83391" lon="4.18687">
        <ele>175.9</ele>
        <time>2026-05-09T08:55:22.000Z</time>
      </trkpt>
      <trkpt lat="43.8339" lon="4.18687">
        <ele>175.8</ele>
        <time>2026-05-09T08:55:23.000Z</time>
      </trkpt>
      <trkpt lat="43.83389" lon="4.18688">
        <ele>175.7</ele>
        <time>2026-05-09T08:55:24.000Z</time>
      </trkpt>
      <trkpt lat="43.83388" lon="4.18689">
        <ele>175.9</ele>
        <time>2026-05-09T08:55:25.000Z</time>
      </trkpt>
      <trkpt lat="43.83387" lon="4.18689">
        <ele>176</ele>
        <time>2026-05-09T08:55:26.000Z</time>
      </trkpt>
      <trkpt lat="43.83387" lon="4.18689">
        <ele>175.7</ele>
        <time>2026-05-09T08:55:27.000Z</time>
      </trkpt>
      <trkpt lat="43.83386" lon="4.1869">
        <ele>175.5</ele>
        <time>2026-05-09T08:55:28.000Z</time>
      </trkpt>
      <trkpt lat="43.83384" lon="4.18691">
        <ele>175.3</ele>
        <time>2026-05-09T08:55:29.000Z</time>
      </trkpt>
      <trkpt lat="43.83382" lon="4.18692">
        <ele>175.2</ele>
        <time>2026-05-09T08:55:30.000Z</time>
      </trkpt>
      <trkpt lat="43.83381" lon="4.18693">
        <ele>175</ele>
        <time>2026-05-09T08:55:31.000Z</time>
      </trkpt>
      <trkpt lat="43.83379" lon="4.18693">
        <ele>175</ele>
        <time>2026-05-09T08:55:32.000Z</time>
      </trkpt>
      <trkpt lat="43.83378" lon="4.18694">
        <ele>175</ele>
        <time>2026-05-09T08:55:33.000Z</time>
      </trkpt>
      <trkpt lat="43.83376" lon="4.18694">
        <ele>174.9</ele>
        <time>2026-05-09T08:55:34.000Z</time>
      </trkpt>
      <trkpt lat="43.83375" lon="4.18694">
        <ele>174.9</ele>
        <time>2026-05-09T08:55:35.000Z</time>
      </trkpt>
      <trkpt lat="43.83374" lon="4.18694">
        <ele>174.9</ele>
        <time>2026-05-09T08:55:36.000Z</time>
      </trkpt>
      <trkpt lat="43.83374" lon="4.18693">
        <ele>175.2</ele>
        <time>2026-05-09T08:55:37.000Z</time>
      </trkpt>
      <trkpt lat="43.83374" lon="4.18693">
        <ele>175.4</ele>
        <time>2026-05-09T08:55:38.000Z</time>
      </trkpt>
      <trkpt lat="43.83373" lon="4.18693">
        <ele>175.4</ele>
        <time>2026-05-09T08:55:39.000Z</time>
      </trkpt>
      <trkpt lat="43.83373" lon="4.18693">
        <ele>175.6</ele>
        <time>2026-05-09T08:55:40.000Z</time>
      </trkpt>
      <trkpt lat="43.83374" lon="4.18692">
        <ele>175.6</ele>
        <time>2026-05-09T08:55:41.000Z</time>
      </trkpt>
      <trkpt lat="43.83373" lon="4.18691">
        <ele>175.5</ele>
        <time>2026-05-09T08:55:42.000Z</time>
      </trkpt>
      <trkpt lat="43.83374" lon="4.1869">
        <ele>175.5</ele>
        <time>2026-05-09T08:55:43.000Z</time>
      </trkpt>
      <trkpt lat="43.83374" lon="4.18689">
        <ele>175.1</ele>
        <time>2026-05-09T08:55:44.000Z</time>
      </trkpt>
      <trkpt lat="43.83374" lon="4.18688">
        <ele>174.8</ele>
        <time>2026-05-09T08:55:45.000Z</time>
      </trkpt>
      <trkpt lat="43.83374" lon="4.18687">
        <ele>174.6</ele>
        <time>2026-05-09T08:55:46.000Z</time>
      </trkpt>
      <trkpt lat="43.83373" lon="4.18686">
        <ele>174.5</ele>
        <time>2026-05-09T08:55:47.000Z</time>
      </trkpt>
      <trkpt lat="43.83373" lon="4.18685">
        <ele>174.5</ele>
        <time>2026-05-09T08:55:48.000Z</time>
      </trkpt>
      <trkpt lat="43.83373" lon="4.18684">
        <ele>174.6</ele>
        <time>2026-05-09T08:55:49.000Z</time>
      </trkpt>
      <trkpt lat="43.83373" lon="4.18682">
        <ele>174.8</ele>
        <time>2026-05-09T08:55:50.000Z</time>
      </trkpt>
      <trkpt lat="43.83373" lon="4.1868">
        <ele>174.7</ele>
        <time>2026-05-09T08:55:51.000Z</time>
      </trkpt>
      <trkpt lat="43.83373" lon="4.18679">
        <ele>174.6</ele>
        <time>2026-05-09T08:55:52.000Z</time>
      </trkpt>
      <trkpt lat="43.83373" lon="4.18678">
        <ele>174.7</ele>
        <time>2026-05-09T08:55:53.000Z</time>
      </trkpt>
      <trkpt lat="43.83374" lon="4.18677">
        <ele>174.6</ele>
        <time>2026-05-09T08:55:54.000Z</time>
      </trkpt>
      <trkpt lat="43.83374" lon="4.18675">
        <ele>174.4</ele>
        <time>2026-05-09T08:55:55.000Z</time>
      </trkpt>
      <trkpt lat="43.83374" lon="4.18672">
        <ele>174.1</ele>
        <time>2026-05-09T08:55:56.000Z</time>
      </trkpt>
      <trkpt lat="43.83375" lon="4.1867">
        <ele>173.7</ele>
        <time>2026-05-09T08:55:57.000Z</time>
      </trkpt>
      <trkpt lat="43.83375" lon="4.18668">
        <ele>173.5</ele>
        <time>2026-05-09T08:55:58.000Z</time>
      </trkpt>
      <trkpt lat="43.83375" lon="4.18666">
        <ele>173.5</ele>
        <time>2026-05-09T08:55:59.000Z</time>
      </trkpt>
      <trkpt lat="43.83374" lon="4.18666">
        <ele>173.1</ele>
        <time>2026-05-09T08:56:00.000Z</time>
      </trkpt>
      <trkpt lat="43.83374" lon="4.18665">
        <ele>173.1</ele>
        <time>2026-05-09T08:56:01.000Z</time>
      </trkpt>
      <trkpt lat="43.83373" lon="4.18665">
        <ele>173.1</ele>
        <time>2026-05-09T08:56:02.000Z</time>
      </trkpt>
      <trkpt lat="43.83372" lon="4.18665">
        <ele>173</ele>
        <time>2026-05-09T08:56:03.000Z</time>
      </trkpt>
      <trkpt lat="43.8337" lon="4.18665">
        <ele>172.9</ele>
        <time>2026-05-09T08:56:04.000Z</time>
      </trkpt>
      <trkpt lat="43.83369" lon="4.18665">
        <ele>172.7</ele>
        <time>2026-05-09T08:56:05.000Z</time>
      </trkpt>
      <trkpt lat="43.83369" lon="4.18665">
        <ele>172.6</ele>
        <time>2026-05-09T08:56:06.000Z</time>
      </trkpt>
      <trkpt lat="43.83368" lon="4.18664">
        <ele>172.4</ele>
        <time>2026-05-09T08:56:07.000Z</time>
      </trkpt>
      <trkpt lat="43.83368" lon="4.18663">
        <ele>172.5</ele>
        <time>2026-05-09T08:56:08.000Z</time>
      </trkpt>
      <trkpt lat="43.83368" lon="4.18662">
        <ele>172.3</ele>
        <time>2026-05-09T08:56:09.000Z</time>
      </trkpt>
      <trkpt lat="43.83367" lon="4.18661">
        <ele>172.2</ele>
        <time>2026-05-09T08:56:10.000Z</time>
      </trkpt>
      <trkpt lat="43.83367" lon="4.1866">
        <ele>172.1</ele>
        <time>2026-05-09T08:56:11.000Z</time>
      </trkpt>
      <trkpt lat="43.83367" lon="4.1866">
        <ele>172.1</ele>
        <time>2026-05-09T08:56:12.000Z</time>
      </trkpt>
      <trkpt lat="43.83367" lon="4.1866">
        <ele>172.1</ele>
        <time>2026-05-09T08:56:13.000Z</time>
      </trkpt>
      <trkpt lat="43.83367" lon="4.1866">
        <ele>172</ele>
        <time>2026-05-09T08:56:14.000Z</time>
      </trkpt>
      <trkpt lat="43.83366" lon="4.1866">
        <ele>171.7</ele>
        <time>2026-05-09T08:56:15.000Z</time>
      </trkpt>
      <trkpt lat="43.83365" lon="4.1866">
        <ele>171.5</ele>
        <time>2026-05-09T08:56:16.000Z</time>
      </trkpt>
      <trkpt lat="43.83364" lon="4.1866">
        <ele>171.2</ele>
        <time>2026-05-09T08:56:17.000Z</time>
      </trkpt>
      <trkpt lat="43.83363" lon="4.18659">
        <ele>170.8</ele>
        <time>2026-05-09T08:56:18.000Z</time>
      </trkpt>
      <trkpt lat="43.83362" lon="4.18659">
        <ele>170.8</ele>
        <time>2026-05-09T08:56:19.000Z</time>
      </trkpt>
      <trkpt lat="43.83361" lon="4.18658">
        <ele>170.7</ele>
        <time>2026-05-09T08:56:20.000Z</time>
      </trkpt>
      <trkpt lat="43.83361" lon="4.18658">
        <ele>170.7</ele>
        <time>2026-05-09T08:56:21.000Z</time>
      </trkpt>
      <trkpt lat="43.8336" lon="4.18658">
        <ele>170.8</ele>
        <time>2026-05-09T08:56:22.000Z</time>
      </trkpt>
      <trkpt lat="43.83359" lon="4.18658">
        <ele>170.9</ele>
        <time>2026-05-09T08:56:23.000Z</time>
      </trkpt>
      <trkpt lat="43.83358" lon="4.18657">
        <ele>170.8</ele>
        <time>2026-05-09T08:56:24.000Z</time>
      </trkpt>
      <trkpt lat="43.83357" lon="4.18658">
        <ele>171</ele>
        <time>2026-05-09T08:56:25.000Z</time>
      </trkpt>
      <trkpt lat="43.83355" lon="4.18658">
        <ele>170.6</ele>
        <time>2026-05-09T08:56:26.000Z</time>
      </trkpt>
      <trkpt lat="43.83352" lon="4.18659">
        <ele>170.2</ele>
        <time>2026-05-09T08:56:27.000Z</time>
      </trkpt>
      <trkpt lat="43.8335" lon="4.18659">
        <ele>170</ele>
        <time>2026-05-09T08:56:28.000Z</time>
      </trkpt>
      <trkpt lat="43.83349" lon="4.1866">
        <ele>169.6</ele>
        <time>2026-05-09T08:56:29.000Z</time>
      </trkpt>
      <trkpt lat="43.83349" lon="4.18661">
        <ele>169.1</ele>
        <time>2026-05-09T08:56:30.000Z</time>
      </trkpt>
      <trkpt lat="43.83348" lon="4.18662">
        <ele>168.9</ele>
        <time>2026-05-09T08:56:31.000Z</time>
      </trkpt>
      <trkpt lat="43.83347" lon="4.18663">
        <ele>168.6</ele>
        <time>2026-05-09T08:56:32.000Z</time>
      </trkpt>
      <trkpt lat="43.83346" lon="4.18663">
        <ele>168.5</ele>
        <time>2026-05-09T08:56:33.000Z</time>
      </trkpt>
      <trkpt lat="43.83345" lon="4.18664">
        <ele>168.3</ele>
        <time>2026-05-09T08:56:34.000Z</time>
      </trkpt>
      <trkpt lat="43.83344" lon="4.18665">
        <ele>168.5</ele>
        <time>2026-05-09T08:56:35.000Z</time>
      </trkpt>
      <trkpt lat="43.83343" lon="4.18665">
        <ele>168.7</ele>
        <time>2026-05-09T08:56:36.000Z</time>
      </trkpt>
      <trkpt lat="43.83342" lon="4.18666">
        <ele>168.7</ele>
        <time>2026-05-09T08:56:37.000Z</time>
      </trkpt>
      <trkpt lat="43.83341" lon="4.18666">
        <ele>168.6</ele>
        <time>2026-05-09T08:56:38.000Z</time>
      </trkpt>
      <trkpt lat="43.8334" lon="4.18666">
        <ele>168.5</ele>
        <time>2026-05-09T08:56:39.000Z</time>
      </trkpt>
      <trkpt lat="43.83339" lon="4.18667">
        <ele>168.7</ele>
        <time>2026-05-09T08:56:40.000Z</time>
      </trkpt>
      <trkpt lat="43.83338" lon="4.18667">
        <ele>168.8</ele>
        <time>2026-05-09T08:56:41.000Z</time>
      </trkpt>
      <trkpt lat="43.83338" lon="4.18668">
        <ele>168.6</ele>
        <time>2026-05-09T08:56:42.000Z</time>
      </trkpt>
      <trkpt lat="43.83337" lon="4.18668">
        <ele>168.5</ele>
        <time>2026-05-09T08:56:43.000Z</time>
      </trkpt>
      <trkpt lat="43.83336" lon="4.18668">
        <ele>168.6</ele>
        <time>2026-05-09T08:56:44.000Z</time>
      </trkpt>
      <trkpt lat="43.83336" lon="4.18668">
        <ele>168.5</ele>
        <time>2026-05-09T08:56:45.000Z</time>
      </trkpt>
      <trkpt lat="43.83336" lon="4.18668">
        <ele>168.2</ele>
        <time>2026-05-09T08:56:46.000Z</time>
      </trkpt>
      <trkpt lat="43.83336" lon="4.18668">
        <ele>168</ele>
        <time>2026-05-09T08:56:47.000Z</time>
      </trkpt>
      <trkpt lat="43.83335" lon="4.18668">
        <ele>168.1</ele>
        <time>2026-05-09T08:56:48.000Z</time>
      </trkpt>
      <trkpt lat="43.83335" lon="4.18668">
        <ele>168.2</ele>
        <time>2026-05-09T08:56:49.000Z</time>
      </trkpt>
      <trkpt lat="43.83334" lon="4.18668">
        <ele>168.1</ele>
        <time>2026-05-09T08:56:50.000Z</time>
      </trkpt>
      <trkpt lat="43.83334" lon="4.18669">
        <ele>168.4</ele>
        <time>2026-05-09T08:56:51.000Z</time>
      </trkpt>
      <trkpt lat="43.83332" lon="4.18669">
        <ele>168.6</ele>
        <time>2026-05-09T08:56:52.000Z</time>
      </trkpt>
      <trkpt lat="43.83331" lon="4.18669">
        <ele>168.6</ele>
        <time>2026-05-09T08:56:53.000Z</time>
      </trkpt>
      <trkpt lat="43.8333" lon="4.18669">
        <ele>168.4</ele>
        <time>2026-05-09T08:56:54.000Z</time>
      </trkpt>
      <trkpt lat="43.83329" lon="4.1867">
        <ele>168.3</ele>
        <time>2026-05-09T08:56:55.000Z</time>
      </trkpt>
      <trkpt lat="43.83328" lon="4.1867">
        <ele>168.2</ele>
        <time>2026-05-09T08:56:56.000Z</time>
      </trkpt>
      <trkpt lat="43.83327" lon="4.1867">
        <ele>168.1</ele>
        <time>2026-05-09T08:56:57.000Z</time>
      </trkpt>
      <trkpt lat="43.83326" lon="4.18669">
        <ele>168.4</ele>
        <time>2026-05-09T08:56:59.000Z</time>
      </trkpt>
      <trkpt lat="43.83325" lon="4.18669">
        <ele>168.6</ele>
        <time>2026-05-09T08:57:00.000Z</time>
      </trkpt>
      <trkpt lat="43.83324" lon="4.18669">
        <ele>168.6</ele>
        <time>2026-05-09T08:57:01.000Z</time>
      </trkpt>
      <trkpt lat="43.83324" lon="4.18669">
        <ele>168.3</ele>
        <time>2026-05-09T08:57:02.000Z</time>
      </trkpt>
      <trkpt lat="43.83323" lon="4.1867">
        <ele>168</ele>
        <time>2026-05-09T08:57:03.000Z</time>
      </trkpt>
      <trkpt lat="43.83323" lon="4.1867">
        <ele>167.9</ele>
        <time>2026-05-09T08:57:04.000Z</time>
      </trkpt>
      <trkpt lat="43.83323" lon="4.1867">
        <ele>167.9</ele>
        <time>2026-05-09T08:57:05.000Z</time>
      </trkpt>
      <trkpt lat="43.83323" lon="4.1867">
        <ele>167.6</ele>
        <time>2026-05-09T08:57:06.000Z</time>
      </trkpt>
      <trkpt lat="43.83322" lon="4.1867">
        <ele>167.7</ele>
        <time>2026-05-09T08:57:07.000Z</time>
      </trkpt>
      <trkpt lat="43.83322" lon="4.1867">
        <ele>168.5</ele>
        <time>2026-05-09T08:57:08.000Z</time>
      </trkpt>
      <trkpt lat="43.83322" lon="4.1867">
        <ele>168.7</ele>
        <time>2026-05-09T08:57:10.000Z</time>
      </trkpt>
      <trkpt lat="43.83322" lon="4.1867">
        <ele>168.6</ele>
        <time>2026-05-09T08:57:11.000Z</time>
      </trkpt>
      <trkpt lat="43.83322" lon="4.1867">
        <ele>168.4</ele>
        <time>2026-05-09T08:57:12.000Z</time>
      </trkpt>
      <trkpt lat="43.83322" lon="4.1867">
        <ele>168.3</ele>
        <time>2026-05-09T08:57:13.000Z</time>
      </trkpt>
      <trkpt lat="43.83321" lon="4.1867">
        <ele>168.3</ele>
        <time>2026-05-09T08:57:14.000Z</time>
      </trkpt>
      <trkpt lat="43.83321" lon="4.18671">
        <ele>168.3</ele>
        <time>2026-05-09T08:57:15.000Z</time>
      </trkpt>
      <trkpt lat="43.8332" lon="4.1867">
        <ele>168.7</ele>
        <time>2026-05-09T08:57:16.000Z</time>
      </trkpt>
      <trkpt lat="43.8332" lon="4.1867">
        <ele>168.8</ele>
        <time>2026-05-09T08:57:17.000Z</time>
      </trkpt>
      <trkpt lat="43.83319" lon="4.1867">
        <ele>168.7</ele>
        <time>2026-05-09T08:57:18.000Z</time>
      </trkpt>
      <trkpt lat="43.83319" lon="4.1867">
        <ele>169</ele>
        <time>2026-05-09T08:57:19.000Z</time>
      </trkpt>
      <trkpt lat="43.83317" lon="4.18671">
        <ele>170</ele>
        <time>2026-05-09T08:57:20.000Z</time>
      </trkpt>
      <trkpt lat="43.83317" lon="4.18672">
        <ele>170.6</ele>
        <time>2026-05-09T08:57:21.000Z</time>
      </trkpt>
      <trkpt lat="43.83316" lon="4.18673">
        <ele>170.8</ele>
        <time>2026-05-09T08:57:22.000Z</time>
      </trkpt>
      <trkpt lat="43.83316" lon="4.18673">
        <ele>171.1</ele>
        <time>2026-05-09T08:57:23.000Z</time>
      </trkpt>
      <trkpt lat="43.83315" lon="4.18672">
        <ele>171.4</ele>
        <time>2026-05-09T08:57:24.000Z</time>
      </trkpt>
      <trkpt lat="43.83314" lon="4.18672">
        <ele>171</ele>
        <time>2026-05-09T08:57:25.000Z</time>
      </trkpt>
      <trkpt lat="43.83314" lon="4.18671">
        <ele>171</ele>
        <time>2026-05-09T08:57:26.000Z</time>
      </trkpt>
      <trkpt lat="43.83314" lon="4.18671">
        <ele>171</ele>
        <time>2026-05-09T08:57:27.000Z</time>
      </trkpt>
      <trkpt lat="43.83314" lon="4.18671">
        <ele>171.1</ele>
        <time>2026-05-09T08:57:28.000Z</time>
      </trkpt>
      <trkpt lat="43.83314" lon="4.18671">
        <ele>171.1</ele>
        <time>2026-05-09T08:57:29.000Z</time>
      </trkpt>
      <trkpt lat="43.83314" lon="4.18671">
        <ele>171.2</ele>
        <time>2026-05-09T08:57:30.000Z</time>
      </trkpt>
      <trkpt lat="43.83314" lon="4.18671">
        <ele>171.1</ele>
        <time>2026-05-09T08:57:31.000Z</time>
      </trkpt>
      <trkpt lat="43.83313" lon="4.1867">
        <ele>170.9</ele>
        <time>2026-05-09T08:57:32.000Z</time>
      </trkpt>
      <trkpt lat="43.83313" lon="4.18669">
        <ele>170.6</ele>
        <time>2026-05-09T08:57:33.000Z</time>
      </trkpt>
      <trkpt lat="43.83312" lon="4.18668">
        <ele>170.4</ele>
        <time>2026-05-09T08:57:34.000Z</time>
      </trkpt>
      <trkpt lat="43.83311" lon="4.18667">
        <ele>170.3</ele>
        <time>2026-05-09T08:57:35.000Z</time>
      </trkpt>
      <trkpt lat="43.83311" lon="4.18667">
        <ele>170.2</ele>
        <time>2026-05-09T08:57:36.000Z</time>
      </trkpt>
      <trkpt lat="43.8331" lon="4.18666">
        <ele>170.2</ele>
        <time>2026-05-09T08:57:37.000Z</time>
      </trkpt>
      <trkpt lat="43.83308" lon="4.18665">
        <ele>170.3</ele>
        <time>2026-05-09T08:57:38.000Z</time>
      </trkpt>
      <trkpt lat="43.83307" lon="4.18664">
        <ele>170.6</ele>
        <time>2026-05-09T08:57:39.000Z</time>
      </trkpt>
      <trkpt lat="43.83306" lon="4.18664">
        <ele>171</ele>
        <time>2026-05-09T08:57:40.000Z</time>
      </trkpt>
      <trkpt lat="43.83306" lon="4.18664">
        <ele>171.1</ele>
        <time>2026-05-09T08:57:41.000Z</time>
      </trkpt>
      <trkpt lat="43.83306" lon="4.18664">
        <ele>171.3</ele>
        <time>2026-05-09T08:57:42.000Z</time>
      </trkpt>
      <trkpt lat="43.83306" lon="4.18663">
        <ele>171.3</ele>
        <time>2026-05-09T08:57:43.000Z</time>
      </trkpt>
      <trkpt lat="43.83306" lon="4.18663">
        <ele>171.4</ele>
        <time>2026-05-09T08:57:44.000Z</time>
      </trkpt>
      <trkpt lat="43.83306" lon="4.18663">
        <ele>171.5</ele>
        <time>2026-05-09T08:57:45.000Z</time>
      </trkpt>
      <trkpt lat="43.83305" lon="4.18663">
        <ele>171.8</ele>
        <time>2026-05-09T08:57:46.000Z</time>
      </trkpt>
      <trkpt lat="43.83305" lon="4.18663">
        <ele>171.9</ele>
        <time>2026-05-09T08:57:47.000Z</time>
      </trkpt>
      <trkpt lat="43.83304" lon="4.18662">
        <ele>171.8</ele>
        <time>2026-05-09T08:57:48.000Z</time>
      </trkpt>
      <trkpt lat="43.83303" lon="4.1866">
        <ele>171.5</ele>
        <time>2026-05-09T08:57:49.000Z</time>
      </trkpt>
      <trkpt lat="43.83303" lon="4.18659">
        <ele>171.1</ele>
        <time>2026-05-09T08:57:50.000Z</time>
      </trkpt>
      <trkpt lat="43.83303" lon="4.18657">
        <ele>170.8</ele>
        <time>2026-05-09T08:57:51.000Z</time>
      </trkpt>
      <trkpt lat="43.83303" lon="4.18656">
        <ele>170.6</ele>
        <time>2026-05-09T08:57:52.000Z</time>
      </trkpt>
      <trkpt lat="43.83302" lon="4.18654">
        <ele>170.3</ele>
        <time>2026-05-09T08:57:53.000Z</time>
      </trkpt>
      <trkpt lat="43.83302" lon="4.18653">
        <ele>169.9</ele>
        <time>2026-05-09T08:57:54.000Z</time>
      </trkpt>
      <trkpt lat="43.83302" lon="4.18652">
        <ele>169.9</ele>
        <time>2026-05-09T08:57:55.000Z</time>
      </trkpt>
      <trkpt lat="43.83301" lon="4.18652">
        <ele>169.9</ele>
        <time>2026-05-09T08:57:56.000Z</time>
      </trkpt>
      <trkpt lat="43.83301" lon="4.18651">
        <ele>170</ele>
        <time>2026-05-09T08:57:57.000Z</time>
      </trkpt>
      <trkpt lat="43.83301" lon="4.18651">
        <ele>170.3</ele>
        <time>2026-05-09T08:57:58.000Z</time>
      </trkpt>
      <trkpt lat="43.83301" lon="4.18651">
        <ele>170.4</ele>
        <time>2026-05-09T08:57:59.000Z</time>
      </trkpt>
      <trkpt lat="43.83301" lon="4.1865">
        <ele>170.2</ele>
        <time>2026-05-09T08:58:00.000Z</time>
      </trkpt>
      <trkpt lat="43.83301" lon="4.1865">
        <ele>169.9</ele>
        <time>2026-05-09T08:58:01.000Z</time>
      </trkpt>
      <trkpt lat="43.83301" lon="4.18649">
        <ele>169.5</ele>
        <time>2026-05-09T08:58:02.000Z</time>
      </trkpt>
      <trkpt lat="43.833" lon="4.18649">
        <ele>169</ele>
        <time>2026-05-09T08:58:03.000Z</time>
      </trkpt>
      <trkpt lat="43.833" lon="4.18648">
        <ele>168.6</ele>
        <time>2026-05-09T08:58:04.000Z</time>
      </trkpt>
      <trkpt lat="43.833" lon="4.18648">
        <ele>168.4</ele>
        <time>2026-05-09T08:58:05.000Z</time>
      </trkpt>
      <trkpt lat="43.833" lon="4.18647">
        <ele>168.1</ele>
        <time>2026-05-09T08:58:06.000Z</time>
      </trkpt>
      <trkpt lat="43.833" lon="4.18647">
        <ele>167.7</ele>
        <time>2026-05-09T08:58:07.000Z</time>
      </trkpt>
      <trkpt lat="43.833" lon="4.18647">
        <ele>167</ele>
        <time>2026-05-09T08:58:08.000Z</time>
      </trkpt>
      <trkpt lat="43.833" lon="4.18646">
        <ele>166.7</ele>
        <time>2026-05-09T08:58:09.000Z</time>
      </trkpt>
      <trkpt lat="43.833" lon="4.18645">
        <ele>166.3</ele>
        <time>2026-05-09T08:58:10.000Z</time>
      </trkpt>
      <trkpt lat="43.833" lon="4.18644">
        <ele>166</ele>
        <time>2026-05-09T08:58:11.000Z</time>
      </trkpt>
      <trkpt lat="43.833" lon="4.18644">
        <ele>165.8</ele>
        <time>2026-05-09T08:58:12.000Z</time>
      </trkpt>
      <trkpt lat="43.83299" lon="4.18642">
        <ele>165.5</ele>
        <time>2026-05-09T08:58:13.000Z</time>
      </trkpt>
      <trkpt lat="43.83299" lon="4.18642">
        <ele>165.2</ele>
        <time>2026-05-09T08:58:14.000Z</time>
      </trkpt>
      <trkpt lat="43.83299" lon="4.18641">
        <ele>164.8</ele>
        <time>2026-05-09T08:58:15.000Z</time>
      </trkpt>
      <trkpt lat="43.83299" lon="4.18639">
        <ele>164.4</ele>
        <time>2026-05-09T08:58:16.000Z</time>
      </trkpt>
      <trkpt lat="43.83298" lon="4.18634">
        <ele>164.2</ele>
        <time>2026-05-09T08:58:17.000Z</time>
      </trkpt>
      <trkpt lat="43.83297" lon="4.18629">
        <ele>164</ele>
        <time>2026-05-09T08:58:18.000Z</time>
      </trkpt>
      <trkpt lat="43.83296" lon="4.18626">
        <ele>163.5</ele>
        <time>2026-05-09T08:58:19.000Z</time>
      </trkpt>
      <trkpt lat="43.83295" lon="4.18622">
        <ele>163.4</ele>
        <time>2026-05-09T08:58:20.000Z</time>
      </trkpt>
      <trkpt lat="43.83294" lon="4.1862">
        <ele>163</ele>
        <time>2026-05-09T08:58:21.000Z</time>
      </trkpt>
      <trkpt lat="43.83292" lon="4.18618">
        <ele>162.9</ele>
        <time>2026-05-09T08:58:22.000Z</time>
      </trkpt>
      <trkpt lat="43.83291" lon="4.18616">
        <ele>162.6</ele>
        <time>2026-05-09T08:58:23.000Z</time>
      </trkpt>
      <trkpt lat="43.8329" lon="4.18616">
        <ele>162.6</ele>
        <time>2026-05-09T08:58:24.000Z</time>
      </trkpt>
      <trkpt lat="43.83288" lon="4.18614">
        <ele>162.8</ele>
        <time>2026-05-09T08:58:26.000Z</time>
      </trkpt>
      <trkpt lat="43.83287" lon="4.18613">
        <ele>162.5</ele>
        <time>2026-05-09T08:58:27.000Z</time>
      </trkpt>
      <trkpt lat="43.83286" lon="4.18612">
        <ele>162.6</ele>
        <time>2026-05-09T08:58:28.000Z</time>
      </trkpt>
      <trkpt lat="43.83285" lon="4.18613">
        <ele>162.8</ele>
        <time>2026-05-09T08:58:29.000Z</time>
      </trkpt>
      <trkpt lat="43.83284" lon="4.18613">
        <ele>163</ele>
        <time>2026-05-09T08:58:30.000Z</time>
      </trkpt>
      <trkpt lat="43.83284" lon="4.18612">
        <ele>163.1</ele>
        <time>2026-05-09T08:58:31.000Z</time>
      </trkpt>
      <trkpt lat="43.83282" lon="4.18612">
        <ele>163.5</ele>
        <time>2026-05-09T08:58:32.000Z</time>
      </trkpt>
      <trkpt lat="43.83281" lon="4.18613">
        <ele>163.5</ele>
        <time>2026-05-09T08:58:33.000Z</time>
      </trkpt>
      <trkpt lat="43.83281" lon="4.18613">
        <ele>163.8</ele>
        <time>2026-05-09T08:58:34.000Z</time>
      </trkpt>
      <trkpt lat="43.8328" lon="4.18613">
        <ele>163.8</ele>
        <time>2026-05-09T08:58:35.000Z</time>
      </trkpt>
      <trkpt lat="43.8328" lon="4.18613">
        <ele>163.9</ele>
        <time>2026-05-09T08:58:36.000Z</time>
      </trkpt>
      <trkpt lat="43.8328" lon="4.18613">
        <ele>164</ele>
        <time>2026-05-09T08:58:37.000Z</time>
      </trkpt>
      <trkpt lat="43.8328" lon="4.18613">
        <ele>164.4</ele>
        <time>2026-05-09T08:58:38.000Z</time>
      </trkpt>
      <trkpt lat="43.8328" lon="4.18613">
        <ele>164.5</ele>
        <time>2026-05-09T08:58:39.000Z</time>
      </trkpt>
      <trkpt lat="43.8328" lon="4.18613">
        <ele>164.5</ele>
        <time>2026-05-09T08:58:40.000Z</time>
      </trkpt>
      <trkpt lat="43.8328" lon="4.18613">
        <ele>164.6</ele>
        <time>2026-05-09T08:58:41.000Z</time>
      </trkpt>
      <trkpt lat="43.8328" lon="4.18613">
        <ele>164.6</ele>
        <time>2026-05-09T08:58:42.000Z</time>
      </trkpt>
      <trkpt lat="43.8328" lon="4.18613">
        <ele>164.7</ele>
        <time>2026-05-09T08:58:43.000Z</time>
      </trkpt>
      <trkpt lat="43.8328" lon="4.18613">
        <ele>164.8</ele>
        <time>2026-05-09T08:58:44.000Z</time>
      </trkpt>
      <trkpt lat="43.8328" lon="4.18614">
        <ele>165</ele>
        <time>2026-05-09T08:58:45.000Z</time>
      </trkpt>
      <trkpt lat="43.83279" lon="4.18614">
        <ele>165.1</ele>
        <time>2026-05-09T08:58:46.000Z</time>
      </trkpt>
      <trkpt lat="43.83279" lon="4.18614">
        <ele>165.1</ele>
        <time>2026-05-09T08:58:47.000Z</time>
      </trkpt>
      <trkpt lat="43.83279" lon="4.18615">
        <ele>165.3</ele>
        <time>2026-05-09T08:58:48.000Z</time>
      </trkpt>
      <trkpt lat="43.83279" lon="4.18615">
        <ele>165.2</ele>
        <time>2026-05-09T08:58:49.000Z</time>
      </trkpt>
      <trkpt lat="43.83279" lon="4.18615">
        <ele>165.3</ele>
        <time>2026-05-09T08:58:50.000Z</time>
      </trkpt>
      <trkpt lat="43.83279" lon="4.18615">
        <ele>165.3</ele>
        <time>2026-05-09T08:58:51.000Z</time>
      </trkpt>
      <trkpt lat="43.83278" lon="4.18617">
        <ele>165.6</ele>
        <time>2026-05-09T08:58:52.000Z</time>
      </trkpt>
      <trkpt lat="43.83278" lon="4.18619">
        <ele>165.5</ele>
        <time>2026-05-09T08:58:53.000Z</time>
      </trkpt>
      <trkpt lat="43.83277" lon="4.1862">
        <ele>165.7</ele>
        <time>2026-05-09T08:58:54.000Z</time>
      </trkpt>
      <trkpt lat="43.83277" lon="4.18621">
        <ele>166.1</ele>
        <time>2026-05-09T08:58:55.000Z</time>
      </trkpt>
      <trkpt lat="43.83277" lon="4.18621">
        <ele>166.3</ele>
        <time>2026-05-09T08:58:56.000Z</time>
      </trkpt>
      <trkpt lat="43.83277" lon="4.18621">
        <ele>166.5</ele>
        <time>2026-05-09T08:58:57.000Z</time>
      </trkpt>
      <trkpt lat="43.83277" lon="4.18622">
        <ele>166.4</ele>
        <time>2026-05-09T08:58:58.000Z</time>
      </trkpt>
      <trkpt lat="43.83277" lon="4.18622">
        <ele>166.4</ele>
        <time>2026-05-09T08:58:59.000Z</time>
      </trkpt>
      <trkpt lat="43.83277" lon="4.18622">
        <ele>166.5</ele>
        <time>2026-05-09T08:59:00.000Z</time>
      </trkpt>
      <trkpt lat="43.83277" lon="4.18623">
        <ele>167</ele>
        <time>2026-05-09T08:59:01.000Z</time>
      </trkpt>
      <trkpt lat="43.83277" lon="4.18623">
        <ele>167.6</ele>
        <time>2026-05-09T08:59:02.000Z</time>
      </trkpt>
      <trkpt lat="43.83276" lon="4.18623">
        <ele>168.2</ele>
        <time>2026-05-09T08:59:03.000Z</time>
      </trkpt>
      <trkpt lat="43.83276" lon="4.18625">
        <ele>168.6</ele>
        <time>2026-05-09T08:59:04.000Z</time>
      </trkpt>
      <trkpt lat="43.83275" lon="4.18627">
        <ele>168.6</ele>
        <time>2026-05-09T08:59:05.000Z</time>
      </trkpt>
      <trkpt lat="43.83275" lon="4.18628">
        <ele>168.8</ele>
        <time>2026-05-09T08:59:06.000Z</time>
      </trkpt>
      <trkpt lat="43.83275" lon="4.18629">
        <ele>169.3</ele>
        <time>2026-05-09T08:59:07.000Z</time>
      </trkpt>
      <trkpt lat="43.83275" lon="4.18629">
        <ele>169.7</ele>
        <time>2026-05-09T08:59:08.000Z</time>
      </trkpt>
      <trkpt lat="43.83275" lon="4.1863">
        <ele>169.9</ele>
        <time>2026-05-09T08:59:09.000Z</time>
      </trkpt>
      <trkpt lat="43.83275" lon="4.1863">
        <ele>170.2</ele>
        <time>2026-05-09T08:59:10.000Z</time>
      </trkpt>
      <trkpt lat="43.83275" lon="4.18631">
        <ele>170.2</ele>
        <time>2026-05-09T08:59:11.000Z</time>
      </trkpt>
      <trkpt lat="43.83275" lon="4.18631">
        <ele>170.2</ele>
        <time>2026-05-09T08:59:12.000Z</time>
      </trkpt>
      <trkpt lat="43.83275" lon="4.18633">
        <ele>170.2</ele>
        <time>2026-05-09T08:59:13.000Z</time>
      </trkpt>
      <trkpt lat="43.83275" lon="4.18635">
        <ele>169.9</ele>
        <time>2026-05-09T08:59:14.000Z</time>
      </trkpt>
      <trkpt lat="43.83276" lon="4.18636">
        <ele>170.1</ele>
        <time>2026-05-09T08:59:15.000Z</time>
      </trkpt>
      <trkpt lat="43.83276" lon="4.18637">
        <ele>170.6</ele>
        <time>2026-05-09T08:59:16.000Z</time>
      </trkpt>
      <trkpt lat="43.83276" lon="4.18638">
        <ele>170.7</ele>
        <time>2026-05-09T08:59:17.000Z</time>
      </trkpt>
      <trkpt lat="43.83276" lon="4.1864">
        <ele>170.4</ele>
        <time>2026-05-09T08:59:18.000Z</time>
      </trkpt>
      <trkpt lat="43.83276" lon="4.1864">
        <ele>170.3</ele>
        <time>2026-05-09T08:59:19.000Z</time>
      </trkpt>
      <trkpt lat="43.83277" lon="4.18641">
        <ele>170.2</ele>
        <time>2026-05-09T08:59:20.000Z</time>
      </trkpt>
      <trkpt lat="43.83277" lon="4.18641">
        <ele>169.9</ele>
        <time>2026-05-09T08:59:21.000Z</time>
      </trkpt>
      <trkpt lat="43.83277" lon="4.18641">
        <ele>169.9</ele>
        <time>2026-05-09T08:59:22.000Z</time>
      </trkpt>
      <trkpt lat="43.83276" lon="4.18643">
        <ele>169.9</ele>
        <time>2026-05-09T08:59:23.000Z</time>
      </trkpt>
      <trkpt lat="43.83277" lon="4.18645">
        <ele>170</ele>
        <time>2026-05-09T08:59:24.000Z</time>
      </trkpt>
      <trkpt lat="43.83277" lon="4.18647">
        <ele>170</ele>
        <time>2026-05-09T08:59:25.000Z</time>
      </trkpt>
      <trkpt lat="43.83278" lon="4.18649">
        <ele>170.1</ele>
        <time>2026-05-09T08:59:26.000Z</time>
      </trkpt>
      <trkpt lat="43.83278" lon="4.18649">
        <ele>170.1</ele>
        <time>2026-05-09T08:59:27.000Z</time>
      </trkpt>
      <trkpt lat="43.83278" lon="4.1865">
        <ele>170.3</ele>
        <time>2026-05-09T08:59:28.000Z</time>
      </trkpt>
      <trkpt lat="43.83278" lon="4.1865">
        <ele>170.4</ele>
        <time>2026-05-09T08:59:29.000Z</time>
      </trkpt>
      <trkpt lat="43.83278" lon="4.18651">
        <ele>170.6</ele>
        <time>2026-05-09T08:59:30.000Z</time>
      </trkpt>
      <trkpt lat="43.83278" lon="4.18651">
        <ele>170.7</ele>
        <time>2026-05-09T08:59:31.000Z</time>
      </trkpt>
      <trkpt lat="43.83279" lon="4.18651">
        <ele>170.5</ele>
        <time>2026-05-09T08:59:32.000Z</time>
      </trkpt>
      <trkpt lat="43.83279" lon="4.18653">
        <ele>170.3</ele>
        <time>2026-05-09T08:59:33.000Z</time>
      </trkpt>
      <trkpt lat="43.83279" lon="4.18655">
        <ele>170.4</ele>
        <time>2026-05-09T08:59:34.000Z</time>
      </trkpt>
      <trkpt lat="43.8328" lon="4.18658">
        <ele>170.7</ele>
        <time>2026-05-09T08:59:35.000Z</time>
      </trkpt>
      <trkpt lat="43.8328" lon="4.1866">
        <ele>171.2</ele>
        <time>2026-05-09T08:59:36.000Z</time>
      </trkpt>
      <trkpt lat="43.83281" lon="4.18661">
        <ele>171.5</ele>
        <time>2026-05-09T08:59:37.000Z</time>
      </trkpt>
      <trkpt lat="43.83281" lon="4.18662">
        <ele>171.7</ele>
        <time>2026-05-09T08:59:38.000Z</time>
      </trkpt>
      <trkpt lat="43.83281" lon="4.18663">
        <ele>171.7</ele>
        <time>2026-05-09T08:59:39.000Z</time>
      </trkpt>
      <trkpt lat="43.83281" lon="4.18663">
        <ele>171.7</ele>
        <time>2026-05-09T08:59:40.000Z</time>
      </trkpt>
      <trkpt lat="43.83282" lon="4.18664">
        <ele>172</ele>
        <time>2026-05-09T08:59:41.000Z</time>
      </trkpt>
      <trkpt lat="43.83282" lon="4.18664">
        <ele>171.9</ele>
        <time>2026-05-09T08:59:42.000Z</time>
      </trkpt>
      <trkpt lat="43.83282" lon="4.18664">
        <ele>172.1</ele>
        <time>2026-05-09T08:59:43.000Z</time>
      </trkpt>
      <trkpt lat="43.83282" lon="4.18664">
        <ele>172.3</ele>
        <time>2026-05-09T08:59:44.000Z</time>
      </trkpt>
      <trkpt lat="43.83282" lon="4.18665">
        <ele>172.4</ele>
        <time>2026-05-09T08:59:45.000Z</time>
      </trkpt>
      <trkpt lat="43.83282" lon="4.18667">
        <ele>172.6</ele>
        <time>2026-05-09T08:59:46.000Z</time>
      </trkpt>
      <trkpt lat="43.83283" lon="4.18668">
        <ele>172.7</ele>
        <time>2026-05-09T08:59:47.000Z</time>
      </trkpt>
      <trkpt lat="43.83283" lon="4.18669">
        <ele>173</ele>
        <time>2026-05-09T08:59:48.000Z</time>
      </trkpt>
      <trkpt lat="43.83284" lon="4.1867">
        <ele>173.4</ele>
        <time>2026-05-09T08:59:49.000Z</time>
      </trkpt>
      <trkpt lat="43.83285" lon="4.18671">
        <ele>173.5</ele>
        <time>2026-05-09T08:59:50.000Z</time>
      </trkpt>
      <trkpt lat="43.83286" lon="4.18673">
        <ele>173.8</ele>
        <time>2026-05-09T08:59:51.000Z</time>
      </trkpt>
      <trkpt lat="43.83286" lon="4.18675">
        <ele>173.8</ele>
        <time>2026-05-09T08:59:52.000Z</time>
      </trkpt>
      <trkpt lat="43.83287" lon="4.18677">
        <ele>173.8</ele>
        <time>2026-05-09T08:59:53.000Z</time>
      </trkpt>
      <trkpt lat="43.83287" lon="4.18679">
        <ele>173.9</ele>
        <time>2026-05-09T08:59:54.000Z</time>
      </trkpt>
      <trkpt lat="43.83287" lon="4.1868">
        <ele>174.1</ele>
        <time>2026-05-09T08:59:55.000Z</time>
      </trkpt>
      <trkpt lat="43.83288" lon="4.18681">
        <ele>174.2</ele>
        <time>2026-05-09T08:59:56.000Z</time>
      </trkpt>
      <trkpt lat="43.83288" lon="4.18682">
        <ele>174.5</ele>
        <time>2026-05-09T08:59:57.000Z</time>
      </trkpt>
      <trkpt lat="43.83289" lon="4.18683">
        <ele>174.4</ele>
        <time>2026-05-09T08:59:58.000Z</time>
      </trkpt>
      <trkpt lat="43.83289" lon="4.18683">
        <ele>175</ele>
        <time>2026-05-09T08:59:59.000Z</time>
      </trkpt>
      <trkpt lat="43.83289" lon="4.18684">
        <ele>174.9</ele>
        <time>2026-05-09T09:00:00.000Z</time>
      </trkpt>
      <trkpt lat="43.83289" lon="4.18686">
        <ele>174.8</ele>
        <time>2026-05-09T09:00:01.000Z</time>
      </trkpt>
      <trkpt lat="43.8329" lon="4.18687">
        <ele>174.9</ele>
        <time>2026-05-09T09:00:02.000Z</time>
      </trkpt>
      <trkpt lat="43.8329" lon="4.18689">
        <ele>174.9</ele>
        <time>2026-05-09T09:00:03.000Z</time>
      </trkpt>
      <trkpt lat="43.8329" lon="4.1869">
        <ele>175</ele>
        <time>2026-05-09T09:00:04.000Z</time>
      </trkpt>
      <trkpt lat="43.8329" lon="4.18691">
        <ele>175.1</ele>
        <time>2026-05-09T09:00:05.000Z</time>
      </trkpt>
      <trkpt lat="43.8329" lon="4.18692">
        <ele>175.3</ele>
        <time>2026-05-09T09:00:06.000Z</time>
      </trkpt>
      <trkpt lat="43.8329" lon="4.18693">
        <ele>175.6</ele>
        <time>2026-05-09T09:00:07.000Z</time>
      </trkpt>
      <trkpt lat="43.8329" lon="4.18694">
        <ele>176.2</ele>
        <time>2026-05-09T09:00:08.000Z</time>
      </trkpt>
      <trkpt lat="43.8329" lon="4.18694">
        <ele>176.3</ele>
        <time>2026-05-09T09:00:09.000Z</time>
      </trkpt>
      <trkpt lat="43.8329" lon="4.18694">
        <ele>176.6</ele>
        <time>2026-05-09T09:00:10.000Z</time>
      </trkpt>
      <trkpt lat="43.83291" lon="4.18695">
        <ele>177.1</ele>
        <time>2026-05-09T09:00:11.000Z</time>
      </trkpt>
      <trkpt lat="43.83291" lon="4.18696">
        <ele>177.4</ele>
        <time>2026-05-09T09:00:12.000Z</time>
      </trkpt>
      <trkpt lat="43.83291" lon="4.18697">
        <ele>177.4</ele>
        <time>2026-05-09T09:00:13.000Z</time>
      </trkpt>
      <trkpt lat="43.8329" lon="4.18698">
        <ele>177.3</ele>
        <time>2026-05-09T09:00:14.000Z</time>
      </trkpt>
      <trkpt lat="43.8329" lon="4.18699">
        <ele>177.4</ele>
        <time>2026-05-09T09:00:15.000Z</time>
      </trkpt>
      <trkpt lat="43.8329" lon="4.18701">
        <ele>177.8</ele>
        <time>2026-05-09T09:00:16.000Z</time>
      </trkpt>
      <trkpt lat="43.8329" lon="4.18702">
        <ele>178.3</ele>
        <time>2026-05-09T09:00:17.000Z</time>
      </trkpt>
      <trkpt lat="43.83291" lon="4.18703">
        <ele>178.3</ele>
        <time>2026-05-09T09:00:18.000Z</time>
      </trkpt>
      <trkpt lat="43.83291" lon="4.18705">
        <ele>178.5</ele>
        <time>2026-05-09T09:00:19.000Z</time>
      </trkpt>
      <trkpt lat="43.83291" lon="4.18708">
        <ele>178.7</ele>
        <time>2026-05-09T09:00:20.000Z</time>
      </trkpt>
      <trkpt lat="43.83291" lon="4.1871">
        <ele>178.7</ele>
        <time>2026-05-09T09:00:21.000Z</time>
      </trkpt>
      <trkpt lat="43.83291" lon="4.18711">
        <ele>178.7</ele>
        <time>2026-05-09T09:00:22.000Z</time>
      </trkpt>
      <trkpt lat="43.83291" lon="4.18712">
        <ele>178.7</ele>
        <time>2026-05-09T09:00:23.000Z</time>
      </trkpt>
      <trkpt lat="43.83291" lon="4.18713">
        <ele>178.3</ele>
        <time>2026-05-09T09:00:24.000Z</time>
      </trkpt>
      <trkpt lat="43.83291" lon="4.18714">
        <ele>178.4</ele>
        <time>2026-05-09T09:00:25.000Z</time>
      </trkpt>
      <trkpt lat="43.83291" lon="4.18714">
        <ele>178.7</ele>
        <time>2026-05-09T09:00:26.000Z</time>
      </trkpt>
      <trkpt lat="43.83291" lon="4.18715">
        <ele>178.7</ele>
        <time>2026-05-09T09:00:27.000Z</time>
      </trkpt>
      <trkpt lat="43.83291" lon="4.18716">
        <ele>179</ele>
        <time>2026-05-09T09:00:28.000Z</time>
      </trkpt>
      <trkpt lat="43.83291" lon="4.18717">
        <ele>178.9</ele>
        <time>2026-05-09T09:00:29.000Z</time>
      </trkpt>
      <trkpt lat="43.8329" lon="4.18717">
        <ele>178.8</ele>
        <time>2026-05-09T09:00:30.000Z</time>
      </trkpt>
      <trkpt lat="43.8329" lon="4.18717">
        <ele>179.1</ele>
        <time>2026-05-09T09:00:31.000Z</time>
      </trkpt>
      <trkpt lat="43.8329" lon="4.18717">
        <ele>179.4</ele>
        <time>2026-05-09T09:00:32.000Z</time>
      </trkpt>
      <trkpt lat="43.8329" lon="4.18717">
        <ele>179.5</ele>
        <time>2026-05-09T09:00:33.000Z</time>
      </trkpt>
      <trkpt lat="43.8329" lon="4.18718">
        <ele>179.5</ele>
        <time>2026-05-09T09:00:34.000Z</time>
      </trkpt>
      <trkpt lat="43.8329" lon="4.18719">
        <ele>179.8</ele>
        <time>2026-05-09T09:00:35.000Z</time>
      </trkpt>
      <trkpt lat="43.8329" lon="4.18721">
        <ele>179.9</ele>
        <time>2026-05-09T09:00:36.000Z</time>
      </trkpt>
      <trkpt lat="43.83291" lon="4.18723">
        <ele>179.9</ele>
        <time>2026-05-09T09:00:37.000Z</time>
      </trkpt>
      <trkpt lat="43.83291" lon="4.18723">
        <ele>179.9</ele>
        <time>2026-05-09T09:00:38.000Z</time>
      </trkpt>
      <trkpt lat="43.83292" lon="4.18724">
        <ele>180</ele>
        <time>2026-05-09T09:00:39.000Z</time>
      </trkpt>
      <trkpt lat="43.83292" lon="4.18725">
        <ele>180.1</ele>
        <time>2026-05-09T09:00:40.000Z</time>
      </trkpt>
      <trkpt lat="43.83292" lon="4.18726">
        <ele>180.1</ele>
        <time>2026-05-09T09:00:41.000Z</time>
      </trkpt>
      <trkpt lat="43.83292" lon="4.18726">
        <ele>180</ele>
        <time>2026-05-09T09:00:42.000Z</time>
      </trkpt>
      <trkpt lat="43.83292" lon="4.18727">
        <ele>179.8</ele>
        <time>2026-05-09T09:00:43.000Z</time>
      </trkpt>
      <trkpt lat="43.83292" lon="4.18728">
        <ele>179.8</ele>
        <time>2026-05-09T09:00:44.000Z</time>
      </trkpt>
      <trkpt lat="43.83292" lon="4.18729">
        <ele>179.8</ele>
        <time>2026-05-09T09:00:45.000Z</time>
      </trkpt>
      <trkpt lat="43.83291" lon="4.18731">
        <ele>179.6</ele>
        <time>2026-05-09T09:00:46.000Z</time>
      </trkpt>
      <trkpt lat="43.83291" lon="4.18732">
        <ele>179.9</ele>
        <time>2026-05-09T09:00:47.000Z</time>
      </trkpt>
      <trkpt lat="43.83291" lon="4.18734">
        <ele>180</ele>
        <time>2026-05-09T09:00:48.000Z</time>
      </trkpt>
      <trkpt lat="43.83291" lon="4.18735">
        <ele>179.9</ele>
        <time>2026-05-09T09:00:49.000Z</time>
      </trkpt>
      <trkpt lat="43.83291" lon="4.18736">
        <ele>180</ele>
        <time>2026-05-09T09:00:50.000Z</time>
      </trkpt>
      <trkpt lat="43.83291" lon="4.18737">
        <ele>179.9</ele>
        <time>2026-05-09T09:00:51.000Z</time>
      </trkpt>
      <trkpt lat="43.83291" lon="4.18738">
        <ele>180</ele>
        <time>2026-05-09T09:00:52.000Z</time>
      </trkpt>
      <trkpt lat="43.8329" lon="4.1874">
        <ele>179.7</ele>
        <time>2026-05-09T09:00:53.000Z</time>
      </trkpt>
      <trkpt lat="43.8329" lon="4.18739">
        <ele>179.5</ele>
        <time>2026-05-09T09:00:54.000Z</time>
      </trkpt>
      <trkpt lat="43.83289" lon="4.18739">
        <ele>179.4</ele>
        <time>2026-05-09T09:00:55.000Z</time>
      </trkpt>
      <trkpt lat="43.83288" lon="4.18739">
        <ele>179.2</ele>
        <time>2026-05-09T09:00:56.000Z</time>
      </trkpt>
      <trkpt lat="43.83287" lon="4.18738">
        <ele>179.2</ele>
        <time>2026-05-09T09:00:57.000Z</time>
      </trkpt>
      <trkpt lat="43.83287" lon="4.18738">
        <ele>179.3</ele>
        <time>2026-05-09T09:00:58.000Z</time>
      </trkpt>
      <trkpt lat="43.83286" lon="4.18737">
        <ele>179.4</ele>
        <time>2026-05-09T09:00:59.000Z</time>
      </trkpt>
      <trkpt lat="43.83285" lon="4.18736">
        <ele>179.7</ele>
        <time>2026-05-09T09:01:00.000Z</time>
      </trkpt>
      <trkpt lat="43.83285" lon="4.18735">
        <ele>179.9</ele>
        <time>2026-05-09T09:01:01.000Z</time>
      </trkpt>
      <trkpt lat="43.83285" lon="4.18735">
        <ele>179.8</ele>
        <time>2026-05-09T09:01:02.000Z</time>
      </trkpt>
      <trkpt lat="43.83284" lon="4.18735">
        <ele>179.8</ele>
        <time>2026-05-09T09:01:03.000Z</time>
      </trkpt>
      <trkpt lat="43.83284" lon="4.18735">
        <ele>179.8</ele>
        <time>2026-05-09T09:01:04.000Z</time>
      </trkpt>
      <trkpt lat="43.83283" lon="4.18735">
        <ele>180</ele>
        <time>2026-05-09T09:01:05.000Z</time>
      </trkpt>
      <trkpt lat="43.83283" lon="4.18735">
        <ele>179.9</ele>
        <time>2026-05-09T09:01:06.000Z</time>
      </trkpt>
      <trkpt lat="43.83283" lon="4.18736">
        <ele>180</ele>
        <time>2026-05-09T09:01:07.000Z</time>
      </trkpt>
      <trkpt lat="43.83283" lon="4.18736">
        <ele>180.3</ele>
        <time>2026-05-09T09:01:08.000Z</time>
      </trkpt>
      <trkpt lat="43.83283" lon="4.18736">
        <ele>180.4</ele>
        <time>2026-05-09T09:01:09.000Z</time>
      </trkpt>
      <trkpt lat="43.83282" lon="4.18736">
        <ele>180.4</ele>
        <time>2026-05-09T09:01:10.000Z</time>
      </trkpt>
      <trkpt lat="43.83282" lon="4.18738">
        <ele>180.3</ele>
        <time>2026-05-09T09:01:11.000Z</time>
      </trkpt>
      <trkpt lat="43.83281" lon="4.1874">
        <ele>180.4</ele>
        <time>2026-05-09T09:01:12.000Z</time>
      </trkpt>
      <trkpt lat="43.83281" lon="4.18741">
        <ele>180.3</ele>
        <time>2026-05-09T09:01:13.000Z</time>
      </trkpt>
      <trkpt lat="43.83281" lon="4.18742">
        <ele>180.4</ele>
        <time>2026-05-09T09:01:14.000Z</time>
      </trkpt>
      <trkpt lat="43.83281" lon="4.18742">
        <ele>180.5</ele>
        <time>2026-05-09T09:01:15.000Z</time>
      </trkpt>
      <trkpt lat="43.8328" lon="4.18743">
        <ele>180.8</ele>
        <time>2026-05-09T09:01:16.000Z</time>
      </trkpt>
      <trkpt lat="43.8328" lon="4.18744">
        <ele>181</ele>
        <time>2026-05-09T09:01:17.000Z</time>
      </trkpt>
      <trkpt lat="43.83279" lon="4.18745">
        <ele>181</ele>
        <time>2026-05-09T09:01:18.000Z</time>
      </trkpt>
      <trkpt lat="43.83278" lon="4.18747">
        <ele>181</ele>
        <time>2026-05-09T09:01:19.000Z</time>
      </trkpt>
      <trkpt lat="43.83278" lon="4.1875">
        <ele>181</ele>
        <time>2026-05-09T09:01:20.000Z</time>
      </trkpt>
      <trkpt lat="43.83277" lon="4.18752">
        <ele>181.2</ele>
        <time>2026-05-09T09:01:21.000Z</time>
      </trkpt>
      <trkpt lat="43.83276" lon="4.18753">
        <ele>181.5</ele>
        <time>2026-05-09T09:01:22.000Z</time>
      </trkpt>
      <trkpt lat="43.83276" lon="4.18755">
        <ele>181.6</ele>
        <time>2026-05-09T09:01:23.000Z</time>
      </trkpt>
      <trkpt lat="43.83275" lon="4.18757">
        <ele>181.6</ele>
        <time>2026-05-09T09:01:24.000Z</time>
      </trkpt>
      <trkpt lat="43.83275" lon="4.18759">
        <ele>182.1</ele>
        <time>2026-05-09T09:01:25.000Z</time>
      </trkpt>
      <trkpt lat="43.83275" lon="4.1876">
        <ele>182.3</ele>
        <time>2026-05-09T09:01:26.000Z</time>
      </trkpt>
      <trkpt lat="43.83275" lon="4.18761">
        <ele>182.6</ele>
        <time>2026-05-09T09:01:27.000Z</time>
      </trkpt>
      <trkpt lat="43.83275" lon="4.18761">
        <ele>183.1</ele>
        <time>2026-05-09T09:01:28.000Z</time>
      </trkpt>
      <trkpt lat="43.83275" lon="4.1876">
        <ele>183.5</ele>
        <time>2026-05-09T09:01:29.000Z</time>
      </trkpt>
      <trkpt lat="43.83275" lon="4.1876">
        <ele>183.6</ele>
        <time>2026-05-09T09:01:30.000Z</time>
      </trkpt>
      <trkpt lat="43.83275" lon="4.1876">
        <ele>183.6</ele>
        <time>2026-05-09T09:01:31.000Z</time>
      </trkpt>
      <trkpt lat="43.83275" lon="4.1876">
        <ele>183.5</ele>
        <time>2026-05-09T09:01:32.000Z</time>
      </trkpt>
      <trkpt lat="43.83275" lon="4.1876">
        <ele>183.6</ele>
        <time>2026-05-09T09:01:33.000Z</time>
      </trkpt>
      <trkpt lat="43.83275" lon="4.18761">
        <ele>183.7</ele>
        <time>2026-05-09T09:01:34.000Z</time>
      </trkpt>
      <trkpt lat="43.83275" lon="4.18763">
        <ele>183.3</ele>
        <time>2026-05-09T09:01:35.000Z</time>
      </trkpt>
      <trkpt lat="43.83275" lon="4.18764">
        <ele>183.2</ele>
        <time>2026-05-09T09:01:36.000Z</time>
      </trkpt>
      <trkpt lat="43.83276" lon="4.18766">
        <ele>183</ele>
        <time>2026-05-09T09:01:37.000Z</time>
      </trkpt>
      <trkpt lat="43.83277" lon="4.18767">
        <ele>182.8</ele>
        <time>2026-05-09T09:01:38.000Z</time>
      </trkpt>
      <trkpt lat="43.83277" lon="4.18767">
        <ele>182.8</ele>
        <time>2026-05-09T09:01:39.000Z</time>
      </trkpt>
      <trkpt lat="43.83278" lon="4.18768">
        <ele>182.6</ele>
        <time>2026-05-09T09:01:40.000Z</time>
      </trkpt>
      <trkpt lat="43.83278" lon="4.1877">
        <ele>182.3</ele>
        <time>2026-05-09T09:01:41.000Z</time>
      </trkpt>
      <trkpt lat="43.83279" lon="4.18772">
        <ele>182.5</ele>
        <time>2026-05-09T09:01:42.000Z</time>
      </trkpt>
      <trkpt lat="43.8328" lon="4.18774">
        <ele>182.5</ele>
        <time>2026-05-09T09:01:43.000Z</time>
      </trkpt>
      <trkpt lat="43.8328" lon="4.18776">
        <ele>182.6</ele>
        <time>2026-05-09T09:01:44.000Z</time>
      </trkpt>
      <trkpt lat="43.83281" lon="4.18777">
        <ele>182.6</ele>
        <time>2026-05-09T09:01:45.000Z</time>
      </trkpt>
      <trkpt lat="43.83281" lon="4.18779">
        <ele>182.7</ele>
        <time>2026-05-09T09:01:46.000Z</time>
      </trkpt>
      <trkpt lat="43.8328" lon="4.18782">
        <ele>182.9</ele>
        <time>2026-05-09T09:01:47.000Z</time>
      </trkpt>
      <trkpt lat="43.83279" lon="4.18783">
        <ele>183.1</ele>
        <time>2026-05-09T09:01:48.000Z</time>
      </trkpt>
      <trkpt lat="43.83278" lon="4.18784">
        <ele>183.3</ele>
        <time>2026-05-09T09:01:49.000Z</time>
      </trkpt>
      <trkpt lat="43.83278" lon="4.18786">
        <ele>183.8</ele>
        <time>2026-05-09T09:01:50.000Z</time>
      </trkpt>
      <trkpt lat="43.83277" lon="4.18787">
        <ele>184</ele>
        <time>2026-05-09T09:01:51.000Z</time>
      </trkpt>
      <trkpt lat="43.83277" lon="4.18789">
        <ele>184</ele>
        <time>2026-05-09T09:01:52.000Z</time>
      </trkpt>
      <trkpt lat="43.83277" lon="4.18791">
        <ele>183.9</ele>
        <time>2026-05-09T09:01:53.000Z</time>
      </trkpt>
      <trkpt lat="43.83277" lon="4.18793">
        <ele>184</ele>
        <time>2026-05-09T09:01:54.000Z</time>
      </trkpt>
      <trkpt lat="43.83276" lon="4.18793">
        <ele>184.2</ele>
        <time>2026-05-09T09:01:55.000Z</time>
      </trkpt>
      <trkpt lat="43.83276" lon="4.18794">
        <ele>184.3</ele>
        <time>2026-05-09T09:01:56.000Z</time>
      </trkpt>
      <trkpt lat="43.83275" lon="4.18794">
        <ele>184.4</ele>
        <time>2026-05-09T09:01:57.000Z</time>
      </trkpt>
      <trkpt lat="43.83275" lon="4.18794">
        <ele>184.3</ele>
        <time>2026-05-09T09:01:58.000Z</time>
      </trkpt>
      <trkpt lat="43.83274" lon="4.18795">
        <ele>184.3</ele>
        <time>2026-05-09T09:01:59.000Z</time>
      </trkpt>
      <trkpt lat="43.83274" lon="4.18795">
        <ele>184.3</ele>
        <time>2026-05-09T09:02:00.000Z</time>
      </trkpt>
      <trkpt lat="43.83274" lon="4.18794">
        <ele>184.3</ele>
        <time>2026-05-09T09:02:01.000Z</time>
      </trkpt>
      <trkpt lat="43.83273" lon="4.18794">
        <ele>184.2</ele>
        <time>2026-05-09T09:02:02.000Z</time>
      </trkpt>
      <trkpt lat="43.83272" lon="4.18793">
        <ele>184.2</ele>
        <time>2026-05-09T09:02:03.000Z</time>
      </trkpt>
      <trkpt lat="43.83272" lon="4.18792">
        <ele>184.5</ele>
        <time>2026-05-09T09:02:04.000Z</time>
      </trkpt>
      <trkpt lat="43.83271" lon="4.18791">
        <ele>184.7</ele>
        <time>2026-05-09T09:02:05.000Z</time>
      </trkpt>
      <trkpt lat="43.8327" lon="4.1879">
        <ele>184.2</ele>
        <time>2026-05-09T09:02:06.000Z</time>
      </trkpt>
      <trkpt lat="43.83269" lon="4.1879">
        <ele>183.9</ele>
        <time>2026-05-09T09:02:07.000Z</time>
      </trkpt>
      <trkpt lat="43.83267" lon="4.18789">
        <ele>183.9</ele>
        <time>2026-05-09T09:02:08.000Z</time>
      </trkpt>
      <trkpt lat="43.83266" lon="4.18788">
        <ele>183.9</ele>
        <time>2026-05-09T09:02:09.000Z</time>
      </trkpt>
      <trkpt lat="43.83265" lon="4.18789">
        <ele>183.9</ele>
        <time>2026-05-09T09:02:10.000Z</time>
      </trkpt>
      <trkpt lat="43.83264" lon="4.18789">
        <ele>184.1</ele>
        <time>2026-05-09T09:02:11.000Z</time>
      </trkpt>
      <trkpt lat="43.83263" lon="4.18789">
        <ele>184.5</ele>
        <time>2026-05-09T09:02:12.000Z</time>
      </trkpt>
      <trkpt lat="43.83262" lon="4.18788">
        <ele>184.6</ele>
        <time>2026-05-09T09:02:13.000Z</time>
      </trkpt>
      <trkpt lat="43.83261" lon="4.18787">
        <ele>185.1</ele>
        <time>2026-05-09T09:02:14.000Z</time>
      </trkpt>
      <trkpt lat="43.83261" lon="4.18787">
        <ele>185.2</ele>
        <time>2026-05-09T09:02:15.000Z</time>
      </trkpt>
      <trkpt lat="43.83261" lon="4.18787">
        <ele>185.1</ele>
        <time>2026-05-09T09:02:16.000Z</time>
      </trkpt>
      <trkpt lat="43.83261" lon="4.18787">
        <ele>185.1</ele>
        <time>2026-05-09T09:02:17.000Z</time>
      </trkpt>
      <trkpt lat="43.83261" lon="4.18787">
        <ele>185.3</ele>
        <time>2026-05-09T09:02:18.000Z</time>
      </trkpt>
      <trkpt lat="43.83261" lon="4.18786">
        <ele>185.3</ele>
        <time>2026-05-09T09:02:19.000Z</time>
      </trkpt>
      <trkpt lat="43.83261" lon="4.18786">
        <ele>185.2</ele>
        <time>2026-05-09T09:02:20.000Z</time>
      </trkpt>
      <trkpt lat="43.83261" lon="4.18786">
        <ele>185.3</ele>
        <time>2026-05-09T09:02:21.000Z</time>
      </trkpt>
      <trkpt lat="43.83261" lon="4.18784">
        <ele>185.3</ele>
        <time>2026-05-09T09:02:22.000Z</time>
      </trkpt>
      <trkpt lat="43.8326" lon="4.18782">
        <ele>185.6</ele>
        <time>2026-05-09T09:02:23.000Z</time>
      </trkpt>
      <trkpt lat="43.8326" lon="4.1878">
        <ele>185.7</ele>
        <time>2026-05-09T09:02:24.000Z</time>
      </trkpt>
      <trkpt lat="43.83259" lon="4.18777">
        <ele>185.9</ele>
        <time>2026-05-09T09:02:25.000Z</time>
      </trkpt>
      <trkpt lat="43.83259" lon="4.18775">
        <ele>186.2</ele>
        <time>2026-05-09T09:02:26.000Z</time>
      </trkpt>
      <trkpt lat="43.83259" lon="4.18774">
        <ele>186.3</ele>
        <time>2026-05-09T09:02:27.000Z</time>
      </trkpt>
      <trkpt lat="43.83259" lon="4.18772">
        <ele>186.3</ele>
        <time>2026-05-09T09:02:28.000Z</time>
      </trkpt>
      <trkpt lat="43.83259" lon="4.18771">
        <ele>186.1</ele>
        <time>2026-05-09T09:02:29.000Z</time>
      </trkpt>
      <trkpt lat="43.83259" lon="4.18769">
        <ele>186.2</ele>
        <time>2026-05-09T09:02:30.000Z</time>
      </trkpt>
      <trkpt lat="43.83259" lon="4.18767">
        <ele>186.6</ele>
        <time>2026-05-09T09:02:31.000Z</time>
      </trkpt>
      <trkpt lat="43.83259" lon="4.18765">
        <ele>187</ele>
        <time>2026-05-09T09:02:32.000Z</time>
      </trkpt>
      <trkpt lat="43.83259" lon="4.18764">
        <ele>186.9</ele>
        <time>2026-05-09T09:02:33.000Z</time>
      </trkpt>
      <trkpt lat="43.83259" lon="4.18764">
        <ele>186.8</ele>
        <time>2026-05-09T09:02:34.000Z</time>
      </trkpt>
      <trkpt lat="43.8326" lon="4.18763">
        <ele>187</ele>
        <time>2026-05-09T09:02:35.000Z</time>
      </trkpt>
      <trkpt lat="43.8326" lon="4.18762">
        <ele>187.2</ele>
        <time>2026-05-09T09:02:36.000Z</time>
      </trkpt>
      <trkpt lat="43.8326" lon="4.18761">
        <ele>187.1</ele>
        <time>2026-05-09T09:02:37.000Z</time>
      </trkpt>
      <trkpt lat="43.8326" lon="4.1876">
        <ele>187</ele>
        <time>2026-05-09T09:02:38.000Z</time>
      </trkpt>
      <trkpt lat="43.8326" lon="4.18759">
        <ele>186.8</ele>
        <time>2026-05-09T09:02:39.000Z</time>
      </trkpt>
      <trkpt lat="43.8326" lon="4.18758">
        <ele>186.8</ele>
        <time>2026-05-09T09:02:40.000Z</time>
      </trkpt>
      <trkpt lat="43.8326" lon="4.18757">
        <ele>186.8</ele>
        <time>2026-05-09T09:02:41.000Z</time>
      </trkpt>
      <trkpt lat="43.83261" lon="4.18756">
        <ele>187.2</ele>
        <time>2026-05-09T09:02:42.000Z</time>
      </trkpt>
      <trkpt lat="43.83261" lon="4.18754">
        <ele>187.2</ele>
        <time>2026-05-09T09:02:43.000Z</time>
      </trkpt>
      <trkpt lat="43.8326" lon="4.18752">
        <ele>187.2</ele>
        <time>2026-05-09T09:02:44.000Z</time>
      </trkpt>
      <trkpt lat="43.83259" lon="4.18751">
        <ele>187.2</ele>
        <time>2026-05-09T09:02:45.000Z</time>
      </trkpt>
      <trkpt lat="43.83258" lon="4.18751">
        <ele>187.2</ele>
        <time>2026-05-09T09:02:46.000Z</time>
      </trkpt>
      <trkpt lat="43.83258" lon="4.1875">
        <ele>186.8</ele>
        <time>2026-05-09T09:02:47.000Z</time>
      </trkpt>
      <trkpt lat="43.83257" lon="4.1875">
        <ele>186.9</ele>
        <time>2026-05-09T09:02:48.000Z</time>
      </trkpt>
      <trkpt lat="43.83258" lon="4.1875">
        <ele>186.6</ele>
        <time>2026-05-09T09:02:49.000Z</time>
      </trkpt>
      <trkpt lat="43.83258" lon="4.1875">
        <ele>186.1</ele>
        <time>2026-05-09T09:02:50.000Z</time>
      </trkpt>
      <trkpt lat="43.83258" lon="4.1875">
        <ele>186.1</ele>
        <time>2026-05-09T09:02:51.000Z</time>
      </trkpt>
      <trkpt lat="43.83258" lon="4.1875">
        <ele>186</ele>
        <time>2026-05-09T09:02:52.000Z</time>
      </trkpt>
      <trkpt lat="43.83257" lon="4.18749">
        <ele>186.1</ele>
        <time>2026-05-09T09:02:53.000Z</time>
      </trkpt>
      <trkpt lat="43.83257" lon="4.18749">
        <ele>186</ele>
        <time>2026-05-09T09:02:54.000Z</time>
      </trkpt>
      <trkpt lat="43.83257" lon="4.18749">
        <ele>186.3</ele>
        <time>2026-05-09T09:02:55.000Z</time>
      </trkpt>
      <trkpt lat="43.83257" lon="4.18749">
        <ele>186.9</ele>
        <time>2026-05-09T09:02:56.000Z</time>
      </trkpt>
      <trkpt lat="43.83257" lon="4.18749">
        <ele>187.4</ele>
        <time>2026-05-09T09:02:57.000Z</time>
      </trkpt>
      <trkpt lat="43.83257" lon="4.18749">
        <ele>187.8</ele>
        <time>2026-05-09T09:02:58.000Z</time>
      </trkpt>
      <trkpt lat="43.83257" lon="4.18748">
        <ele>188.1</ele>
        <time>2026-05-09T09:02:59.000Z</time>
      </trkpt>
      <trkpt lat="43.83257" lon="4.18748">
        <ele>187.9</ele>
        <time>2026-05-09T09:03:00.000Z</time>
      </trkpt>
      <trkpt lat="43.83257" lon="4.18748">
        <ele>187.8</ele>
        <time>2026-05-09T09:03:01.000Z</time>
      </trkpt>
      <trkpt lat="43.83257" lon="4.18748">
        <ele>187.8</ele>
        <time>2026-05-09T09:03:02.000Z</time>
      </trkpt>
      <trkpt lat="43.83257" lon="4.18747">
        <ele>187.6</ele>
        <time>2026-05-09T09:03:03.000Z</time>
      </trkpt>
      <trkpt lat="43.83257" lon="4.18747">
        <ele>187.5</ele>
        <time>2026-05-09T09:03:04.000Z</time>
      </trkpt>
      <trkpt lat="43.83257" lon="4.18747">
        <ele>187.5</ele>
        <time>2026-05-09T09:03:05.000Z</time>
      </trkpt>
      <trkpt lat="43.83257" lon="4.18747">
        <ele>187.6</ele>
        <time>2026-05-09T09:03:06.000Z</time>
      </trkpt>
      <trkpt lat="43.83257" lon="4.18747">
        <ele>187.5</ele>
        <time>2026-05-09T09:03:07.000Z</time>
      </trkpt>
      <trkpt lat="43.83256" lon="4.18746">
        <ele>187.6</ele>
        <time>2026-05-09T09:03:08.000Z</time>
      </trkpt>
      <trkpt lat="43.83255" lon="4.18745">
        <ele>187.7</ele>
        <time>2026-05-09T09:03:09.000Z</time>
      </trkpt>
      <trkpt lat="43.83254" lon="4.18743">
        <ele>187.2</ele>
        <time>2026-05-09T09:03:10.000Z</time>
      </trkpt>
      <trkpt lat="43.83254" lon="4.18741">
        <ele>187.4</ele>
        <time>2026-05-09T09:03:11.000Z</time>
      </trkpt>
      <trkpt lat="43.83253" lon="4.18741">
        <ele>187.3</ele>
        <time>2026-05-09T09:03:12.000Z</time>
      </trkpt>
      <trkpt lat="43.83253" lon="4.18741">
        <ele>187.5</ele>
        <time>2026-05-09T09:03:13.000Z</time>
      </trkpt>
      <trkpt lat="43.83253" lon="4.18741">
        <ele>187.5</ele>
        <time>2026-05-09T09:03:14.000Z</time>
      </trkpt>
      <trkpt lat="43.83253" lon="4.1874">
        <ele>187.4</ele>
        <time>2026-05-09T09:03:15.000Z</time>
      </trkpt>
      <trkpt lat="43.83253" lon="4.1874">
        <ele>187.4</ele>
        <time>2026-05-09T09:03:16.000Z</time>
      </trkpt>
      <trkpt lat="43.83253" lon="4.1874">
        <ele>187.3</ele>
        <time>2026-05-09T09:03:17.000Z</time>
      </trkpt>
      <trkpt lat="43.83253" lon="4.1874">
        <ele>187.2</ele>
        <time>2026-05-09T09:03:18.000Z</time>
      </trkpt>
      <trkpt lat="43.83253" lon="4.1874">
        <ele>187.1</ele>
        <time>2026-05-09T09:03:19.000Z</time>
      </trkpt>
      <trkpt lat="43.83253" lon="4.18739">
        <ele>187.3</ele>
        <time>2026-05-09T09:03:20.000Z</time>
      </trkpt>
      <trkpt lat="43.83252" lon="4.18739">
        <ele>187.3</ele>
        <time>2026-05-09T09:03:21.000Z</time>
      </trkpt>
      <trkpt lat="43.83252" lon="4.18739">
        <ele>187.7</ele>
        <time>2026-05-09T09:03:22.000Z</time>
      </trkpt>
      <trkpt lat="43.83252" lon="4.18738">
        <ele>187.7</ele>
        <time>2026-05-09T09:03:23.000Z</time>
      </trkpt>
      <trkpt lat="43.83252" lon="4.18738">
        <ele>187.6</ele>
        <time>2026-05-09T09:03:24.000Z</time>
      </trkpt>
      <trkpt lat="43.83252" lon="4.18738">
        <ele>187.5</ele>
        <time>2026-05-09T09:03:25.000Z</time>
      </trkpt>
      <trkpt lat="43.83251" lon="4.18737">
        <ele>187.6</ele>
        <time>2026-05-09T09:03:26.000Z</time>
      </trkpt>
      <trkpt lat="43.83251" lon="4.18737">
        <ele>187.6</ele>
        <time>2026-05-09T09:03:27.000Z</time>
      </trkpt>
      <trkpt lat="43.83249" lon="4.18736">
        <ele>187.6</ele>
        <time>2026-05-09T09:03:28.000Z</time>
      </trkpt>
      <trkpt lat="43.83247" lon="4.18734">
        <ele>187.7</ele>
        <time>2026-05-09T09:03:29.000Z</time>
      </trkpt>
      <trkpt lat="43.83246" lon="4.18733">
        <ele>187.6</ele>
        <time>2026-05-09T09:03:30.000Z</time>
      </trkpt>
      <trkpt lat="43.83245" lon="4.18733">
        <ele>187.6</ele>
        <time>2026-05-09T09:03:31.000Z</time>
      </trkpt>
      <trkpt lat="43.83244" lon="4.18732">
        <ele>187.8</ele>
        <time>2026-05-09T09:03:32.000Z</time>
      </trkpt>
      <trkpt lat="43.83244" lon="4.18732">
        <ele>188.2</ele>
        <time>2026-05-09T09:03:33.000Z</time>
      </trkpt>
      <trkpt lat="43.83244" lon="4.18732">
        <ele>188.4</ele>
        <time>2026-05-09T09:03:34.000Z</time>
      </trkpt>
      <trkpt lat="43.83244" lon="4.18732">
        <ele>188.5</ele>
        <time>2026-05-09T09:03:35.000Z</time>
      </trkpt>
      <trkpt lat="43.83244" lon="4.18732">
        <ele>188.5</ele>
        <time>2026-05-09T09:03:36.000Z</time>
      </trkpt>
      <trkpt lat="43.83244" lon="4.18732">
        <ele>188.6</ele>
        <time>2026-05-09T09:03:37.000Z</time>
      </trkpt>
      <trkpt lat="43.83244" lon="4.18732">
        <ele>188.6</ele>
        <time>2026-05-09T09:03:38.000Z</time>
      </trkpt>
      <trkpt lat="43.83245" lon="4.18732">
        <ele>188.6</ele>
        <time>2026-05-09T09:03:39.000Z</time>
      </trkpt>
      <trkpt lat="43.83245" lon="4.18732">
        <ele>188.6</ele>
        <time>2026-05-09T09:03:40.000Z</time>
      </trkpt>
      <trkpt lat="43.83245" lon="4.18732">
        <ele>188.8</ele>
        <time>2026-05-09T09:03:41.000Z</time>
      </trkpt>
      <trkpt lat="43.83245" lon="4.18732">
        <ele>189</ele>
        <time>2026-05-09T09:03:42.000Z</time>
      </trkpt>
      <trkpt lat="43.83245" lon="4.18732">
        <ele>189.4</ele>
        <time>2026-05-09T09:03:43.000Z</time>
      </trkpt>
      <trkpt lat="43.83244" lon="4.18732">
        <ele>189.7</ele>
        <time>2026-05-09T09:03:44.000Z</time>
      </trkpt>
      <trkpt lat="43.83244" lon="4.18732">
        <ele>189.9</ele>
        <time>2026-05-09T09:03:45.000Z</time>
      </trkpt>
      <trkpt lat="43.83244" lon="4.18732">
        <ele>190.1</ele>
        <time>2026-05-09T09:03:46.000Z</time>
      </trkpt>
      <trkpt lat="43.83244" lon="4.18732">
        <ele>190.5</ele>
        <time>2026-05-09T09:03:47.000Z</time>
      </trkpt>
      <trkpt lat="43.83244" lon="4.18732">
        <ele>190.7</ele>
        <time>2026-05-09T09:03:48.000Z</time>
      </trkpt>
      <trkpt lat="43.83244" lon="4.18732">
        <ele>190.9</ele>
        <time>2026-05-09T09:03:49.000Z</time>
      </trkpt>
      <trkpt lat="43.83244" lon="4.18731">
        <ele>191</ele>
        <time>2026-05-09T09:03:50.000Z</time>
      </trkpt>
      <trkpt lat="43.83244" lon="4.18731">
        <ele>191.1</ele>
        <time>2026-05-09T09:03:51.000Z</time>
      </trkpt>
      <trkpt lat="43.83244" lon="4.18731">
        <ele>191.5</ele>
        <time>2026-05-09T09:03:52.000Z</time>
      </trkpt>
      <trkpt lat="43.83244" lon="4.18731">
        <ele>191.6</ele>
        <time>2026-05-09T09:03:53.000Z</time>
      </trkpt>
      <trkpt lat="43.83244" lon="4.18731">
        <ele>191.5</ele>
        <time>2026-05-09T09:03:54.000Z</time>
      </trkpt>
      <trkpt lat="43.83244" lon="4.1873">
        <ele>191.4</ele>
        <time>2026-05-09T09:03:55.000Z</time>
      </trkpt>
      <trkpt lat="43.83244" lon="4.1873">
        <ele>191.2</ele>
        <time>2026-05-09T09:03:56.000Z</time>
      </trkpt>
      <trkpt lat="43.83244" lon="4.1873">
        <ele>191.5</ele>
        <time>2026-05-09T09:03:57.000Z</time>
      </trkpt>
      <trkpt lat="43.83244" lon="4.1873">
        <ele>191.7</ele>
        <time>2026-05-09T09:03:58.000Z</time>
      </trkpt>
      <trkpt lat="43.83244" lon="4.1873">
        <ele>191.7</ele>
        <time>2026-05-09T09:03:59.000Z</time>
      </trkpt>
      <trkpt lat="43.83244" lon="4.1873">
        <ele>191.7</ele>
        <time>2026-05-09T09:04:00.000Z</time>
      </trkpt>
      <trkpt lat="43.83244" lon="4.1873">
        <ele>191.7</ele>
        <time>2026-05-09T09:04:01.000Z</time>
      </trkpt>
      <trkpt lat="43.83244" lon="4.1873">
        <ele>191.7</ele>
        <time>2026-05-09T09:04:02.000Z</time>
      </trkpt>
      <trkpt lat="43.83244" lon="4.1873">
        <ele>191.6</ele>
        <time>2026-05-09T09:04:03.000Z</time>
      </trkpt>
      <trkpt lat="43.83245" lon="4.1873">
        <ele>192</ele>
        <time>2026-05-09T09:04:04.000Z</time>
      </trkpt>
      <trkpt lat="43.83246" lon="4.18729">
        <ele>192.3</ele>
        <time>2026-05-09T09:04:05.000Z</time>
      </trkpt>
      <trkpt lat="43.83246" lon="4.18729">
        <ele>192.5</ele>
        <time>2026-05-09T09:04:06.000Z</time>
      </trkpt>
      <trkpt lat="43.83246" lon="4.18729">
        <ele>192</ele>
        <time>2026-05-09T09:04:07.000Z</time>
      </trkpt>
      <trkpt lat="43.83246" lon="4.1873">
        <ele>192.2</ele>
        <time>2026-05-09T09:04:08.000Z</time>
      </trkpt>
      <trkpt lat="43.83246" lon="4.1873">
        <ele>192.3</ele>
        <time>2026-05-09T09:04:09.000Z</time>
      </trkpt>
      <trkpt lat="43.83246" lon="4.1873">
        <ele>192.4</ele>
        <time>2026-05-09T09:04:10.000Z</time>
      </trkpt>
      <trkpt lat="43.83246" lon="4.1873">
        <ele>192.4</ele>
        <time>2026-05-09T09:04:11.000Z</time>
      </trkpt>
      <trkpt lat="43.83246" lon="4.18729">
        <ele>192.6</ele>
        <time>2026-05-09T09:04:12.000Z</time>
      </trkpt>
      <trkpt lat="43.83246" lon="4.18729">
        <ele>192.6</ele>
        <time>2026-05-09T09:04:13.000Z</time>
      </trkpt>
      <trkpt lat="43.83246" lon="4.18729">
        <ele>192.7</ele>
        <time>2026-05-09T09:04:14.000Z</time>
      </trkpt>
      <trkpt lat="43.83246" lon="4.18729">
        <ele>192.7</ele>
        <time>2026-05-09T09:04:15.000Z</time>
      </trkpt>
      <trkpt lat="43.83246" lon="4.18729">
        <ele>192.8</ele>
        <time>2026-05-09T09:04:16.000Z</time>
      </trkpt>
      <trkpt lat="43.83246" lon="4.18729">
        <ele>192.8</ele>
        <time>2026-05-09T09:04:17.000Z</time>
      </trkpt>
      <trkpt lat="43.83246" lon="4.18729">
        <ele>192.9</ele>
        <time>2026-05-09T09:04:18.000Z</time>
      </trkpt>
      <trkpt lat="43.83246" lon="4.18729">
        <ele>192.9</ele>
        <time>2026-05-09T09:04:19.000Z</time>
      </trkpt>
      <trkpt lat="43.83246" lon="4.18729">
        <ele>192.8</ele>
        <time>2026-05-09T09:04:20.000Z</time>
      </trkpt>
      <trkpt lat="43.83246" lon="4.18729">
        <ele>192.6</ele>
        <time>2026-05-09T09:04:21.000Z</time>
      </trkpt>
      <trkpt lat="43.83246" lon="4.18729">
        <ele>192.4</ele>
        <time>2026-05-09T09:04:22.000Z</time>
      </trkpt>
      <trkpt lat="43.83246" lon="4.18729">
        <ele>192.2</ele>
        <time>2026-05-09T09:04:23.000Z</time>
      </trkpt>
      <trkpt lat="43.83246" lon="4.18729">
        <ele>192</ele>
        <time>2026-05-09T09:04:24.000Z</time>
      </trkpt>
      <trkpt lat="43.83246" lon="4.18729">
        <ele>191.8</ele>
        <time>2026-05-09T09:04:25.000Z</time>
      </trkpt>
      <trkpt lat="43.83246" lon="4.18729">
        <ele>191.5</ele>
        <time>2026-05-09T09:04:26.000Z</time>
      </trkpt>
      <trkpt lat="43.83246" lon="4.18729">
        <ele>191.5</ele>
        <time>2026-05-09T09:04:27.000Z</time>
      </trkpt>
      <trkpt lat="43.83246" lon="4.18729">
        <ele>191.5</ele>
        <time>2026-05-09T09:04:28.000Z</time>
      </trkpt>
      <trkpt lat="43.83246" lon="4.18729">
        <ele>191.6</ele>
        <time>2026-05-09T09:04:29.000Z</time>
      </trkpt>
      <trkpt lat="43.83246" lon="4.18729">
        <ele>191.6</ele>
        <time>2026-05-09T09:04:30.000Z</time>
      </trkpt>
      <trkpt lat="43.83246" lon="4.18729">
        <ele>191.5</ele>
        <time>2026-05-09T09:04:31.000Z</time>
      </trkpt>
      <trkpt lat="43.83246" lon="4.18729">
        <ele>191.5</ele>
        <time>2026-05-09T09:04:32.999Z</time>
      </trkpt>
      <trkpt lat="43.83246" lon="4.18729">
        <ele>191.5</ele>
        <time>2026-05-09T09:04:33.999Z</time>
      </trkpt>
      <trkpt lat="43.83246" lon="4.18729">
        <ele>191.6</ele>
        <time>2026-05-09T09:04:34.999Z</time>
      </trkpt>
      <trkpt lat="43.83246" lon="4.18729">
        <ele>191.7</ele>
        <time>2026-05-09T09:04:35.999Z</time>
      </trkpt>
      <trkpt lat="43.83246" lon="4.18729">
        <ele>191.9</ele>
        <time>2026-05-09T09:04:36.999Z</time>
      </trkpt>
      <trkpt lat="43.83246" lon="4.18729">
        <ele>192.1</ele>
        <time>2026-05-09T09:04:37.999Z</time>
      </trkpt>
      <trkpt lat="43.83246" lon="4.18729">
        <ele>192.2</ele>
        <time>2026-05-09T09:04:38.999Z</time>
      </trkpt>
      <trkpt lat="43.83246" lon="4.18729">
        <ele>192.3</ele>
        <time>2026-05-09T09:04:39.999Z</time>
      </trkpt>
      <trkpt lat="43.83245" lon="4.18729">
        <ele>192.4</ele>
        <time>2026-05-09T09:04:40.999Z</time>
      </trkpt>
      <trkpt lat="43.83246" lon="4.18729">
        <ele>192.3</ele>
        <time>2026-05-09T09:04:41.999Z</time>
      </trkpt>
      <trkpt lat="43.83246" lon="4.18729">
        <ele>192.4</ele>
        <time>2026-05-09T09:04:42.999Z</time>
      </trkpt>
      <trkpt lat="43.83245" lon="4.18728">
        <ele>192.6</ele>
        <time>2026-05-09T09:04:43.999Z</time>
      </trkpt>
      <trkpt lat="43.83245" lon="4.18728">
        <ele>192.7</ele>
        <time>2026-05-09T09:04:44.999Z</time>
      </trkpt>
      <trkpt lat="43.83245" lon="4.18728">
        <ele>192.8</ele>
        <time>2026-05-09T09:04:45.999Z</time>
      </trkpt>
      <trkpt lat="43.83245" lon="4.18728">
        <ele>192.8</ele>
        <time>2026-05-09T09:04:46.999Z</time>
      </trkpt>
      <trkpt lat="43.83245" lon="4.18728">
        <ele>192.9</ele>
        <time>2026-05-09T09:04:47.999Z</time>
      </trkpt>
      <trkpt lat="43.83245" lon="4.18728">
        <ele>192.8</ele>
        <time>2026-05-09T09:04:48.999Z</time>
      </trkpt>
      <trkpt lat="43.83245" lon="4.18728">
        <ele>192.7</ele>
        <time>2026-05-09T09:04:49.999Z</time>
      </trkpt>
      <trkpt lat="43.83245" lon="4.18728">
        <ele>192.6</ele>
        <time>2026-05-09T09:04:50.999Z</time>
      </trkpt>
      <trkpt lat="43.83244" lon="4.18728">
        <ele>192.5</ele>
        <time>2026-05-09T09:04:51.999Z</time>
      </trkpt>
      <trkpt lat="43.83244" lon="4.18727">
        <ele>192.5</ele>
        <time>2026-05-09T09:04:52.999Z</time>
      </trkpt>
      <trkpt lat="43.83243" lon="4.18727">
        <ele>192.2</ele>
        <time>2026-05-09T09:04:53.999Z</time>
      </trkpt>
      <trkpt lat="43.83243" lon="4.18727">
        <ele>192.1</ele>
        <time>2026-05-09T09:04:54.999Z</time>
      </trkpt>
      <trkpt lat="43.83243" lon="4.18727">
        <ele>191.9</ele>
        <time>2026-05-09T09:04:55.999Z</time>
      </trkpt>
      <trkpt lat="43.83243" lon="4.18727">
        <ele>191.7</ele>
        <time>2026-05-09T09:04:56.999Z</time>
      </trkpt>
      <trkpt lat="43.83243" lon="4.18727">
        <ele>191.6</ele>
        <time>2026-05-09T09:04:57.999Z</time>
      </trkpt>
      <trkpt lat="43.83243" lon="4.18727">
        <ele>191.4</ele>
        <time>2026-05-09T09:04:58.999Z</time>
      </trkpt>
      <trkpt lat="43.83242" lon="4.18727">
        <ele>191.2</ele>
        <time>2026-05-09T09:04:59.999Z</time>
      </trkpt>
      <trkpt lat="43.83242" lon="4.18727">
        <ele>191.2</ele>
        <time>2026-05-09T09:05:00.999Z</time>
      </trkpt>
      <trkpt lat="43.83242" lon="4.18727">
        <ele>191.3</ele>
        <time>2026-05-09T09:05:01.999Z</time>
      </trkpt>
      <trkpt lat="43.83242" lon="4.18727">
        <ele>191.4</ele>
        <time>2026-05-09T09:05:02.999Z</time>
      </trkpt>
      <trkpt lat="43.83242" lon="4.18727">
        <ele>191.4</ele>
        <time>2026-05-09T09:05:03.999Z</time>
      </trkpt>
      <trkpt lat="43.83243" lon="4.18727">
        <ele>191.3</ele>
        <time>2026-05-09T09:05:04.999Z</time>
      </trkpt>
      <trkpt lat="43.83243" lon="4.18729">
        <ele>191.7</ele>
        <time>2026-05-09T09:05:06.999Z</time>
      </trkpt>
      <trkpt lat="43.83243" lon="4.18729">
        <ele>191.7</ele>
        <time>2026-05-09T09:05:07.999Z</time>
      </trkpt>
      <trkpt lat="43.83243" lon="4.18729">
        <ele>191.8</ele>
        <time>2026-05-09T09:05:08.999Z</time>
      </trkpt>
      <trkpt lat="43.83244" lon="4.1873">
        <ele>191.6</ele>
        <time>2026-05-09T09:05:09.999Z</time>
      </trkpt>
      <trkpt lat="43.83244" lon="4.18729">
        <ele>191.6</ele>
        <time>2026-05-09T09:05:10.999Z</time>
      </trkpt>
      <trkpt lat="43.83244" lon="4.18729">
        <ele>191.5</ele>
        <time>2026-05-09T09:05:11.999Z</time>
      </trkpt>
      <trkpt lat="43.83244" lon="4.1873">
        <ele>191.3</ele>
        <time>2026-05-09T09:05:12.999Z</time>
      </trkpt>
      <trkpt lat="43.83244" lon="4.1873">
        <ele>191.3</ele>
        <time>2026-05-09T09:05:13.999Z</time>
      </trkpt>
      <trkpt lat="43.83244" lon="4.1873">
        <ele>191.3</ele>
        <time>2026-05-09T09:05:14.999Z</time>
      </trkpt>
      <trkpt lat="43.83244" lon="4.1873">
        <ele>191.2</ele>
        <time>2026-05-09T09:05:15.999Z</time>
      </trkpt>
      <trkpt lat="43.83244" lon="4.1873">
        <ele>191.2</ele>
        <time>2026-05-09T09:05:16.999Z</time>
      </trkpt>
      <trkpt lat="43.83244" lon="4.1873">
        <ele>191.3</ele>
        <time>2026-05-09T09:05:17.999Z</time>
      </trkpt>
      <trkpt lat="43.83244" lon="4.1873">
        <ele>191.4</ele>
        <time>2026-05-09T09:05:18.999Z</time>
      </trkpt>
      <trkpt lat="43.83243" lon="4.1873">
        <ele>191.4</ele>
        <time>2026-05-09T09:05:19.999Z</time>
      </trkpt>
      <trkpt lat="43.83243" lon="4.1873">
        <ele>191.2</ele>
        <time>2026-05-09T09:05:20.999Z</time>
      </trkpt>
      <trkpt lat="43.83243" lon="4.1873">
        <ele>191.2</ele>
        <time>2026-05-09T09:05:21.999Z</time>
      </trkpt>
      <trkpt lat="43.83243" lon="4.1873">
        <ele>191</ele>
        <time>2026-05-09T09:05:22.999Z</time>
      </trkpt>
      <trkpt lat="43.83243" lon="4.1873">
        <ele>190.9</ele>
        <time>2026-05-09T09:05:23.999Z</time>
      </trkpt>
      <trkpt lat="43.83243" lon="4.1873">
        <ele>190.7</ele>
        <time>2026-05-09T09:05:24.999Z</time>
      </trkpt>
      <trkpt lat="43.83243" lon="4.1873">
        <ele>190.5</ele>
        <time>2026-05-09T09:05:25.999Z</time>
      </trkpt>
      <trkpt lat="43.83243" lon="4.1873">
        <ele>190.3</ele>
        <time>2026-05-09T09:05:26.999Z</time>
      </trkpt>
      <trkpt lat="43.83243" lon="4.1873">
        <ele>190.2</ele>
        <time>2026-05-09T09:05:27.999Z</time>
      </trkpt>
      <trkpt lat="43.83243" lon="4.1873">
        <ele>190.2</ele>
        <time>2026-05-09T09:05:28.999Z</time>
      </trkpt>
      <trkpt lat="43.83243" lon="4.18729">
        <ele>190.1</ele>
        <time>2026-05-09T09:05:29.999Z</time>
      </trkpt>
      <trkpt lat="43.83243" lon="4.18729">
        <ele>190</ele>
        <time>2026-05-09T09:05:30.999Z</time>
      </trkpt>
      <trkpt lat="43.83242" lon="4.18727">
        <ele>189.6</ele>
        <time>2026-05-09T09:05:31.999Z</time>
      </trkpt>
      <trkpt lat="43.83243" lon="4.18727">
        <ele>189.6</ele>
        <time>2026-05-09T09:05:32.999Z</time>
      </trkpt>
      <trkpt lat="43.83243" lon="4.18727">
        <ele>189.6</ele>
        <time>2026-05-09T09:05:33.999Z</time>
      </trkpt>
      <trkpt lat="43.83243" lon="4.18727">
        <ele>189.6</ele>
        <time>2026-05-09T09:05:34.999Z</time>
      </trkpt>
      <trkpt lat="43.83243" lon="4.18727">
        <ele>189.6</ele>
        <time>2026-05-09T09:05:35.999Z</time>
      </trkpt>
      <trkpt lat="43.83243" lon="4.18727">
        <ele>189.7</ele>
        <time>2026-05-09T09:05:36.999Z</time>
      </trkpt>
      <trkpt lat="43.83243" lon="4.18727">
        <ele>189.7</ele>
        <time>2026-05-09T09:05:37.999Z</time>
      </trkpt>
      <trkpt lat="43.83243" lon="4.18727">
        <ele>189.6</ele>
        <time>2026-05-09T09:05:38.999Z</time>
      </trkpt>
      <trkpt lat="43.83243" lon="4.18727">
        <ele>189.6</ele>
        <time>2026-05-09T09:05:39.999Z</time>
      </trkpt>
      <trkpt lat="43.83243" lon="4.18727">
        <ele>189.6</ele>
        <time>2026-05-09T09:05:40.999Z</time>
      </trkpt>
      <trkpt lat="43.83243" lon="4.18727">
        <ele>189.6</ele>
        <time>2026-05-09T09:05:41.999Z</time>
      </trkpt>
      <trkpt lat="43.83243" lon="4.18726">
        <ele>189.6</ele>
        <time>2026-05-09T09:05:42.999Z</time>
      </trkpt>
      <trkpt lat="43.83243" lon="4.18726">
        <ele>189.5</ele>
        <time>2026-05-09T09:05:43.999Z</time>
      </trkpt>
      <trkpt lat="43.83243" lon="4.18726">
        <ele>189.5</ele>
        <time>2026-05-09T09:05:44.999Z</time>
      </trkpt>
      <trkpt lat="43.83243" lon="4.18726">
        <ele>189.4</ele>
        <time>2026-05-09T09:05:45.999Z</time>
      </trkpt>
      <trkpt lat="43.83242" lon="4.18726">
        <ele>189.5</ele>
        <time>2026-05-09T09:05:46.999Z</time>
      </trkpt>
      <trkpt lat="43.83242" lon="4.18726">
        <ele>189.5</ele>
        <time>2026-05-09T09:05:47.999Z</time>
      </trkpt>
      <trkpt lat="43.83242" lon="4.18726">
        <ele>189.4</ele>
        <time>2026-05-09T09:05:48.999Z</time>
      </trkpt>
      <trkpt lat="43.83242" lon="4.18726">
        <ele>189.4</ele>
        <time>2026-05-09T09:05:49.999Z</time>
      </trkpt>
      <trkpt lat="43.83242" lon="4.18726">
        <ele>189.6</ele>
        <time>2026-05-09T09:05:50.999Z</time>
      </trkpt>
      <trkpt lat="43.83241" lon="4.18725">
        <ele>189.7</ele>
        <time>2026-05-09T09:05:51.999Z</time>
      </trkpt>
      <trkpt lat="43.83239" lon="4.18724">
        <ele>189.6</ele>
        <time>2026-05-09T09:05:52.999Z</time>
      </trkpt>
      <trkpt lat="43.83238" lon="4.18724">
        <ele>189.6</ele>
        <time>2026-05-09T09:05:53.999Z</time>
      </trkpt>
      <trkpt lat="43.83237" lon="4.18724">
        <ele>189.7</ele>
        <time>2026-05-09T09:05:54.999Z</time>
      </trkpt>
      <trkpt lat="43.83236" lon="4.18724">
        <ele>189.6</ele>
        <time>2026-05-09T09:05:55.999Z</time>
      </trkpt>
      <trkpt lat="43.83235" lon="4.18724">
        <ele>189.6</ele>
        <time>2026-05-09T09:05:56.999Z</time>
      </trkpt>
      <trkpt lat="43.83234" lon="4.18723">
        <ele>189.4</ele>
        <time>2026-05-09T09:05:57.999Z</time>
      </trkpt>
      <trkpt lat="43.83233" lon="4.18722">
        <ele>189.5</ele>
        <time>2026-05-09T09:05:58.999Z</time>
      </trkpt>
      <trkpt lat="43.83232" lon="4.18721">
        <ele>189.5</ele>
        <time>2026-05-09T09:05:59.999Z</time>
      </trkpt>
      <trkpt lat="43.83231" lon="4.18721">
        <ele>189.7</ele>
        <time>2026-05-09T09:06:00.999Z</time>
      </trkpt>
      <trkpt lat="43.83231" lon="4.1872">
        <ele>189.7</ele>
        <time>2026-05-09T09:06:01.999Z</time>
      </trkpt>
      <trkpt lat="43.8323" lon="4.18719">
        <ele>189.7</ele>
        <time>2026-05-09T09:06:02.999Z</time>
      </trkpt>
      <trkpt lat="43.83229" lon="4.18717">
        <ele>189.5</ele>
        <time>2026-05-09T09:06:03.999Z</time>
      </trkpt>
      <trkpt lat="43.83229" lon="4.18716">
        <ele>189.3</ele>
        <time>2026-05-09T09:06:04.999Z</time>
      </trkpt>
      <trkpt lat="43.83229" lon="4.18715">
        <ele>189.1</ele>
        <time>2026-05-09T09:06:05.999Z</time>
      </trkpt>
      <trkpt lat="43.83228" lon="4.18714">
        <ele>189.3</ele>
        <time>2026-05-09T09:06:06.999Z</time>
      </trkpt>
      <trkpt lat="43.83228" lon="4.18713">
        <ele>189.2</ele>
        <time>2026-05-09T09:06:07.999Z</time>
      </trkpt>
      <trkpt lat="43.83227" lon="4.18712">
        <ele>188.9</ele>
        <time>2026-05-09T09:06:08.999Z</time>
      </trkpt>
      <trkpt lat="43.83226" lon="4.1871">
        <ele>188.8</ele>
        <time>2026-05-09T09:06:09.999Z</time>
      </trkpt>
      <trkpt lat="43.83225" lon="4.18709">
        <ele>188.6</ele>
        <time>2026-05-09T09:06:10.999Z</time>
      </trkpt>
      <trkpt lat="43.83225" lon="4.18708">
        <ele>188.5</ele>
        <time>2026-05-09T09:06:11.999Z</time>
      </trkpt>
      <trkpt lat="43.83224" lon="4.18708">
        <ele>188.3</ele>
        <time>2026-05-09T09:06:12.999Z</time>
      </trkpt>
      <trkpt lat="43.83224" lon="4.18707">
        <ele>188.3</ele>
        <time>2026-05-09T09:06:13.999Z</time>
      </trkpt>
      <trkpt lat="43.83223" lon="4.18706">
        <ele>188.5</ele>
        <time>2026-05-09T09:06:14.999Z</time>
      </trkpt>
      <trkpt lat="43.83222" lon="4.18705">
        <ele>188.5</ele>
        <time>2026-05-09T09:06:15.999Z</time>
      </trkpt>
      <trkpt lat="43.83221" lon="4.18703">
        <ele>188.6</ele>
        <time>2026-05-09T09:06:16.999Z</time>
      </trkpt>
      <trkpt lat="43.83221" lon="4.18702">
        <ele>188.6</ele>
        <time>2026-05-09T09:06:17.999Z</time>
      </trkpt>
      <trkpt lat="43.8322" lon="4.18702">
        <ele>188.9</ele>
        <time>2026-05-09T09:06:18.999Z</time>
      </trkpt>
      <trkpt lat="43.8322" lon="4.18701">
        <ele>189</ele>
        <time>2026-05-09T09:06:19.999Z</time>
      </trkpt>
      <trkpt lat="43.83219" lon="4.18701">
        <ele>189.2</ele>
        <time>2026-05-09T09:06:20.999Z</time>
      </trkpt>
      <trkpt lat="43.83218" lon="4.187">
        <ele>189.1</ele>
        <time>2026-05-09T09:06:21.999Z</time>
      </trkpt>
      <trkpt lat="43.83217" lon="4.18699">
        <ele>189</ele>
        <time>2026-05-09T09:06:22.999Z</time>
      </trkpt>
      <trkpt lat="43.83217" lon="4.18699">
        <ele>188.9</ele>
        <time>2026-05-09T09:06:23.999Z</time>
      </trkpt>
      <trkpt lat="43.83216" lon="4.18698">
        <ele>188.8</ele>
        <time>2026-05-09T09:06:24.999Z</time>
      </trkpt>
      <trkpt lat="43.83215" lon="4.18697">
        <ele>188.7</ele>
        <time>2026-05-09T09:06:25.999Z</time>
      </trkpt>
      <trkpt lat="43.83213" lon="4.18696">
        <ele>188.8</ele>
        <time>2026-05-09T09:06:26.999Z</time>
      </trkpt>
      <trkpt lat="43.83212" lon="4.18696">
        <ele>188.7</ele>
        <time>2026-05-09T09:06:27.999Z</time>
      </trkpt>
      <trkpt lat="43.83211" lon="4.18696">
        <ele>188.7</ele>
        <time>2026-05-09T09:06:28.999Z</time>
      </trkpt>
      <trkpt lat="43.8321" lon="4.18696">
        <ele>188.6</ele>
        <time>2026-05-09T09:06:29.999Z</time>
      </trkpt>
      <trkpt lat="43.83209" lon="4.18696">
        <ele>188.5</ele>
        <time>2026-05-09T09:06:30.999Z</time>
      </trkpt>
      <trkpt lat="43.83209" lon="4.18696">
        <ele>188.1</ele>
        <time>2026-05-09T09:06:31.999Z</time>
      </trkpt>
      <trkpt lat="43.83207" lon="4.18695">
        <ele>187.8</ele>
        <time>2026-05-09T09:06:32.999Z</time>
      </trkpt>
      <trkpt lat="43.83206" lon="4.18694">
        <ele>187.7</ele>
        <time>2026-05-09T09:06:33.999Z</time>
      </trkpt>
      <trkpt lat="43.83205" lon="4.18694">
        <ele>187.3</ele>
        <time>2026-05-09T09:06:34.999Z</time>
      </trkpt>
      <trkpt lat="43.83203" lon="4.18694">
        <ele>187.4</ele>
        <time>2026-05-09T09:06:35.999Z</time>
      </trkpt>
      <trkpt lat="43.83202" lon="4.18694">
        <ele>187.6</ele>
        <time>2026-05-09T09:06:36.999Z</time>
      </trkpt>
      <trkpt lat="43.83201" lon="4.18694">
        <ele>187.6</ele>
        <time>2026-05-09T09:06:37.999Z</time>
      </trkpt>
      <trkpt lat="43.83201" lon="4.18695">
        <ele>187.6</ele>
        <time>2026-05-09T09:06:38.999Z</time>
      </trkpt>
      <trkpt lat="43.832" lon="4.18695">
        <ele>188.1</ele>
        <time>2026-05-09T09:06:39.999Z</time>
      </trkpt>
      <trkpt lat="43.83199" lon="4.18695">
        <ele>188.1</ele>
        <time>2026-05-09T09:06:40.999Z</time>
      </trkpt>
      <trkpt lat="43.83198" lon="4.18695">
        <ele>188.2</ele>
        <time>2026-05-09T09:06:41.999Z</time>
      </trkpt>
      <trkpt lat="43.83197" lon="4.18696">
        <ele>188.4</ele>
        <time>2026-05-09T09:06:42.999Z</time>
      </trkpt>
      <trkpt lat="43.83196" lon="4.18696">
        <ele>188.6</ele>
        <time>2026-05-09T09:06:43.999Z</time>
      </trkpt>
      <trkpt lat="43.83194" lon="4.18697">
        <ele>188.7</ele>
        <time>2026-05-09T09:06:44.999Z</time>
      </trkpt>
      <trkpt lat="43.83193" lon="4.18697">
        <ele>188.7</ele>
        <time>2026-05-09T09:06:45.999Z</time>
      </trkpt>
      <trkpt lat="43.83193" lon="4.18697">
        <ele>188.8</ele>
        <time>2026-05-09T09:06:46.999Z</time>
      </trkpt>
      <trkpt lat="43.83192" lon="4.18698">
        <ele>189.1</ele>
        <time>2026-05-09T09:06:47.999Z</time>
      </trkpt>
      <trkpt lat="43.83191" lon="4.18698">
        <ele>189.2</ele>
        <time>2026-05-09T09:06:48.999Z</time>
      </trkpt>
      <trkpt lat="43.83191" lon="4.18698">
        <ele>189.3</ele>
        <time>2026-05-09T09:06:49.999Z</time>
      </trkpt>
      <trkpt lat="43.8319" lon="4.18698">
        <ele>189.3</ele>
        <time>2026-05-09T09:06:50.999Z</time>
      </trkpt>
      <trkpt lat="43.83189" lon="4.18699">
        <ele>189.4</ele>
        <time>2026-05-09T09:06:51.999Z</time>
      </trkpt>
      <trkpt lat="43.83188" lon="4.18699">
        <ele>189.7</ele>
        <time>2026-05-09T09:06:52.999Z</time>
      </trkpt>
      <trkpt lat="43.83187" lon="4.187">
        <ele>189.9</ele>
        <time>2026-05-09T09:06:53.999Z</time>
      </trkpt>
      <trkpt lat="43.83186" lon="4.18701">
        <ele>190</ele>
        <time>2026-05-09T09:06:54.999Z</time>
      </trkpt>
      <trkpt lat="43.83185" lon="4.18701">
        <ele>189.9</ele>
        <time>2026-05-09T09:06:55.999Z</time>
      </trkpt>
      <trkpt lat="43.83184" lon="4.18702">
        <ele>189.7</ele>
        <time>2026-05-09T09:06:56.999Z</time>
      </trkpt>
      <trkpt lat="43.83183" lon="4.18703">
        <ele>190</ele>
        <time>2026-05-09T09:06:57.999Z</time>
      </trkpt>
      <trkpt lat="43.83183" lon="4.18704">
        <ele>190.1</ele>
        <time>2026-05-09T09:06:58.999Z</time>
      </trkpt>
      <trkpt lat="43.83183" lon="4.18704">
        <ele>190.3</ele>
        <time>2026-05-09T09:06:59.999Z</time>
      </trkpt>
      <trkpt lat="43.83183" lon="4.18704">
        <ele>190.3</ele>
        <time>2026-05-09T09:07:00.999Z</time>
      </trkpt>
      <trkpt lat="43.83182" lon="4.18705">
        <ele>190.5</ele>
        <time>2026-05-09T09:07:01.999Z</time>
      </trkpt>
      <trkpt lat="43.83182" lon="4.18706">
        <ele>190.6</ele>
        <time>2026-05-09T09:07:02.999Z</time>
      </trkpt>
      <trkpt lat="43.83181" lon="4.18707">
        <ele>190.6</ele>
        <time>2026-05-09T09:07:03.999Z</time>
      </trkpt>
      <trkpt lat="43.83181" lon="4.18708">
        <ele>190.7</ele>
        <time>2026-05-09T09:07:04.999Z</time>
      </trkpt>
      <trkpt lat="43.83181" lon="4.18709">
        <ele>190.9</ele>
        <time>2026-05-09T09:07:05.999Z</time>
      </trkpt>
      <trkpt lat="43.8318" lon="4.18709">
        <ele>191</ele>
        <time>2026-05-09T09:07:06.999Z</time>
      </trkpt>
      <trkpt lat="43.83179" lon="4.18709">
        <ele>191.3</ele>
        <time>2026-05-09T09:07:07.999Z</time>
      </trkpt>
      <trkpt lat="43.83179" lon="4.1871">
        <ele>191.4</ele>
        <time>2026-05-09T09:07:08.999Z</time>
      </trkpt>
      <trkpt lat="43.83178" lon="4.1871">
        <ele>191.5</ele>
        <time>2026-05-09T09:07:09.999Z</time>
      </trkpt>
      <trkpt lat="43.83178" lon="4.18711">
        <ele>191.7</ele>
        <time>2026-05-09T09:07:10.999Z</time>
      </trkpt>
      <trkpt lat="43.83177" lon="4.18711">
        <ele>192</ele>
        <time>2026-05-09T09:07:11.999Z</time>
      </trkpt>
      <trkpt lat="43.83176" lon="4.18711">
        <ele>192.2</ele>
        <time>2026-05-09T09:07:12.999Z</time>
      </trkpt>
      <trkpt lat="43.83174" lon="4.18712">
        <ele>192.4</ele>
        <time>2026-05-09T09:07:13.999Z</time>
      </trkpt>
      <trkpt lat="43.83174" lon="4.18713">
        <ele>192.2</ele>
        <time>2026-05-09T09:07:14.999Z</time>
      </trkpt>
      <trkpt lat="43.83173" lon="4.18713">
        <ele>192.1</ele>
        <time>2026-05-09T09:07:15.999Z</time>
      </trkpt>
      <trkpt lat="43.83172" lon="4.18714">
        <ele>192.4</ele>
        <time>2026-05-09T09:07:16.999Z</time>
      </trkpt>
      <trkpt lat="43.83171" lon="4.18714">
        <ele>192.5</ele>
        <time>2026-05-09T09:07:17.999Z</time>
      </trkpt>
      <trkpt lat="43.83171" lon="4.18714">
        <ele>192.4</ele>
        <time>2026-05-09T09:07:18.999Z</time>
      </trkpt>
      <trkpt lat="43.8317" lon="4.18715">
        <ele>192.6</ele>
        <time>2026-05-09T09:07:19.999Z</time>
      </trkpt>
      <trkpt lat="43.8317" lon="4.18716">
        <ele>192.9</ele>
        <time>2026-05-09T09:07:20.999Z</time>
      </trkpt>
      <trkpt lat="43.83169" lon="4.18717">
        <ele>193.1</ele>
        <time>2026-05-09T09:07:21.999Z</time>
      </trkpt>
      <trkpt lat="43.83169" lon="4.18717">
        <ele>193.7</ele>
        <time>2026-05-09T09:07:22.999Z</time>
      </trkpt>
      <trkpt lat="43.83168" lon="4.18717">
        <ele>193.8</ele>
        <time>2026-05-09T09:07:23.999Z</time>
      </trkpt>
      <trkpt lat="43.83168" lon="4.18718">
        <ele>193.7</ele>
        <time>2026-05-09T09:07:24.999Z</time>
      </trkpt>
      <trkpt lat="43.83168" lon="4.18719">
        <ele>193.7</ele>
        <time>2026-05-09T09:07:25.999Z</time>
      </trkpt>
      <trkpt lat="43.83167" lon="4.18719">
        <ele>193.7</ele>
        <time>2026-05-09T09:07:26.999Z</time>
      </trkpt>
      <trkpt lat="43.83167" lon="4.18719">
        <ele>193.9</ele>
        <time>2026-05-09T09:07:27.999Z</time>
      </trkpt>
      <trkpt lat="43.83166" lon="4.1872">
        <ele>193.9</ele>
        <time>2026-05-09T09:07:28.999Z</time>
      </trkpt>
      <trkpt lat="43.83166" lon="4.18721">
        <ele>193.7</ele>
        <time>2026-05-09T09:07:29.999Z</time>
      </trkpt>
      <trkpt lat="43.83165" lon="4.18722">
        <ele>193.8</ele>
        <time>2026-05-09T09:07:30.999Z</time>
      </trkpt>
      <trkpt lat="43.83165" lon="4.18723">
        <ele>194</ele>
        <time>2026-05-09T09:07:31.999Z</time>
      </trkpt>
      <trkpt lat="43.83164" lon="4.18723">
        <ele>193.8</ele>
        <time>2026-05-09T09:07:32.999Z</time>
      </trkpt>
      <trkpt lat="43.83163" lon="4.18723">
        <ele>193.7</ele>
        <time>2026-05-09T09:07:33.999Z</time>
      </trkpt>
      <trkpt lat="43.83163" lon="4.18723">
        <ele>193.6</ele>
        <time>2026-05-09T09:07:34.999Z</time>
      </trkpt>
      <trkpt lat="43.83162" lon="4.18723">
        <ele>193.6</ele>
        <time>2026-05-09T09:07:35.999Z</time>
      </trkpt>
      <trkpt lat="43.83161" lon="4.18724">
        <ele>193.7</ele>
        <time>2026-05-09T09:07:36.999Z</time>
      </trkpt>
      <trkpt lat="43.8316" lon="4.18725">
        <ele>193.9</ele>
        <time>2026-05-09T09:07:37.999Z</time>
      </trkpt>
      <trkpt lat="43.83159" lon="4.18725">
        <ele>194.1</ele>
        <time>2026-05-09T09:07:38.999Z</time>
      </trkpt>
      <trkpt lat="43.83159" lon="4.18725">
        <ele>194.2</ele>
        <time>2026-05-09T09:07:39.999Z</time>
      </trkpt>
      <trkpt lat="43.83158" lon="4.18726">
        <ele>194.4</ele>
        <time>2026-05-09T09:07:40.999Z</time>
      </trkpt>
      <trkpt lat="43.83157" lon="4.18727">
        <ele>194.8</ele>
        <time>2026-05-09T09:07:41.999Z</time>
      </trkpt>
      <trkpt lat="43.83157" lon="4.18728">
        <ele>195</ele>
        <time>2026-05-09T09:07:42.999Z</time>
      </trkpt>
      <trkpt lat="43.83157" lon="4.18729">
        <ele>195.4</ele>
        <time>2026-05-09T09:07:43.999Z</time>
      </trkpt>
      <trkpt lat="43.83156" lon="4.1873">
        <ele>195.6</ele>
        <time>2026-05-09T09:07:44.999Z</time>
      </trkpt>
      <trkpt lat="43.83156" lon="4.18731">
        <ele>195.6</ele>
        <time>2026-05-09T09:07:45.999Z</time>
      </trkpt>
      <trkpt lat="43.83155" lon="4.18732">
        <ele>195.8</ele>
        <time>2026-05-09T09:07:46.999Z</time>
      </trkpt>
      <trkpt lat="43.83154" lon="4.18732">
        <ele>196</ele>
        <time>2026-05-09T09:07:47.999Z</time>
      </trkpt>
      <trkpt lat="43.83154" lon="4.18733">
        <ele>196.2</ele>
        <time>2026-05-09T09:07:48.999Z</time>
      </trkpt>
      <trkpt lat="43.83153" lon="4.18733">
        <ele>196.1</ele>
        <time>2026-05-09T09:07:49.999Z</time>
      </trkpt>
      <trkpt lat="43.83152" lon="4.18734">
        <ele>196</ele>
        <time>2026-05-09T09:07:50.999Z</time>
      </trkpt>
      <trkpt lat="43.83152" lon="4.18734">
        <ele>196</ele>
        <time>2026-05-09T09:07:51.999Z</time>
      </trkpt>
      <trkpt lat="43.83151" lon="4.18734">
        <ele>195.7</ele>
        <time>2026-05-09T09:07:52.999Z</time>
      </trkpt>
      <trkpt lat="43.8315" lon="4.18735">
        <ele>195.3</ele>
        <time>2026-05-09T09:07:53.999Z</time>
      </trkpt>
      <trkpt lat="43.83149" lon="4.18735">
        <ele>195.2</ele>
        <time>2026-05-09T09:07:54.999Z</time>
      </trkpt>
      <trkpt lat="43.83149" lon="4.18736">
        <ele>195.6</ele>
        <time>2026-05-09T09:07:55.999Z</time>
      </trkpt>
      <trkpt lat="43.83148" lon="4.18737">
        <ele>195.8</ele>
        <time>2026-05-09T09:07:56.999Z</time>
      </trkpt>
      <trkpt lat="43.83148" lon="4.18738">
        <ele>195.9</ele>
        <time>2026-05-09T09:07:57.999Z</time>
      </trkpt>
      <trkpt lat="43.83147" lon="4.18739">
        <ele>196.1</ele>
        <time>2026-05-09T09:07:58.999Z</time>
      </trkpt>
      <trkpt lat="43.83146" lon="4.18741">
        <ele>196.2</ele>
        <time>2026-05-09T09:07:59.999Z</time>
      </trkpt>
      <trkpt lat="43.83145" lon="4.18742">
        <ele>196.1</ele>
        <time>2026-05-09T09:08:00.999Z</time>
      </trkpt>
      <trkpt lat="43.83145" lon="4.18743">
        <ele>196.1</ele>
        <time>2026-05-09T09:08:01.999Z</time>
      </trkpt>
      <trkpt lat="43.83144" lon="4.18744">
        <ele>196.1</ele>
        <time>2026-05-09T09:08:02.999Z</time>
      </trkpt>
      <trkpt lat="43.83144" lon="4.18745">
        <ele>196.3</ele>
        <time>2026-05-09T09:08:03.999Z</time>
      </trkpt>
      <trkpt lat="43.83144" lon="4.18746">
        <ele>196</ele>
        <time>2026-05-09T09:08:04.999Z</time>
      </trkpt>
      <trkpt lat="43.83144" lon="4.18748">
        <ele>195.6</ele>
        <time>2026-05-09T09:08:05.999Z</time>
      </trkpt>
      <trkpt lat="43.83144" lon="4.1875">
        <ele>195.1</ele>
        <time>2026-05-09T09:08:06.999Z</time>
      </trkpt>
      <trkpt lat="43.83144" lon="4.1875">
        <ele>194.9</ele>
        <time>2026-05-09T09:08:07.999Z</time>
      </trkpt>
      <trkpt lat="43.83144" lon="4.18751">
        <ele>194.9</ele>
        <time>2026-05-09T09:08:08.999Z</time>
      </trkpt>
      <trkpt lat="43.83145" lon="4.18751">
        <ele>195</ele>
        <time>2026-05-09T09:08:09.999Z</time>
      </trkpt>
      <trkpt lat="43.83145" lon="4.18751">
        <ele>194.7</ele>
        <time>2026-05-09T09:08:10.999Z</time>
      </trkpt>
      <trkpt lat="43.83146" lon="4.18751">
        <ele>194.7</ele>
        <time>2026-05-09T09:08:11.999Z</time>
      </trkpt>
      <trkpt lat="43.83146" lon="4.18751">
        <ele>194.6</ele>
        <time>2026-05-09T09:08:12.999Z</time>
      </trkpt>
      <trkpt lat="43.83147" lon="4.18751">
        <ele>195</ele>
        <time>2026-05-09T09:08:13.999Z</time>
      </trkpt>
      <trkpt lat="43.83148" lon="4.18751">
        <ele>195.2</ele>
        <time>2026-05-09T09:08:14.999Z</time>
      </trkpt>
      <trkpt lat="43.83148" lon="4.18751">
        <ele>195.4</ele>
        <time>2026-05-09T09:08:15.999Z</time>
      </trkpt>
      <trkpt lat="43.83149" lon="4.18751">
        <ele>195.3</ele>
        <time>2026-05-09T09:08:16.999Z</time>
      </trkpt>
      <trkpt lat="43.83149" lon="4.18751">
        <ele>195.6</ele>
        <time>2026-05-09T09:08:17.999Z</time>
      </trkpt>
      <trkpt lat="43.8315" lon="4.18751">
        <ele>195.4</ele>
        <time>2026-05-09T09:08:18.999Z</time>
      </trkpt>
      <trkpt lat="43.8315" lon="4.18752">
        <ele>195.5</ele>
        <time>2026-05-09T09:08:19.999Z</time>
      </trkpt>
      <trkpt lat="43.83151" lon="4.18752">
        <ele>195.4</ele>
        <time>2026-05-09T09:08:20.999Z</time>
      </trkpt>
      <trkpt lat="43.83151" lon="4.18752">
        <ele>195.6</ele>
        <time>2026-05-09T09:08:21.999Z</time>
      </trkpt>
      <trkpt lat="43.83152" lon="4.18752">
        <ele>195.8</ele>
        <time>2026-05-09T09:08:22.999Z</time>
      </trkpt>
      <trkpt lat="43.83152" lon="4.18752">
        <ele>196.2</ele>
        <time>2026-05-09T09:08:23.999Z</time>
      </trkpt>
      <trkpt lat="43.83152" lon="4.18752">
        <ele>196.5</ele>
        <time>2026-05-09T09:08:24.999Z</time>
      </trkpt>
      <trkpt lat="43.83153" lon="4.18752">
        <ele>196.7</ele>
        <time>2026-05-09T09:08:25.999Z</time>
      </trkpt>
      <trkpt lat="43.83153" lon="4.18752">
        <ele>196.8</ele>
        <time>2026-05-09T09:08:26.999Z</time>
      </trkpt>
      <trkpt lat="43.83153" lon="4.18752">
        <ele>197</ele>
        <time>2026-05-09T09:08:27.999Z</time>
      </trkpt>
      <trkpt lat="43.83154" lon="4.18752">
        <ele>196.9</ele>
        <time>2026-05-09T09:08:28.999Z</time>
      </trkpt>
      <trkpt lat="43.83154" lon="4.18752">
        <ele>197</ele>
        <time>2026-05-09T09:08:29.999Z</time>
      </trkpt>
      <trkpt lat="43.83155" lon="4.18752">
        <ele>197.1</ele>
        <time>2026-05-09T09:08:30.999Z</time>
      </trkpt>
      <trkpt lat="43.83156" lon="4.18752">
        <ele>197</ele>
        <time>2026-05-09T09:08:31.999Z</time>
      </trkpt>
      <trkpt lat="43.83156" lon="4.18752">
        <ele>197.2</ele>
        <time>2026-05-09T09:08:32.999Z</time>
      </trkpt>
      <trkpt lat="43.83156" lon="4.18752">
        <ele>197.3</ele>
        <time>2026-05-09T09:08:33.999Z</time>
      </trkpt>
      <trkpt lat="43.83156" lon="4.18752">
        <ele>197.4</ele>
        <time>2026-05-09T09:08:34.999Z</time>
      </trkpt>
      <trkpt lat="43.83156" lon="4.18753">
        <ele>197.5</ele>
        <time>2026-05-09T09:08:35.999Z</time>
      </trkpt>
      <trkpt lat="43.83156" lon="4.18753">
        <ele>197.5</ele>
        <time>2026-05-09T09:08:36.999Z</time>
      </trkpt>
      <trkpt lat="43.83156" lon="4.18754">
        <ele>197.8</ele>
        <time>2026-05-09T09:08:37.999Z</time>
      </trkpt>
      <trkpt lat="43.83156" lon="4.18755">
        <ele>197.8</ele>
        <time>2026-05-09T09:08:38.999Z</time>
      </trkpt>
      <trkpt lat="43.83156" lon="4.18756">
        <ele>197.9</ele>
        <time>2026-05-09T09:08:39.999Z</time>
      </trkpt>
      <trkpt lat="43.83156" lon="4.18757">
        <ele>197.8</ele>
        <time>2026-05-09T09:08:40.999Z</time>
      </trkpt>
      <trkpt lat="43.83156" lon="4.18757">
        <ele>197.7</ele>
        <time>2026-05-09T09:08:41.999Z</time>
      </trkpt>
      <trkpt lat="43.83156" lon="4.18757">
        <ele>197.9</ele>
        <time>2026-05-09T09:08:42.999Z</time>
      </trkpt>
      <trkpt lat="43.83155" lon="4.18758">
        <ele>198.1</ele>
        <time>2026-05-09T09:08:43.999Z</time>
      </trkpt>
      <trkpt lat="43.83155" lon="4.18759">
        <ele>198.2</ele>
        <time>2026-05-09T09:08:44.999Z</time>
      </trkpt>
      <trkpt lat="43.83155" lon="4.18759">
        <ele>198.4</ele>
        <time>2026-05-09T09:08:45.999Z</time>
      </trkpt>
      <trkpt lat="43.83155" lon="4.1876">
        <ele>198.6</ele>
        <time>2026-05-09T09:08:46.999Z</time>
      </trkpt>
      <trkpt lat="43.83155" lon="4.18761">
        <ele>198.7</ele>
        <time>2026-05-09T09:08:47.999Z</time>
      </trkpt>
      <trkpt lat="43.83155" lon="4.18762">
        <ele>198.6</ele>
        <time>2026-05-09T09:08:48.999Z</time>
      </trkpt>
      <trkpt lat="43.83155" lon="4.18763">
        <ele>198.7</ele>
        <time>2026-05-09T09:08:49.999Z</time>
      </trkpt>
      <trkpt lat="43.83155" lon="4.18763">
        <ele>198.8</ele>
        <time>2026-05-09T09:08:50.999Z</time>
      </trkpt>
      <trkpt lat="43.83155" lon="4.18764">
        <ele>199</ele>
        <time>2026-05-09T09:08:51.999Z</time>
      </trkpt>
      <trkpt lat="43.83155" lon="4.18765">
        <ele>199.3</ele>
        <time>2026-05-09T09:08:52.999Z</time>
      </trkpt>
      <trkpt lat="43.83155" lon="4.18766">
        <ele>199.5</ele>
        <time>2026-05-09T09:08:53.999Z</time>
      </trkpt>
      <trkpt lat="43.83155" lon="4.18766">
        <ele>199.6</ele>
        <time>2026-05-09T09:08:54.999Z</time>
      </trkpt>
      <trkpt lat="43.83155" lon="4.18767">
        <ele>200</ele>
        <time>2026-05-09T09:08:55.999Z</time>
      </trkpt>
      <trkpt lat="43.83155" lon="4.18767">
        <ele>200.1</ele>
        <time>2026-05-09T09:08:56.999Z</time>
      </trkpt>
      <trkpt lat="43.83155" lon="4.18767">
        <ele>200.4</ele>
        <time>2026-05-09T09:08:57.999Z</time>
      </trkpt>
      <trkpt lat="43.83155" lon="4.18768">
        <ele>200.7</ele>
        <time>2026-05-09T09:08:58.999Z</time>
      </trkpt>
      <trkpt lat="43.83155" lon="4.18768">
        <ele>200.9</ele>
        <time>2026-05-09T09:08:59.999Z</time>
      </trkpt>
      <trkpt lat="43.83155" lon="4.18768">
        <ele>200.9</ele>
        <time>2026-05-09T09:09:00.999Z</time>
      </trkpt>
      <trkpt lat="43.83155" lon="4.18769">
        <ele>201</ele>
        <time>2026-05-09T09:09:01.999Z</time>
      </trkpt>
      <trkpt lat="43.83154" lon="4.18769">
        <ele>201.2</ele>
        <time>2026-05-09T09:09:02.999Z</time>
      </trkpt>
      <trkpt lat="43.83154" lon="4.1877">
        <ele>201.3</ele>
        <time>2026-05-09T09:09:03.999Z</time>
      </trkpt>
      <trkpt lat="43.83154" lon="4.18771">
        <ele>201.4</ele>
        <time>2026-05-09T09:09:04.999Z</time>
      </trkpt>
      <trkpt lat="43.83153" lon="4.18771">
        <ele>201.6</ele>
        <time>2026-05-09T09:09:05.999Z</time>
      </trkpt>
      <trkpt lat="43.83153" lon="4.18771">
        <ele>201.7</ele>
        <time>2026-05-09T09:09:06.999Z</time>
      </trkpt>
      <trkpt lat="43.83153" lon="4.18771">
        <ele>201.7</ele>
        <time>2026-05-09T09:09:07.999Z</time>
      </trkpt>
      <trkpt lat="43.83153" lon="4.18772">
        <ele>201.5</ele>
        <time>2026-05-09T09:09:08.999Z</time>
      </trkpt>
      <trkpt lat="43.83154" lon="4.18772">
        <ele>201.8</ele>
        <time>2026-05-09T09:09:09.999Z</time>
      </trkpt>
      <trkpt lat="43.83154" lon="4.18772">
        <ele>201.9</ele>
        <time>2026-05-09T09:09:10.999Z</time>
      </trkpt>
      <trkpt lat="43.83154" lon="4.18772">
        <ele>201.8</ele>
        <time>2026-05-09T09:09:11.999Z</time>
      </trkpt>
      <trkpt lat="43.83154" lon="4.18773">
        <ele>201.7</ele>
        <time>2026-05-09T09:09:12.999Z</time>
      </trkpt>
      <trkpt lat="43.83154" lon="4.18773">
        <ele>201.5</ele>
        <time>2026-05-09T09:09:13.999Z</time>
      </trkpt>
      <trkpt lat="43.83154" lon="4.18773">
        <ele>201.3</ele>
        <time>2026-05-09T09:09:14.999Z</time>
      </trkpt>
      <trkpt lat="43.83154" lon="4.18774">
        <ele>201.1</ele>
        <time>2026-05-09T09:09:15.999Z</time>
      </trkpt>
      <trkpt lat="43.83154" lon="4.18774">
        <ele>201.2</ele>
        <time>2026-05-09T09:09:16.999Z</time>
      </trkpt>
      <trkpt lat="43.83154" lon="4.18774">
        <ele>201.4</ele>
        <time>2026-05-09T09:09:17.999Z</time>
      </trkpt>
      <trkpt lat="43.83153" lon="4.18776">
        <ele>201.5</ele>
        <time>2026-05-09T09:09:18.999Z</time>
      </trkpt>
      <trkpt lat="43.83153" lon="4.18777">
        <ele>201.9</ele>
        <time>2026-05-09T09:09:19.999Z</time>
      </trkpt>
      <trkpt lat="43.83153" lon="4.18779">
        <ele>202.2</ele>
        <time>2026-05-09T09:09:20.999Z</time>
      </trkpt>
      <trkpt lat="43.83153" lon="4.18779">
        <ele>202.6</ele>
        <time>2026-05-09T09:09:21.999Z</time>
      </trkpt>
      <trkpt lat="43.83153" lon="4.1878">
        <ele>202.9</ele>
        <time>2026-05-09T09:09:22.999Z</time>
      </trkpt>
      <trkpt lat="43.83153" lon="4.1878">
        <ele>203.3</ele>
        <time>2026-05-09T09:09:23.999Z</time>
      </trkpt>
      <trkpt lat="43.83153" lon="4.1878">
        <ele>203.3</ele>
        <time>2026-05-09T09:09:24.999Z</time>
      </trkpt>
      <trkpt lat="43.83153" lon="4.1878">
        <ele>203.3</ele>
        <time>2026-05-09T09:09:25.999Z</time>
      </trkpt>
      <trkpt lat="43.83153" lon="4.18781">
        <ele>203.4</ele>
        <time>2026-05-09T09:09:26.999Z</time>
      </trkpt>
      <trkpt lat="43.83153" lon="4.18781">
        <ele>203.5</ele>
        <time>2026-05-09T09:09:27.999Z</time>
      </trkpt>
      <trkpt lat="43.83153" lon="4.18782">
        <ele>203.4</ele>
        <time>2026-05-09T09:09:28.999Z</time>
      </trkpt>
      <trkpt lat="43.83153" lon="4.18782">
        <ele>203.4</ele>
        <time>2026-05-09T09:09:29.999Z</time>
      </trkpt>
      <trkpt lat="43.83152" lon="4.18782">
        <ele>203.6</ele>
        <time>2026-05-09T09:09:30.999Z</time>
      </trkpt>
      <trkpt lat="43.83152" lon="4.18782">
        <ele>203.7</ele>
        <time>2026-05-09T09:09:31.999Z</time>
      </trkpt>
      <trkpt lat="43.83152" lon="4.18783">
        <ele>203.9</ele>
        <time>2026-05-09T09:09:32.999Z</time>
      </trkpt>
      <trkpt lat="43.83152" lon="4.18783">
        <ele>203.9</ele>
        <time>2026-05-09T09:09:33.999Z</time>
      </trkpt>
      <trkpt lat="43.83152" lon="4.18783">
        <ele>204.1</ele>
        <time>2026-05-09T09:09:34.999Z</time>
      </trkpt>
      <trkpt lat="43.83151" lon="4.18784">
        <ele>204.2</ele>
        <time>2026-05-09T09:09:35.999Z</time>
      </trkpt>
      <trkpt lat="43.83151" lon="4.18784">
        <ele>204.3</ele>
        <time>2026-05-09T09:09:36.999Z</time>
      </trkpt>
      <trkpt lat="43.83151" lon="4.18785">
        <ele>204.4</ele>
        <time>2026-05-09T09:09:37.999Z</time>
      </trkpt>
      <trkpt lat="43.8315" lon="4.18786">
        <ele>204.5</ele>
        <time>2026-05-09T09:09:38.999Z</time>
      </trkpt>
      <trkpt lat="43.8315" lon="4.18788">
        <ele>204.8</ele>
        <time>2026-05-09T09:09:39.999Z</time>
      </trkpt>
      <trkpt lat="43.8315" lon="4.18789">
        <ele>204.9</ele>
        <time>2026-05-09T09:09:40.999Z</time>
      </trkpt>
      <trkpt lat="43.83149" lon="4.18791">
        <ele>205.2</ele>
        <time>2026-05-09T09:09:41.999Z</time>
      </trkpt>
      <trkpt lat="43.83149" lon="4.18792">
        <ele>205.3</ele>
        <time>2026-05-09T09:09:42.999Z</time>
      </trkpt>
      <trkpt lat="43.83149" lon="4.18793">
        <ele>205.1</ele>
        <time>2026-05-09T09:09:43.999Z</time>
      </trkpt>
      <trkpt lat="43.83149" lon="4.18795">
        <ele>205.1</ele>
        <time>2026-05-09T09:09:44.999Z</time>
      </trkpt>
      <trkpt lat="43.83148" lon="4.18795">
        <ele>205.2</ele>
        <time>2026-05-09T09:09:45.999Z</time>
      </trkpt>
      <trkpt lat="43.83147" lon="4.18796">
        <ele>205.3</ele>
        <time>2026-05-09T09:09:46.999Z</time>
      </trkpt>
      <trkpt lat="43.83146" lon="4.18796">
        <ele>205.4</ele>
        <time>2026-05-09T09:09:47.999Z</time>
      </trkpt>
      <trkpt lat="43.83145" lon="4.18797">
        <ele>205.5</ele>
        <time>2026-05-09T09:09:48.999Z</time>
      </trkpt>
      <trkpt lat="43.83145" lon="4.18798">
        <ele>205.7</ele>
        <time>2026-05-09T09:09:49.999Z</time>
      </trkpt>
      <trkpt lat="43.83144" lon="4.18797">
        <ele>205.9</ele>
        <time>2026-05-09T09:09:50.999Z</time>
      </trkpt>
      <trkpt lat="43.83143" lon="4.18797">
        <ele>205.8</ele>
        <time>2026-05-09T09:09:51.999Z</time>
      </trkpt>
      <trkpt lat="43.83143" lon="4.18798">
        <ele>206.1</ele>
        <time>2026-05-09T09:09:52.999Z</time>
      </trkpt>
      <trkpt lat="43.83142" lon="4.18799">
        <ele>206.3</ele>
        <time>2026-05-09T09:09:53.999Z</time>
      </trkpt>
      <trkpt lat="43.83141" lon="4.188">
        <ele>206.5</ele>
        <time>2026-05-09T09:09:54.999Z</time>
      </trkpt>
      <trkpt lat="43.83139" lon="4.188">
        <ele>206.5</ele>
        <time>2026-05-09T09:09:55.999Z</time>
      </trkpt>
      <trkpt lat="43.83138" lon="4.188">
        <ele>206.6</ele>
        <time>2026-05-09T09:09:56.999Z</time>
      </trkpt>
      <trkpt lat="43.83137" lon="4.18801">
        <ele>206.7</ele>
        <time>2026-05-09T09:09:57.999Z</time>
      </trkpt>
      <trkpt lat="43.83136" lon="4.18802">
        <ele>207.1</ele>
        <time>2026-05-09T09:09:58.999Z</time>
      </trkpt>
      <trkpt lat="43.83135" lon="4.18803">
        <ele>207.1</ele>
        <time>2026-05-09T09:09:59.999Z</time>
      </trkpt>
      <trkpt lat="43.83134" lon="4.18804">
        <ele>207.3</ele>
        <time>2026-05-09T09:10:00.999Z</time>
      </trkpt>
      <trkpt lat="43.83133" lon="4.18806">
        <ele>207.6</ele>
        <time>2026-05-09T09:10:01.999Z</time>
      </trkpt>
      <trkpt lat="43.83133" lon="4.18807">
        <ele>207.7</ele>
        <time>2026-05-09T09:10:02.999Z</time>
      </trkpt>
      <trkpt lat="43.83132" lon="4.18808">
        <ele>207.9</ele>
        <time>2026-05-09T09:10:03.999Z</time>
      </trkpt>
      <trkpt lat="43.83132" lon="4.18809">
        <ele>208.3</ele>
        <time>2026-05-09T09:10:04.999Z</time>
      </trkpt>
      <trkpt lat="43.83132" lon="4.18811">
        <ele>208.6</ele>
        <time>2026-05-09T09:10:05.999Z</time>
      </trkpt>
      <trkpt lat="43.83132" lon="4.18811">
        <ele>208.8</ele>
        <time>2026-05-09T09:10:06.999Z</time>
      </trkpt>
      <trkpt lat="43.83132" lon="4.18812">
        <ele>209</ele>
        <time>2026-05-09T09:10:07.999Z</time>
      </trkpt>
      <trkpt lat="43.83132" lon="4.18812">
        <ele>209.3</ele>
        <time>2026-05-09T09:10:08.999Z</time>
      </trkpt>
      <trkpt lat="43.83131" lon="4.18813">
        <ele>209.4</ele>
        <time>2026-05-09T09:10:09.999Z</time>
      </trkpt>
      <trkpt lat="43.83131" lon="4.18813">
        <ele>209.3</ele>
        <time>2026-05-09T09:10:10.999Z</time>
      </trkpt>
      <trkpt lat="43.83131" lon="4.18813">
        <ele>209.5</ele>
        <time>2026-05-09T09:10:11.999Z</time>
      </trkpt>
      <trkpt lat="43.83131" lon="4.18814">
        <ele>209.6</ele>
        <time>2026-05-09T09:10:12.999Z</time>
      </trkpt>
      <trkpt lat="43.83131" lon="4.18814">
        <ele>209.9</ele>
        <time>2026-05-09T09:10:13.999Z</time>
      </trkpt>
      <trkpt lat="43.8313" lon="4.18816">
        <ele>209.9</ele>
        <time>2026-05-09T09:10:14.999Z</time>
      </trkpt>
      <trkpt lat="43.8313" lon="4.18817">
        <ele>209.9</ele>
        <time>2026-05-09T09:10:15.999Z</time>
      </trkpt>
      <trkpt lat="43.83129" lon="4.18818">
        <ele>209.9</ele>
        <time>2026-05-09T09:10:16.999Z</time>
      </trkpt>
      <trkpt lat="43.83129" lon="4.18819">
        <ele>210</ele>
        <time>2026-05-09T09:10:17.999Z</time>
      </trkpt>
      <trkpt lat="43.83129" lon="4.1882">
        <ele>210.2</ele>
        <time>2026-05-09T09:10:18.999Z</time>
      </trkpt>
      <trkpt lat="43.83129" lon="4.18822">
        <ele>210.7</ele>
        <time>2026-05-09T09:10:19.999Z</time>
      </trkpt>
      <trkpt lat="43.83129" lon="4.18822">
        <ele>211.1</ele>
        <time>2026-05-09T09:10:20.999Z</time>
      </trkpt>
      <trkpt lat="43.83129" lon="4.18823">
        <ele>211.7</ele>
        <time>2026-05-09T09:10:21.999Z</time>
      </trkpt>
      <trkpt lat="43.83129" lon="4.18823">
        <ele>211.6</ele>
        <time>2026-05-09T09:10:22.999Z</time>
      </trkpt>
      <trkpt lat="43.83129" lon="4.18823">
        <ele>211.5</ele>
        <time>2026-05-09T09:10:23.999Z</time>
      </trkpt>
      <trkpt lat="43.83129" lon="4.18823">
        <ele>211.1</ele>
        <time>2026-05-09T09:10:24.999Z</time>
      </trkpt>
      <trkpt lat="43.83129" lon="4.18824">
        <ele>211.2</ele>
        <time>2026-05-09T09:10:25.999Z</time>
      </trkpt>
      <trkpt lat="43.83128" lon="4.18824">
        <ele>211.4</ele>
        <time>2026-05-09T09:10:26.999Z</time>
      </trkpt>
      <trkpt lat="43.83128" lon="4.18824">
        <ele>211.5</ele>
        <time>2026-05-09T09:10:27.999Z</time>
      </trkpt>
      <trkpt lat="43.83128" lon="4.18824">
        <ele>211.6</ele>
        <time>2026-05-09T09:10:28.999Z</time>
      </trkpt>
      <trkpt lat="43.83128" lon="4.18824">
        <ele>211.4</ele>
        <time>2026-05-09T09:10:29.999Z</time>
      </trkpt>
      <trkpt lat="43.83128" lon="4.18825">
        <ele>211.3</ele>
        <time>2026-05-09T09:10:30.999Z</time>
      </trkpt>
      <trkpt lat="43.83128" lon="4.18825">
        <ele>211.2</ele>
        <time>2026-05-09T09:10:31.999Z</time>
      </trkpt>
      <trkpt lat="43.83128" lon="4.18825">
        <ele>211.1</ele>
        <time>2026-05-09T09:10:32.999Z</time>
      </trkpt>
      <trkpt lat="43.83128" lon="4.18825">
        <ele>210.9</ele>
        <time>2026-05-09T09:10:33.999Z</time>
      </trkpt>
      <trkpt lat="43.83128" lon="4.18825">
        <ele>210.9</ele>
        <time>2026-05-09T09:10:34.999Z</time>
      </trkpt>
      <trkpt lat="43.83128" lon="4.18825">
        <ele>210.8</ele>
        <time>2026-05-09T09:10:35.999Z</time>
      </trkpt>
      <trkpt lat="43.83128" lon="4.18825">
        <ele>210.9</ele>
        <time>2026-05-09T09:10:36.999Z</time>
      </trkpt>
      <trkpt lat="43.83129" lon="4.18826">
        <ele>211</ele>
        <time>2026-05-09T09:10:37.999Z</time>
      </trkpt>
      <trkpt lat="43.83129" lon="4.18826">
        <ele>211.1</ele>
        <time>2026-05-09T09:10:38.999Z</time>
      </trkpt>
      <trkpt lat="43.83129" lon="4.18826">
        <ele>211.2</ele>
        <time>2026-05-09T09:10:39.999Z</time>
      </trkpt>
      <trkpt lat="43.83129" lon="4.18826">
        <ele>211.2</ele>
        <time>2026-05-09T09:10:40.999Z</time>
      </trkpt>
      <trkpt lat="43.83129" lon="4.18826">
        <ele>211.3</ele>
        <time>2026-05-09T09:10:41.999Z</time>
      </trkpt>
      <trkpt lat="43.83129" lon="4.18826">
        <ele>211.4</ele>
        <time>2026-05-09T09:10:42.999Z</time>
      </trkpt>
      <trkpt lat="43.83129" lon="4.18826">
        <ele>211.4</ele>
        <time>2026-05-09T09:10:43.999Z</time>
      </trkpt>
      <trkpt lat="43.83129" lon="4.18826">
        <ele>211.4</ele>
        <time>2026-05-09T09:10:44.999Z</time>
      </trkpt>
      <trkpt lat="43.83129" lon="4.18826">
        <ele>211.3</ele>
        <time>2026-05-09T09:10:45.999Z</time>
      </trkpt>
      <trkpt lat="43.83129" lon="4.18826">
        <ele>211.5</ele>
        <time>2026-05-09T09:10:46.999Z</time>
      </trkpt>
      <trkpt lat="43.83128" lon="4.18827">
        <ele>211.4</ele>
        <time>2026-05-09T09:10:47.999Z</time>
      </trkpt>
      <trkpt lat="43.83128" lon="4.18827">
        <ele>211.3</ele>
        <time>2026-05-09T09:10:48.999Z</time>
      </trkpt>
      <trkpt lat="43.83127" lon="4.18828">
        <ele>211.2</ele>
        <time>2026-05-09T09:10:49.999Z</time>
      </trkpt>
      <trkpt lat="43.83127" lon="4.18829">
        <ele>211.4</ele>
        <time>2026-05-09T09:10:50.999Z</time>
      </trkpt>
      <trkpt lat="43.83127" lon="4.18829">
        <ele>211.5</ele>
        <time>2026-05-09T09:10:51.999Z</time>
      </trkpt>
      <trkpt lat="43.83127" lon="4.18831">
        <ele>211.8</ele>
        <time>2026-05-09T09:10:52.999Z</time>
      </trkpt>
      <trkpt lat="43.83127" lon="4.18832">
        <ele>212</ele>
        <time>2026-05-09T09:10:53.999Z</time>
      </trkpt>
      <trkpt lat="43.83128" lon="4.18832">
        <ele>212.4</ele>
        <time>2026-05-09T09:10:54.999Z</time>
      </trkpt>
      <trkpt lat="43.83128" lon="4.18833">
        <ele>212.5</ele>
        <time>2026-05-09T09:10:55.999Z</time>
      </trkpt>
      <trkpt lat="43.83129" lon="4.18833">
        <ele>212.7</ele>
        <time>2026-05-09T09:10:56.999Z</time>
      </trkpt>
      <trkpt lat="43.83129" lon="4.18834">
        <ele>212.9</ele>
        <time>2026-05-09T09:10:57.999Z</time>
      </trkpt>
      <trkpt lat="43.8313" lon="4.18833">
        <ele>213</ele>
        <time>2026-05-09T09:10:58.999Z</time>
      </trkpt>
      <trkpt lat="43.8313" lon="4.18833">
        <ele>213</ele>
        <time>2026-05-09T09:10:59.999Z</time>
      </trkpt>
      <trkpt lat="43.83131" lon="4.18832">
        <ele>213</ele>
        <time>2026-05-09T09:11:00.999Z</time>
      </trkpt>
      <trkpt lat="43.83132" lon="4.18831">
        <ele>212.8</ele>
        <time>2026-05-09T09:11:01.999Z</time>
      </trkpt>
      <trkpt lat="43.83132" lon="4.1883">
        <ele>213.1</ele>
        <time>2026-05-09T09:11:02.999Z</time>
      </trkpt>
      <trkpt lat="43.83132" lon="4.18829">
        <ele>213.1</ele>
        <time>2026-05-09T09:11:03.999Z</time>
      </trkpt>
      <trkpt lat="43.83132" lon="4.18829">
        <ele>213.2</ele>
        <time>2026-05-09T09:11:04.999Z</time>
      </trkpt>
      <trkpt lat="43.83133" lon="4.18829">
        <ele>213.2</ele>
        <time>2026-05-09T09:11:05.999Z</time>
      </trkpt>
      <trkpt lat="43.83133" lon="4.18828">
        <ele>213.3</ele>
        <time>2026-05-09T09:11:06.999Z</time>
      </trkpt>
      <trkpt lat="43.83133" lon="4.18828">
        <ele>213.6</ele>
        <time>2026-05-09T09:11:07.999Z</time>
      </trkpt>
      <trkpt lat="43.83133" lon="4.18827">
        <ele>213.9</ele>
        <time>2026-05-09T09:11:08.999Z</time>
      </trkpt>
      <trkpt lat="43.83133" lon="4.18827">
        <ele>214.1</ele>
        <time>2026-05-09T09:11:09.999Z</time>
      </trkpt>
      <trkpt lat="43.83133" lon="4.18827">
        <ele>214.4</ele>
        <time>2026-05-09T09:11:10.999Z</time>
      </trkpt>
      <trkpt lat="43.83133" lon="4.18827">
        <ele>214.5</ele>
        <time>2026-05-09T09:11:11.999Z</time>
      </trkpt>
      <trkpt lat="43.83133" lon="4.18827">
        <ele>214.5</ele>
        <time>2026-05-09T09:11:12.999Z</time>
      </trkpt>
      <trkpt lat="43.83134" lon="4.18827">
        <ele>214.5</ele>
        <time>2026-05-09T09:11:13.999Z</time>
      </trkpt>
      <trkpt lat="43.83135" lon="4.18828">
        <ele>214.6</ele>
        <time>2026-05-09T09:11:14.999Z</time>
      </trkpt>
      <trkpt lat="43.83136" lon="4.18828">
        <ele>214.8</ele>
        <time>2026-05-09T09:11:15.999Z</time>
      </trkpt>
      <trkpt lat="43.83137" lon="4.18828">
        <ele>215.1</ele>
        <time>2026-05-09T09:11:16.999Z</time>
      </trkpt>
      <trkpt lat="43.83138" lon="4.18827">
        <ele>214.9</ele>
        <time>2026-05-09T09:11:17.999Z</time>
      </trkpt>
      <trkpt lat="43.83139" lon="4.18827">
        <ele>214.8</ele>
        <time>2026-05-09T09:11:18.999Z</time>
      </trkpt>
      <trkpt lat="43.83139" lon="4.18826">
        <ele>214.9</ele>
        <time>2026-05-09T09:11:19.999Z</time>
      </trkpt>
      <trkpt lat="43.8314" lon="4.18826">
        <ele>214.9</ele>
        <time>2026-05-09T09:11:20.999Z</time>
      </trkpt>
      <trkpt lat="43.8314" lon="4.18825">
        <ele>215.1</ele>
        <time>2026-05-09T09:11:21.999Z</time>
      </trkpt>
      <trkpt lat="43.83141" lon="4.18825">
        <ele>215.1</ele>
        <time>2026-05-09T09:11:22.999Z</time>
      </trkpt>
      <trkpt lat="43.83142" lon="4.18825">
        <ele>214.6</ele>
        <time>2026-05-09T09:11:23.999Z</time>
      </trkpt>
      <trkpt lat="43.83142" lon="4.18824">
        <ele>214.3</ele>
        <time>2026-05-09T09:11:24.999Z</time>
      </trkpt>
      <trkpt lat="43.83143" lon="4.18824">
        <ele>214.5</ele>
        <time>2026-05-09T09:11:25.999Z</time>
      </trkpt>
      <trkpt lat="43.83144" lon="4.18824">
        <ele>214.6</ele>
        <time>2026-05-09T09:11:26.999Z</time>
      </trkpt>
      <trkpt lat="43.83144" lon="4.18824">
        <ele>214.6</ele>
        <time>2026-05-09T09:11:27.999Z</time>
      </trkpt>
      <trkpt lat="43.83145" lon="4.18824">
        <ele>214.6</ele>
        <time>2026-05-09T09:11:28.999Z</time>
      </trkpt>
      <trkpt lat="43.83146" lon="4.18823">
        <ele>214.5</ele>
        <time>2026-05-09T09:11:29.999Z</time>
      </trkpt>
      <trkpt lat="43.83147" lon="4.18823">
        <ele>214.3</ele>
        <time>2026-05-09T09:11:30.999Z</time>
      </trkpt>
      <trkpt lat="43.83148" lon="4.18823">
        <ele>214.2</ele>
        <time>2026-05-09T09:11:31.999Z</time>
      </trkpt>
      <trkpt lat="43.83149" lon="4.18824">
        <ele>213.9</ele>
        <time>2026-05-09T09:11:32.999Z</time>
      </trkpt>
      <trkpt lat="43.8315" lon="4.18825">
        <ele>213.7</ele>
        <time>2026-05-09T09:11:33.999Z</time>
      </trkpt>
      <trkpt lat="43.83151" lon="4.18826">
        <ele>213.6</ele>
        <time>2026-05-09T09:11:34.999Z</time>
      </trkpt>
      <trkpt lat="43.83151" lon="4.18827">
        <ele>213.6</ele>
        <time>2026-05-09T09:11:35.999Z</time>
      </trkpt>
      <trkpt lat="43.8315" lon="4.18828">
        <ele>213.8</ele>
        <time>2026-05-09T09:11:36.999Z</time>
      </trkpt>
      <trkpt lat="43.8315" lon="4.18828">
        <ele>213.8</ele>
        <time>2026-05-09T09:11:37.999Z</time>
      </trkpt>
      <trkpt lat="43.83149" lon="4.18829">
        <ele>213.9</ele>
        <time>2026-05-09T09:11:38.999Z</time>
      </trkpt>
      <trkpt lat="43.83148" lon="4.18829">
        <ele>214.1</ele>
        <time>2026-05-09T09:11:39.999Z</time>
      </trkpt>
      <trkpt lat="43.83148" lon="4.1883">
        <ele>214.4</ele>
        <time>2026-05-09T09:11:40.999Z</time>
      </trkpt>
      <trkpt lat="43.83147" lon="4.18831">
        <ele>214.9</ele>
        <time>2026-05-09T09:11:41.999Z</time>
      </trkpt>
      <trkpt lat="43.83146" lon="4.18831">
        <ele>215.1</ele>
        <time>2026-05-09T09:11:42.999Z</time>
      </trkpt>
      <trkpt lat="43.83145" lon="4.18832">
        <ele>215</ele>
        <time>2026-05-09T09:11:43.999Z</time>
      </trkpt>
      <trkpt lat="43.83144" lon="4.18832">
        <ele>215.3</ele>
        <time>2026-05-09T09:11:44.999Z</time>
      </trkpt>
      <trkpt lat="43.83144" lon="4.18833">
        <ele>215.5</ele>
        <time>2026-05-09T09:11:45.999Z</time>
      </trkpt>
      <trkpt lat="43.83143" lon="4.18833">
        <ele>215.8</ele>
        <time>2026-05-09T09:11:46.999Z</time>
      </trkpt>
      <trkpt lat="43.83143" lon="4.18834">
        <ele>215.7</ele>
        <time>2026-05-09T09:11:47.999Z</time>
      </trkpt>
      <trkpt lat="43.83143" lon="4.18835">
        <ele>216.1</ele>
        <time>2026-05-09T09:11:48.999Z</time>
      </trkpt>
      <trkpt lat="43.83142" lon="4.18835">
        <ele>216.4</ele>
        <time>2026-05-09T09:11:49.999Z</time>
      </trkpt>
      <trkpt lat="43.83141" lon="4.18835">
        <ele>216.9</ele>
        <time>2026-05-09T09:11:50.999Z</time>
      </trkpt>
      <trkpt lat="43.8314" lon="4.18836">
        <ele>217.2</ele>
        <time>2026-05-09T09:11:51.999Z</time>
      </trkpt>
      <trkpt lat="43.8314" lon="4.18837">
        <ele>217.5</ele>
        <time>2026-05-09T09:11:52.999Z</time>
      </trkpt>
      <trkpt lat="43.83139" lon="4.18837">
        <ele>217.7</ele>
        <time>2026-05-09T09:11:53.999Z</time>
      </trkpt>
      <trkpt lat="43.83138" lon="4.18838">
        <ele>217.9</ele>
        <time>2026-05-09T09:11:54.999Z</time>
      </trkpt>
      <trkpt lat="43.83138" lon="4.18838">
        <ele>218</ele>
        <time>2026-05-09T09:11:55.999Z</time>
      </trkpt>
      <trkpt lat="43.83137" lon="4.18839">
        <ele>218.2</ele>
        <time>2026-05-09T09:11:56.999Z</time>
      </trkpt>
      <trkpt lat="43.83136" lon="4.18839">
        <ele>218.3</ele>
        <time>2026-05-09T09:11:57.999Z</time>
      </trkpt>
      <trkpt lat="43.83135" lon="4.1884">
        <ele>218.1</ele>
        <time>2026-05-09T09:11:58.999Z</time>
      </trkpt>
      <trkpt lat="43.83135" lon="4.18841">
        <ele>218.2</ele>
        <time>2026-05-09T09:11:59.999Z</time>
      </trkpt>
      <trkpt lat="43.83134" lon="4.18842">
        <ele>218.4</ele>
        <time>2026-05-09T09:12:00.999Z</time>
      </trkpt>
      <trkpt lat="43.83133" lon="4.18843">
        <ele>218.5</ele>
        <time>2026-05-09T09:12:01.999Z</time>
      </trkpt>
      <trkpt lat="43.83132" lon="4.18843">
        <ele>218.4</ele>
        <time>2026-05-09T09:12:02.999Z</time>
      </trkpt>
      <trkpt lat="43.83132" lon="4.18844">
        <ele>218.3</ele>
        <time>2026-05-09T09:12:03.999Z</time>
      </trkpt>
      <trkpt lat="43.8313" lon="4.18844">
        <ele>218.3</ele>
        <time>2026-05-09T09:12:04.999Z</time>
      </trkpt>
      <trkpt lat="43.83129" lon="4.18845">
        <ele>218.1</ele>
        <time>2026-05-09T09:12:05.999Z</time>
      </trkpt>
      <trkpt lat="43.83128" lon="4.18846">
        <ele>218.1</ele>
        <time>2026-05-09T09:12:06.999Z</time>
      </trkpt>
      <trkpt lat="43.83128" lon="4.18847">
        <ele>218.2</ele>
        <time>2026-05-09T09:12:07.999Z</time>
      </trkpt>
      <trkpt lat="43.83128" lon="4.18848">
        <ele>218.1</ele>
        <time>2026-05-09T09:12:08.999Z</time>
      </trkpt>
      <trkpt lat="43.83127" lon="4.18849">
        <ele>218.1</ele>
        <time>2026-05-09T09:12:09.999Z</time>
      </trkpt>
      <trkpt lat="43.83126" lon="4.18849">
        <ele>218</ele>
        <time>2026-05-09T09:12:10.999Z</time>
      </trkpt>
      <trkpt lat="43.83125" lon="4.1885">
        <ele>218</ele>
        <time>2026-05-09T09:12:11.999Z</time>
      </trkpt>
      <trkpt lat="43.83124" lon="4.1885">
        <ele>218.1</ele>
        <time>2026-05-09T09:12:12.999Z</time>
      </trkpt>
      <trkpt lat="43.83123" lon="4.1885">
        <ele>218.1</ele>
        <time>2026-05-09T09:12:13.999Z</time>
      </trkpt>
      <trkpt lat="43.83123" lon="4.18851">
        <ele>218.2</ele>
        <time>2026-05-09T09:12:14.999Z</time>
      </trkpt>
      <trkpt lat="43.83122" lon="4.18852">
        <ele>218.3</ele>
        <time>2026-05-09T09:12:15.999Z</time>
      </trkpt>
      <trkpt lat="43.83121" lon="4.18852">
        <ele>218.6</ele>
        <time>2026-05-09T09:12:16.999Z</time>
      </trkpt>
      <trkpt lat="43.8312" lon="4.18853">
        <ele>218.7</ele>
        <time>2026-05-09T09:12:17.999Z</time>
      </trkpt>
      <trkpt lat="43.8312" lon="4.18854">
        <ele>218.9</ele>
        <time>2026-05-09T09:12:18.999Z</time>
      </trkpt>
      <trkpt lat="43.83119" lon="4.18856">
        <ele>218.9</ele>
        <time>2026-05-09T09:12:19.999Z</time>
      </trkpt>
      <trkpt lat="43.83119" lon="4.18857">
        <ele>219.2</ele>
        <time>2026-05-09T09:12:20.999Z</time>
      </trkpt>
      <trkpt lat="43.83119" lon="4.18858">
        <ele>219.3</ele>
        <time>2026-05-09T09:12:21.999Z</time>
      </trkpt>
      <trkpt lat="43.83119" lon="4.18859">
        <ele>219</ele>
        <time>2026-05-09T09:12:22.999Z</time>
      </trkpt>
      <trkpt lat="43.83119" lon="4.1886">
        <ele>218.8</ele>
        <time>2026-05-09T09:12:23.999Z</time>
      </trkpt>
      <trkpt lat="43.8312" lon="4.18861">
        <ele>218.9</ele>
        <time>2026-05-09T09:12:24.999Z</time>
      </trkpt>
      <trkpt lat="43.8312" lon="4.18862">
        <ele>218.7</ele>
        <time>2026-05-09T09:12:25.999Z</time>
      </trkpt>
      <trkpt lat="43.83121" lon="4.18863">
        <ele>218.5</ele>
        <time>2026-05-09T09:12:26.999Z</time>
      </trkpt>
      <trkpt lat="43.83122" lon="4.18863">
        <ele>218.2</ele>
        <time>2026-05-09T09:12:27.999Z</time>
      </trkpt>
      <trkpt lat="43.83124" lon="4.18863">
        <ele>218.1</ele>
        <time>2026-05-09T09:12:28.999Z</time>
      </trkpt>
      <trkpt lat="43.83125" lon="4.18863">
        <ele>218.1</ele>
        <time>2026-05-09T09:12:29.999Z</time>
      </trkpt>
      <trkpt lat="43.83126" lon="4.18862">
        <ele>218</ele>
        <time>2026-05-09T09:12:30.999Z</time>
      </trkpt>
      <trkpt lat="43.83127" lon="4.18861">
        <ele>217.7</ele>
        <time>2026-05-09T09:12:31.999Z</time>
      </trkpt>
      <trkpt lat="43.83128" lon="4.18861">
        <ele>217.8</ele>
        <time>2026-05-09T09:12:32.999Z</time>
      </trkpt>
      <trkpt lat="43.83128" lon="4.18861">
        <ele>218.2</ele>
        <time>2026-05-09T09:12:33.999Z</time>
      </trkpt>
      <trkpt lat="43.83129" lon="4.18861">
        <ele>218.5</ele>
        <time>2026-05-09T09:12:34.999Z</time>
      </trkpt>
      <trkpt lat="43.83129" lon="4.18861">
        <ele>218.9</ele>
        <time>2026-05-09T09:12:35.999Z</time>
      </trkpt>
      <trkpt lat="43.83129" lon="4.18861">
        <ele>219.1</ele>
        <time>2026-05-09T09:12:36.999Z</time>
      </trkpt>
      <trkpt lat="43.83129" lon="4.18861">
        <ele>219.2</ele>
        <time>2026-05-09T09:12:37.999Z</time>
      </trkpt>
      <trkpt lat="43.8313" lon="4.1886">
        <ele>219.5</ele>
        <time>2026-05-09T09:12:38.999Z</time>
      </trkpt>
      <trkpt lat="43.83131" lon="4.18861">
        <ele>219.9</ele>
        <time>2026-05-09T09:12:39.999Z</time>
      </trkpt>
      <trkpt lat="43.83132" lon="4.18861">
        <ele>220.1</ele>
        <time>2026-05-09T09:12:40.999Z</time>
      </trkpt>
      <trkpt lat="43.83132" lon="4.18861">
        <ele>220.3</ele>
        <time>2026-05-09T09:12:41.999Z</time>
      </trkpt>
      <trkpt lat="43.83132" lon="4.18862">
        <ele>220.4</ele>
        <time>2026-05-09T09:12:42.999Z</time>
      </trkpt>
      <trkpt lat="43.83132" lon="4.18862">
        <ele>220.7</ele>
        <time>2026-05-09T09:12:43.999Z</time>
      </trkpt>
      <trkpt lat="43.83133" lon="4.18863">
        <ele>220.8</ele>
        <time>2026-05-09T09:12:44.999Z</time>
      </trkpt>
      <trkpt lat="43.83133" lon="4.18864">
        <ele>221.1</ele>
        <time>2026-05-09T09:12:45.999Z</time>
      </trkpt>
      <trkpt lat="43.83134" lon="4.18865">
        <ele>221.1</ele>
        <time>2026-05-09T09:12:46.999Z</time>
      </trkpt>
      <trkpt lat="43.83135" lon="4.18864">
        <ele>221</ele>
        <time>2026-05-09T09:12:47.999Z</time>
      </trkpt>
      <trkpt lat="43.83136" lon="4.18864">
        <ele>221.1</ele>
        <time>2026-05-09T09:12:48.999Z</time>
      </trkpt>
      <trkpt lat="43.83136" lon="4.18863">
        <ele>221.2</ele>
        <time>2026-05-09T09:12:49.999Z</time>
      </trkpt>
      <trkpt lat="43.83137" lon="4.18863">
        <ele>221.3</ele>
        <time>2026-05-09T09:12:50.999Z</time>
      </trkpt>
      <trkpt lat="43.83138" lon="4.18862">
        <ele>221.2</ele>
        <time>2026-05-09T09:12:51.999Z</time>
      </trkpt>
      <trkpt lat="43.83139" lon="4.18862">
        <ele>221.3</ele>
        <time>2026-05-09T09:12:52.999Z</time>
      </trkpt>
      <trkpt lat="43.8314" lon="4.18861">
        <ele>221.7</ele>
        <time>2026-05-09T09:12:53.999Z</time>
      </trkpt>
      <trkpt lat="43.8314" lon="4.18861">
        <ele>221.9</ele>
        <time>2026-05-09T09:12:54.999Z</time>
      </trkpt>
      <trkpt lat="43.83141" lon="4.18861">
        <ele>221.9</ele>
        <time>2026-05-09T09:12:55.999Z</time>
      </trkpt>
      <trkpt lat="43.83142" lon="4.1886">
        <ele>221.9</ele>
        <time>2026-05-09T09:12:56.999Z</time>
      </trkpt>
      <trkpt lat="43.83142" lon="4.1886">
        <ele>222.2</ele>
        <time>2026-05-09T09:12:57.999Z</time>
      </trkpt>
      <trkpt lat="43.83143" lon="4.18859">
        <ele>222.4</ele>
        <time>2026-05-09T09:12:58.999Z</time>
      </trkpt>
      <trkpt lat="43.83143" lon="4.18859">
        <ele>222.7</ele>
        <time>2026-05-09T09:12:59.999Z</time>
      </trkpt>
      <trkpt lat="43.83144" lon="4.18859">
        <ele>222.5</ele>
        <time>2026-05-09T09:13:00.999Z</time>
      </trkpt>
      <trkpt lat="43.83145" lon="4.18859">
        <ele>222.4</ele>
        <time>2026-05-09T09:13:01.999Z</time>
      </trkpt>
      <trkpt lat="43.83146" lon="4.18861">
        <ele>222.4</ele>
        <time>2026-05-09T09:13:02.999Z</time>
      </trkpt>
      <trkpt lat="43.83147" lon="4.18861">
        <ele>222.6</ele>
        <time>2026-05-09T09:13:03.999Z</time>
      </trkpt>
      <trkpt lat="43.83148" lon="4.18862">
        <ele>222.7</ele>
        <time>2026-05-09T09:13:04.999Z</time>
      </trkpt>
      <trkpt lat="43.83148" lon="4.18862">
        <ele>222.9</ele>
        <time>2026-05-09T09:13:05.999Z</time>
      </trkpt>
      <trkpt lat="43.83149" lon="4.18863">
        <ele>223.1</ele>
        <time>2026-05-09T09:13:06.999Z</time>
      </trkpt>
      <trkpt lat="43.8315" lon="4.18865">
        <ele>223.1</ele>
        <time>2026-05-09T09:13:07.999Z</time>
      </trkpt>
      <trkpt lat="43.8315" lon="4.18866">
        <ele>223</ele>
        <time>2026-05-09T09:13:08.999Z</time>
      </trkpt>
      <trkpt lat="43.8315" lon="4.18868">
        <ele>223</ele>
        <time>2026-05-09T09:13:09.999Z</time>
      </trkpt>
      <trkpt lat="43.83149" lon="4.18868">
        <ele>222.9</ele>
        <time>2026-05-09T09:13:10.999Z</time>
      </trkpt>
      <trkpt lat="43.83148" lon="4.18869">
        <ele>222.9</ele>
        <time>2026-05-09T09:13:11.999Z</time>
      </trkpt>
      <trkpt lat="43.83147" lon="4.1887">
        <ele>223.3</ele>
        <time>2026-05-09T09:13:12.999Z</time>
      </trkpt>
      <trkpt lat="43.83146" lon="4.1887">
        <ele>223.1</ele>
        <time>2026-05-09T09:13:13.999Z</time>
      </trkpt>
      <trkpt lat="43.83146" lon="4.1887">
        <ele>223.1</ele>
        <time>2026-05-09T09:13:14.999Z</time>
      </trkpt>
      <trkpt lat="43.83145" lon="4.18871">
        <ele>223.2</ele>
        <time>2026-05-09T09:13:15.999Z</time>
      </trkpt>
      <trkpt lat="43.83144" lon="4.18871">
        <ele>223.4</ele>
        <time>2026-05-09T09:13:16.999Z</time>
      </trkpt>
      <trkpt lat="43.83143" lon="4.18871">
        <ele>223.7</ele>
        <time>2026-05-09T09:13:17.999Z</time>
      </trkpt>
      <trkpt lat="43.83142" lon="4.18872">
        <ele>223.6</ele>
        <time>2026-05-09T09:13:18.999Z</time>
      </trkpt>
      <trkpt lat="43.83142" lon="4.18873">
        <ele>223.9</ele>
        <time>2026-05-09T09:13:19.999Z</time>
      </trkpt>
      <trkpt lat="43.83141" lon="4.18873">
        <ele>223.9</ele>
        <time>2026-05-09T09:13:20.999Z</time>
      </trkpt>
      <trkpt lat="43.8314" lon="4.18874">
        <ele>224.4</ele>
        <time>2026-05-09T09:13:21.999Z</time>
      </trkpt>
      <trkpt lat="43.83139" lon="4.18876">
        <ele>224.5</ele>
        <time>2026-05-09T09:13:22.999Z</time>
      </trkpt>
      <trkpt lat="43.8314" lon="4.18877">
        <ele>224.9</ele>
        <time>2026-05-09T09:13:23.999Z</time>
      </trkpt>
      <trkpt lat="43.8314" lon="4.18878">
        <ele>224.8</ele>
        <time>2026-05-09T09:13:24.999Z</time>
      </trkpt>
      <trkpt lat="43.83141" lon="4.18878">
        <ele>224.9</ele>
        <time>2026-05-09T09:13:25.999Z</time>
      </trkpt>
      <trkpt lat="43.83142" lon="4.1888">
        <ele>224.7</ele>
        <time>2026-05-09T09:13:26.999Z</time>
      </trkpt>
      <trkpt lat="43.83142" lon="4.1888">
        <ele>224.7</ele>
        <time>2026-05-09T09:13:27.999Z</time>
      </trkpt>
      <trkpt lat="43.83143" lon="4.18881">
        <ele>224.5</ele>
        <time>2026-05-09T09:13:28.999Z</time>
      </trkpt>
      <trkpt lat="43.83143" lon="4.18882">
        <ele>224.4</ele>
        <time>2026-05-09T09:13:29.999Z</time>
      </trkpt>
      <trkpt lat="43.83144" lon="4.18882">
        <ele>224.3</ele>
        <time>2026-05-09T09:13:30.999Z</time>
      </trkpt>
      <trkpt lat="43.83143" lon="4.18883">
        <ele>224.3</ele>
        <time>2026-05-09T09:13:31.999Z</time>
      </trkpt>
      <trkpt lat="43.83143" lon="4.18884">
        <ele>224.4</ele>
        <time>2026-05-09T09:13:32.999Z</time>
      </trkpt>
      <trkpt lat="43.83143" lon="4.18884">
        <ele>224.5</ele>
        <time>2026-05-09T09:13:33.999Z</time>
      </trkpt>
      <trkpt lat="43.83143" lon="4.18885">
        <ele>224.7</ele>
        <time>2026-05-09T09:13:34.999Z</time>
      </trkpt>
      <trkpt lat="43.83142" lon="4.18885">
        <ele>224.9</ele>
        <time>2026-05-09T09:13:35.999Z</time>
      </trkpt>
      <trkpt lat="43.83142" lon="4.18886">
        <ele>225.1</ele>
        <time>2026-05-09T09:13:36.999Z</time>
      </trkpt>
      <trkpt lat="43.83141" lon="4.18887">
        <ele>225.3</ele>
        <time>2026-05-09T09:13:37.999Z</time>
      </trkpt>
      <trkpt lat="43.8314" lon="4.18888">
        <ele>225.2</ele>
        <time>2026-05-09T09:13:38.999Z</time>
      </trkpt>
      <trkpt lat="43.83139" lon="4.1889">
        <ele>225.3</ele>
        <time>2026-05-09T09:13:39.999Z</time>
      </trkpt>
      <trkpt lat="43.83138" lon="4.18891">
        <ele>225.7</ele>
        <time>2026-05-09T09:13:40.999Z</time>
      </trkpt>
      <trkpt lat="43.83138" lon="4.18892">
        <ele>226.1</ele>
        <time>2026-05-09T09:13:41.999Z</time>
      </trkpt>
      <trkpt lat="43.83137" lon="4.18894">
        <ele>226.2</ele>
        <time>2026-05-09T09:13:42.999Z</time>
      </trkpt>
      <trkpt lat="43.83136" lon="4.18895">
        <ele>226.3</ele>
        <time>2026-05-09T09:13:43.999Z</time>
      </trkpt>
      <trkpt lat="43.83136" lon="4.18896">
        <ele>226.4</ele>
        <time>2026-05-09T09:13:44.999Z</time>
      </trkpt>
      <trkpt lat="43.83136" lon="4.18898">
        <ele>226.5</ele>
        <time>2026-05-09T09:13:45.999Z</time>
      </trkpt>
      <trkpt lat="43.83136" lon="4.18899">
        <ele>226.6</ele>
        <time>2026-05-09T09:13:46.999Z</time>
      </trkpt>
      <trkpt lat="43.83137" lon="4.189">
        <ele>226.8</ele>
        <time>2026-05-09T09:13:47.999Z</time>
      </trkpt>
      <trkpt lat="43.83137" lon="4.18901">
        <ele>226.8</ele>
        <time>2026-05-09T09:13:48.999Z</time>
      </trkpt>
      <trkpt lat="43.83138" lon="4.18902">
        <ele>226.5</ele>
        <time>2026-05-09T09:13:49.999Z</time>
      </trkpt>
      <trkpt lat="43.83138" lon="4.18902">
        <ele>226.5</ele>
        <time>2026-05-09T09:13:50.999Z</time>
      </trkpt>
      <trkpt lat="43.83138" lon="4.18904">
        <ele>226.2</ele>
        <time>2026-05-09T09:13:51.999Z</time>
      </trkpt>
      <trkpt lat="43.83138" lon="4.18904">
        <ele>225.9</ele>
        <time>2026-05-09T09:13:52.999Z</time>
      </trkpt>
      <trkpt lat="43.83138" lon="4.18905">
        <ele>226.2</ele>
        <time>2026-05-09T09:13:53.999Z</time>
      </trkpt>
      <trkpt lat="43.83138" lon="4.18906">
        <ele>226.1</ele>
        <time>2026-05-09T09:13:54.999Z</time>
      </trkpt>
      <trkpt lat="43.83137" lon="4.18907">
        <ele>226.4</ele>
        <time>2026-05-09T09:13:55.999Z</time>
      </trkpt>
      <trkpt lat="43.83136" lon="4.18907">
        <ele>226.5</ele>
        <time>2026-05-09T09:13:56.999Z</time>
      </trkpt>
      <trkpt lat="43.83135" lon="4.18908">
        <ele>226.8</ele>
        <time>2026-05-09T09:13:57.999Z</time>
      </trkpt>
      <trkpt lat="43.83134" lon="4.18908">
        <ele>226.8</ele>
        <time>2026-05-09T09:13:58.999Z</time>
      </trkpt>
      <trkpt lat="43.83133" lon="4.1891">
        <ele>227</ele>
        <time>2026-05-09T09:13:59.999Z</time>
      </trkpt>
      <trkpt lat="43.83132" lon="4.18912">
        <ele>226.8</ele>
        <time>2026-05-09T09:14:00.999Z</time>
      </trkpt>
      <trkpt lat="43.83132" lon="4.18913">
        <ele>227.2</ele>
        <time>2026-05-09T09:14:01.999Z</time>
      </trkpt>
      <trkpt lat="43.83132" lon="4.18915">
        <ele>227.4</ele>
        <time>2026-05-09T09:14:02.999Z</time>
      </trkpt>
      <trkpt lat="43.83132" lon="4.18916">
        <ele>227.5</ele>
        <time>2026-05-09T09:14:03.999Z</time>
      </trkpt>
      <trkpt lat="43.83132" lon="4.18917">
        <ele>227.9</ele>
        <time>2026-05-09T09:14:04.999Z</time>
      </trkpt>
      <trkpt lat="43.83133" lon="4.18918">
        <ele>228.1</ele>
        <time>2026-05-09T09:14:05.999Z</time>
      </trkpt>
      <trkpt lat="43.83133" lon="4.18919">
        <ele>228.6</ele>
        <time>2026-05-09T09:14:06.999Z</time>
      </trkpt>
      <trkpt lat="43.83134" lon="4.1892">
        <ele>228.6</ele>
        <time>2026-05-09T09:14:07.999Z</time>
      </trkpt>
      <trkpt lat="43.83135" lon="4.18919">
        <ele>228.9</ele>
        <time>2026-05-09T09:14:08.999Z</time>
      </trkpt>
      <trkpt lat="43.83136" lon="4.18919">
        <ele>228.7</ele>
        <time>2026-05-09T09:14:09.999Z</time>
      </trkpt>
      <trkpt lat="43.83137" lon="4.1892">
        <ele>228.7</ele>
        <time>2026-05-09T09:14:10.999Z</time>
      </trkpt>
      <trkpt lat="43.83137" lon="4.18921">
        <ele>228.7</ele>
        <time>2026-05-09T09:14:11.999Z</time>
      </trkpt>
      <trkpt lat="43.83138" lon="4.18922">
        <ele>228.9</ele>
        <time>2026-05-09T09:14:12.999Z</time>
      </trkpt>
      <trkpt lat="43.83138" lon="4.18923">
        <ele>229</ele>
        <time>2026-05-09T09:14:13.999Z</time>
      </trkpt>
      <trkpt lat="43.83138" lon="4.18924">
        <ele>228.8</ele>
        <time>2026-05-09T09:14:14.999Z</time>
      </trkpt>
      <trkpt lat="43.83138" lon="4.18925">
        <ele>228.7</ele>
        <time>2026-05-09T09:14:15.999Z</time>
      </trkpt>
      <trkpt lat="43.83138" lon="4.18927">
        <ele>228.8</ele>
        <time>2026-05-09T09:14:16.999Z</time>
      </trkpt>
      <trkpt lat="43.83137" lon="4.18929">
        <ele>228.8</ele>
        <time>2026-05-09T09:14:17.999Z</time>
      </trkpt>
      <trkpt lat="43.83137" lon="4.1893">
        <ele>228.7</ele>
        <time>2026-05-09T09:14:18.999Z</time>
      </trkpt>
      <trkpt lat="43.83137" lon="4.18931">
        <ele>228.7</ele>
        <time>2026-05-09T09:14:19.999Z</time>
      </trkpt>
      <trkpt lat="43.83136" lon="4.18932">
        <ele>228.7</ele>
        <time>2026-05-09T09:14:20.999Z</time>
      </trkpt>
      <trkpt lat="43.83136" lon="4.18933">
        <ele>228.9</ele>
        <time>2026-05-09T09:14:21.999Z</time>
      </trkpt>
      <trkpt lat="43.83136" lon="4.18934">
        <ele>228.9</ele>
        <time>2026-05-09T09:14:22.999Z</time>
      </trkpt>
      <trkpt lat="43.83136" lon="4.18935">
        <ele>229</ele>
        <time>2026-05-09T09:14:23.999Z</time>
      </trkpt>
      <trkpt lat="43.83136" lon="4.18936">
        <ele>229.2</ele>
        <time>2026-05-09T09:14:24.999Z</time>
      </trkpt>
      <trkpt lat="43.83137" lon="4.18937">
        <ele>229.1</ele>
        <time>2026-05-09T09:14:25.999Z</time>
      </trkpt>
      <trkpt lat="43.83137" lon="4.18938">
        <ele>229</ele>
        <time>2026-05-09T09:14:26.999Z</time>
      </trkpt>
      <trkpt lat="43.83137" lon="4.18939">
        <ele>228.9</ele>
        <time>2026-05-09T09:14:27.999Z</time>
      </trkpt>
      <trkpt lat="43.83137" lon="4.1894">
        <ele>228.7</ele>
        <time>2026-05-09T09:14:28.999Z</time>
      </trkpt>
      <trkpt lat="43.83136" lon="4.18941">
        <ele>228.9</ele>
        <time>2026-05-09T09:14:29.999Z</time>
      </trkpt>
      <trkpt lat="43.83135" lon="4.18942">
        <ele>228.8</ele>
        <time>2026-05-09T09:14:30.999Z</time>
      </trkpt>
      <trkpt lat="43.83135" lon="4.18942">
        <ele>228.7</ele>
        <time>2026-05-09T09:14:31.999Z</time>
      </trkpt>
      <trkpt lat="43.83134" lon="4.18944">
        <ele>228.5</ele>
        <time>2026-05-09T09:14:32.999Z</time>
      </trkpt>
      <trkpt lat="43.83133" lon="4.18945">
        <ele>228.5</ele>
        <time>2026-05-09T09:14:33.999Z</time>
      </trkpt>
      <trkpt lat="43.83133" lon="4.18945">
        <ele>228.7</ele>
        <time>2026-05-09T09:14:34.999Z</time>
      </trkpt>
      <trkpt lat="43.83132" lon="4.18946">
        <ele>228.9</ele>
        <time>2026-05-09T09:14:35.999Z</time>
      </trkpt>
      <trkpt lat="43.83131" lon="4.18947">
        <ele>229.1</ele>
        <time>2026-05-09T09:14:36.999Z</time>
      </trkpt>
      <trkpt lat="43.83131" lon="4.18948">
        <ele>229.2</ele>
        <time>2026-05-09T09:14:37.999Z</time>
      </trkpt>
      <trkpt lat="43.8313" lon="4.1895">
        <ele>229.3</ele>
        <time>2026-05-09T09:14:38.999Z</time>
      </trkpt>
      <trkpt lat="43.8313" lon="4.18951">
        <ele>229.4</ele>
        <time>2026-05-09T09:14:39.999Z</time>
      </trkpt>
      <trkpt lat="43.83131" lon="4.18953">
        <ele>229.6</ele>
        <time>2026-05-09T09:14:40.999Z</time>
      </trkpt>
      <trkpt lat="43.83131" lon="4.18954">
        <ele>229.8</ele>
        <time>2026-05-09T09:14:41.999Z</time>
      </trkpt>
      <trkpt lat="43.83131" lon="4.18955">
        <ele>229.7</ele>
        <time>2026-05-09T09:14:42.999Z</time>
      </trkpt>
      <trkpt lat="43.83131" lon="4.18956">
        <ele>230</ele>
        <time>2026-05-09T09:14:43.999Z</time>
      </trkpt>
      <trkpt lat="43.83131" lon="4.18957">
        <ele>230.1</ele>
        <time>2026-05-09T09:14:44.999Z</time>
      </trkpt>
      <trkpt lat="43.83131" lon="4.18959">
        <ele>230.3</ele>
        <time>2026-05-09T09:14:45.999Z</time>
      </trkpt>
      <trkpt lat="43.83131" lon="4.1896">
        <ele>230.3</ele>
        <time>2026-05-09T09:14:46.999Z</time>
      </trkpt>
      <trkpt lat="43.83131" lon="4.18961">
        <ele>230.2</ele>
        <time>2026-05-09T09:14:47.999Z</time>
      </trkpt>
      <trkpt lat="43.83131" lon="4.18962">
        <ele>230.2</ele>
        <time>2026-05-09T09:14:48.999Z</time>
      </trkpt>
      <trkpt lat="43.83131" lon="4.18962">
        <ele>230.2</ele>
        <time>2026-05-09T09:14:49.999Z</time>
      </trkpt>
      <trkpt lat="43.8313" lon="4.18963">
        <ele>230.3</ele>
        <time>2026-05-09T09:14:50.999Z</time>
      </trkpt>
      <trkpt lat="43.83129" lon="4.18963">
        <ele>230.4</ele>
        <time>2026-05-09T09:14:51.999Z</time>
      </trkpt>
      <trkpt lat="43.83129" lon="4.18964">
        <ele>230.3</ele>
        <time>2026-05-09T09:14:52.999Z</time>
      </trkpt>
      <trkpt lat="43.83128" lon="4.18965">
        <ele>230.1</ele>
        <time>2026-05-09T09:14:53.999Z</time>
      </trkpt>
      <trkpt lat="43.83128" lon="4.18966">
        <ele>230.1</ele>
        <time>2026-05-09T09:14:54.999Z</time>
      </trkpt>
      <trkpt lat="43.83128" lon="4.18966">
        <ele>229.9</ele>
        <time>2026-05-09T09:14:55.999Z</time>
      </trkpt>
      <trkpt lat="43.83127" lon="4.18967">
        <ele>229.9</ele>
        <time>2026-05-09T09:14:56.999Z</time>
      </trkpt>
      <trkpt lat="43.83127" lon="4.18967">
        <ele>229.8</ele>
        <time>2026-05-09T09:14:57.999Z</time>
      </trkpt>
      <trkpt lat="43.83126" lon="4.18967">
        <ele>229.9</ele>
        <time>2026-05-09T09:14:58.999Z</time>
      </trkpt>
      <trkpt lat="43.83125" lon="4.18966">
        <ele>229.8</ele>
        <time>2026-05-09T09:14:59.999Z</time>
      </trkpt>
      <trkpt lat="43.83125" lon="4.18966">
        <ele>229.9</ele>
        <time>2026-05-09T09:15:00.999Z</time>
      </trkpt>
      <trkpt lat="43.83124" lon="4.18966">
        <ele>229.7</ele>
        <time>2026-05-09T09:15:01.999Z</time>
      </trkpt>
      <trkpt lat="43.83123" lon="4.18965">
        <ele>229.5</ele>
        <time>2026-05-09T09:15:02.999Z</time>
      </trkpt>
      <trkpt lat="43.83122" lon="4.18965">
        <ele>229.5</ele>
        <time>2026-05-09T09:15:03.999Z</time>
      </trkpt>
      <trkpt lat="43.83122" lon="4.18966">
        <ele>229.6</ele>
        <time>2026-05-09T09:15:04.999Z</time>
      </trkpt>
      <trkpt lat="43.83121" lon="4.18966">
        <ele>229.5</ele>
        <time>2026-05-09T09:15:05.999Z</time>
      </trkpt>
      <trkpt lat="43.83121" lon="4.18966">
        <ele>229.6</ele>
        <time>2026-05-09T09:15:06.999Z</time>
      </trkpt>
      <trkpt lat="43.8312" lon="4.18966">
        <ele>229.8</ele>
        <time>2026-05-09T09:15:07.999Z</time>
      </trkpt>
      <trkpt lat="43.8312" lon="4.18966">
        <ele>229.8</ele>
        <time>2026-05-09T09:15:08.999Z</time>
      </trkpt>
      <trkpt lat="43.8312" lon="4.18966">
        <ele>229.9</ele>
        <time>2026-05-09T09:15:09.999Z</time>
      </trkpt>
      <trkpt lat="43.8312" lon="4.18966">
        <ele>230</ele>
        <time>2026-05-09T09:15:10.999Z</time>
      </trkpt>
      <trkpt lat="43.8312" lon="4.18967">
        <ele>230</ele>
        <time>2026-05-09T09:15:11.999Z</time>
      </trkpt>
      <trkpt lat="43.83119" lon="4.18967">
        <ele>230.2</ele>
        <time>2026-05-09T09:15:12.999Z</time>
      </trkpt>
      <trkpt lat="43.8312" lon="4.18967">
        <ele>230.1</ele>
        <time>2026-05-09T09:15:13.999Z</time>
      </trkpt>
      <trkpt lat="43.83119" lon="4.18967">
        <ele>230.1</ele>
        <time>2026-05-09T09:15:14.999Z</time>
      </trkpt>
      <trkpt lat="43.83119" lon="4.18967">
        <ele>230.3</ele>
        <time>2026-05-09T09:15:15.999Z</time>
      </trkpt>
      <trkpt lat="43.83119" lon="4.18967">
        <ele>230.4</ele>
        <time>2026-05-09T09:15:16.999Z</time>
      </trkpt>
      <trkpt lat="43.83119" lon="4.18967">
        <ele>230.4</ele>
        <time>2026-05-09T09:15:17.999Z</time>
      </trkpt>
      <trkpt lat="43.83119" lon="4.18967">
        <ele>230.4</ele>
        <time>2026-05-09T09:15:18.999Z</time>
      </trkpt>
      <trkpt lat="43.83119" lon="4.18967">
        <ele>230.3</ele>
        <time>2026-05-09T09:15:19.999Z</time>
      </trkpt>
      <trkpt lat="43.83119" lon="4.18967">
        <ele>230.2</ele>
        <time>2026-05-09T09:15:20.999Z</time>
      </trkpt>
      <trkpt lat="43.83119" lon="4.18967">
        <ele>230.3</ele>
        <time>2026-05-09T09:15:21.999Z</time>
      </trkpt>
      <trkpt lat="43.83119" lon="4.18967">
        <ele>230.3</ele>
        <time>2026-05-09T09:15:22.999Z</time>
      </trkpt>
      <trkpt lat="43.83119" lon="4.18967">
        <ele>230.2</ele>
        <time>2026-05-09T09:15:23.999Z</time>
      </trkpt>
      <trkpt lat="43.83119" lon="4.18967">
        <ele>230.2</ele>
        <time>2026-05-09T09:15:24.999Z</time>
      </trkpt>
      <trkpt lat="43.83119" lon="4.18967">
        <ele>230.2</ele>
        <time>2026-05-09T09:15:25.999Z</time>
      </trkpt>
      <trkpt lat="43.83119" lon="4.18967">
        <ele>230.2</ele>
        <time>2026-05-09T09:15:26.999Z</time>
      </trkpt>
      <trkpt lat="43.83119" lon="4.18967">
        <ele>230.2</ele>
        <time>2026-05-09T09:15:27.999Z</time>
      </trkpt>
      <trkpt lat="43.83119" lon="4.18967">
        <ele>230.2</ele>
        <time>2026-05-09T09:15:28.999Z</time>
      </trkpt>
      <trkpt lat="43.83119" lon="4.18967">
        <ele>230.3</ele>
        <time>2026-05-09T09:15:29.999Z</time>
      </trkpt>
      <trkpt lat="43.83119" lon="4.18967">
        <ele>230.3</ele>
        <time>2026-05-09T09:15:30.999Z</time>
      </trkpt>
      <trkpt lat="43.83119" lon="4.18967">
        <ele>230.3</ele>
        <time>2026-05-09T09:15:31.999Z</time>
      </trkpt>
      <trkpt lat="43.83119" lon="4.18967">
        <ele>230.2</ele>
        <time>2026-05-09T09:15:32.999Z</time>
      </trkpt>
      <trkpt lat="43.83119" lon="4.18967">
        <ele>230.3</ele>
        <time>2026-05-09T09:15:33.999Z</time>
      </trkpt>
      <trkpt lat="43.83119" lon="4.18967">
        <ele>230.3</ele>
        <time>2026-05-09T09:15:34.999Z</time>
      </trkpt>
      <trkpt lat="43.83119" lon="4.18967">
        <ele>230.4</ele>
        <time>2026-05-09T09:15:35.999Z</time>
      </trkpt>
      <trkpt lat="43.83119" lon="4.18967">
        <ele>230.4</ele>
        <time>2026-05-09T09:15:36.999Z</time>
      </trkpt>
      <trkpt lat="43.83119" lon="4.18966">
        <ele>230.3</ele>
        <time>2026-05-09T09:15:37.999Z</time>
      </trkpt>
      <trkpt lat="43.83119" lon="4.18966">
        <ele>230.1</ele>
        <time>2026-05-09T09:15:38.999Z</time>
      </trkpt>
      <trkpt lat="43.83119" lon="4.18966">
        <ele>230</ele>
        <time>2026-05-09T09:15:39.999Z</time>
      </trkpt>
      <trkpt lat="43.83119" lon="4.18966">
        <ele>229.9</ele>
        <time>2026-05-09T09:15:40.999Z</time>
      </trkpt>
      <trkpt lat="43.83119" lon="4.18966">
        <ele>229.7</ele>
        <time>2026-05-09T09:15:41.999Z</time>
      </trkpt>
      <trkpt lat="43.83119" lon="4.18966">
        <ele>229.5</ele>
        <time>2026-05-09T09:15:42.999Z</time>
      </trkpt>
      <trkpt lat="43.83119" lon="4.18966">
        <ele>229.6</ele>
        <time>2026-05-09T09:15:43.999Z</time>
      </trkpt>
      <trkpt lat="43.83119" lon="4.18966">
        <ele>229.7</ele>
        <time>2026-05-09T09:15:44.999Z</time>
      </trkpt>
      <trkpt lat="43.83119" lon="4.18966">
        <ele>229.5</ele>
        <time>2026-05-09T09:15:45.999Z</time>
      </trkpt>
      <trkpt lat="43.83119" lon="4.18966">
        <ele>229.3</ele>
        <time>2026-05-09T09:15:46.999Z</time>
      </trkpt>
      <trkpt lat="43.83119" lon="4.18966">
        <ele>229.2</ele>
        <time>2026-05-09T09:15:47.999Z</time>
      </trkpt>
      <trkpt lat="43.83119" lon="4.18966">
        <ele>229</ele>
        <time>2026-05-09T09:15:48.999Z</time>
      </trkpt>
      <trkpt lat="43.83119" lon="4.18966">
        <ele>229.2</ele>
        <time>2026-05-09T09:15:49.999Z</time>
      </trkpt>
      <trkpt lat="43.83119" lon="4.18966">
        <ele>229.2</ele>
        <time>2026-05-09T09:15:50.999Z</time>
      </trkpt>
      <trkpt lat="43.83119" lon="4.18966">
        <ele>229.2</ele>
        <time>2026-05-09T09:15:51.999Z</time>
      </trkpt>
      <trkpt lat="43.83119" lon="4.18966">
        <ele>229.2</ele>
        <time>2026-05-09T09:15:52.999Z</time>
      </trkpt>
      <trkpt lat="43.83119" lon="4.18966">
        <ele>229.3</ele>
        <time>2026-05-09T09:15:53.999Z</time>
      </trkpt>
      <trkpt lat="43.83119" lon="4.18966">
        <ele>229.2</ele>
        <time>2026-05-09T09:15:54.999Z</time>
      </trkpt>
      <trkpt lat="43.83119" lon="4.18966">
        <ele>229.2</ele>
        <time>2026-05-09T09:15:55.999Z</time>
      </trkpt>
      <trkpt lat="43.83119" lon="4.18967">
        <ele>229.1</ele>
        <time>2026-05-09T09:15:56.999Z</time>
      </trkpt>
      <trkpt lat="43.83119" lon="4.18968">
        <ele>229.1</ele>
        <time>2026-05-09T09:15:57.999Z</time>
      </trkpt>
      <trkpt lat="43.83118" lon="4.18969">
        <ele>229</ele>
        <time>2026-05-09T09:15:58.999Z</time>
      </trkpt>
      <trkpt lat="43.83118" lon="4.18971">
        <ele>228.9</ele>
        <time>2026-05-09T09:15:59.999Z</time>
      </trkpt>
      <trkpt lat="43.83118" lon="4.18972">
        <ele>229</ele>
        <time>2026-05-09T09:16:00.999Z</time>
      </trkpt>
      <trkpt lat="43.83118" lon="4.18973">
        <ele>229.1</ele>
        <time>2026-05-09T09:16:01.999Z</time>
      </trkpt>
      <trkpt lat="43.83118" lon="4.18975">
        <ele>229.1</ele>
        <time>2026-05-09T09:16:02.999Z</time>
      </trkpt>
      <trkpt lat="43.83118" lon="4.18977">
        <ele>228.9</ele>
        <time>2026-05-09T09:16:03.999Z</time>
      </trkpt>
      <trkpt lat="43.83118" lon="4.18979">
        <ele>229.3</ele>
        <time>2026-05-09T09:16:04.999Z</time>
      </trkpt>
      <trkpt lat="43.83118" lon="4.18981">
        <ele>229.6</ele>
        <time>2026-05-09T09:16:05.999Z</time>
      </trkpt>
      <trkpt lat="43.83118" lon="4.18982">
        <ele>229.9</ele>
        <time>2026-05-09T09:16:06.999Z</time>
      </trkpt>
      <trkpt lat="43.83119" lon="4.18983">
        <ele>229.8</ele>
        <time>2026-05-09T09:16:07.999Z</time>
      </trkpt>
      <trkpt lat="43.83118" lon="4.18983">
        <ele>229.8</ele>
        <time>2026-05-09T09:16:08.999Z</time>
      </trkpt>
      <trkpt lat="43.83118" lon="4.18985">
        <ele>229.8</ele>
        <time>2026-05-09T09:16:09.999Z</time>
      </trkpt>
      <trkpt lat="43.83118" lon="4.18987">
        <ele>229.9</ele>
        <time>2026-05-09T09:16:10.999Z</time>
      </trkpt>
      <trkpt lat="43.83118" lon="4.18988">
        <ele>230.1</ele>
        <time>2026-05-09T09:16:11.999Z</time>
      </trkpt>
      <trkpt lat="43.83118" lon="4.1899">
        <ele>230.2</ele>
        <time>2026-05-09T09:16:12.999Z</time>
      </trkpt>
      <trkpt lat="43.83118" lon="4.18991">
        <ele>230</ele>
        <time>2026-05-09T09:16:13.999Z</time>
      </trkpt>
      <trkpt lat="43.83118" lon="4.18992">
        <ele>229.8</ele>
        <time>2026-05-09T09:16:14.999Z</time>
      </trkpt>
      <trkpt lat="43.83118" lon="4.18993">
        <ele>229.8</ele>
        <time>2026-05-09T09:16:15.999Z</time>
      </trkpt>
      <trkpt lat="43.83118" lon="4.18996">
        <ele>229.9</ele>
        <time>2026-05-09T09:16:16.999Z</time>
      </trkpt>
      <trkpt lat="43.83118" lon="4.18997">
        <ele>229.8</ele>
        <time>2026-05-09T09:16:17.999Z</time>
      </trkpt>
      <trkpt lat="43.83119" lon="4.18999">
        <ele>229.7</ele>
        <time>2026-05-09T09:16:18.999Z</time>
      </trkpt>
      <trkpt lat="43.8312" lon="4.19">
        <ele>229.7</ele>
        <time>2026-05-09T09:16:19.999Z</time>
      </trkpt>
      <trkpt lat="43.8312" lon="4.19001">
        <ele>229.5</ele>
        <time>2026-05-09T09:16:20.999Z</time>
      </trkpt>
      <trkpt lat="43.83121" lon="4.19003">
        <ele>229.4</ele>
        <time>2026-05-09T09:16:21.999Z</time>
      </trkpt>
      <trkpt lat="43.83121" lon="4.19004">
        <ele>229.5</ele>
        <time>2026-05-09T09:16:22.999Z</time>
      </trkpt>
      <trkpt lat="43.83122" lon="4.19004">
        <ele>229.5</ele>
        <time>2026-05-09T09:16:23.999Z</time>
      </trkpt>
      <trkpt lat="43.83123" lon="4.19005">
        <ele>229.4</ele>
        <time>2026-05-09T09:16:24.999Z</time>
      </trkpt>
      <trkpt lat="43.83123" lon="4.19005">
        <ele>229.6</ele>
        <time>2026-05-09T09:16:25.999Z</time>
      </trkpt>
      <trkpt lat="43.83124" lon="4.19005">
        <ele>229.6</ele>
        <time>2026-05-09T09:16:26.999Z</time>
      </trkpt>
      <trkpt lat="43.83125" lon="4.19006">
        <ele>229.7</ele>
        <time>2026-05-09T09:16:27.999Z</time>
      </trkpt>
      <trkpt lat="43.83126" lon="4.19007">
        <ele>229.8</ele>
        <time>2026-05-09T09:16:28.999Z</time>
      </trkpt>
      <trkpt lat="43.83127" lon="4.19007">
        <ele>229.8</ele>
        <time>2026-05-09T09:16:29.999Z</time>
      </trkpt>
      <trkpt lat="43.83128" lon="4.19007">
        <ele>229.8</ele>
        <time>2026-05-09T09:16:30.999Z</time>
      </trkpt>
      <trkpt lat="43.83128" lon="4.19007">
        <ele>229.5</ele>
        <time>2026-05-09T09:16:31.999Z</time>
      </trkpt>
      <trkpt lat="43.83129" lon="4.19007">
        <ele>229.3</ele>
        <time>2026-05-09T09:16:32.999Z</time>
      </trkpt>
      <trkpt lat="43.8313" lon="4.19007">
        <ele>229.2</ele>
        <time>2026-05-09T09:16:33.999Z</time>
      </trkpt>
      <trkpt lat="43.8313" lon="4.19007">
        <ele>229.1</ele>
        <time>2026-05-09T09:16:34.999Z</time>
      </trkpt>
      <trkpt lat="43.8313" lon="4.19007">
        <ele>229.1</ele>
        <time>2026-05-09T09:16:35.999Z</time>
      </trkpt>
      <trkpt lat="43.8313" lon="4.19007">
        <ele>228.6</ele>
        <time>2026-05-09T09:16:36.999Z</time>
      </trkpt>
      <trkpt lat="43.8313" lon="4.19007">
        <ele>228.5</ele>
        <time>2026-05-09T09:16:37.999Z</time>
      </trkpt>
      <trkpt lat="43.8313" lon="4.19007">
        <ele>228.3</ele>
        <time>2026-05-09T09:16:38.999Z</time>
      </trkpt>
      <trkpt lat="43.8313" lon="4.19007">
        <ele>228.2</ele>
        <time>2026-05-09T09:16:39.999Z</time>
      </trkpt>
      <trkpt lat="43.8313" lon="4.19007">
        <ele>228.2</ele>
        <time>2026-05-09T09:16:40.999Z</time>
      </trkpt>
      <trkpt lat="43.8313" lon="4.19007">
        <ele>228.2</ele>
        <time>2026-05-09T09:16:41.999Z</time>
      </trkpt>
      <trkpt lat="43.8313" lon="4.19007">
        <ele>228</ele>
        <time>2026-05-09T09:16:42.999Z</time>
      </trkpt>
      <trkpt lat="43.8313" lon="4.19007">
        <ele>228</ele>
        <time>2026-05-09T09:16:43.999Z</time>
      </trkpt>
      <trkpt lat="43.8313" lon="4.19007">
        <ele>228</ele>
        <time>2026-05-09T09:16:44.999Z</time>
      </trkpt>
      <trkpt lat="43.83129" lon="4.19006">
        <ele>227.9</ele>
        <time>2026-05-09T09:16:45.999Z</time>
      </trkpt>
      <trkpt lat="43.83129" lon="4.19006">
        <ele>227.9</ele>
        <time>2026-05-09T09:16:46.999Z</time>
      </trkpt>
      <trkpt lat="43.83129" lon="4.19006">
        <ele>227.8</ele>
        <time>2026-05-09T09:16:47.999Z</time>
      </trkpt>
      <trkpt lat="43.83129" lon="4.19006">
        <ele>227.7</ele>
        <time>2026-05-09T09:16:48.999Z</time>
      </trkpt>
      <trkpt lat="43.83129" lon="4.19006">
        <ele>227.6</ele>
        <time>2026-05-09T09:16:49.999Z</time>
      </trkpt>
      <trkpt lat="43.83129" lon="4.19006">
        <ele>227.6</ele>
        <time>2026-05-09T09:16:50.999Z</time>
      </trkpt>
      <trkpt lat="43.83129" lon="4.19006">
        <ele>227.5</ele>
        <time>2026-05-09T09:16:51.999Z</time>
      </trkpt>
      <trkpt lat="43.83128" lon="4.19005">
        <ele>227.7</ele>
        <time>2026-05-09T09:16:52.999Z</time>
      </trkpt>
      <trkpt lat="43.83126" lon="4.19004">
        <ele>227.6</ele>
        <time>2026-05-09T09:16:53.999Z</time>
      </trkpt>
      <trkpt lat="43.83125" lon="4.19004">
        <ele>227.6</ele>
        <time>2026-05-09T09:16:54.999Z</time>
      </trkpt>
      <trkpt lat="43.83125" lon="4.19004">
        <ele>227.6</ele>
        <time>2026-05-09T09:16:55.999Z</time>
      </trkpt>
      <trkpt lat="43.83125" lon="4.19004">
        <ele>227.4</ele>
        <time>2026-05-09T09:16:56.999Z</time>
      </trkpt>
      <trkpt lat="43.83124" lon="4.19004">
        <ele>227.3</ele>
        <time>2026-05-09T09:16:57.999Z</time>
      </trkpt>
      <trkpt lat="43.83124" lon="4.19004">
        <ele>227.3</ele>
        <time>2026-05-09T09:16:58.999Z</time>
      </trkpt>
      <trkpt lat="43.83123" lon="4.19004">
        <ele>227.4</ele>
        <time>2026-05-09T09:16:59.999Z</time>
      </trkpt>
      <trkpt lat="43.83123" lon="4.19004">
        <ele>227.3</ele>
        <time>2026-05-09T09:17:00.999Z</time>
      </trkpt>
      <trkpt lat="43.83123" lon="4.19004">
        <ele>227.3</ele>
        <time>2026-05-09T09:17:01.999Z</time>
      </trkpt>
      <trkpt lat="43.83122" lon="4.19004">
        <ele>227.1</ele>
        <time>2026-05-09T09:17:02.999Z</time>
      </trkpt>
      <trkpt lat="43.83121" lon="4.19005">
        <ele>227</ele>
        <time>2026-05-09T09:17:03.999Z</time>
      </trkpt>
      <trkpt lat="43.8312" lon="4.19006">
        <ele>226.9</ele>
        <time>2026-05-09T09:17:04.999Z</time>
      </trkpt>
      <trkpt lat="43.83119" lon="4.19007">
        <ele>226.8</ele>
        <time>2026-05-09T09:17:05.999Z</time>
      </trkpt>
      <trkpt lat="43.83118" lon="4.19009">
        <ele>226.8</ele>
        <time>2026-05-09T09:17:06.999Z</time>
      </trkpt>
      <trkpt lat="43.83118" lon="4.1901">
        <ele>226.7</ele>
        <time>2026-05-09T09:17:07.999Z</time>
      </trkpt>
      <trkpt lat="43.83118" lon="4.19012">
        <ele>226.9</ele>
        <time>2026-05-09T09:17:08.999Z</time>
      </trkpt>
      <trkpt lat="43.83117" lon="4.19012">
        <ele>227.1</ele>
        <time>2026-05-09T09:17:09.999Z</time>
      </trkpt>
      <trkpt lat="43.83117" lon="4.19013">
        <ele>227.2</ele>
        <time>2026-05-09T09:17:10.999Z</time>
      </trkpt>
      <trkpt lat="43.83116" lon="4.19013">
        <ele>227</ele>
        <time>2026-05-09T09:17:11.999Z</time>
      </trkpt>
      <trkpt lat="43.83115" lon="4.19014">
        <ele>226.9</ele>
        <time>2026-05-09T09:17:12.999Z</time>
      </trkpt>
      <trkpt lat="43.83114" lon="4.19014">
        <ele>227.1</ele>
        <time>2026-05-09T09:17:13.999Z</time>
      </trkpt>
      <trkpt lat="43.83113" lon="4.19014">
        <ele>227.1</ele>
        <time>2026-05-09T09:17:14.999Z</time>
      </trkpt>
      <trkpt lat="43.83112" lon="4.19015">
        <ele>227.3</ele>
        <time>2026-05-09T09:17:15.999Z</time>
      </trkpt>
      <trkpt lat="43.83112" lon="4.19016">
        <ele>227</ele>
        <time>2026-05-09T09:17:16.999Z</time>
      </trkpt>
      <trkpt lat="43.83111" lon="4.19017">
        <ele>226.7</ele>
        <time>2026-05-09T09:17:17.999Z</time>
      </trkpt>
      <trkpt lat="43.8311" lon="4.19018">
        <ele>226.4</ele>
        <time>2026-05-09T09:17:18.999Z</time>
      </trkpt>
      <trkpt lat="43.8311" lon="4.19019">
        <ele>226.2</ele>
        <time>2026-05-09T09:17:19.999Z</time>
      </trkpt>
      <trkpt lat="43.8311" lon="4.1902">
        <ele>226.1</ele>
        <time>2026-05-09T09:17:20.999Z</time>
      </trkpt>
      <trkpt lat="43.83109" lon="4.19022">
        <ele>226.3</ele>
        <time>2026-05-09T09:17:21.999Z</time>
      </trkpt>
      <trkpt lat="43.8311" lon="4.19023">
        <ele>226.3</ele>
        <time>2026-05-09T09:17:22.999Z</time>
      </trkpt>
      <trkpt lat="43.8311" lon="4.19025">
        <ele>226.2</ele>
        <time>2026-05-09T09:17:23.999Z</time>
      </trkpt>
      <trkpt lat="43.83109" lon="4.19026">
        <ele>226.4</ele>
        <time>2026-05-09T09:17:24.999Z</time>
      </trkpt>
      <trkpt lat="43.83108" lon="4.19028">
        <ele>226.5</ele>
        <time>2026-05-09T09:17:25.999Z</time>
      </trkpt>
      <trkpt lat="43.83107" lon="4.19028">
        <ele>226.2</ele>
        <time>2026-05-09T09:17:26.999Z</time>
      </trkpt>
      <trkpt lat="43.83107" lon="4.19029">
        <ele>226.2</ele>
        <time>2026-05-09T09:17:27.999Z</time>
      </trkpt>
      <trkpt lat="43.83106" lon="4.19029">
        <ele>226</ele>
        <time>2026-05-09T09:17:28.999Z</time>
      </trkpt>
      <trkpt lat="43.83107" lon="4.1903">
        <ele>225.7</ele>
        <time>2026-05-09T09:17:29.999Z</time>
      </trkpt>
      <trkpt lat="43.83107" lon="4.1903">
        <ele>225.4</ele>
        <time>2026-05-09T09:17:30.999Z</time>
      </trkpt>
      <trkpt lat="43.83106" lon="4.19031">
        <ele>225.4</ele>
        <time>2026-05-09T09:17:31.999Z</time>
      </trkpt>
      <trkpt lat="43.83106" lon="4.19031">
        <ele>225.1</ele>
        <time>2026-05-09T09:17:32.999Z</time>
      </trkpt>
      <trkpt lat="43.83106" lon="4.19031">
        <ele>224.9</ele>
        <time>2026-05-09T09:17:33.999Z</time>
      </trkpt>
      <trkpt lat="43.83106" lon="4.19031">
        <ele>224.8</ele>
        <time>2026-05-09T09:17:34.999Z</time>
      </trkpt>
      <trkpt lat="43.83106" lon="4.19031">
        <ele>224.5</ele>
        <time>2026-05-09T09:17:35.999Z</time>
      </trkpt>
      <trkpt lat="43.83106" lon="4.19032">
        <ele>224.6</ele>
        <time>2026-05-09T09:17:36.999Z</time>
      </trkpt>
      <trkpt lat="43.83105" lon="4.19033">
        <ele>224.3</ele>
        <time>2026-05-09T09:17:37.999Z</time>
      </trkpt>
      <trkpt lat="43.83105" lon="4.19034">
        <ele>224.2</ele>
        <time>2026-05-09T09:17:38.999Z</time>
      </trkpt>
      <trkpt lat="43.83105" lon="4.19035">
        <ele>223.9</ele>
        <time>2026-05-09T09:17:39.999Z</time>
      </trkpt>
      <trkpt lat="43.83105" lon="4.19036">
        <ele>223.7</ele>
        <time>2026-05-09T09:17:40.999Z</time>
      </trkpt>
      <trkpt lat="43.83105" lon="4.19038">
        <ele>223.5</ele>
        <time>2026-05-09T09:17:41.999Z</time>
      </trkpt>
      <trkpt lat="43.83105" lon="4.1904">
        <ele>223.4</ele>
        <time>2026-05-09T09:17:42.999Z</time>
      </trkpt>
      <trkpt lat="43.83105" lon="4.19041">
        <ele>223</ele>
        <time>2026-05-09T09:17:43.999Z</time>
      </trkpt>
      <trkpt lat="43.83105" lon="4.19042">
        <ele>223</ele>
        <time>2026-05-09T09:17:44.999Z</time>
      </trkpt>
      <trkpt lat="43.83104" lon="4.19044">
        <ele>223</ele>
        <time>2026-05-09T09:17:45.999Z</time>
      </trkpt>
      <trkpt lat="43.83105" lon="4.19045">
        <ele>223.2</ele>
        <time>2026-05-09T09:17:46.999Z</time>
      </trkpt>
      <trkpt lat="43.83104" lon="4.19046">
        <ele>223</ele>
        <time>2026-05-09T09:17:47.999Z</time>
      </trkpt>
      <trkpt lat="43.83104" lon="4.19046">
        <ele>223</ele>
        <time>2026-05-09T09:17:48.999Z</time>
      </trkpt>
      <trkpt lat="43.83104" lon="4.19047">
        <ele>223.1</ele>
        <time>2026-05-09T09:17:49.999Z</time>
      </trkpt>
      <trkpt lat="43.83104" lon="4.19047">
        <ele>223.1</ele>
        <time>2026-05-09T09:17:50.999Z</time>
      </trkpt>
      <trkpt lat="43.83104" lon="4.19047">
        <ele>222.8</ele>
        <time>2026-05-09T09:17:51.999Z</time>
      </trkpt>
      <trkpt lat="43.83104" lon="4.19047">
        <ele>222.8</ele>
        <time>2026-05-09T09:17:52.999Z</time>
      </trkpt>
      <trkpt lat="43.83104" lon="4.19047">
        <ele>222.8</ele>
        <time>2026-05-09T09:17:53.999Z</time>
      </trkpt>
      <trkpt lat="43.83104" lon="4.19047">
        <ele>222.8</ele>
        <time>2026-05-09T09:17:54.999Z</time>
      </trkpt>
      <trkpt lat="43.83105" lon="4.19048">
        <ele>222.4</ele>
        <time>2026-05-09T09:17:55.999Z</time>
      </trkpt>
      <trkpt lat="43.83105" lon="4.1905">
        <ele>222.4</ele>
        <time>2026-05-09T09:17:56.999Z</time>
      </trkpt>
      <trkpt lat="43.83105" lon="4.19052">
        <ele>222.4</ele>
        <time>2026-05-09T09:17:57.999Z</time>
      </trkpt>
      <trkpt lat="43.83105" lon="4.19054">
        <ele>222.2</ele>
        <time>2026-05-09T09:17:58.999Z</time>
      </trkpt>
      <trkpt lat="43.83105" lon="4.19055">
        <ele>222.1</ele>
        <time>2026-05-09T09:17:59.999Z</time>
      </trkpt>
      <trkpt lat="43.83105" lon="4.19056">
        <ele>221.9</ele>
        <time>2026-05-09T09:18:00.999Z</time>
      </trkpt>
      <trkpt lat="43.83105" lon="4.19057">
        <ele>221.9</ele>
        <time>2026-05-09T09:18:01.999Z</time>
      </trkpt>
      <trkpt lat="43.83105" lon="4.19059">
        <ele>221.9</ele>
        <time>2026-05-09T09:18:02.999Z</time>
      </trkpt>
      <trkpt lat="43.83104" lon="4.1906">
        <ele>221.9</ele>
        <time>2026-05-09T09:18:03.999Z</time>
      </trkpt>
      <trkpt lat="43.83104" lon="4.19062">
        <ele>221.6</ele>
        <time>2026-05-09T09:18:04.999Z</time>
      </trkpt>
      <trkpt lat="43.83104" lon="4.19063">
        <ele>221.5</ele>
        <time>2026-05-09T09:18:05.999Z</time>
      </trkpt>
      <trkpt lat="43.83104" lon="4.19063">
        <ele>221.5</ele>
        <time>2026-05-09T09:18:06.999Z</time>
      </trkpt>
      <trkpt lat="43.83104" lon="4.19064">
        <ele>221.6</ele>
        <time>2026-05-09T09:18:07.999Z</time>
      </trkpt>
      <trkpt lat="43.83103" lon="4.19065">
        <ele>221.6</ele>
        <time>2026-05-09T09:18:08.999Z</time>
      </trkpt>
      <trkpt lat="43.83103" lon="4.19067">
        <ele>221.6</ele>
        <time>2026-05-09T09:18:09.999Z</time>
      </trkpt>
      <trkpt lat="43.83103" lon="4.19068">
        <ele>221.8</ele>
        <time>2026-05-09T09:18:10.999Z</time>
      </trkpt>
      <trkpt lat="43.83104" lon="4.1907">
        <ele>221.7</ele>
        <time>2026-05-09T09:18:11.999Z</time>
      </trkpt>
      <trkpt lat="43.83104" lon="4.19071">
        <ele>221.5</ele>
        <time>2026-05-09T09:18:12.999Z</time>
      </trkpt>
      <trkpt lat="43.83104" lon="4.19072">
        <ele>221.5</ele>
        <time>2026-05-09T09:18:13.999Z</time>
      </trkpt>
      <trkpt lat="43.83104" lon="4.19073">
        <ele>221.2</ele>
        <time>2026-05-09T09:18:14.999Z</time>
      </trkpt>
      <trkpt lat="43.83103" lon="4.19074">
        <ele>221</ele>
        <time>2026-05-09T09:18:15.999Z</time>
      </trkpt>
      <trkpt lat="43.83103" lon="4.19075">
        <ele>220.9</ele>
        <time>2026-05-09T09:18:16.999Z</time>
      </trkpt>
      <trkpt lat="43.83103" lon="4.19077">
        <ele>220.9</ele>
        <time>2026-05-09T09:18:17.999Z</time>
      </trkpt>
      <trkpt lat="43.83102" lon="4.19079">
        <ele>221</ele>
        <time>2026-05-09T09:18:18.999Z</time>
      </trkpt>
      <trkpt lat="43.83102" lon="4.1908">
        <ele>220.7</ele>
        <time>2026-05-09T09:18:20.000Z</time>
      </trkpt>
      <trkpt lat="43.83102" lon="4.19081">
        <ele>220.3</ele>
        <time>2026-05-09T09:18:21.000Z</time>
      </trkpt>
      <trkpt lat="43.83102" lon="4.19082">
        <ele>220.2</ele>
        <time>2026-05-09T09:18:22.000Z</time>
      </trkpt>
      <trkpt lat="43.83102" lon="4.19083">
        <ele>220.2</ele>
        <time>2026-05-09T09:18:23.000Z</time>
      </trkpt>
      <trkpt lat="43.83102" lon="4.19084">
        <ele>219.9</ele>
        <time>2026-05-09T09:18:24.000Z</time>
      </trkpt>
      <trkpt lat="43.83102" lon="4.19084">
        <ele>220</ele>
        <time>2026-05-09T09:18:25.000Z</time>
      </trkpt>
      <trkpt lat="43.83102" lon="4.19085">
        <ele>219.9</ele>
        <time>2026-05-09T09:18:26.000Z</time>
      </trkpt>
      <trkpt lat="43.83101" lon="4.19086">
        <ele>220</ele>
        <time>2026-05-09T09:18:27.000Z</time>
      </trkpt>
      <trkpt lat="43.83101" lon="4.19087">
        <ele>220</ele>
        <time>2026-05-09T09:18:28.000Z</time>
      </trkpt>
      <trkpt lat="43.83101" lon="4.19088">
        <ele>220.1</ele>
        <time>2026-05-09T09:18:29.000Z</time>
      </trkpt>
      <trkpt lat="43.83101" lon="4.19089">
        <ele>220.1</ele>
        <time>2026-05-09T09:18:30.000Z</time>
      </trkpt>
      <trkpt lat="43.83101" lon="4.19089">
        <ele>220.1</ele>
        <time>2026-05-09T09:18:31.000Z</time>
      </trkpt>
      <trkpt lat="43.83101" lon="4.19089">
        <ele>220</ele>
        <time>2026-05-09T09:18:32.000Z</time>
      </trkpt>
      <trkpt lat="43.83101" lon="4.19089">
        <ele>220.1</ele>
        <time>2026-05-09T09:18:33.000Z</time>
      </trkpt>
      <trkpt lat="43.83101" lon="4.1909">
        <ele>219.8</ele>
        <time>2026-05-09T09:18:34.000Z</time>
      </trkpt>
      <trkpt lat="43.831" lon="4.1909">
        <ele>219.6</ele>
        <time>2026-05-09T09:18:35.000Z</time>
      </trkpt>
      <trkpt lat="43.831" lon="4.19091">
        <ele>219.4</ele>
        <time>2026-05-09T09:18:36.000Z</time>
      </trkpt>
      <trkpt lat="43.831" lon="4.19092">
        <ele>219.2</ele>
        <time>2026-05-09T09:18:37.000Z</time>
      </trkpt>
      <trkpt lat="43.831" lon="4.19093">
        <ele>219.1</ele>
        <time>2026-05-09T09:18:38.000Z</time>
      </trkpt>
      <trkpt lat="43.831" lon="4.19093">
        <ele>218.9</ele>
        <time>2026-05-09T09:18:39.000Z</time>
      </trkpt>
      <trkpt lat="43.831" lon="4.19094">
        <ele>218.8</ele>
        <time>2026-05-09T09:18:40.000Z</time>
      </trkpt>
      <trkpt lat="43.831" lon="4.19094">
        <ele>218.5</ele>
        <time>2026-05-09T09:18:41.000Z</time>
      </trkpt>
      <trkpt lat="43.831" lon="4.19094">
        <ele>218.2</ele>
        <time>2026-05-09T09:18:42.000Z</time>
      </trkpt>
      <trkpt lat="43.83099" lon="4.19094">
        <ele>218</ele>
        <time>2026-05-09T09:18:43.000Z</time>
      </trkpt>
      <trkpt lat="43.83099" lon="4.19095">
        <ele>217.7</ele>
        <time>2026-05-09T09:18:44.000Z</time>
      </trkpt>
      <trkpt lat="43.83099" lon="4.19096">
        <ele>217.5</ele>
        <time>2026-05-09T09:18:45.000Z</time>
      </trkpt>
      <trkpt lat="43.83099" lon="4.19096">
        <ele>217.4</ele>
        <time>2026-05-09T09:18:46.000Z</time>
      </trkpt>
      <trkpt lat="43.83099" lon="4.19097">
        <ele>217.1</ele>
        <time>2026-05-09T09:18:47.000Z</time>
      </trkpt>
      <trkpt lat="43.83098" lon="4.19097">
        <ele>216.7</ele>
        <time>2026-05-09T09:18:48.000Z</time>
      </trkpt>
      <trkpt lat="43.83098" lon="4.19098">
        <ele>216.3</ele>
        <time>2026-05-09T09:18:49.000Z</time>
      </trkpt>
      <trkpt lat="43.83097" lon="4.19098">
        <ele>216</ele>
        <time>2026-05-09T09:18:50.000Z</time>
      </trkpt>
      <trkpt lat="43.83095" lon="4.19099">
        <ele>215.8</ele>
        <time>2026-05-09T09:18:51.000Z</time>
      </trkpt>
      <trkpt lat="43.83095" lon="4.191">
        <ele>215.6</ele>
        <time>2026-05-09T09:18:52.000Z</time>
      </trkpt>
      <trkpt lat="43.83094" lon="4.191">
        <ele>215.5</ele>
        <time>2026-05-09T09:18:53.000Z</time>
      </trkpt>
      <trkpt lat="43.83094" lon="4.191">
        <ele>215.3</ele>
        <time>2026-05-09T09:18:54.000Z</time>
      </trkpt>
      <trkpt lat="43.83093" lon="4.19101">
        <ele>215</ele>
        <time>2026-05-09T09:18:55.000Z</time>
      </trkpt>
      <trkpt lat="43.83092" lon="4.19101">
        <ele>214.8</ele>
        <time>2026-05-09T09:18:56.000Z</time>
      </trkpt>
      <trkpt lat="43.83092" lon="4.19102">
        <ele>214.3</ele>
        <time>2026-05-09T09:18:57.000Z</time>
      </trkpt>
      <trkpt lat="43.83091" lon="4.19101">
        <ele>214</ele>
        <time>2026-05-09T09:18:58.000Z</time>
      </trkpt>
      <trkpt lat="43.8309" lon="4.19101">
        <ele>214</ele>
        <time>2026-05-09T09:18:59.000Z</time>
      </trkpt>
      <trkpt lat="43.8309" lon="4.19101">
        <ele>213.8</ele>
        <time>2026-05-09T09:19:00.000Z</time>
      </trkpt>
      <trkpt lat="43.83089" lon="4.19102">
        <ele>213.7</ele>
        <time>2026-05-09T09:19:01.000Z</time>
      </trkpt>
      <trkpt lat="43.83089" lon="4.19104">
        <ele>213.5</ele>
        <time>2026-05-09T09:19:02.000Z</time>
      </trkpt>
      <trkpt lat="43.83088" lon="4.19104">
        <ele>213.5</ele>
        <time>2026-05-09T09:19:03.000Z</time>
      </trkpt>
      <trkpt lat="43.83089" lon="4.19105">
        <ele>213.5</ele>
        <time>2026-05-09T09:19:04.000Z</time>
      </trkpt>
      <trkpt lat="43.83089" lon="4.19106">
        <ele>213.5</ele>
        <time>2026-05-09T09:19:05.000Z</time>
      </trkpt>
      <trkpt lat="43.83089" lon="4.19106">
        <ele>213.3</ele>
        <time>2026-05-09T09:19:06.000Z</time>
      </trkpt>
      <trkpt lat="43.83089" lon="4.19106">
        <ele>213.3</ele>
        <time>2026-05-09T09:19:07.000Z</time>
      </trkpt>
      <trkpt lat="43.83089" lon="4.19107">
        <ele>213.2</ele>
        <time>2026-05-09T09:19:08.000Z</time>
      </trkpt>
      <trkpt lat="43.8309" lon="4.19107">
        <ele>213.1</ele>
        <time>2026-05-09T09:19:09.000Z</time>
      </trkpt>
      <trkpt lat="43.8309" lon="4.19108">
        <ele>212.7</ele>
        <time>2026-05-09T09:19:10.000Z</time>
      </trkpt>
      <trkpt lat="43.8309" lon="4.19108">
        <ele>212.5</ele>
        <time>2026-05-09T09:19:11.000Z</time>
      </trkpt>
      <trkpt lat="43.8309" lon="4.19108">
        <ele>212.4</ele>
        <time>2026-05-09T09:19:12.000Z</time>
      </trkpt>
      <trkpt lat="43.8309" lon="4.19108">
        <ele>212.4</ele>
        <time>2026-05-09T09:19:13.000Z</time>
      </trkpt>
      <trkpt lat="43.8309" lon="4.19108">
        <ele>212.2</ele>
        <time>2026-05-09T09:19:14.000Z</time>
      </trkpt>
      <trkpt lat="43.8309" lon="4.19108">
        <ele>212.1</ele>
        <time>2026-05-09T09:19:15.000Z</time>
      </trkpt>
      <trkpt lat="43.8309" lon="4.19108">
        <ele>211.9</ele>
        <time>2026-05-09T09:19:16.000Z</time>
      </trkpt>
      <trkpt lat="43.8309" lon="4.19108">
        <ele>211.7</ele>
        <time>2026-05-09T09:19:17.000Z</time>
      </trkpt>
      <trkpt lat="43.8309" lon="4.19108">
        <ele>211.5</ele>
        <time>2026-05-09T09:19:18.000Z</time>
      </trkpt>
      <trkpt lat="43.8309" lon="4.19108">
        <ele>211.5</ele>
        <time>2026-05-09T09:19:19.000Z</time>
      </trkpt>
      <trkpt lat="43.83091" lon="4.19108">
        <ele>211.6</ele>
        <time>2026-05-09T09:19:20.000Z</time>
      </trkpt>
      <trkpt lat="43.83091" lon="4.19108">
        <ele>211.5</ele>
        <time>2026-05-09T09:19:21.000Z</time>
      </trkpt>
      <trkpt lat="43.83091" lon="4.19108">
        <ele>211.6</ele>
        <time>2026-05-09T09:19:22.000Z</time>
      </trkpt>
      <trkpt lat="43.83091" lon="4.19109">
        <ele>211.5</ele>
        <time>2026-05-09T09:19:23.000Z</time>
      </trkpt>
      <trkpt lat="43.83091" lon="4.19109">
        <ele>211.3</ele>
        <time>2026-05-09T09:19:24.000Z</time>
      </trkpt>
      <trkpt lat="43.83092" lon="4.19109">
        <ele>211.3</ele>
        <time>2026-05-09T09:19:25.000Z</time>
      </trkpt>
      <trkpt lat="43.83092" lon="4.19109">
        <ele>211.2</ele>
        <time>2026-05-09T09:19:26.000Z</time>
      </trkpt>
      <trkpt lat="43.83093" lon="4.19109">
        <ele>211.4</ele>
        <time>2026-05-09T09:19:27.000Z</time>
      </trkpt>
      <trkpt lat="43.83094" lon="4.19109">
        <ele>211.4</ele>
        <time>2026-05-09T09:19:28.000Z</time>
      </trkpt>
      <trkpt lat="43.83095" lon="4.19109">
        <ele>211.3</ele>
        <time>2026-05-09T09:19:29.000Z</time>
      </trkpt>
      <trkpt lat="43.83095" lon="4.19109">
        <ele>211.5</ele>
        <time>2026-05-09T09:19:30.000Z</time>
      </trkpt>
      <trkpt lat="43.83095" lon="4.19109">
        <ele>211.5</ele>
        <time>2026-05-09T09:19:31.000Z</time>
      </trkpt>
      <trkpt lat="43.83095" lon="4.19109">
        <ele>211.6</ele>
        <time>2026-05-09T09:19:32.000Z</time>
      </trkpt>
      <trkpt lat="43.83095" lon="4.19109">
        <ele>211.8</ele>
        <time>2026-05-09T09:19:33.000Z</time>
      </trkpt>
      <trkpt lat="43.83095" lon="4.19109">
        <ele>211.9</ele>
        <time>2026-05-09T09:19:34.000Z</time>
      </trkpt>
      <trkpt lat="43.83095" lon="4.19109">
        <ele>212</ele>
        <time>2026-05-09T09:19:35.000Z</time>
      </trkpt>
      <trkpt lat="43.83095" lon="4.19109">
        <ele>212.1</ele>
        <time>2026-05-09T09:19:36.000Z</time>
      </trkpt>
      <trkpt lat="43.83095" lon="4.19109">
        <ele>212</ele>
        <time>2026-05-09T09:19:37.000Z</time>
      </trkpt>
      <trkpt lat="43.83096" lon="4.1911">
        <ele>211.9</ele>
        <time>2026-05-09T09:19:38.000Z</time>
      </trkpt>
      <trkpt lat="43.83098" lon="4.1911">
        <ele>211.8</ele>
        <time>2026-05-09T09:19:39.000Z</time>
      </trkpt>
      <trkpt lat="43.83099" lon="4.19111">
        <ele>211.8</ele>
        <time>2026-05-09T09:19:40.000Z</time>
      </trkpt>
      <trkpt lat="43.831" lon="4.1911">
        <ele>211.9</ele>
        <time>2026-05-09T09:19:41.000Z</time>
      </trkpt>
      <trkpt lat="43.83101" lon="4.1911">
        <ele>211.9</ele>
        <time>2026-05-09T09:19:42.000Z</time>
      </trkpt>
      <trkpt lat="43.83103" lon="4.1911">
        <ele>211.8</ele>
        <time>2026-05-09T09:19:43.000Z</time>
      </trkpt>
      <trkpt lat="43.83104" lon="4.19109">
        <ele>211.7</ele>
        <time>2026-05-09T09:19:44.000Z</time>
      </trkpt>
      <trkpt lat="43.83105" lon="4.19108">
        <ele>211.4</ele>
        <time>2026-05-09T09:19:45.000Z</time>
      </trkpt>
      <trkpt lat="43.83106" lon="4.19109">
        <ele>211.3</ele>
        <time>2026-05-09T09:19:46.000Z</time>
      </trkpt>
      <trkpt lat="43.83107" lon="4.19109">
        <ele>211.3</ele>
        <time>2026-05-09T09:19:47.000Z</time>
      </trkpt>
      <trkpt lat="43.83108" lon="4.19108">
        <ele>211.1</ele>
        <time>2026-05-09T09:19:48.000Z</time>
      </trkpt>
      <trkpt lat="43.8311" lon="4.19107">
        <ele>211.3</ele>
        <time>2026-05-09T09:19:49.000Z</time>
      </trkpt>
      <trkpt lat="43.83111" lon="4.19106">
        <ele>211.4</ele>
        <time>2026-05-09T09:19:50.000Z</time>
      </trkpt>
      <trkpt lat="43.83112" lon="4.19105">
        <ele>211.4</ele>
        <time>2026-05-09T09:19:51.000Z</time>
      </trkpt>
      <trkpt lat="43.83113" lon="4.19105">
        <ele>211.2</ele>
        <time>2026-05-09T09:19:52.000Z</time>
      </trkpt>
      <trkpt lat="43.83114" lon="4.19105">
        <ele>211.1</ele>
        <time>2026-05-09T09:19:53.000Z</time>
      </trkpt>
      <trkpt lat="43.83115" lon="4.19104">
        <ele>210.9</ele>
        <time>2026-05-09T09:19:54.000Z</time>
      </trkpt>
      <trkpt lat="43.83116" lon="4.19103">
        <ele>210.7</ele>
        <time>2026-05-09T09:19:55.000Z</time>
      </trkpt>
      <trkpt lat="43.83117" lon="4.19103">
        <ele>210.5</ele>
        <time>2026-05-09T09:19:56.000Z</time>
      </trkpt>
      <trkpt lat="43.83118" lon="4.19102">
        <ele>210.4</ele>
        <time>2026-05-09T09:19:57.000Z</time>
      </trkpt>
      <trkpt lat="43.83119" lon="4.19101">
        <ele>210.3</ele>
        <time>2026-05-09T09:19:58.000Z</time>
      </trkpt>
      <trkpt lat="43.8312" lon="4.19101">
        <ele>210.2</ele>
        <time>2026-05-09T09:19:59.000Z</time>
      </trkpt>
      <trkpt lat="43.83121" lon="4.19101">
        <ele>210.2</ele>
        <time>2026-05-09T09:20:00.000Z</time>
      </trkpt>
      <trkpt lat="43.83122" lon="4.191">
        <ele>210</ele>
        <time>2026-05-09T09:20:01.000Z</time>
      </trkpt>
      <trkpt lat="43.83123" lon="4.19099">
        <ele>209.9</ele>
        <time>2026-05-09T09:20:02.000Z</time>
      </trkpt>
      <trkpt lat="43.83124" lon="4.19098">
        <ele>209.8</ele>
        <time>2026-05-09T09:20:03.000Z</time>
      </trkpt>
      <trkpt lat="43.83125" lon="4.19097">
        <ele>209.8</ele>
        <time>2026-05-09T09:20:04.000Z</time>
      </trkpt>
      <trkpt lat="43.83126" lon="4.19095">
        <ele>209.8</ele>
        <time>2026-05-09T09:20:05.000Z</time>
      </trkpt>
      <trkpt lat="43.83127" lon="4.19095">
        <ele>209.5</ele>
        <time>2026-05-09T09:20:06.000Z</time>
      </trkpt>
      <trkpt lat="43.83128" lon="4.19094">
        <ele>209.3</ele>
        <time>2026-05-09T09:20:07.000Z</time>
      </trkpt>
      <trkpt lat="43.8313" lon="4.19095">
        <ele>208.9</ele>
        <time>2026-05-09T09:20:08.000Z</time>
      </trkpt>
      <trkpt lat="43.83131" lon="4.19094">
        <ele>208.7</ele>
        <time>2026-05-09T09:20:09.000Z</time>
      </trkpt>
      <trkpt lat="43.83132" lon="4.19093">
        <ele>208.4</ele>
        <time>2026-05-09T09:20:10.000Z</time>
      </trkpt>
      <trkpt lat="43.83133" lon="4.19091">
        <ele>208.3</ele>
        <time>2026-05-09T09:20:11.000Z</time>
      </trkpt>
      <trkpt lat="43.83134" lon="4.1909">
        <ele>208</ele>
        <time>2026-05-09T09:20:12.000Z</time>
      </trkpt>
      <trkpt lat="43.83135" lon="4.19089">
        <ele>207.8</ele>
        <time>2026-05-09T09:20:13.000Z</time>
      </trkpt>
      <trkpt lat="43.83135" lon="4.19088">
        <ele>207.5</ele>
        <time>2026-05-09T09:20:14.000Z</time>
      </trkpt>
      <trkpt lat="43.83136" lon="4.19087">
        <ele>207.4</ele>
        <time>2026-05-09T09:20:15.000Z</time>
      </trkpt>
      <trkpt lat="43.83137" lon="4.19086">
        <ele>207.1</ele>
        <time>2026-05-09T09:20:16.000Z</time>
      </trkpt>
      <trkpt lat="43.83137" lon="4.19085">
        <ele>207</ele>
        <time>2026-05-09T09:20:17.000Z</time>
      </trkpt>
      <trkpt lat="43.83138" lon="4.19085">
        <ele>206.5</ele>
        <time>2026-05-09T09:20:18.000Z</time>
      </trkpt>
      <trkpt lat="43.83139" lon="4.19085">
        <ele>206.6</ele>
        <time>2026-05-09T09:20:19.000Z</time>
      </trkpt>
      <trkpt lat="43.83139" lon="4.19084">
        <ele>206.7</ele>
        <time>2026-05-09T09:20:20.000Z</time>
      </trkpt>
      <trkpt lat="43.8314" lon="4.19084">
        <ele>206.5</ele>
        <time>2026-05-09T09:20:21.000Z</time>
      </trkpt>
      <trkpt lat="43.83141" lon="4.19083">
        <ele>206.2</ele>
        <time>2026-05-09T09:20:22.000Z</time>
      </trkpt>
      <trkpt lat="43.83142" lon="4.19082">
        <ele>206.1</ele>
        <time>2026-05-09T09:20:23.000Z</time>
      </trkpt>
      <trkpt lat="43.83143" lon="4.1908">
        <ele>205.9</ele>
        <time>2026-05-09T09:20:24.000Z</time>
      </trkpt>
      <trkpt lat="43.83144" lon="4.19079">
        <ele>205.7</ele>
        <time>2026-05-09T09:20:25.000Z</time>
      </trkpt>
      <trkpt lat="43.83144" lon="4.19077">
        <ele>205.7</ele>
        <time>2026-05-09T09:20:26.000Z</time>
      </trkpt>
      <trkpt lat="43.83145" lon="4.19076">
        <ele>206</ele>
        <time>2026-05-09T09:20:27.000Z</time>
      </trkpt>
      <trkpt lat="43.83146" lon="4.19075">
        <ele>206.2</ele>
        <time>2026-05-09T09:20:28.000Z</time>
      </trkpt>
      <trkpt lat="43.83146" lon="4.19074">
        <ele>206.4</ele>
        <time>2026-05-09T09:20:29.000Z</time>
      </trkpt>
      <trkpt lat="43.83146" lon="4.19073">
        <ele>206.6</ele>
        <time>2026-05-09T09:20:30.000Z</time>
      </trkpt>
      <trkpt lat="43.83146" lon="4.19072">
        <ele>206.8</ele>
        <time>2026-05-09T09:20:31.000Z</time>
      </trkpt>
      <trkpt lat="43.83146" lon="4.19071">
        <ele>206.7</ele>
        <time>2026-05-09T09:20:32.000Z</time>
      </trkpt>
      <trkpt lat="43.83147" lon="4.1907">
        <ele>206.7</ele>
        <time>2026-05-09T09:20:33.000Z</time>
      </trkpt>
      <trkpt lat="43.83148" lon="4.19069">
        <ele>206.8</ele>
        <time>2026-05-09T09:20:34.000Z</time>
      </trkpt>
      <trkpt lat="43.83148" lon="4.19068">
        <ele>206.9</ele>
        <time>2026-05-09T09:20:35.000Z</time>
      </trkpt>
      <trkpt lat="43.83149" lon="4.19067">
        <ele>207</ele>
        <time>2026-05-09T09:20:36.000Z</time>
      </trkpt>
      <trkpt lat="43.83149" lon="4.19066">
        <ele>207</ele>
        <time>2026-05-09T09:20:37.000Z</time>
      </trkpt>
      <trkpt lat="43.8315" lon="4.19065">
        <ele>207.2</ele>
        <time>2026-05-09T09:20:38.000Z</time>
      </trkpt>
      <trkpt lat="43.8315" lon="4.19064">
        <ele>207.4</ele>
        <time>2026-05-09T09:20:39.000Z</time>
      </trkpt>
      <trkpt lat="43.83151" lon="4.19064">
        <ele>207.6</ele>
        <time>2026-05-09T09:20:40.000Z</time>
      </trkpt>
      <trkpt lat="43.83152" lon="4.19063">
        <ele>207.6</ele>
        <time>2026-05-09T09:20:41.000Z</time>
      </trkpt>
      <trkpt lat="43.83152" lon="4.19062">
        <ele>207.6</ele>
        <time>2026-05-09T09:20:42.000Z</time>
      </trkpt>
      <trkpt lat="43.83153" lon="4.19061">
        <ele>207.6</ele>
        <time>2026-05-09T09:20:43.000Z</time>
      </trkpt>
      <trkpt lat="43.83153" lon="4.1906">
        <ele>207.7</ele>
        <time>2026-05-09T09:20:44.000Z</time>
      </trkpt>
      <trkpt lat="43.83154" lon="4.19059">
        <ele>207.7</ele>
        <time>2026-05-09T09:20:45.000Z</time>
      </trkpt>
      <trkpt lat="43.83155" lon="4.19059">
        <ele>207.7</ele>
        <time>2026-05-09T09:20:46.000Z</time>
      </trkpt>
      <trkpt lat="43.83156" lon="4.19058">
        <ele>208.1</ele>
        <time>2026-05-09T09:20:47.000Z</time>
      </trkpt>
      <trkpt lat="43.83156" lon="4.19057">
        <ele>208.1</ele>
        <time>2026-05-09T09:20:48.000Z</time>
      </trkpt>
      <trkpt lat="43.83157" lon="4.19056">
        <ele>208.1</ele>
        <time>2026-05-09T09:20:49.000Z</time>
      </trkpt>
      <trkpt lat="43.83158" lon="4.19056">
        <ele>208.3</ele>
        <time>2026-05-09T09:20:50.000Z</time>
      </trkpt>
      <trkpt lat="43.8316" lon="4.19055">
        <ele>208.6</ele>
        <time>2026-05-09T09:20:51.000Z</time>
      </trkpt>
      <trkpt lat="43.83161" lon="4.19055">
        <ele>209</ele>
        <time>2026-05-09T09:20:52.000Z</time>
      </trkpt>
      <trkpt lat="43.83162" lon="4.19055">
        <ele>209.3</ele>
        <time>2026-05-09T09:20:53.000Z</time>
      </trkpt>
      <trkpt lat="43.83162" lon="4.19055">
        <ele>209.4</ele>
        <time>2026-05-09T09:20:54.000Z</time>
      </trkpt>
      <trkpt lat="43.83162" lon="4.19055">
        <ele>209.5</ele>
        <time>2026-05-09T09:20:55.000Z</time>
      </trkpt>
      <trkpt lat="43.83163" lon="4.19055">
        <ele>209.6</ele>
        <time>2026-05-09T09:20:56.000Z</time>
      </trkpt>
      <trkpt lat="43.83164" lon="4.19055">
        <ele>209.4</ele>
        <time>2026-05-09T09:20:57.000Z</time>
      </trkpt>
      <trkpt lat="43.83165" lon="4.19056">
        <ele>209.3</ele>
        <time>2026-05-09T09:20:58.000Z</time>
      </trkpt>
      <trkpt lat="43.83165" lon="4.19055">
        <ele>209.2</ele>
        <time>2026-05-09T09:20:59.000Z</time>
      </trkpt>
      <trkpt lat="43.83166" lon="4.19055">
        <ele>209.2</ele>
        <time>2026-05-09T09:21:00.000Z</time>
      </trkpt>
      <trkpt lat="43.83167" lon="4.19054">
        <ele>209.5</ele>
        <time>2026-05-09T09:21:01.000Z</time>
      </trkpt>
      <trkpt lat="43.83168" lon="4.19054">
        <ele>209.6</ele>
        <time>2026-05-09T09:21:02.000Z</time>
      </trkpt>
      <trkpt lat="43.83168" lon="4.19055">
        <ele>209.6</ele>
        <time>2026-05-09T09:21:03.000Z</time>
      </trkpt>
      <trkpt lat="43.83169" lon="4.19055">
        <ele>209.7</ele>
        <time>2026-05-09T09:21:04.000Z</time>
      </trkpt>
      <trkpt lat="43.83169" lon="4.19055">
        <ele>209.6</ele>
        <time>2026-05-09T09:21:05.000Z</time>
      </trkpt>
      <trkpt lat="43.8317" lon="4.19055">
        <ele>209.5</ele>
        <time>2026-05-09T09:21:06.000Z</time>
      </trkpt>
      <trkpt lat="43.83171" lon="4.19055">
        <ele>209.5</ele>
        <time>2026-05-09T09:21:07.000Z</time>
      </trkpt>
      <trkpt lat="43.83172" lon="4.19055">
        <ele>209.3</ele>
        <time>2026-05-09T09:21:08.000Z</time>
      </trkpt>
      <trkpt lat="43.83172" lon="4.19054">
        <ele>209.1</ele>
        <time>2026-05-09T09:21:09.000Z</time>
      </trkpt>
      <trkpt lat="43.83173" lon="4.19054">
        <ele>209.1</ele>
        <time>2026-05-09T09:21:10.000Z</time>
      </trkpt>
      <trkpt lat="43.83174" lon="4.19054">
        <ele>209.3</ele>
        <time>2026-05-09T09:21:11.000Z</time>
      </trkpt>
      <trkpt lat="43.83175" lon="4.19054">
        <ele>209.6</ele>
        <time>2026-05-09T09:21:12.000Z</time>
      </trkpt>
      <trkpt lat="43.83177" lon="4.19055">
        <ele>209.5</ele>
        <time>2026-05-09T09:21:13.000Z</time>
      </trkpt>
      <trkpt lat="43.83177" lon="4.19054">
        <ele>209.3</ele>
        <time>2026-05-09T09:21:14.000Z</time>
      </trkpt>
      <trkpt lat="43.83178" lon="4.19054">
        <ele>209</ele>
        <time>2026-05-09T09:21:15.000Z</time>
      </trkpt>
      <trkpt lat="43.83179" lon="4.19054">
        <ele>208.8</ele>
        <time>2026-05-09T09:21:16.000Z</time>
      </trkpt>
      <trkpt lat="43.8318" lon="4.19054">
        <ele>208.6</ele>
        <time>2026-05-09T09:21:17.000Z</time>
      </trkpt>
      <trkpt lat="43.83181" lon="4.19055">
        <ele>208.5</ele>
        <time>2026-05-09T09:21:18.000Z</time>
      </trkpt>
      <trkpt lat="43.83182" lon="4.19054">
        <ele>208.1</ele>
        <time>2026-05-09T09:21:19.000Z</time>
      </trkpt>
      <trkpt lat="43.83182" lon="4.19054">
        <ele>208.1</ele>
        <time>2026-05-09T09:21:20.000Z</time>
      </trkpt>
      <trkpt lat="43.83183" lon="4.19053">
        <ele>207.9</ele>
        <time>2026-05-09T09:21:21.000Z</time>
      </trkpt>
      <trkpt lat="43.83185" lon="4.19053">
        <ele>208.1</ele>
        <time>2026-05-09T09:21:22.000Z</time>
      </trkpt>
      <trkpt lat="43.83186" lon="4.19052">
        <ele>207.8</ele>
        <time>2026-05-09T09:21:23.000Z</time>
      </trkpt>
      <trkpt lat="43.83187" lon="4.19052">
        <ele>207.5</ele>
        <time>2026-05-09T09:21:24.000Z</time>
      </trkpt>
      <trkpt lat="43.83188" lon="4.19052">
        <ele>207.6</ele>
        <time>2026-05-09T09:21:25.000Z</time>
      </trkpt>
      <trkpt lat="43.83188" lon="4.19052">
        <ele>207.4</ele>
        <time>2026-05-09T09:21:26.000Z</time>
      </trkpt>
      <trkpt lat="43.83189" lon="4.19052">
        <ele>207</ele>
        <time>2026-05-09T09:21:27.000Z</time>
      </trkpt>
      <trkpt lat="43.83189" lon="4.19051">
        <ele>206.8</ele>
        <time>2026-05-09T09:21:28.000Z</time>
      </trkpt>
      <trkpt lat="43.8319" lon="4.19051">
        <ele>206.5</ele>
        <time>2026-05-09T09:21:29.000Z</time>
      </trkpt>
      <trkpt lat="43.83191" lon="4.19051">
        <ele>206.2</ele>
        <time>2026-05-09T09:21:30.000Z</time>
      </trkpt>
      <trkpt lat="43.83191" lon="4.1905">
        <ele>206</ele>
        <time>2026-05-09T09:21:31.000Z</time>
      </trkpt>
      <trkpt lat="43.83192" lon="4.19051">
        <ele>205.9</ele>
        <time>2026-05-09T09:21:32.000Z</time>
      </trkpt>
      <trkpt lat="43.83193" lon="4.1905">
        <ele>205.7</ele>
        <time>2026-05-09T09:21:33.000Z</time>
      </trkpt>
      <trkpt lat="43.83194" lon="4.1905">
        <ele>205.5</ele>
        <time>2026-05-09T09:21:34.000Z</time>
      </trkpt>
      <trkpt lat="43.83195" lon="4.1905">
        <ele>205.1</ele>
        <time>2026-05-09T09:21:35.000Z</time>
      </trkpt>
      <trkpt lat="43.83195" lon="4.1905">
        <ele>204.7</ele>
        <time>2026-05-09T09:21:36.000Z</time>
      </trkpt>
      <trkpt lat="43.83196" lon="4.19049">
        <ele>204.7</ele>
        <time>2026-05-09T09:21:37.000Z</time>
      </trkpt>
      <trkpt lat="43.83197" lon="4.19049">
        <ele>204.6</ele>
        <time>2026-05-09T09:21:38.000Z</time>
      </trkpt>
      <trkpt lat="43.83197" lon="4.19047">
        <ele>204.2</ele>
        <time>2026-05-09T09:21:39.000Z</time>
      </trkpt>
      <trkpt lat="43.83198" lon="4.19046">
        <ele>204.1</ele>
        <time>2026-05-09T09:21:40.000Z</time>
      </trkpt>
      <trkpt lat="43.83199" lon="4.19045">
        <ele>204.2</ele>
        <time>2026-05-09T09:21:41.000Z</time>
      </trkpt>
      <trkpt lat="43.832" lon="4.19045">
        <ele>204.1</ele>
        <time>2026-05-09T09:21:42.000Z</time>
      </trkpt>
      <trkpt lat="43.83201" lon="4.19044">
        <ele>203.8</ele>
        <time>2026-05-09T09:21:43.000Z</time>
      </trkpt>
      <trkpt lat="43.83202" lon="4.19043">
        <ele>203.7</ele>
        <time>2026-05-09T09:21:44.000Z</time>
      </trkpt>
      <trkpt lat="43.83202" lon="4.19043">
        <ele>203.7</ele>
        <time>2026-05-09T09:21:45.000Z</time>
      </trkpt>
      <trkpt lat="43.83202" lon="4.19044">
        <ele>203.6</ele>
        <time>2026-05-09T09:21:46.000Z</time>
      </trkpt>
      <trkpt lat="43.83203" lon="4.19043">
        <ele>203.6</ele>
        <time>2026-05-09T09:21:47.000Z</time>
      </trkpt>
      <trkpt lat="43.83203" lon="4.19043">
        <ele>203.5</ele>
        <time>2026-05-09T09:21:48.000Z</time>
      </trkpt>
      <trkpt lat="43.83204" lon="4.19042">
        <ele>203.2</ele>
        <time>2026-05-09T09:21:49.000Z</time>
      </trkpt>
      <trkpt lat="43.83205" lon="4.19042">
        <ele>203.1</ele>
        <time>2026-05-09T09:21:50.000Z</time>
      </trkpt>
      <trkpt lat="43.83206" lon="4.19042">
        <ele>202.8</ele>
        <time>2026-05-09T09:21:51.000Z</time>
      </trkpt>
      <trkpt lat="43.83207" lon="4.19041">
        <ele>202.6</ele>
        <time>2026-05-09T09:21:52.000Z</time>
      </trkpt>
      <trkpt lat="43.83207" lon="4.1904">
        <ele>202.5</ele>
        <time>2026-05-09T09:21:53.000Z</time>
      </trkpt>
      <trkpt lat="43.83207" lon="4.1904">
        <ele>202.5</ele>
        <time>2026-05-09T09:21:54.000Z</time>
      </trkpt>
      <trkpt lat="43.83208" lon="4.1904">
        <ele>202.6</ele>
        <time>2026-05-09T09:21:55.000Z</time>
      </trkpt>
      <trkpt lat="43.83208" lon="4.19039">
        <ele>202.8</ele>
        <time>2026-05-09T09:21:56.000Z</time>
      </trkpt>
      <trkpt lat="43.83208" lon="4.19039">
        <ele>202.9</ele>
        <time>2026-05-09T09:21:57.000Z</time>
      </trkpt>
      <trkpt lat="43.83208" lon="4.19039">
        <ele>202.9</ele>
        <time>2026-05-09T09:21:58.000Z</time>
      </trkpt>
      <trkpt lat="43.83209" lon="4.19038">
        <ele>203</ele>
        <time>2026-05-09T09:21:59.000Z</time>
      </trkpt>
      <trkpt lat="43.83209" lon="4.19039">
        <ele>202.8</ele>
        <time>2026-05-09T09:22:00.000Z</time>
      </trkpt>
      <trkpt lat="43.83209" lon="4.19039">
        <ele>202.6</ele>
        <time>2026-05-09T09:22:01.000Z</time>
      </trkpt>
      <trkpt lat="43.83209" lon="4.19039">
        <ele>202.4</ele>
        <time>2026-05-09T09:22:02.000Z</time>
      </trkpt>
      <trkpt lat="43.83209" lon="4.19039">
        <ele>202.1</ele>
        <time>2026-05-09T09:22:03.000Z</time>
      </trkpt>
      <trkpt lat="43.83209" lon="4.19039">
        <ele>201.6</ele>
        <time>2026-05-09T09:22:04.000Z</time>
      </trkpt>
      <trkpt lat="43.83209" lon="4.19039">
        <ele>201.4</ele>
        <time>2026-05-09T09:22:05.000Z</time>
      </trkpt>
      <trkpt lat="43.8321" lon="4.19039">
        <ele>201.1</ele>
        <time>2026-05-09T09:22:06.000Z</time>
      </trkpt>
      <trkpt lat="43.8321" lon="4.19039">
        <ele>201</ele>
        <time>2026-05-09T09:22:07.000Z</time>
      </trkpt>
      <trkpt lat="43.8321" lon="4.19038">
        <ele>200.7</ele>
        <time>2026-05-09T09:22:08.000Z</time>
      </trkpt>
      <trkpt lat="43.8321" lon="4.19039">
        <ele>200.4</ele>
        <time>2026-05-09T09:22:09.000Z</time>
      </trkpt>
      <trkpt lat="43.8321" lon="4.19039">
        <ele>200.2</ele>
        <time>2026-05-09T09:22:10.000Z</time>
      </trkpt>
      <trkpt lat="43.8321" lon="4.19039">
        <ele>199.9</ele>
        <time>2026-05-09T09:22:11.000Z</time>
      </trkpt>
      <trkpt lat="43.8321" lon="4.19039">
        <ele>199.5</ele>
        <time>2026-05-09T09:22:12.000Z</time>
      </trkpt>
      <trkpt lat="43.8321" lon="4.19039">
        <ele>199.1</ele>
        <time>2026-05-09T09:22:13.000Z</time>
      </trkpt>
      <trkpt lat="43.8321" lon="4.19039">
        <ele>198.8</ele>
        <time>2026-05-09T09:22:14.000Z</time>
      </trkpt>
      <trkpt lat="43.83211" lon="4.19039">
        <ele>198.7</ele>
        <time>2026-05-09T09:22:15.000Z</time>
      </trkpt>
      <trkpt lat="43.83211" lon="4.19039">
        <ele>198.6</ele>
        <time>2026-05-09T09:22:16.000Z</time>
      </trkpt>
      <trkpt lat="43.83211" lon="4.19039">
        <ele>198.5</ele>
        <time>2026-05-09T09:22:17.000Z</time>
      </trkpt>
      <trkpt lat="43.83211" lon="4.19039">
        <ele>198.6</ele>
        <time>2026-05-09T09:22:18.000Z</time>
      </trkpt>
      <trkpt lat="43.83211" lon="4.19039">
        <ele>198.3</ele>
        <time>2026-05-09T09:22:19.000Z</time>
      </trkpt>
      <trkpt lat="43.83211" lon="4.19039">
        <ele>198.1</ele>
        <time>2026-05-09T09:22:20.000Z</time>
      </trkpt>
      <trkpt lat="43.83212" lon="4.1904">
        <ele>198</ele>
        <time>2026-05-09T09:22:21.000Z</time>
      </trkpt>
      <trkpt lat="43.83213" lon="4.19041">
        <ele>197.8</ele>
        <time>2026-05-09T09:22:22.000Z</time>
      </trkpt>
      <trkpt lat="43.83213" lon="4.19041">
        <ele>197.6</ele>
        <time>2026-05-09T09:22:23.000Z</time>
      </trkpt>
      <trkpt lat="43.83214" lon="4.19042">
        <ele>197.6</ele>
        <time>2026-05-09T09:22:24.000Z</time>
      </trkpt>
      <trkpt lat="43.83215" lon="4.19044">
        <ele>197.6</ele>
        <time>2026-05-09T09:22:25.000Z</time>
      </trkpt>
      <trkpt lat="43.83215" lon="4.19044">
        <ele>197.6</ele>
        <time>2026-05-09T09:22:26.000Z</time>
      </trkpt>
      <trkpt lat="43.83216" lon="4.19045">
        <ele>197.3</ele>
        <time>2026-05-09T09:22:27.000Z</time>
      </trkpt>
      <trkpt lat="43.83216" lon="4.19046">
        <ele>197.2</ele>
        <time>2026-05-09T09:22:28.000Z</time>
      </trkpt>
      <trkpt lat="43.83217" lon="4.19047">
        <ele>196.9</ele>
        <time>2026-05-09T09:22:29.000Z</time>
      </trkpt>
      <trkpt lat="43.83218" lon="4.19048">
        <ele>196.6</ele>
        <time>2026-05-09T09:22:30.000Z</time>
      </trkpt>
      <trkpt lat="43.83219" lon="4.19049">
        <ele>196.5</ele>
        <time>2026-05-09T09:22:31.000Z</time>
      </trkpt>
      <trkpt lat="43.83219" lon="4.19049">
        <ele>196.3</ele>
        <time>2026-05-09T09:22:32.000Z</time>
      </trkpt>
      <trkpt lat="43.83219" lon="4.1905">
        <ele>196</ele>
        <time>2026-05-09T09:22:33.000Z</time>
      </trkpt>
      <trkpt lat="43.83219" lon="4.1905">
        <ele>195.9</ele>
        <time>2026-05-09T09:22:34.000Z</time>
      </trkpt>
      <trkpt lat="43.83219" lon="4.1905">
        <ele>195.9</ele>
        <time>2026-05-09T09:22:35.000Z</time>
      </trkpt>
      <trkpt lat="43.83219" lon="4.1905">
        <ele>195.9</ele>
        <time>2026-05-09T09:22:36.000Z</time>
      </trkpt>
      <trkpt lat="43.83219" lon="4.19051">
        <ele>195.9</ele>
        <time>2026-05-09T09:22:37.000Z</time>
      </trkpt>
      <trkpt lat="43.83219" lon="4.19051">
        <ele>195.6</ele>
        <time>2026-05-09T09:22:38.000Z</time>
      </trkpt>
      <trkpt lat="43.83219" lon="4.19051">
        <ele>195.6</ele>
        <time>2026-05-09T09:22:39.000Z</time>
      </trkpt>
      <trkpt lat="43.83219" lon="4.19051">
        <ele>195.5</ele>
        <time>2026-05-09T09:22:40.000Z</time>
      </trkpt>
      <trkpt lat="43.83219" lon="4.19051">
        <ele>195.6</ele>
        <time>2026-05-09T09:22:41.000Z</time>
      </trkpt>
      <trkpt lat="43.83219" lon="4.19052">
        <ele>195.3</ele>
        <time>2026-05-09T09:22:42.000Z</time>
      </trkpt>
      <trkpt lat="43.83219" lon="4.19052">
        <ele>195.3</ele>
        <time>2026-05-09T09:22:43.000Z</time>
      </trkpt>
      <trkpt lat="43.83218" lon="4.19054">
        <ele>195.3</ele>
        <time>2026-05-09T09:22:44.000Z</time>
      </trkpt>
      <trkpt lat="43.83218" lon="4.19056">
        <ele>195.4</ele>
        <time>2026-05-09T09:22:45.000Z</time>
      </trkpt>
      <trkpt lat="43.83218" lon="4.19058">
        <ele>195</ele>
        <time>2026-05-09T09:22:46.000Z</time>
      </trkpt>
      <trkpt lat="43.83217" lon="4.19059">
        <ele>194.5</ele>
        <time>2026-05-09T09:22:47.000Z</time>
      </trkpt>
      <trkpt lat="43.83217" lon="4.19059">
        <ele>194.2</ele>
        <time>2026-05-09T09:22:48.000Z</time>
      </trkpt>
      <trkpt lat="43.83218" lon="4.19059">
        <ele>194.1</ele>
        <time>2026-05-09T09:22:49.000Z</time>
      </trkpt>
      <trkpt lat="43.83218" lon="4.19059">
        <ele>194.1</ele>
        <time>2026-05-09T09:22:50.000Z</time>
      </trkpt>
      <trkpt lat="43.83218" lon="4.19059">
        <ele>194.1</ele>
        <time>2026-05-09T09:22:51.000Z</time>
      </trkpt>
      <trkpt lat="43.83217" lon="4.19059">
        <ele>194.1</ele>
        <time>2026-05-09T09:22:52.000Z</time>
      </trkpt>
      <trkpt lat="43.83218" lon="4.19059">
        <ele>194.1</ele>
        <time>2026-05-09T09:22:53.000Z</time>
      </trkpt>
      <trkpt lat="43.83218" lon="4.19057">
        <ele>193.9</ele>
        <time>2026-05-09T09:22:54.000Z</time>
      </trkpt>
      <trkpt lat="43.83219" lon="4.19055">
        <ele>193.3</ele>
        <time>2026-05-09T09:22:55.000Z</time>
      </trkpt>
      <trkpt lat="43.83219" lon="4.19053">
        <ele>193</ele>
        <time>2026-05-09T09:22:56.000Z</time>
      </trkpt>
      <trkpt lat="43.8322" lon="4.19051">
        <ele>192.9</ele>
        <time>2026-05-09T09:22:57.000Z</time>
      </trkpt>
      <trkpt lat="43.8322" lon="4.1905">
        <ele>192.6</ele>
        <time>2026-05-09T09:22:58.000Z</time>
      </trkpt>
      <trkpt lat="43.83221" lon="4.19049">
        <ele>192.3</ele>
        <time>2026-05-09T09:22:59.000Z</time>
      </trkpt>
      <trkpt lat="43.83221" lon="4.1905">
        <ele>192.2</ele>
        <time>2026-05-09T09:23:00.000Z</time>
      </trkpt>
      <trkpt lat="43.83221" lon="4.1905">
        <ele>192.4</ele>
        <time>2026-05-09T09:23:01.000Z</time>
      </trkpt>
      <trkpt lat="43.83221" lon="4.19051">
        <ele>192.2</ele>
        <time>2026-05-09T09:23:02.000Z</time>
      </trkpt>
      <trkpt lat="43.83222" lon="4.19051">
        <ele>191.8</ele>
        <time>2026-05-09T09:23:03.000Z</time>
      </trkpt>
      <trkpt lat="43.83223" lon="4.1905">
        <ele>191.6</ele>
        <time>2026-05-09T09:23:04.000Z</time>
      </trkpt>
      <trkpt lat="43.83224" lon="4.1905">
        <ele>191.7</ele>
        <time>2026-05-09T09:23:05.000Z</time>
      </trkpt>
      <trkpt lat="43.83224" lon="4.1905">
        <ele>190.9</ele>
        <time>2026-05-09T09:23:07.000Z</time>
      </trkpt>
      <trkpt lat="43.83224" lon="4.1905">
        <ele>191</ele>
        <time>2026-05-09T09:23:08.000Z</time>
      </trkpt>
      <trkpt lat="43.83224" lon="4.1905">
        <ele>190.6</ele>
        <time>2026-05-09T09:23:09.000Z</time>
      </trkpt>
      <trkpt lat="43.83224" lon="4.1905">
        <ele>190.5</ele>
        <time>2026-05-09T09:23:10.000Z</time>
      </trkpt>
      <trkpt lat="43.83224" lon="4.1905">
        <ele>190.8</ele>
        <time>2026-05-09T09:23:11.000Z</time>
      </trkpt>
      <trkpt lat="43.83224" lon="4.1905">
        <ele>191</ele>
        <time>2026-05-09T09:23:12.000Z</time>
      </trkpt>
      <trkpt lat="43.83225" lon="4.1905">
        <ele>191.2</ele>
        <time>2026-05-09T09:23:13.000Z</time>
      </trkpt>
      <trkpt lat="43.83225" lon="4.1905">
        <ele>191</ele>
        <time>2026-05-09T09:23:14.000Z</time>
      </trkpt>
      <trkpt lat="43.83224" lon="4.1905">
        <ele>190.9</ele>
        <time>2026-05-09T09:23:15.000Z</time>
      </trkpt>
      <trkpt lat="43.83224" lon="4.1905">
        <ele>191</ele>
        <time>2026-05-09T09:23:16.000Z</time>
      </trkpt>
      <trkpt lat="43.83225" lon="4.1905">
        <ele>191</ele>
        <time>2026-05-09T09:23:17.000Z</time>
      </trkpt>
      <trkpt lat="43.83225" lon="4.1905">
        <ele>190.9</ele>
        <time>2026-05-09T09:23:18.000Z</time>
      </trkpt>
      <trkpt lat="43.83225" lon="4.1905">
        <ele>190.8</ele>
        <time>2026-05-09T09:23:19.000Z</time>
      </trkpt>
      <trkpt lat="43.83224" lon="4.1905">
        <ele>190.8</ele>
        <time>2026-05-09T09:23:20.000Z</time>
      </trkpt>
      <trkpt lat="43.83224" lon="4.1905">
        <ele>190.9</ele>
        <time>2026-05-09T09:23:21.000Z</time>
      </trkpt>
      <trkpt lat="43.83224" lon="4.1905">
        <ele>190.7</ele>
        <time>2026-05-09T09:23:22.000Z</time>
      </trkpt>
      <trkpt lat="43.83224" lon="4.1905">
        <ele>190.5</ele>
        <time>2026-05-09T09:23:23.000Z</time>
      </trkpt>
      <trkpt lat="43.83224" lon="4.1905">
        <ele>190.3</ele>
        <time>2026-05-09T09:23:24.000Z</time>
      </trkpt>
      <trkpt lat="43.83224" lon="4.1905">
        <ele>190.5</ele>
        <time>2026-05-09T09:23:25.000Z</time>
      </trkpt>
      <trkpt lat="43.83224" lon="4.1905">
        <ele>190.6</ele>
        <time>2026-05-09T09:23:26.000Z</time>
      </trkpt>
      <trkpt lat="43.83224" lon="4.1905">
        <ele>190.5</ele>
        <time>2026-05-09T09:23:27.000Z</time>
      </trkpt>
      <trkpt lat="43.83224" lon="4.1905">
        <ele>190.2</ele>
        <time>2026-05-09T09:23:28.000Z</time>
      </trkpt>
      <trkpt lat="43.83224" lon="4.1905">
        <ele>190.1</ele>
        <time>2026-05-09T09:23:29.000Z</time>
      </trkpt>
      <trkpt lat="43.83224" lon="4.1905">
        <ele>190.2</ele>
        <time>2026-05-09T09:23:30.000Z</time>
      </trkpt>
      <trkpt lat="43.83224" lon="4.1905">
        <ele>189.9</ele>
        <time>2026-05-09T09:23:31.000Z</time>
      </trkpt>
      <trkpt lat="43.83224" lon="4.1905">
        <ele>189.9</ele>
        <time>2026-05-09T09:23:32.000Z</time>
      </trkpt>
      <trkpt lat="43.83224" lon="4.1905">
        <ele>189.8</ele>
        <time>2026-05-09T09:23:33.000Z</time>
      </trkpt>
      <trkpt lat="43.83225" lon="4.1905">
        <ele>189.9</ele>
        <time>2026-05-09T09:23:34.000Z</time>
      </trkpt>
      <trkpt lat="43.83225" lon="4.1905">
        <ele>189.9</ele>
        <time>2026-05-09T09:23:35.000Z</time>
      </trkpt>
      <trkpt lat="43.83224" lon="4.19051">
        <ele>189.7</ele>
        <time>2026-05-09T09:23:36.000Z</time>
      </trkpt>
      <trkpt lat="43.83225" lon="4.19051">
        <ele>189.4</ele>
        <time>2026-05-09T09:23:37.000Z</time>
      </trkpt>
      <trkpt lat="43.83225" lon="4.19051">
        <ele>189.2</ele>
        <time>2026-05-09T09:23:38.000Z</time>
      </trkpt>
      <trkpt lat="43.83225" lon="4.19051">
        <ele>189.1</ele>
        <time>2026-05-09T09:23:39.000Z</time>
      </trkpt>
      <trkpt lat="43.83225" lon="4.19052">
        <ele>189.2</ele>
        <time>2026-05-09T09:23:40.000Z</time>
      </trkpt>
      <trkpt lat="43.83225" lon="4.19052">
        <ele>189</ele>
        <time>2026-05-09T09:23:41.000Z</time>
      </trkpt>
      <trkpt lat="43.83225" lon="4.19052">
        <ele>188.8</ele>
        <time>2026-05-09T09:23:42.000Z</time>
      </trkpt>
      <trkpt lat="43.83225" lon="4.19052">
        <ele>188.6</ele>
        <time>2026-05-09T09:23:43.000Z</time>
      </trkpt>
      <trkpt lat="43.83225" lon="4.19052">
        <ele>188.6</ele>
        <time>2026-05-09T09:23:44.000Z</time>
      </trkpt>
      <trkpt lat="43.83225" lon="4.19052">
        <ele>188.6</ele>
        <time>2026-05-09T09:23:45.000Z</time>
      </trkpt>
      <trkpt lat="43.83226" lon="4.19053">
        <ele>188.5</ele>
        <time>2026-05-09T09:23:46.000Z</time>
      </trkpt>
      <trkpt lat="43.83227" lon="4.19053">
        <ele>188.7</ele>
        <time>2026-05-09T09:23:47.000Z</time>
      </trkpt>
      <trkpt lat="43.83228" lon="4.19052">
        <ele>188.7</ele>
        <time>2026-05-09T09:23:48.000Z</time>
      </trkpt>
      <trkpt lat="43.83229" lon="4.19052">
        <ele>189</ele>
        <time>2026-05-09T09:23:49.000Z</time>
      </trkpt>
      <trkpt lat="43.83229" lon="4.19052">
        <ele>188.8</ele>
        <time>2026-05-09T09:23:50.000Z</time>
      </trkpt>
      <trkpt lat="43.83229" lon="4.19052">
        <ele>188.5</ele>
        <time>2026-05-09T09:23:51.000Z</time>
      </trkpt>
      <trkpt lat="43.83229" lon="4.19052">
        <ele>188.3</ele>
        <time>2026-05-09T09:23:52.000Z</time>
      </trkpt>
      <trkpt lat="43.83229" lon="4.19052">
        <ele>188.3</ele>
        <time>2026-05-09T09:23:53.000Z</time>
      </trkpt>
      <trkpt lat="43.83229" lon="4.19051">
        <ele>188.2</ele>
        <time>2026-05-09T09:23:54.000Z</time>
      </trkpt>
      <trkpt lat="43.8323" lon="4.19051">
        <ele>188.2</ele>
        <time>2026-05-09T09:23:55.000Z</time>
      </trkpt>
      <trkpt lat="43.8323" lon="4.19051">
        <ele>188.1</ele>
        <time>2026-05-09T09:23:56.000Z</time>
      </trkpt>
      <trkpt lat="43.8323" lon="4.19051">
        <ele>188</ele>
        <time>2026-05-09T09:23:57.000Z</time>
      </trkpt>
      <trkpt lat="43.8323" lon="4.19051">
        <ele>187.8</ele>
        <time>2026-05-09T09:23:58.000Z</time>
      </trkpt>
      <trkpt lat="43.83231" lon="4.19051">
        <ele>187.9</ele>
        <time>2026-05-09T09:23:59.000Z</time>
      </trkpt>
      <trkpt lat="43.83231" lon="4.19051">
        <ele>187.9</ele>
        <time>2026-05-09T09:24:00.000Z</time>
      </trkpt>
      <trkpt lat="43.83231" lon="4.19051">
        <ele>187.9</ele>
        <time>2026-05-09T09:24:01.000Z</time>
      </trkpt>
      <trkpt lat="43.83231" lon="4.19051">
        <ele>187.8</ele>
        <time>2026-05-09T09:24:02.000Z</time>
      </trkpt>
      <trkpt lat="43.83231" lon="4.19051">
        <ele>187.8</ele>
        <time>2026-05-09T09:24:03.000Z</time>
      </trkpt>
      <trkpt lat="43.83231" lon="4.19051">
        <ele>187.9</ele>
        <time>2026-05-09T09:24:04.000Z</time>
      </trkpt>
      <trkpt lat="43.83231" lon="4.19051">
        <ele>188</ele>
        <time>2026-05-09T09:24:05.000Z</time>
      </trkpt>
      <trkpt lat="43.83231" lon="4.19051">
        <ele>188.1</ele>
        <time>2026-05-09T09:24:06.000Z</time>
      </trkpt>
      <trkpt lat="43.83231" lon="4.19051">
        <ele>187.9</ele>
        <time>2026-05-09T09:24:07.000Z</time>
      </trkpt>
      <trkpt lat="43.83231" lon="4.19051">
        <ele>188</ele>
        <time>2026-05-09T09:24:08.000Z</time>
      </trkpt>
      <trkpt lat="43.83231" lon="4.19052">
        <ele>188.1</ele>
        <time>2026-05-09T09:24:09.000Z</time>
      </trkpt>
      <trkpt lat="43.83231" lon="4.19052">
        <ele>188.1</ele>
        <time>2026-05-09T09:24:10.000Z</time>
      </trkpt>
      <trkpt lat="43.83232" lon="4.19052">
        <ele>188</ele>
        <time>2026-05-09T09:24:11.000Z</time>
      </trkpt>
      <trkpt lat="43.83232" lon="4.19052">
        <ele>187.9</ele>
        <time>2026-05-09T09:24:12.000Z</time>
      </trkpt>
      <trkpt lat="43.83232" lon="4.19052">
        <ele>187.9</ele>
        <time>2026-05-09T09:24:13.000Z</time>
      </trkpt>
      <trkpt lat="43.83232" lon="4.19052">
        <ele>187.9</ele>
        <time>2026-05-09T09:24:14.000Z</time>
      </trkpt>
      <trkpt lat="43.83233" lon="4.19052">
        <ele>187.6</ele>
        <time>2026-05-09T09:24:15.000Z</time>
      </trkpt>
      <trkpt lat="43.83234" lon="4.19054">
        <ele>187.6</ele>
        <time>2026-05-09T09:24:16.000Z</time>
      </trkpt>
      <trkpt lat="43.83235" lon="4.19054">
        <ele>187.4</ele>
        <time>2026-05-09T09:24:17.000Z</time>
      </trkpt>
      <trkpt lat="43.83237" lon="4.19056">
        <ele>187.1</ele>
        <time>2026-05-09T09:24:18.000Z</time>
      </trkpt>
      <trkpt lat="43.83237" lon="4.19056">
        <ele>186.8</ele>
        <time>2026-05-09T09:24:19.000Z</time>
      </trkpt>
      <trkpt lat="43.83238" lon="4.19056">
        <ele>186.3</ele>
        <time>2026-05-09T09:24:20.000Z</time>
      </trkpt>
      <trkpt lat="43.83239" lon="4.19056">
        <ele>186</ele>
        <time>2026-05-09T09:24:21.000Z</time>
      </trkpt>
      <trkpt lat="43.8324" lon="4.19056">
        <ele>185.9</ele>
        <time>2026-05-09T09:24:22.000Z</time>
      </trkpt>
      <trkpt lat="43.8324" lon="4.19056">
        <ele>185.8</ele>
        <time>2026-05-09T09:24:23.000Z</time>
      </trkpt>
      <trkpt lat="43.8324" lon="4.19057">
        <ele>185.8</ele>
        <time>2026-05-09T09:24:24.000Z</time>
      </trkpt>
      <trkpt lat="43.8324" lon="4.19057">
        <ele>185.6</ele>
        <time>2026-05-09T09:24:25.000Z</time>
      </trkpt>
      <trkpt lat="43.8324" lon="4.19057">
        <ele>185.4</ele>
        <time>2026-05-09T09:24:26.000Z</time>
      </trkpt>
      <trkpt lat="43.8324" lon="4.19057">
        <ele>185.3</ele>
        <time>2026-05-09T09:24:27.000Z</time>
      </trkpt>
      <trkpt lat="43.8324" lon="4.19057">
        <ele>185.3</ele>
        <time>2026-05-09T09:24:28.000Z</time>
      </trkpt>
      <trkpt lat="43.8324" lon="4.19057">
        <ele>185.1</ele>
        <time>2026-05-09T09:24:29.000Z</time>
      </trkpt>
      <trkpt lat="43.8324" lon="4.19058">
        <ele>185</ele>
        <time>2026-05-09T09:24:30.000Z</time>
      </trkpt>
      <trkpt lat="43.8324" lon="4.19058">
        <ele>185</ele>
        <time>2026-05-09T09:24:31.000Z</time>
      </trkpt>
      <trkpt lat="43.8324" lon="4.19058">
        <ele>184.7</ele>
        <time>2026-05-09T09:24:32.000Z</time>
      </trkpt>
      <trkpt lat="43.8324" lon="4.19058">
        <ele>184.3</ele>
        <time>2026-05-09T09:24:33.000Z</time>
      </trkpt>
      <trkpt lat="43.8324" lon="4.19058">
        <ele>184</ele>
        <time>2026-05-09T09:24:34.000Z</time>
      </trkpt>
      <trkpt lat="43.8324" lon="4.19058">
        <ele>183.9</ele>
        <time>2026-05-09T09:24:35.000Z</time>
      </trkpt>
      <trkpt lat="43.8324" lon="4.19058">
        <ele>184</ele>
        <time>2026-05-09T09:24:36.000Z</time>
      </trkpt>
      <trkpt lat="43.83241" lon="4.19058">
        <ele>184.2</ele>
        <time>2026-05-09T09:24:37.000Z</time>
      </trkpt>
      <trkpt lat="43.83241" lon="4.19059">
        <ele>184.4</ele>
        <time>2026-05-09T09:24:38.000Z</time>
      </trkpt>
      <trkpt lat="43.83241" lon="4.19059">
        <ele>184.4</ele>
        <time>2026-05-09T09:24:39.000Z</time>
      </trkpt>
      <trkpt lat="43.83241" lon="4.19059">
        <ele>184.1</ele>
        <time>2026-05-09T09:24:40.000Z</time>
      </trkpt>
      <trkpt lat="43.83241" lon="4.1906">
        <ele>184</ele>
        <time>2026-05-09T09:24:41.000Z</time>
      </trkpt>
      <trkpt lat="43.83241" lon="4.1906">
        <ele>183.7</ele>
        <time>2026-05-09T09:24:42.000Z</time>
      </trkpt>
      <trkpt lat="43.83241" lon="4.19061">
        <ele>183.5</ele>
        <time>2026-05-09T09:24:43.000Z</time>
      </trkpt>
      <trkpt lat="43.83241" lon="4.19061">
        <ele>183.4</ele>
        <time>2026-05-09T09:24:44.000Z</time>
      </trkpt>
      <trkpt lat="43.83241" lon="4.19061">
        <ele>183.1</ele>
        <time>2026-05-09T09:24:45.000Z</time>
      </trkpt>
      <trkpt lat="43.83241" lon="4.19062">
        <ele>182.9</ele>
        <time>2026-05-09T09:24:46.000Z</time>
      </trkpt>
      <trkpt lat="43.83241" lon="4.19062">
        <ele>182.5</ele>
        <time>2026-05-09T09:24:47.000Z</time>
      </trkpt>
      <trkpt lat="43.83241" lon="4.19063">
        <ele>182.2</ele>
        <time>2026-05-09T09:24:48.000Z</time>
      </trkpt>
      <trkpt lat="43.83241" lon="4.19063">
        <ele>182.1</ele>
        <time>2026-05-09T09:24:49.000Z</time>
      </trkpt>
      <trkpt lat="43.83241" lon="4.19063">
        <ele>182.1</ele>
        <time>2026-05-09T09:24:50.000Z</time>
      </trkpt>
      <trkpt lat="43.83241" lon="4.19064">
        <ele>182.2</ele>
        <time>2026-05-09T09:24:51.000Z</time>
      </trkpt>
      <trkpt lat="43.83241" lon="4.19064">
        <ele>182.1</ele>
        <time>2026-05-09T09:24:52.000Z</time>
      </trkpt>
      <trkpt lat="43.83241" lon="4.19064">
        <ele>182</ele>
        <time>2026-05-09T09:24:53.000Z</time>
      </trkpt>
      <trkpt lat="43.83241" lon="4.19065">
        <ele>181.7</ele>
        <time>2026-05-09T09:24:54.000Z</time>
      </trkpt>
      <trkpt lat="43.83241" lon="4.19065">
        <ele>181.1</ele>
        <time>2026-05-09T09:24:55.000Z</time>
      </trkpt>
      <trkpt lat="43.83241" lon="4.19066">
        <ele>180.9</ele>
        <time>2026-05-09T09:24:56.000Z</time>
      </trkpt>
      <trkpt lat="43.83241" lon="4.19066">
        <ele>180.8</ele>
        <time>2026-05-09T09:24:57.000Z</time>
      </trkpt>
      <trkpt lat="43.8324" lon="4.19067">
        <ele>180.4</ele>
        <time>2026-05-09T09:24:58.000Z</time>
      </trkpt>
      <trkpt lat="43.8324" lon="4.19067">
        <ele>180</ele>
        <time>2026-05-09T09:24:59.000Z</time>
      </trkpt>
      <trkpt lat="43.8324" lon="4.19068">
        <ele>179.8</ele>
        <time>2026-05-09T09:25:00.000Z</time>
      </trkpt>
      <trkpt lat="43.8324" lon="4.19068">
        <ele>179.6</ele>
        <time>2026-05-09T09:25:01.000Z</time>
      </trkpt>
      <trkpt lat="43.83239" lon="4.19069">
        <ele>179.3</ele>
        <time>2026-05-09T09:25:02.000Z</time>
      </trkpt>
      <trkpt lat="43.83238" lon="4.19073">
        <ele>179.3</ele>
        <time>2026-05-09T09:25:03.000Z</time>
      </trkpt>
      <trkpt lat="43.83235" lon="4.19077">
        <ele>179</ele>
        <time>2026-05-09T09:25:04.000Z</time>
      </trkpt>
      <trkpt lat="43.83233" lon="4.19079">
        <ele>179.3</ele>
        <time>2026-05-09T09:25:05.000Z</time>
      </trkpt>
      <trkpt lat="43.83233" lon="4.1908">
        <ele>179.2</ele>
        <time>2026-05-09T09:25:06.000Z</time>
      </trkpt>
      <trkpt lat="43.83233" lon="4.1908">
        <ele>178.8</ele>
        <time>2026-05-09T09:25:07.000Z</time>
      </trkpt>
      <trkpt lat="43.83232" lon="4.19082">
        <ele>179.4</ele>
        <time>2026-05-09T09:25:08.000Z</time>
      </trkpt>
      <trkpt lat="43.83232" lon="4.19083">
        <ele>179.8</ele>
        <time>2026-05-09T09:25:09.000Z</time>
      </trkpt>
      <trkpt lat="43.83232" lon="4.19083">
        <ele>180.1</ele>
        <time>2026-05-09T09:25:10.000Z</time>
      </trkpt>
      <trkpt lat="43.83231" lon="4.19084">
        <ele>180.1</ele>
        <time>2026-05-09T09:25:11.000Z</time>
      </trkpt>
      <trkpt lat="43.83231" lon="4.19085">
        <ele>179.9</ele>
        <time>2026-05-09T09:25:12.000Z</time>
      </trkpt>
      <trkpt lat="43.83231" lon="4.19085">
        <ele>179.6</ele>
        <time>2026-05-09T09:25:13.000Z</time>
      </trkpt>
      <trkpt lat="43.83231" lon="4.19086">
        <ele>179.4</ele>
        <time>2026-05-09T09:25:14.000Z</time>
      </trkpt>
      <trkpt lat="43.83231" lon="4.19086">
        <ele>179.4</ele>
        <time>2026-05-09T09:25:15.000Z</time>
      </trkpt>
      <trkpt lat="43.83229" lon="4.19091">
        <ele>179.3</ele>
        <time>2026-05-09T09:25:16.000Z</time>
      </trkpt>
      <trkpt lat="43.83228" lon="4.19095">
        <ele>179.3</ele>
        <time>2026-05-09T09:25:17.000Z</time>
      </trkpt>
      <trkpt lat="43.83226" lon="4.19098">
        <ele>179.1</ele>
        <time>2026-05-09T09:25:18.000Z</time>
      </trkpt>
      <trkpt lat="43.83226" lon="4.19099">
        <ele>179.1</ele>
        <time>2026-05-09T09:25:19.000Z</time>
      </trkpt>
      <trkpt lat="43.83225" lon="4.19099">
        <ele>179.1</ele>
        <time>2026-05-09T09:25:20.000Z</time>
      </trkpt>
      <trkpt lat="43.83225" lon="4.191">
        <ele>178.9</ele>
        <time>2026-05-09T09:25:21.000Z</time>
      </trkpt>
      <trkpt lat="43.83225" lon="4.191">
        <ele>178.4</ele>
        <time>2026-05-09T09:25:22.000Z</time>
      </trkpt>
      <trkpt lat="43.83224" lon="4.19101">
        <ele>178.1</ele>
        <time>2026-05-09T09:25:23.000Z</time>
      </trkpt>
      <trkpt lat="43.83224" lon="4.19101">
        <ele>177.7</ele>
        <time>2026-05-09T09:25:24.000Z</time>
      </trkpt>
      <trkpt lat="43.83224" lon="4.19102">
        <ele>177.5</ele>
        <time>2026-05-09T09:25:25.000Z</time>
      </trkpt>
      <trkpt lat="43.83222" lon="4.19106">
        <ele>177.4</ele>
        <time>2026-05-09T09:25:26.000Z</time>
      </trkpt>
      <trkpt lat="43.8322" lon="4.19108">
        <ele>177.1</ele>
        <time>2026-05-09T09:25:27.000Z</time>
      </trkpt>
      <trkpt lat="43.83219" lon="4.1911">
        <ele>177.3</ele>
        <time>2026-05-09T09:25:28.000Z</time>
      </trkpt>
      <trkpt lat="43.83217" lon="4.19112">
        <ele>177.4</ele>
        <time>2026-05-09T09:25:29.000Z</time>
      </trkpt>
      <trkpt lat="43.83215" lon="4.19114">
        <ele>177.4</ele>
        <time>2026-05-09T09:25:30.000Z</time>
      </trkpt>
      <trkpt lat="43.83214" lon="4.19117">
        <ele>177.7</ele>
        <time>2026-05-09T09:25:31.000Z</time>
      </trkpt>
      <trkpt lat="43.83212" lon="4.1912">
        <ele>177.8</ele>
        <time>2026-05-09T09:25:32.000Z</time>
      </trkpt>
      <trkpt lat="43.83211" lon="4.19122">
        <ele>177.7</ele>
        <time>2026-05-09T09:25:33.000Z</time>
      </trkpt>
      <trkpt lat="43.8321" lon="4.19122">
        <ele>177.8</ele>
        <time>2026-05-09T09:25:34.000Z</time>
      </trkpt>
      <trkpt lat="43.8321" lon="4.19123">
        <ele>178.1</ele>
        <time>2026-05-09T09:25:35.000Z</time>
      </trkpt>
      <trkpt lat="43.83209" lon="4.19123">
        <ele>178.2</ele>
        <time>2026-05-09T09:25:36.000Z</time>
      </trkpt>
      <trkpt lat="43.83208" lon="4.19124">
        <ele>178.4</ele>
        <time>2026-05-09T09:25:37.000Z</time>
      </trkpt>
      <trkpt lat="43.83208" lon="4.19125">
        <ele>178.5</ele>
        <time>2026-05-09T09:25:38.000Z</time>
      </trkpt>
      <trkpt lat="43.83209" lon="4.19126">
        <ele>178.2</ele>
        <time>2026-05-09T09:25:39.000Z</time>
      </trkpt>
      <trkpt lat="43.83208" lon="4.19127">
        <ele>178.2</ele>
        <time>2026-05-09T09:25:40.000Z</time>
      </trkpt>
      <trkpt lat="43.83208" lon="4.19128">
        <ele>178.1</ele>
        <time>2026-05-09T09:25:41.000Z</time>
      </trkpt>
      <trkpt lat="43.83208" lon="4.19129">
        <ele>178.1</ele>
        <time>2026-05-09T09:25:42.000Z</time>
      </trkpt>
      <trkpt lat="43.83208" lon="4.1913">
        <ele>178.1</ele>
        <time>2026-05-09T09:25:43.000Z</time>
      </trkpt>
      <trkpt lat="43.83208" lon="4.19131">
        <ele>178</ele>
        <time>2026-05-09T09:25:44.000Z</time>
      </trkpt>
      <trkpt lat="43.83207" lon="4.19132">
        <ele>177.6</ele>
        <time>2026-05-09T09:25:45.000Z</time>
      </trkpt>
      <trkpt lat="43.83207" lon="4.19132">
        <ele>177.8</ele>
        <time>2026-05-09T09:25:46.000Z</time>
      </trkpt>
      <trkpt lat="43.83207" lon="4.19133">
        <ele>177.9</ele>
        <time>2026-05-09T09:25:47.000Z</time>
      </trkpt>
      <trkpt lat="43.83207" lon="4.19133">
        <ele>177.8</ele>
        <time>2026-05-09T09:25:48.000Z</time>
      </trkpt>
      <trkpt lat="43.83207" lon="4.19134">
        <ele>177.7</ele>
        <time>2026-05-09T09:25:49.000Z</time>
      </trkpt>
      <trkpt lat="43.83206" lon="4.19135">
        <ele>177.3</ele>
        <time>2026-05-09T09:25:50.000Z</time>
      </trkpt>
      <trkpt lat="43.83206" lon="4.19136">
        <ele>177.2</ele>
        <time>2026-05-09T09:25:51.000Z</time>
      </trkpt>
      <trkpt lat="43.83205" lon="4.19137">
        <ele>177.1</ele>
        <time>2026-05-09T09:25:52.000Z</time>
      </trkpt>
      <trkpt lat="43.83205" lon="4.19138">
        <ele>176.8</ele>
        <time>2026-05-09T09:25:53.000Z</time>
      </trkpt>
      <trkpt lat="43.83204" lon="4.1914">
        <ele>176.9</ele>
        <time>2026-05-09T09:25:54.000Z</time>
      </trkpt>
      <trkpt lat="43.83203" lon="4.19141">
        <ele>176.9</ele>
        <time>2026-05-09T09:25:55.000Z</time>
      </trkpt>
      <trkpt lat="43.83203" lon="4.19142">
        <ele>176.6</ele>
        <time>2026-05-09T09:25:56.000Z</time>
      </trkpt>
      <trkpt lat="43.83203" lon="4.19142">
        <ele>176.5</ele>
        <time>2026-05-09T09:25:57.000Z</time>
      </trkpt>
      <trkpt lat="43.83203" lon="4.19142">
        <ele>176.5</ele>
        <time>2026-05-09T09:25:58.000Z</time>
      </trkpt>
      <trkpt lat="43.83203" lon="4.19144">
        <ele>176.3</ele>
        <time>2026-05-09T09:25:59.000Z</time>
      </trkpt>
      <trkpt lat="43.83203" lon="4.19145">
        <ele>176.3</ele>
        <time>2026-05-09T09:26:00.000Z</time>
      </trkpt>
      <trkpt lat="43.83203" lon="4.19146">
        <ele>176.1</ele>
        <time>2026-05-09T09:26:01.000Z</time>
      </trkpt>
      <trkpt lat="43.83203" lon="4.19147">
        <ele>176.1</ele>
        <time>2026-05-09T09:26:02.000Z</time>
      </trkpt>
      <trkpt lat="43.83203" lon="4.19147">
        <ele>176</ele>
        <time>2026-05-09T09:26:03.000Z</time>
      </trkpt>
      <trkpt lat="43.83202" lon="4.19147">
        <ele>176</ele>
        <time>2026-05-09T09:26:04.000Z</time>
      </trkpt>
      <trkpt lat="43.83202" lon="4.19148">
        <ele>176.1</ele>
        <time>2026-05-09T09:26:05.000Z</time>
      </trkpt>
      <trkpt lat="43.83202" lon="4.1915">
        <ele>176.3</ele>
        <time>2026-05-09T09:26:06.000Z</time>
      </trkpt>
      <trkpt lat="43.83201" lon="4.19151">
        <ele>176.1</ele>
        <time>2026-05-09T09:26:07.000Z</time>
      </trkpt>
      <trkpt lat="43.83201" lon="4.19153">
        <ele>175.9</ele>
        <time>2026-05-09T09:26:08.000Z</time>
      </trkpt>
      <trkpt lat="43.83201" lon="4.19154">
        <ele>176.1</ele>
        <time>2026-05-09T09:26:09.000Z</time>
      </trkpt>
      <trkpt lat="43.83201" lon="4.19154">
        <ele>176</ele>
        <time>2026-05-09T09:26:10.000Z</time>
      </trkpt>
      <trkpt lat="43.83201" lon="4.19155">
        <ele>176.1</ele>
        <time>2026-05-09T09:26:11.000Z</time>
      </trkpt>
      <trkpt lat="43.83201" lon="4.19157">
        <ele>176</ele>
        <time>2026-05-09T09:26:12.000Z</time>
      </trkpt>
      <trkpt lat="43.83201" lon="4.19159">
        <ele>175.8</ele>
        <time>2026-05-09T09:26:13.000Z</time>
      </trkpt>
      <trkpt lat="43.83201" lon="4.19159">
        <ele>175.8</ele>
        <time>2026-05-09T09:26:14.000Z</time>
      </trkpt>
      <trkpt lat="43.83201" lon="4.1916">
        <ele>175.6</ele>
        <time>2026-05-09T09:26:15.000Z</time>
      </trkpt>
      <trkpt lat="43.83201" lon="4.1916">
        <ele>175.6</ele>
        <time>2026-05-09T09:26:16.000Z</time>
      </trkpt>
      <trkpt lat="43.83201" lon="4.1916">
        <ele>175.6</ele>
        <time>2026-05-09T09:26:17.000Z</time>
      </trkpt>
      <trkpt lat="43.83201" lon="4.1916">
        <ele>175.6</ele>
        <time>2026-05-09T09:26:18.000Z</time>
      </trkpt>
      <trkpt lat="43.83202" lon="4.19162">
        <ele>175.6</ele>
        <time>2026-05-09T09:26:19.000Z</time>
      </trkpt>
      <trkpt lat="43.83202" lon="4.19164">
        <ele>175.6</ele>
        <time>2026-05-09T09:26:20.000Z</time>
      </trkpt>
      <trkpt lat="43.83203" lon="4.19165">
        <ele>175.7</ele>
        <time>2026-05-09T09:26:21.000Z</time>
      </trkpt>
      <trkpt lat="43.83204" lon="4.19165">
        <ele>175.7</ele>
        <time>2026-05-09T09:26:22.000Z</time>
      </trkpt>
      <trkpt lat="43.83205" lon="4.19166">
        <ele>175.5</ele>
        <time>2026-05-09T09:26:23.000Z</time>
      </trkpt>
      <trkpt lat="43.83205" lon="4.19166">
        <ele>175.5</ele>
        <time>2026-05-09T09:26:24.000Z</time>
      </trkpt>
      <trkpt lat="43.83205" lon="4.19166">
        <ele>175.1</ele>
        <time>2026-05-09T09:26:25.000Z</time>
      </trkpt>
      <trkpt lat="43.83205" lon="4.19167">
        <ele>174.8</ele>
        <time>2026-05-09T09:26:26.000Z</time>
      </trkpt>
      <trkpt lat="43.83205" lon="4.19167">
        <ele>174.6</ele>
        <time>2026-05-09T09:26:27.000Z</time>
      </trkpt>
      <trkpt lat="43.83205" lon="4.19167">
        <ele>174.3</ele>
        <time>2026-05-09T09:26:28.000Z</time>
      </trkpt>
      <trkpt lat="43.83206" lon="4.19168">
        <ele>174.1</ele>
        <time>2026-05-09T09:26:29.000Z</time>
      </trkpt>
      <trkpt lat="43.83206" lon="4.19168">
        <ele>173.7</ele>
        <time>2026-05-09T09:26:30.000Z</time>
      </trkpt>
      <trkpt lat="43.83206" lon="4.19168">
        <ele>173.4</ele>
        <time>2026-05-09T09:26:31.000Z</time>
      </trkpt>
      <trkpt lat="43.83206" lon="4.19168">
        <ele>172.9</ele>
        <time>2026-05-09T09:26:32.000Z</time>
      </trkpt>
      <trkpt lat="43.83206" lon="4.19169">
        <ele>172.5</ele>
        <time>2026-05-09T09:26:33.000Z</time>
      </trkpt>
      <trkpt lat="43.83207" lon="4.19169">
        <ele>171.9</ele>
        <time>2026-05-09T09:26:34.000Z</time>
      </trkpt>
      <trkpt lat="43.83207" lon="4.1917">
        <ele>171.4</ele>
        <time>2026-05-09T09:26:35.000Z</time>
      </trkpt>
      <trkpt lat="43.83207" lon="4.1917">
        <ele>171.4</ele>
        <time>2026-05-09T09:26:36.000Z</time>
      </trkpt>
      <trkpt lat="43.83207" lon="4.1917">
        <ele>171.2</ele>
        <time>2026-05-09T09:26:37.000Z</time>
      </trkpt>
      <trkpt lat="43.83207" lon="4.1917">
        <ele>171</ele>
        <time>2026-05-09T09:26:38.000Z</time>
      </trkpt>
      <trkpt lat="43.83207" lon="4.1917">
        <ele>170.8</ele>
        <time>2026-05-09T09:26:39.000Z</time>
      </trkpt>
      <trkpt lat="43.83209" lon="4.19171">
        <ele>170.7</ele>
        <time>2026-05-09T09:26:40.000Z</time>
      </trkpt>
      <trkpt lat="43.8321" lon="4.19173">
        <ele>170.7</ele>
        <time>2026-05-09T09:26:41.000Z</time>
      </trkpt>
      <trkpt lat="43.83211" lon="4.19174">
        <ele>170.5</ele>
        <time>2026-05-09T09:26:42.000Z</time>
      </trkpt>
      <trkpt lat="43.83211" lon="4.19174">
        <ele>170.5</ele>
        <time>2026-05-09T09:26:43.000Z</time>
      </trkpt>
      <trkpt lat="43.83211" lon="4.19174">
        <ele>170.5</ele>
        <time>2026-05-09T09:26:44.000Z</time>
      </trkpt>
      <trkpt lat="43.83211" lon="4.19174">
        <ele>170.7</ele>
        <time>2026-05-09T09:26:45.000Z</time>
      </trkpt>
      <trkpt lat="43.83212" lon="4.19175">
        <ele>170.7</ele>
        <time>2026-05-09T09:26:46.000Z</time>
      </trkpt>
      <trkpt lat="43.83212" lon="4.19175">
        <ele>171.1</ele>
        <time>2026-05-09T09:26:47.000Z</time>
      </trkpt>
      <trkpt lat="43.83212" lon="4.19175">
        <ele>171.6</ele>
        <time>2026-05-09T09:26:48.000Z</time>
      </trkpt>
      <trkpt lat="43.83212" lon="4.19176">
        <ele>171.9</ele>
        <time>2026-05-09T09:26:49.000Z</time>
      </trkpt>
      <trkpt lat="43.83213" lon="4.19178">
        <ele>172.4</ele>
        <time>2026-05-09T09:26:50.000Z</time>
      </trkpt>
      <trkpt lat="43.83215" lon="4.19179">
        <ele>172.6</ele>
        <time>2026-05-09T09:26:51.000Z</time>
      </trkpt>
      <trkpt lat="43.83217" lon="4.19182">
        <ele>172.4</ele>
        <time>2026-05-09T09:26:52.000Z</time>
      </trkpt>
      <trkpt lat="43.83219" lon="4.19183">
        <ele>172.2</ele>
        <time>2026-05-09T09:26:53.000Z</time>
      </trkpt>
      <trkpt lat="43.8322" lon="4.19183">
        <ele>171.9</ele>
        <time>2026-05-09T09:26:54.000Z</time>
      </trkpt>
      <trkpt lat="43.8322" lon="4.19183">
        <ele>172.1</ele>
        <time>2026-05-09T09:26:55.000Z</time>
      </trkpt>
      <trkpt lat="43.83221" lon="4.19183">
        <ele>172</ele>
        <time>2026-05-09T09:26:56.000Z</time>
      </trkpt>
      <trkpt lat="43.83221" lon="4.19183">
        <ele>172</ele>
        <time>2026-05-09T09:26:57.000Z</time>
      </trkpt>
      <trkpt lat="43.83221" lon="4.19183">
        <ele>172</ele>
        <time>2026-05-09T09:26:58.000Z</time>
      </trkpt>
      <trkpt lat="43.83221" lon="4.19183">
        <ele>172.1</ele>
        <time>2026-05-09T09:26:59.000Z</time>
      </trkpt>
      <trkpt lat="43.83221" lon="4.19183">
        <ele>172</ele>
        <time>2026-05-09T09:27:00.000Z</time>
      </trkpt>
      <trkpt lat="43.83222" lon="4.19184">
        <ele>171.8</ele>
        <time>2026-05-09T09:27:01.000Z</time>
      </trkpt>
      <trkpt lat="43.83222" lon="4.19184">
        <ele>171.7</ele>
        <time>2026-05-09T09:27:02.000Z</time>
      </trkpt>
      <trkpt lat="43.83222" lon="4.19184">
        <ele>171.4</ele>
        <time>2026-05-09T09:27:03.000Z</time>
      </trkpt>
      <trkpt lat="43.83222" lon="4.19184">
        <ele>170.9</ele>
        <time>2026-05-09T09:27:04.000Z</time>
      </trkpt>
      <trkpt lat="43.83223" lon="4.19184">
        <ele>170.5</ele>
        <time>2026-05-09T09:27:05.000Z</time>
      </trkpt>
      <trkpt lat="43.83223" lon="4.19184">
        <ele>170.1</ele>
        <time>2026-05-09T09:27:06.000Z</time>
      </trkpt>
      <trkpt lat="43.83223" lon="4.19184">
        <ele>169.6</ele>
        <time>2026-05-09T09:27:07.000Z</time>
      </trkpt>
      <trkpt lat="43.83223" lon="4.19184">
        <ele>169.1</ele>
        <time>2026-05-09T09:27:08.000Z</time>
      </trkpt>
      <trkpt lat="43.83224" lon="4.19184">
        <ele>168.7</ele>
        <time>2026-05-09T09:27:09.000Z</time>
      </trkpt>
      <trkpt lat="43.83224" lon="4.19185">
        <ele>168.3</ele>
        <time>2026-05-09T09:27:10.000Z</time>
      </trkpt>
      <trkpt lat="43.83225" lon="4.19185">
        <ele>168.1</ele>
        <time>2026-05-09T09:27:11.000Z</time>
      </trkpt>
      <trkpt lat="43.83226" lon="4.19186">
        <ele>167.9</ele>
        <time>2026-05-09T09:27:12.000Z</time>
      </trkpt>
      <trkpt lat="43.83227" lon="4.19188">
        <ele>167.5</ele>
        <time>2026-05-09T09:27:13.000Z</time>
      </trkpt>
      <trkpt lat="43.83229" lon="4.19189">
        <ele>166.9</ele>
        <time>2026-05-09T09:27:14.000Z</time>
      </trkpt>
      <trkpt lat="43.8323" lon="4.1919">
        <ele>166.4</ele>
        <time>2026-05-09T09:27:15.000Z</time>
      </trkpt>
      <trkpt lat="43.83231" lon="4.19191">
        <ele>166.2</ele>
        <time>2026-05-09T09:27:16.000Z</time>
      </trkpt>
      <trkpt lat="43.83231" lon="4.19191">
        <ele>166</ele>
        <time>2026-05-09T09:27:17.000Z</time>
      </trkpt>
      <trkpt lat="43.83232" lon="4.19192">
        <ele>165.8</ele>
        <time>2026-05-09T09:27:18.000Z</time>
      </trkpt>
      <trkpt lat="43.83232" lon="4.19192">
        <ele>165.5</ele>
        <time>2026-05-09T09:27:19.000Z</time>
      </trkpt>
      <trkpt lat="43.83232" lon="4.19193">
        <ele>165.2</ele>
        <time>2026-05-09T09:27:20.000Z</time>
      </trkpt>
      <trkpt lat="43.83232" lon="4.19193">
        <ele>164.8</ele>
        <time>2026-05-09T09:27:21.000Z</time>
      </trkpt>
      <trkpt lat="43.83234" lon="4.19196">
        <ele>164.7</ele>
        <time>2026-05-09T09:27:22.000Z</time>
      </trkpt>
      <trkpt lat="43.83236" lon="4.19199">
        <ele>164.7</ele>
        <time>2026-05-09T09:27:23.000Z</time>
      </trkpt>
      <trkpt lat="43.83238" lon="4.19201">
        <ele>164.8</ele>
        <time>2026-05-09T09:27:24.000Z</time>
      </trkpt>
      <trkpt lat="43.83238" lon="4.19201">
        <ele>164.6</ele>
        <time>2026-05-09T09:27:25.000Z</time>
      </trkpt>
      <trkpt lat="43.83239" lon="4.19202">
        <ele>164.5</ele>
        <time>2026-05-09T09:27:26.000Z</time>
      </trkpt>
      <trkpt lat="43.83239" lon="4.19203">
        <ele>164.2</ele>
        <time>2026-05-09T09:27:27.000Z</time>
      </trkpt>
      <trkpt lat="43.83239" lon="4.19203">
        <ele>164.8</ele>
        <time>2026-05-09T09:27:28.000Z</time>
      </trkpt>
      <trkpt lat="43.83239" lon="4.19203">
        <ele>164.9</ele>
        <time>2026-05-09T09:27:29.000Z</time>
      </trkpt>
      <trkpt lat="43.83239" lon="4.19204">
        <ele>165</ele>
        <time>2026-05-09T09:27:30.000Z</time>
      </trkpt>
      <trkpt lat="43.83239" lon="4.19204">
        <ele>164.9</ele>
        <time>2026-05-09T09:27:31.000Z</time>
      </trkpt>
      <trkpt lat="43.8324" lon="4.19205">
        <ele>164.8</ele>
        <time>2026-05-09T09:27:32.000Z</time>
      </trkpt>
      <trkpt lat="43.8324" lon="4.19205">
        <ele>164.7</ele>
        <time>2026-05-09T09:27:33.000Z</time>
      </trkpt>
      <trkpt lat="43.8324" lon="4.19205">
        <ele>164.6</ele>
        <time>2026-05-09T09:27:34.000Z</time>
      </trkpt>
      <trkpt lat="43.8324" lon="4.19206">
        <ele>164.3</ele>
        <time>2026-05-09T09:27:35.000Z</time>
      </trkpt>
      <trkpt lat="43.8324" lon="4.19206">
        <ele>164.1</ele>
        <time>2026-05-09T09:27:36.000Z</time>
      </trkpt>
      <trkpt lat="43.83241" lon="4.19206">
        <ele>163.9</ele>
        <time>2026-05-09T09:27:37.000Z</time>
      </trkpt>
      <trkpt lat="43.83241" lon="4.19207">
        <ele>163.7</ele>
        <time>2026-05-09T09:27:38.000Z</time>
      </trkpt>
      <trkpt lat="43.83241" lon="4.19207">
        <ele>163.4</ele>
        <time>2026-05-09T09:27:39.000Z</time>
      </trkpt>
      <trkpt lat="43.83242" lon="4.19208">
        <ele>163</ele>
        <time>2026-05-09T09:27:40.000Z</time>
      </trkpt>
      <trkpt lat="43.83242" lon="4.19208">
        <ele>162.4</ele>
        <time>2026-05-09T09:27:41.000Z</time>
      </trkpt>
      <trkpt lat="43.83242" lon="4.19209">
        <ele>161.9</ele>
        <time>2026-05-09T09:27:42.000Z</time>
      </trkpt>
      <trkpt lat="43.83243" lon="4.1921">
        <ele>161.7</ele>
        <time>2026-05-09T09:27:43.000Z</time>
      </trkpt>
      <trkpt lat="43.83244" lon="4.1921">
        <ele>161.6</ele>
        <time>2026-05-09T09:27:44.000Z</time>
      </trkpt>
      <trkpt lat="43.83244" lon="4.19211">
        <ele>161.5</ele>
        <time>2026-05-09T09:27:45.000Z</time>
      </trkpt>
      <trkpt lat="43.83244" lon="4.19211">
        <ele>161.3</ele>
        <time>2026-05-09T09:27:46.000Z</time>
      </trkpt>
      <trkpt lat="43.83245" lon="4.19212">
        <ele>161</ele>
        <time>2026-05-09T09:27:47.000Z</time>
      </trkpt>
      <trkpt lat="43.83245" lon="4.19213">
        <ele>160.9</ele>
        <time>2026-05-09T09:27:48.000Z</time>
      </trkpt>
      <trkpt lat="43.83247" lon="4.19217">
        <ele>160.7</ele>
        <time>2026-05-09T09:27:49.000Z</time>
      </trkpt>
      <trkpt lat="43.83248" lon="4.1922">
        <ele>160.4</ele>
        <time>2026-05-09T09:27:50.000Z</time>
      </trkpt>
      <trkpt lat="43.83249" lon="4.19222">
        <ele>160</ele>
        <time>2026-05-09T09:27:51.000Z</time>
      </trkpt>
      <trkpt lat="43.8325" lon="4.19223">
        <ele>159.7</ele>
        <time>2026-05-09T09:27:52.000Z</time>
      </trkpt>
      <trkpt lat="43.83251" lon="4.19223">
        <ele>160.1</ele>
        <time>2026-05-09T09:27:53.000Z</time>
      </trkpt>
      <trkpt lat="43.83251" lon="4.19224">
        <ele>159.8</ele>
        <time>2026-05-09T09:27:54.000Z</time>
      </trkpt>
      <trkpt lat="43.83252" lon="4.19224">
        <ele>159.3</ele>
        <time>2026-05-09T09:27:55.000Z</time>
      </trkpt>
      <trkpt lat="43.83252" lon="4.19224">
        <ele>159.3</ele>
        <time>2026-05-09T09:27:56.000Z</time>
      </trkpt>
      <trkpt lat="43.83252" lon="4.19225">
        <ele>159.3</ele>
        <time>2026-05-09T09:27:57.000Z</time>
      </trkpt>
      <trkpt lat="43.83252" lon="4.19225">
        <ele>159.3</ele>
        <time>2026-05-09T09:27:58.000Z</time>
      </trkpt>
      <trkpt lat="43.83252" lon="4.19225">
        <ele>158.8</ele>
        <time>2026-05-09T09:27:59.000Z</time>
      </trkpt>
      <trkpt lat="43.83252" lon="4.19225">
        <ele>158.8</ele>
        <time>2026-05-09T09:28:00.000Z</time>
      </trkpt>
      <trkpt lat="43.83252" lon="4.19225">
        <ele>159</ele>
        <time>2026-05-09T09:28:01.000Z</time>
      </trkpt>
      <trkpt lat="43.83253" lon="4.19225">
        <ele>158.9</ele>
        <time>2026-05-09T09:28:02.000Z</time>
      </trkpt>
      <trkpt lat="43.83253" lon="4.19225">
        <ele>158.9</ele>
        <time>2026-05-09T09:28:03.000Z</time>
      </trkpt>
      <trkpt lat="43.83253" lon="4.19226">
        <ele>158.8</ele>
        <time>2026-05-09T09:28:04.000Z</time>
      </trkpt>
      <trkpt lat="43.83253" lon="4.19226">
        <ele>158.5</ele>
        <time>2026-05-09T09:28:05.000Z</time>
      </trkpt>
      <trkpt lat="43.83253" lon="4.19226">
        <ele>158.4</ele>
        <time>2026-05-09T09:28:06.000Z</time>
      </trkpt>
      <trkpt lat="43.83253" lon="4.19226">
        <ele>158.4</ele>
        <time>2026-05-09T09:28:07.000Z</time>
      </trkpt>
      <trkpt lat="43.83253" lon="4.19226">
        <ele>158.1</ele>
        <time>2026-05-09T09:28:08.000Z</time>
      </trkpt>
      <trkpt lat="43.83253" lon="4.19226">
        <ele>157.7</ele>
        <time>2026-05-09T09:28:09.000Z</time>
      </trkpt>
      <trkpt lat="43.83253" lon="4.19226">
        <ele>157.5</ele>
        <time>2026-05-09T09:28:10.000Z</time>
      </trkpt>
      <trkpt lat="43.83253" lon="4.19227">
        <ele>157.3</ele>
        <time>2026-05-09T09:28:11.000Z</time>
      </trkpt>
      <trkpt lat="43.83253" lon="4.19227">
        <ele>157.2</ele>
        <time>2026-05-09T09:28:12.000Z</time>
      </trkpt>
      <trkpt lat="43.83253" lon="4.19227">
        <ele>157.5</ele>
        <time>2026-05-09T09:28:13.000Z</time>
      </trkpt>
      <trkpt lat="43.83253" lon="4.19227">
        <ele>157.6</ele>
        <time>2026-05-09T09:28:14.000Z</time>
      </trkpt>
      <trkpt lat="43.83253" lon="4.19228">
        <ele>157.8</ele>
        <time>2026-05-09T09:28:15.000Z</time>
      </trkpt>
      <trkpt lat="43.83253" lon="4.19228">
        <ele>158</ele>
        <time>2026-05-09T09:28:16.000Z</time>
      </trkpt>
      <trkpt lat="43.83253" lon="4.19228">
        <ele>157.7</ele>
        <time>2026-05-09T09:28:17.000Z</time>
      </trkpt>
      <trkpt lat="43.83253" lon="4.19228">
        <ele>157.5</ele>
        <time>2026-05-09T09:28:18.000Z</time>
      </trkpt>
      <trkpt lat="43.83253" lon="4.19228">
        <ele>157.5</ele>
        <time>2026-05-09T09:28:19.000Z</time>
      </trkpt>
      <trkpt lat="43.83253" lon="4.19228">
        <ele>157.2</ele>
        <time>2026-05-09T09:28:20.000Z</time>
      </trkpt>
      <trkpt lat="43.83253" lon="4.19229">
        <ele>156.9</ele>
        <time>2026-05-09T09:28:21.000Z</time>
      </trkpt>
      <trkpt lat="43.83253" lon="4.19229">
        <ele>156.3</ele>
        <time>2026-05-09T09:28:22.000Z</time>
      </trkpt>
      <trkpt lat="43.83253" lon="4.19229">
        <ele>156</ele>
        <time>2026-05-09T09:28:23.000Z</time>
      </trkpt>
      <trkpt lat="43.83253" lon="4.1923">
        <ele>155.8</ele>
        <time>2026-05-09T09:28:24.000Z</time>
      </trkpt>
      <trkpt lat="43.83253" lon="4.1923">
        <ele>155.8</ele>
        <time>2026-05-09T09:28:25.000Z</time>
      </trkpt>
      <trkpt lat="43.83253" lon="4.1923">
        <ele>155.9</ele>
        <time>2026-05-09T09:28:26.000Z</time>
      </trkpt>
      <trkpt lat="43.83253" lon="4.1923">
        <ele>156.3</ele>
        <time>2026-05-09T09:28:27.000Z</time>
      </trkpt>
      <trkpt lat="43.83254" lon="4.19231">
        <ele>156.2</ele>
        <time>2026-05-09T09:28:28.000Z</time>
      </trkpt>
      <trkpt lat="43.83254" lon="4.19231">
        <ele>156</ele>
        <time>2026-05-09T09:28:29.000Z</time>
      </trkpt>
      <trkpt lat="43.83254" lon="4.19231">
        <ele>156</ele>
        <time>2026-05-09T09:28:30.000Z</time>
      </trkpt>
      <trkpt lat="43.83254" lon="4.19231">
        <ele>156</ele>
        <time>2026-05-09T09:28:31.000Z</time>
      </trkpt>
      <trkpt lat="43.83254" lon="4.19232">
        <ele>155.7</ele>
        <time>2026-05-09T09:28:32.000Z</time>
      </trkpt>
      <trkpt lat="43.83254" lon="4.19232">
        <ele>155.3</ele>
        <time>2026-05-09T09:28:33.000Z</time>
      </trkpt>
      <trkpt lat="43.83254" lon="4.19233">
        <ele>155.4</ele>
        <time>2026-05-09T09:28:34.000Z</time>
      </trkpt>
      <trkpt lat="43.83254" lon="4.19234">
        <ele>155.4</ele>
        <time>2026-05-09T09:28:35.000Z</time>
      </trkpt>
      <trkpt lat="43.83254" lon="4.19234">
        <ele>155.3</ele>
        <time>2026-05-09T09:28:36.000Z</time>
      </trkpt>
      <trkpt lat="43.83255" lon="4.19235">
        <ele>155.1</ele>
        <time>2026-05-09T09:28:37.000Z</time>
      </trkpt>
      <trkpt lat="43.83256" lon="4.19235">
        <ele>154.7</ele>
        <time>2026-05-09T09:28:38.000Z</time>
      </trkpt>
      <trkpt lat="43.83256" lon="4.19235">
        <ele>154.4</ele>
        <time>2026-05-09T09:28:39.000Z</time>
      </trkpt>
      <trkpt lat="43.83256" lon="4.19235">
        <ele>154.1</ele>
        <time>2026-05-09T09:28:40.000Z</time>
      </trkpt>
      <trkpt lat="43.83258" lon="4.19236">
        <ele>153.8</ele>
        <time>2026-05-09T09:28:41.000Z</time>
      </trkpt>
      <trkpt lat="43.83258" lon="4.19236">
        <ele>153.4</ele>
        <time>2026-05-09T09:28:42.000Z</time>
      </trkpt>
      <trkpt lat="43.83258" lon="4.19235">
        <ele>153</ele>
        <time>2026-05-09T09:28:43.000Z</time>
      </trkpt>
      <trkpt lat="43.83259" lon="4.19234">
        <ele>152.6</ele>
        <time>2026-05-09T09:28:44.000Z</time>
      </trkpt>
      <trkpt lat="43.8326" lon="4.19234">
        <ele>152.2</ele>
        <time>2026-05-09T09:28:45.000Z</time>
      </trkpt>
      <trkpt lat="43.8326" lon="4.19234">
        <ele>152.1</ele>
        <time>2026-05-09T09:28:46.000Z</time>
      </trkpt>
      <trkpt lat="43.8326" lon="4.19235">
        <ele>151.8</ele>
        <time>2026-05-09T09:28:47.000Z</time>
      </trkpt>
      <trkpt lat="43.83261" lon="4.19236">
        <ele>151.5</ele>
        <time>2026-05-09T09:28:48.000Z</time>
      </trkpt>
      <trkpt lat="43.83261" lon="4.19236">
        <ele>151.6</ele>
        <time>2026-05-09T09:28:49.000Z</time>
      </trkpt>
      <trkpt lat="43.83261" lon="4.19236">
        <ele>151.5</ele>
        <time>2026-05-09T09:28:50.000Z</time>
      </trkpt>
      <trkpt lat="43.8326" lon="4.19236">
        <ele>151.5</ele>
        <time>2026-05-09T09:28:51.000Z</time>
      </trkpt>
      <trkpt lat="43.8326" lon="4.19236">
        <ele>151.5</ele>
        <time>2026-05-09T09:28:52.000Z</time>
      </trkpt>
      <trkpt lat="43.8326" lon="4.19236">
        <ele>151.6</ele>
        <time>2026-05-09T09:28:53.000Z</time>
      </trkpt>
      <trkpt lat="43.8326" lon="4.19236">
        <ele>151.8</ele>
        <time>2026-05-09T09:28:54.000Z</time>
      </trkpt>
      <trkpt lat="43.8326" lon="4.19236">
        <ele>152.2</ele>
        <time>2026-05-09T09:28:55.000Z</time>
      </trkpt>
      <trkpt lat="43.8326" lon="4.19236">
        <ele>152.5</ele>
        <time>2026-05-09T09:28:56.000Z</time>
      </trkpt>
      <trkpt lat="43.8326" lon="4.19236">
        <ele>152.8</ele>
        <time>2026-05-09T09:28:57.000Z</time>
      </trkpt>
      <trkpt lat="43.8326" lon="4.19236">
        <ele>152.9</ele>
        <time>2026-05-09T09:28:58.000Z</time>
      </trkpt>
      <trkpt lat="43.8326" lon="4.19236">
        <ele>153.1</ele>
        <time>2026-05-09T09:28:59.000Z</time>
      </trkpt>
      <trkpt lat="43.8326" lon="4.19236">
        <ele>152.9</ele>
        <time>2026-05-09T09:29:00.000Z</time>
      </trkpt>
      <trkpt lat="43.8326" lon="4.19236">
        <ele>152.9</ele>
        <time>2026-05-09T09:29:01.000Z</time>
      </trkpt>
      <trkpt lat="43.8326" lon="4.19236">
        <ele>152.9</ele>
        <time>2026-05-09T09:29:02.000Z</time>
      </trkpt>
      <trkpt lat="43.8326" lon="4.19236">
        <ele>152.7</ele>
        <time>2026-05-09T09:29:03.000Z</time>
      </trkpt>
      <trkpt lat="43.8326" lon="4.19237">
        <ele>152.7</ele>
        <time>2026-05-09T09:29:04.000Z</time>
      </trkpt>
      <trkpt lat="43.8326" lon="4.19237">
        <ele>152.8</ele>
        <time>2026-05-09T09:29:05.000Z</time>
      </trkpt>
      <trkpt lat="43.8326" lon="4.19237">
        <ele>153.1</ele>
        <time>2026-05-09T09:29:06.000Z</time>
      </trkpt>
      <trkpt lat="43.8326" lon="4.19237">
        <ele>153.3</ele>
        <time>2026-05-09T09:29:07.000Z</time>
      </trkpt>
      <trkpt lat="43.8326" lon="4.19237">
        <ele>153.8</ele>
        <time>2026-05-09T09:29:08.000Z</time>
      </trkpt>
      <trkpt lat="43.8326" lon="4.19237">
        <ele>154.1</ele>
        <time>2026-05-09T09:29:09.000Z</time>
      </trkpt>
      <trkpt lat="43.8326" lon="4.19237">
        <ele>154.4</ele>
        <time>2026-05-09T09:29:10.000Z</time>
      </trkpt>
      <trkpt lat="43.8326" lon="4.19237">
        <ele>154.6</ele>
        <time>2026-05-09T09:29:11.000Z</time>
      </trkpt>
      <trkpt lat="43.8326" lon="4.19237">
        <ele>155</ele>
        <time>2026-05-09T09:29:12.000Z</time>
      </trkpt>
      <trkpt lat="43.8326" lon="4.19238">
        <ele>155.3</ele>
        <time>2026-05-09T09:29:13.000Z</time>
      </trkpt>
      <trkpt lat="43.8326" lon="4.19238">
        <ele>155.6</ele>
        <time>2026-05-09T09:29:14.000Z</time>
      </trkpt>
      <trkpt lat="43.8326" lon="4.19238">
        <ele>155.6</ele>
        <time>2026-05-09T09:29:15.000Z</time>
      </trkpt>
      <trkpt lat="43.8326" lon="4.19238">
        <ele>155.7</ele>
        <time>2026-05-09T09:29:16.000Z</time>
      </trkpt>
      <trkpt lat="43.8326" lon="4.19238">
        <ele>155.6</ele>
        <time>2026-05-09T09:29:17.000Z</time>
      </trkpt>
      <trkpt lat="43.8326" lon="4.19238">
        <ele>155.2</ele>
        <time>2026-05-09T09:29:18.000Z</time>
      </trkpt>
      <trkpt lat="43.8326" lon="4.19239">
        <ele>155.3</ele>
        <time>2026-05-09T09:29:19.000Z</time>
      </trkpt>
      <trkpt lat="43.8326" lon="4.19239">
        <ele>155.4</ele>
        <time>2026-05-09T09:29:20.000Z</time>
      </trkpt>
      <trkpt lat="43.8326" lon="4.19239">
        <ele>155.4</ele>
        <time>2026-05-09T09:29:21.000Z</time>
      </trkpt>
      <trkpt lat="43.8326" lon="4.19239">
        <ele>155.3</ele>
        <time>2026-05-09T09:29:22.000Z</time>
      </trkpt>
      <trkpt lat="43.8326" lon="4.19239">
        <ele>155.2</ele>
        <time>2026-05-09T09:29:23.000Z</time>
      </trkpt>
      <trkpt lat="43.8326" lon="4.19239">
        <ele>155.1</ele>
        <time>2026-05-09T09:29:24.000Z</time>
      </trkpt>
      <trkpt lat="43.8326" lon="4.19239">
        <ele>155</ele>
        <time>2026-05-09T09:29:25.000Z</time>
      </trkpt>
      <trkpt lat="43.83261" lon="4.1924">
        <ele>154.5</ele>
        <time>2026-05-09T09:29:26.000Z</time>
      </trkpt>
      <trkpt lat="43.83261" lon="4.1924">
        <ele>154.1</ele>
        <time>2026-05-09T09:29:27.000Z</time>
      </trkpt>
      <trkpt lat="43.83261" lon="4.1924">
        <ele>153.6</ele>
        <time>2026-05-09T09:29:28.000Z</time>
      </trkpt>
      <trkpt lat="43.83262" lon="4.19239">
        <ele>153.3</ele>
        <time>2026-05-09T09:29:29.000Z</time>
      </trkpt>
      <trkpt lat="43.83262" lon="4.19238">
        <ele>152.9</ele>
        <time>2026-05-09T09:29:30.000Z</time>
      </trkpt>
      <trkpt lat="43.83262" lon="4.19238">
        <ele>152.8</ele>
        <time>2026-05-09T09:29:31.000Z</time>
      </trkpt>
      <trkpt lat="43.83263" lon="4.19238">
        <ele>152.6</ele>
        <time>2026-05-09T09:29:32.000Z</time>
      </trkpt>
      <trkpt lat="43.83263" lon="4.19238">
        <ele>152.2</ele>
        <time>2026-05-09T09:29:33.000Z</time>
      </trkpt>
      <trkpt lat="43.83263" lon="4.19238">
        <ele>151.7</ele>
        <time>2026-05-09T09:29:34.000Z</time>
      </trkpt>
      <trkpt lat="43.83262" lon="4.19238">
        <ele>151.3</ele>
        <time>2026-05-09T09:29:35.000Z</time>
      </trkpt>
      <trkpt lat="43.83262" lon="4.19238">
        <ele>150.9</ele>
        <time>2026-05-09T09:29:36.000Z</time>
      </trkpt>
      <trkpt lat="43.83262" lon="4.19238">
        <ele>150.7</ele>
        <time>2026-05-09T09:29:37.000Z</time>
      </trkpt>
      <trkpt lat="43.83262" lon="4.19238">
        <ele>150.5</ele>
        <time>2026-05-09T09:29:38.000Z</time>
      </trkpt>
      <trkpt lat="43.83263" lon="4.19238">
        <ele>150.3</ele>
        <time>2026-05-09T09:29:39.000Z</time>
      </trkpt>
      <trkpt lat="43.83262" lon="4.19239">
        <ele>150.1</ele>
        <time>2026-05-09T09:29:40.000Z</time>
      </trkpt>
      <trkpt lat="43.83263" lon="4.19239">
        <ele>149.9</ele>
        <time>2026-05-09T09:29:41.000Z</time>
      </trkpt>
      <trkpt lat="43.83262" lon="4.19239">
        <ele>149.9</ele>
        <time>2026-05-09T09:29:42.000Z</time>
      </trkpt>
      <trkpt lat="43.83262" lon="4.19238">
        <ele>150.2</ele>
        <time>2026-05-09T09:29:43.000Z</time>
      </trkpt>
      <trkpt lat="43.83262" lon="4.19238">
        <ele>150.6</ele>
        <time>2026-05-09T09:29:44.000Z</time>
      </trkpt>
      <trkpt lat="43.83262" lon="4.19238">
        <ele>150.9</ele>
        <time>2026-05-09T09:29:45.000Z</time>
      </trkpt>
      <trkpt lat="43.83262" lon="4.19238">
        <ele>151.2</ele>
        <time>2026-05-09T09:29:46.000Z</time>
      </trkpt>
      <trkpt lat="43.83262" lon="4.19238">
        <ele>151.2</ele>
        <time>2026-05-09T09:29:47.000Z</time>
      </trkpt>
      <trkpt lat="43.83262" lon="4.19238">
        <ele>151.4</ele>
        <time>2026-05-09T09:29:48.000Z</time>
      </trkpt>
      <trkpt lat="43.83262" lon="4.19238">
        <ele>151.3</ele>
        <time>2026-05-09T09:29:49.000Z</time>
      </trkpt>
      <trkpt lat="43.83262" lon="4.19238">
        <ele>151.2</ele>
        <time>2026-05-09T09:29:50.000Z</time>
      </trkpt>
      <trkpt lat="43.83262" lon="4.19239">
        <ele>151.2</ele>
        <time>2026-05-09T09:29:51.000Z</time>
      </trkpt>
      <trkpt lat="43.83263" lon="4.1924">
        <ele>151.2</ele>
        <time>2026-05-09T09:29:52.000Z</time>
      </trkpt>
      <trkpt lat="43.83263" lon="4.1924">
        <ele>151</ele>
        <time>2026-05-09T09:29:53.000Z</time>
      </trkpt>
      <trkpt lat="43.83262" lon="4.1924">
        <ele>151.1</ele>
        <time>2026-05-09T09:29:54.000Z</time>
      </trkpt>
      <trkpt lat="43.83262" lon="4.1924">
        <ele>151.1</ele>
        <time>2026-05-09T09:29:55.000Z</time>
      </trkpt>
      <trkpt lat="43.83262" lon="4.1924">
        <ele>150.9</ele>
        <time>2026-05-09T09:29:56.000Z</time>
      </trkpt>
      <trkpt lat="43.83262" lon="4.1924">
        <ele>150.8</ele>
        <time>2026-05-09T09:29:57.000Z</time>
      </trkpt>
      <trkpt lat="43.83262" lon="4.1924">
        <ele>150.8</ele>
        <time>2026-05-09T09:29:58.000Z</time>
      </trkpt>
      <trkpt lat="43.83262" lon="4.1924">
        <ele>151</ele>
        <time>2026-05-09T09:29:59.000Z</time>
      </trkpt>
      <trkpt lat="43.83262" lon="4.1924">
        <ele>151.3</ele>
        <time>2026-05-09T09:30:00.000Z</time>
      </trkpt>
      <trkpt lat="43.83262" lon="4.1924">
        <ele>151.3</ele>
        <time>2026-05-09T09:30:01.000Z</time>
      </trkpt>
      <trkpt lat="43.83262" lon="4.19241">
        <ele>151.2</ele>
        <time>2026-05-09T09:30:02.000Z</time>
      </trkpt>
      <trkpt lat="43.83263" lon="4.19241">
        <ele>151.2</ele>
        <time>2026-05-09T09:30:03.000Z</time>
      </trkpt>
      <trkpt lat="43.83263" lon="4.19241">
        <ele>151.3</ele>
        <time>2026-05-09T09:30:04.000Z</time>
      </trkpt>
      <trkpt lat="43.83263" lon="4.19241">
        <ele>151.4</ele>
        <time>2026-05-09T09:30:05.000Z</time>
      </trkpt>
      <trkpt lat="43.83263" lon="4.19241">
        <ele>151.4</ele>
        <time>2026-05-09T09:30:06.000Z</time>
      </trkpt>
      <trkpt lat="43.83263" lon="4.19241">
        <ele>151.6</ele>
        <time>2026-05-09T09:30:07.000Z</time>
      </trkpt>
      <trkpt lat="43.83263" lon="4.19241">
        <ele>151.7</ele>
        <time>2026-05-09T09:30:08.000Z</time>
      </trkpt>
      <trkpt lat="43.83263" lon="4.19241">
        <ele>152.2</ele>
        <time>2026-05-09T09:30:09.000Z</time>
      </trkpt>
      <trkpt lat="43.83262" lon="4.19241">
        <ele>152.1</ele>
        <time>2026-05-09T09:30:10.000Z</time>
      </trkpt>
      <trkpt lat="43.83262" lon="4.19241">
        <ele>152.1</ele>
        <time>2026-05-09T09:30:11.000Z</time>
      </trkpt>
      <trkpt lat="43.83262" lon="4.19241">
        <ele>152.2</ele>
        <time>2026-05-09T09:30:12.000Z</time>
      </trkpt>
      <trkpt lat="43.83262" lon="4.19241">
        <ele>152.2</ele>
        <time>2026-05-09T09:30:13.000Z</time>
      </trkpt>
      <trkpt lat="43.83262" lon="4.19241">
        <ele>152.4</ele>
        <time>2026-05-09T09:30:14.000Z</time>
      </trkpt>
      <trkpt lat="43.83262" lon="4.19241">
        <ele>152.5</ele>
        <time>2026-05-09T09:30:15.000Z</time>
      </trkpt>
      <trkpt lat="43.83262" lon="4.19242">
        <ele>153</ele>
        <time>2026-05-09T09:30:16.000Z</time>
      </trkpt>
      <trkpt lat="43.83262" lon="4.19242">
        <ele>153.4</ele>
        <time>2026-05-09T09:30:17.000Z</time>
      </trkpt>
      <trkpt lat="43.83262" lon="4.19242">
        <ele>154</ele>
        <time>2026-05-09T09:30:18.000Z</time>
      </trkpt>
      <trkpt lat="43.83262" lon="4.19242">
        <ele>154.3</ele>
        <time>2026-05-09T09:30:19.000Z</time>
      </trkpt>
      <trkpt lat="43.83262" lon="4.19242">
        <ele>154.5</ele>
        <time>2026-05-09T09:30:20.000Z</time>
      </trkpt>
      <trkpt lat="43.83262" lon="4.19242">
        <ele>154.4</ele>
        <time>2026-05-09T09:30:21.000Z</time>
      </trkpt>
      <trkpt lat="43.83261" lon="4.19242">
        <ele>154.3</ele>
        <time>2026-05-09T09:30:22.000Z</time>
      </trkpt>
      <trkpt lat="43.8326" lon="4.19243">
        <ele>154.2</ele>
        <time>2026-05-09T09:30:23.000Z</time>
      </trkpt>
      <trkpt lat="43.8326" lon="4.19243">
        <ele>154.4</ele>
        <time>2026-05-09T09:30:24.000Z</time>
      </trkpt>
      <trkpt lat="43.8326" lon="4.19243">
        <ele>154.2</ele>
        <time>2026-05-09T09:30:25.000Z</time>
      </trkpt>
      <trkpt lat="43.8326" lon="4.19244">
        <ele>154.2</ele>
        <time>2026-05-09T09:30:26.000Z</time>
      </trkpt>
      <trkpt lat="43.8326" lon="4.19244">
        <ele>154</ele>
        <time>2026-05-09T09:30:27.000Z</time>
      </trkpt>
      <trkpt lat="43.8326" lon="4.19244">
        <ele>154.2</ele>
        <time>2026-05-09T09:30:28.000Z</time>
      </trkpt>
      <trkpt lat="43.8326" lon="4.19244">
        <ele>154.3</ele>
        <time>2026-05-09T09:30:29.000Z</time>
      </trkpt>
      <trkpt lat="43.8326" lon="4.19244">
        <ele>154.3</ele>
        <time>2026-05-09T09:30:30.000Z</time>
      </trkpt>
      <trkpt lat="43.8326" lon="4.19245">
        <ele>153.9</ele>
        <time>2026-05-09T09:30:31.000Z</time>
      </trkpt>
      <trkpt lat="43.8326" lon="4.19245">
        <ele>153.8</ele>
        <time>2026-05-09T09:30:32.000Z</time>
      </trkpt>
      <trkpt lat="43.8326" lon="4.19245">
        <ele>153.8</ele>
        <time>2026-05-09T09:30:33.000Z</time>
      </trkpt>
      <trkpt lat="43.8326" lon="4.19246">
        <ele>153.2</ele>
        <time>2026-05-09T09:30:34.000Z</time>
      </trkpt>
      <trkpt lat="43.8326" lon="4.19246">
        <ele>152.8</ele>
        <time>2026-05-09T09:30:35.000Z</time>
      </trkpt>
      <trkpt lat="43.8326" lon="4.19248">
        <ele>152.7</ele>
        <time>2026-05-09T09:30:36.000Z</time>
      </trkpt>
      <trkpt lat="43.83259" lon="4.1925">
        <ele>152.4</ele>
        <time>2026-05-09T09:30:37.000Z</time>
      </trkpt>
      <trkpt lat="43.83259" lon="4.19252">
        <ele>152.4</ele>
        <time>2026-05-09T09:30:38.000Z</time>
      </trkpt>
      <trkpt lat="43.83259" lon="4.19252">
        <ele>152.2</ele>
        <time>2026-05-09T09:30:39.000Z</time>
      </trkpt>
      <trkpt lat="43.83259" lon="4.19252">
        <ele>152</ele>
        <time>2026-05-09T09:30:40.000Z</time>
      </trkpt>
      <trkpt lat="43.83258" lon="4.19252">
        <ele>151.5</ele>
        <time>2026-05-09T09:30:41.000Z</time>
      </trkpt>
      <trkpt lat="43.83258" lon="4.19252">
        <ele>151.1</ele>
        <time>2026-05-09T09:30:42.000Z</time>
      </trkpt>
      <trkpt lat="43.83258" lon="4.19253">
        <ele>151</ele>
        <time>2026-05-09T09:30:43.000Z</time>
      </trkpt>
      <trkpt lat="43.83257" lon="4.19253">
        <ele>150.9</ele>
        <time>2026-05-09T09:30:44.000Z</time>
      </trkpt>
      <trkpt lat="43.83256" lon="4.19254">
        <ele>150.4</ele>
        <time>2026-05-09T09:30:45.000Z</time>
      </trkpt>
      <trkpt lat="43.83255" lon="4.19255">
        <ele>150.2</ele>
        <time>2026-05-09T09:30:46.000Z</time>
      </trkpt>
      <trkpt lat="43.83255" lon="4.19256">
        <ele>149.7</ele>
        <time>2026-05-09T09:30:47.000Z</time>
      </trkpt>
      <trkpt lat="43.83255" lon="4.19257">
        <ele>149.4</ele>
        <time>2026-05-09T09:30:48.000Z</time>
      </trkpt>
      <trkpt lat="43.83255" lon="4.19257">
        <ele>149.5</ele>
        <time>2026-05-09T09:30:49.000Z</time>
      </trkpt>
      <trkpt lat="43.83255" lon="4.19257">
        <ele>149.8</ele>
        <time>2026-05-09T09:30:50.000Z</time>
      </trkpt>
      <trkpt lat="43.83255" lon="4.19256">
        <ele>150.2</ele>
        <time>2026-05-09T09:30:51.000Z</time>
      </trkpt>
      <trkpt lat="43.83255" lon="4.19256">
        <ele>150.3</ele>
        <time>2026-05-09T09:30:52.000Z</time>
      </trkpt>
      <trkpt lat="43.83255" lon="4.19256">
        <ele>150.3</ele>
        <time>2026-05-09T09:30:53.000Z</time>
      </trkpt>
      <trkpt lat="43.83254" lon="4.19257">
        <ele>150.5</ele>
        <time>2026-05-09T09:30:54.000Z</time>
      </trkpt>
      <trkpt lat="43.83253" lon="4.19259">
        <ele>150.4</ele>
        <time>2026-05-09T09:30:55.000Z</time>
      </trkpt>
      <trkpt lat="43.83252" lon="4.1926">
        <ele>150.3</ele>
        <time>2026-05-09T09:30:56.000Z</time>
      </trkpt>
      <trkpt lat="43.83251" lon="4.19261">
        <ele>150.4</ele>
        <time>2026-05-09T09:30:57.000Z</time>
      </trkpt>
      <trkpt lat="43.83251" lon="4.19262">
        <ele>150.4</ele>
        <time>2026-05-09T09:30:58.000Z</time>
      </trkpt>
      <trkpt lat="43.83251" lon="4.19263">
        <ele>150.3</ele>
        <time>2026-05-09T09:30:59.000Z</time>
      </trkpt>
      <trkpt lat="43.8325" lon="4.19263">
        <ele>150.4</ele>
        <time>2026-05-09T09:31:00.000Z</time>
      </trkpt>
      <trkpt lat="43.8325" lon="4.19264">
        <ele>150.6</ele>
        <time>2026-05-09T09:31:01.000Z</time>
      </trkpt>
      <trkpt lat="43.8325" lon="4.19265">
        <ele>150.8</ele>
        <time>2026-05-09T09:31:02.000Z</time>
      </trkpt>
      <trkpt lat="43.8325" lon="4.19267">
        <ele>150.8</ele>
        <time>2026-05-09T09:31:03.000Z</time>
      </trkpt>
      <trkpt lat="43.83249" lon="4.19268">
        <ele>150.2</ele>
        <time>2026-05-09T09:31:04.000Z</time>
      </trkpt>
      <trkpt lat="43.83249" lon="4.19269">
        <ele>150.2</ele>
        <time>2026-05-09T09:31:05.000Z</time>
      </trkpt>
      <trkpt lat="43.83249" lon="4.19269">
        <ele>150.3</ele>
        <time>2026-05-09T09:31:06.000Z</time>
      </trkpt>
      <trkpt lat="43.83249" lon="4.1927">
        <ele>150.4</ele>
        <time>2026-05-09T09:31:07.000Z</time>
      </trkpt>
      <trkpt lat="43.83249" lon="4.1927">
        <ele>150.6</ele>
        <time>2026-05-09T09:31:08.000Z</time>
      </trkpt>
      <trkpt lat="43.83249" lon="4.1927">
        <ele>150.9</ele>
        <time>2026-05-09T09:31:09.000Z</time>
      </trkpt>
      <trkpt lat="43.83248" lon="4.19271">
        <ele>150.5</ele>
        <time>2026-05-09T09:31:10.000Z</time>
      </trkpt>
      <trkpt lat="43.83247" lon="4.19273">
        <ele>150.2</ele>
        <time>2026-05-09T09:31:11.000Z</time>
      </trkpt>
      <trkpt lat="43.83247" lon="4.19274">
        <ele>149.9</ele>
        <time>2026-05-09T09:31:12.000Z</time>
      </trkpt>
      <trkpt lat="43.83246" lon="4.19276">
        <ele>149.9</ele>
        <time>2026-05-09T09:31:13.000Z</time>
      </trkpt>
      <trkpt lat="43.83246" lon="4.19277">
        <ele>149.7</ele>
        <time>2026-05-09T09:31:14.000Z</time>
      </trkpt>
      <trkpt lat="43.83246" lon="4.19278">
        <ele>149.9</ele>
        <time>2026-05-09T09:31:15.000Z</time>
      </trkpt>
      <trkpt lat="43.83246" lon="4.19278">
        <ele>149.6</ele>
        <time>2026-05-09T09:31:16.000Z</time>
      </trkpt>
      <trkpt lat="43.83245" lon="4.19279">
        <ele>149.3</ele>
        <time>2026-05-09T09:31:17.000Z</time>
      </trkpt>
      <trkpt lat="43.83246" lon="4.19279">
        <ele>149</ele>
        <time>2026-05-09T09:31:18.000Z</time>
      </trkpt>
      <trkpt lat="43.83245" lon="4.19279">
        <ele>148.4</ele>
        <time>2026-05-09T09:31:19.000Z</time>
      </trkpt>
      <trkpt lat="43.83245" lon="4.1928">
        <ele>147.7</ele>
        <time>2026-05-09T09:31:20.000Z</time>
      </trkpt>
      <trkpt lat="43.83244" lon="4.19281">
        <ele>146.8</ele>
        <time>2026-05-09T09:31:21.000Z</time>
      </trkpt>
      <trkpt lat="43.83243" lon="4.19281">
        <ele>146</ele>
        <time>2026-05-09T09:31:22.000Z</time>
      </trkpt>
      <trkpt lat="43.83242" lon="4.19281">
        <ele>145.3</ele>
        <time>2026-05-09T09:31:23.000Z</time>
      </trkpt>
      <trkpt lat="43.83242" lon="4.19281">
        <ele>144.8</ele>
        <time>2026-05-09T09:31:24.000Z</time>
      </trkpt>
      <trkpt lat="43.83242" lon="4.19281">
        <ele>144.3</ele>
        <time>2026-05-09T09:31:25.000Z</time>
      </trkpt>
      <trkpt lat="43.83242" lon="4.19282">
        <ele>143.8</ele>
        <time>2026-05-09T09:31:26.000Z</time>
      </trkpt>
      <trkpt lat="43.83242" lon="4.19282">
        <ele>143.3</ele>
        <time>2026-05-09T09:31:27.000Z</time>
      </trkpt>
      <trkpt lat="43.83241" lon="4.19281">
        <ele>142.8</ele>
        <time>2026-05-09T09:31:28.000Z</time>
      </trkpt>
      <trkpt lat="43.83241" lon="4.19282">
        <ele>142.8</ele>
        <time>2026-05-09T09:31:29.000Z</time>
      </trkpt>
      <trkpt lat="43.83241" lon="4.19282">
        <ele>142.7</ele>
        <time>2026-05-09T09:31:30.000Z</time>
      </trkpt>
      <trkpt lat="43.83241" lon="4.19282">
        <ele>142.7</ele>
        <time>2026-05-09T09:31:31.000Z</time>
      </trkpt>
      <trkpt lat="43.8324" lon="4.19285">
        <ele>142.4</ele>
        <time>2026-05-09T09:31:32.000Z</time>
      </trkpt>
      <trkpt lat="43.8324" lon="4.19287">
        <ele>142</ele>
        <time>2026-05-09T09:31:33.000Z</time>
      </trkpt>
      <trkpt lat="43.8324" lon="4.19288">
        <ele>141.5</ele>
        <time>2026-05-09T09:31:34.000Z</time>
      </trkpt>
      <trkpt lat="43.83239" lon="4.19289">
        <ele>141.3</ele>
        <time>2026-05-09T09:31:35.000Z</time>
      </trkpt>
      <trkpt lat="43.83239" lon="4.19289">
        <ele>141.1</ele>
        <time>2026-05-09T09:31:36.000Z</time>
      </trkpt>
      <trkpt lat="43.83239" lon="4.1929">
        <ele>140.5</ele>
        <time>2026-05-09T09:31:37.000Z</time>
      </trkpt>
      <trkpt lat="43.83239" lon="4.19291">
        <ele>140.8</ele>
        <time>2026-05-09T09:31:38.000Z</time>
      </trkpt>
      <trkpt lat="43.83239" lon="4.19291">
        <ele>141.1</ele>
        <time>2026-05-09T09:31:39.000Z</time>
      </trkpt>
      <trkpt lat="43.83238" lon="4.19292">
        <ele>141.2</ele>
        <time>2026-05-09T09:31:40.000Z</time>
      </trkpt>
      <trkpt lat="43.83238" lon="4.19294">
        <ele>141</ele>
        <time>2026-05-09T09:31:41.000Z</time>
      </trkpt>
      <trkpt lat="43.83237" lon="4.19297">
        <ele>140.5</ele>
        <time>2026-05-09T09:31:42.000Z</time>
      </trkpt>
      <trkpt lat="43.83237" lon="4.19299">
        <ele>140.3</ele>
        <time>2026-05-09T09:31:43.000Z</time>
      </trkpt>
      <trkpt lat="43.83237" lon="4.19301">
        <ele>140.2</ele>
        <time>2026-05-09T09:31:44.000Z</time>
      </trkpt>
      <trkpt lat="43.83237" lon="4.19303">
        <ele>140.2</ele>
        <time>2026-05-09T09:31:45.000Z</time>
      </trkpt>
      <trkpt lat="43.83236" lon="4.19305">
        <ele>140.9</ele>
        <time>2026-05-09T09:31:46.000Z</time>
      </trkpt>
      <trkpt lat="43.83235" lon="4.19306">
        <ele>141</ele>
        <time>2026-05-09T09:31:47.000Z</time>
      </trkpt>
      <trkpt lat="43.83234" lon="4.19308">
        <ele>141.1</ele>
        <time>2026-05-09T09:31:48.000Z</time>
      </trkpt>
      <trkpt lat="43.83233" lon="4.19309">
        <ele>141</ele>
        <time>2026-05-09T09:31:49.000Z</time>
      </trkpt>
      <trkpt lat="43.83233" lon="4.19311">
        <ele>140.5</ele>
        <time>2026-05-09T09:31:50.000Z</time>
      </trkpt>
      <trkpt lat="43.83233" lon="4.19311">
        <ele>140.3</ele>
        <time>2026-05-09T09:31:51.000Z</time>
      </trkpt>
      <trkpt lat="43.83232" lon="4.19312">
        <ele>140</ele>
        <time>2026-05-09T09:31:52.000Z</time>
      </trkpt>
      <trkpt lat="43.83232" lon="4.19311">
        <ele>139.7</ele>
        <time>2026-05-09T09:31:53.000Z</time>
      </trkpt>
      <trkpt lat="43.83232" lon="4.19311">
        <ele>139.5</ele>
        <time>2026-05-09T09:31:54.000Z</time>
      </trkpt>
      <trkpt lat="43.83232" lon="4.19311">
        <ele>140.2</ele>
        <time>2026-05-09T09:31:55.000Z</time>
      </trkpt>
      <trkpt lat="43.83232" lon="4.19311">
        <ele>140.4</ele>
        <time>2026-05-09T09:31:56.000Z</time>
      </trkpt>
      <trkpt lat="43.83232" lon="4.19311">
        <ele>140.4</ele>
        <time>2026-05-09T09:31:57.000Z</time>
      </trkpt>
      <trkpt lat="43.83232" lon="4.19311">
        <ele>140.4</ele>
        <time>2026-05-09T09:31:58.000Z</time>
      </trkpt>
      <trkpt lat="43.83232" lon="4.19311">
        <ele>140.5</ele>
        <time>2026-05-09T09:31:59.000Z</time>
      </trkpt>
      <trkpt lat="43.83232" lon="4.19311">
        <ele>140.7</ele>
        <time>2026-05-09T09:32:00.000Z</time>
      </trkpt>
      <trkpt lat="43.83232" lon="4.19311">
        <ele>140.8</ele>
        <time>2026-05-09T09:32:01.999Z</time>
      </trkpt>
      <trkpt lat="43.83232" lon="4.19311">
        <ele>140.7</ele>
        <time>2026-05-09T09:32:02.999Z</time>
      </trkpt>
      <trkpt lat="43.83232" lon="4.1931">
        <ele>140.2</ele>
        <time>2026-05-09T09:32:03.999Z</time>
      </trkpt>
      <trkpt lat="43.83232" lon="4.1931">
        <ele>139.2</ele>
        <time>2026-05-09T09:32:04.999Z</time>
      </trkpt>
      <trkpt lat="43.83232" lon="4.1931">
        <ele>139</ele>
        <time>2026-05-09T09:32:05.999Z</time>
      </trkpt>
      <trkpt lat="43.83232" lon="4.19309">
        <ele>138.7</ele>
        <time>2026-05-09T09:32:06.999Z</time>
      </trkpt>
      <trkpt lat="43.83232" lon="4.19309">
        <ele>138.6</ele>
        <time>2026-05-09T09:32:07.999Z</time>
      </trkpt>
      <trkpt lat="43.83232" lon="4.19309">
        <ele>138.2</ele>
        <time>2026-05-09T09:32:08.999Z</time>
      </trkpt>
      <trkpt lat="43.83232" lon="4.19309">
        <ele>137.5</ele>
        <time>2026-05-09T09:32:09.999Z</time>
      </trkpt>
      <trkpt lat="43.83232" lon="4.19309">
        <ele>136.8</ele>
        <time>2026-05-09T09:32:10.999Z</time>
      </trkpt>
      <trkpt lat="43.83232" lon="4.19308">
        <ele>136.8</ele>
        <time>2026-05-09T09:32:11.999Z</time>
      </trkpt>
      <trkpt lat="43.83232" lon="4.19308">
        <ele>136.9</ele>
        <time>2026-05-09T09:32:12.999Z</time>
      </trkpt>
      <trkpt lat="43.83232" lon="4.19308">
        <ele>136.8</ele>
        <time>2026-05-09T09:32:13.999Z</time>
      </trkpt>
      <trkpt lat="43.83232" lon="4.19308">
        <ele>136.8</ele>
        <time>2026-05-09T09:32:14.999Z</time>
      </trkpt>
      <trkpt lat="43.83233" lon="4.19308">
        <ele>136.7</ele>
        <time>2026-05-09T09:32:15.999Z</time>
      </trkpt>
      <trkpt lat="43.83233" lon="4.19308">
        <ele>136.7</ele>
        <time>2026-05-09T09:32:16.999Z</time>
      </trkpt>
      <trkpt lat="43.83233" lon="4.19308">
        <ele>136.5</ele>
        <time>2026-05-09T09:32:17.999Z</time>
      </trkpt>
      <trkpt lat="43.83232" lon="4.19308">
        <ele>136</ele>
        <time>2026-05-09T09:32:18.999Z</time>
      </trkpt>
      <trkpt lat="43.83232" lon="4.19308">
        <ele>135.5</ele>
        <time>2026-05-09T09:32:19.999Z</time>
      </trkpt>
      <trkpt lat="43.83232" lon="4.19308">
        <ele>135.3</ele>
        <time>2026-05-09T09:32:20.999Z</time>
      </trkpt>
      <trkpt lat="43.83232" lon="4.19308">
        <ele>135.1</ele>
        <time>2026-05-09T09:32:21.999Z</time>
      </trkpt>
      <trkpt lat="43.83232" lon="4.19308">
        <ele>135</ele>
        <time>2026-05-09T09:32:22.999Z</time>
      </trkpt>
      <trkpt lat="43.83232" lon="4.19308">
        <ele>135.3</ele>
        <time>2026-05-09T09:32:23.999Z</time>
      </trkpt>
      <trkpt lat="43.83232" lon="4.19308">
        <ele>135.4</ele>
        <time>2026-05-09T09:32:24.999Z</time>
      </trkpt>
      <trkpt lat="43.83232" lon="4.19308">
        <ele>135.2</ele>
        <time>2026-05-09T09:32:25.999Z</time>
      </trkpt>
      <trkpt lat="43.83232" lon="4.19308">
        <ele>134.9</ele>
        <time>2026-05-09T09:32:26.999Z</time>
      </trkpt>
      <trkpt lat="43.83232" lon="4.19308">
        <ele>134.8</ele>
        <time>2026-05-09T09:32:27.999Z</time>
      </trkpt>
      <trkpt lat="43.83232" lon="4.19308">
        <ele>134.5</ele>
        <time>2026-05-09T09:32:28.999Z</time>
      </trkpt>
      <trkpt lat="43.83232" lon="4.19308">
        <ele>134.2</ele>
        <time>2026-05-09T09:32:29.999Z</time>
      </trkpt>
      <trkpt lat="43.83232" lon="4.19308">
        <ele>134.2</ele>
        <time>2026-05-09T09:32:30.999Z</time>
      </trkpt>
      <trkpt lat="43.83232" lon="4.19308">
        <ele>134</ele>
        <time>2026-05-09T09:32:31.999Z</time>
      </trkpt>
      <trkpt lat="43.83232" lon="4.19308">
        <ele>133.9</ele>
        <time>2026-05-09T09:32:32.999Z</time>
      </trkpt>
      <trkpt lat="43.83232" lon="4.19308">
        <ele>133.9</ele>
        <time>2026-05-09T09:32:33.999Z</time>
      </trkpt>
      <trkpt lat="43.83233" lon="4.19308">
        <ele>133.8</ele>
        <time>2026-05-09T09:32:34.999Z</time>
      </trkpt>
      <trkpt lat="43.83233" lon="4.19308">
        <ele>133.8</ele>
        <time>2026-05-09T09:32:35.999Z</time>
      </trkpt>
      <trkpt lat="43.83233" lon="4.19307">
        <ele>133.7</ele>
        <time>2026-05-09T09:32:36.999Z</time>
      </trkpt>
      <trkpt lat="43.83233" lon="4.19307">
        <ele>133.6</ele>
        <time>2026-05-09T09:32:37.999Z</time>
      </trkpt>
      <trkpt lat="43.83232" lon="4.19307">
        <ele>133.5</ele>
        <time>2026-05-09T09:32:38.999Z</time>
      </trkpt>
      <trkpt lat="43.83231" lon="4.19307">
        <ele>133.5</ele>
        <time>2026-05-09T09:32:39.999Z</time>
      </trkpt>
      <trkpt lat="43.8323" lon="4.19307">
        <ele>133.8</ele>
        <time>2026-05-09T09:32:40.999Z</time>
      </trkpt>
      <trkpt lat="43.83229" lon="4.19306">
        <ele>134.1</ele>
        <time>2026-05-09T09:32:41.999Z</time>
      </trkpt>
      <trkpt lat="43.83229" lon="4.19307">
        <ele>134.5</ele>
        <time>2026-05-09T09:32:42.999Z</time>
      </trkpt>
      <trkpt lat="43.83228" lon="4.19307">
        <ele>134.8</ele>
        <time>2026-05-09T09:32:43.999Z</time>
      </trkpt>
      <trkpt lat="43.83228" lon="4.19307">
        <ele>135.4</ele>
        <time>2026-05-09T09:32:44.999Z</time>
      </trkpt>
      <trkpt lat="43.83228" lon="4.19307">
        <ele>135.7</ele>
        <time>2026-05-09T09:32:45.999Z</time>
      </trkpt>
      <trkpt lat="43.83228" lon="4.19307">
        <ele>135.9</ele>
        <time>2026-05-09T09:32:46.999Z</time>
      </trkpt>
      <trkpt lat="43.83227" lon="4.19307">
        <ele>136.2</ele>
        <time>2026-05-09T09:32:47.999Z</time>
      </trkpt>
      <trkpt lat="43.83227" lon="4.19308">
        <ele>136.4</ele>
        <time>2026-05-09T09:32:48.999Z</time>
      </trkpt>
      <trkpt lat="43.83226" lon="4.19309">
        <ele>136.7</ele>
        <time>2026-05-09T09:32:49.999Z</time>
      </trkpt>
      <trkpt lat="43.83226" lon="4.19309">
        <ele>137</ele>
        <time>2026-05-09T09:32:50.999Z</time>
      </trkpt>
      <trkpt lat="43.83226" lon="4.19309">
        <ele>137</ele>
        <time>2026-05-09T09:32:51.999Z</time>
      </trkpt>
      <trkpt lat="43.83226" lon="4.19309">
        <ele>137</ele>
        <time>2026-05-09T09:32:52.999Z</time>
      </trkpt>
      <trkpt lat="43.83226" lon="4.19309">
        <ele>137.1</ele>
        <time>2026-05-09T09:32:53.999Z</time>
      </trkpt>
      <trkpt lat="43.83226" lon="4.19309">
        <ele>137.1</ele>
        <time>2026-05-09T09:32:54.999Z</time>
      </trkpt>
      <trkpt lat="43.83226" lon="4.19309">
        <ele>137.2</ele>
        <time>2026-05-09T09:32:55.999Z</time>
      </trkpt>
      <trkpt lat="43.83225" lon="4.19309">
        <ele>137.3</ele>
        <time>2026-05-09T09:32:56.999Z</time>
      </trkpt>
      <trkpt lat="43.83225" lon="4.19309">
        <ele>137.3</ele>
        <time>2026-05-09T09:32:57.999Z</time>
      </trkpt>
      <trkpt lat="43.83225" lon="4.19309">
        <ele>137.3</ele>
        <time>2026-05-09T09:32:58.999Z</time>
      </trkpt>
      <trkpt lat="43.83225" lon="4.19309">
        <ele>137.5</ele>
        <time>2026-05-09T09:32:59.999Z</time>
      </trkpt>
      <trkpt lat="43.83225" lon="4.19309">
        <ele>137.6</ele>
        <time>2026-05-09T09:33:00.999Z</time>
      </trkpt>
      <trkpt lat="43.83225" lon="4.19309">
        <ele>137.8</ele>
        <time>2026-05-09T09:33:01.999Z</time>
      </trkpt>
      <trkpt lat="43.83225" lon="4.19309">
        <ele>137.8</ele>
        <time>2026-05-09T09:33:02.999Z</time>
      </trkpt>
      <trkpt lat="43.83225" lon="4.19309">
        <ele>137.8</ele>
        <time>2026-05-09T09:33:03.999Z</time>
      </trkpt>
      <trkpt lat="43.83225" lon="4.19309">
        <ele>137.8</ele>
        <time>2026-05-09T09:33:04.999Z</time>
      </trkpt>
      <trkpt lat="43.83225" lon="4.19309">
        <ele>137.8</ele>
        <time>2026-05-09T09:33:05.999Z</time>
      </trkpt>
      <trkpt lat="43.83225" lon="4.19309">
        <ele>138.1</ele>
        <time>2026-05-09T09:33:06.999Z</time>
      </trkpt>
      <trkpt lat="43.83225" lon="4.19309">
        <ele>138.1</ele>
        <time>2026-05-09T09:33:07.999Z</time>
      </trkpt>
      <trkpt lat="43.83225" lon="4.19309">
        <ele>138</ele>
        <time>2026-05-09T09:33:08.999Z</time>
      </trkpt>
      <trkpt lat="43.83224" lon="4.1931">
        <ele>138.1</ele>
        <time>2026-05-09T09:33:09.999Z</time>
      </trkpt>
      <trkpt lat="43.83224" lon="4.1931">
        <ele>137.9</ele>
        <time>2026-05-09T09:33:10.999Z</time>
      </trkpt>
      <trkpt lat="43.83224" lon="4.19311">
        <ele>137.8</ele>
        <time>2026-05-09T09:33:11.999Z</time>
      </trkpt>
      <trkpt lat="43.83224" lon="4.19312">
        <ele>137.8</ele>
        <time>2026-05-09T09:33:12.999Z</time>
      </trkpt>
      <trkpt lat="43.83224" lon="4.19313">
        <ele>137.9</ele>
        <time>2026-05-09T09:33:13.999Z</time>
      </trkpt>
      <trkpt lat="43.83224" lon="4.19315">
        <ele>138</ele>
        <time>2026-05-09T09:33:14.999Z</time>
      </trkpt>
      <trkpt lat="43.83224" lon="4.19316">
        <ele>138.1</ele>
        <time>2026-05-09T09:33:15.999Z</time>
      </trkpt>
      <trkpt lat="43.83222" lon="4.19318">
        <ele>137.8</ele>
        <time>2026-05-09T09:33:16.999Z</time>
      </trkpt>
      <trkpt lat="43.8322" lon="4.19318">
        <ele>137.3</ele>
        <time>2026-05-09T09:33:17.999Z</time>
      </trkpt>
      <trkpt lat="43.83219" lon="4.19319">
        <ele>137.1</ele>
        <time>2026-05-09T09:33:18.999Z</time>
      </trkpt>
      <trkpt lat="43.83219" lon="4.19319">
        <ele>136.9</ele>
        <time>2026-05-09T09:33:19.999Z</time>
      </trkpt>
      <trkpt lat="43.83218" lon="4.19319">
        <ele>137.1</ele>
        <time>2026-05-09T09:33:20.999Z</time>
      </trkpt>
      <trkpt lat="43.83217" lon="4.19319">
        <ele>137.1</ele>
        <time>2026-05-09T09:33:21.999Z</time>
      </trkpt>
      <trkpt lat="43.83216" lon="4.19319">
        <ele>137.1</ele>
        <time>2026-05-09T09:33:22.999Z</time>
      </trkpt>
      <trkpt lat="43.83215" lon="4.19319">
        <ele>137.3</ele>
        <time>2026-05-09T09:33:23.999Z</time>
      </trkpt>
      <trkpt lat="43.83213" lon="4.19318">
        <ele>137.3</ele>
        <time>2026-05-09T09:33:24.999Z</time>
      </trkpt>
      <trkpt lat="43.83212" lon="4.19317">
        <ele>137.5</ele>
        <time>2026-05-09T09:33:25.999Z</time>
      </trkpt>
      <trkpt lat="43.83211" lon="4.19317">
        <ele>137.7</ele>
        <time>2026-05-09T09:33:26.999Z</time>
      </trkpt>
      <trkpt lat="43.8321" lon="4.19318">
        <ele>138.1</ele>
        <time>2026-05-09T09:33:27.999Z</time>
      </trkpt>
      <trkpt lat="43.83209" lon="4.19319">
        <ele>138.3</ele>
        <time>2026-05-09T09:33:28.999Z</time>
      </trkpt>
      <trkpt lat="43.83208" lon="4.19319">
        <ele>138.4</ele>
        <time>2026-05-09T09:33:29.999Z</time>
      </trkpt>
      <trkpt lat="43.83208" lon="4.1932">
        <ele>138.7</ele>
        <time>2026-05-09T09:33:30.999Z</time>
      </trkpt>
      <trkpt lat="43.83207" lon="4.1932">
        <ele>139.2</ele>
        <time>2026-05-09T09:33:31.999Z</time>
      </trkpt>
      <trkpt lat="43.83206" lon="4.1932">
        <ele>139.3</ele>
        <time>2026-05-09T09:33:32.999Z</time>
      </trkpt>
      <trkpt lat="43.83205" lon="4.19321">
        <ele>139.3</ele>
        <time>2026-05-09T09:33:33.999Z</time>
      </trkpt>
      <trkpt lat="43.83204" lon="4.19322">
        <ele>138.9</ele>
        <time>2026-05-09T09:33:34.999Z</time>
      </trkpt>
      <trkpt lat="43.83203" lon="4.19322">
        <ele>138.5</ele>
        <time>2026-05-09T09:33:35.999Z</time>
      </trkpt>
      <trkpt lat="43.83203" lon="4.19322">
        <ele>138.3</ele>
        <time>2026-05-09T09:33:36.999Z</time>
      </trkpt>
      <trkpt lat="43.83202" lon="4.19323">
        <ele>138.6</ele>
        <time>2026-05-09T09:33:37.999Z</time>
      </trkpt>
      <trkpt lat="43.83202" lon="4.19323">
        <ele>138.9</ele>
        <time>2026-05-09T09:33:38.999Z</time>
      </trkpt>
      <trkpt lat="43.83202" lon="4.19324">
        <ele>138.7</ele>
        <time>2026-05-09T09:33:39.999Z</time>
      </trkpt>
      <trkpt lat="43.83201" lon="4.19324">
        <ele>138.7</ele>
        <time>2026-05-09T09:33:40.999Z</time>
      </trkpt>
      <trkpt lat="43.83201" lon="4.19325">
        <ele>138.6</ele>
        <time>2026-05-09T09:33:41.999Z</time>
      </trkpt>
      <trkpt lat="43.83199" lon="4.19327">
        <ele>138.2</ele>
        <time>2026-05-09T09:33:42.999Z</time>
      </trkpt>
      <trkpt lat="43.83198" lon="4.19329">
        <ele>137.8</ele>
        <time>2026-05-09T09:33:43.999Z</time>
      </trkpt>
      <trkpt lat="43.83197" lon="4.1933">
        <ele>137.6</ele>
        <time>2026-05-09T09:33:44.999Z</time>
      </trkpt>
      <trkpt lat="43.83196" lon="4.19331">
        <ele>137.4</ele>
        <time>2026-05-09T09:33:45.999Z</time>
      </trkpt>
      <trkpt lat="43.83196" lon="4.19332">
        <ele>137.9</ele>
        <time>2026-05-09T09:33:46.999Z</time>
      </trkpt>
      <trkpt lat="43.83196" lon="4.19333">
        <ele>138.5</ele>
        <time>2026-05-09T09:33:47.999Z</time>
      </trkpt>
      <trkpt lat="43.83195" lon="4.19333">
        <ele>138.9</ele>
        <time>2026-05-09T09:33:48.999Z</time>
      </trkpt>
      <trkpt lat="43.83195" lon="4.19333">
        <ele>139</ele>
        <time>2026-05-09T09:33:49.999Z</time>
      </trkpt>
      <trkpt lat="43.83195" lon="4.19334">
        <ele>138.4</ele>
        <time>2026-05-09T09:33:50.999Z</time>
      </trkpt>
      <trkpt lat="43.83195" lon="4.19334">
        <ele>138.5</ele>
        <time>2026-05-09T09:33:51.999Z</time>
      </trkpt>
      <trkpt lat="43.83194" lon="4.19335">
        <ele>138.5</ele>
        <time>2026-05-09T09:33:52.999Z</time>
      </trkpt>
      <trkpt lat="43.83193" lon="4.19336">
        <ele>138.2</ele>
        <time>2026-05-09T09:33:53.999Z</time>
      </trkpt>
      <trkpt lat="43.83192" lon="4.19336">
        <ele>138.3</ele>
        <time>2026-05-09T09:33:54.999Z</time>
      </trkpt>
      <trkpt lat="43.83191" lon="4.19336">
        <ele>138.1</ele>
        <time>2026-05-09T09:33:55.999Z</time>
      </trkpt>
      <trkpt lat="43.8319" lon="4.19337">
        <ele>137.7</ele>
        <time>2026-05-09T09:33:56.999Z</time>
      </trkpt>
      <trkpt lat="43.83189" lon="4.19338">
        <ele>137.8</ele>
        <time>2026-05-09T09:33:57.999Z</time>
      </trkpt>
      <trkpt lat="43.83188" lon="4.19339">
        <ele>137.1</ele>
        <time>2026-05-09T09:33:58.999Z</time>
      </trkpt>
      <trkpt lat="43.83187" lon="4.19339">
        <ele>137.1</ele>
        <time>2026-05-09T09:33:59.999Z</time>
      </trkpt>
      <trkpt lat="43.83186" lon="4.1934">
        <ele>137.2</ele>
        <time>2026-05-09T09:34:00.999Z</time>
      </trkpt>
      <trkpt lat="43.83185" lon="4.19341">
        <ele>137.1</ele>
        <time>2026-05-09T09:34:01.999Z</time>
      </trkpt>
      <trkpt lat="43.83184" lon="4.19342">
        <ele>137.5</ele>
        <time>2026-05-09T09:34:02.999Z</time>
      </trkpt>
      <trkpt lat="43.83184" lon="4.19342">
        <ele>137.5</ele>
        <time>2026-05-09T09:34:03.999Z</time>
      </trkpt>
      <trkpt lat="43.83183" lon="4.19342">
        <ele>137.6</ele>
        <time>2026-05-09T09:34:04.999Z</time>
      </trkpt>
      <trkpt lat="43.83183" lon="4.19343">
        <ele>137.3</ele>
        <time>2026-05-09T09:34:05.999Z</time>
      </trkpt>
      <trkpt lat="43.83183" lon="4.19345">
        <ele>137.6</ele>
        <time>2026-05-09T09:34:06.999Z</time>
      </trkpt>
      <trkpt lat="43.83184" lon="4.19346">
        <ele>137.7</ele>
        <time>2026-05-09T09:34:07.999Z</time>
      </trkpt>
      <trkpt lat="43.83184" lon="4.19346">
        <ele>137.8</ele>
        <time>2026-05-09T09:34:08.999Z</time>
      </trkpt>
      <trkpt lat="43.83184" lon="4.19347">
        <ele>138.4</ele>
        <time>2026-05-09T09:34:09.999Z</time>
      </trkpt>
      <trkpt lat="43.83184" lon="4.19348">
        <ele>138.7</ele>
        <time>2026-05-09T09:34:10.999Z</time>
      </trkpt>
      <trkpt lat="43.83185" lon="4.19349">
        <ele>139.1</ele>
        <time>2026-05-09T09:34:11.999Z</time>
      </trkpt>
      <trkpt lat="43.83185" lon="4.19349">
        <ele>139.7</ele>
        <time>2026-05-09T09:34:12.999Z</time>
      </trkpt>
      <trkpt lat="43.83185" lon="4.19349">
        <ele>139.9</ele>
        <time>2026-05-09T09:34:13.999Z</time>
      </trkpt>
      <trkpt lat="43.83185" lon="4.19349">
        <ele>140</ele>
        <time>2026-05-09T09:34:14.999Z</time>
      </trkpt>
      <trkpt lat="43.83185" lon="4.19349">
        <ele>140</ele>
        <time>2026-05-09T09:34:15.999Z</time>
      </trkpt>
      <trkpt lat="43.83185" lon="4.19349">
        <ele>140</ele>
        <time>2026-05-09T09:34:16.999Z</time>
      </trkpt>
      <trkpt lat="43.83185" lon="4.1935">
        <ele>139.9</ele>
        <time>2026-05-09T09:34:17.999Z</time>
      </trkpt>
      <trkpt lat="43.83184" lon="4.1935">
        <ele>139.4</ele>
        <time>2026-05-09T09:34:18.999Z</time>
      </trkpt>
      <trkpt lat="43.83184" lon="4.19351">
        <ele>139.5</ele>
        <time>2026-05-09T09:34:19.999Z</time>
      </trkpt>
      <trkpt lat="43.83184" lon="4.19351">
        <ele>139.2</ele>
        <time>2026-05-09T09:34:20.999Z</time>
      </trkpt>
      <trkpt lat="43.83184" lon="4.19351">
        <ele>138.9</ele>
        <time>2026-05-09T09:34:21.999Z</time>
      </trkpt>
      <trkpt lat="43.83183" lon="4.19352">
        <ele>138.6</ele>
        <time>2026-05-09T09:34:22.999Z</time>
      </trkpt>
      <trkpt lat="43.83183" lon="4.19352">
        <ele>138.8</ele>
        <time>2026-05-09T09:34:23.999Z</time>
      </trkpt>
      <trkpt lat="43.83183" lon="4.19352">
        <ele>138.8</ele>
        <time>2026-05-09T09:34:24.999Z</time>
      </trkpt>
      <trkpt lat="43.83183" lon="4.19352">
        <ele>139.1</ele>
        <time>2026-05-09T09:34:25.999Z</time>
      </trkpt>
      <trkpt lat="43.83183" lon="4.19353">
        <ele>139.2</ele>
        <time>2026-05-09T09:34:26.999Z</time>
      </trkpt>
      <trkpt lat="43.83183" lon="4.19353">
        <ele>139.4</ele>
        <time>2026-05-09T09:34:27.999Z</time>
      </trkpt>
      <trkpt lat="43.83182" lon="4.19353">
        <ele>139.6</ele>
        <time>2026-05-09T09:34:28.999Z</time>
      </trkpt>
      <trkpt lat="43.83182" lon="4.19353">
        <ele>139.8</ele>
        <time>2026-05-09T09:34:29.999Z</time>
      </trkpt>
      <trkpt lat="43.83182" lon="4.19354">
        <ele>139.6</ele>
        <time>2026-05-09T09:34:30.999Z</time>
      </trkpt>
      <trkpt lat="43.83182" lon="4.19354">
        <ele>139.5</ele>
        <time>2026-05-09T09:34:31.999Z</time>
      </trkpt>
      <trkpt lat="43.83181" lon="4.19355">
        <ele>139.9</ele>
        <time>2026-05-09T09:34:32.999Z</time>
      </trkpt>
      <trkpt lat="43.8318" lon="4.19356">
        <ele>140.4</ele>
        <time>2026-05-09T09:34:33.999Z</time>
      </trkpt>
      <trkpt lat="43.8318" lon="4.19357">
        <ele>140.7</ele>
        <time>2026-05-09T09:34:34.999Z</time>
      </trkpt>
      <trkpt lat="43.83179" lon="4.19357">
        <ele>140.7</ele>
        <time>2026-05-09T09:34:35.999Z</time>
      </trkpt>
      <trkpt lat="43.83179" lon="4.19357">
        <ele>140.9</ele>
        <time>2026-05-09T09:34:36.999Z</time>
      </trkpt>
      <trkpt lat="43.83179" lon="4.19358">
        <ele>140.9</ele>
        <time>2026-05-09T09:34:37.999Z</time>
      </trkpt>
      <trkpt lat="43.83179" lon="4.19358">
        <ele>141.1</ele>
        <time>2026-05-09T09:34:38.999Z</time>
      </trkpt>
      <trkpt lat="43.83179" lon="4.19359">
        <ele>141.2</ele>
        <time>2026-05-09T09:34:39.999Z</time>
      </trkpt>
      <trkpt lat="43.83178" lon="4.19359">
        <ele>141.1</ele>
        <time>2026-05-09T09:34:40.999Z</time>
      </trkpt>
      <trkpt lat="43.83178" lon="4.19359">
        <ele>140.8</ele>
        <time>2026-05-09T09:34:41.999Z</time>
      </trkpt>
      <trkpt lat="43.83178" lon="4.19362">
        <ele>140.6</ele>
        <time>2026-05-09T09:34:42.999Z</time>
      </trkpt>
      <trkpt lat="43.83177" lon="4.19363">
        <ele>140.6</ele>
        <time>2026-05-09T09:34:43.999Z</time>
      </trkpt>
      <trkpt lat="43.83177" lon="4.19364">
        <ele>140.4</ele>
        <time>2026-05-09T09:34:44.999Z</time>
      </trkpt>
      <trkpt lat="43.83176" lon="4.19365">
        <ele>140.2</ele>
        <time>2026-05-09T09:34:45.999Z</time>
      </trkpt>
      <trkpt lat="43.83175" lon="4.19365">
        <ele>140.2</ele>
        <time>2026-05-09T09:34:46.999Z</time>
      </trkpt>
      <trkpt lat="43.83175" lon="4.19366">
        <ele>140.3</ele>
        <time>2026-05-09T09:34:47.999Z</time>
      </trkpt>
      <trkpt lat="43.83175" lon="4.19367">
        <ele>140.4</ele>
        <time>2026-05-09T09:34:48.999Z</time>
      </trkpt>
      <trkpt lat="43.83174" lon="4.19369">
        <ele>140.3</ele>
        <time>2026-05-09T09:34:49.999Z</time>
      </trkpt>
      <trkpt lat="43.83174" lon="4.19371">
        <ele>140.1</ele>
        <time>2026-05-09T09:34:50.999Z</time>
      </trkpt>
      <trkpt lat="43.83174" lon="4.19372">
        <ele>139.9</ele>
        <time>2026-05-09T09:34:51.999Z</time>
      </trkpt>
      <trkpt lat="43.83174" lon="4.19374">
        <ele>139.9</ele>
        <time>2026-05-09T09:34:52.999Z</time>
      </trkpt>
      <trkpt lat="43.83173" lon="4.19375">
        <ele>140</ele>
        <time>2026-05-09T09:34:53.999Z</time>
      </trkpt>
      <trkpt lat="43.83173" lon="4.19376">
        <ele>140.2</ele>
        <time>2026-05-09T09:34:54.999Z</time>
      </trkpt>
      <trkpt lat="43.83173" lon="4.19378">
        <ele>140.2</ele>
        <time>2026-05-09T09:34:55.999Z</time>
      </trkpt>
      <trkpt lat="43.83173" lon="4.19381">
        <ele>140.2</ele>
        <time>2026-05-09T09:34:56.999Z</time>
      </trkpt>
      <trkpt lat="43.83173" lon="4.19382">
        <ele>140.3</ele>
        <time>2026-05-09T09:34:57.999Z</time>
      </trkpt>
      <trkpt lat="43.83172" lon="4.19384">
        <ele>140.8</ele>
        <time>2026-05-09T09:34:58.999Z</time>
      </trkpt>
      <trkpt lat="43.83171" lon="4.19386">
        <ele>141.1</ele>
        <time>2026-05-09T09:34:59.999Z</time>
      </trkpt>
      <trkpt lat="43.83171" lon="4.19388">
        <ele>141.2</ele>
        <time>2026-05-09T09:35:00.999Z</time>
      </trkpt>
      <trkpt lat="43.83171" lon="4.19389">
        <ele>141.7</ele>
        <time>2026-05-09T09:35:01.999Z</time>
      </trkpt>
      <trkpt lat="43.83171" lon="4.19391">
        <ele>142</ele>
        <time>2026-05-09T09:35:02.999Z</time>
      </trkpt>
      <trkpt lat="43.83171" lon="4.19392">
        <ele>141.7</ele>
        <time>2026-05-09T09:35:03.999Z</time>
      </trkpt>
      <trkpt lat="43.83171" lon="4.19392">
        <ele>141.7</ele>
        <time>2026-05-09T09:35:04.999Z</time>
      </trkpt>
      <trkpt lat="43.8317" lon="4.19392">
        <ele>141.7</ele>
        <time>2026-05-09T09:35:05.999Z</time>
      </trkpt>
      <trkpt lat="43.8317" lon="4.19393">
        <ele>141.7</ele>
        <time>2026-05-09T09:35:06.999Z</time>
      </trkpt>
      <trkpt lat="43.8317" lon="4.19393">
        <ele>141.6</ele>
        <time>2026-05-09T09:35:07.999Z</time>
      </trkpt>
      <trkpt lat="43.83171" lon="4.19394">
        <ele>141.5</ele>
        <time>2026-05-09T09:35:08.999Z</time>
      </trkpt>
      <trkpt lat="43.83171" lon="4.19395">
        <ele>141.6</ele>
        <time>2026-05-09T09:35:09.999Z</time>
      </trkpt>
      <trkpt lat="43.83171" lon="4.19396">
        <ele>141.8</ele>
        <time>2026-05-09T09:35:10.999Z</time>
      </trkpt>
      <trkpt lat="43.83172" lon="4.19397">
        <ele>142</ele>
        <time>2026-05-09T09:35:11.999Z</time>
      </trkpt>
      <trkpt lat="43.83172" lon="4.19397">
        <ele>142.3</ele>
        <time>2026-05-09T09:35:12.999Z</time>
      </trkpt>
      <trkpt lat="43.83172" lon="4.19397">
        <ele>142.6</ele>
        <time>2026-05-09T09:35:13.999Z</time>
      </trkpt>
      <trkpt lat="43.83171" lon="4.19398">
        <ele>142.8</ele>
        <time>2026-05-09T09:35:14.999Z</time>
      </trkpt>
      <trkpt lat="43.83171" lon="4.19398">
        <ele>143.5</ele>
        <time>2026-05-09T09:35:15.999Z</time>
      </trkpt>
      <trkpt lat="43.83171" lon="4.19398">
        <ele>144</ele>
        <time>2026-05-09T09:35:16.999Z</time>
      </trkpt>
      <trkpt lat="43.83171" lon="4.19398">
        <ele>144.8</ele>
        <time>2026-05-09T09:35:17.999Z</time>
      </trkpt>
      <trkpt lat="43.83171" lon="4.19399">
        <ele>145.3</ele>
        <time>2026-05-09T09:35:18.999Z</time>
      </trkpt>
      <trkpt lat="43.83171" lon="4.19399">
        <ele>146</ele>
        <time>2026-05-09T09:35:19.999Z</time>
      </trkpt>
      <trkpt lat="43.83171" lon="4.19399">
        <ele>146.4</ele>
        <time>2026-05-09T09:35:20.999Z</time>
      </trkpt>
      <trkpt lat="43.83172" lon="4.19399">
        <ele>147.2</ele>
        <time>2026-05-09T09:35:21.999Z</time>
      </trkpt>
      <trkpt lat="43.83172" lon="4.19399">
        <ele>147.8</ele>
        <time>2026-05-09T09:35:22.999Z</time>
      </trkpt>
      <trkpt lat="43.83172" lon="4.19399">
        <ele>148.2</ele>
        <time>2026-05-09T09:35:23.999Z</time>
      </trkpt>
      <trkpt lat="43.83173" lon="4.194">
        <ele>148.6</ele>
        <time>2026-05-09T09:35:24.999Z</time>
      </trkpt>
      <trkpt lat="43.83174" lon="4.194">
        <ele>149</ele>
        <time>2026-05-09T09:35:25.999Z</time>
      </trkpt>
      <trkpt lat="43.83175" lon="4.19401">
        <ele>149.3</ele>
        <time>2026-05-09T09:35:26.999Z</time>
      </trkpt>
      <trkpt lat="43.83177" lon="4.19401">
        <ele>149.7</ele>
        <time>2026-05-09T09:35:27.999Z</time>
      </trkpt>
      <trkpt lat="43.83178" lon="4.19401">
        <ele>150.1</ele>
        <time>2026-05-09T09:35:28.999Z</time>
      </trkpt>
      <trkpt lat="43.83178" lon="4.19402">
        <ele>150.9</ele>
        <time>2026-05-09T09:35:29.999Z</time>
      </trkpt>
      <trkpt lat="43.8318" lon="4.19402">
        <ele>151.4</ele>
        <time>2026-05-09T09:35:30.999Z</time>
      </trkpt>
      <trkpt lat="43.83181" lon="4.19402">
        <ele>152.2</ele>
        <time>2026-05-09T09:35:31.999Z</time>
      </trkpt>
      <trkpt lat="43.83182" lon="4.19401">
        <ele>152.6</ele>
        <time>2026-05-09T09:35:32.999Z</time>
      </trkpt>
      <trkpt lat="43.83183" lon="4.19401">
        <ele>153.1</ele>
        <time>2026-05-09T09:35:33.999Z</time>
      </trkpt>
      <trkpt lat="43.83184" lon="4.19402">
        <ele>153.6</ele>
        <time>2026-05-09T09:35:34.999Z</time>
      </trkpt>
      <trkpt lat="43.83186" lon="4.19403">
        <ele>154.2</ele>
        <time>2026-05-09T09:35:35.999Z</time>
      </trkpt>
      <trkpt lat="43.83187" lon="4.19403">
        <ele>154.9</ele>
        <time>2026-05-09T09:35:36.999Z</time>
      </trkpt>
      <trkpt lat="43.83188" lon="4.19401">
        <ele>155.6</ele>
        <time>2026-05-09T09:35:37.999Z</time>
      </trkpt>
      <trkpt lat="43.83188" lon="4.194">
        <ele>156.4</ele>
        <time>2026-05-09T09:35:38.999Z</time>
      </trkpt>
      <trkpt lat="43.83188" lon="4.19398">
        <ele>156.2</ele>
        <time>2026-05-09T09:35:39.999Z</time>
      </trkpt>
      <trkpt lat="43.83184" lon="4.19399">
        <ele>155.5</ele>
        <time>2026-05-09T09:35:40.999Z</time>
      </trkpt>
      <trkpt lat="43.83184" lon="4.19399">
        <ele>155.2</ele>
        <time>2026-05-09T09:35:41.999Z</time>
      </trkpt>
      <trkpt lat="43.83182" lon="4.19399">
        <ele>154</ele>
        <time>2026-05-09T09:35:42.999Z</time>
      </trkpt>
      <trkpt lat="43.83182" lon="4.19399">
        <ele>152.9</ele>
        <time>2026-05-09T09:35:43.999Z</time>
      </trkpt>
      <trkpt lat="43.83182" lon="4.19399">
        <ele>151.4</ele>
        <time>2026-05-09T09:35:44.999Z</time>
      </trkpt>
      <trkpt lat="43.83182" lon="4.19399">
        <ele>151.6</ele>
        <time>2026-05-09T09:35:45.999Z</time>
      </trkpt>
      <trkpt lat="43.83183" lon="4.19399">
        <ele>151.7</ele>
        <time>2026-05-09T09:35:46.999Z</time>
      </trkpt>
      <trkpt lat="43.83183" lon="4.19398">
        <ele>151.3</ele>
        <time>2026-05-09T09:35:47.999Z</time>
      </trkpt>
      <trkpt lat="43.83184" lon="4.19398">
        <ele>150</ele>
        <time>2026-05-09T09:35:48.999Z</time>
      </trkpt>
      <trkpt lat="43.83185" lon="4.19398">
        <ele>149.8</ele>
        <time>2026-05-09T09:35:49.999Z</time>
      </trkpt>
      <trkpt lat="43.83185" lon="4.19397">
        <ele>149.2</ele>
        <time>2026-05-09T09:35:50.999Z</time>
      </trkpt>
      <trkpt lat="43.83186" lon="4.19397">
        <ele>148.6</ele>
        <time>2026-05-09T09:35:51.999Z</time>
      </trkpt>
      <trkpt lat="43.83187" lon="4.19396">
        <ele>148.3</ele>
        <time>2026-05-09T09:35:52.999Z</time>
      </trkpt>
      <trkpt lat="43.83187" lon="4.19397">
        <ele>148.4</ele>
        <time>2026-05-09T09:35:53.999Z</time>
      </trkpt>
      <trkpt lat="43.83188" lon="4.19398">
        <ele>149</ele>
        <time>2026-05-09T09:35:54.999Z</time>
      </trkpt>
      <trkpt lat="43.83189" lon="4.19399">
        <ele>149.3</ele>
        <time>2026-05-09T09:35:55.999Z</time>
      </trkpt>
      <trkpt lat="43.83189" lon="4.19401">
        <ele>149.7</ele>
        <time>2026-05-09T09:35:56.999Z</time>
      </trkpt>
      <trkpt lat="43.8319" lon="4.19402">
        <ele>149.6</ele>
        <time>2026-05-09T09:35:57.999Z</time>
      </trkpt>
      <trkpt lat="43.8319" lon="4.19402">
        <ele>149.9</ele>
        <time>2026-05-09T09:35:58.999Z</time>
      </trkpt>
      <trkpt lat="43.8319" lon="4.19403">
        <ele>150</ele>
        <time>2026-05-09T09:35:59.999Z</time>
      </trkpt>
      <trkpt lat="43.83191" lon="4.19405">
        <ele>150</ele>
        <time>2026-05-09T09:36:00.999Z</time>
      </trkpt>
      <trkpt lat="43.83191" lon="4.19405">
        <ele>150.2</ele>
        <time>2026-05-09T09:36:01.999Z</time>
      </trkpt>
      <trkpt lat="43.83192" lon="4.19405">
        <ele>150</ele>
        <time>2026-05-09T09:36:02.999Z</time>
      </trkpt>
      <trkpt lat="43.83193" lon="4.19405">
        <ele>149.9</ele>
        <time>2026-05-09T09:36:03.999Z</time>
      </trkpt>
      <trkpt lat="43.83195" lon="4.19406">
        <ele>149.8</ele>
        <time>2026-05-09T09:36:04.999Z</time>
      </trkpt>
      <trkpt lat="43.83196" lon="4.19407">
        <ele>149.6</ele>
        <time>2026-05-09T09:36:05.999Z</time>
      </trkpt>
      <trkpt lat="43.83197" lon="4.19408">
        <ele>149.2</ele>
        <time>2026-05-09T09:36:06.999Z</time>
      </trkpt>
      <trkpt lat="43.83197" lon="4.19408">
        <ele>149.2</ele>
        <time>2026-05-09T09:36:07.999Z</time>
      </trkpt>
      <trkpt lat="43.83198" lon="4.19407">
        <ele>149.3</ele>
        <time>2026-05-09T09:36:08.999Z</time>
      </trkpt>
      <trkpt lat="43.83198" lon="4.19407">
        <ele>149.2</ele>
        <time>2026-05-09T09:36:09.999Z</time>
      </trkpt>
      <trkpt lat="43.83197" lon="4.19406">
        <ele>148.8</ele>
        <time>2026-05-09T09:36:10.999Z</time>
      </trkpt>
      <trkpt lat="43.83195" lon="4.19405">
        <ele>148.6</ele>
        <time>2026-05-09T09:36:11.999Z</time>
      </trkpt>
      <trkpt lat="43.83194" lon="4.19405">
        <ele>148.3</ele>
        <time>2026-05-09T09:36:12.999Z</time>
      </trkpt>
      <trkpt lat="43.83194" lon="4.19405">
        <ele>148.2</ele>
        <time>2026-05-09T09:36:13.999Z</time>
      </trkpt>
      <trkpt lat="43.83193" lon="4.19405">
        <ele>148.1</ele>
        <time>2026-05-09T09:36:14.999Z</time>
      </trkpt>
      <trkpt lat="43.83193" lon="4.19405">
        <ele>148.1</ele>
        <time>2026-05-09T09:36:15.999Z</time>
      </trkpt>
      <trkpt lat="43.83192" lon="4.19404">
        <ele>148.2</ele>
        <time>2026-05-09T09:36:16.999Z</time>
      </trkpt>
      <trkpt lat="43.8319" lon="4.19403">
        <ele>148.2</ele>
        <time>2026-05-09T09:36:17.999Z</time>
      </trkpt>
      <trkpt lat="43.83189" lon="4.19403">
        <ele>148.2</ele>
        <time>2026-05-09T09:36:18.999Z</time>
      </trkpt>
      <trkpt lat="43.83188" lon="4.19402">
        <ele>148.4</ele>
        <time>2026-05-09T09:36:19.999Z</time>
      </trkpt>
      <trkpt lat="43.83187" lon="4.19403">
        <ele>148.4</ele>
        <time>2026-05-09T09:36:20.999Z</time>
      </trkpt>
      <trkpt lat="43.83185" lon="4.19402">
        <ele>148.4</ele>
        <time>2026-05-09T09:36:21.999Z</time>
      </trkpt>
      <trkpt lat="43.83184" lon="4.19402">
        <ele>148.1</ele>
        <time>2026-05-09T09:36:22.999Z</time>
      </trkpt>
      <trkpt lat="43.83183" lon="4.19403">
        <ele>147.7</ele>
        <time>2026-05-09T09:36:23.999Z</time>
      </trkpt>
      <trkpt lat="43.83182" lon="4.19402">
        <ele>147.3</ele>
        <time>2026-05-09T09:36:24.999Z</time>
      </trkpt>
      <trkpt lat="43.83182" lon="4.19402">
        <ele>146.9</ele>
        <time>2026-05-09T09:36:25.999Z</time>
      </trkpt>
      <trkpt lat="43.83181" lon="4.19401">
        <ele>146.7</ele>
        <time>2026-05-09T09:36:26.999Z</time>
      </trkpt>
      <trkpt lat="43.83181" lon="4.19402">
        <ele>146.6</ele>
        <time>2026-05-09T09:36:27.999Z</time>
      </trkpt>
      <trkpt lat="43.83181" lon="4.19402">
        <ele>146.2</ele>
        <time>2026-05-09T09:36:28.999Z</time>
      </trkpt>
      <trkpt lat="43.83181" lon="4.19402">
        <ele>146.2</ele>
        <time>2026-05-09T09:36:29.999Z</time>
      </trkpt>
      <trkpt lat="43.83181" lon="4.19402">
        <ele>146.6</ele>
        <time>2026-05-09T09:36:30.999Z</time>
      </trkpt>
      <trkpt lat="43.83181" lon="4.19402">
        <ele>146.8</ele>
        <time>2026-05-09T09:36:31.999Z</time>
      </trkpt>
      <trkpt lat="43.83181" lon="4.19402">
        <ele>146.7</ele>
        <time>2026-05-09T09:36:32.999Z</time>
      </trkpt>
      <trkpt lat="43.8318" lon="4.19402">
        <ele>146.4</ele>
        <time>2026-05-09T09:36:33.999Z</time>
      </trkpt>
      <trkpt lat="43.8318" lon="4.19402">
        <ele>146.1</ele>
        <time>2026-05-09T09:36:34.999Z</time>
      </trkpt>
      <trkpt lat="43.83179" lon="4.19402">
        <ele>146</ele>
        <time>2026-05-09T09:36:35.999Z</time>
      </trkpt>
      <trkpt lat="43.83179" lon="4.19402">
        <ele>146.2</ele>
        <time>2026-05-09T09:36:36.999Z</time>
      </trkpt>
      <trkpt lat="43.83179" lon="4.19402">
        <ele>146.5</ele>
        <time>2026-05-09T09:36:37.999Z</time>
      </trkpt>
      <trkpt lat="43.83179" lon="4.19402">
        <ele>146.4</ele>
        <time>2026-05-09T09:36:38.999Z</time>
      </trkpt>
      <trkpt lat="43.83179" lon="4.19402">
        <ele>146.2</ele>
        <time>2026-05-09T09:36:39.999Z</time>
      </trkpt>
      <trkpt lat="43.83179" lon="4.19402">
        <ele>146.1</ele>
        <time>2026-05-09T09:36:40.999Z</time>
      </trkpt>
      <trkpt lat="43.83179" lon="4.19402">
        <ele>145.9</ele>
        <time>2026-05-09T09:36:41.999Z</time>
      </trkpt>
      <trkpt lat="43.8318" lon="4.19402">
        <ele>145.8</ele>
        <time>2026-05-09T09:36:42.999Z</time>
      </trkpt>
      <trkpt lat="43.8318" lon="4.19402">
        <ele>145.6</ele>
        <time>2026-05-09T09:36:43.999Z</time>
      </trkpt>
      <trkpt lat="43.83181" lon="4.19402">
        <ele>145.6</ele>
        <time>2026-05-09T09:36:44.999Z</time>
      </trkpt>
      <trkpt lat="43.83182" lon="4.19401">
        <ele>145.5</ele>
        <time>2026-05-09T09:36:45.999Z</time>
      </trkpt>
      <trkpt lat="43.83183" lon="4.19401">
        <ele>145.6</ele>
        <time>2026-05-09T09:36:46.999Z</time>
      </trkpt>
      <trkpt lat="43.83184" lon="4.19401">
        <ele>145.7</ele>
        <time>2026-05-09T09:36:47.999Z</time>
      </trkpt>
      <trkpt lat="43.83184" lon="4.19401">
        <ele>146</ele>
        <time>2026-05-09T09:36:48.999Z</time>
      </trkpt>
      <trkpt lat="43.83184" lon="4.19401">
        <ele>146.2</ele>
        <time>2026-05-09T09:36:49.999Z</time>
      </trkpt>
      <trkpt lat="43.83185" lon="4.19401">
        <ele>146.3</ele>
        <time>2026-05-09T09:36:50.999Z</time>
      </trkpt>
      <trkpt lat="43.83185" lon="4.19401">
        <ele>146.8</ele>
        <time>2026-05-09T09:36:51.999Z</time>
      </trkpt>
      <trkpt lat="43.83185" lon="4.19402">
        <ele>146.7</ele>
        <time>2026-05-09T09:36:52.999Z</time>
      </trkpt>
      <trkpt lat="43.83186" lon="4.19402">
        <ele>146.8</ele>
        <time>2026-05-09T09:36:53.999Z</time>
      </trkpt>
      <trkpt lat="43.83186" lon="4.19402">
        <ele>147.1</ele>
        <time>2026-05-09T09:36:54.999Z</time>
      </trkpt>
      <trkpt lat="43.83187" lon="4.19403">
        <ele>147.2</ele>
        <time>2026-05-09T09:36:55.999Z</time>
      </trkpt>
      <trkpt lat="43.83188" lon="4.19404">
        <ele>147.4</ele>
        <time>2026-05-09T09:36:56.999Z</time>
      </trkpt>
      <trkpt lat="43.8319" lon="4.19406">
        <ele>147.5</ele>
        <time>2026-05-09T09:36:57.999Z</time>
      </trkpt>
      <trkpt lat="43.83191" lon="4.19407">
        <ele>147.7</ele>
        <time>2026-05-09T09:36:58.999Z</time>
      </trkpt>
      <trkpt lat="43.83192" lon="4.19407">
        <ele>147.7</ele>
        <time>2026-05-09T09:36:59.999Z</time>
      </trkpt>
      <trkpt lat="43.83193" lon="4.19407">
        <ele>147.6</ele>
        <time>2026-05-09T09:37:00.999Z</time>
      </trkpt>
      <trkpt lat="43.83194" lon="4.19407">
        <ele>147.5</ele>
        <time>2026-05-09T09:37:01.999Z</time>
      </trkpt>
      <trkpt lat="43.83195" lon="4.19407">
        <ele>147.2</ele>
        <time>2026-05-09T09:37:02.999Z</time>
      </trkpt>
      <trkpt lat="43.83196" lon="4.19406">
        <ele>147.2</ele>
        <time>2026-05-09T09:37:03.999Z</time>
      </trkpt>
      <trkpt lat="43.83197" lon="4.19406">
        <ele>147.3</ele>
        <time>2026-05-09T09:37:04.999Z</time>
      </trkpt>
      <trkpt lat="43.83198" lon="4.19405">
        <ele>147.4</ele>
        <time>2026-05-09T09:37:05.999Z</time>
      </trkpt>
      <trkpt lat="43.83199" lon="4.19404">
        <ele>147.6</ele>
        <time>2026-05-09T09:37:06.999Z</time>
      </trkpt>
      <trkpt lat="43.832" lon="4.19403">
        <ele>147.7</ele>
        <time>2026-05-09T09:37:07.999Z</time>
      </trkpt>
      <trkpt lat="43.83201" lon="4.19402">
        <ele>147.8</ele>
        <time>2026-05-09T09:37:08.999Z</time>
      </trkpt>
      <trkpt lat="43.83202" lon="4.194">
        <ele>147.9</ele>
        <time>2026-05-09T09:37:09.999Z</time>
      </trkpt>
      <trkpt lat="43.83203" lon="4.19399">
        <ele>147.9</ele>
        <time>2026-05-09T09:37:10.999Z</time>
      </trkpt>
      <trkpt lat="43.83204" lon="4.19397">
        <ele>148.2</ele>
        <time>2026-05-09T09:37:11.999Z</time>
      </trkpt>
      <trkpt lat="43.83205" lon="4.19397">
        <ele>148.4</ele>
        <time>2026-05-09T09:37:12.999Z</time>
      </trkpt>
      <trkpt lat="43.83206" lon="4.19397">
        <ele>148.7</ele>
        <time>2026-05-09T09:37:13.999Z</time>
      </trkpt>
      <trkpt lat="43.83207" lon="4.19396">
        <ele>149</ele>
        <time>2026-05-09T09:37:14.999Z</time>
      </trkpt>
      <trkpt lat="43.83207" lon="4.19395">
        <ele>148.8</ele>
        <time>2026-05-09T09:37:15.999Z</time>
      </trkpt>
      <trkpt lat="43.83208" lon="4.19394">
        <ele>148.7</ele>
        <time>2026-05-09T09:37:16.999Z</time>
      </trkpt>
      <trkpt lat="43.83209" lon="4.19394">
        <ele>149</ele>
        <time>2026-05-09T09:37:17.999Z</time>
      </trkpt>
      <trkpt lat="43.83209" lon="4.19394">
        <ele>149.2</ele>
        <time>2026-05-09T09:37:18.999Z</time>
      </trkpt>
      <trkpt lat="43.8321" lon="4.19394">
        <ele>149.5</ele>
        <time>2026-05-09T09:37:19.999Z</time>
      </trkpt>
      <trkpt lat="43.83211" lon="4.19393">
        <ele>149.7</ele>
        <time>2026-05-09T09:37:20.999Z</time>
      </trkpt>
      <trkpt lat="43.83213" lon="4.19393">
        <ele>149.7</ele>
        <time>2026-05-09T09:37:21.999Z</time>
      </trkpt>
      <trkpt lat="43.83213" lon="4.19392">
        <ele>149.3</ele>
        <time>2026-05-09T09:37:22.999Z</time>
      </trkpt>
      <trkpt lat="43.83215" lon="4.19392">
        <ele>149</ele>
        <time>2026-05-09T09:37:23.999Z</time>
      </trkpt>
      <trkpt lat="43.83216" lon="4.1939">
        <ele>148.6</ele>
        <time>2026-05-09T09:37:24.999Z</time>
      </trkpt>
      <trkpt lat="43.83217" lon="4.19389">
        <ele>148.3</ele>
        <time>2026-05-09T09:37:25.999Z</time>
      </trkpt>
      <trkpt lat="43.83218" lon="4.19388">
        <ele>148.1</ele>
        <time>2026-05-09T09:37:26.999Z</time>
      </trkpt>
      <trkpt lat="43.83219" lon="4.19386">
        <ele>148.3</ele>
        <time>2026-05-09T09:37:27.999Z</time>
      </trkpt>
      <trkpt lat="43.8322" lon="4.19385">
        <ele>148.6</ele>
        <time>2026-05-09T09:37:28.999Z</time>
      </trkpt>
      <trkpt lat="43.8322" lon="4.19384">
        <ele>148.4</ele>
        <time>2026-05-09T09:37:29.999Z</time>
      </trkpt>
      <trkpt lat="43.83221" lon="4.19382">
        <ele>148.5</ele>
        <time>2026-05-09T09:37:30.999Z</time>
      </trkpt>
      <trkpt lat="43.83221" lon="4.1938">
        <ele>148.6</ele>
        <time>2026-05-09T09:37:31.999Z</time>
      </trkpt>
      <trkpt lat="43.83221" lon="4.19379">
        <ele>149.1</ele>
        <time>2026-05-09T09:37:32.999Z</time>
      </trkpt>
      <trkpt lat="43.83222" lon="4.19379">
        <ele>149.3</ele>
        <time>2026-05-09T09:37:33.999Z</time>
      </trkpt>
      <trkpt lat="43.83223" lon="4.19379">
        <ele>149.6</ele>
        <time>2026-05-09T09:37:34.999Z</time>
      </trkpt>
      <trkpt lat="43.83224" lon="4.19379">
        <ele>149.5</ele>
        <time>2026-05-09T09:37:35.999Z</time>
      </trkpt>
      <trkpt lat="43.83225" lon="4.19379">
        <ele>149.4</ele>
        <time>2026-05-09T09:37:36.999Z</time>
      </trkpt>
      <trkpt lat="43.83226" lon="4.19378">
        <ele>149.4</ele>
        <time>2026-05-09T09:37:37.999Z</time>
      </trkpt>
      <trkpt lat="43.83227" lon="4.19377">
        <ele>149.3</ele>
        <time>2026-05-09T09:37:38.999Z</time>
      </trkpt>
      <trkpt lat="43.8323" lon="4.19375">
        <ele>149</ele>
        <time>2026-05-09T09:37:40.999Z</time>
      </trkpt>
      <trkpt lat="43.83231" lon="4.19374">
        <ele>148.9</ele>
        <time>2026-05-09T09:37:41.999Z</time>
      </trkpt>
      <trkpt lat="43.83231" lon="4.19372">
        <ele>148.6</ele>
        <time>2026-05-09T09:37:42.999Z</time>
      </trkpt>
      <trkpt lat="43.83232" lon="4.19371">
        <ele>148.3</ele>
        <time>2026-05-09T09:37:43.999Z</time>
      </trkpt>
      <trkpt lat="43.83233" lon="4.19369">
        <ele>147.8</ele>
        <time>2026-05-09T09:37:44.999Z</time>
      </trkpt>
      <trkpt lat="43.83233" lon="4.19368">
        <ele>148</ele>
        <time>2026-05-09T09:37:45.999Z</time>
      </trkpt>
      <trkpt lat="43.83233" lon="4.19367">
        <ele>148</ele>
        <time>2026-05-09T09:37:46.999Z</time>
      </trkpt>
      <trkpt lat="43.83234" lon="4.19366">
        <ele>148.1</ele>
        <time>2026-05-09T09:37:47.999Z</time>
      </trkpt>
      <trkpt lat="43.83234" lon="4.19366">
        <ele>148</ele>
        <time>2026-05-09T09:37:48.999Z</time>
      </trkpt>
      <trkpt lat="43.83235" lon="4.19366">
        <ele>148.1</ele>
        <time>2026-05-09T09:37:49.999Z</time>
      </trkpt>
      <trkpt lat="43.83235" lon="4.19366">
        <ele>148.4</ele>
        <time>2026-05-09T09:37:50.999Z</time>
      </trkpt>
      <trkpt lat="43.83235" lon="4.19366">
        <ele>148.8</ele>
        <time>2026-05-09T09:37:51.999Z</time>
      </trkpt>
      <trkpt lat="43.83235" lon="4.19366">
        <ele>148.9</ele>
        <time>2026-05-09T09:37:52.999Z</time>
      </trkpt>
      <trkpt lat="43.83235" lon="4.19366">
        <ele>149</ele>
        <time>2026-05-09T09:37:53.999Z</time>
      </trkpt>
      <trkpt lat="43.83235" lon="4.19366">
        <ele>149.1</ele>
        <time>2026-05-09T09:37:54.999Z</time>
      </trkpt>
      <trkpt lat="43.83236" lon="4.19366">
        <ele>149.2</ele>
        <time>2026-05-09T09:37:55.999Z</time>
      </trkpt>
      <trkpt lat="43.83237" lon="4.19366">
        <ele>149.3</ele>
        <time>2026-05-09T09:37:56.999Z</time>
      </trkpt>
      <trkpt lat="43.83238" lon="4.19366">
        <ele>149.4</ele>
        <time>2026-05-09T09:37:57.999Z</time>
      </trkpt>
      <trkpt lat="43.8324" lon="4.19365">
        <ele>149.7</ele>
        <time>2026-05-09T09:37:58.999Z</time>
      </trkpt>
      <trkpt lat="43.83242" lon="4.19365">
        <ele>149.9</ele>
        <time>2026-05-09T09:37:59.999Z</time>
      </trkpt>
      <trkpt lat="43.83244" lon="4.19364">
        <ele>150.2</ele>
        <time>2026-05-09T09:38:00.999Z</time>
      </trkpt>
      <trkpt lat="43.83245" lon="4.19364">
        <ele>150.5</ele>
        <time>2026-05-09T09:38:01.999Z</time>
      </trkpt>
      <trkpt lat="43.83247" lon="4.19363">
        <ele>150.9</ele>
        <time>2026-05-09T09:38:02.999Z</time>
      </trkpt>
      <trkpt lat="43.83248" lon="4.19363">
        <ele>151.2</ele>
        <time>2026-05-09T09:38:03.999Z</time>
      </trkpt>
      <trkpt lat="43.83249" lon="4.19363">
        <ele>151.4</ele>
        <time>2026-05-09T09:38:04.999Z</time>
      </trkpt>
      <trkpt lat="43.8325" lon="4.19363">
        <ele>151.7</ele>
        <time>2026-05-09T09:38:05.999Z</time>
      </trkpt>
      <trkpt lat="43.83251" lon="4.19362">
        <ele>151.8</ele>
        <time>2026-05-09T09:38:06.999Z</time>
      </trkpt>
      <trkpt lat="43.83251" lon="4.19362">
        <ele>151.7</ele>
        <time>2026-05-09T09:38:07.999Z</time>
      </trkpt>
      <trkpt lat="43.83252" lon="4.19362">
        <ele>151.5</ele>
        <time>2026-05-09T09:38:08.999Z</time>
      </trkpt>
      <trkpt lat="43.83252" lon="4.19363">
        <ele>151.1</ele>
        <time>2026-05-09T09:38:09.999Z</time>
      </trkpt>
      <trkpt lat="43.83253" lon="4.19363">
        <ele>151</ele>
        <time>2026-05-09T09:38:10.999Z</time>
      </trkpt>
      <trkpt lat="43.83254" lon="4.19364">
        <ele>151.2</ele>
        <time>2026-05-09T09:38:11.999Z</time>
      </trkpt>
      <trkpt lat="43.83254" lon="4.19365">
        <ele>151.4</ele>
        <time>2026-05-09T09:38:12.999Z</time>
      </trkpt>
      <trkpt lat="43.83255" lon="4.19365">
        <ele>151.3</ele>
        <time>2026-05-09T09:38:13.999Z</time>
      </trkpt>
      <trkpt lat="43.83256" lon="4.19365">
        <ele>151.1</ele>
        <time>2026-05-09T09:38:14.999Z</time>
      </trkpt>
      <trkpt lat="43.83257" lon="4.19365">
        <ele>150.9</ele>
        <time>2026-05-09T09:38:15.999Z</time>
      </trkpt>
      <trkpt lat="43.83258" lon="4.19366">
        <ele>150.6</ele>
        <time>2026-05-09T09:38:16.999Z</time>
      </trkpt>
      <trkpt lat="43.83259" lon="4.19367">
        <ele>150.8</ele>
        <time>2026-05-09T09:38:17.999Z</time>
      </trkpt>
      <trkpt lat="43.83259" lon="4.19368">
        <ele>150.8</ele>
        <time>2026-05-09T09:38:18.999Z</time>
      </trkpt>
      <trkpt lat="43.8326" lon="4.19369">
        <ele>150.9</ele>
        <time>2026-05-09T09:38:19.999Z</time>
      </trkpt>
      <trkpt lat="43.8326" lon="4.1937">
        <ele>151.1</ele>
        <time>2026-05-09T09:38:20.999Z</time>
      </trkpt>
      <trkpt lat="43.8326" lon="4.19372">
        <ele>151.6</ele>
        <time>2026-05-09T09:38:21.999Z</time>
      </trkpt>
      <trkpt lat="43.83261" lon="4.19373">
        <ele>152.6</ele>
        <time>2026-05-09T09:38:22.999Z</time>
      </trkpt>
      <trkpt lat="43.83261" lon="4.19373">
        <ele>153.1</ele>
        <time>2026-05-09T09:38:23.999Z</time>
      </trkpt>
      <trkpt lat="43.83262" lon="4.19373">
        <ele>153.7</ele>
        <time>2026-05-09T09:38:24.999Z</time>
      </trkpt>
      <trkpt lat="43.83262" lon="4.19373">
        <ele>152.3</ele>
        <time>2026-05-09T09:38:25.999Z</time>
      </trkpt>
      <trkpt lat="43.83263" lon="4.19372">
        <ele>152.5</ele>
        <time>2026-05-09T09:38:26.999Z</time>
      </trkpt>
      <trkpt lat="43.83263" lon="4.19372">
        <ele>152.5</ele>
        <time>2026-05-09T09:38:27.999Z</time>
      </trkpt>
      <trkpt lat="43.83265" lon="4.19372">
        <ele>152.3</ele>
        <time>2026-05-09T09:38:28.999Z</time>
      </trkpt>
      <trkpt lat="43.83266" lon="4.19371">
        <ele>152.9</ele>
        <time>2026-05-09T09:38:29.999Z</time>
      </trkpt>
      <trkpt lat="43.83266" lon="4.1937">
        <ele>153.2</ele>
        <time>2026-05-09T09:38:30.999Z</time>
      </trkpt>
      <trkpt lat="43.83267" lon="4.19371">
        <ele>153.6</ele>
        <time>2026-05-09T09:38:31.999Z</time>
      </trkpt>
      <trkpt lat="43.83268" lon="4.1937">
        <ele>154</ele>
        <time>2026-05-09T09:38:32.999Z</time>
      </trkpt>
      <trkpt lat="43.83268" lon="4.1937">
        <ele>154.7</ele>
        <time>2026-05-09T09:38:33.999Z</time>
      </trkpt>
      <trkpt lat="43.83269" lon="4.1937">
        <ele>154.8</ele>
        <time>2026-05-09T09:38:34.999Z</time>
      </trkpt>
      <trkpt lat="43.83269" lon="4.19371">
        <ele>154.9</ele>
        <time>2026-05-09T09:38:35.999Z</time>
      </trkpt>
      <trkpt lat="43.83269" lon="4.1937">
        <ele>154.9</ele>
        <time>2026-05-09T09:38:36.999Z</time>
      </trkpt>
      <trkpt lat="43.83269" lon="4.1937">
        <ele>154.6</ele>
        <time>2026-05-09T09:38:37.999Z</time>
      </trkpt>
      <trkpt lat="43.83269" lon="4.1937">
        <ele>154.6</ele>
        <time>2026-05-09T09:38:38.999Z</time>
      </trkpt>
      <trkpt lat="43.83269" lon="4.1937">
        <ele>154.6</ele>
        <time>2026-05-09T09:38:39.999Z</time>
      </trkpt>
      <trkpt lat="43.83269" lon="4.19371">
        <ele>154.6</ele>
        <time>2026-05-09T09:38:40.999Z</time>
      </trkpt>
      <trkpt lat="43.83269" lon="4.19371">
        <ele>154.7</ele>
        <time>2026-05-09T09:38:41.999Z</time>
      </trkpt>
      <trkpt lat="43.83269" lon="4.19371">
        <ele>154.4</ele>
        <time>2026-05-09T09:38:42.999Z</time>
      </trkpt>
      <trkpt lat="43.83269" lon="4.1937">
        <ele>154.2</ele>
        <time>2026-05-09T09:38:43.999Z</time>
      </trkpt>
      <trkpt lat="43.83269" lon="4.1937">
        <ele>154</ele>
        <time>2026-05-09T09:38:44.999Z</time>
      </trkpt>
      <trkpt lat="43.8327" lon="4.1937">
        <ele>153.6</ele>
        <time>2026-05-09T09:38:45.999Z</time>
      </trkpt>
      <trkpt lat="43.83272" lon="4.1937">
        <ele>153.2</ele>
        <time>2026-05-09T09:38:46.999Z</time>
      </trkpt>
      <trkpt lat="43.83273" lon="4.1937">
        <ele>153.3</ele>
        <time>2026-05-09T09:38:47.999Z</time>
      </trkpt>
      <trkpt lat="43.83274" lon="4.19371">
        <ele>153.3</ele>
        <time>2026-05-09T09:38:48.999Z</time>
      </trkpt>
      <trkpt lat="43.83276" lon="4.19371">
        <ele>153.1</ele>
        <time>2026-05-09T09:38:49.999Z</time>
      </trkpt>
      <trkpt lat="43.83276" lon="4.19371">
        <ele>153.3</ele>
        <time>2026-05-09T09:38:50.999Z</time>
      </trkpt>
      <trkpt lat="43.83276" lon="4.19371">
        <ele>153.5</ele>
        <time>2026-05-09T09:38:51.999Z</time>
      </trkpt>
      <trkpt lat="43.83276" lon="4.19371">
        <ele>153.8</ele>
        <time>2026-05-09T09:38:52.999Z</time>
      </trkpt>
      <trkpt lat="43.83277" lon="4.19372">
        <ele>154.3</ele>
        <time>2026-05-09T09:38:53.999Z</time>
      </trkpt>
      <trkpt lat="43.83279" lon="4.19372">
        <ele>154.5</ele>
        <time>2026-05-09T09:38:54.999Z</time>
      </trkpt>
      <trkpt lat="43.8328" lon="4.19373">
        <ele>154.5</ele>
        <time>2026-05-09T09:38:55.999Z</time>
      </trkpt>
      <trkpt lat="43.83282" lon="4.19374">
        <ele>154.9</ele>
        <time>2026-05-09T09:38:56.999Z</time>
      </trkpt>
      <trkpt lat="43.83283" lon="4.19374">
        <ele>155.2</ele>
        <time>2026-05-09T09:38:57.999Z</time>
      </trkpt>
      <trkpt lat="43.83283" lon="4.19374">
        <ele>155.5</ele>
        <time>2026-05-09T09:38:58.999Z</time>
      </trkpt>
      <trkpt lat="43.83284" lon="4.19374">
        <ele>155.9</ele>
        <time>2026-05-09T09:38:59.999Z</time>
      </trkpt>
      <trkpt lat="43.83285" lon="4.19374">
        <ele>155.9</ele>
        <time>2026-05-09T09:39:00.999Z</time>
      </trkpt>
      <trkpt lat="43.83286" lon="4.19375">
        <ele>156.1</ele>
        <time>2026-05-09T09:39:01.999Z</time>
      </trkpt>
      <trkpt lat="43.83287" lon="4.19376">
        <ele>156.5</ele>
        <time>2026-05-09T09:39:02.999Z</time>
      </trkpt>
      <trkpt lat="43.83288" lon="4.19376">
        <ele>156.5</ele>
        <time>2026-05-09T09:39:03.999Z</time>
      </trkpt>
      <trkpt lat="43.83288" lon="4.19376">
        <ele>156.5</ele>
        <time>2026-05-09T09:39:04.999Z</time>
      </trkpt>
      <trkpt lat="43.83289" lon="4.19375">
        <ele>156.6</ele>
        <time>2026-05-09T09:39:05.999Z</time>
      </trkpt>
      <trkpt lat="43.83289" lon="4.19374">
        <ele>156.6</ele>
        <time>2026-05-09T09:39:06.999Z</time>
      </trkpt>
      <trkpt lat="43.8329" lon="4.19374">
        <ele>156.2</ele>
        <time>2026-05-09T09:39:07.999Z</time>
      </trkpt>
      <trkpt lat="43.83292" lon="4.19375">
        <ele>156.3</ele>
        <time>2026-05-09T09:39:08.999Z</time>
      </trkpt>
      <trkpt lat="43.83292" lon="4.19374">
        <ele>156.2</ele>
        <time>2026-05-09T09:39:09.999Z</time>
      </trkpt>
      <trkpt lat="43.83293" lon="4.19374">
        <ele>156.1</ele>
        <time>2026-05-09T09:39:10.999Z</time>
      </trkpt>
      <trkpt lat="43.83294" lon="4.19374">
        <ele>156.1</ele>
        <time>2026-05-09T09:39:11.999Z</time>
      </trkpt>
      <trkpt lat="43.83295" lon="4.19373">
        <ele>156.6</ele>
        <time>2026-05-09T09:39:12.999Z</time>
      </trkpt>
      <trkpt lat="43.83295" lon="4.19374">
        <ele>157.1</ele>
        <time>2026-05-09T09:39:13.999Z</time>
      </trkpt>
      <trkpt lat="43.83296" lon="4.19374">
        <ele>157.5</ele>
        <time>2026-05-09T09:39:14.999Z</time>
      </trkpt>
      <trkpt lat="43.83297" lon="4.19375">
        <ele>157.8</ele>
        <time>2026-05-09T09:39:15.999Z</time>
      </trkpt>
      <trkpt lat="43.83297" lon="4.19375">
        <ele>157.9</ele>
        <time>2026-05-09T09:39:16.999Z</time>
      </trkpt>
      <trkpt lat="43.83298" lon="4.19376">
        <ele>158.1</ele>
        <time>2026-05-09T09:39:17.999Z</time>
      </trkpt>
      <trkpt lat="43.83299" lon="4.19376">
        <ele>158</ele>
        <time>2026-05-09T09:39:18.999Z</time>
      </trkpt>
      <trkpt lat="43.833" lon="4.19376">
        <ele>157.7</ele>
        <time>2026-05-09T09:39:19.999Z</time>
      </trkpt>
      <trkpt lat="43.833" lon="4.19376">
        <ele>157.5</ele>
        <time>2026-05-09T09:39:20.999Z</time>
      </trkpt>
      <trkpt lat="43.83301" lon="4.19377">
        <ele>157.9</ele>
        <time>2026-05-09T09:39:21.999Z</time>
      </trkpt>
      <trkpt lat="43.83301" lon="4.19377">
        <ele>158</ele>
        <time>2026-05-09T09:39:22.999Z</time>
      </trkpt>
      <trkpt lat="43.83302" lon="4.19377">
        <ele>158.4</ele>
        <time>2026-05-09T09:39:23.999Z</time>
      </trkpt>
      <trkpt lat="43.83302" lon="4.19377">
        <ele>158.3</ele>
        <time>2026-05-09T09:39:24.999Z</time>
      </trkpt>
      <trkpt lat="43.83302" lon="4.19376">
        <ele>158.4</ele>
        <time>2026-05-09T09:39:25.999Z</time>
      </trkpt>
      <trkpt lat="43.83303" lon="4.19376">
        <ele>158.5</ele>
        <time>2026-05-09T09:39:26.999Z</time>
      </trkpt>
      <trkpt lat="43.83303" lon="4.19376">
        <ele>158.9</ele>
        <time>2026-05-09T09:39:27.999Z</time>
      </trkpt>
      <trkpt lat="43.83303" lon="4.19376">
        <ele>158.9</ele>
        <time>2026-05-09T09:39:28.999Z</time>
      </trkpt>
      <trkpt lat="43.83303" lon="4.19376">
        <ele>159.1</ele>
        <time>2026-05-09T09:39:29.999Z</time>
      </trkpt>
      <trkpt lat="43.83303" lon="4.19377">
        <ele>159.4</ele>
        <time>2026-05-09T09:39:30.999Z</time>
      </trkpt>
      <trkpt lat="43.83304" lon="4.19377">
        <ele>159.5</ele>
        <time>2026-05-09T09:39:31.999Z</time>
      </trkpt>
      <trkpt lat="43.83304" lon="4.19377">
        <ele>159.6</ele>
        <time>2026-05-09T09:39:32.999Z</time>
      </trkpt>
      <trkpt lat="43.83304" lon="4.19377">
        <ele>159.9</ele>
        <time>2026-05-09T09:39:33.999Z</time>
      </trkpt>
      <trkpt lat="43.83304" lon="4.19377">
        <ele>160.1</ele>
        <time>2026-05-09T09:39:34.999Z</time>
      </trkpt>
      <trkpt lat="43.83304" lon="4.19377">
        <ele>160.1</ele>
        <time>2026-05-09T09:39:35.999Z</time>
      </trkpt>
      <trkpt lat="43.83304" lon="4.19377">
        <ele>160.2</ele>
        <time>2026-05-09T09:39:36.999Z</time>
      </trkpt>
      <trkpt lat="43.83304" lon="4.19377">
        <ele>160.3</ele>
        <time>2026-05-09T09:39:37.999Z</time>
      </trkpt>
      <trkpt lat="43.83304" lon="4.19377">
        <ele>160.4</ele>
        <time>2026-05-09T09:39:38.999Z</time>
      </trkpt>
      <trkpt lat="43.83305" lon="4.19376">
        <ele>160.6</ele>
        <time>2026-05-09T09:39:39.999Z</time>
      </trkpt>
      <trkpt lat="43.83306" lon="4.19376">
        <ele>160.9</ele>
        <time>2026-05-09T09:39:40.999Z</time>
      </trkpt>
      <trkpt lat="43.83307" lon="4.19376">
        <ele>161.1</ele>
        <time>2026-05-09T09:39:41.999Z</time>
      </trkpt>
      <trkpt lat="43.83308" lon="4.19376">
        <ele>161.2</ele>
        <time>2026-05-09T09:39:42.999Z</time>
      </trkpt>
      <trkpt lat="43.8331" lon="4.19376">
        <ele>161.1</ele>
        <time>2026-05-09T09:39:43.999Z</time>
      </trkpt>
      <trkpt lat="43.83312" lon="4.19377">
        <ele>161.4</ele>
        <time>2026-05-09T09:39:44.999Z</time>
      </trkpt>
      <trkpt lat="43.83313" lon="4.19377">
        <ele>161.8</ele>
        <time>2026-05-09T09:39:45.999Z</time>
      </trkpt>
      <trkpt lat="43.83315" lon="4.19377">
        <ele>161.7</ele>
        <time>2026-05-09T09:39:46.999Z</time>
      </trkpt>
      <trkpt lat="43.83316" lon="4.19377">
        <ele>161.9</ele>
        <time>2026-05-09T09:39:47.999Z</time>
      </trkpt>
      <trkpt lat="43.83316" lon="4.19378">
        <ele>161.8</ele>
        <time>2026-05-09T09:39:48.999Z</time>
      </trkpt>
      <trkpt lat="43.83317" lon="4.19378">
        <ele>162</ele>
        <time>2026-05-09T09:39:49.999Z</time>
      </trkpt>
      <trkpt lat="43.83318" lon="4.19379">
        <ele>162.2</ele>
        <time>2026-05-09T09:39:50.999Z</time>
      </trkpt>
      <trkpt lat="43.83319" lon="4.19379">
        <ele>162.5</ele>
        <time>2026-05-09T09:39:51.999Z</time>
      </trkpt>
      <trkpt lat="43.8332" lon="4.19378">
        <ele>162.9</ele>
        <time>2026-05-09T09:39:52.999Z</time>
      </trkpt>
      <trkpt lat="43.83321" lon="4.19377">
        <ele>163.3</ele>
        <time>2026-05-09T09:39:53.999Z</time>
      </trkpt>
      <trkpt lat="43.83322" lon="4.19377">
        <ele>163.5</ele>
        <time>2026-05-09T09:39:54.999Z</time>
      </trkpt>
      <trkpt lat="43.83322" lon="4.19377">
        <ele>163.5</ele>
        <time>2026-05-09T09:39:55.999Z</time>
      </trkpt>
      <trkpt lat="43.83323" lon="4.19376">
        <ele>163.8</ele>
        <time>2026-05-09T09:39:56.999Z</time>
      </trkpt>
      <trkpt lat="43.83323" lon="4.19376">
        <ele>163.6</ele>
        <time>2026-05-09T09:39:57.999Z</time>
      </trkpt>
      <trkpt lat="43.83323" lon="4.19376">
        <ele>163.3</ele>
        <time>2026-05-09T09:39:58.999Z</time>
      </trkpt>
      <trkpt lat="43.83323" lon="4.19376">
        <ele>163.3</ele>
        <time>2026-05-09T09:39:59.999Z</time>
      </trkpt>
      <trkpt lat="43.83323" lon="4.19376">
        <ele>163.4</ele>
        <time>2026-05-09T09:40:00.999Z</time>
      </trkpt>
      <trkpt lat="43.83323" lon="4.19376">
        <ele>163.6</ele>
        <time>2026-05-09T09:40:01.999Z</time>
      </trkpt>
      <trkpt lat="43.83323" lon="4.19376">
        <ele>163.3</ele>
        <time>2026-05-09T09:40:02.999Z</time>
      </trkpt>
      <trkpt lat="43.83323" lon="4.19376">
        <ele>163.7</ele>
        <time>2026-05-09T09:40:03.999Z</time>
      </trkpt>
      <trkpt lat="43.83324" lon="4.19376">
        <ele>163.9</ele>
        <time>2026-05-09T09:40:04.999Z</time>
      </trkpt>
      <trkpt lat="43.83324" lon="4.19376">
        <ele>164.1</ele>
        <time>2026-05-09T09:40:05.999Z</time>
      </trkpt>
      <trkpt lat="43.83324" lon="4.19376">
        <ele>164.3</ele>
        <time>2026-05-09T09:40:06.999Z</time>
      </trkpt>
      <trkpt lat="43.83323" lon="4.19376">
        <ele>164.2</ele>
        <time>2026-05-09T09:40:07.999Z</time>
      </trkpt>
      <trkpt lat="43.83323" lon="4.19376">
        <ele>164.1</ele>
        <time>2026-05-09T09:40:08.999Z</time>
      </trkpt>
      <trkpt lat="43.83323" lon="4.19376">
        <ele>164</ele>
        <time>2026-05-09T09:40:09.999Z</time>
      </trkpt>
      <trkpt lat="43.83323" lon="4.19376">
        <ele>164.2</ele>
        <time>2026-05-09T09:40:10.999Z</time>
      </trkpt>
      <trkpt lat="43.83324" lon="4.19376">
        <ele>164.5</ele>
        <time>2026-05-09T09:40:11.999Z</time>
      </trkpt>
      <trkpt lat="43.83324" lon="4.19376">
        <ele>164.8</ele>
        <time>2026-05-09T09:40:12.999Z</time>
      </trkpt>
      <trkpt lat="43.83324" lon="4.19377">
        <ele>164.8</ele>
        <time>2026-05-09T09:40:13.999Z</time>
      </trkpt>
      <trkpt lat="43.83324" lon="4.19377">
        <ele>165</ele>
        <time>2026-05-09T09:40:14.999Z</time>
      </trkpt>
      <trkpt lat="43.83324" lon="4.19377">
        <ele>165.1</ele>
        <time>2026-05-09T09:40:15.999Z</time>
      </trkpt>
      <trkpt lat="43.83324" lon="4.19377">
        <ele>165.5</ele>
        <time>2026-05-09T09:40:16.999Z</time>
      </trkpt>
      <trkpt lat="43.83324" lon="4.19377">
        <ele>165.7</ele>
        <time>2026-05-09T09:40:17.999Z</time>
      </trkpt>
      <trkpt lat="43.83324" lon="4.19377">
        <ele>165.9</ele>
        <time>2026-05-09T09:40:18.999Z</time>
      </trkpt>
      <trkpt lat="43.83324" lon="4.19377">
        <ele>165.8</ele>
        <time>2026-05-09T09:40:19.999Z</time>
      </trkpt>
      <trkpt lat="43.83324" lon="4.19378">
        <ele>165.9</ele>
        <time>2026-05-09T09:40:20.999Z</time>
      </trkpt>
      <trkpt lat="43.83324" lon="4.19378">
        <ele>165.8</ele>
        <time>2026-05-09T09:40:21.999Z</time>
      </trkpt>
      <trkpt lat="43.83325" lon="4.19378">
        <ele>165.6</ele>
        <time>2026-05-09T09:40:22.999Z</time>
      </trkpt>
      <trkpt lat="43.83325" lon="4.19378">
        <ele>165.5</ele>
        <time>2026-05-09T09:40:23.999Z</time>
      </trkpt>
      <trkpt lat="43.83325" lon="4.19379">
        <ele>165.7</ele>
        <time>2026-05-09T09:40:24.999Z</time>
      </trkpt>
      <trkpt lat="43.83327" lon="4.19382">
        <ele>165.7</ele>
        <time>2026-05-09T09:40:25.999Z</time>
      </trkpt>
      <trkpt lat="43.83327" lon="4.19383">
        <ele>165.7</ele>
        <time>2026-05-09T09:40:26.999Z</time>
      </trkpt>
      <trkpt lat="43.83327" lon="4.19384">
        <ele>165.4</ele>
        <time>2026-05-09T09:40:27.999Z</time>
      </trkpt>
      <trkpt lat="43.83327" lon="4.19385">
        <ele>165.3</ele>
        <time>2026-05-09T09:40:28.999Z</time>
      </trkpt>
      <trkpt lat="43.83327" lon="4.19386">
        <ele>165.5</ele>
        <time>2026-05-09T09:40:29.999Z</time>
      </trkpt>
      <trkpt lat="43.83327" lon="4.19387">
        <ele>165.6</ele>
        <time>2026-05-09T09:40:30.999Z</time>
      </trkpt>
      <trkpt lat="43.83328" lon="4.19387">
        <ele>165.4</ele>
        <time>2026-05-09T09:40:31.999Z</time>
      </trkpt>
      <trkpt lat="43.83328" lon="4.19387">
        <ele>165.2</ele>
        <time>2026-05-09T09:40:32.999Z</time>
      </trkpt>
      <trkpt lat="43.83328" lon="4.19387">
        <ele>165.1</ele>
        <time>2026-05-09T09:40:33.999Z</time>
      </trkpt>
      <trkpt lat="43.83328" lon="4.19385">
        <ele>165.2</ele>
        <time>2026-05-09T09:40:34.999Z</time>
      </trkpt>
      <trkpt lat="43.83328" lon="4.19383">
        <ele>165.1</ele>
        <time>2026-05-09T09:40:35.999Z</time>
      </trkpt>
      <trkpt lat="43.83328" lon="4.19381">
        <ele>165.2</ele>
        <time>2026-05-09T09:40:36.999Z</time>
      </trkpt>
      <trkpt lat="43.83329" lon="4.19379">
        <ele>165.4</ele>
        <time>2026-05-09T09:40:37.999Z</time>
      </trkpt>
      <trkpt lat="43.83329" lon="4.19379">
        <ele>165.4</ele>
        <time>2026-05-09T09:40:38.999Z</time>
      </trkpt>
      <trkpt lat="43.8333" lon="4.19379">
        <ele>165.6</ele>
        <time>2026-05-09T09:40:39.999Z</time>
      </trkpt>
      <trkpt lat="43.8333" lon="4.19379">
        <ele>165.5</ele>
        <time>2026-05-09T09:40:40.999Z</time>
      </trkpt>
      <trkpt lat="43.8333" lon="4.19379">
        <ele>166.1</ele>
        <time>2026-05-09T09:40:41.999Z</time>
      </trkpt>
      <trkpt lat="43.8333" lon="4.1938">
        <ele>166.7</ele>
        <time>2026-05-09T09:40:42.999Z</time>
      </trkpt>
      <trkpt lat="43.8333" lon="4.1938">
        <ele>167</ele>
        <time>2026-05-09T09:40:43.999Z</time>
      </trkpt>
      <trkpt lat="43.8333" lon="4.1938">
        <ele>167.2</ele>
        <time>2026-05-09T09:40:44.999Z</time>
      </trkpt>
      <trkpt lat="43.8333" lon="4.1938">
        <ele>167.3</ele>
        <time>2026-05-09T09:40:45.999Z</time>
      </trkpt>
      <trkpt lat="43.8333" lon="4.19381">
        <ele>167.3</ele>
        <time>2026-05-09T09:40:46.999Z</time>
      </trkpt>
      <trkpt lat="43.83331" lon="4.19383">
        <ele>167</ele>
        <time>2026-05-09T09:40:47.999Z</time>
      </trkpt>
      <trkpt lat="43.83331" lon="4.19385">
        <ele>167</ele>
        <time>2026-05-09T09:40:48.999Z</time>
      </trkpt>
      <trkpt lat="43.83331" lon="4.19387">
        <ele>167.1</ele>
        <time>2026-05-09T09:40:49.999Z</time>
      </trkpt>
      <trkpt lat="43.83331" lon="4.19389">
        <ele>167</ele>
        <time>2026-05-09T09:40:50.999Z</time>
      </trkpt>
      <trkpt lat="43.8333" lon="4.1939">
        <ele>166.7</ele>
        <time>2026-05-09T09:40:51.999Z</time>
      </trkpt>
      <trkpt lat="43.83329" lon="4.19392">
        <ele>166.3</ele>
        <time>2026-05-09T09:40:52.999Z</time>
      </trkpt>
      <trkpt lat="43.83328" lon="4.19393">
        <ele>165.8</ele>
        <time>2026-05-09T09:40:53.999Z</time>
      </trkpt>
      <trkpt lat="43.83328" lon="4.19394">
        <ele>165.8</ele>
        <time>2026-05-09T09:40:54.999Z</time>
      </trkpt>
      <trkpt lat="43.83327" lon="4.19396">
        <ele>165.7</ele>
        <time>2026-05-09T09:40:55.999Z</time>
      </trkpt>
      <trkpt lat="43.83326" lon="4.19397">
        <ele>166</ele>
        <time>2026-05-09T09:40:56.999Z</time>
      </trkpt>
      <trkpt lat="43.83326" lon="4.19399">
        <ele>165.9</ele>
        <time>2026-05-09T09:40:57.999Z</time>
      </trkpt>
      <trkpt lat="43.83326" lon="4.194">
        <ele>165.6</ele>
        <time>2026-05-09T09:40:58.999Z</time>
      </trkpt>
      <trkpt lat="43.83325" lon="4.19402">
        <ele>165.3</ele>
        <time>2026-05-09T09:40:59.999Z</time>
      </trkpt>
      <trkpt lat="43.83325" lon="4.19403">
        <ele>165.2</ele>
        <time>2026-05-09T09:41:00.999Z</time>
      </trkpt>
      <trkpt lat="43.83324" lon="4.19405">
        <ele>165</ele>
        <time>2026-05-09T09:41:01.999Z</time>
      </trkpt>
      <trkpt lat="43.83323" lon="4.19407">
        <ele>165</ele>
        <time>2026-05-09T09:41:02.999Z</time>
      </trkpt>
      <trkpt lat="43.83323" lon="4.19409">
        <ele>165</ele>
        <time>2026-05-09T09:41:03.999Z</time>
      </trkpt>
      <trkpt lat="43.83323" lon="4.19411">
        <ele>164.7</ele>
        <time>2026-05-09T09:41:04.999Z</time>
      </trkpt>
      <trkpt lat="43.83323" lon="4.19412">
        <ele>164.4</ele>
        <time>2026-05-09T09:41:05.999Z</time>
      </trkpt>
      <trkpt lat="43.83323" lon="4.19414">
        <ele>164.2</ele>
        <time>2026-05-09T09:41:06.999Z</time>
      </trkpt>
      <trkpt lat="43.83323" lon="4.19416">
        <ele>164.1</ele>
        <time>2026-05-09T09:41:07.999Z</time>
      </trkpt>
      <trkpt lat="43.83323" lon="4.19418">
        <ele>163.9</ele>
        <time>2026-05-09T09:41:08.999Z</time>
      </trkpt>
      <trkpt lat="43.83323" lon="4.1942">
        <ele>163.6</ele>
        <time>2026-05-09T09:41:09.999Z</time>
      </trkpt>
      <trkpt lat="43.83323" lon="4.19422">
        <ele>163.3</ele>
        <time>2026-05-09T09:41:10.999Z</time>
      </trkpt>
      <trkpt lat="43.83323" lon="4.19423">
        <ele>163.3</ele>
        <time>2026-05-09T09:41:11.999Z</time>
      </trkpt>
      <trkpt lat="43.83324" lon="4.19424">
        <ele>163.5</ele>
        <time>2026-05-09T09:41:12.999Z</time>
      </trkpt>
      <trkpt lat="43.83325" lon="4.19425">
        <ele>163.4</ele>
        <time>2026-05-09T09:41:13.999Z</time>
      </trkpt>
      <trkpt lat="43.83326" lon="4.19426">
        <ele>163.5</ele>
        <time>2026-05-09T09:41:14.999Z</time>
      </trkpt>
      <trkpt lat="43.83327" lon="4.19428">
        <ele>163.5</ele>
        <time>2026-05-09T09:41:15.999Z</time>
      </trkpt>
      <trkpt lat="43.83328" lon="4.19429">
        <ele>163.6</ele>
        <time>2026-05-09T09:41:16.999Z</time>
      </trkpt>
      <trkpt lat="43.83328" lon="4.19431">
        <ele>163.7</ele>
        <time>2026-05-09T09:41:17.999Z</time>
      </trkpt>
      <trkpt lat="43.83328" lon="4.19433">
        <ele>163.5</ele>
        <time>2026-05-09T09:41:18.999Z</time>
      </trkpt>
      <trkpt lat="43.83329" lon="4.19434">
        <ele>163.7</ele>
        <time>2026-05-09T09:41:19.999Z</time>
      </trkpt>
      <trkpt lat="43.8333" lon="4.19436">
        <ele>163.9</ele>
        <time>2026-05-09T09:41:20.999Z</time>
      </trkpt>
      <trkpt lat="43.83331" lon="4.19437">
        <ele>163.9</ele>
        <time>2026-05-09T09:41:21.999Z</time>
      </trkpt>
      <trkpt lat="43.83331" lon="4.19439">
        <ele>164.2</ele>
        <time>2026-05-09T09:41:22.999Z</time>
      </trkpt>
      <trkpt lat="43.83332" lon="4.1944">
        <ele>164.4</ele>
        <time>2026-05-09T09:41:23.999Z</time>
      </trkpt>
      <trkpt lat="43.83333" lon="4.1944">
        <ele>164.5</ele>
        <time>2026-05-09T09:41:24.999Z</time>
      </trkpt>
      <trkpt lat="43.83333" lon="4.19441">
        <ele>164.7</ele>
        <time>2026-05-09T09:41:25.999Z</time>
      </trkpt>
      <trkpt lat="43.83334" lon="4.19442">
        <ele>164.9</ele>
        <time>2026-05-09T09:41:26.999Z</time>
      </trkpt>
      <trkpt lat="43.83334" lon="4.19445">
        <ele>165.3</ele>
        <time>2026-05-09T09:41:27.999Z</time>
      </trkpt>
      <trkpt lat="43.83335" lon="4.19446">
        <ele>165.4</ele>
        <time>2026-05-09T09:41:28.999Z</time>
      </trkpt>
      <trkpt lat="43.83335" lon="4.19448">
        <ele>165.2</ele>
        <time>2026-05-09T09:41:29.999Z</time>
      </trkpt>
      <trkpt lat="43.83335" lon="4.19449">
        <ele>164.9</ele>
        <time>2026-05-09T09:41:30.999Z</time>
      </trkpt>
      <trkpt lat="43.83335" lon="4.1945">
        <ele>164.9</ele>
        <time>2026-05-09T09:41:31.999Z</time>
      </trkpt>
      <trkpt lat="43.83335" lon="4.19452">
        <ele>165</ele>
        <time>2026-05-09T09:41:32.999Z</time>
      </trkpt>
      <trkpt lat="43.83335" lon="4.19453">
        <ele>165.3</ele>
        <time>2026-05-09T09:41:33.999Z</time>
      </trkpt>
      <trkpt lat="43.83335" lon="4.19454">
        <ele>165.5</ele>
        <time>2026-05-09T09:41:34.999Z</time>
      </trkpt>
      <trkpt lat="43.83335" lon="4.19454">
        <ele>165.6</ele>
        <time>2026-05-09T09:41:35.999Z</time>
      </trkpt>
      <trkpt lat="43.83334" lon="4.19455">
        <ele>165.8</ele>
        <time>2026-05-09T09:41:36.999Z</time>
      </trkpt>
      <trkpt lat="43.83335" lon="4.19456">
        <ele>165.6</ele>
        <time>2026-05-09T09:41:37.999Z</time>
      </trkpt>
      <trkpt lat="43.83335" lon="4.19456">
        <ele>165.3</ele>
        <time>2026-05-09T09:41:38.999Z</time>
      </trkpt>
      <trkpt lat="43.83336" lon="4.19458">
        <ele>165.2</ele>
        <time>2026-05-09T09:41:39.999Z</time>
      </trkpt>
      <trkpt lat="43.83336" lon="4.19459">
        <ele>165.4</ele>
        <time>2026-05-09T09:41:40.999Z</time>
      </trkpt>
      <trkpt lat="43.83336" lon="4.1946">
        <ele>165.3</ele>
        <time>2026-05-09T09:41:41.999Z</time>
      </trkpt>
      <trkpt lat="43.83336" lon="4.1946">
        <ele>165.8</ele>
        <time>2026-05-09T09:41:42.999Z</time>
      </trkpt>
      <trkpt lat="43.83336" lon="4.1946">
        <ele>165.9</ele>
        <time>2026-05-09T09:41:43.999Z</time>
      </trkpt>
      <trkpt lat="43.83336" lon="4.19461">
        <ele>165.9</ele>
        <time>2026-05-09T09:41:44.999Z</time>
      </trkpt>
      <trkpt lat="43.83336" lon="4.19461">
        <ele>166.1</ele>
        <time>2026-05-09T09:41:45.999Z</time>
      </trkpt>
      <trkpt lat="43.83336" lon="4.19461">
        <ele>166.1</ele>
        <time>2026-05-09T09:41:46.999Z</time>
      </trkpt>
      <trkpt lat="43.83336" lon="4.19461">
        <ele>166</ele>
        <time>2026-05-09T09:41:47.999Z</time>
      </trkpt>
      <trkpt lat="43.83336" lon="4.19461">
        <ele>165.9</ele>
        <time>2026-05-09T09:41:48.999Z</time>
      </trkpt>
      <trkpt lat="43.83336" lon="4.19462">
        <ele>166</ele>
        <time>2026-05-09T09:41:49.999Z</time>
      </trkpt>
      <trkpt lat="43.83335" lon="4.19463">
        <ele>165.8</ele>
        <time>2026-05-09T09:41:50.999Z</time>
      </trkpt>
      <trkpt lat="43.83335" lon="4.19464">
        <ele>165.7</ele>
        <time>2026-05-09T09:41:51.999Z</time>
      </trkpt>
      <trkpt lat="43.83335" lon="4.19465">
        <ele>165.6</ele>
        <time>2026-05-09T09:41:52.999Z</time>
      </trkpt>
      <trkpt lat="43.83335" lon="4.19466">
        <ele>165.5</ele>
        <time>2026-05-09T09:41:53.999Z</time>
      </trkpt>
      <trkpt lat="43.83335" lon="4.19468">
        <ele>165.4</ele>
        <time>2026-05-09T09:41:54.999Z</time>
      </trkpt>
      <trkpt lat="43.83335" lon="4.1947">
        <ele>165.4</ele>
        <time>2026-05-09T09:41:55.999Z</time>
      </trkpt>
      <trkpt lat="43.83335" lon="4.19472">
        <ele>165.5</ele>
        <time>2026-05-09T09:41:56.999Z</time>
      </trkpt>
      <trkpt lat="43.83335" lon="4.19473">
        <ele>165.6</ele>
        <time>2026-05-09T09:41:57.999Z</time>
      </trkpt>
      <trkpt lat="43.83335" lon="4.19474">
        <ele>165.6</ele>
        <time>2026-05-09T09:41:58.999Z</time>
      </trkpt>
      <trkpt lat="43.83335" lon="4.19476">
        <ele>165.7</ele>
        <time>2026-05-09T09:41:59.999Z</time>
      </trkpt>
      <trkpt lat="43.83335" lon="4.19477">
        <ele>165.7</ele>
        <time>2026-05-09T09:42:00.999Z</time>
      </trkpt>
      <trkpt lat="43.83335" lon="4.19479">
        <ele>165.9</ele>
        <time>2026-05-09T09:42:01.999Z</time>
      </trkpt>
      <trkpt lat="43.83334" lon="4.19481">
        <ele>165.9</ele>
        <time>2026-05-09T09:42:02.999Z</time>
      </trkpt>
      <trkpt lat="43.83334" lon="4.19483">
        <ele>165.9</ele>
        <time>2026-05-09T09:42:03.999Z</time>
      </trkpt>
      <trkpt lat="43.83334" lon="4.19485">
        <ele>165.9</ele>
        <time>2026-05-09T09:42:04.999Z</time>
      </trkpt>
      <trkpt lat="43.83334" lon="4.19487">
        <ele>165.9</ele>
        <time>2026-05-09T09:42:05.999Z</time>
      </trkpt>
      <trkpt lat="43.83334" lon="4.19488">
        <ele>165.9</ele>
        <time>2026-05-09T09:42:06.999Z</time>
      </trkpt>
      <trkpt lat="43.83334" lon="4.1949">
        <ele>165.6</ele>
        <time>2026-05-09T09:42:07.999Z</time>
      </trkpt>
      <trkpt lat="43.83334" lon="4.19491">
        <ele>165.8</ele>
        <time>2026-05-09T09:42:08.999Z</time>
      </trkpt>
      <trkpt lat="43.83333" lon="4.19493">
        <ele>165.9</ele>
        <time>2026-05-09T09:42:09.999Z</time>
      </trkpt>
      <trkpt lat="43.83333" lon="4.19494">
        <ele>165.8</ele>
        <time>2026-05-09T09:42:10.999Z</time>
      </trkpt>
      <trkpt lat="43.83332" lon="4.19495">
        <ele>166</ele>
        <time>2026-05-09T09:42:11.999Z</time>
      </trkpt>
      <trkpt lat="43.83332" lon="4.19498">
        <ele>165.7</ele>
        <time>2026-05-09T09:42:12.999Z</time>
      </trkpt>
      <trkpt lat="43.83331" lon="4.195">
        <ele>165.4</ele>
        <time>2026-05-09T09:42:13.999Z</time>
      </trkpt>
      <trkpt lat="43.83332" lon="4.19502">
        <ele>165.7</ele>
        <time>2026-05-09T09:42:14.999Z</time>
      </trkpt>
      <trkpt lat="43.83332" lon="4.19503">
        <ele>165.6</ele>
        <time>2026-05-09T09:42:15.999Z</time>
      </trkpt>
      <trkpt lat="43.83332" lon="4.19504">
        <ele>165.7</ele>
        <time>2026-05-09T09:42:16.999Z</time>
      </trkpt>
      <trkpt lat="43.83332" lon="4.19506">
        <ele>166.4</ele>
        <time>2026-05-09T09:42:17.999Z</time>
      </trkpt>
      <trkpt lat="43.83332" lon="4.19507">
        <ele>166.5</ele>
        <time>2026-05-09T09:42:18.999Z</time>
      </trkpt>
      <trkpt lat="43.83332" lon="4.19509">
        <ele>166.3</ele>
        <time>2026-05-09T09:42:19.999Z</time>
      </trkpt>
      <trkpt lat="43.83332" lon="4.1951">
        <ele>166.5</ele>
        <time>2026-05-09T09:42:20.999Z</time>
      </trkpt>
      <trkpt lat="43.83332" lon="4.19512">
        <ele>166.3</ele>
        <time>2026-05-09T09:42:21.999Z</time>
      </trkpt>
      <trkpt lat="43.83333" lon="4.19513">
        <ele>166.4</ele>
        <time>2026-05-09T09:42:22.999Z</time>
      </trkpt>
      <trkpt lat="43.83333" lon="4.19515">
        <ele>167</ele>
        <time>2026-05-09T09:42:23.999Z</time>
      </trkpt>
      <trkpt lat="43.83334" lon="4.19516">
        <ele>167.1</ele>
        <time>2026-05-09T09:42:24.999Z</time>
      </trkpt>
      <trkpt lat="43.83334" lon="4.19517">
        <ele>167.3</ele>
        <time>2026-05-09T09:42:25.999Z</time>
      </trkpt>
      <trkpt lat="43.83335" lon="4.19518">
        <ele>167.4</ele>
        <time>2026-05-09T09:42:26.999Z</time>
      </trkpt>
      <trkpt lat="43.83336" lon="4.19519">
        <ele>167.5</ele>
        <time>2026-05-09T09:42:27.999Z</time>
      </trkpt>
      <trkpt lat="43.83337" lon="4.1952">
        <ele>167.3</ele>
        <time>2026-05-09T09:42:28.999Z</time>
      </trkpt>
      <trkpt lat="43.83338" lon="4.1952">
        <ele>167.5</ele>
        <time>2026-05-09T09:42:29.999Z</time>
      </trkpt>
      <trkpt lat="43.83338" lon="4.19521">
        <ele>167.7</ele>
        <time>2026-05-09T09:42:30.999Z</time>
      </trkpt>
      <trkpt lat="43.83339" lon="4.1952">
        <ele>167.4</ele>
        <time>2026-05-09T09:42:31.999Z</time>
      </trkpt>
      <trkpt lat="43.83341" lon="4.1952">
        <ele>167.2</ele>
        <time>2026-05-09T09:42:32.999Z</time>
      </trkpt>
      <trkpt lat="43.83341" lon="4.1952">
        <ele>167.3</ele>
        <time>2026-05-09T09:42:33.999Z</time>
      </trkpt>
      <trkpt lat="43.83343" lon="4.1952">
        <ele>167.5</ele>
        <time>2026-05-09T09:42:34.999Z</time>
      </trkpt>
      <trkpt lat="43.83344" lon="4.19519">
        <ele>167.7</ele>
        <time>2026-05-09T09:42:35.999Z</time>
      </trkpt>
      <trkpt lat="43.83344" lon="4.19519">
        <ele>167.7</ele>
        <time>2026-05-09T09:42:36.999Z</time>
      </trkpt>
      <trkpt lat="43.83345" lon="4.19518">
        <ele>167.8</ele>
        <time>2026-05-09T09:42:37.999Z</time>
      </trkpt>
      <trkpt lat="43.83347" lon="4.19518">
        <ele>167.7</ele>
        <time>2026-05-09T09:42:38.999Z</time>
      </trkpt>
      <trkpt lat="43.83348" lon="4.19518">
        <ele>167.5</ele>
        <time>2026-05-09T09:42:39.999Z</time>
      </trkpt>
      <trkpt lat="43.83349" lon="4.19518">
        <ele>167.4</ele>
        <time>2026-05-09T09:42:40.999Z</time>
      </trkpt>
      <trkpt lat="43.8335" lon="4.19517">
        <ele>167.5</ele>
        <time>2026-05-09T09:42:41.999Z</time>
      </trkpt>
      <trkpt lat="43.83351" lon="4.19517">
        <ele>167.5</ele>
        <time>2026-05-09T09:42:42.999Z</time>
      </trkpt>
      <trkpt lat="43.83351" lon="4.19518">
        <ele>167.7</ele>
        <time>2026-05-09T09:42:43.999Z</time>
      </trkpt>
      <trkpt lat="43.83352" lon="4.19518">
        <ele>167.7</ele>
        <time>2026-05-09T09:42:44.999Z</time>
      </trkpt>
      <trkpt lat="43.83353" lon="4.19518">
        <ele>167.6</ele>
        <time>2026-05-09T09:42:45.999Z</time>
      </trkpt>
      <trkpt lat="43.83354" lon="4.19518">
        <ele>167.7</ele>
        <time>2026-05-09T09:42:46.999Z</time>
      </trkpt>
      <trkpt lat="43.83355" lon="4.19519">
        <ele>167.9</ele>
        <time>2026-05-09T09:42:47.999Z</time>
      </trkpt>
      <trkpt lat="43.83356" lon="4.19519">
        <ele>168.2</ele>
        <time>2026-05-09T09:42:48.999Z</time>
      </trkpt>
      <trkpt lat="43.83356" lon="4.19518">
        <ele>168.3</ele>
        <time>2026-05-09T09:42:49.999Z</time>
      </trkpt>
      <trkpt lat="43.83357" lon="4.19518">
        <ele>168.6</ele>
        <time>2026-05-09T09:42:50.999Z</time>
      </trkpt>
      <trkpt lat="43.83358" lon="4.19518">
        <ele>168.5</ele>
        <time>2026-05-09T09:42:51.999Z</time>
      </trkpt>
      <trkpt lat="43.83359" lon="4.19519">
        <ele>168.2</ele>
        <time>2026-05-09T09:42:52.999Z</time>
      </trkpt>
      <trkpt lat="43.8336" lon="4.19519">
        <ele>168.3</ele>
        <time>2026-05-09T09:42:53.999Z</time>
      </trkpt>
      <trkpt lat="43.83361" lon="4.1952">
        <ele>168.6</ele>
        <time>2026-05-09T09:42:54.999Z</time>
      </trkpt>
      <trkpt lat="43.83363" lon="4.19519">
        <ele>168.6</ele>
        <time>2026-05-09T09:42:55.999Z</time>
      </trkpt>
      <trkpt lat="43.83364" lon="4.19519">
        <ele>168.5</ele>
        <time>2026-05-09T09:42:56.999Z</time>
      </trkpt>
      <trkpt lat="43.83364" lon="4.19519">
        <ele>168.8</ele>
        <time>2026-05-09T09:42:57.999Z</time>
      </trkpt>
      <trkpt lat="43.83365" lon="4.1952">
        <ele>169</ele>
        <time>2026-05-09T09:42:58.999Z</time>
      </trkpt>
      <trkpt lat="43.83365" lon="4.19521">
        <ele>169.3</ele>
        <time>2026-05-09T09:42:59.999Z</time>
      </trkpt>
      <trkpt lat="43.83366" lon="4.19522">
        <ele>169.5</ele>
        <time>2026-05-09T09:43:00.999Z</time>
      </trkpt>
      <trkpt lat="43.83367" lon="4.19522">
        <ele>170.2</ele>
        <time>2026-05-09T09:43:01.999Z</time>
      </trkpt>
      <trkpt lat="43.83368" lon="4.19522">
        <ele>170.9</ele>
        <time>2026-05-09T09:43:02.999Z</time>
      </trkpt>
      <trkpt lat="43.8337" lon="4.19522">
        <ele>171.1</ele>
        <time>2026-05-09T09:43:03.999Z</time>
      </trkpt>
      <trkpt lat="43.8337" lon="4.19523">
        <ele>171</ele>
        <time>2026-05-09T09:43:04.999Z</time>
      </trkpt>
      <trkpt lat="43.83371" lon="4.19524">
        <ele>171</ele>
        <time>2026-05-09T09:43:05.999Z</time>
      </trkpt>
      <trkpt lat="43.83372" lon="4.19525">
        <ele>171.2</ele>
        <time>2026-05-09T09:43:06.999Z</time>
      </trkpt>
      <trkpt lat="43.83373" lon="4.19526">
        <ele>171.5</ele>
        <time>2026-05-09T09:43:07.999Z</time>
      </trkpt>
      <trkpt lat="43.83374" lon="4.19526">
        <ele>171.6</ele>
        <time>2026-05-09T09:43:08.999Z</time>
      </trkpt>
      <trkpt lat="43.83375" lon="4.19526">
        <ele>171.5</ele>
        <time>2026-05-09T09:43:09.999Z</time>
      </trkpt>
      <trkpt lat="43.83375" lon="4.19526">
        <ele>171.3</ele>
        <time>2026-05-09T09:43:10.999Z</time>
      </trkpt>
      <trkpt lat="43.83376" lon="4.19527">
        <ele>171.7</ele>
        <time>2026-05-09T09:43:11.999Z</time>
      </trkpt>
      <trkpt lat="43.83377" lon="4.19528">
        <ele>171.7</ele>
        <time>2026-05-09T09:43:12.999Z</time>
      </trkpt>
      <trkpt lat="43.83377" lon="4.19529">
        <ele>171.8</ele>
        <time>2026-05-09T09:43:13.999Z</time>
      </trkpt>
      <trkpt lat="43.83378" lon="4.1953">
        <ele>172</ele>
        <time>2026-05-09T09:43:14.999Z</time>
      </trkpt>
      <trkpt lat="43.83378" lon="4.19531">
        <ele>172.1</ele>
        <time>2026-05-09T09:43:15.999Z</time>
      </trkpt>
      <trkpt lat="43.83378" lon="4.19531">
        <ele>172.2</ele>
        <time>2026-05-09T09:43:16.999Z</time>
      </trkpt>
      <trkpt lat="43.83379" lon="4.19532">
        <ele>172.4</ele>
        <time>2026-05-09T09:43:17.999Z</time>
      </trkpt>
      <trkpt lat="43.83379" lon="4.19533">
        <ele>172.6</ele>
        <time>2026-05-09T09:43:18.999Z</time>
      </trkpt>
      <trkpt lat="43.8338" lon="4.19534">
        <ele>172.8</ele>
        <time>2026-05-09T09:43:19.999Z</time>
      </trkpt>
      <trkpt lat="43.8338" lon="4.19535">
        <ele>172.7</ele>
        <time>2026-05-09T09:43:20.999Z</time>
      </trkpt>
      <trkpt lat="43.83381" lon="4.19535">
        <ele>172.9</ele>
        <time>2026-05-09T09:43:21.999Z</time>
      </trkpt>
      <trkpt lat="43.83382" lon="4.19536">
        <ele>172.9</ele>
        <time>2026-05-09T09:43:22.999Z</time>
      </trkpt>
      <trkpt lat="43.83382" lon="4.19538">
        <ele>172.8</ele>
        <time>2026-05-09T09:43:23.999Z</time>
      </trkpt>
      <trkpt lat="43.83382" lon="4.19539">
        <ele>172.8</ele>
        <time>2026-05-09T09:43:24.999Z</time>
      </trkpt>
      <trkpt lat="43.83383" lon="4.1954">
        <ele>173</ele>
        <time>2026-05-09T09:43:25.999Z</time>
      </trkpt>
      <trkpt lat="43.83383" lon="4.19541">
        <ele>173</ele>
        <time>2026-05-09T09:43:26.999Z</time>
      </trkpt>
      <trkpt lat="43.83383" lon="4.19542">
        <ele>172.9</ele>
        <time>2026-05-09T09:43:27.999Z</time>
      </trkpt>
      <trkpt lat="43.83384" lon="4.19543">
        <ele>172.6</ele>
        <time>2026-05-09T09:43:28.999Z</time>
      </trkpt>
      <trkpt lat="43.83384" lon="4.19543">
        <ele>172.2</ele>
        <time>2026-05-09T09:43:29.999Z</time>
      </trkpt>
      <trkpt lat="43.83385" lon="4.19544">
        <ele>171.9</ele>
        <time>2026-05-09T09:43:30.999Z</time>
      </trkpt>
      <trkpt lat="43.83385" lon="4.19546">
        <ele>171.9</ele>
        <time>2026-05-09T09:43:31.999Z</time>
      </trkpt>
      <trkpt lat="43.83386" lon="4.19547">
        <ele>171.9</ele>
        <time>2026-05-09T09:43:32.999Z</time>
      </trkpt>
      <trkpt lat="43.83387" lon="4.19549">
        <ele>171.7</ele>
        <time>2026-05-09T09:43:33.999Z</time>
      </trkpt>
      <trkpt lat="43.83387" lon="4.1955">
        <ele>171.6</ele>
        <time>2026-05-09T09:43:34.999Z</time>
      </trkpt>
      <trkpt lat="43.83388" lon="4.19551">
        <ele>171.2</ele>
        <time>2026-05-09T09:43:35.999Z</time>
      </trkpt>
      <trkpt lat="43.83389" lon="4.19552">
        <ele>171.6</ele>
        <time>2026-05-09T09:43:36.999Z</time>
      </trkpt>
      <trkpt lat="43.8339" lon="4.19553">
        <ele>171.7</ele>
        <time>2026-05-09T09:43:37.999Z</time>
      </trkpt>
      <trkpt lat="43.83391" lon="4.19554">
        <ele>171.8</ele>
        <time>2026-05-09T09:43:38.999Z</time>
      </trkpt>
      <trkpt lat="43.83391" lon="4.19556">
        <ele>171.9</ele>
        <time>2026-05-09T09:43:39.999Z</time>
      </trkpt>
      <trkpt lat="43.83392" lon="4.19557">
        <ele>172</ele>
        <time>2026-05-09T09:43:40.999Z</time>
      </trkpt>
      <trkpt lat="43.83392" lon="4.19558">
        <ele>172</ele>
        <time>2026-05-09T09:43:41.999Z</time>
      </trkpt>
      <trkpt lat="43.83392" lon="4.19559">
        <ele>172</ele>
        <time>2026-05-09T09:43:42.999Z</time>
      </trkpt>
      <trkpt lat="43.83393" lon="4.19561">
        <ele>172</ele>
        <time>2026-05-09T09:43:43.999Z</time>
      </trkpt>
      <trkpt lat="43.83394" lon="4.19562">
        <ele>172.1</ele>
        <time>2026-05-09T09:43:44.999Z</time>
      </trkpt>
      <trkpt lat="43.83395" lon="4.19564">
        <ele>172.3</ele>
        <time>2026-05-09T09:43:45.999Z</time>
      </trkpt>
      <trkpt lat="43.83395" lon="4.19566">
        <ele>172.2</ele>
        <time>2026-05-09T09:43:46.999Z</time>
      </trkpt>
      <trkpt lat="43.83395" lon="4.19567">
        <ele>172.8</ele>
        <time>2026-05-09T09:43:47.999Z</time>
      </trkpt>
      <trkpt lat="43.83396" lon="4.19568">
        <ele>173.5</ele>
        <time>2026-05-09T09:43:48.999Z</time>
      </trkpt>
      <trkpt lat="43.83396" lon="4.19569">
        <ele>173.6</ele>
        <time>2026-05-09T09:43:49.999Z</time>
      </trkpt>
      <trkpt lat="43.83397" lon="4.1957">
        <ele>173.7</ele>
        <time>2026-05-09T09:43:50.999Z</time>
      </trkpt>
      <trkpt lat="43.83397" lon="4.19572">
        <ele>173.7</ele>
        <time>2026-05-09T09:43:51.999Z</time>
      </trkpt>
      <trkpt lat="43.83397" lon="4.19573">
        <ele>173.6</ele>
        <time>2026-05-09T09:43:52.999Z</time>
      </trkpt>
      <trkpt lat="43.83397" lon="4.19574">
        <ele>173.5</ele>
        <time>2026-05-09T09:43:53.999Z</time>
      </trkpt>
      <trkpt lat="43.83398" lon="4.19575">
        <ele>173.6</ele>
        <time>2026-05-09T09:43:54.999Z</time>
      </trkpt>
      <trkpt lat="43.83398" lon="4.19577">
        <ele>173.7</ele>
        <time>2026-05-09T09:43:55.999Z</time>
      </trkpt>
      <trkpt lat="43.83399" lon="4.19578">
        <ele>173.8</ele>
        <time>2026-05-09T09:43:56.999Z</time>
      </trkpt>
      <trkpt lat="43.83399" lon="4.1958">
        <ele>173.6</ele>
        <time>2026-05-09T09:43:57.999Z</time>
      </trkpt>
      <trkpt lat="43.83399" lon="4.19581">
        <ele>173.8</ele>
        <time>2026-05-09T09:43:58.999Z</time>
      </trkpt>
      <trkpt lat="43.83399" lon="4.19581">
        <ele>173.9</ele>
        <time>2026-05-09T09:43:59.999Z</time>
      </trkpt>
      <trkpt lat="43.83399" lon="4.19581">
        <ele>174.4</ele>
        <time>2026-05-09T09:44:00.999Z</time>
      </trkpt>
      <trkpt lat="43.83399" lon="4.1958">
        <ele>175.3</ele>
        <time>2026-05-09T09:44:01.999Z</time>
      </trkpt>
      <trkpt lat="43.83398" lon="4.1958">
        <ele>175.4</ele>
        <time>2026-05-09T09:44:02.999Z</time>
      </trkpt>
      <trkpt lat="43.83398" lon="4.19581">
        <ele>175.6</ele>
        <time>2026-05-09T09:44:03.999Z</time>
      </trkpt>
      <trkpt lat="43.83398" lon="4.19581">
        <ele>175.6</ele>
        <time>2026-05-09T09:44:04.999Z</time>
      </trkpt>
      <trkpt lat="43.83399" lon="4.19581">
        <ele>175.8</ele>
        <time>2026-05-09T09:44:05.999Z</time>
      </trkpt>
      <trkpt lat="43.83399" lon="4.19581">
        <ele>176</ele>
        <time>2026-05-09T09:44:06.999Z</time>
      </trkpt>
      <trkpt lat="43.83399" lon="4.19582">
        <ele>175.7</ele>
        <time>2026-05-09T09:44:07.999Z</time>
      </trkpt>
      <trkpt lat="43.834" lon="4.19584">
        <ele>175.9</ele>
        <time>2026-05-09T09:44:08.999Z</time>
      </trkpt>
      <trkpt lat="43.83401" lon="4.19586">
        <ele>176.1</ele>
        <time>2026-05-09T09:44:09.999Z</time>
      </trkpt>
      <trkpt lat="43.83402" lon="4.19586">
        <ele>175.9</ele>
        <time>2026-05-09T09:44:10.999Z</time>
      </trkpt>
      <trkpt lat="43.83402" lon="4.19587">
        <ele>176</ele>
        <time>2026-05-09T09:44:11.999Z</time>
      </trkpt>
      <trkpt lat="43.83402" lon="4.19589">
        <ele>176.6</ele>
        <time>2026-05-09T09:44:12.999Z</time>
      </trkpt>
      <trkpt lat="43.83402" lon="4.19589">
        <ele>176.9</ele>
        <time>2026-05-09T09:44:13.999Z</time>
      </trkpt>
      <trkpt lat="43.83403" lon="4.19589">
        <ele>177</ele>
        <time>2026-05-09T09:44:14.999Z</time>
      </trkpt>
      <trkpt lat="43.83403" lon="4.19591">
        <ele>177.5</ele>
        <time>2026-05-09T09:44:15.999Z</time>
      </trkpt>
      <trkpt lat="43.83404" lon="4.19591">
        <ele>176.7</ele>
        <time>2026-05-09T09:44:16.999Z</time>
      </trkpt>
      <trkpt lat="43.83404" lon="4.19591">
        <ele>176.7</ele>
        <time>2026-05-09T09:44:17.999Z</time>
      </trkpt>
      <trkpt lat="43.83405" lon="4.19594">
        <ele>176.9</ele>
        <time>2026-05-09T09:44:18.999Z</time>
      </trkpt>
      <trkpt lat="43.83405" lon="4.19597">
        <ele>177.2</ele>
        <time>2026-05-09T09:44:19.999Z</time>
      </trkpt>
      <trkpt lat="43.83405" lon="4.19598">
        <ele>177.6</ele>
        <time>2026-05-09T09:44:20.999Z</time>
      </trkpt>
      <trkpt lat="43.83406" lon="4.196">
        <ele>177.9</ele>
        <time>2026-05-09T09:44:21.999Z</time>
      </trkpt>
      <trkpt lat="43.83406" lon="4.19601">
        <ele>177.8</ele>
        <time>2026-05-09T09:44:22.999Z</time>
      </trkpt>
      <trkpt lat="43.83406" lon="4.19602">
        <ele>177.9</ele>
        <time>2026-05-09T09:44:23.999Z</time>
      </trkpt>
      <trkpt lat="43.83406" lon="4.19602">
        <ele>177.6</ele>
        <time>2026-05-09T09:44:24.999Z</time>
      </trkpt>
      <trkpt lat="43.83407" lon="4.19603">
        <ele>177.2</ele>
        <time>2026-05-09T09:44:25.999Z</time>
      </trkpt>
      <trkpt lat="43.83408" lon="4.19604">
        <ele>176.6</ele>
        <time>2026-05-09T09:44:26.999Z</time>
      </trkpt>
      <trkpt lat="43.83409" lon="4.19604">
        <ele>176.1</ele>
        <time>2026-05-09T09:44:27.999Z</time>
      </trkpt>
      <trkpt lat="43.8341" lon="4.19605">
        <ele>176.2</ele>
        <time>2026-05-09T09:44:28.999Z</time>
      </trkpt>
      <trkpt lat="43.8341" lon="4.19606">
        <ele>176.6</ele>
        <time>2026-05-09T09:44:29.999Z</time>
      </trkpt>
      <trkpt lat="43.83411" lon="4.19607">
        <ele>177</ele>
        <time>2026-05-09T09:44:30.999Z</time>
      </trkpt>
      <trkpt lat="43.8341" lon="4.19607">
        <ele>177.6</ele>
        <time>2026-05-09T09:44:31.999Z</time>
      </trkpt>
      <trkpt lat="43.8341" lon="4.19608">
        <ele>177.9</ele>
        <time>2026-05-09T09:44:32.999Z</time>
      </trkpt>
      <trkpt lat="43.8341" lon="4.19609">
        <ele>178.5</ele>
        <time>2026-05-09T09:44:33.999Z</time>
      </trkpt>
      <trkpt lat="43.83411" lon="4.19609">
        <ele>179.1</ele>
        <time>2026-05-09T09:44:34.999Z</time>
      </trkpt>
      <trkpt lat="43.83411" lon="4.1961">
        <ele>180</ele>
        <time>2026-05-09T09:44:35.999Z</time>
      </trkpt>
      <trkpt lat="43.83412" lon="4.19611">
        <ele>180.6</ele>
        <time>2026-05-09T09:44:36.999Z</time>
      </trkpt>
      <trkpt lat="43.83413" lon="4.19612">
        <ele>180.7</ele>
        <time>2026-05-09T09:44:37.999Z</time>
      </trkpt>
      <trkpt lat="43.83413" lon="4.19612">
        <ele>180.6</ele>
        <time>2026-05-09T09:44:38.999Z</time>
      </trkpt>
      <trkpt lat="43.83414" lon="4.19612">
        <ele>180.5</ele>
        <time>2026-05-09T09:44:39.999Z</time>
      </trkpt>
      <trkpt lat="43.83414" lon="4.19613">
        <ele>180.2</ele>
        <time>2026-05-09T09:44:40.999Z</time>
      </trkpt>
      <trkpt lat="43.83414" lon="4.19615">
        <ele>180.2</ele>
        <time>2026-05-09T09:44:41.999Z</time>
      </trkpt>
      <trkpt lat="43.83414" lon="4.19616">
        <ele>180.1</ele>
        <time>2026-05-09T09:44:42.999Z</time>
      </trkpt>
      <trkpt lat="43.83414" lon="4.19617">
        <ele>180</ele>
        <time>2026-05-09T09:44:43.999Z</time>
      </trkpt>
      <trkpt lat="43.83413" lon="4.19619">
        <ele>179.9</ele>
        <time>2026-05-09T09:44:44.999Z</time>
      </trkpt>
      <trkpt lat="43.83413" lon="4.19619">
        <ele>179.7</ele>
        <time>2026-05-09T09:44:45.999Z</time>
      </trkpt>
      <trkpt lat="43.83412" lon="4.19621">
        <ele>179.7</ele>
        <time>2026-05-09T09:44:46.999Z</time>
      </trkpt>
      <trkpt lat="43.83412" lon="4.19622">
        <ele>179.6</ele>
        <time>2026-05-09T09:44:47.999Z</time>
      </trkpt>
      <trkpt lat="43.83412" lon="4.19624">
        <ele>179.6</ele>
        <time>2026-05-09T09:44:48.999Z</time>
      </trkpt>
      <trkpt lat="43.83412" lon="4.19624">
        <ele>179.7</ele>
        <time>2026-05-09T09:44:49.999Z</time>
      </trkpt>
      <trkpt lat="43.83412" lon="4.19625">
        <ele>180.4</ele>
        <time>2026-05-09T09:44:50.999Z</time>
      </trkpt>
      <trkpt lat="43.83411" lon="4.19625">
        <ele>180.7</ele>
        <time>2026-05-09T09:44:51.999Z</time>
      </trkpt>
      <trkpt lat="43.83412" lon="4.19625">
        <ele>180.9</ele>
        <time>2026-05-09T09:44:52.999Z</time>
      </trkpt>
      <trkpt lat="43.83411" lon="4.19626">
        <ele>181.1</ele>
        <time>2026-05-09T09:44:53.999Z</time>
      </trkpt>
      <trkpt lat="43.83411" lon="4.19627">
        <ele>181.4</ele>
        <time>2026-05-09T09:44:54.999Z</time>
      </trkpt>
      <trkpt lat="43.83411" lon="4.19628">
        <ele>181.7</ele>
        <time>2026-05-09T09:44:55.999Z</time>
      </trkpt>
      <trkpt lat="43.8341" lon="4.19628">
        <ele>182.3</ele>
        <time>2026-05-09T09:44:56.999Z</time>
      </trkpt>
      <trkpt lat="43.8341" lon="4.19629">
        <ele>182.7</ele>
        <time>2026-05-09T09:44:57.999Z</time>
      </trkpt>
      <trkpt lat="43.8341" lon="4.19629">
        <ele>183.2</ele>
        <time>2026-05-09T09:44:58.999Z</time>
      </trkpt>
      <trkpt lat="43.8341" lon="4.1963">
        <ele>183.6</ele>
        <time>2026-05-09T09:44:59.999Z</time>
      </trkpt>
      <trkpt lat="43.8341" lon="4.1963">
        <ele>183.8</ele>
        <time>2026-05-09T09:45:00.999Z</time>
      </trkpt>
      <trkpt lat="43.8341" lon="4.1963">
        <ele>184</ele>
        <time>2026-05-09T09:45:01.999Z</time>
      </trkpt>
      <trkpt lat="43.8341" lon="4.19631">
        <ele>183.9</ele>
        <time>2026-05-09T09:45:02.999Z</time>
      </trkpt>
      <trkpt lat="43.8341" lon="4.19631">
        <ele>183.8</ele>
        <time>2026-05-09T09:45:03.999Z</time>
      </trkpt>
      <trkpt lat="43.8341" lon="4.19632">
        <ele>183.7</ele>
        <time>2026-05-09T09:45:04.999Z</time>
      </trkpt>
      <trkpt lat="43.8341" lon="4.19632">
        <ele>183.6</ele>
        <time>2026-05-09T09:45:05.999Z</time>
      </trkpt>
      <trkpt lat="43.8341" lon="4.19633">
        <ele>183.3</ele>
        <time>2026-05-09T09:45:06.999Z</time>
      </trkpt>
      <trkpt lat="43.8341" lon="4.19633">
        <ele>183.2</ele>
        <time>2026-05-09T09:45:07.999Z</time>
      </trkpt>
      <trkpt lat="43.8341" lon="4.19634">
        <ele>183.2</ele>
        <time>2026-05-09T09:45:08.999Z</time>
      </trkpt>
      <trkpt lat="43.83409" lon="4.19634">
        <ele>183.3</ele>
        <time>2026-05-09T09:45:09.999Z</time>
      </trkpt>
      <trkpt lat="43.83407" lon="4.19636">
        <ele>183.2</ele>
        <time>2026-05-09T09:45:11.999Z</time>
      </trkpt>
      <trkpt lat="43.83406" lon="4.1964">
        <ele>182.8</ele>
        <time>2026-05-09T09:45:12.999Z</time>
      </trkpt>
      <trkpt lat="43.83404" lon="4.19643">
        <ele>182.9</ele>
        <time>2026-05-09T09:45:13.999Z</time>
      </trkpt>
      <trkpt lat="43.83403" lon="4.19647">
        <ele>182.8</ele>
        <time>2026-05-09T09:45:14.999Z</time>
      </trkpt>
      <trkpt lat="43.83402" lon="4.1965">
        <ele>182.2</ele>
        <time>2026-05-09T09:45:15.999Z</time>
      </trkpt>
      <trkpt lat="43.83401" lon="4.19654">
        <ele>181.5</ele>
        <time>2026-05-09T09:45:16.999Z</time>
      </trkpt>
      <trkpt lat="43.83401" lon="4.19656">
        <ele>181</ele>
        <time>2026-05-09T09:45:17.999Z</time>
      </trkpt>
      <trkpt lat="43.834" lon="4.19658">
        <ele>181</ele>
        <time>2026-05-09T09:45:18.999Z</time>
      </trkpt>
      <trkpt lat="43.834" lon="4.19659">
        <ele>181.2</ele>
        <time>2026-05-09T09:45:19.999Z</time>
      </trkpt>
      <trkpt lat="43.83401" lon="4.1966">
        <ele>181.2</ele>
        <time>2026-05-09T09:45:21.000Z</time>
      </trkpt>
      <trkpt lat="43.83401" lon="4.19661">
        <ele>181</ele>
        <time>2026-05-09T09:45:22.000Z</time>
      </trkpt>
      <trkpt lat="43.83401" lon="4.19662">
        <ele>181.5</ele>
        <time>2026-05-09T09:45:23.000Z</time>
      </trkpt>
      <trkpt lat="43.83401" lon="4.19662">
        <ele>181.7</ele>
        <time>2026-05-09T09:45:24.000Z</time>
      </trkpt>
      <trkpt lat="43.834" lon="4.19664">
        <ele>181.6</ele>
        <time>2026-05-09T09:45:25.000Z</time>
      </trkpt>
      <trkpt lat="43.834" lon="4.19665">
        <ele>180.9</ele>
        <time>2026-05-09T09:45:26.000Z</time>
      </trkpt>
      <trkpt lat="43.83399" lon="4.19666">
        <ele>180.7</ele>
        <time>2026-05-09T09:45:27.000Z</time>
      </trkpt>
      <trkpt lat="43.83398" lon="4.19666">
        <ele>180.7</ele>
        <time>2026-05-09T09:45:28.000Z</time>
      </trkpt>
      <trkpt lat="43.83398" lon="4.19667">
        <ele>180.6</ele>
        <time>2026-05-09T09:45:29.000Z</time>
      </trkpt>
      <trkpt lat="43.83398" lon="4.19667">
        <ele>181.1</ele>
        <time>2026-05-09T09:45:30.000Z</time>
      </trkpt>
      <trkpt lat="43.83397" lon="4.19667">
        <ele>181</ele>
        <time>2026-05-09T09:45:31.000Z</time>
      </trkpt>
      <trkpt lat="43.83397" lon="4.19667">
        <ele>181</ele>
        <time>2026-05-09T09:45:32.000Z</time>
      </trkpt>
      <trkpt lat="43.83397" lon="4.19667">
        <ele>181.1</ele>
        <time>2026-05-09T09:45:33.000Z</time>
      </trkpt>
      <trkpt lat="43.83397" lon="4.19668">
        <ele>180.8</ele>
        <time>2026-05-09T09:45:34.000Z</time>
      </trkpt>
      <trkpt lat="43.83397" lon="4.19668">
        <ele>180.6</ele>
        <time>2026-05-09T09:45:35.000Z</time>
      </trkpt>
      <trkpt lat="43.83397" lon="4.19668">
        <ele>180.4</ele>
        <time>2026-05-09T09:45:36.000Z</time>
      </trkpt>
      <trkpt lat="43.83397" lon="4.19668">
        <ele>180.4</ele>
        <time>2026-05-09T09:45:37.000Z</time>
      </trkpt>
      <trkpt lat="43.83397" lon="4.19669">
        <ele>180.3</ele>
        <time>2026-05-09T09:45:38.000Z</time>
      </trkpt>
      <trkpt lat="43.83398" lon="4.19669">
        <ele>180</ele>
        <time>2026-05-09T09:45:39.000Z</time>
      </trkpt>
      <trkpt lat="43.83398" lon="4.1967">
        <ele>179.6</ele>
        <time>2026-05-09T09:45:40.000Z</time>
      </trkpt>
      <trkpt lat="43.83398" lon="4.1967">
        <ele>179.4</ele>
        <time>2026-05-09T09:45:41.000Z</time>
      </trkpt>
      <trkpt lat="43.83398" lon="4.1967">
        <ele>179.3</ele>
        <time>2026-05-09T09:45:42.000Z</time>
      </trkpt>
      <trkpt lat="43.83398" lon="4.19671">
        <ele>178.9</ele>
        <time>2026-05-09T09:45:43.000Z</time>
      </trkpt>
      <trkpt lat="43.83398" lon="4.19671">
        <ele>178.7</ele>
        <time>2026-05-09T09:45:44.000Z</time>
      </trkpt>
      <trkpt lat="43.83398" lon="4.19671">
        <ele>178.3</ele>
        <time>2026-05-09T09:45:45.000Z</time>
      </trkpt>
      <trkpt lat="43.83398" lon="4.19672">
        <ele>177.8</ele>
        <time>2026-05-09T09:45:46.000Z</time>
      </trkpt>
      <trkpt lat="43.83398" lon="4.19672">
        <ele>177.6</ele>
        <time>2026-05-09T09:45:47.000Z</time>
      </trkpt>
      <trkpt lat="43.83398" lon="4.19672">
        <ele>177.4</ele>
        <time>2026-05-09T09:45:48.000Z</time>
      </trkpt>
      <trkpt lat="43.83397" lon="4.19673">
        <ele>177</ele>
        <time>2026-05-09T09:45:49.000Z</time>
      </trkpt>
      <trkpt lat="43.83397" lon="4.19673">
        <ele>176.8</ele>
        <time>2026-05-09T09:45:50.000Z</time>
      </trkpt>
      <trkpt lat="43.83397" lon="4.19674">
        <ele>176.8</ele>
        <time>2026-05-09T09:45:51.000Z</time>
      </trkpt>
      <trkpt lat="43.83397" lon="4.19674">
        <ele>176.8</ele>
        <time>2026-05-09T09:45:52.000Z</time>
      </trkpt>
      <trkpt lat="43.83397" lon="4.19677">
        <ele>176.5</ele>
        <time>2026-05-09T09:45:53.000Z</time>
      </trkpt>
      <trkpt lat="43.83396" lon="4.19681">
        <ele>176.2</ele>
        <time>2026-05-09T09:45:54.000Z</time>
      </trkpt>
      <trkpt lat="43.83396" lon="4.19684">
        <ele>176.2</ele>
        <time>2026-05-09T09:45:55.000Z</time>
      </trkpt>
      <trkpt lat="43.83396" lon="4.19684">
        <ele>176.2</ele>
        <time>2026-05-09T09:45:56.000Z</time>
      </trkpt>
      <trkpt lat="43.83396" lon="4.19684">
        <ele>176</ele>
        <time>2026-05-09T09:45:57.000Z</time>
      </trkpt>
      <trkpt lat="43.83396" lon="4.19685">
        <ele>175.9</ele>
        <time>2026-05-09T09:45:58.000Z</time>
      </trkpt>
      <trkpt lat="43.83396" lon="4.19687">
        <ele>175.9</ele>
        <time>2026-05-09T09:45:59.000Z</time>
      </trkpt>
      <trkpt lat="43.83396" lon="4.19689">
        <ele>176</ele>
        <time>2026-05-09T09:46:00.000Z</time>
      </trkpt>
      <trkpt lat="43.83397" lon="4.1969">
        <ele>176</ele>
        <time>2026-05-09T09:46:01.000Z</time>
      </trkpt>
      <trkpt lat="43.83397" lon="4.1969">
        <ele>176.2</ele>
        <time>2026-05-09T09:46:02.000Z</time>
      </trkpt>
      <trkpt lat="43.83397" lon="4.19691">
        <ele>176.3</ele>
        <time>2026-05-09T09:46:03.000Z</time>
      </trkpt>
      <trkpt lat="43.83397" lon="4.19693">
        <ele>176.1</ele>
        <time>2026-05-09T09:46:04.000Z</time>
      </trkpt>
      <trkpt lat="43.83398" lon="4.19695">
        <ele>176.3</ele>
        <time>2026-05-09T09:46:05.000Z</time>
      </trkpt>
      <trkpt lat="43.83399" lon="4.19696">
        <ele>176.4</ele>
        <time>2026-05-09T09:46:06.000Z</time>
      </trkpt>
      <trkpt lat="43.834" lon="4.19696">
        <ele>176.4</ele>
        <time>2026-05-09T09:46:07.000Z</time>
      </trkpt>
      <trkpt lat="43.834" lon="4.19697">
        <ele>176.2</ele>
        <time>2026-05-09T09:46:08.000Z</time>
      </trkpt>
      <trkpt lat="43.83401" lon="4.19698">
        <ele>176.1</ele>
        <time>2026-05-09T09:46:09.000Z</time>
      </trkpt>
      <trkpt lat="43.83401" lon="4.197">
        <ele>176</ele>
        <time>2026-05-09T09:46:10.000Z</time>
      </trkpt>
      <trkpt lat="43.83401" lon="4.19702">
        <ele>176.1</ele>
        <time>2026-05-09T09:46:11.000Z</time>
      </trkpt>
      <trkpt lat="43.83401" lon="4.19706">
        <ele>175.7</ele>
        <time>2026-05-09T09:46:12.000Z</time>
      </trkpt>
      <trkpt lat="43.83401" lon="4.19709">
        <ele>175.3</ele>
        <time>2026-05-09T09:46:13.000Z</time>
      </trkpt>
      <trkpt lat="43.834" lon="4.1971">
        <ele>175.1</ele>
        <time>2026-05-09T09:46:14.000Z</time>
      </trkpt>
      <trkpt lat="43.834" lon="4.19711">
        <ele>175.7</ele>
        <time>2026-05-09T09:46:15.000Z</time>
      </trkpt>
      <trkpt lat="43.834" lon="4.19711">
        <ele>175.7</ele>
        <time>2026-05-09T09:46:16.000Z</time>
      </trkpt>
      <trkpt lat="43.834" lon="4.19712">
        <ele>175.9</ele>
        <time>2026-05-09T09:46:17.000Z</time>
      </trkpt>
      <trkpt lat="43.83401" lon="4.19715">
        <ele>175.8</ele>
        <time>2026-05-09T09:46:18.000Z</time>
      </trkpt>
      <trkpt lat="43.83401" lon="4.19716">
        <ele>176</ele>
        <time>2026-05-09T09:46:19.000Z</time>
      </trkpt>
      <trkpt lat="43.83402" lon="4.19717">
        <ele>176.2</ele>
        <time>2026-05-09T09:46:20.000Z</time>
      </trkpt>
      <trkpt lat="43.83402" lon="4.19718">
        <ele>176.3</ele>
        <time>2026-05-09T09:46:21.000Z</time>
      </trkpt>
      <trkpt lat="43.83402" lon="4.19718">
        <ele>176.3</ele>
        <time>2026-05-09T09:46:22.000Z</time>
      </trkpt>
      <trkpt lat="43.83402" lon="4.1972">
        <ele>176.3</ele>
        <time>2026-05-09T09:46:23.000Z</time>
      </trkpt>
      <trkpt lat="43.83401" lon="4.19722">
        <ele>176.3</ele>
        <time>2026-05-09T09:46:24.000Z</time>
      </trkpt>
      <trkpt lat="43.834" lon="4.19724">
        <ele>176.5</ele>
        <time>2026-05-09T09:46:25.000Z</time>
      </trkpt>
      <trkpt lat="43.83399" lon="4.19726">
        <ele>176.5</ele>
        <time>2026-05-09T09:46:26.000Z</time>
      </trkpt>
      <trkpt lat="43.83398" lon="4.19729">
        <ele>176.6</ele>
        <time>2026-05-09T09:46:27.000Z</time>
      </trkpt>
      <trkpt lat="43.83398" lon="4.19731">
        <ele>176.6</ele>
        <time>2026-05-09T09:46:28.000Z</time>
      </trkpt>
      <trkpt lat="43.83397" lon="4.19732">
        <ele>176.6</ele>
        <time>2026-05-09T09:46:29.000Z</time>
      </trkpt>
      <trkpt lat="43.83397" lon="4.19732">
        <ele>176.1</ele>
        <time>2026-05-09T09:46:30.000Z</time>
      </trkpt>
      <trkpt lat="43.83396" lon="4.19732">
        <ele>176.3</ele>
        <time>2026-05-09T09:46:31.000Z</time>
      </trkpt>
      <trkpt lat="43.83396" lon="4.19732">
        <ele>176.1</ele>
        <time>2026-05-09T09:46:32.000Z</time>
      </trkpt>
      <trkpt lat="43.83396" lon="4.19733">
        <ele>175.7</ele>
        <time>2026-05-09T09:46:33.000Z</time>
      </trkpt>
      <trkpt lat="43.83394" lon="4.19735">
        <ele>175.4</ele>
        <time>2026-05-09T09:46:34.000Z</time>
      </trkpt>
      <trkpt lat="43.83394" lon="4.19737">
        <ele>175.6</ele>
        <time>2026-05-09T09:46:35.000Z</time>
      </trkpt>
      <trkpt lat="43.83394" lon="4.19739">
        <ele>175.5</ele>
        <time>2026-05-09T09:46:36.000Z</time>
      </trkpt>
      <trkpt lat="43.83393" lon="4.1974">
        <ele>175.2</ele>
        <time>2026-05-09T09:46:37.000Z</time>
      </trkpt>
      <trkpt lat="43.83393" lon="4.19741">
        <ele>175</ele>
        <time>2026-05-09T09:46:38.000Z</time>
      </trkpt>
      <trkpt lat="43.83392" lon="4.19741">
        <ele>174.4</ele>
        <time>2026-05-09T09:46:39.000Z</time>
      </trkpt>
      <trkpt lat="43.83392" lon="4.19742">
        <ele>173.8</ele>
        <time>2026-05-09T09:46:40.000Z</time>
      </trkpt>
      <trkpt lat="43.83392" lon="4.19742">
        <ele>173.5</ele>
        <time>2026-05-09T09:46:41.000Z</time>
      </trkpt>
      <trkpt lat="43.83392" lon="4.19742">
        <ele>173</ele>
        <time>2026-05-09T09:46:42.000Z</time>
      </trkpt>
      <trkpt lat="43.83392" lon="4.19743">
        <ele>172.7</ele>
        <time>2026-05-09T09:46:43.000Z</time>
      </trkpt>
      <trkpt lat="43.83392" lon="4.19743">
        <ele>172.2</ele>
        <time>2026-05-09T09:46:44.000Z</time>
      </trkpt>
      <trkpt lat="43.83392" lon="4.19743">
        <ele>171.9</ele>
        <time>2026-05-09T09:46:45.000Z</time>
      </trkpt>
      <trkpt lat="43.83392" lon="4.19744">
        <ele>171.4</ele>
        <time>2026-05-09T09:46:46.000Z</time>
      </trkpt>
      <trkpt lat="43.83391" lon="4.19744">
        <ele>171</ele>
        <time>2026-05-09T09:46:47.000Z</time>
      </trkpt>
      <trkpt lat="43.83391" lon="4.19745">
        <ele>171</ele>
        <time>2026-05-09T09:46:48.000Z</time>
      </trkpt>
      <trkpt lat="43.83391" lon="4.19745">
        <ele>170.8</ele>
        <time>2026-05-09T09:46:49.000Z</time>
      </trkpt>
      <trkpt lat="43.8339" lon="4.19746">
        <ele>170.6</ele>
        <time>2026-05-09T09:46:50.000Z</time>
      </trkpt>
      <trkpt lat="43.83389" lon="4.19749">
        <ele>170.3</ele>
        <time>2026-05-09T09:46:51.000Z</time>
      </trkpt>
      <trkpt lat="43.83388" lon="4.19752">
        <ele>169.8</ele>
        <time>2026-05-09T09:46:52.000Z</time>
      </trkpt>
      <trkpt lat="43.83388" lon="4.19755">
        <ele>169.7</ele>
        <time>2026-05-09T09:46:53.000Z</time>
      </trkpt>
      <trkpt lat="43.83387" lon="4.19759">
        <ele>169.2</ele>
        <time>2026-05-09T09:46:54.000Z</time>
      </trkpt>
      <trkpt lat="43.83386" lon="4.19762">
        <ele>169.1</ele>
        <time>2026-05-09T09:46:55.000Z</time>
      </trkpt>
      <trkpt lat="43.83385" lon="4.19765">
        <ele>169.1</ele>
        <time>2026-05-09T09:46:56.000Z</time>
      </trkpt>
      <trkpt lat="43.83384" lon="4.19768">
        <ele>169.2</ele>
        <time>2026-05-09T09:46:57.000Z</time>
      </trkpt>
      <trkpt lat="43.83383" lon="4.19771">
        <ele>169.1</ele>
        <time>2026-05-09T09:46:58.000Z</time>
      </trkpt>
      <trkpt lat="43.83383" lon="4.19773">
        <ele>168.9</ele>
        <time>2026-05-09T09:46:59.000Z</time>
      </trkpt>
      <trkpt lat="43.83383" lon="4.19776">
        <ele>168.9</ele>
        <time>2026-05-09T09:47:00.000Z</time>
      </trkpt>
      <trkpt lat="43.83382" lon="4.19778">
        <ele>168.9</ele>
        <time>2026-05-09T09:47:01.000Z</time>
      </trkpt>
      <trkpt lat="43.83382" lon="4.1978">
        <ele>168.8</ele>
        <time>2026-05-09T09:47:02.000Z</time>
      </trkpt>
      <trkpt lat="43.83382" lon="4.19782">
        <ele>168.8</ele>
        <time>2026-05-09T09:47:03.000Z</time>
      </trkpt>
      <trkpt lat="43.83382" lon="4.19784">
        <ele>168.6</ele>
        <time>2026-05-09T09:47:04.000Z</time>
      </trkpt>
      <trkpt lat="43.83383" lon="4.19785">
        <ele>168.4</ele>
        <time>2026-05-09T09:47:05.000Z</time>
      </trkpt>
      <trkpt lat="43.83383" lon="4.19785">
        <ele>168.4</ele>
        <time>2026-05-09T09:47:06.000Z</time>
      </trkpt>
      <trkpt lat="43.83384" lon="4.19786">
        <ele>168.6</ele>
        <time>2026-05-09T09:47:07.000Z</time>
      </trkpt>
      <trkpt lat="43.83384" lon="4.19787">
        <ele>168.3</ele>
        <time>2026-05-09T09:47:08.000Z</time>
      </trkpt>
      <trkpt lat="43.83384" lon="4.19787">
        <ele>168.5</ele>
        <time>2026-05-09T09:47:09.000Z</time>
      </trkpt>
      <trkpt lat="43.83384" lon="4.19788">
        <ele>168.5</ele>
        <time>2026-05-09T09:47:10.000Z</time>
      </trkpt>
      <trkpt lat="43.83385" lon="4.1979">
        <ele>168.7</ele>
        <time>2026-05-09T09:47:11.000Z</time>
      </trkpt>
      <trkpt lat="43.83385" lon="4.19791">
        <ele>168.7</ele>
        <time>2026-05-09T09:47:12.000Z</time>
      </trkpt>
      <trkpt lat="43.83385" lon="4.19792">
        <ele>168.5</ele>
        <time>2026-05-09T09:47:13.000Z</time>
      </trkpt>
      <trkpt lat="43.83385" lon="4.19792">
        <ele>168.5</ele>
        <time>2026-05-09T09:47:14.000Z</time>
      </trkpt>
      <trkpt lat="43.83385" lon="4.19794">
        <ele>168.4</ele>
        <time>2026-05-09T09:47:15.000Z</time>
      </trkpt>
      <trkpt lat="43.83384" lon="4.19796">
        <ele>168.3</ele>
        <time>2026-05-09T09:47:16.000Z</time>
      </trkpt>
      <trkpt lat="43.83383" lon="4.19799">
        <ele>168.6</ele>
        <time>2026-05-09T09:47:17.000Z</time>
      </trkpt>
      <trkpt lat="43.83382" lon="4.198">
        <ele>168.8</ele>
        <time>2026-05-09T09:47:18.000Z</time>
      </trkpt>
      <trkpt lat="43.83382" lon="4.198">
        <ele>168.8</ele>
        <time>2026-05-09T09:47:19.000Z</time>
      </trkpt>
      <trkpt lat="43.83381" lon="4.19801">
        <ele>168.8</ele>
        <time>2026-05-09T09:47:20.000Z</time>
      </trkpt>
      <trkpt lat="43.83381" lon="4.19802">
        <ele>168.8</ele>
        <time>2026-05-09T09:47:21.000Z</time>
      </trkpt>
      <trkpt lat="43.83381" lon="4.19803">
        <ele>168.9</ele>
        <time>2026-05-09T09:47:22.000Z</time>
      </trkpt>
      <trkpt lat="43.83382" lon="4.19804">
        <ele>168.7</ele>
        <time>2026-05-09T09:47:23.000Z</time>
      </trkpt>
      <trkpt lat="43.83382" lon="4.19805">
        <ele>168.5</ele>
        <time>2026-05-09T09:47:24.000Z</time>
      </trkpt>
      <trkpt lat="43.83382" lon="4.19807">
        <ele>168.1</ele>
        <time>2026-05-09T09:47:25.000Z</time>
      </trkpt>
      <trkpt lat="43.83381" lon="4.19808">
        <ele>168</ele>
        <time>2026-05-09T09:47:26.000Z</time>
      </trkpt>
      <trkpt lat="43.83381" lon="4.1981">
        <ele>168.3</ele>
        <time>2026-05-09T09:47:27.000Z</time>
      </trkpt>
      <trkpt lat="43.83381" lon="4.19811">
        <ele>168.6</ele>
        <time>2026-05-09T09:47:28.000Z</time>
      </trkpt>
      <trkpt lat="43.83381" lon="4.19812">
        <ele>168.4</ele>
        <time>2026-05-09T09:47:29.000Z</time>
      </trkpt>
      <trkpt lat="43.83381" lon="4.19814">
        <ele>168.6</ele>
        <time>2026-05-09T09:47:30.000Z</time>
      </trkpt>
      <trkpt lat="43.83381" lon="4.19815">
        <ele>168.5</ele>
        <time>2026-05-09T09:47:31.000Z</time>
      </trkpt>
      <trkpt lat="43.83381" lon="4.19816">
        <ele>168.3</ele>
        <time>2026-05-09T09:47:32.000Z</time>
      </trkpt>
      <trkpt lat="43.83382" lon="4.19817">
        <ele>168.2</ele>
        <time>2026-05-09T09:47:33.000Z</time>
      </trkpt>
      <trkpt lat="43.83383" lon="4.19818">
        <ele>168.5</ele>
        <time>2026-05-09T09:47:34.000Z</time>
      </trkpt>
      <trkpt lat="43.83383" lon="4.19819">
        <ele>168.7</ele>
        <time>2026-05-09T09:47:35.000Z</time>
      </trkpt>
      <trkpt lat="43.83383" lon="4.19821">
        <ele>169.1</ele>
        <time>2026-05-09T09:47:36.000Z</time>
      </trkpt>
      <trkpt lat="43.83383" lon="4.19822">
        <ele>169.1</ele>
        <time>2026-05-09T09:47:37.000Z</time>
      </trkpt>
      <trkpt lat="43.83384" lon="4.19824">
        <ele>168.8</ele>
        <time>2026-05-09T09:47:38.000Z</time>
      </trkpt>
      <trkpt lat="43.83385" lon="4.19825">
        <ele>168.6</ele>
        <time>2026-05-09T09:47:39.000Z</time>
      </trkpt>
      <trkpt lat="43.83386" lon="4.19826">
        <ele>168.9</ele>
        <time>2026-05-09T09:47:40.000Z</time>
      </trkpt>
      <trkpt lat="43.83386" lon="4.19827">
        <ele>169.1</ele>
        <time>2026-05-09T09:47:41.000Z</time>
      </trkpt>
      <trkpt lat="43.83386" lon="4.19828">
        <ele>168.8</ele>
        <time>2026-05-09T09:47:42.000Z</time>
      </trkpt>
      <trkpt lat="43.83386" lon="4.1983">
        <ele>168.8</ele>
        <time>2026-05-09T09:47:43.000Z</time>
      </trkpt>
      <trkpt lat="43.83386" lon="4.19831">
        <ele>168.4</ele>
        <time>2026-05-09T09:47:44.000Z</time>
      </trkpt>
      <trkpt lat="43.83386" lon="4.19833">
        <ele>168.3</ele>
        <time>2026-05-09T09:47:45.000Z</time>
      </trkpt>
      <trkpt lat="43.83387" lon="4.19834">
        <ele>168.7</ele>
        <time>2026-05-09T09:47:46.000Z</time>
      </trkpt>
      <trkpt lat="43.83387" lon="4.19835">
        <ele>168.8</ele>
        <time>2026-05-09T09:47:47.000Z</time>
      </trkpt>
      <trkpt lat="43.83387" lon="4.19836">
        <ele>169.2</ele>
        <time>2026-05-09T09:47:48.000Z</time>
      </trkpt>
      <trkpt lat="43.83387" lon="4.19838">
        <ele>169.5</ele>
        <time>2026-05-09T09:47:49.000Z</time>
      </trkpt>
      <trkpt lat="43.83387" lon="4.1984">
        <ele>169.6</ele>
        <time>2026-05-09T09:47:50.000Z</time>
      </trkpt>
      <trkpt lat="43.83387" lon="4.19841">
        <ele>169.8</ele>
        <time>2026-05-09T09:47:51.000Z</time>
      </trkpt>
      <trkpt lat="43.83387" lon="4.19842">
        <ele>169.5</ele>
        <time>2026-05-09T09:47:52.000Z</time>
      </trkpt>
      <trkpt lat="43.83387" lon="4.19843">
        <ele>169.4</ele>
        <time>2026-05-09T09:47:53.000Z</time>
      </trkpt>
      <trkpt lat="43.83386" lon="4.19845">
        <ele>169.4</ele>
        <time>2026-05-09T09:47:54.000Z</time>
      </trkpt>
      <trkpt lat="43.83385" lon="4.19846">
        <ele>169.5</ele>
        <time>2026-05-09T09:47:55.000Z</time>
      </trkpt>
      <trkpt lat="43.83385" lon="4.19847">
        <ele>168.5</ele>
        <time>2026-05-09T09:47:56.000Z</time>
      </trkpt>
      <trkpt lat="43.83385" lon="4.19848">
        <ele>168.3</ele>
        <time>2026-05-09T09:47:57.000Z</time>
      </trkpt>
      <trkpt lat="43.83385" lon="4.19849">
        <ele>168.8</ele>
        <time>2026-05-09T09:47:58.000Z</time>
      </trkpt>
      <trkpt lat="43.83385" lon="4.1985">
        <ele>169.1</ele>
        <time>2026-05-09T09:47:59.000Z</time>
      </trkpt>
      <trkpt lat="43.83385" lon="4.19851">
        <ele>169</ele>
        <time>2026-05-09T09:48:00.000Z</time>
      </trkpt>
      <trkpt lat="43.83385" lon="4.19852">
        <ele>169.1</ele>
        <time>2026-05-09T09:48:01.000Z</time>
      </trkpt>
      <trkpt lat="43.83384" lon="4.19853">
        <ele>169</ele>
        <time>2026-05-09T09:48:02.000Z</time>
      </trkpt>
      <trkpt lat="43.83383" lon="4.19855">
        <ele>168.9</ele>
        <time>2026-05-09T09:48:03.000Z</time>
      </trkpt>
      <trkpt lat="43.83382" lon="4.19856">
        <ele>169.3</ele>
        <time>2026-05-09T09:48:04.000Z</time>
      </trkpt>
      <trkpt lat="43.83382" lon="4.19857">
        <ele>169.1</ele>
        <time>2026-05-09T09:48:05.000Z</time>
      </trkpt>
      <trkpt lat="43.83382" lon="4.19859">
        <ele>169.1</ele>
        <time>2026-05-09T09:48:06.000Z</time>
      </trkpt>
      <trkpt lat="43.83382" lon="4.19861">
        <ele>168.9</ele>
        <time>2026-05-09T09:48:07.000Z</time>
      </trkpt>
      <trkpt lat="43.83383" lon="4.19864">
        <ele>168.8</ele>
        <time>2026-05-09T09:48:08.000Z</time>
      </trkpt>
      <trkpt lat="43.83383" lon="4.19866">
        <ele>168.3</ele>
        <time>2026-05-09T09:48:09.000Z</time>
      </trkpt>
      <trkpt lat="43.83383" lon="4.19867">
        <ele>168.3</ele>
        <time>2026-05-09T09:48:10.000Z</time>
      </trkpt>
      <trkpt lat="43.83383" lon="4.19868">
        <ele>168.3</ele>
        <time>2026-05-09T09:48:11.000Z</time>
      </trkpt>
      <trkpt lat="43.83384" lon="4.1987">
        <ele>168.5</ele>
        <time>2026-05-09T09:48:12.000Z</time>
      </trkpt>
      <trkpt lat="43.83385" lon="4.19871">
        <ele>168.6</ele>
        <time>2026-05-09T09:48:13.000Z</time>
      </trkpt>
      <trkpt lat="43.83385" lon="4.19872">
        <ele>168.5</ele>
        <time>2026-05-09T09:48:14.000Z</time>
      </trkpt>
      <trkpt lat="43.83386" lon="4.19873">
        <ele>168.4</ele>
        <time>2026-05-09T09:48:15.000Z</time>
      </trkpt>
      <trkpt lat="43.83386" lon="4.19874">
        <ele>168.3</ele>
        <time>2026-05-09T09:48:16.000Z</time>
      </trkpt>
      <trkpt lat="43.83387" lon="4.19875">
        <ele>168.5</ele>
        <time>2026-05-09T09:48:17.000Z</time>
      </trkpt>
      <trkpt lat="43.83387" lon="4.19876">
        <ele>168.7</ele>
        <time>2026-05-09T09:48:18.000Z</time>
      </trkpt>
      <trkpt lat="43.83387" lon="4.19878">
        <ele>168.8</ele>
        <time>2026-05-09T09:48:19.000Z</time>
      </trkpt>
      <trkpt lat="43.83388" lon="4.19879">
        <ele>169</ele>
        <time>2026-05-09T09:48:20.000Z</time>
      </trkpt>
      <trkpt lat="43.83388" lon="4.19881">
        <ele>169.2</ele>
        <time>2026-05-09T09:48:21.000Z</time>
      </trkpt>
      <trkpt lat="43.83388" lon="4.19883">
        <ele>169.2</ele>
        <time>2026-05-09T09:48:22.000Z</time>
      </trkpt>
      <trkpt lat="43.83388" lon="4.19884">
        <ele>169.3</ele>
        <time>2026-05-09T09:48:23.000Z</time>
      </trkpt>
      <trkpt lat="43.83388" lon="4.19885">
        <ele>169.4</ele>
        <time>2026-05-09T09:48:24.000Z</time>
      </trkpt>
      <trkpt lat="43.83388" lon="4.19887">
        <ele>169.2</ele>
        <time>2026-05-09T09:48:25.000Z</time>
      </trkpt>
      <trkpt lat="43.83388" lon="4.19889">
        <ele>169.3</ele>
        <time>2026-05-09T09:48:26.000Z</time>
      </trkpt>
      <trkpt lat="43.83389" lon="4.1989">
        <ele>169.3</ele>
        <time>2026-05-09T09:48:27.000Z</time>
      </trkpt>
      <trkpt lat="43.83389" lon="4.19891">
        <ele>168.7</ele>
        <time>2026-05-09T09:48:28.000Z</time>
      </trkpt>
      <trkpt lat="43.83389" lon="4.19892">
        <ele>168.5</ele>
        <time>2026-05-09T09:48:29.000Z</time>
      </trkpt>
      <trkpt lat="43.8339" lon="4.19894">
        <ele>168.6</ele>
        <time>2026-05-09T09:48:30.000Z</time>
      </trkpt>
      <trkpt lat="43.8339" lon="4.19895">
        <ele>168.5</ele>
        <time>2026-05-09T09:48:31.000Z</time>
      </trkpt>
      <trkpt lat="43.83391" lon="4.19896">
        <ele>168.3</ele>
        <time>2026-05-09T09:48:32.000Z</time>
      </trkpt>
      <trkpt lat="43.83391" lon="4.19896">
        <ele>168</ele>
        <time>2026-05-09T09:48:33.000Z</time>
      </trkpt>
      <trkpt lat="43.83391" lon="4.19898">
        <ele>167.8</ele>
        <time>2026-05-09T09:48:34.000Z</time>
      </trkpt>
      <trkpt lat="43.83391" lon="4.19899">
        <ele>167.7</ele>
        <time>2026-05-09T09:48:35.000Z</time>
      </trkpt>
      <trkpt lat="43.83391" lon="4.199">
        <ele>167.6</ele>
        <time>2026-05-09T09:48:36.000Z</time>
      </trkpt>
      <trkpt lat="43.83391" lon="4.19901">
        <ele>167.5</ele>
        <time>2026-05-09T09:48:37.000Z</time>
      </trkpt>
      <trkpt lat="43.83391" lon="4.19903">
        <ele>167.5</ele>
        <time>2026-05-09T09:48:38.000Z</time>
      </trkpt>
      <trkpt lat="43.83391" lon="4.19905">
        <ele>167.4</ele>
        <time>2026-05-09T09:48:39.000Z</time>
      </trkpt>
      <trkpt lat="43.83392" lon="4.19908">
        <ele>167.5</ele>
        <time>2026-05-09T09:48:40.000Z</time>
      </trkpt>
      <trkpt lat="43.83392" lon="4.19909">
        <ele>167.5</ele>
        <time>2026-05-09T09:48:41.000Z</time>
      </trkpt>
      <trkpt lat="43.83392" lon="4.19911">
        <ele>167.5</ele>
        <time>2026-05-09T09:48:42.000Z</time>
      </trkpt>
      <trkpt lat="43.83393" lon="4.19913">
        <ele>167.6</ele>
        <time>2026-05-09T09:48:43.000Z</time>
      </trkpt>
      <trkpt lat="43.83393" lon="4.19914">
        <ele>167.7</ele>
        <time>2026-05-09T09:48:44.000Z</time>
      </trkpt>
      <trkpt lat="43.83393" lon="4.19916">
        <ele>167.9</ele>
        <time>2026-05-09T09:48:45.000Z</time>
      </trkpt>
      <trkpt lat="43.83394" lon="4.19917">
        <ele>167.9</ele>
        <time>2026-05-09T09:48:46.000Z</time>
      </trkpt>
      <trkpt lat="43.83394" lon="4.19918">
        <ele>168.2</ele>
        <time>2026-05-09T09:48:47.000Z</time>
      </trkpt>
      <trkpt lat="43.83395" lon="4.19919">
        <ele>168.2</ele>
        <time>2026-05-09T09:48:48.000Z</time>
      </trkpt>
      <trkpt lat="43.83396" lon="4.1992">
        <ele>168.3</ele>
        <time>2026-05-09T09:48:49.000Z</time>
      </trkpt>
      <trkpt lat="43.83397" lon="4.19921">
        <ele>168.1</ele>
        <time>2026-05-09T09:48:50.000Z</time>
      </trkpt>
      <trkpt lat="43.83397" lon="4.19922">
        <ele>168.4</ele>
        <time>2026-05-09T09:48:51.000Z</time>
      </trkpt>
      <trkpt lat="43.83398" lon="4.19923">
        <ele>168.2</ele>
        <time>2026-05-09T09:48:52.000Z</time>
      </trkpt>
      <trkpt lat="43.83399" lon="4.19924">
        <ele>168.2</ele>
        <time>2026-05-09T09:48:53.000Z</time>
      </trkpt>
      <trkpt lat="43.83399" lon="4.19926">
        <ele>168.5</ele>
        <time>2026-05-09T09:48:54.000Z</time>
      </trkpt>
      <trkpt lat="43.834" lon="4.19928">
        <ele>168.4</ele>
        <time>2026-05-09T09:48:55.000Z</time>
      </trkpt>
      <trkpt lat="43.834" lon="4.19929">
        <ele>168.5</ele>
        <time>2026-05-09T09:48:56.000Z</time>
      </trkpt>
      <trkpt lat="43.834" lon="4.1993">
        <ele>168.7</ele>
        <time>2026-05-09T09:48:57.000Z</time>
      </trkpt>
      <trkpt lat="43.834" lon="4.19931">
        <ele>168.6</ele>
        <time>2026-05-09T09:48:58.000Z</time>
      </trkpt>
      <trkpt lat="43.834" lon="4.19932">
        <ele>168.7</ele>
        <time>2026-05-09T09:48:59.000Z</time>
      </trkpt>
      <trkpt lat="43.83401" lon="4.19934">
        <ele>168.4</ele>
        <time>2026-05-09T09:49:00.000Z</time>
      </trkpt>
      <trkpt lat="43.83401" lon="4.19936">
        <ele>168.1</ele>
        <time>2026-05-09T09:49:01.000Z</time>
      </trkpt>
      <trkpt lat="43.83401" lon="4.19936">
        <ele>167.8</ele>
        <time>2026-05-09T09:49:02.000Z</time>
      </trkpt>
      <trkpt lat="43.834" lon="4.19937">
        <ele>167.6</ele>
        <time>2026-05-09T09:49:03.000Z</time>
      </trkpt>
      <trkpt lat="43.834" lon="4.19937">
        <ele>167.6</ele>
        <time>2026-05-09T09:49:04.000Z</time>
      </trkpt>
      <trkpt lat="43.834" lon="4.19938">
        <ele>167.6</ele>
        <time>2026-05-09T09:49:05.000Z</time>
      </trkpt>
      <trkpt lat="43.834" lon="4.19939">
        <ele>167.4</ele>
        <time>2026-05-09T09:49:06.000Z</time>
      </trkpt>
      <trkpt lat="43.834" lon="4.1994">
        <ele>167.3</ele>
        <time>2026-05-09T09:49:07.000Z</time>
      </trkpt>
      <trkpt lat="43.834" lon="4.19942">
        <ele>167</ele>
        <time>2026-05-09T09:49:08.000Z</time>
      </trkpt>
      <trkpt lat="43.834" lon="4.19943">
        <ele>167</ele>
        <time>2026-05-09T09:49:09.000Z</time>
      </trkpt>
      <trkpt lat="43.834" lon="4.19945">
        <ele>167</ele>
        <time>2026-05-09T09:49:10.000Z</time>
      </trkpt>
      <trkpt lat="43.834" lon="4.19947">
        <ele>166.9</ele>
        <time>2026-05-09T09:49:11.000Z</time>
      </trkpt>
      <trkpt lat="43.834" lon="4.19948">
        <ele>166.8</ele>
        <time>2026-05-09T09:49:12.000Z</time>
      </trkpt>
      <trkpt lat="43.834" lon="4.1995">
        <ele>166.7</ele>
        <time>2026-05-09T09:49:13.000Z</time>
      </trkpt>
      <trkpt lat="43.834" lon="4.19951">
        <ele>166.5</ele>
        <time>2026-05-09T09:49:14.000Z</time>
      </trkpt>
      <trkpt lat="43.834" lon="4.19952">
        <ele>166.3</ele>
        <time>2026-05-09T09:49:15.000Z</time>
      </trkpt>
      <trkpt lat="43.834" lon="4.19953">
        <ele>166.2</ele>
        <time>2026-05-09T09:49:16.000Z</time>
      </trkpt>
      <trkpt lat="43.834" lon="4.19954">
        <ele>166.3</ele>
        <time>2026-05-09T09:49:17.000Z</time>
      </trkpt>
      <trkpt lat="43.834" lon="4.19956">
        <ele>166.2</ele>
        <time>2026-05-09T09:49:18.000Z</time>
      </trkpt>
      <trkpt lat="43.834" lon="4.19957">
        <ele>166</ele>
        <time>2026-05-09T09:49:19.000Z</time>
      </trkpt>
      <trkpt lat="43.83399" lon="4.19957">
        <ele>165.7</ele>
        <time>2026-05-09T09:49:20.000Z</time>
      </trkpt>
      <trkpt lat="43.83399" lon="4.19958">
        <ele>165.5</ele>
        <time>2026-05-09T09:49:21.000Z</time>
      </trkpt>
      <trkpt lat="43.83398" lon="4.19959">
        <ele>165.2</ele>
        <time>2026-05-09T09:49:22.000Z</time>
      </trkpt>
      <trkpt lat="43.83397" lon="4.19961">
        <ele>165.2</ele>
        <time>2026-05-09T09:49:23.000Z</time>
      </trkpt>
      <trkpt lat="43.83397" lon="4.19963">
        <ele>165.2</ele>
        <time>2026-05-09T09:49:24.000Z</time>
      </trkpt>
      <trkpt lat="43.83397" lon="4.19965">
        <ele>165</ele>
        <time>2026-05-09T09:49:25.000Z</time>
      </trkpt>
      <trkpt lat="43.83397" lon="4.19967">
        <ele>165.1</ele>
        <time>2026-05-09T09:49:26.000Z</time>
      </trkpt>
      <trkpt lat="43.83397" lon="4.19969">
        <ele>165.1</ele>
        <time>2026-05-09T09:49:27.000Z</time>
      </trkpt>
      <trkpt lat="43.83396" lon="4.1997">
        <ele>165</ele>
        <time>2026-05-09T09:49:28.000Z</time>
      </trkpt>
      <trkpt lat="43.83396" lon="4.19972">
        <ele>164.9</ele>
        <time>2026-05-09T09:49:29.000Z</time>
      </trkpt>
      <trkpt lat="43.83396" lon="4.19973">
        <ele>164.5</ele>
        <time>2026-05-09T09:49:30.000Z</time>
      </trkpt>
      <trkpt lat="43.83396" lon="4.19975">
        <ele>164.1</ele>
        <time>2026-05-09T09:49:31.000Z</time>
      </trkpt>
      <trkpt lat="43.83397" lon="4.19977">
        <ele>163.9</ele>
        <time>2026-05-09T09:49:32.000Z</time>
      </trkpt>
      <trkpt lat="43.83397" lon="4.19979">
        <ele>164.1</ele>
        <time>2026-05-09T09:49:33.000Z</time>
      </trkpt>
      <trkpt lat="43.83397" lon="4.19979">
        <ele>164.4</ele>
        <time>2026-05-09T09:49:34.000Z</time>
      </trkpt>
      <trkpt lat="43.83397" lon="4.1998">
        <ele>164.3</ele>
        <time>2026-05-09T09:49:35.000Z</time>
      </trkpt>
      <trkpt lat="43.83398" lon="4.19981">
        <ele>164.1</ele>
        <time>2026-05-09T09:49:36.000Z</time>
      </trkpt>
      <trkpt lat="43.83398" lon="4.19982">
        <ele>163.8</ele>
        <time>2026-05-09T09:49:37.000Z</time>
      </trkpt>
      <trkpt lat="43.83398" lon="4.19984">
        <ele>163.7</ele>
        <time>2026-05-09T09:49:38.000Z</time>
      </trkpt>
      <trkpt lat="43.83398" lon="4.19986">
        <ele>163.6</ele>
        <time>2026-05-09T09:49:39.000Z</time>
      </trkpt>
      <trkpt lat="43.83398" lon="4.19987">
        <ele>163.8</ele>
        <time>2026-05-09T09:49:40.000Z</time>
      </trkpt>
      <trkpt lat="43.83399" lon="4.19988">
        <ele>163.8</ele>
        <time>2026-05-09T09:49:41.000Z</time>
      </trkpt>
      <trkpt lat="43.83399" lon="4.19989">
        <ele>164</ele>
        <time>2026-05-09T09:49:42.000Z</time>
      </trkpt>
      <trkpt lat="43.83399" lon="4.19991">
        <ele>164</ele>
        <time>2026-05-09T09:49:43.000Z</time>
      </trkpt>
      <trkpt lat="43.83399" lon="4.19992">
        <ele>163.8</ele>
        <time>2026-05-09T09:49:44.000Z</time>
      </trkpt>
      <trkpt lat="43.834" lon="4.19993">
        <ele>163.5</ele>
        <time>2026-05-09T09:49:45.000Z</time>
      </trkpt>
      <trkpt lat="43.834" lon="4.19995">
        <ele>163.7</ele>
        <time>2026-05-09T09:49:46.000Z</time>
      </trkpt>
      <trkpt lat="43.834" lon="4.19997">
        <ele>163.6</ele>
        <time>2026-05-09T09:49:47.000Z</time>
      </trkpt>
      <trkpt lat="43.834" lon="4.19999">
        <ele>163.7</ele>
        <time>2026-05-09T09:49:48.000Z</time>
      </trkpt>
      <trkpt lat="43.834" lon="4.20001">
        <ele>163.6</ele>
        <time>2026-05-09T09:49:49.000Z</time>
      </trkpt>
      <trkpt lat="43.834" lon="4.20003">
        <ele>163.6</ele>
        <time>2026-05-09T09:49:50.000Z</time>
      </trkpt>
      <trkpt lat="43.834" lon="4.20005">
        <ele>163.8</ele>
        <time>2026-05-09T09:49:51.000Z</time>
      </trkpt>
      <trkpt lat="43.834" lon="4.20007">
        <ele>163.8</ele>
        <time>2026-05-09T09:49:52.000Z</time>
      </trkpt>
      <trkpt lat="43.834" lon="4.20009">
        <ele>163.7</ele>
        <time>2026-05-09T09:49:53.000Z</time>
      </trkpt>
      <trkpt lat="43.834" lon="4.20011">
        <ele>163.9</ele>
        <time>2026-05-09T09:49:54.000Z</time>
      </trkpt>
      <trkpt lat="43.834" lon="4.20011">
        <ele>163.9</ele>
        <time>2026-05-09T09:49:55.000Z</time>
      </trkpt>
      <trkpt lat="43.834" lon="4.20012">
        <ele>163.9</ele>
        <time>2026-05-09T09:49:56.000Z</time>
      </trkpt>
      <trkpt lat="43.834" lon="4.20014">
        <ele>164.3</ele>
        <time>2026-05-09T09:49:57.000Z</time>
      </trkpt>
      <trkpt lat="43.834" lon="4.20015">
        <ele>164.3</ele>
        <time>2026-05-09T09:49:58.000Z</time>
      </trkpt>
      <trkpt lat="43.83401" lon="4.20017">
        <ele>164.6</ele>
        <time>2026-05-09T09:49:59.000Z</time>
      </trkpt>
      <trkpt lat="43.83401" lon="4.20018">
        <ele>164.9</ele>
        <time>2026-05-09T09:50:00.000Z</time>
      </trkpt>
      <trkpt lat="43.83402" lon="4.20019">
        <ele>165.1</ele>
        <time>2026-05-09T09:50:01.000Z</time>
      </trkpt>
      <trkpt lat="43.83402" lon="4.2002">
        <ele>165.2</ele>
        <time>2026-05-09T09:50:02.000Z</time>
      </trkpt>
      <trkpt lat="43.83404" lon="4.20021">
        <ele>165.6</ele>
        <time>2026-05-09T09:50:03.000Z</time>
      </trkpt>
      <trkpt lat="43.83405" lon="4.20022">
        <ele>165.6</ele>
        <time>2026-05-09T09:50:04.000Z</time>
      </trkpt>
      <trkpt lat="43.83406" lon="4.20022">
        <ele>165.3</ele>
        <time>2026-05-09T09:50:05.000Z</time>
      </trkpt>
      <trkpt lat="43.83406" lon="4.20023">
        <ele>165.1</ele>
        <time>2026-05-09T09:50:06.000Z</time>
      </trkpt>
      <trkpt lat="43.83407" lon="4.20024">
        <ele>165.2</ele>
        <time>2026-05-09T09:50:07.000Z</time>
      </trkpt>
      <trkpt lat="43.83408" lon="4.20025">
        <ele>165.8</ele>
        <time>2026-05-09T09:50:08.000Z</time>
      </trkpt>
      <trkpt lat="43.83409" lon="4.20026">
        <ele>166.1</ele>
        <time>2026-05-09T09:50:09.000Z</time>
      </trkpt>
      <trkpt lat="43.83409" lon="4.20026">
        <ele>166.4</ele>
        <time>2026-05-09T09:50:10.000Z</time>
      </trkpt>
      <trkpt lat="43.83409" lon="4.20027">
        <ele>166.7</ele>
        <time>2026-05-09T09:50:11.000Z</time>
      </trkpt>
      <trkpt lat="43.83409" lon="4.20028">
        <ele>166.6</ele>
        <time>2026-05-09T09:50:12.000Z</time>
      </trkpt>
      <trkpt lat="43.8341" lon="4.20029">
        <ele>166.8</ele>
        <time>2026-05-09T09:50:13.000Z</time>
      </trkpt>
      <trkpt lat="43.8341" lon="4.2003">
        <ele>166.7</ele>
        <time>2026-05-09T09:50:14.000Z</time>
      </trkpt>
      <trkpt lat="43.8341" lon="4.20032">
        <ele>167</ele>
        <time>2026-05-09T09:50:15.000Z</time>
      </trkpt>
      <trkpt lat="43.8341" lon="4.20032">
        <ele>166.6</ele>
        <time>2026-05-09T09:50:16.000Z</time>
      </trkpt>
      <trkpt lat="43.83409" lon="4.20033">
        <ele>166.2</ele>
        <time>2026-05-09T09:50:17.000Z</time>
      </trkpt>
      <trkpt lat="43.83409" lon="4.20034">
        <ele>166.4</ele>
        <time>2026-05-09T09:50:18.000Z</time>
      </trkpt>
      <trkpt lat="43.83409" lon="4.20034">
        <ele>166.5</ele>
        <time>2026-05-09T09:50:19.000Z</time>
      </trkpt>
      <trkpt lat="43.83408" lon="4.20036">
        <ele>166.7</ele>
        <time>2026-05-09T09:50:20.000Z</time>
      </trkpt>
      <trkpt lat="43.83408" lon="4.20037">
        <ele>166.8</ele>
        <time>2026-05-09T09:50:21.000Z</time>
      </trkpt>
      <trkpt lat="43.83408" lon="4.20039">
        <ele>166.6</ele>
        <time>2026-05-09T09:50:22.000Z</time>
      </trkpt>
      <trkpt lat="43.83407" lon="4.20039">
        <ele>166.5</ele>
        <time>2026-05-09T09:50:23.000Z</time>
      </trkpt>
      <trkpt lat="43.83407" lon="4.20038">
        <ele>166.3</ele>
        <time>2026-05-09T09:50:24.000Z</time>
      </trkpt>
      <trkpt lat="43.83407" lon="4.20038">
        <ele>166.2</ele>
        <time>2026-05-09T09:50:25.000Z</time>
      </trkpt>
      <trkpt lat="43.83407" lon="4.20038">
        <ele>166.4</ele>
        <time>2026-05-09T09:50:26.000Z</time>
      </trkpt>
      <trkpt lat="43.83406" lon="4.20038">
        <ele>166.8</ele>
        <time>2026-05-09T09:50:27.000Z</time>
      </trkpt>
      <trkpt lat="43.83406" lon="4.20039">
        <ele>166.7</ele>
        <time>2026-05-09T09:50:28.000Z</time>
      </trkpt>
      <trkpt lat="43.83406" lon="4.2004">
        <ele>166.9</ele>
        <time>2026-05-09T09:50:29.000Z</time>
      </trkpt>
      <trkpt lat="43.83405" lon="4.2004">
        <ele>167</ele>
        <time>2026-05-09T09:50:30.000Z</time>
      </trkpt>
      <trkpt lat="43.83404" lon="4.20041">
        <ele>166.9</ele>
        <time>2026-05-09T09:50:31.000Z</time>
      </trkpt>
      <trkpt lat="43.83404" lon="4.20042">
        <ele>167</ele>
        <time>2026-05-09T09:50:32.000Z</time>
      </trkpt>
      <trkpt lat="43.83404" lon="4.20043">
        <ele>167.2</ele>
        <time>2026-05-09T09:50:33.000Z</time>
      </trkpt>
      <trkpt lat="43.83404" lon="4.20044">
        <ele>167.5</ele>
        <time>2026-05-09T09:50:34.000Z</time>
      </trkpt>
      <trkpt lat="43.83403" lon="4.20045">
        <ele>167.4</ele>
        <time>2026-05-09T09:50:35.000Z</time>
      </trkpt>
      <trkpt lat="43.83403" lon="4.20046">
        <ele>167.4</ele>
        <time>2026-05-09T09:50:36.000Z</time>
      </trkpt>
      <trkpt lat="43.83402" lon="4.20048">
        <ele>167.8</ele>
        <time>2026-05-09T09:50:37.000Z</time>
      </trkpt>
      <trkpt lat="43.83402" lon="4.20049">
        <ele>168.1</ele>
        <time>2026-05-09T09:50:38.000Z</time>
      </trkpt>
      <trkpt lat="43.83402" lon="4.2005">
        <ele>168.4</ele>
        <time>2026-05-09T09:50:39.000Z</time>
      </trkpt>
      <trkpt lat="43.83402" lon="4.20051">
        <ele>168.6</ele>
        <time>2026-05-09T09:50:40.000Z</time>
      </trkpt>
      <trkpt lat="43.83402" lon="4.20052">
        <ele>168.9</ele>
        <time>2026-05-09T09:50:41.000Z</time>
      </trkpt>
      <trkpt lat="43.83402" lon="4.20054">
        <ele>168.8</ele>
        <time>2026-05-09T09:50:42.000Z</time>
      </trkpt>
      <trkpt lat="43.83402" lon="4.20055">
        <ele>168.8</ele>
        <time>2026-05-09T09:50:43.000Z</time>
      </trkpt>
      <trkpt lat="43.83402" lon="4.20056">
        <ele>169</ele>
        <time>2026-05-09T09:50:44.000Z</time>
      </trkpt>
      <trkpt lat="43.83402" lon="4.20058">
        <ele>169.1</ele>
        <time>2026-05-09T09:50:45.000Z</time>
      </trkpt>
      <trkpt lat="43.83402" lon="4.20059">
        <ele>169.4</ele>
        <time>2026-05-09T09:50:46.000Z</time>
      </trkpt>
      <trkpt lat="43.83401" lon="4.2006">
        <ele>169.4</ele>
        <time>2026-05-09T09:50:47.000Z</time>
      </trkpt>
      <trkpt lat="43.83401" lon="4.2006">
        <ele>169.3</ele>
        <time>2026-05-09T09:50:48.000Z</time>
      </trkpt>
      <trkpt lat="43.834" lon="4.2006">
        <ele>168.9</ele>
        <time>2026-05-09T09:50:49.000Z</time>
      </trkpt>
      <trkpt lat="43.834" lon="4.2006">
        <ele>168.1</ele>
        <time>2026-05-09T09:50:50.000Z</time>
      </trkpt>
      <trkpt lat="43.834" lon="4.20059">
        <ele>167.9</ele>
        <time>2026-05-09T09:50:51.000Z</time>
      </trkpt>
      <trkpt lat="43.83399" lon="4.20059">
        <ele>167.7</ele>
        <time>2026-05-09T09:50:52.000Z</time>
      </trkpt>
      <trkpt lat="43.83398" lon="4.20059">
        <ele>167.5</ele>
        <time>2026-05-09T09:50:53.000Z</time>
      </trkpt>
      <trkpt lat="43.83397" lon="4.20058">
        <ele>168</ele>
        <time>2026-05-09T09:50:54.000Z</time>
      </trkpt>
      <trkpt lat="43.83397" lon="4.20059">
        <ele>168.1</ele>
        <time>2026-05-09T09:50:55.000Z</time>
      </trkpt>
      <trkpt lat="43.83395" lon="4.20058">
        <ele>168.7</ele>
        <time>2026-05-09T09:50:56.000Z</time>
      </trkpt>
      <trkpt lat="43.83395" lon="4.20059">
        <ele>169.5</ele>
        <time>2026-05-09T09:50:57.000Z</time>
      </trkpt>
      <trkpt lat="43.83394" lon="4.20059">
        <ele>170.1</ele>
        <time>2026-05-09T09:50:58.000Z</time>
      </trkpt>
      <trkpt lat="43.83394" lon="4.2006">
        <ele>170.2</ele>
        <time>2026-05-09T09:50:59.000Z</time>
      </trkpt>
      <trkpt lat="43.83394" lon="4.2006">
        <ele>169</ele>
        <time>2026-05-09T09:51:00.000Z</time>
      </trkpt>
      <trkpt lat="43.83394" lon="4.2006">
        <ele>168.9</ele>
        <time>2026-05-09T09:51:01.000Z</time>
      </trkpt>
      <trkpt lat="43.83394" lon="4.2006">
        <ele>169</ele>
        <time>2026-05-09T09:51:02.000Z</time>
      </trkpt>
      <trkpt lat="43.83394" lon="4.2006">
        <ele>169.1</ele>
        <time>2026-05-09T09:51:03.000Z</time>
      </trkpt>
      <trkpt lat="43.83394" lon="4.20061">
        <ele>169.1</ele>
        <time>2026-05-09T09:51:04.000Z</time>
      </trkpt>
      <trkpt lat="43.83394" lon="4.20061">
        <ele>169.1</ele>
        <time>2026-05-09T09:51:05.000Z</time>
      </trkpt>
      <trkpt lat="43.83394" lon="4.20061">
        <ele>169.1</ele>
        <time>2026-05-09T09:51:06.000Z</time>
      </trkpt>
      <trkpt lat="43.83394" lon="4.20062">
        <ele>168.8</ele>
        <time>2026-05-09T09:51:07.000Z</time>
      </trkpt>
      <trkpt lat="43.83393" lon="4.20062">
        <ele>168.7</ele>
        <time>2026-05-09T09:51:08.000Z</time>
      </trkpt>
      <trkpt lat="43.83393" lon="4.20062">
        <ele>168.6</ele>
        <time>2026-05-09T09:51:09.000Z</time>
      </trkpt>
      <trkpt lat="43.83393" lon="4.20063">
        <ele>168.4</ele>
        <time>2026-05-09T09:51:10.000Z</time>
      </trkpt>
      <trkpt lat="43.83392" lon="4.20064">
        <ele>168.1</ele>
        <time>2026-05-09T09:51:11.000Z</time>
      </trkpt>
      <trkpt lat="43.8339" lon="4.20064">
        <ele>168.2</ele>
        <time>2026-05-09T09:51:12.000Z</time>
      </trkpt>
      <trkpt lat="43.83388" lon="4.20063">
        <ele>168.2</ele>
        <time>2026-05-09T09:51:13.000Z</time>
      </trkpt>
      <trkpt lat="43.83386" lon="4.20064">
        <ele>168.1</ele>
        <time>2026-05-09T09:51:14.000Z</time>
      </trkpt>
      <trkpt lat="43.83384" lon="4.20064">
        <ele>168.1</ele>
        <time>2026-05-09T09:51:15.000Z</time>
      </trkpt>
      <trkpt lat="43.83383" lon="4.20064">
        <ele>168.1</ele>
        <time>2026-05-09T09:51:16.000Z</time>
      </trkpt>
      <trkpt lat="43.83381" lon="4.20065">
        <ele>168</ele>
        <time>2026-05-09T09:51:17.000Z</time>
      </trkpt>
      <trkpt lat="43.8338" lon="4.20065">
        <ele>167.9</ele>
        <time>2026-05-09T09:51:18.000Z</time>
      </trkpt>
      <trkpt lat="43.83378" lon="4.20066">
        <ele>167.9</ele>
        <time>2026-05-09T09:51:19.000Z</time>
      </trkpt>
      <trkpt lat="43.83377" lon="4.20067">
        <ele>167.8</ele>
        <time>2026-05-09T09:51:20.000Z</time>
      </trkpt>
      <trkpt lat="43.83375" lon="4.20066">
        <ele>167.6</ele>
        <time>2026-05-09T09:51:21.000Z</time>
      </trkpt>
      <trkpt lat="43.83373" lon="4.20065">
        <ele>167.4</ele>
        <time>2026-05-09T09:51:22.000Z</time>
      </trkpt>
      <trkpt lat="43.83372" lon="4.20064">
        <ele>167.6</ele>
        <time>2026-05-09T09:51:23.000Z</time>
      </trkpt>
      <trkpt lat="43.83371" lon="4.20064">
        <ele>167.2</ele>
        <time>2026-05-09T09:51:24.000Z</time>
      </trkpt>
      <trkpt lat="43.8337" lon="4.20064">
        <ele>166.9</ele>
        <time>2026-05-09T09:51:25.000Z</time>
      </trkpt>
      <trkpt lat="43.83369" lon="4.20064">
        <ele>166.6</ele>
        <time>2026-05-09T09:51:26.000Z</time>
      </trkpt>
      <trkpt lat="43.83369" lon="4.20065">
        <ele>166.5</ele>
        <time>2026-05-09T09:51:27.000Z</time>
      </trkpt>
      <trkpt lat="43.83369" lon="4.20064">
        <ele>166.5</ele>
        <time>2026-05-09T09:51:28.000Z</time>
      </trkpt>
      <trkpt lat="43.83368" lon="4.20064">
        <ele>166.2</ele>
        <time>2026-05-09T09:51:29.000Z</time>
      </trkpt>
      <trkpt lat="43.83367" lon="4.20064">
        <ele>165.8</ele>
        <time>2026-05-09T09:51:30.000Z</time>
      </trkpt>
      <trkpt lat="43.83366" lon="4.20063">
        <ele>166.1</ele>
        <time>2026-05-09T09:51:31.000Z</time>
      </trkpt>
      <trkpt lat="43.83365" lon="4.20063">
        <ele>166</ele>
        <time>2026-05-09T09:51:32.000Z</time>
      </trkpt>
      <trkpt lat="43.83363" lon="4.20063">
        <ele>166</ele>
        <time>2026-05-09T09:51:33.000Z</time>
      </trkpt>
      <trkpt lat="43.83362" lon="4.20063">
        <ele>166</ele>
        <time>2026-05-09T09:51:34.000Z</time>
      </trkpt>
      <trkpt lat="43.83362" lon="4.20064">
        <ele>166</ele>
        <time>2026-05-09T09:51:35.000Z</time>
      </trkpt>
      <trkpt lat="43.83361" lon="4.20063">
        <ele>166</ele>
        <time>2026-05-09T09:51:36.000Z</time>
      </trkpt>
      <trkpt lat="43.8336" lon="4.20063">
        <ele>166</ele>
        <time>2026-05-09T09:51:37.000Z</time>
      </trkpt>
      <trkpt lat="43.83359" lon="4.20064">
        <ele>166</ele>
        <time>2026-05-09T09:51:38.000Z</time>
      </trkpt>
      <trkpt lat="43.83359" lon="4.20064">
        <ele>165.8</ele>
        <time>2026-05-09T09:51:39.000Z</time>
      </trkpt>
      <trkpt lat="43.83358" lon="4.20066">
        <ele>165.7</ele>
        <time>2026-05-09T09:51:40.000Z</time>
      </trkpt>
      <trkpt lat="43.83357" lon="4.20067">
        <ele>165.9</ele>
        <time>2026-05-09T09:51:41.000Z</time>
      </trkpt>
      <trkpt lat="43.83357" lon="4.20068">
        <ele>165.9</ele>
        <time>2026-05-09T09:51:42.000Z</time>
      </trkpt>
      <trkpt lat="43.83356" lon="4.20068">
        <ele>166.1</ele>
        <time>2026-05-09T09:51:43.000Z</time>
      </trkpt>
      <trkpt lat="43.83356" lon="4.20069">
        <ele>166</ele>
        <time>2026-05-09T09:51:44.000Z</time>
      </trkpt>
      <trkpt lat="43.83355" lon="4.20069">
        <ele>165.8</ele>
        <time>2026-05-09T09:51:45.000Z</time>
      </trkpt>
      <trkpt lat="43.83354" lon="4.2007">
        <ele>165.5</ele>
        <time>2026-05-09T09:51:46.000Z</time>
      </trkpt>
      <trkpt lat="43.83354" lon="4.2007">
        <ele>165.3</ele>
        <time>2026-05-09T09:51:47.000Z</time>
      </trkpt>
      <trkpt lat="43.83354" lon="4.20071">
        <ele>165.3</ele>
        <time>2026-05-09T09:51:48.000Z</time>
      </trkpt>
      <trkpt lat="43.83354" lon="4.20073">
        <ele>165</ele>
        <time>2026-05-09T09:51:49.000Z</time>
      </trkpt>
      <trkpt lat="43.83354" lon="4.20074">
        <ele>164.7</ele>
        <time>2026-05-09T09:51:50.000Z</time>
      </trkpt>
      <trkpt lat="43.83354" lon="4.20076">
        <ele>164.6</ele>
        <time>2026-05-09T09:51:51.000Z</time>
      </trkpt>
      <trkpt lat="43.83354" lon="4.20077">
        <ele>164.8</ele>
        <time>2026-05-09T09:51:52.000Z</time>
      </trkpt>
      <trkpt lat="43.83354" lon="4.20078">
        <ele>164.6</ele>
        <time>2026-05-09T09:51:53.000Z</time>
      </trkpt>
      <trkpt lat="43.83354" lon="4.20079">
        <ele>164.6</ele>
        <time>2026-05-09T09:51:54.000Z</time>
      </trkpt>
      <trkpt lat="43.83355" lon="4.20081">
        <ele>164.7</ele>
        <time>2026-05-09T09:51:55.000Z</time>
      </trkpt>
      <trkpt lat="43.83355" lon="4.20083">
        <ele>164.8</ele>
        <time>2026-05-09T09:51:56.000Z</time>
      </trkpt>
      <trkpt lat="43.83356" lon="4.20085">
        <ele>164.9</ele>
        <time>2026-05-09T09:51:57.000Z</time>
      </trkpt>
      <trkpt lat="43.83356" lon="4.20086">
        <ele>165</ele>
        <time>2026-05-09T09:51:58.000Z</time>
      </trkpt>
      <trkpt lat="43.83357" lon="4.20088">
        <ele>164.8</ele>
        <time>2026-05-09T09:51:59.000Z</time>
      </trkpt>
      <trkpt lat="43.83358" lon="4.20089">
        <ele>164.8</ele>
        <time>2026-05-09T09:52:00.000Z</time>
      </trkpt>
      <trkpt lat="43.83359" lon="4.2009">
        <ele>164.6</ele>
        <time>2026-05-09T09:52:01.000Z</time>
      </trkpt>
      <trkpt lat="43.83359" lon="4.20091">
        <ele>164.6</ele>
        <time>2026-05-09T09:52:02.000Z</time>
      </trkpt>
      <trkpt lat="43.83359" lon="4.20092">
        <ele>164.4</ele>
        <time>2026-05-09T09:52:03.000Z</time>
      </trkpt>
      <trkpt lat="43.83358" lon="4.20093">
        <ele>164.8</ele>
        <time>2026-05-09T09:52:04.000Z</time>
      </trkpt>
      <trkpt lat="43.83358" lon="4.20094">
        <ele>164.9</ele>
        <time>2026-05-09T09:52:05.000Z</time>
      </trkpt>
      <trkpt lat="43.83358" lon="4.20095">
        <ele>164.9</ele>
        <time>2026-05-09T09:52:06.000Z</time>
      </trkpt>
      <trkpt lat="43.83358" lon="4.20095">
        <ele>164.8</ele>
        <time>2026-05-09T09:52:07.000Z</time>
      </trkpt>
      <trkpt lat="43.83357" lon="4.20096">
        <ele>164.6</ele>
        <time>2026-05-09T09:52:08.000Z</time>
      </trkpt>
      <trkpt lat="43.83357" lon="4.20097">
        <ele>164.6</ele>
        <time>2026-05-09T09:52:09.000Z</time>
      </trkpt>
      <trkpt lat="43.83358" lon="4.20099">
        <ele>164.7</ele>
        <time>2026-05-09T09:52:10.000Z</time>
      </trkpt>
      <trkpt lat="43.83358" lon="4.201">
        <ele>164.4</ele>
        <time>2026-05-09T09:52:11.000Z</time>
      </trkpt>
      <trkpt lat="43.83359" lon="4.20101">
        <ele>164.5</ele>
        <time>2026-05-09T09:52:12.000Z</time>
      </trkpt>
      <trkpt lat="43.83359" lon="4.20102">
        <ele>164.3</ele>
        <time>2026-05-09T09:52:13.000Z</time>
      </trkpt>
      <trkpt lat="43.8336" lon="4.20103">
        <ele>164</ele>
        <time>2026-05-09T09:52:14.000Z</time>
      </trkpt>
      <trkpt lat="43.8336" lon="4.20105">
        <ele>163.5</ele>
        <time>2026-05-09T09:52:15.000Z</time>
      </trkpt>
      <trkpt lat="43.83361" lon="4.20106">
        <ele>163.8</ele>
        <time>2026-05-09T09:52:16.000Z</time>
      </trkpt>
      <trkpt lat="43.83361" lon="4.20106">
        <ele>164.3</ele>
        <time>2026-05-09T09:52:17.000Z</time>
      </trkpt>
      <trkpt lat="43.83361" lon="4.20107">
        <ele>164.2</ele>
        <time>2026-05-09T09:52:18.000Z</time>
      </trkpt>
      <trkpt lat="43.83361" lon="4.20107">
        <ele>164.1</ele>
        <time>2026-05-09T09:52:19.000Z</time>
      </trkpt>
      <trkpt lat="43.83361" lon="4.20107">
        <ele>164</ele>
        <time>2026-05-09T09:52:20.000Z</time>
      </trkpt>
      <trkpt lat="43.83362" lon="4.20108">
        <ele>163.9</ele>
        <time>2026-05-09T09:52:21.000Z</time>
      </trkpt>
      <trkpt lat="43.83361" lon="4.2011">
        <ele>163.7</ele>
        <time>2026-05-09T09:52:22.000Z</time>
      </trkpt>
      <trkpt lat="43.83361" lon="4.2011">
        <ele>164</ele>
        <time>2026-05-09T09:52:23.000Z</time>
      </trkpt>
      <trkpt lat="43.83361" lon="4.2011">
        <ele>164.4</ele>
        <time>2026-05-09T09:52:24.000Z</time>
      </trkpt>
      <trkpt lat="43.83362" lon="4.20111">
        <ele>164.7</ele>
        <time>2026-05-09T09:52:25.000Z</time>
      </trkpt>
      <trkpt lat="43.83363" lon="4.20112">
        <ele>164.7</ele>
        <time>2026-05-09T09:52:26.000Z</time>
      </trkpt>
      <trkpt lat="43.83363" lon="4.20113">
        <ele>164.7</ele>
        <time>2026-05-09T09:52:27.000Z</time>
      </trkpt>
      <trkpt lat="43.83363" lon="4.20113">
        <ele>164.7</ele>
        <time>2026-05-09T09:52:28.000Z</time>
      </trkpt>
      <trkpt lat="43.83363" lon="4.20113">
        <ele>165.7</ele>
        <time>2026-05-09T09:52:29.000Z</time>
      </trkpt>
      <trkpt lat="43.83363" lon="4.20114">
        <ele>166</ele>
        <time>2026-05-09T09:52:30.000Z</time>
      </trkpt>
      <trkpt lat="43.83363" lon="4.20115">
        <ele>166.2</ele>
        <time>2026-05-09T09:52:31.000Z</time>
      </trkpt>
      <trkpt lat="43.83362" lon="4.20117">
        <ele>166.4</ele>
        <time>2026-05-09T09:52:32.000Z</time>
      </trkpt>
      <trkpt lat="43.8336" lon="4.20121">
        <ele>167</ele>
        <time>2026-05-09T09:52:33.000Z</time>
      </trkpt>
      <trkpt lat="43.83359" lon="4.20123">
        <ele>166.9</ele>
        <time>2026-05-09T09:52:34.000Z</time>
      </trkpt>
      <trkpt lat="43.83358" lon="4.20124">
        <ele>166.6</ele>
        <time>2026-05-09T09:52:35.000Z</time>
      </trkpt>
      <trkpt lat="43.83357" lon="4.20125">
        <ele>166.4</ele>
        <time>2026-05-09T09:52:36.000Z</time>
      </trkpt>
      <trkpt lat="43.83357" lon="4.20126">
        <ele>166.3</ele>
        <time>2026-05-09T09:52:37.000Z</time>
      </trkpt>
      <trkpt lat="43.83356" lon="4.20129">
        <ele>166.3</ele>
        <time>2026-05-09T09:52:38.000Z</time>
      </trkpt>
      <trkpt lat="43.83355" lon="4.20132">
        <ele>166.3</ele>
        <time>2026-05-09T09:52:39.000Z</time>
      </trkpt>
      <trkpt lat="43.83354" lon="4.20135">
        <ele>166.2</ele>
        <time>2026-05-09T09:52:40.000Z</time>
      </trkpt>
      <trkpt lat="43.83353" lon="4.20138">
        <ele>165.7</ele>
        <time>2026-05-09T09:52:41.000Z</time>
      </trkpt>
      <trkpt lat="43.83352" lon="4.2014">
        <ele>165.7</ele>
        <time>2026-05-09T09:52:42.000Z</time>
      </trkpt>
      <trkpt lat="43.83351" lon="4.20144">
        <ele>164.1</ele>
        <time>2026-05-09T09:52:43.000Z</time>
      </trkpt>
      <trkpt lat="43.83349" lon="4.20146">
        <ele>163</ele>
        <time>2026-05-09T09:52:44.000Z</time>
      </trkpt>
      <trkpt lat="43.83348" lon="4.20147">
        <ele>162.1</ele>
        <time>2026-05-09T09:52:45.000Z</time>
      </trkpt>
      <trkpt lat="43.83348" lon="4.20148">
        <ele>162</ele>
        <time>2026-05-09T09:52:46.000Z</time>
      </trkpt>
      <trkpt lat="43.83348" lon="4.20148">
        <ele>161.8</ele>
        <time>2026-05-09T09:52:47.000Z</time>
      </trkpt>
      <trkpt lat="43.83347" lon="4.20149">
        <ele>161.5</ele>
        <time>2026-05-09T09:52:48.000Z</time>
      </trkpt>
      <trkpt lat="43.83347" lon="4.2015">
        <ele>161.3</ele>
        <time>2026-05-09T09:52:49.000Z</time>
      </trkpt>
      <trkpt lat="43.83347" lon="4.20149">
        <ele>160.8</ele>
        <time>2026-05-09T09:52:50.000Z</time>
      </trkpt>
      <trkpt lat="43.83347" lon="4.2015">
        <ele>161</ele>
        <time>2026-05-09T09:52:51.000Z</time>
      </trkpt>
      <trkpt lat="43.83346" lon="4.20149">
        <ele>160.3</ele>
        <time>2026-05-09T09:52:52.000Z</time>
      </trkpt>
      <trkpt lat="43.83346" lon="4.20149">
        <ele>159.9</ele>
        <time>2026-05-09T09:52:53.000Z</time>
      </trkpt>
      <trkpt lat="43.83346" lon="4.20149">
        <ele>159.5</ele>
        <time>2026-05-09T09:52:54.000Z</time>
      </trkpt>
      <trkpt lat="43.83345" lon="4.20148">
        <ele>159.2</ele>
        <time>2026-05-09T09:52:55.000Z</time>
      </trkpt>
      <trkpt lat="43.83343" lon="4.20148">
        <ele>159.2</ele>
        <time>2026-05-09T09:52:56.000Z</time>
      </trkpt>
      <trkpt lat="43.83342" lon="4.20148">
        <ele>159.1</ele>
        <time>2026-05-09T09:52:57.000Z</time>
      </trkpt>
      <trkpt lat="43.83342" lon="4.20149">
        <ele>158.7</ele>
        <time>2026-05-09T09:52:58.000Z</time>
      </trkpt>
      <trkpt lat="43.83342" lon="4.20149">
        <ele>158.6</ele>
        <time>2026-05-09T09:52:59.000Z</time>
      </trkpt>
      <trkpt lat="43.83342" lon="4.2015">
        <ele>158.4</ele>
        <time>2026-05-09T09:53:00.000Z</time>
      </trkpt>
      <trkpt lat="43.83342" lon="4.20149">
        <ele>158.1</ele>
        <time>2026-05-09T09:53:01.000Z</time>
      </trkpt>
      <trkpt lat="43.83342" lon="4.20149">
        <ele>158</ele>
        <time>2026-05-09T09:53:02.000Z</time>
      </trkpt>
      <trkpt lat="43.83342" lon="4.20149">
        <ele>158.1</ele>
        <time>2026-05-09T09:53:03.000Z</time>
      </trkpt>
      <trkpt lat="43.83342" lon="4.20149">
        <ele>158.2</ele>
        <time>2026-05-09T09:53:04.000Z</time>
      </trkpt>
      <trkpt lat="43.83342" lon="4.20149">
        <ele>158.2</ele>
        <time>2026-05-09T09:53:05.000Z</time>
      </trkpt>
      <trkpt lat="43.83342" lon="4.20149">
        <ele>158.1</ele>
        <time>2026-05-09T09:53:06.000Z</time>
      </trkpt>
      <trkpt lat="43.83342" lon="4.20149">
        <ele>158</ele>
        <time>2026-05-09T09:53:07.000Z</time>
      </trkpt>
      <trkpt lat="43.83342" lon="4.20149">
        <ele>157.7</ele>
        <time>2026-05-09T09:53:08.000Z</time>
      </trkpt>
      <trkpt lat="43.83341" lon="4.20149">
        <ele>157.8</ele>
        <time>2026-05-09T09:53:09.000Z</time>
      </trkpt>
      <trkpt lat="43.83341" lon="4.20149">
        <ele>157.9</ele>
        <time>2026-05-09T09:53:10.000Z</time>
      </trkpt>
      <trkpt lat="43.83341" lon="4.20149">
        <ele>158.1</ele>
        <time>2026-05-09T09:53:11.000Z</time>
      </trkpt>
      <trkpt lat="43.83341" lon="4.20149">
        <ele>158.3</ele>
        <time>2026-05-09T09:53:12.000Z</time>
      </trkpt>
      <trkpt lat="43.83341" lon="4.20149">
        <ele>158.1</ele>
        <time>2026-05-09T09:53:14.000Z</time>
      </trkpt>
      <trkpt lat="43.83341" lon="4.20149">
        <ele>157.8</ele>
        <time>2026-05-09T09:53:15.000Z</time>
      </trkpt>
      <trkpt lat="43.83341" lon="4.20149">
        <ele>157.2</ele>
        <time>2026-05-09T09:53:16.000Z</time>
      </trkpt>
      <trkpt lat="43.8334" lon="4.20149">
        <ele>156.6</ele>
        <time>2026-05-09T09:53:17.000Z</time>
      </trkpt>
      <trkpt lat="43.8334" lon="4.20149">
        <ele>156.3</ele>
        <time>2026-05-09T09:53:18.000Z</time>
      </trkpt>
      <trkpt lat="43.8334" lon="4.20149">
        <ele>156.3</ele>
        <time>2026-05-09T09:53:19.000Z</time>
      </trkpt>
      <trkpt lat="43.8334" lon="4.20149">
        <ele>156.2</ele>
        <time>2026-05-09T09:53:20.000Z</time>
      </trkpt>
      <trkpt lat="43.8334" lon="4.20149">
        <ele>156</ele>
        <time>2026-05-09T09:53:21.000Z</time>
      </trkpt>
      <trkpt lat="43.8334" lon="4.20149">
        <ele>156.3</ele>
        <time>2026-05-09T09:53:22.000Z</time>
      </trkpt>
      <trkpt lat="43.8334" lon="4.20149">
        <ele>156.4</ele>
        <time>2026-05-09T09:53:23.000Z</time>
      </trkpt>
      <trkpt lat="43.8334" lon="4.20149">
        <ele>156.6</ele>
        <time>2026-05-09T09:53:24.000Z</time>
      </trkpt>
      <trkpt lat="43.8334" lon="4.20149">
        <ele>156.5</ele>
        <time>2026-05-09T09:53:25.000Z</time>
      </trkpt>
      <trkpt lat="43.8334" lon="4.20149">
        <ele>156.4</ele>
        <time>2026-05-09T09:53:26.000Z</time>
      </trkpt>
      <trkpt lat="43.83338" lon="4.2015">
        <ele>156.4</ele>
        <time>2026-05-09T09:53:27.000Z</time>
      </trkpt>
      <trkpt lat="43.83336" lon="4.20151">
        <ele>156.3</ele>
        <time>2026-05-09T09:53:28.000Z</time>
      </trkpt>
      <trkpt lat="43.83335" lon="4.20152">
        <ele>156.3</ele>
        <time>2026-05-09T09:53:29.000Z</time>
      </trkpt>
      <trkpt lat="43.83334" lon="4.20152">
        <ele>156.4</ele>
        <time>2026-05-09T09:53:30.000Z</time>
      </trkpt>
      <trkpt lat="43.83334" lon="4.20152">
        <ele>156.3</ele>
        <time>2026-05-09T09:53:31.000Z</time>
      </trkpt>
      <trkpt lat="43.83333" lon="4.20152">
        <ele>156.3</ele>
        <time>2026-05-09T09:53:32.000Z</time>
      </trkpt>
      <trkpt lat="43.83332" lon="4.20152">
        <ele>156.2</ele>
        <time>2026-05-09T09:53:33.000Z</time>
      </trkpt>
      <trkpt lat="43.83331" lon="4.20152">
        <ele>156</ele>
        <time>2026-05-09T09:53:34.000Z</time>
      </trkpt>
      <trkpt lat="43.83329" lon="4.20153">
        <ele>156</ele>
        <time>2026-05-09T09:53:35.000Z</time>
      </trkpt>
      <trkpt lat="43.83328" lon="4.20154">
        <ele>155.9</ele>
        <time>2026-05-09T09:53:36.000Z</time>
      </trkpt>
      <trkpt lat="43.83327" lon="4.20156">
        <ele>155.5</ele>
        <time>2026-05-09T09:53:37.000Z</time>
      </trkpt>
      <trkpt lat="43.83325" lon="4.20157">
        <ele>155.3</ele>
        <time>2026-05-09T09:53:38.000Z</time>
      </trkpt>
      <trkpt lat="43.83323" lon="4.20158">
        <ele>155.3</ele>
        <time>2026-05-09T09:53:39.000Z</time>
      </trkpt>
      <trkpt lat="43.83322" lon="4.20158">
        <ele>155.5</ele>
        <time>2026-05-09T09:53:40.000Z</time>
      </trkpt>
      <trkpt lat="43.83321" lon="4.20159">
        <ele>155.8</ele>
        <time>2026-05-09T09:53:41.000Z</time>
      </trkpt>
      <trkpt lat="43.83319" lon="4.20159">
        <ele>155.4</ele>
        <time>2026-05-09T09:53:42.000Z</time>
      </trkpt>
      <trkpt lat="43.83319" lon="4.2016">
        <ele>155.1</ele>
        <time>2026-05-09T09:53:43.000Z</time>
      </trkpt>
      <trkpt lat="43.83318" lon="4.2016">
        <ele>154.5</ele>
        <time>2026-05-09T09:53:44.000Z</time>
      </trkpt>
      <trkpt lat="43.83317" lon="4.2016">
        <ele>154</ele>
        <time>2026-05-09T09:53:45.000Z</time>
      </trkpt>
      <trkpt lat="43.83317" lon="4.2016">
        <ele>153.3</ele>
        <time>2026-05-09T09:53:46.000Z</time>
      </trkpt>
      <trkpt lat="43.83315" lon="4.20159">
        <ele>153.6</ele>
        <time>2026-05-09T09:53:47.000Z</time>
      </trkpt>
      <trkpt lat="43.83314" lon="4.20159">
        <ele>154</ele>
        <time>2026-05-09T09:53:48.000Z</time>
      </trkpt>
      <trkpt lat="43.83313" lon="4.20159">
        <ele>154.4</ele>
        <time>2026-05-09T09:53:49.000Z</time>
      </trkpt>
      <trkpt lat="43.83312" lon="4.20159">
        <ele>154.5</ele>
        <time>2026-05-09T09:53:50.000Z</time>
      </trkpt>
      <trkpt lat="43.83312" lon="4.2016">
        <ele>154.5</ele>
        <time>2026-05-09T09:53:51.000Z</time>
      </trkpt>
      <trkpt lat="43.83312" lon="4.20161">
        <ele>154.6</ele>
        <time>2026-05-09T09:53:52.000Z</time>
      </trkpt>
      <trkpt lat="43.83311" lon="4.20162">
        <ele>154.3</ele>
        <time>2026-05-09T09:53:53.000Z</time>
      </trkpt>
      <trkpt lat="43.83311" lon="4.20163">
        <ele>154</ele>
        <time>2026-05-09T09:53:54.000Z</time>
      </trkpt>
      <trkpt lat="43.83311" lon="4.20164">
        <ele>153.8</ele>
        <time>2026-05-09T09:53:55.000Z</time>
      </trkpt>
      <trkpt lat="43.83311" lon="4.20165">
        <ele>153.5</ele>
        <time>2026-05-09T09:53:56.000Z</time>
      </trkpt>
      <trkpt lat="43.8331" lon="4.20166">
        <ele>153.5</ele>
        <time>2026-05-09T09:53:57.000Z</time>
      </trkpt>
      <trkpt lat="43.83308" lon="4.20168">
        <ele>152.9</ele>
        <time>2026-05-09T09:53:58.000Z</time>
      </trkpt>
      <trkpt lat="43.83307" lon="4.20169">
        <ele>152.5</ele>
        <time>2026-05-09T09:53:59.000Z</time>
      </trkpt>
      <trkpt lat="43.83306" lon="4.2017">
        <ele>151.8</ele>
        <time>2026-05-09T09:54:00.000Z</time>
      </trkpt>
      <trkpt lat="43.83305" lon="4.20169">
        <ele>151.6</ele>
        <time>2026-05-09T09:54:01.000Z</time>
      </trkpt>
      <trkpt lat="43.83304" lon="4.2017">
        <ele>151.9</ele>
        <time>2026-05-09T09:54:02.000Z</time>
      </trkpt>
      <trkpt lat="43.83303" lon="4.2017">
        <ele>152.2</ele>
        <time>2026-05-09T09:54:03.000Z</time>
      </trkpt>
      <trkpt lat="43.83301" lon="4.2017">
        <ele>152.6</ele>
        <time>2026-05-09T09:54:04.000Z</time>
      </trkpt>
      <trkpt lat="43.833" lon="4.2017">
        <ele>152.8</ele>
        <time>2026-05-09T09:54:05.000Z</time>
      </trkpt>
      <trkpt lat="43.83299" lon="4.20171">
        <ele>152.3</ele>
        <time>2026-05-09T09:54:06.000Z</time>
      </trkpt>
      <trkpt lat="43.83298" lon="4.20172">
        <ele>151.9</ele>
        <time>2026-05-09T09:54:07.000Z</time>
      </trkpt>
      <trkpt lat="43.83297" lon="4.20171">
        <ele>151.9</ele>
        <time>2026-05-09T09:54:08.000Z</time>
      </trkpt>
      <trkpt lat="43.83296" lon="4.20171">
        <ele>151.8</ele>
        <time>2026-05-09T09:54:09.000Z</time>
      </trkpt>
      <trkpt lat="43.83295" lon="4.2017">
        <ele>151.7</ele>
        <time>2026-05-09T09:54:10.000Z</time>
      </trkpt>
      <trkpt lat="43.83294" lon="4.2017">
        <ele>151.8</ele>
        <time>2026-05-09T09:54:11.000Z</time>
      </trkpt>
      <trkpt lat="43.83293" lon="4.2017">
        <ele>152.1</ele>
        <time>2026-05-09T09:54:12.000Z</time>
      </trkpt>
      <trkpt lat="43.83292" lon="4.2017">
        <ele>152.5</ele>
        <time>2026-05-09T09:54:13.000Z</time>
      </trkpt>
      <trkpt lat="43.8329" lon="4.20171">
        <ele>152.6</ele>
        <time>2026-05-09T09:54:14.000Z</time>
      </trkpt>
      <trkpt lat="43.83289" lon="4.2017">
        <ele>153</ele>
        <time>2026-05-09T09:54:15.000Z</time>
      </trkpt>
      <trkpt lat="43.83288" lon="4.20171">
        <ele>153</ele>
        <time>2026-05-09T09:54:16.000Z</time>
      </trkpt>
      <trkpt lat="43.83287" lon="4.20171">
        <ele>153.2</ele>
        <time>2026-05-09T09:54:17.000Z</time>
      </trkpt>
      <trkpt lat="43.83286" lon="4.20172">
        <ele>153</ele>
        <time>2026-05-09T09:54:18.000Z</time>
      </trkpt>
      <trkpt lat="43.83286" lon="4.20174">
        <ele>153.3</ele>
        <time>2026-05-09T09:54:19.000Z</time>
      </trkpt>
      <trkpt lat="43.83286" lon="4.20175">
        <ele>153.5</ele>
        <time>2026-05-09T09:54:20.000Z</time>
      </trkpt>
      <trkpt lat="43.83285" lon="4.20176">
        <ele>153.4</ele>
        <time>2026-05-09T09:54:21.000Z</time>
      </trkpt>
      <trkpt lat="43.83285" lon="4.20176">
        <ele>153.1</ele>
        <time>2026-05-09T09:54:22.000Z</time>
      </trkpt>
      <trkpt lat="43.83285" lon="4.20177">
        <ele>153.1</ele>
        <time>2026-05-09T09:54:23.000Z</time>
      </trkpt>
      <trkpt lat="43.83284" lon="4.20178">
        <ele>153.3</ele>
        <time>2026-05-09T09:54:24.000Z</time>
      </trkpt>
      <trkpt lat="43.83283" lon="4.20179">
        <ele>153</ele>
        <time>2026-05-09T09:54:25.000Z</time>
      </trkpt>
      <trkpt lat="43.83282" lon="4.20181">
        <ele>152.5</ele>
        <time>2026-05-09T09:54:26.000Z</time>
      </trkpt>
      <trkpt lat="43.83281" lon="4.20181">
        <ele>152.4</ele>
        <time>2026-05-09T09:54:27.000Z</time>
      </trkpt>
      <trkpt lat="43.83281" lon="4.20183">
        <ele>151.9</ele>
        <time>2026-05-09T09:54:28.000Z</time>
      </trkpt>
      <trkpt lat="43.83282" lon="4.20183">
        <ele>152.1</ele>
        <time>2026-05-09T09:54:29.000Z</time>
      </trkpt>
      <trkpt lat="43.83282" lon="4.20184">
        <ele>151.8</ele>
        <time>2026-05-09T09:54:30.000Z</time>
      </trkpt>
      <trkpt lat="43.83281" lon="4.20186">
        <ele>151.4</ele>
        <time>2026-05-09T09:54:31.000Z</time>
      </trkpt>
      <trkpt lat="43.8328" lon="4.20187">
        <ele>151</ele>
        <time>2026-05-09T09:54:32.000Z</time>
      </trkpt>
      <trkpt lat="43.8328" lon="4.20189">
        <ele>150.3</ele>
        <time>2026-05-09T09:54:33.000Z</time>
      </trkpt>
      <trkpt lat="43.83279" lon="4.2019">
        <ele>149.3</ele>
        <time>2026-05-09T09:54:34.000Z</time>
      </trkpt>
      <trkpt lat="43.83279" lon="4.20191">
        <ele>148.8</ele>
        <time>2026-05-09T09:54:35.000Z</time>
      </trkpt>
      <trkpt lat="43.83278" lon="4.20193">
        <ele>148.2</ele>
        <time>2026-05-09T09:54:36.000Z</time>
      </trkpt>
      <trkpt lat="43.83278" lon="4.20195">
        <ele>148.4</ele>
        <time>2026-05-09T09:54:37.000Z</time>
      </trkpt>
      <trkpt lat="43.83277" lon="4.20195">
        <ele>148.7</ele>
        <time>2026-05-09T09:54:38.000Z</time>
      </trkpt>
      <trkpt lat="43.83277" lon="4.20196">
        <ele>148.7</ele>
        <time>2026-05-09T09:54:39.000Z</time>
      </trkpt>
      <trkpt lat="43.83277" lon="4.20196">
        <ele>148.7</ele>
        <time>2026-05-09T09:54:40.000Z</time>
      </trkpt>
      <trkpt lat="43.83277" lon="4.20194">
        <ele>148.6</ele>
        <time>2026-05-09T09:54:41.000Z</time>
      </trkpt>
      <trkpt lat="43.83277" lon="4.20194">
        <ele>148.3</ele>
        <time>2026-05-09T09:54:42.000Z</time>
      </trkpt>
      <trkpt lat="43.83277" lon="4.20194">
        <ele>147.9</ele>
        <time>2026-05-09T09:54:43.000Z</time>
      </trkpt>
      <trkpt lat="43.83277" lon="4.20194">
        <ele>147.5</ele>
        <time>2026-05-09T09:54:44.000Z</time>
      </trkpt>
      <trkpt lat="43.83277" lon="4.20194">
        <ele>147.4</ele>
        <time>2026-05-09T09:54:45.000Z</time>
      </trkpt>
      <trkpt lat="43.83277" lon="4.20194">
        <ele>147.2</ele>
        <time>2026-05-09T09:54:46.000Z</time>
      </trkpt>
      <trkpt lat="43.83277" lon="4.20194">
        <ele>147.3</ele>
        <time>2026-05-09T09:54:47.000Z</time>
      </trkpt>
      <trkpt lat="43.83277" lon="4.20194">
        <ele>147.4</ele>
        <time>2026-05-09T09:54:48.000Z</time>
      </trkpt>
      <trkpt lat="43.83277" lon="4.20194">
        <ele>147.3</ele>
        <time>2026-05-09T09:54:49.000Z</time>
      </trkpt>
      <trkpt lat="43.83277" lon="4.20194">
        <ele>147.2</ele>
        <time>2026-05-09T09:54:50.000Z</time>
      </trkpt>
      <trkpt lat="43.83277" lon="4.20194">
        <ele>146.9</ele>
        <time>2026-05-09T09:54:51.000Z</time>
      </trkpt>
      <trkpt lat="43.83277" lon="4.20194">
        <ele>146.8</ele>
        <time>2026-05-09T09:54:52.000Z</time>
      </trkpt>
      <trkpt lat="43.83277" lon="4.20194">
        <ele>146.5</ele>
        <time>2026-05-09T09:54:53.000Z</time>
      </trkpt>
      <trkpt lat="43.83277" lon="4.20194">
        <ele>146.2</ele>
        <time>2026-05-09T09:54:54.000Z</time>
      </trkpt>
      <trkpt lat="43.83277" lon="4.20194">
        <ele>146</ele>
        <time>2026-05-09T09:54:55.000Z</time>
      </trkpt>
      <trkpt lat="43.83277" lon="4.20194">
        <ele>145.9</ele>
        <time>2026-05-09T09:54:56.000Z</time>
      </trkpt>
      <trkpt lat="43.83277" lon="4.20194">
        <ele>145.8</ele>
        <time>2026-05-09T09:54:57.000Z</time>
      </trkpt>
      <trkpt lat="43.83277" lon="4.20194">
        <ele>145.8</ele>
        <time>2026-05-09T09:54:58.000Z</time>
      </trkpt>
      <trkpt lat="43.83277" lon="4.20194">
        <ele>145.9</ele>
        <time>2026-05-09T09:54:59.000Z</time>
      </trkpt>
      <trkpt lat="43.83276" lon="4.20193">
        <ele>145.9</ele>
        <time>2026-05-09T09:55:00.000Z</time>
      </trkpt>
      <trkpt lat="43.83276" lon="4.20193">
        <ele>145.9</ele>
        <time>2026-05-09T09:55:01.000Z</time>
      </trkpt>
      <trkpt lat="43.83276" lon="4.20193">
        <ele>145.7</ele>
        <time>2026-05-09T09:55:02.000Z</time>
      </trkpt>
      <trkpt lat="43.83276" lon="4.20193">
        <ele>145.8</ele>
        <time>2026-05-09T09:55:03.000Z</time>
      </trkpt>
      <trkpt lat="43.83276" lon="4.20193">
        <ele>145.6</ele>
        <time>2026-05-09T09:55:04.000Z</time>
      </trkpt>
      <trkpt lat="43.83276" lon="4.20193">
        <ele>145.5</ele>
        <time>2026-05-09T09:55:05.000Z</time>
      </trkpt>
      <trkpt lat="43.83275" lon="4.20193">
        <ele>145.1</ele>
        <time>2026-05-09T09:55:06.000Z</time>
      </trkpt>
      <trkpt lat="43.83274" lon="4.20194">
        <ele>145.1</ele>
        <time>2026-05-09T09:55:07.000Z</time>
      </trkpt>
      <trkpt lat="43.83273" lon="4.20195">
        <ele>145</ele>
        <time>2026-05-09T09:55:08.000Z</time>
      </trkpt>
      <trkpt lat="43.83273" lon="4.20196">
        <ele>145.2</ele>
        <time>2026-05-09T09:55:09.000Z</time>
      </trkpt>
      <trkpt lat="43.83273" lon="4.20196">
        <ele>145.7</ele>
        <time>2026-05-09T09:55:10.000Z</time>
      </trkpt>
      <trkpt lat="43.83273" lon="4.20195">
        <ele>146.4</ele>
        <time>2026-05-09T09:55:11.000Z</time>
      </trkpt>
      <trkpt lat="43.83273" lon="4.20195">
        <ele>147</ele>
        <time>2026-05-09T09:55:12.000Z</time>
      </trkpt>
      <trkpt lat="43.83273" lon="4.20195">
        <ele>147.4</ele>
        <time>2026-05-09T09:55:13.000Z</time>
      </trkpt>
      <trkpt lat="43.83273" lon="4.20195">
        <ele>147.8</ele>
        <time>2026-05-09T09:55:14.000Z</time>
      </trkpt>
      <trkpt lat="43.83273" lon="4.20195">
        <ele>148.1</ele>
        <time>2026-05-09T09:55:15.000Z</time>
      </trkpt>
      <trkpt lat="43.83273" lon="4.20195">
        <ele>148.3</ele>
        <time>2026-05-09T09:55:16.000Z</time>
      </trkpt>
      <trkpt lat="43.83273" lon="4.20195">
        <ele>148.4</ele>
        <time>2026-05-09T09:55:17.000Z</time>
      </trkpt>
      <trkpt lat="43.83273" lon="4.20195">
        <ele>148.6</ele>
        <time>2026-05-09T09:55:18.000Z</time>
      </trkpt>
      <trkpt lat="43.83273" lon="4.20194">
        <ele>149</ele>
        <time>2026-05-09T09:55:19.000Z</time>
      </trkpt>
      <trkpt lat="43.83273" lon="4.20194">
        <ele>149.2</ele>
        <time>2026-05-09T09:55:20.000Z</time>
      </trkpt>
      <trkpt lat="43.83272" lon="4.20194">
        <ele>149.4</ele>
        <time>2026-05-09T09:55:21.000Z</time>
      </trkpt>
      <trkpt lat="43.83272" lon="4.20194">
        <ele>149.6</ele>
        <time>2026-05-09T09:55:22.000Z</time>
      </trkpt>
      <trkpt lat="43.83272" lon="4.20194">
        <ele>149.8</ele>
        <time>2026-05-09T09:55:23.000Z</time>
      </trkpt>
      <trkpt lat="43.83272" lon="4.20194">
        <ele>150.1</ele>
        <time>2026-05-09T09:55:24.000Z</time>
      </trkpt>
      <trkpt lat="43.83272" lon="4.20194">
        <ele>150.3</ele>
        <time>2026-05-09T09:55:25.000Z</time>
      </trkpt>
      <trkpt lat="43.83272" lon="4.20194">
        <ele>150.6</ele>
        <time>2026-05-09T09:55:26.000Z</time>
      </trkpt>
      <trkpt lat="43.83272" lon="4.20194">
        <ele>150.8</ele>
        <time>2026-05-09T09:55:27.000Z</time>
      </trkpt>
      <trkpt lat="43.83272" lon="4.20194">
        <ele>150.9</ele>
        <time>2026-05-09T09:55:28.000Z</time>
      </trkpt>
      <trkpt lat="43.83272" lon="4.20194">
        <ele>151</ele>
        <time>2026-05-09T09:55:29.000Z</time>
      </trkpt>
      <trkpt lat="43.83272" lon="4.20194">
        <ele>151</ele>
        <time>2026-05-09T09:55:30.000Z</time>
      </trkpt>
      <trkpt lat="43.83272" lon="4.20194">
        <ele>151.1</ele>
        <time>2026-05-09T09:55:31.000Z</time>
      </trkpt>
      <trkpt lat="43.83272" lon="4.20194">
        <ele>151.2</ele>
        <time>2026-05-09T09:55:32.000Z</time>
      </trkpt>
      <trkpt lat="43.83272" lon="4.20193">
        <ele>151.1</ele>
        <time>2026-05-09T09:55:33.000Z</time>
      </trkpt>
      <trkpt lat="43.83272" lon="4.20194">
        <ele>151.4</ele>
        <time>2026-05-09T09:55:34.000Z</time>
      </trkpt>
      <trkpt lat="43.83272" lon="4.20194">
        <ele>151.5</ele>
        <time>2026-05-09T09:55:35.000Z</time>
      </trkpt>
      <trkpt lat="43.83272" lon="4.20194">
        <ele>151.4</ele>
        <time>2026-05-09T09:55:36.000Z</time>
      </trkpt>
      <trkpt lat="43.83272" lon="4.20194">
        <ele>151.3</ele>
        <time>2026-05-09T09:55:37.000Z</time>
      </trkpt>
      <trkpt lat="43.83272" lon="4.20194">
        <ele>151.4</ele>
        <time>2026-05-09T09:55:38.000Z</time>
      </trkpt>
      <trkpt lat="43.83272" lon="4.20194">
        <ele>151.5</ele>
        <time>2026-05-09T09:55:39.000Z</time>
      </trkpt>
      <trkpt lat="43.83272" lon="4.20194">
        <ele>151.6</ele>
        <time>2026-05-09T09:55:40.000Z</time>
      </trkpt>
      <trkpt lat="43.83272" lon="4.20194">
        <ele>151.6</ele>
        <time>2026-05-09T09:55:41.000Z</time>
      </trkpt>
      <trkpt lat="43.83272" lon="4.20194">
        <ele>151.6</ele>
        <time>2026-05-09T09:55:42.000Z</time>
      </trkpt>
      <trkpt lat="43.83272" lon="4.20194">
        <ele>151.5</ele>
        <time>2026-05-09T09:55:43.000Z</time>
      </trkpt>
      <trkpt lat="43.83271" lon="4.20193">
        <ele>151.8</ele>
        <time>2026-05-09T09:55:44.000Z</time>
      </trkpt>
      <trkpt lat="43.83271" lon="4.20192">
        <ele>151.8</ele>
        <time>2026-05-09T09:55:45.000Z</time>
      </trkpt>
      <trkpt lat="43.83271" lon="4.20192">
        <ele>151.8</ele>
        <time>2026-05-09T09:55:46.000Z</time>
      </trkpt>
      <trkpt lat="43.83271" lon="4.20192">
        <ele>151.8</ele>
        <time>2026-05-09T09:55:47.000Z</time>
      </trkpt>
      <trkpt lat="43.83271" lon="4.20192">
        <ele>151.9</ele>
        <time>2026-05-09T09:55:48.000Z</time>
      </trkpt>
      <trkpt lat="43.83271" lon="4.20192">
        <ele>151.7</ele>
        <time>2026-05-09T09:55:49.000Z</time>
      </trkpt>
      <trkpt lat="43.83271" lon="4.20192">
        <ele>151.8</ele>
        <time>2026-05-09T09:55:50.000Z</time>
      </trkpt>
      <trkpt lat="43.83272" lon="4.20192">
        <ele>151.6</ele>
        <time>2026-05-09T09:55:51.000Z</time>
      </trkpt>
      <trkpt lat="43.83272" lon="4.20192">
        <ele>151.5</ele>
        <time>2026-05-09T09:55:52.000Z</time>
      </trkpt>
      <trkpt lat="43.83272" lon="4.20192">
        <ele>151.3</ele>
        <time>2026-05-09T09:55:53.000Z</time>
      </trkpt>
      <trkpt lat="43.83272" lon="4.20192">
        <ele>151.1</ele>
        <time>2026-05-09T09:55:54.000Z</time>
      </trkpt>
      <trkpt lat="43.83272" lon="4.20192">
        <ele>151.1</ele>
        <time>2026-05-09T09:55:55.000Z</time>
      </trkpt>
      <trkpt lat="43.83272" lon="4.20192">
        <ele>151.2</ele>
        <time>2026-05-09T09:55:56.000Z</time>
      </trkpt>
      <trkpt lat="43.83272" lon="4.20192">
        <ele>151.2</ele>
        <time>2026-05-09T09:55:57.000Z</time>
      </trkpt>
      <trkpt lat="43.83272" lon="4.20192">
        <ele>150.9</ele>
        <time>2026-05-09T09:55:58.000Z</time>
      </trkpt>
      <trkpt lat="43.83272" lon="4.20192">
        <ele>150.8</ele>
        <time>2026-05-09T09:55:59.000Z</time>
      </trkpt>
      <trkpt lat="43.83272" lon="4.20192">
        <ele>150.5</ele>
        <time>2026-05-09T09:56:00.000Z</time>
      </trkpt>
      <trkpt lat="43.83272" lon="4.20192">
        <ele>150.2</ele>
        <time>2026-05-09T09:56:01.000Z</time>
      </trkpt>
      <trkpt lat="43.83272" lon="4.20192">
        <ele>149.9</ele>
        <time>2026-05-09T09:56:02.000Z</time>
      </trkpt>
      <trkpt lat="43.83272" lon="4.20192">
        <ele>149.8</ele>
        <time>2026-05-09T09:56:03.000Z</time>
      </trkpt>
      <trkpt lat="43.83272" lon="4.20192">
        <ele>149.6</ele>
        <time>2026-05-09T09:56:04.000Z</time>
      </trkpt>
      <trkpt lat="43.83272" lon="4.20192">
        <ele>149.8</ele>
        <time>2026-05-09T09:56:05.000Z</time>
      </trkpt>
      <trkpt lat="43.83272" lon="4.20192">
        <ele>150</ele>
        <time>2026-05-09T09:56:06.000Z</time>
      </trkpt>
      <trkpt lat="43.83272" lon="4.20192">
        <ele>150.1</ele>
        <time>2026-05-09T09:56:07.000Z</time>
      </trkpt>
      <trkpt lat="43.83272" lon="4.20192">
        <ele>150.4</ele>
        <time>2026-05-09T09:56:08.000Z</time>
      </trkpt>
      <trkpt lat="43.83272" lon="4.20192">
        <ele>150.4</ele>
        <time>2026-05-09T09:56:09.000Z</time>
      </trkpt>
      <trkpt lat="43.83272" lon="4.20192">
        <ele>150.5</ele>
        <time>2026-05-09T09:56:10.000Z</time>
      </trkpt>
      <trkpt lat="43.83272" lon="4.20192">
        <ele>150.5</ele>
        <time>2026-05-09T09:56:11.000Z</time>
      </trkpt>
      <trkpt lat="43.83272" lon="4.20192">
        <ele>150.5</ele>
        <time>2026-05-09T09:56:12.000Z</time>
      </trkpt>
      <trkpt lat="43.83272" lon="4.20192">
        <ele>150.5</ele>
        <time>2026-05-09T09:56:13.000Z</time>
      </trkpt>
      <trkpt lat="43.83272" lon="4.20192">
        <ele>150.5</ele>
        <time>2026-05-09T09:56:14.000Z</time>
      </trkpt>
      <trkpt lat="43.83272" lon="4.20192">
        <ele>150.6</ele>
        <time>2026-05-09T09:56:15.000Z</time>
      </trkpt>
      <trkpt lat="43.83272" lon="4.20192">
        <ele>150.7</ele>
        <time>2026-05-09T09:56:16.000Z</time>
      </trkpt>
      <trkpt lat="43.83272" lon="4.20192">
        <ele>150.6</ele>
        <time>2026-05-09T09:56:17.000Z</time>
      </trkpt>
      <trkpt lat="43.83272" lon="4.20192">
        <ele>150.5</ele>
        <time>2026-05-09T09:56:18.000Z</time>
      </trkpt>
      <trkpt lat="43.83272" lon="4.20192">
        <ele>150.5</ele>
        <time>2026-05-09T09:56:19.000Z</time>
      </trkpt>
      <trkpt lat="43.83272" lon="4.20192">
        <ele>150.4</ele>
        <time>2026-05-09T09:56:20.000Z</time>
      </trkpt>
      <trkpt lat="43.83272" lon="4.20192">
        <ele>150.4</ele>
        <time>2026-05-09T09:56:21.000Z</time>
      </trkpt>
      <trkpt lat="43.83272" lon="4.20192">
        <ele>150.1</ele>
        <time>2026-05-09T09:56:22.000Z</time>
      </trkpt>
      <trkpt lat="43.83272" lon="4.20192">
        <ele>149.9</ele>
        <time>2026-05-09T09:56:23.000Z</time>
      </trkpt>
      <trkpt lat="43.83272" lon="4.20192">
        <ele>150</ele>
        <time>2026-05-09T09:56:24.000Z</time>
      </trkpt>
      <trkpt lat="43.83272" lon="4.20192">
        <ele>149.7</ele>
        <time>2026-05-09T09:56:25.000Z</time>
      </trkpt>
      <trkpt lat="43.83272" lon="4.20192">
        <ele>149.5</ele>
        <time>2026-05-09T09:56:26.000Z</time>
      </trkpt>
      <trkpt lat="43.83272" lon="4.20192">
        <ele>149.4</ele>
        <time>2026-05-09T09:56:27.000Z</time>
      </trkpt>
      <trkpt lat="43.83272" lon="4.20191">
        <ele>149</ele>
        <time>2026-05-09T09:56:28.000Z</time>
      </trkpt>
      <trkpt lat="43.83273" lon="4.20191">
        <ele>148.6</ele>
        <time>2026-05-09T09:56:29.000Z</time>
      </trkpt>
      <trkpt lat="43.83273" lon="4.20191">
        <ele>148.4</ele>
        <time>2026-05-09T09:56:30.000Z</time>
      </trkpt>
      <trkpt lat="43.83273" lon="4.20191">
        <ele>148.3</ele>
        <time>2026-05-09T09:56:31.000Z</time>
      </trkpt>
      <trkpt lat="43.83273" lon="4.20191">
        <ele>148</ele>
        <time>2026-05-09T09:56:32.000Z</time>
      </trkpt>
      <trkpt lat="43.83273" lon="4.20191">
        <ele>147.5</ele>
        <time>2026-05-09T09:56:33.000Z</time>
      </trkpt>
      <trkpt lat="43.83273" lon="4.20191">
        <ele>147.1</ele>
        <time>2026-05-09T09:56:34.000Z</time>
      </trkpt>
      <trkpt lat="43.83273" lon="4.20192">
        <ele>147</ele>
        <time>2026-05-09T09:56:35.000Z</time>
      </trkpt>
      <trkpt lat="43.83273" lon="4.20192">
        <ele>146.7</ele>
        <time>2026-05-09T09:56:36.000Z</time>
      </trkpt>
      <trkpt lat="43.83274" lon="4.20192">
        <ele>146.7</ele>
        <time>2026-05-09T09:56:37.000Z</time>
      </trkpt>
      <trkpt lat="43.83274" lon="4.20192">
        <ele>146.8</ele>
        <time>2026-05-09T09:56:38.000Z</time>
      </trkpt>
      <trkpt lat="43.83275" lon="4.20192">
        <ele>146.5</ele>
        <time>2026-05-09T09:56:39.000Z</time>
      </trkpt>
      <trkpt lat="43.83275" lon="4.2019">
        <ele>146.3</ele>
        <time>2026-05-09T09:56:40.000Z</time>
      </trkpt>
      <trkpt lat="43.83276" lon="4.20189">
        <ele>146</ele>
        <time>2026-05-09T09:56:41.000Z</time>
      </trkpt>
      <trkpt lat="43.83276" lon="4.20189">
        <ele>145.7</ele>
        <time>2026-05-09T09:56:42.000Z</time>
      </trkpt>
      <trkpt lat="43.83276" lon="4.20189">
        <ele>145.4</ele>
        <time>2026-05-09T09:56:43.000Z</time>
      </trkpt>
      <trkpt lat="43.83276" lon="4.20189">
        <ele>145.3</ele>
        <time>2026-05-09T09:56:44.000Z</time>
      </trkpt>
      <trkpt lat="43.83276" lon="4.20189">
        <ele>145.4</ele>
        <time>2026-05-09T09:56:45.000Z</time>
      </trkpt>
      <trkpt lat="43.83276" lon="4.20189">
        <ele>145.5</ele>
        <time>2026-05-09T09:56:46.000Z</time>
      </trkpt>
      <trkpt lat="43.83276" lon="4.20189">
        <ele>145.3</ele>
        <time>2026-05-09T09:56:47.000Z</time>
      </trkpt>
      <trkpt lat="43.83276" lon="4.20189">
        <ele>145.3</ele>
        <time>2026-05-09T09:56:48.000Z</time>
      </trkpt>
      <trkpt lat="43.83276" lon="4.20189">
        <ele>145.4</ele>
        <time>2026-05-09T09:56:49.000Z</time>
      </trkpt>
      <trkpt lat="43.83276" lon="4.20189">
        <ele>145.9</ele>
        <time>2026-05-09T09:56:50.000Z</time>
      </trkpt>
      <trkpt lat="43.83276" lon="4.20189">
        <ele>146.2</ele>
        <time>2026-05-09T09:56:51.000Z</time>
      </trkpt>
      <trkpt lat="43.83276" lon="4.2019">
        <ele>146.6</ele>
        <time>2026-05-09T09:56:52.000Z</time>
      </trkpt>
      <trkpt lat="43.83276" lon="4.2019">
        <ele>146.9</ele>
        <time>2026-05-09T09:56:53.000Z</time>
      </trkpt>
      <trkpt lat="43.83276" lon="4.2019">
        <ele>147.5</ele>
        <time>2026-05-09T09:56:54.000Z</time>
      </trkpt>
      <trkpt lat="43.83276" lon="4.2019">
        <ele>148</ele>
        <time>2026-05-09T09:56:55.000Z</time>
      </trkpt>
      <trkpt lat="43.83276" lon="4.2019">
        <ele>148.6</ele>
        <time>2026-05-09T09:56:56.000Z</time>
      </trkpt>
      <trkpt lat="43.83276" lon="4.2019">
        <ele>149</ele>
        <time>2026-05-09T09:56:57.000Z</time>
      </trkpt>
      <trkpt lat="43.83276" lon="4.2019">
        <ele>149.4</ele>
        <time>2026-05-09T09:56:58.000Z</time>
      </trkpt>
      <trkpt lat="43.83276" lon="4.2019">
        <ele>149.8</ele>
        <time>2026-05-09T09:56:59.000Z</time>
      </trkpt>
      <trkpt lat="43.83276" lon="4.2019">
        <ele>150.1</ele>
        <time>2026-05-09T09:57:00.000Z</time>
      </trkpt>
      <trkpt lat="43.83276" lon="4.2019">
        <ele>150.3</ele>
        <time>2026-05-09T09:57:01.000Z</time>
      </trkpt>
      <trkpt lat="43.83276" lon="4.2019">
        <ele>151</ele>
        <time>2026-05-09T09:57:02.000Z</time>
      </trkpt>
      <trkpt lat="43.83275" lon="4.2019">
        <ele>151.4</ele>
        <time>2026-05-09T09:57:03.000Z</time>
      </trkpt>
      <trkpt lat="43.83276" lon="4.2019">
        <ele>151.8</ele>
        <time>2026-05-09T09:57:04.000Z</time>
      </trkpt>
      <trkpt lat="43.83275" lon="4.2019">
        <ele>152.2</ele>
        <time>2026-05-09T09:57:05.000Z</time>
      </trkpt>
      <trkpt lat="43.83276" lon="4.2019">
        <ele>152.3</ele>
        <time>2026-05-09T09:57:06.000Z</time>
      </trkpt>
      <trkpt lat="43.83276" lon="4.2019">
        <ele>152.5</ele>
        <time>2026-05-09T09:57:07.000Z</time>
      </trkpt>
      <trkpt lat="43.83276" lon="4.2019">
        <ele>152.5</ele>
        <time>2026-05-09T09:57:08.000Z</time>
      </trkpt>
      <trkpt lat="43.83276" lon="4.2019">
        <ele>152.6</ele>
        <time>2026-05-09T09:57:09.000Z</time>
      </trkpt>
      <trkpt lat="43.83276" lon="4.2019">
        <ele>152.9</ele>
        <time>2026-05-09T09:57:10.000Z</time>
      </trkpt>
      <trkpt lat="43.83275" lon="4.2019">
        <ele>153.2</ele>
        <time>2026-05-09T09:57:11.000Z</time>
      </trkpt>
      <trkpt lat="43.83275" lon="4.20189">
        <ele>153.5</ele>
        <time>2026-05-09T09:57:12.000Z</time>
      </trkpt>
      <trkpt lat="43.83275" lon="4.20189">
        <ele>153.9</ele>
        <time>2026-05-09T09:57:13.000Z</time>
      </trkpt>
      <trkpt lat="43.83275" lon="4.20189">
        <ele>154.2</ele>
        <time>2026-05-09T09:57:14.000Z</time>
      </trkpt>
      <trkpt lat="43.83275" lon="4.20189">
        <ele>154.5</ele>
        <time>2026-05-09T09:57:15.000Z</time>
      </trkpt>
      <trkpt lat="43.83275" lon="4.20189">
        <ele>154.8</ele>
        <time>2026-05-09T09:57:16.000Z</time>
      </trkpt>
      <trkpt lat="43.83275" lon="4.20189">
        <ele>154.9</ele>
        <time>2026-05-09T09:57:17.000Z</time>
      </trkpt>
      <trkpt lat="43.83275" lon="4.20189">
        <ele>155.1</ele>
        <time>2026-05-09T09:57:18.000Z</time>
      </trkpt>
      <trkpt lat="43.83275" lon="4.20189">
        <ele>155.2</ele>
        <time>2026-05-09T09:57:19.000Z</time>
      </trkpt>
      <trkpt lat="43.83275" lon="4.20189">
        <ele>155.3</ele>
        <time>2026-05-09T09:57:20.000Z</time>
      </trkpt>
      <trkpt lat="43.83275" lon="4.20189">
        <ele>155.4</ele>
        <time>2026-05-09T09:57:21.000Z</time>
      </trkpt>
      <trkpt lat="43.83275" lon="4.20189">
        <ele>155.4</ele>
        <time>2026-05-09T09:57:22.000Z</time>
      </trkpt>
    </trkseg>
  </trk>
</gpx>